<?xml version="1.0" encoding="UTF-8" standalone="no" ?>
<gpx xmlns="http://www.topografix.com/GPX/1/1" xmlns:xsi="http://www.w3.org/2001/XMLSchema-instance" xsi:schemaLocation="http://www.topografix.com/GPX/1/1 http://www.topografix.com/GPX/1/1/gpx.xsd" version="1.1" creator="VisuGPX - https://www.visugpx.com">
  <metadata>
    <name>gravel io</name>
  </metadata>
  <trk>
    <name><![CDATA[gravel io_1]]></name>
    <trkseg>
      <trkpt lat="45.8692" lon="-1.21236">
        <ele>3</ele>
      </trkpt>
      <trkpt lat="45.8692" lon="-1.21236">
        <ele>3</ele>
      </trkpt>
      <trkpt lat="45.86908" lon="-1.21219">
        <ele>-4</ele>
        <time>2021-11-09T07:24:15.000Z</time>
      </trkpt>
      <trkpt lat="45.869" lon="-1.21203">
        <ele>-4.1999998092651</ele>
        <time>2021-11-09T07:24:17.000Z</time>
      </trkpt>
      <trkpt lat="45.86864" lon="-1.2114">
        <ele>-4.8000001907349</ele>
        <time>2021-11-09T07:24:25.000Z</time>
      </trkpt>
      <trkpt lat="45.8683" lon="-1.21075">
        <ele>-5</ele>
        <time>2021-11-09T07:24:33.000Z</time>
      </trkpt>
      <trkpt lat="45.86804" lon="-1.21025">
        <ele>-5.1999998092651</ele>
        <time>2021-11-09T07:24:39.000Z</time>
      </trkpt>
      <trkpt lat="45.86791" lon="-1.21001">
        <ele>-5.4000000953674</ele>
        <time>2021-11-09T07:24:42.000Z</time>
      </trkpt>
      <trkpt lat="45.86787" lon="-1.20993">
        <ele>-5.4000000953674</ele>
        <time>2021-11-09T07:24:43.000Z</time>
      </trkpt>
      <trkpt lat="45.86777" lon="-1.20968">
        <ele>-5.5999999046326</ele>
        <time>2021-11-09T07:24:46.000Z</time>
      </trkpt>
      <trkpt lat="45.86767" lon="-1.20954">
        <ele>-5.5999999046326</ele>
        <time>2021-11-09T07:24:48.000Z</time>
      </trkpt>
      <trkpt lat="45.86734" lon="-1.20919">
        <ele>-5</ele>
        <time>2021-11-09T07:24:54.000Z</time>
      </trkpt>
      <trkpt lat="45.86723" lon="-1.20906">
        <ele>-4.8000001907349</ele>
        <time>2021-11-09T07:24:56.000Z</time>
      </trkpt>
      <trkpt lat="45.8671" lon="-1.20881">
        <ele>-4.5999999046326</ele>
        <time>2021-11-09T07:24:59.000Z</time>
      </trkpt>
      <trkpt lat="45.8669" lon="-1.20837">
        <ele>-4.5999999046326</ele>
        <time>2021-11-09T07:25:04.000Z</time>
      </trkpt>
      <trkpt lat="45.8668" lon="-1.20822">
        <ele>-4.4000000953674</ele>
        <time>2021-11-09T07:25:06.000Z</time>
      </trkpt>
      <trkpt lat="45.86674" lon="-1.20815">
        <ele>-4.4000000953674</ele>
        <time>2021-11-09T07:25:07.000Z</time>
      </trkpt>
      <trkpt lat="45.8663" lon="-1.20756">
        <ele>-4.1999998092651</ele>
        <time>2021-11-09T07:25:15.000Z</time>
      </trkpt>
      <trkpt lat="45.8659" lon="-1.20693">
        <ele>-3.7999999523163</ele>
        <time>2021-11-09T07:25:23.000Z</time>
      </trkpt>
      <trkpt lat="45.8658" lon="-1.20677">
        <ele>-3.5999999046326</ele>
        <time>2021-11-09T07:25:25.000Z</time>
      </trkpt>
      <trkpt lat="45.8657" lon="-1.20661">
        <ele>-3.5999999046326</ele>
        <time>2021-11-09T07:25:27.000Z</time>
      </trkpt>
      <trkpt lat="45.86547" lon="-1.20618">
        <ele>-3.2000000476837</ele>
        <time>2021-11-09T07:25:32.000Z</time>
      </trkpt>
      <trkpt lat="45.86528" lon="-1.20561">
        <ele>-3.2000000476837</ele>
        <time>2021-11-09T07:25:38.000Z</time>
      </trkpt>
      <trkpt lat="45.86503" lon="-1.20511">
        <ele>-2.5999999046326</ele>
        <time>2021-11-09T07:25:44.000Z</time>
      </trkpt>
      <trkpt lat="45.86491" lon="-1.20505">
        <ele>-2.5999999046326</ele>
        <time>2021-11-09T07:25:46.000Z</time>
      </trkpt>
      <trkpt lat="45.86485" lon="-1.20506">
        <ele>-2.4000000953674</ele>
        <time>2021-11-09T07:25:47.000Z</time>
      </trkpt>
      <trkpt lat="45.86479" lon="-1.20507">
        <ele>-2.4000000953674</ele>
        <time>2021-11-09T07:25:48.000Z</time>
      </trkpt>
      <trkpt lat="45.86474" lon="-1.20503">
        <ele>-2.4000000953674</ele>
        <time>2021-11-09T07:25:49.000Z</time>
      </trkpt>
      <trkpt lat="45.86469" lon="-1.20488">
        <ele>-2.4000000953674</ele>
        <time>2021-11-09T07:25:51.000Z</time>
      </trkpt>
      <trkpt lat="45.86467" lon="-1.20479">
        <ele>-2.4000000953674</ele>
        <time>2021-11-09T07:25:52.000Z</time>
      </trkpt>
      <trkpt lat="45.86452" lon="-1.20404">
        <ele>-3.4000000953674</ele>
        <time>2021-11-09T07:26:00.000Z</time>
      </trkpt>
      <trkpt lat="45.86448" lon="-1.20387">
        <ele>-3.5999999046326</ele>
        <time>2021-11-09T07:26:02.000Z</time>
      </trkpt>
      <trkpt lat="45.86446" lon="-1.20379">
        <ele>-3.5999999046326</ele>
        <time>2021-11-09T07:26:03.000Z</time>
      </trkpt>
      <trkpt lat="45.86442" lon="-1.20372">
        <ele>-3.5999999046326</ele>
        <time>2021-11-09T07:26:04.000Z</time>
      </trkpt>
      <trkpt lat="45.86437" lon="-1.20368">
        <ele>-3.4000000953674</ele>
        <time>2021-11-09T07:26:05.000Z</time>
      </trkpt>
      <trkpt lat="45.86427" lon="-1.2036">
        <ele>-3.4000000953674</ele>
        <time>2021-11-09T07:26:07.000Z</time>
      </trkpt>
      <trkpt lat="45.86425" lon="-1.20348">
        <ele>-3.4000000953674</ele>
        <time>2021-11-09T07:26:09.000Z</time>
      </trkpt>
      <trkpt lat="45.86432" lon="-1.2033">
        <ele>-3.4000000953674</ele>
        <time>2021-11-09T07:26:12.000Z</time>
      </trkpt>
      <trkpt lat="45.86433" lon="-1.20325">
        <ele>-3.4000000953674</ele>
        <time>2021-11-09T07:26:13.000Z</time>
      </trkpt>
      <trkpt lat="45.86432" lon="-1.2032">
        <ele>-3.4000000953674</ele>
        <time>2021-11-09T07:26:14.000Z</time>
      </trkpt>
      <trkpt lat="45.86427" lon="-1.20316">
        <ele>-3.4000000953674</ele>
        <time>2021-11-09T07:26:16.000Z</time>
      </trkpt>
      <trkpt lat="45.86424" lon="-1.20314">
        <ele>-3.4000000953674</ele>
        <time>2021-11-09T07:26:17.000Z</time>
      </trkpt>
      <trkpt lat="45.8642" lon="-1.20305">
        <ele>-3.4000000953674</ele>
        <time>2021-11-09T07:26:19.000Z</time>
      </trkpt>
      <trkpt lat="45.86413" lon="-1.203">
        <ele>-3.5999999046326</ele>
        <time>2021-11-09T07:26:21.000Z</time>
      </trkpt>
      <trkpt lat="45.8641" lon="-1.20295">
        <ele>-3.5999999046326</ele>
        <time>2021-11-09T07:26:22.000Z</time>
      </trkpt>
      <trkpt lat="45.8641" lon="-1.2029">
        <ele>-3.5999999046326</ele>
        <time>2021-11-09T07:26:23.000Z</time>
      </trkpt>
      <trkpt lat="45.86411" lon="-1.20283">
        <ele>-3.4000000953674</ele>
        <time>2021-11-09T07:26:24.000Z</time>
      </trkpt>
      <trkpt lat="45.86416" lon="-1.20269">
        <ele>-3.2000000476837</ele>
        <time>2021-11-09T07:26:26.000Z</time>
      </trkpt>
      <trkpt lat="45.8642" lon="-1.20254">
        <ele>-3.4000000953674</ele>
        <time>2021-11-09T07:26:28.000Z</time>
      </trkpt>
      <trkpt lat="45.8642" lon="-1.20236">
        <ele>-3.4000000953674</ele>
        <time>2021-11-09T07:26:30.000Z</time>
      </trkpt>
      <trkpt lat="45.86414" lon="-1.2022">
        <ele>-3.2000000476837</ele>
        <time>2021-11-09T07:26:32.000Z</time>
      </trkpt>
      <trkpt lat="45.86411" lon="-1.20213">
        <ele>-3.2000000476837</ele>
        <time>2021-11-09T07:26:33.000Z</time>
      </trkpt>
      <trkpt lat="45.86409" lon="-1.20206">
        <ele>-3.2000000476837</ele>
        <time>2021-11-09T07:26:34.000Z</time>
      </trkpt>
      <trkpt lat="45.86408" lon="-1.20189">
        <ele>-3.2000000476837</ele>
        <time>2021-11-09T07:26:36.000Z</time>
      </trkpt>
      <trkpt lat="45.86413" lon="-1.20173">
        <ele>-3.2000000476837</ele>
        <time>2021-11-09T07:26:38.000Z</time>
      </trkpt>
      <trkpt lat="45.86417" lon="-1.20166">
        <ele>-3</ele>
        <time>2021-11-09T07:26:39.000Z</time>
      </trkpt>
      <trkpt lat="45.86422" lon="-1.20159">
        <ele>-3</ele>
        <time>2021-11-09T07:26:40.000Z</time>
      </trkpt>
      <trkpt lat="45.86435" lon="-1.2015">
        <ele>-3</ele>
        <time>2021-11-09T07:26:42.000Z</time>
      </trkpt>
      <trkpt lat="45.86441" lon="-1.20146">
        <ele>-2.7999999523163</ele>
        <time>2021-11-09T07:26:43.000Z</time>
      </trkpt>
      <trkpt lat="45.86474" lon="-1.20126">
        <ele>-2.4000000953674</ele>
        <time>2021-11-09T07:26:48.000Z</time>
      </trkpt>
      <trkpt lat="45.86523" lon="-1.20094">
        <ele>-2</ele>
        <time>2021-11-09T07:26:56.000Z</time>
      </trkpt>
      <trkpt lat="45.86549" lon="-1.20077">
        <ele>-1.7999999523163</ele>
        <time>2021-11-09T07:27:01.000Z</time>
      </trkpt>
      <trkpt lat="45.86556" lon="-1.2007">
        <ele>-1.7999999523163</ele>
        <time>2021-11-09T07:27:03.000Z</time>
      </trkpt>
      <trkpt lat="45.86561" lon="-1.20064">
        <ele>-1.7999999523163</ele>
        <time>2021-11-09T07:27:05.000Z</time>
      </trkpt>
      <trkpt lat="45.86581" lon="-1.20054">
        <ele>-1.6000000238419</ele>
        <time>2021-11-09T07:27:09.000Z</time>
      </trkpt>
      <trkpt lat="45.86605" lon="-1.20038">
        <ele>-1.6000000238419</ele>
        <time>2021-11-09T07:27:13.000Z</time>
      </trkpt>
      <trkpt lat="45.8661" lon="-1.20032">
        <ele>-1.6000000238419</ele>
        <time>2021-11-09T07:27:14.000Z</time>
      </trkpt>
      <trkpt lat="45.86615" lon="-1.20027">
        <ele>-1.6000000238419</ele>
        <time>2021-11-09T07:27:15.000Z</time>
      </trkpt>
      <trkpt lat="45.86627" lon="-1.20022">
        <ele>-1.3999999761581</ele>
        <time>2021-11-09T07:27:17.000Z</time>
      </trkpt>
      <trkpt lat="45.8667" lon="-1.20022">
        <ele>-1.6000000238419</ele>
        <time>2021-11-09T07:27:23.000Z</time>
      </trkpt>
      <trkpt lat="45.86727" lon="-1.20021">
        <ele>-1.6000000238419</ele>
        <time>2021-11-09T07:27:31.000Z</time>
      </trkpt>
      <trkpt lat="45.86756" lon="-1.20022">
        <ele>-1.6000000238419</ele>
        <time>2021-11-09T07:27:35.000Z</time>
      </trkpt>
      <trkpt lat="45.86767" lon="-1.20015">
        <ele>-1.7999999523163</ele>
        <time>2021-11-09T07:27:37.000Z</time>
      </trkpt>
      <trkpt lat="45.86792" lon="-1.19981">
        <ele>-1.7999999523163</ele>
        <time>2021-11-09T07:27:42.000Z</time>
      </trkpt>
      <trkpt lat="45.86803" lon="-1.19969">
        <ele>-1.7999999523163</ele>
        <time>2021-11-09T07:27:44.000Z</time>
      </trkpt>
      <trkpt lat="45.86833" lon="-1.19929">
        <ele>-1.6000000238419</ele>
        <time>2021-11-09T07:27:50.000Z</time>
      </trkpt>
      <trkpt lat="45.86862" lon="-1.19893">
        <ele>-1.2000000476837</ele>
        <time>2021-11-09T07:27:56.000Z</time>
      </trkpt>
      <trkpt lat="45.86866" lon="-1.19887">
        <ele>-1.2000000476837</ele>
        <time>2021-11-09T07:27:57.000Z</time>
      </trkpt>
      <trkpt lat="45.86874" lon="-1.19876">
        <ele>-1.2000000476837</ele>
        <time>2021-11-09T07:27:59.000Z</time>
      </trkpt>
      <trkpt lat="45.86879" lon="-1.19871">
        <ele>-1.3999999761581</ele>
        <time>2021-11-09T07:28:00.000Z</time>
      </trkpt>
      <trkpt lat="45.86899" lon="-1.19848">
        <ele>-1.6000000238419</ele>
        <time>2021-11-09T07:28:05.000Z</time>
      </trkpt>
      <trkpt lat="45.869" lon="-1.19846">
        <ele>-1.6000000238419</ele>
        <time>2021-11-09T07:28:06.000Z</time>
      </trkpt>
      <trkpt lat="45.86901" lon="-1.19845">
        <ele>-1.6000000238419</ele>
        <time>2021-11-09T07:28:07.000Z</time>
      </trkpt>
      <trkpt lat="45.86901" lon="-1.19843">
        <ele>-1.6000000238419</ele>
        <time>2021-11-09T07:28:09.000Z</time>
      </trkpt>
      <trkpt lat="45.86902" lon="-1.19842">
        <ele>-1.6000000238419</ele>
        <time>2021-11-09T07:28:12.000Z</time>
      </trkpt>
      <trkpt lat="45.86907" lon="-1.19836">
        <ele>0.20000000298023</ele>
        <time>2021-11-09T07:30:44.000Z</time>
      </trkpt>
      <trkpt lat="45.86918" lon="-1.19823">
        <ele>0.20000000298023</ele>
        <time>2021-11-09T07:30:47.000Z</time>
      </trkpt>
      <trkpt lat="45.86922" lon="-1.1982">
        <ele>0.20000000298023</ele>
        <time>2021-11-09T07:30:48.000Z</time>
      </trkpt>
      <trkpt lat="45.86926" lon="-1.19817">
        <ele>0.20000000298023</ele>
        <time>2021-11-09T07:30:49.000Z</time>
      </trkpt>
      <trkpt lat="45.86947" lon="-1.198">
        <ele>0.60000002384186</ele>
        <time>2021-11-09T07:30:53.000Z</time>
      </trkpt>
      <trkpt lat="45.86958" lon="-1.19794">
        <ele>0.60000002384186</ele>
        <time>2021-11-09T07:30:55.000Z</time>
      </trkpt>
      <trkpt lat="45.8697" lon="-1.19789">
        <ele>0.60000002384186</ele>
        <time>2021-11-09T07:30:57.000Z</time>
      </trkpt>
      <trkpt lat="45.8698" lon="-1.19782">
        <ele>0.40000000596046</ele>
        <time>2021-11-09T07:30:59.000Z</time>
      </trkpt>
      <trkpt lat="45.86985" lon="-1.19777">
        <ele>0.40000000596046</ele>
        <time>2021-11-09T07:31:00.000Z</time>
      </trkpt>
      <trkpt lat="45.87018" lon="-1.19753">
        <ele>0.20000000298023</ele>
        <time>2021-11-09T07:31:06.000Z</time>
      </trkpt>
      <trkpt lat="45.8703" lon="-1.19749">
        <ele>0.60000002384186</ele>
        <time>2021-11-09T07:31:08.000Z</time>
      </trkpt>
      <trkpt lat="45.87044" lon="-1.19749">
        <ele>0.80000001192093</ele>
        <time>2021-11-09T07:31:10.000Z</time>
      </trkpt>
      <trkpt lat="45.87051" lon="-1.1975">
        <ele>0.80000001192093</ele>
        <time>2021-11-09T07:31:11.000Z</time>
      </trkpt>
      <trkpt lat="45.87064" lon="-1.19748">
        <ele>0.80000001192093</ele>
        <time>2021-11-09T07:31:13.000Z</time>
      </trkpt>
      <trkpt lat="45.87069" lon="-1.19746">
        <ele>0.80000001192093</ele>
        <time>2021-11-09T07:31:14.000Z</time>
      </trkpt>
      <trkpt lat="45.87106" lon="-1.19728">
        <ele>1.2000000476837</ele>
        <time>2021-11-09T07:31:20.000Z</time>
      </trkpt>
      <trkpt lat="45.87112" lon="-1.19726">
        <ele>1.3999999761581</ele>
        <time>2021-11-09T07:31:21.000Z</time>
      </trkpt>
      <trkpt lat="45.87131" lon="-1.19723">
        <ele>1.3999999761581</ele>
        <time>2021-11-09T07:31:24.000Z</time>
      </trkpt>
      <trkpt lat="45.87161" lon="-1.19735">
        <ele>1.7999999523163</ele>
        <time>2021-11-09T07:31:29.000Z</time>
      </trkpt>
      <trkpt lat="45.87185" lon="-1.19745">
        <ele>1.7999999523163</ele>
        <time>2021-11-09T07:31:33.000Z</time>
      </trkpt>
      <trkpt lat="45.8719" lon="-1.19744">
        <ele>1.7999999523163</ele>
        <time>2021-11-09T07:31:34.000Z</time>
      </trkpt>
      <trkpt lat="45.87194" lon="-1.19741">
        <ele>1.7999999523163</ele>
        <time>2021-11-09T07:31:35.000Z</time>
      </trkpt>
      <trkpt lat="45.87203" lon="-1.1973">
        <ele>1.7999999523163</ele>
        <time>2021-11-09T07:31:37.000Z</time>
      </trkpt>
      <trkpt lat="45.87208" lon="-1.19725">
        <ele>1.7999999523163</ele>
        <time>2021-11-09T07:31:38.000Z</time>
      </trkpt>
      <trkpt lat="45.87243" lon="-1.1969">
        <ele>1.7999999523163</ele>
        <time>2021-11-09T07:31:45.000Z</time>
      </trkpt>
      <trkpt lat="45.87244" lon="-1.19684">
        <ele>1.7999999523163</ele>
        <time>2021-11-09T07:31:46.000Z</time>
      </trkpt>
      <trkpt lat="45.87239" lon="-1.19642">
        <ele>2</ele>
        <time>2021-11-09T07:31:51.000Z</time>
      </trkpt>
      <trkpt lat="45.87237" lon="-1.19605">
        <ele>2</ele>
        <time>2021-11-09T07:31:55.000Z</time>
      </trkpt>
      <trkpt lat="45.8724" lon="-1.19587">
        <ele>2</ele>
        <time>2021-11-09T07:31:57.000Z</time>
      </trkpt>
      <trkpt lat="45.87252" lon="-1.19573">
        <ele>2</ele>
        <time>2021-11-09T07:32:00.000Z</time>
      </trkpt>
      <trkpt lat="45.87257" lon="-1.19569">
        <ele>2</ele>
        <time>2021-11-09T07:32:01.000Z</time>
      </trkpt>
      <trkpt lat="45.87284" lon="-1.19542">
        <ele>1.6000000238419</ele>
        <time>2021-11-09T07:32:06.000Z</time>
      </trkpt>
      <trkpt lat="45.87325" lon="-1.19494">
        <ele>1.6000000238419</ele>
        <time>2021-11-09T07:32:14.000Z</time>
      </trkpt>
      <trkpt lat="45.8733" lon="-1.19477">
        <ele>1.6000000238419</ele>
        <time>2021-11-09T07:32:16.000Z</time>
      </trkpt>
      <trkpt lat="45.87331" lon="-1.19467">
        <ele>1.6000000238419</ele>
        <time>2021-11-09T07:32:17.000Z</time>
      </trkpt>
      <trkpt lat="45.87334" lon="-1.19401">
        <ele>1.6000000238419</ele>
        <time>2021-11-09T07:32:24.000Z</time>
      </trkpt>
      <trkpt lat="45.87334" lon="-1.19392">
        <ele>1.3999999761581</ele>
        <time>2021-11-09T07:32:25.000Z</time>
      </trkpt>
      <trkpt lat="45.87334" lon="-1.19376">
        <ele>1.2000000476837</ele>
        <time>2021-11-09T07:32:27.000Z</time>
      </trkpt>
      <trkpt lat="45.87334" lon="-1.19368">
        <ele>1.2000000476837</ele>
        <time>2021-11-09T07:32:28.000Z</time>
      </trkpt>
      <trkpt lat="45.87337" lon="-1.19319">
        <ele>1.2000000476837</ele>
        <time>2021-11-09T07:32:34.000Z</time>
      </trkpt>
      <trkpt lat="45.87339" lon="-1.19311">
        <ele>1.3999999761581</ele>
        <time>2021-11-09T07:32:35.000Z</time>
      </trkpt>
      <trkpt lat="45.87342" lon="-1.19305">
        <ele>1.3999999761581</ele>
        <time>2021-11-09T07:32:36.000Z</time>
      </trkpt>
      <trkpt lat="45.87352" lon="-1.193">
        <ele>1.6000000238419</ele>
        <time>2021-11-09T07:32:38.000Z</time>
      </trkpt>
      <trkpt lat="45.87401" lon="-1.1929">
        <ele>1.7999999523163</ele>
        <time>2021-11-09T07:32:45.000Z</time>
      </trkpt>
      <trkpt lat="45.87414" lon="-1.19286">
        <ele>1.7999999523163</ele>
        <time>2021-11-09T07:32:48.000Z</time>
      </trkpt>
      <trkpt lat="45.8746" lon="-1.19283">
        <ele>1.7999999523163</ele>
        <time>2021-11-09T07:32:54.000Z</time>
      </trkpt>
      <trkpt lat="45.87497" lon="-1.19294">
        <ele>1.6000000238419</ele>
        <time>2021-11-09T07:33:00.000Z</time>
      </trkpt>
      <trkpt lat="45.87532" lon="-1.19309">
        <ele>1.6000000238419</ele>
        <time>2021-11-09T07:33:06.000Z</time>
      </trkpt>
      <trkpt lat="45.87538" lon="-1.19312">
        <ele>1.3999999761581</ele>
        <time>2021-11-09T07:33:08.000Z</time>
      </trkpt>
      <trkpt lat="45.87567" lon="-1.19325">
        <ele>1.6000000238419</ele>
        <time>2021-11-09T07:33:12.000Z</time>
      </trkpt>
      <trkpt lat="45.87585" lon="-1.19335">
        <ele>1.7999999523163</ele>
        <time>2021-11-09T07:33:15.000Z</time>
      </trkpt>
      <trkpt lat="45.87609" lon="-1.19345">
        <ele>2.4000000953674</ele>
        <time>2021-11-09T07:33:19.000Z</time>
      </trkpt>
      <trkpt lat="45.87621" lon="-1.1935">
        <ele>2.2000000476837</ele>
        <time>2021-11-09T07:33:21.000Z</time>
      </trkpt>
      <trkpt lat="45.87621" lon="-1.1935">
        <ele>2</ele>
        <time>2021-11-09T07:33:22.000Z</time>
      </trkpt>
      <trkpt lat="45.87647" lon="-1.19362">
        <ele>1.3999999761581</ele>
        <time>2021-11-09T07:33:26.000Z</time>
      </trkpt>
      <trkpt lat="45.87667" lon="-1.19371">
        <ele>1.3999999761581</ele>
        <time>2021-11-09T07:33:28.000Z</time>
      </trkpt>
      <trkpt lat="45.8768" lon="-1.19374">
        <ele>1.3999999761581</ele>
        <time>2021-11-09T07:33:30.000Z</time>
      </trkpt>
      <trkpt lat="45.87714" lon="-1.19374">
        <ele>1.6000000238419</ele>
        <time>2021-11-09T07:33:36.000Z</time>
      </trkpt>
      <trkpt lat="45.87768" lon="-1.19368">
        <ele>1.7999999523163</ele>
        <time>2021-11-09T07:33:44.000Z</time>
      </trkpt>
      <trkpt lat="45.87828" lon="-1.19369">
        <ele>1.6000000238419</ele>
        <time>2021-11-09T07:33:52.000Z</time>
      </trkpt>
      <trkpt lat="45.87862" lon="-1.1937">
        <ele>1.6000000238419</ele>
        <time>2021-11-09T07:33:57.000Z</time>
      </trkpt>
      <trkpt lat="45.87922" lon="-1.19368">
        <ele>1.3999999761581</ele>
        <time>2021-11-09T07:34:06.000Z</time>
      </trkpt>
      <trkpt lat="45.87975" lon="-1.19364">
        <ele>1.6000000238419</ele>
        <time>2021-11-09T07:34:15.000Z</time>
      </trkpt>
      <trkpt lat="45.88028" lon="-1.19369">
        <ele>1.6000000238419</ele>
        <time>2021-11-09T07:34:22.000Z</time>
      </trkpt>
      <trkpt lat="45.88062" lon="-1.19376">
        <ele>1.3999999761581</ele>
        <time>2021-11-09T07:34:28.000Z</time>
      </trkpt>
      <trkpt lat="45.88075" lon="-1.19383">
        <ele>1.3999999761581</ele>
        <time>2021-11-09T07:34:31.000Z</time>
      </trkpt>
      <trkpt lat="45.88086" lon="-1.19384">
        <ele>1.6000000238419</ele>
        <time>2021-11-09T07:34:33.000Z</time>
      </trkpt>
      <trkpt lat="45.88092" lon="-1.19384">
        <ele>1.7999999523163</ele>
        <time>2021-11-09T07:34:34.000Z</time>
      </trkpt>
      <trkpt lat="45.8811" lon="-1.19378">
        <ele>1.7999999523163</ele>
        <time>2021-11-09T07:34:37.000Z</time>
      </trkpt>
      <trkpt lat="45.88153" lon="-1.19357">
        <ele>2</ele>
        <time>2021-11-09T07:34:44.000Z</time>
      </trkpt>
      <trkpt lat="45.88175" lon="-1.19333">
        <ele>4</ele>
      </trkpt>
      <trkpt lat="45.88175" lon="-1.19333">
        <ele>4</ele>
      </trkpt>
      <trkpt lat="45.88248" lon="-1.19229">
        <ele>3.8</ele>
      </trkpt>
      <trkpt lat="45.88248" lon="-1.19229">
        <ele>3.8</ele>
      </trkpt>
      <trkpt lat="45.88249" lon="-1.19221">
        <ele>3</ele>
        <time>2021-11-09T07:37:52.000Z</time>
      </trkpt>
      <trkpt lat="45.88254" lon="-1.19179">
        <ele>3</ele>
        <time>2021-11-09T07:37:57.000Z</time>
      </trkpt>
      <trkpt lat="45.88257" lon="-1.19103">
        <ele>2.7999999523163</ele>
        <time>2021-11-09T07:38:05.000Z</time>
      </trkpt>
      <trkpt lat="45.88247" lon="-1.1904">
        <ele>3.2000000476837</ele>
        <time>2021-11-09T07:38:12.000Z</time>
      </trkpt>
      <trkpt lat="45.88243" lon="-1.19004">
        <ele>3.2000000476837</ele>
        <time>2021-11-09T07:38:16.000Z</time>
      </trkpt>
      <trkpt lat="45.88244" lon="-1.18998">
        <ele>3.2000000476837</ele>
        <time>2021-11-09T07:38:17.000Z</time>
      </trkpt>
      <trkpt lat="45.88247" lon="-1.18991">
        <ele>3</ele>
        <time>2021-11-09T07:38:18.000Z</time>
      </trkpt>
      <trkpt lat="45.88256" lon="-1.18982">
        <ele>3</ele>
        <time>2021-11-09T07:38:20.000Z</time>
      </trkpt>
      <trkpt lat="45.88267" lon="-1.18986">
        <ele>3</ele>
        <time>2021-11-09T07:38:22.000Z</time>
      </trkpt>
      <trkpt lat="45.8829" lon="-1.1902">
        <ele>2.4000000953674</ele>
        <time>2021-11-09T07:38:27.000Z</time>
      </trkpt>
      <trkpt lat="45.88327" lon="-1.19067">
        <ele>2.5999999046326</ele>
        <time>2021-11-09T07:38:34.000Z</time>
      </trkpt>
      <trkpt lat="45.88333" lon="-1.19085">
        <ele>2.5999999046326</ele>
        <time>2021-11-09T07:38:36.000Z</time>
      </trkpt>
      <trkpt lat="45.88335" lon="-1.19094">
        <ele>2.5999999046326</ele>
        <time>2021-11-09T07:38:37.000Z</time>
      </trkpt>
      <trkpt lat="45.88353" lon="-1.19175">
        <ele>2.5999999046326</ele>
        <time>2021-11-09T07:38:45.000Z</time>
      </trkpt>
      <trkpt lat="45.88356" lon="-1.19186">
        <ele>2.7999999523163</ele>
        <time>2021-11-09T07:38:46.000Z</time>
      </trkpt>
      <trkpt lat="45.8836" lon="-1.19206">
        <ele>2.7999999523163</ele>
        <time>2021-11-09T07:38:48.000Z</time>
      </trkpt>
      <trkpt lat="45.88361" lon="-1.19226">
        <ele>2.7999999523163</ele>
        <time>2021-11-09T07:38:50.000Z</time>
      </trkpt>
      <trkpt lat="45.88358" lon="-1.19244">
        <ele>3</ele>
        <time>2021-11-09T07:38:52.000Z</time>
      </trkpt>
      <trkpt lat="45.88356" lon="-1.19252">
        <ele>3</ele>
        <time>2021-11-09T07:38:53.000Z</time>
      </trkpt>
      <trkpt lat="45.88349" lon="-1.19258">
        <ele>3.6</ele>
      </trkpt>
      <trkpt lat="45.88349" lon="-1.19258">
        <ele>3.6</ele>
      </trkpt>
      <trkpt lat="45.88368" lon="-1.1934">
        <ele>3.5</ele>
      </trkpt>
      <trkpt lat="45.88316" lon="-1.19374">
        <ele>3.3</ele>
      </trkpt>
      <trkpt lat="45.88316" lon="-1.19374">
        <ele>3.3</ele>
      </trkpt>
      <trkpt lat="45.88311" lon="-1.19379">
        <ele>3.2000000476837</ele>
        <time>2021-11-09T07:37:13.000Z</time>
      </trkpt>
      <trkpt lat="45.88305" lon="-1.19384">
        <ele>3.2000000476837</ele>
        <time>2021-11-09T07:37:12.000Z</time>
      </trkpt>
      <trkpt lat="45.88276" lon="-1.19403">
        <ele>3.4000000953674</ele>
        <time>2021-11-09T07:37:07.000Z</time>
      </trkpt>
      <trkpt lat="45.88271" lon="-1.19409">
        <ele>3.4000000953674</ele>
        <time>2021-11-09T07:37:06.000Z</time>
      </trkpt>
      <trkpt lat="45.88265" lon="-1.19424">
        <ele>3.4000000953674</ele>
        <time>2021-11-09T07:37:04.000Z</time>
      </trkpt>
      <trkpt lat="45.88266" lon="-1.19441">
        <ele>3.5999999046326</ele>
        <time>2021-11-09T07:37:02.000Z</time>
      </trkpt>
      <trkpt lat="45.88269" lon="-1.19449">
        <ele>3.5999999046326</ele>
        <time>2021-11-09T07:37:01.000Z</time>
      </trkpt>
      <trkpt lat="45.88273" lon="-1.19455">
        <ele>3.5999999046326</ele>
        <time>2021-11-09T07:37:00.000Z</time>
      </trkpt>
      <trkpt lat="45.88285" lon="-1.19459">
        <ele>3.4000000953674</ele>
        <time>2021-11-09T07:36:58.000Z</time>
      </trkpt>
      <trkpt lat="45.88291" lon="-1.19457">
        <ele>3.4000000953674</ele>
        <time>2021-11-09T07:36:57.000Z</time>
      </trkpt>
      <trkpt lat="45.883" lon="-1.19449">
        <ele>3.4000000953674</ele>
        <time>2021-11-09T07:36:55.000Z</time>
      </trkpt>
      <trkpt lat="45.88305" lon="-1.19437">
        <ele>3.4000000953674</ele>
        <time>2021-11-09T07:36:53.000Z</time>
      </trkpt>
      <trkpt lat="45.88306" lon="-1.19431">
        <ele>3.4000000953674</ele>
        <time>2021-11-09T07:36:52.000Z</time>
      </trkpt>
      <trkpt lat="45.88303" lon="-1.1942">
        <ele>3.4000000953674</ele>
        <time>2021-11-09T07:36:51.000Z</time>
      </trkpt>
      <trkpt lat="45.88302" lon="-1.19413">
        <ele>3.2000000476837</ele>
        <time>2021-11-09T07:36:49.000Z</time>
      </trkpt>
      <trkpt lat="45.88303" lon="-1.19407">
        <ele>3.2000000476837</ele>
        <time>2021-11-09T07:36:48.000Z</time>
      </trkpt>
      <trkpt lat="45.88306" lon="-1.19402">
        <ele>3.2000000476837</ele>
        <time>2021-11-09T07:36:47.000Z</time>
      </trkpt>
      <trkpt lat="45.88325" lon="-1.19389">
        <ele>3</ele>
        <time>2021-11-09T07:36:43.000Z</time>
      </trkpt>
      <trkpt lat="45.88357" lon="-1.1937">
        <ele>3</ele>
        <time>2021-11-09T07:36:37.000Z</time>
      </trkpt>
      <trkpt lat="45.88366" lon="-1.19364">
        <ele>2.7999999523163</ele>
        <time>2021-11-09T07:36:34.000Z</time>
      </trkpt>
      <trkpt lat="45.88367" lon="-1.19362">
        <ele>2.7999999523163</ele>
        <time>2021-11-09T07:36:33.000Z</time>
      </trkpt>
      <trkpt lat="45.88368" lon="-1.1936">
        <ele>2.7999999523163</ele>
        <time>2021-11-09T07:36:31.000Z</time>
      </trkpt>
      <trkpt lat="45.88373" lon="-1.19358">
        <ele>2.7</ele>
      </trkpt>
      <trkpt lat="45.88373" lon="-1.19358">
        <ele>2.7</ele>
      </trkpt>
      <trkpt lat="45.88419" lon="-1.19529">
        <ele>4.9</ele>
      </trkpt>
      <trkpt lat="45.88419" lon="-1.19529">
        <ele>4.9</ele>
      </trkpt>
      <trkpt lat="45.88427" lon="-1.19536">
        <ele>4.7</ele>
      </trkpt>
      <trkpt lat="45.88427" lon="-1.19536">
        <ele>4.7</ele>
      </trkpt>
      <trkpt lat="45.88442" lon="-1.19536">
        <ele>4</ele>
        <time>2021-11-09T07:40:02.000Z</time>
      </trkpt>
      <trkpt lat="45.88453" lon="-1.19537">
        <ele>4.8000001907349</ele>
        <time>2021-11-09T07:40:05.000Z</time>
      </trkpt>
      <trkpt lat="45.88458" lon="-1.1953">
        <ele>5</ele>
        <time>2021-11-09T07:40:07.000Z</time>
      </trkpt>
      <trkpt lat="45.88458" lon="-1.19526">
        <ele>5</ele>
        <time>2021-11-09T07:40:08.000Z</time>
      </trkpt>
      <trkpt lat="45.8846" lon="-1.19504">
        <ele>5.4000000953674</ele>
        <time>2021-11-09T07:40:12.000Z</time>
      </trkpt>
      <trkpt lat="45.88458" lon="-1.19497">
        <ele>5.4000000953674</ele>
        <time>2021-11-09T07:40:13.000Z</time>
      </trkpt>
      <trkpt lat="45.88451" lon="-1.19484">
        <ele>5.5999999046326</ele>
        <time>2021-11-09T07:40:15.000Z</time>
      </trkpt>
      <trkpt lat="45.88449" lon="-1.19477">
        <ele>5.8000001907349</ele>
        <time>2021-11-09T07:40:16.000Z</time>
      </trkpt>
      <trkpt lat="45.88448" lon="-1.19461">
        <ele>6</ele>
        <time>2021-11-09T07:40:18.000Z</time>
      </trkpt>
      <trkpt lat="45.88443" lon="-1.19408">
        <ele>6</ele>
        <time>2021-11-09T07:40:24.000Z</time>
      </trkpt>
      <trkpt lat="45.88439" lon="-1.19383">
        <ele>6.4000000953674</ele>
        <time>2021-11-09T07:40:27.000Z</time>
      </trkpt>
      <trkpt lat="45.88436" lon="-1.19378">
        <ele>6.5999999046326</ele>
        <time>2021-11-09T07:40:28.000Z</time>
      </trkpt>
      <trkpt lat="45.88426" lon="-1.19372">
        <ele>6.5999999046326</ele>
        <time>2021-11-09T07:40:30.000Z</time>
      </trkpt>
      <trkpt lat="45.88419" lon="-1.1936">
        <ele>6.8000001907349</ele>
        <time>2021-11-09T07:40:32.000Z</time>
      </trkpt>
      <trkpt lat="45.88415" lon="-1.19343">
        <ele>7.1999998092651</ele>
        <time>2021-11-09T07:40:34.000Z</time>
      </trkpt>
      <trkpt lat="45.88416" lon="-1.19324">
        <ele>7.1999998092651</ele>
        <time>2021-11-09T07:40:36.000Z</time>
      </trkpt>
      <trkpt lat="45.88416" lon="-1.19314">
        <ele>7.1999998092651</ele>
        <time>2021-11-09T07:40:37.000Z</time>
      </trkpt>
      <trkpt lat="45.8842" lon="-1.19276">
        <ele>7</ele>
        <time>2021-11-09T07:40:41.000Z</time>
      </trkpt>
      <trkpt lat="45.88422" lon="-1.19249">
        <ele>7</ele>
        <time>2021-11-09T07:40:44.000Z</time>
      </trkpt>
      <trkpt lat="45.88422" lon="-1.19232">
        <ele>7.1999998092651</ele>
        <time>2021-11-09T07:40:46.000Z</time>
      </trkpt>
      <trkpt lat="45.8842" lon="-1.19162">
        <ele>7.4000000953674</ele>
        <time>2021-11-09T07:40:54.000Z</time>
      </trkpt>
      <trkpt lat="45.88417" lon="-1.19146">
        <ele>7.8000001907349</ele>
        <time>2021-11-09T07:40:56.000Z</time>
      </trkpt>
      <trkpt lat="45.88411" lon="-1.1913">
        <ele>7.8000001907349</ele>
        <time>2021-11-09T07:40:58.000Z</time>
      </trkpt>
      <trkpt lat="45.88404" lon="-1.19111">
        <ele>7.8000001907349</ele>
        <time>2021-11-09T07:41:01.000Z</time>
      </trkpt>
      <trkpt lat="45.88406" lon="-1.19106">
        <ele>7.8000001907349</ele>
        <time>2021-11-09T07:41:02.000Z</time>
      </trkpt>
      <trkpt lat="45.88414" lon="-1.191">
        <ele>7.8000001907349</ele>
        <time>2021-11-09T07:41:04.000Z</time>
      </trkpt>
      <trkpt lat="45.88419" lon="-1.19099">
        <ele>7.8000001907349</ele>
        <time>2021-11-09T07:41:05.000Z</time>
      </trkpt>
      <trkpt lat="45.88429" lon="-1.19097">
        <ele>7.5999999046326</ele>
        <time>2021-11-09T07:41:07.000Z</time>
      </trkpt>
      <trkpt lat="45.88435" lon="-1.19089">
        <ele>7.5999999046326</ele>
        <time>2021-11-09T07:41:09.000Z</time>
      </trkpt>
      <trkpt lat="45.8844" lon="-1.1908">
        <ele>7.5999999046326</ele>
        <time>2021-11-09T07:41:11.000Z</time>
      </trkpt>
      <trkpt lat="45.88448" lon="-1.19067">
        <ele>7.4000000953674</ele>
        <time>2021-11-09T07:41:14.000Z</time>
      </trkpt>
      <trkpt lat="45.88444" lon="-1.19056">
        <ele>7.1999998092651</ele>
        <time>2021-11-09T07:41:16.000Z</time>
      </trkpt>
      <trkpt lat="45.88441" lon="-1.19049">
        <ele>7</ele>
        <time>2021-11-09T07:41:17.000Z</time>
      </trkpt>
      <trkpt lat="45.88435" lon="-1.19034">
        <ele>6.8000001907349</ele>
        <time>2021-11-09T07:41:19.000Z</time>
      </trkpt>
      <trkpt lat="45.88424" lon="-1.19005">
        <ele>6.5999999046326</ele>
        <time>2021-11-09T07:41:23.000Z</time>
      </trkpt>
      <trkpt lat="45.88411" lon="-1.18977">
        <ele>6</ele>
        <time>2021-11-09T07:41:27.000Z</time>
      </trkpt>
      <trkpt lat="45.88411" lon="-1.1897">
        <ele>6</ele>
        <time>2021-11-09T07:41:28.000Z</time>
      </trkpt>
      <trkpt lat="45.88413" lon="-1.18966">
        <ele>5.8000001907349</ele>
        <time>2021-11-09T07:41:30.000Z</time>
      </trkpt>
      <trkpt lat="45.8842" lon="-1.18959">
        <ele>5.8000001907349</ele>
        <time>2021-11-09T07:41:31.000Z</time>
      </trkpt>
      <trkpt lat="45.88431" lon="-1.18942">
        <ele>6</ele>
        <time>2021-11-09T07:41:35.000Z</time>
      </trkpt>
      <trkpt lat="45.8844" lon="-1.1893">
        <ele>6.5999999046326</ele>
        <time>2021-11-09T07:41:38.000Z</time>
      </trkpt>
      <trkpt lat="45.8845" lon="-1.18923">
        <ele>6.8000001907349</ele>
        <time>2021-11-09T07:41:40.000Z</time>
      </trkpt>
      <trkpt lat="45.8846" lon="-1.18916">
        <ele>7</ele>
        <time>2021-11-09T07:41:42.000Z</time>
      </trkpt>
      <trkpt lat="45.88473" lon="-1.18912">
        <ele>7.1999998092651</ele>
        <time>2021-11-09T07:41:44.000Z</time>
      </trkpt>
      <trkpt lat="45.88498" lon="-1.18915">
        <ele>8</ele>
        <time>2021-11-09T07:41:48.000Z</time>
      </trkpt>
      <trkpt lat="45.88504" lon="-1.18918">
        <ele>8</ele>
        <time>2021-11-09T07:41:49.000Z</time>
      </trkpt>
      <trkpt lat="45.88513" lon="-1.18929">
        <ele>8.3999996185303</ele>
        <time>2021-11-09T07:41:51.000Z</time>
      </trkpt>
      <trkpt lat="45.88516" lon="-1.18937">
        <ele>8.3999996185303</ele>
        <time>2021-11-09T07:41:52.000Z</time>
      </trkpt>
      <trkpt lat="45.88529" lon="-1.18962">
        <ele>8.3999996185303</ele>
        <time>2021-11-09T07:41:56.000Z</time>
      </trkpt>
      <trkpt lat="45.88532" lon="-1.18968">
        <ele>8.6000003814697</ele>
        <time>2021-11-09T07:41:57.000Z</time>
      </trkpt>
      <trkpt lat="45.88535" lon="-1.18976">
        <ele>8.6000003814697</ele>
        <time>2021-11-09T07:41:58.000Z</time>
      </trkpt>
      <trkpt lat="45.88547" lon="-1.19006">
        <ele>8.8000001907349</ele>
        <time>2021-11-09T07:42:02.000Z</time>
      </trkpt>
      <trkpt lat="45.88551" lon="-1.19012">
        <ele>8.6000003814697</ele>
        <time>2021-11-09T07:42:03.000Z</time>
      </trkpt>
      <trkpt lat="45.88555" lon="-1.19017">
        <ele>8.6000003814697</ele>
        <time>2021-11-09T07:42:04.000Z</time>
      </trkpt>
      <trkpt lat="45.88565" lon="-1.19023">
        <ele>8.6000003814697</ele>
        <time>2021-11-09T07:42:06.000Z</time>
      </trkpt>
      <trkpt lat="45.88598" lon="-1.19025">
        <ele>8.6000003814697</ele>
        <time>2021-11-09T07:42:11.000Z</time>
      </trkpt>
      <trkpt lat="45.88604" lon="-1.19023">
        <ele>9</ele>
        <time>2021-11-09T07:42:12.000Z</time>
      </trkpt>
      <trkpt lat="45.88616" lon="-1.19012">
        <ele>9</ele>
        <time>2021-11-09T07:42:14.000Z</time>
      </trkpt>
      <trkpt lat="45.88627" lon="-1.19">
        <ele>9</ele>
        <time>2021-11-09T07:42:16.000Z</time>
      </trkpt>
      <trkpt lat="45.88645" lon="-1.18987">
        <ele>9</ele>
        <time>2021-11-09T07:42:19.000Z</time>
      </trkpt>
      <trkpt lat="45.88651" lon="-1.18984">
        <ele>9</ele>
        <time>2021-11-09T07:42:20.000Z</time>
      </trkpt>
      <trkpt lat="45.88663" lon="-1.18982">
        <ele>9</ele>
        <time>2021-11-09T07:42:22.000Z</time>
      </trkpt>
      <trkpt lat="45.88674" lon="-1.18991">
        <ele>9</ele>
        <time>2021-11-09T07:42:24.000Z</time>
      </trkpt>
      <trkpt lat="45.88678" lon="-1.19009">
        <ele>9.1999998092651</ele>
        <time>2021-11-09T07:42:26.000Z</time>
      </trkpt>
      <trkpt lat="45.88679" lon="-1.19019">
        <ele>9.1999998092651</ele>
        <time>2021-11-09T07:42:27.000Z</time>
      </trkpt>
      <trkpt lat="45.88681" lon="-1.19029">
        <ele>9.1999998092651</ele>
        <time>2021-11-09T07:42:28.000Z</time>
      </trkpt>
      <trkpt lat="45.88689" lon="-1.19046">
        <ele>9</ele>
        <time>2021-11-09T07:42:30.000Z</time>
      </trkpt>
      <trkpt lat="45.88701" lon="-1.19054">
        <ele>9</ele>
        <time>2021-11-09T07:42:32.000Z</time>
      </trkpt>
      <trkpt lat="45.88708" lon="-1.19057">
        <ele>8.8000001907349</ele>
        <time>2021-11-09T07:42:33.000Z</time>
      </trkpt>
      <trkpt lat="45.88721" lon="-1.19062">
        <ele>8.6000003814697</ele>
        <time>2021-11-09T07:42:35.000Z</time>
      </trkpt>
      <trkpt lat="45.88732" lon="-1.19061">
        <ele>8.6000003814697</ele>
        <time>2021-11-09T07:42:37.000Z</time>
      </trkpt>
      <trkpt lat="45.88738" lon="-1.19049">
        <ele>8.3999996185303</ele>
        <time>2021-11-09T07:42:39.000Z</time>
      </trkpt>
      <trkpt lat="45.8874" lon="-1.19043">
        <ele>8.3999996185303</ele>
        <time>2021-11-09T07:42:40.000Z</time>
      </trkpt>
      <trkpt lat="45.88744" lon="-1.19036">
        <ele>8.3999996185303</ele>
        <time>2021-11-09T07:42:41.000Z</time>
      </trkpt>
      <trkpt lat="45.88754" lon="-1.19028">
        <ele>8.3999996185303</ele>
        <time>2021-11-09T07:42:43.000Z</time>
      </trkpt>
      <trkpt lat="45.88767" lon="-1.19028">
        <ele>8.3999996185303</ele>
        <time>2021-11-09T07:42:45.000Z</time>
      </trkpt>
      <trkpt lat="45.88773" lon="-1.19032">
        <ele>8.6000003814697</ele>
        <time>2021-11-09T07:42:46.000Z</time>
      </trkpt>
      <trkpt lat="45.88779" lon="-1.19038">
        <ele>8.6000003814697</ele>
        <time>2021-11-09T07:42:47.000Z</time>
      </trkpt>
      <trkpt lat="45.88801" lon="-1.19063">
        <ele>8.1999998092651</ele>
        <time>2021-11-09T07:42:51.000Z</time>
      </trkpt>
      <trkpt lat="45.88848" lon="-1.19112">
        <ele>8.1999998092651</ele>
        <time>2021-11-09T07:42:59.000Z</time>
      </trkpt>
      <trkpt lat="45.88859" lon="-1.19123">
        <ele>8.1999998092651</ele>
        <time>2021-11-09T07:43:01.000Z</time>
      </trkpt>
      <trkpt lat="45.88865" lon="-1.1914">
        <ele>8.3999996185303</ele>
        <time>2021-11-09T07:43:03.000Z</time>
      </trkpt>
      <trkpt lat="45.8887" lon="-1.19159">
        <ele>8.1999998092651</ele>
        <time>2021-11-09T07:43:05.000Z</time>
      </trkpt>
      <trkpt lat="45.88879" lon="-1.19173">
        <ele>8.1999998092651</ele>
        <time>2021-11-09T07:43:07.000Z</time>
      </trkpt>
      <trkpt lat="45.88887" lon="-1.19184">
        <ele>8.1999998092651</ele>
        <time>2021-11-09T07:43:09.000Z</time>
      </trkpt>
      <trkpt lat="45.88891" lon="-1.19192">
        <ele>8.1999998092651</ele>
        <time>2021-11-09T07:43:10.000Z</time>
      </trkpt>
      <trkpt lat="45.88894" lon="-1.192">
        <ele>8.1999998092651</ele>
        <time>2021-11-09T07:43:11.000Z</time>
      </trkpt>
      <trkpt lat="45.88903" lon="-1.19226">
        <ele>8</ele>
        <time>2021-11-09T07:43:14.000Z</time>
      </trkpt>
      <trkpt lat="45.88928" lon="-1.19302">
        <ele>8.1999998092651</ele>
        <time>2021-11-09T07:43:22.000Z</time>
      </trkpt>
      <trkpt lat="45.88935" lon="-1.1932">
        <ele>8.1999998092651</ele>
        <time>2021-11-09T07:43:24.000Z</time>
      </trkpt>
      <trkpt lat="45.88964" lon="-1.19366">
        <ele>8.3999996185303</ele>
        <time>2021-11-09T07:43:30.000Z</time>
      </trkpt>
      <trkpt lat="45.89002" lon="-1.19426">
        <ele>9</ele>
        <time>2021-11-09T07:43:38.000Z</time>
      </trkpt>
      <trkpt lat="45.89006" lon="-1.19433">
        <ele>9</ele>
        <time>2021-11-09T07:43:39.000Z</time>
      </trkpt>
      <trkpt lat="45.8901" lon="-1.19439">
        <ele>9</ele>
        <time>2021-11-09T07:43:40.000Z</time>
      </trkpt>
      <trkpt lat="45.89014" lon="-1.19451">
        <ele>9.1999998092651</ele>
        <time>2021-11-09T07:43:42.000Z</time>
      </trkpt>
      <trkpt lat="45.89018" lon="-1.19462">
        <ele>9.1999998092651</ele>
        <time>2021-11-09T07:43:44.000Z</time>
      </trkpt>
      <trkpt lat="45.89022" lon="-1.19464">
        <ele>9.1999998092651</ele>
        <time>2021-11-09T07:43:45.000Z</time>
      </trkpt>
      <trkpt lat="45.89031" lon="-1.19467">
        <ele>9.1999998092651</ele>
        <time>2021-11-09T07:43:47.000Z</time>
      </trkpt>
      <trkpt lat="45.89036" lon="-1.19469">
        <ele>9.1999998092651</ele>
        <time>2021-11-09T07:43:48.000Z</time>
      </trkpt>
      <trkpt lat="45.89046" lon="-1.19477">
        <ele>9.1999998092651</ele>
        <time>2021-11-09T07:43:50.000Z</time>
      </trkpt>
      <trkpt lat="45.8905" lon="-1.19482">
        <ele>9.1999998092651</ele>
        <time>2021-11-09T07:43:51.000Z</time>
      </trkpt>
      <trkpt lat="45.89053" lon="-1.19496">
        <ele>9</ele>
        <time>2021-11-09T07:43:53.000Z</time>
      </trkpt>
      <trkpt lat="45.89045" lon="-1.1953">
        <ele>8.1999998092651</ele>
        <time>2021-11-09T07:43:57.000Z</time>
      </trkpt>
      <trkpt lat="45.89042" lon="-1.19538">
        <ele>8.1999998092651</ele>
        <time>2021-11-09T07:43:58.000Z</time>
      </trkpt>
      <trkpt lat="45.89033" lon="-1.19573">
        <ele>7.8000001907349</ele>
        <time>2021-11-09T07:44:03.000Z</time>
      </trkpt>
      <trkpt lat="45.89035" lon="-1.19576">
        <ele>7.5999999046326</ele>
        <time>2021-11-09T07:44:05.000Z</time>
      </trkpt>
      <trkpt lat="45.89049" lon="-1.1957">
        <ele>7.4000000953674</ele>
        <time>2021-11-09T07:44:08.000Z</time>
      </trkpt>
      <trkpt lat="45.89055" lon="-1.1957">
        <ele>7.4000000953674</ele>
        <time>2021-11-09T07:44:09.000Z</time>
      </trkpt>
      <trkpt lat="45.8906" lon="-1.19572">
        <ele>7.1999998092651</ele>
        <time>2021-11-09T07:44:10.000Z</time>
      </trkpt>
      <trkpt lat="45.89065" lon="-1.19576">
        <ele>7</ele>
        <time>2021-11-09T07:44:11.000Z</time>
      </trkpt>
      <trkpt lat="45.89069" lon="-1.19582">
        <ele>7</ele>
        <time>2021-11-09T07:44:12.000Z</time>
      </trkpt>
      <trkpt lat="45.89083" lon="-1.196">
        <ele>6.5999999046326</ele>
        <time>2021-11-09T07:44:15.000Z</time>
      </trkpt>
      <trkpt lat="45.89087" lon="-1.19614">
        <ele>6.4000000953674</ele>
        <time>2021-11-09T07:44:17.000Z</time>
      </trkpt>
      <trkpt lat="45.89085" lon="-1.19628">
        <ele>6.1999998092651</ele>
        <time>2021-11-09T07:44:19.000Z</time>
      </trkpt>
      <trkpt lat="45.89085" lon="-1.19635">
        <ele>6.1999998092651</ele>
        <time>2021-11-09T07:44:20.000Z</time>
      </trkpt>
      <trkpt lat="45.89087" lon="-1.19642">
        <ele>6</ele>
        <time>2021-11-09T07:44:21.000Z</time>
      </trkpt>
      <trkpt lat="45.89094" lon="-1.19654">
        <ele>6</ele>
        <time>2021-11-09T07:44:23.000Z</time>
      </trkpt>
      <trkpt lat="45.89098" lon="-1.19661">
        <ele>5.8000001907349</ele>
        <time>2021-11-09T07:44:24.000Z</time>
      </trkpt>
      <trkpt lat="45.89114" lon="-1.1968">
        <ele>5.5999999046326</ele>
        <time>2021-11-09T07:44:27.000Z</time>
      </trkpt>
      <trkpt lat="45.89127" lon="-1.19686">
        <ele>5.5999999046326</ele>
        <time>2021-11-09T07:44:29.000Z</time>
      </trkpt>
      <trkpt lat="45.89133" lon="-1.19691">
        <ele>5.5999999046326</ele>
        <time>2021-11-09T07:44:30.000Z</time>
      </trkpt>
      <trkpt lat="45.89138" lon="-1.19696">
        <ele>5.4000000953674</ele>
        <time>2021-11-09T07:44:31.000Z</time>
      </trkpt>
      <trkpt lat="45.89165" lon="-1.19725">
        <ele>5.4000000953674</ele>
        <time>2021-11-09T07:44:36.000Z</time>
      </trkpt>
      <trkpt lat="45.89209" lon="-1.19774">
        <ele>5.4000000953674</ele>
        <time>2021-11-09T07:44:44.000Z</time>
      </trkpt>
      <trkpt lat="45.89214" lon="-1.1978">
        <ele>5.4000000953674</ele>
        <time>2021-11-09T07:44:45.000Z</time>
      </trkpt>
      <trkpt lat="45.89259" lon="-1.19831">
        <ele>5.8000001907349</ele>
        <time>2021-11-09T07:44:54.000Z</time>
      </trkpt>
      <trkpt lat="45.89267" lon="-1.19842">
        <ele>5.8000001907349</ele>
        <time>2021-11-09T07:44:56.000Z</time>
      </trkpt>
      <trkpt lat="45.89272" lon="-1.1986">
        <ele>5.8000001907349</ele>
        <time>2021-11-09T07:44:58.000Z</time>
      </trkpt>
      <trkpt lat="45.89275" lon="-1.19868">
        <ele>5.8000001907349</ele>
        <time>2021-11-09T07:44:59.000Z</time>
      </trkpt>
      <trkpt lat="45.89283" lon="-1.19879">
        <ele>5.8000001907349</ele>
        <time>2021-11-09T07:45:01.000Z</time>
      </trkpt>
      <trkpt lat="45.89312" lon="-1.19903">
        <ele>5.8000001907349</ele>
        <time>2021-11-09T07:45:06.000Z</time>
      </trkpt>
      <trkpt lat="45.89355" lon="-1.19947">
        <ele>5.4000000953674</ele>
        <time>2021-11-09T07:45:13.000Z</time>
      </trkpt>
      <trkpt lat="45.8939" lon="-1.19986">
        <ele>5.1999998092651</ele>
        <time>2021-11-09T07:45:19.000Z</time>
      </trkpt>
      <trkpt lat="45.89432" lon="-1.2003">
        <ele>5</ele>
        <time>2021-11-09T07:45:26.000Z</time>
      </trkpt>
      <trkpt lat="45.89479" lon="-1.20079">
        <ele>4.8000001907349</ele>
        <time>2021-11-09T07:45:34.000Z</time>
      </trkpt>
      <trkpt lat="45.89497" lon="-1.20098">
        <ele>4.8000001907349</ele>
        <time>2021-11-09T07:45:37.000Z</time>
      </trkpt>
      <trkpt lat="45.89513" lon="-1.20116">
        <ele>5</ele>
        <time>2021-11-09T07:45:40.000Z</time>
      </trkpt>
      <trkpt lat="45.89523" lon="-1.20129">
        <ele>5</ele>
        <time>2021-11-09T07:45:42.000Z</time>
      </trkpt>
      <trkpt lat="45.89528" lon="-1.20134">
        <ele>5</ele>
        <time>2021-11-09T07:45:43.000Z</time>
      </trkpt>
      <trkpt lat="45.89541" lon="-1.20142">
        <ele>5</ele>
        <time>2021-11-09T07:45:45.000Z</time>
      </trkpt>
      <trkpt lat="45.89566" lon="-1.2016">
        <ele>5</ele>
        <time>2021-11-09T07:45:49.000Z</time>
      </trkpt>
      <trkpt lat="45.89615" lon="-1.20196">
        <ele>5.1999998092651</ele>
        <time>2021-11-09T07:45:57.000Z</time>
      </trkpt>
      <trkpt lat="45.89621" lon="-1.20198">
        <ele>5.1999998092651</ele>
        <time>2021-11-09T07:45:58.000Z</time>
      </trkpt>
      <trkpt lat="45.89627" lon="-1.202">
        <ele>5.4000000953674</ele>
        <time>2021-11-09T07:45:59.000Z</time>
      </trkpt>
      <trkpt lat="45.89653" lon="-1.20212">
        <ele>5.5999999046326</ele>
        <time>2021-11-09T07:46:03.000Z</time>
      </trkpt>
      <trkpt lat="45.89705" lon="-1.20236">
        <ele>5.4000000953674</ele>
        <time>2021-11-09T07:46:11.000Z</time>
      </trkpt>
      <trkpt lat="45.89719" lon="-1.20242">
        <ele>5.4000000953674</ele>
        <time>2021-11-09T07:46:13.000Z</time>
      </trkpt>
      <trkpt lat="45.89772" lon="-1.20269">
        <ele>5</ele>
        <time>2021-11-09T07:46:21.000Z</time>
      </trkpt>
      <trkpt lat="45.89799" lon="-1.20284">
        <ele>4.8000001907349</ele>
        <time>2021-11-09T07:46:25.000Z</time>
      </trkpt>
      <trkpt lat="45.89839" lon="-1.20305">
        <ele>4.8000001907349</ele>
        <time>2021-11-09T07:46:32.000Z</time>
      </trkpt>
      <trkpt lat="45.89851" lon="-1.20301">
        <ele>4.8000001907349</ele>
        <time>2021-11-09T07:46:35.000Z</time>
      </trkpt>
      <trkpt lat="45.89865" lon="-1.2031">
        <ele>4.5999999046326</ele>
        <time>2021-11-09T07:46:38.000Z</time>
      </trkpt>
      <trkpt lat="45.89871" lon="-1.20314">
        <ele>4.5999999046326</ele>
        <time>2021-11-09T07:46:39.000Z</time>
      </trkpt>
      <trkpt lat="45.89877" lon="-1.20317">
        <ele>4.4000000953674</ele>
        <time>2021-11-09T07:46:40.000Z</time>
      </trkpt>
      <trkpt lat="45.89888" lon="-1.20328">
        <ele>4.4000000953674</ele>
        <time>2021-11-09T07:46:42.000Z</time>
      </trkpt>
      <trkpt lat="45.89891" lon="-1.20334">
        <ele>4.4000000953674</ele>
        <time>2021-11-09T07:46:43.000Z</time>
      </trkpt>
      <trkpt lat="45.89925" lon="-1.20388">
        <ele>4.1999998092651</ele>
        <time>2021-11-09T07:46:50.000Z</time>
      </trkpt>
      <trkpt lat="45.89936" lon="-1.20404">
        <ele>4.1999998092651</ele>
        <time>2021-11-09T07:46:52.000Z</time>
      </trkpt>
      <trkpt lat="45.89964" lon="-1.20454">
        <ele>4.1999998092651</ele>
        <time>2021-11-09T07:46:58.000Z</time>
      </trkpt>
      <trkpt lat="45.89994" lon="-1.20529">
        <ele>4.8000001907349</ele>
        <time>2021-11-09T07:47:06.000Z</time>
      </trkpt>
      <trkpt lat="45.90021" lon="-1.20602">
        <ele>5.1999998092651</ele>
        <time>2021-11-09T07:47:14.000Z</time>
      </trkpt>
      <trkpt lat="45.90025" lon="-1.20611">
        <ele>5.1999998092651</ele>
        <time>2021-11-09T07:47:15.000Z</time>
      </trkpt>
      <trkpt lat="45.90052" lon="-1.20685">
        <ele>5.8000001907349</ele>
        <time>2021-11-09T07:47:23.000Z</time>
      </trkpt>
      <trkpt lat="45.90082" lon="-1.20757">
        <ele>6.1999998092651</ele>
        <time>2021-11-09T07:47:31.000Z</time>
      </trkpt>
      <trkpt lat="45.90089" lon="-1.20775">
        <ele>6.1999998092651</ele>
        <time>2021-11-09T07:47:33.000Z</time>
      </trkpt>
      <trkpt lat="45.90093" lon="-1.20785">
        <ele>6.4000000953674</ele>
        <time>2021-11-09T07:47:34.000Z</time>
      </trkpt>
      <trkpt lat="45.90117" lon="-1.20858">
        <ele>6.4000000953674</ele>
        <time>2021-11-09T07:47:42.000Z</time>
      </trkpt>
      <trkpt lat="45.90138" lon="-1.20922">
        <ele>6.5999999046326</ele>
        <time>2021-11-09T07:47:49.000Z</time>
      </trkpt>
      <trkpt lat="45.90147" lon="-1.20949">
        <ele>6.4000000953674</ele>
        <time>2021-11-09T07:47:52.000Z</time>
      </trkpt>
      <trkpt lat="45.90159" lon="-1.20972">
        <ele>6.1999998092651</ele>
        <time>2021-11-09T07:47:55.000Z</time>
      </trkpt>
      <trkpt lat="45.90174" lon="-1.20997">
        <ele>6.1999998092651</ele>
        <time>2021-11-09T07:47:59.000Z</time>
      </trkpt>
      <trkpt lat="45.90183" lon="-1.21002">
        <ele>6.1999998092651</ele>
        <time>2021-11-09T07:48:02.000Z</time>
      </trkpt>
      <trkpt lat="45.90189" lon="-1.21004">
        <ele>6.1999998092651</ele>
        <time>2021-11-09T07:48:04.000Z</time>
      </trkpt>
      <trkpt lat="45.90194" lon="-1.21001">
        <ele>6.1999998092651</ele>
        <time>2021-11-09T07:48:06.000Z</time>
      </trkpt>
      <trkpt lat="45.90201" lon="-1.20988">
        <ele>6.4000000953674</ele>
        <time>2021-11-09T07:48:10.000Z</time>
      </trkpt>
      <trkpt lat="45.90206" lon="-1.20979">
        <ele>6.5999999046326</ele>
        <time>2021-11-09T07:48:15.000Z</time>
      </trkpt>
      <trkpt lat="45.90216" lon="-1.20965">
        <ele>6.8000001907349</ele>
        <time>2021-11-09T07:48:19.000Z</time>
      </trkpt>
      <trkpt lat="45.90222" lon="-1.20956">
        <ele>7</ele>
        <time>2021-11-09T07:48:22.000Z</time>
      </trkpt>
      <trkpt lat="45.90224" lon="-1.20951">
        <ele>7</ele>
        <time>2021-11-09T07:48:23.000Z</time>
      </trkpt>
      <trkpt lat="45.90232" lon="-1.20929">
        <ele>7</ele>
        <time>2021-11-09T07:48:28.000Z</time>
      </trkpt>
      <trkpt lat="45.90234" lon="-1.20928">
        <ele>7.1999998092651</ele>
        <time>2021-11-09T07:48:29.000Z</time>
      </trkpt>
      <trkpt lat="45.90247" lon="-1.20925">
        <ele>7.4000000953674</ele>
        <time>2021-11-09T07:48:33.000Z</time>
      </trkpt>
      <trkpt lat="45.90257" lon="-1.20918">
        <ele>7.1999998092651</ele>
        <time>2021-11-09T07:48:37.000Z</time>
      </trkpt>
      <trkpt lat="45.90259" lon="-1.20917">
        <ele>7.1999998092651</ele>
        <time>2021-11-09T07:48:38.000Z</time>
      </trkpt>
      <trkpt lat="45.90263" lon="-1.20919">
        <ele>7</ele>
        <time>2021-11-09T07:48:40.000Z</time>
      </trkpt>
      <trkpt lat="45.90272" lon="-1.20934">
        <ele>7</ele>
        <time>2021-11-09T07:48:44.000Z</time>
      </trkpt>
      <trkpt lat="45.90275" lon="-1.20938">
        <ele>7</ele>
        <time>2021-11-09T07:48:45.000Z</time>
      </trkpt>
      <trkpt lat="45.9029" lon="-1.20966">
        <ele>7.1999998092651</ele>
        <time>2021-11-09T07:48:50.000Z</time>
      </trkpt>
      <trkpt lat="45.90305" lon="-1.20999">
        <ele>7.1999998092651</ele>
        <time>2021-11-09T07:48:55.000Z</time>
      </trkpt>
      <trkpt lat="45.90317" lon="-1.21025">
        <ele>7</ele>
        <time>2021-11-09T07:48:59.000Z</time>
      </trkpt>
      <trkpt lat="45.90322" lon="-1.21038">
        <ele>6.8000001907349</ele>
        <time>2021-11-09T07:49:01.000Z</time>
      </trkpt>
      <trkpt lat="45.90325" lon="-1.21045">
        <ele>7</ele>
        <time>2021-11-09T07:49:02.000Z</time>
      </trkpt>
      <trkpt lat="45.90335" lon="-1.2107">
        <ele>7</ele>
        <time>2021-11-09T07:49:06.000Z</time>
      </trkpt>
      <trkpt lat="45.90342" lon="-1.2108">
        <ele>7</ele>
        <time>2021-11-09T07:49:08.000Z</time>
      </trkpt>
      <trkpt lat="45.90346" lon="-1.2109">
        <ele>7</ele>
        <time>2021-11-09T07:49:10.000Z</time>
      </trkpt>
      <trkpt lat="45.90349" lon="-1.21096">
        <ele>7</ele>
        <time>2021-11-09T07:49:11.000Z</time>
      </trkpt>
      <trkpt lat="45.90353" lon="-1.21119">
        <ele>6.5999999046326</ele>
        <time>2021-11-09T07:49:14.000Z</time>
      </trkpt>
      <trkpt lat="45.90356" lon="-1.21135">
        <ele>6.5999999046326</ele>
        <time>2021-11-09T07:49:16.000Z</time>
      </trkpt>
      <trkpt lat="45.90361" lon="-1.21146">
        <ele>6.5999999046326</ele>
        <time>2021-11-09T07:49:18.000Z</time>
      </trkpt>
      <trkpt lat="45.90369" lon="-1.21143">
        <ele>6.4000000953674</ele>
        <time>2021-11-09T07:49:20.000Z</time>
      </trkpt>
      <trkpt lat="45.90373" lon="-1.21139">
        <ele>6.1999998092651</ele>
        <time>2021-11-09T07:49:21.000Z</time>
      </trkpt>
      <trkpt lat="45.904" lon="-1.21109">
        <ele>5.5999999046326</ele>
        <time>2021-11-09T07:49:27.000Z</time>
      </trkpt>
      <trkpt lat="45.90405" lon="-1.21107">
        <ele>5.4000000953674</ele>
        <time>2021-11-09T07:49:28.000Z</time>
      </trkpt>
      <trkpt lat="45.9042" lon="-1.21103">
        <ele>5.1999998092651</ele>
        <time>2021-11-09T07:49:31.000Z</time>
      </trkpt>
      <trkpt lat="45.90425" lon="-1.21103">
        <ele>5.1999998092651</ele>
        <time>2021-11-09T07:49:32.000Z</time>
      </trkpt>
      <trkpt lat="45.9043" lon="-1.21106">
        <ele>5.1999998092651</ele>
        <time>2021-11-09T07:49:33.000Z</time>
      </trkpt>
      <trkpt lat="45.90439" lon="-1.21115">
        <ele>5.4000000953674</ele>
        <time>2021-11-09T07:49:35.000Z</time>
      </trkpt>
      <trkpt lat="45.90472" lon="-1.21145">
        <ele>5.1999998092651</ele>
        <time>2021-11-09T07:49:42.000Z</time>
      </trkpt>
      <trkpt lat="45.90482" lon="-1.21152">
        <ele>5</ele>
        <time>2021-11-09T07:49:44.000Z</time>
      </trkpt>
      <trkpt lat="45.90498" lon="-1.21157">
        <ele>4.8000001907349</ele>
        <time>2021-11-09T07:49:47.000Z</time>
      </trkpt>
      <trkpt lat="45.90504" lon="-1.21159">
        <ele>4.5999999046326</ele>
        <time>2021-11-09T07:49:48.000Z</time>
      </trkpt>
      <trkpt lat="45.90512" lon="-1.21166">
        <ele>4.4000000953674</ele>
        <time>2021-11-09T07:49:50.000Z</time>
      </trkpt>
      <trkpt lat="45.90515" lon="-1.21171">
        <ele>4.4000000953674</ele>
        <time>2021-11-09T07:49:51.000Z</time>
      </trkpt>
      <trkpt lat="45.90519" lon="-1.21177">
        <ele>4.4000000953674</ele>
        <time>2021-11-09T07:49:52.000Z</time>
      </trkpt>
      <trkpt lat="45.90527" lon="-1.21197">
        <ele>4.4000000953674</ele>
        <time>2021-11-09T07:49:55.000Z</time>
      </trkpt>
      <trkpt lat="45.90536" lon="-1.21225">
        <ele>4.1999998092651</ele>
        <time>2021-11-09T07:49:59.000Z</time>
      </trkpt>
      <trkpt lat="45.90539" lon="-1.21249">
        <ele>4</ele>
        <time>2021-11-09T07:50:02.000Z</time>
      </trkpt>
      <trkpt lat="45.90539" lon="-1.21265">
        <ele>4</ele>
        <time>2021-11-09T07:50:04.000Z</time>
      </trkpt>
      <trkpt lat="45.90537" lon="-1.21282">
        <ele>3.5999999046326</ele>
        <time>2021-11-09T07:50:06.000Z</time>
      </trkpt>
      <trkpt lat="45.90539" lon="-1.21298">
        <ele>3.5999999046326</ele>
        <time>2021-11-09T07:50:08.000Z</time>
      </trkpt>
      <trkpt lat="45.90542" lon="-1.21305">
        <ele>3.5999999046326</ele>
        <time>2021-11-09T07:50:09.000Z</time>
      </trkpt>
      <trkpt lat="45.90545" lon="-1.21312">
        <ele>3.5999999046326</ele>
        <time>2021-11-09T07:50:10.000Z</time>
      </trkpt>
      <trkpt lat="45.90549" lon="-1.21319">
        <ele>3.4000000953674</ele>
        <time>2021-11-09T07:50:11.000Z</time>
      </trkpt>
      <trkpt lat="45.90563" lon="-1.21345">
        <ele>3.5999999046326</ele>
        <time>2021-11-09T07:50:15.000Z</time>
      </trkpt>
      <trkpt lat="45.90586" lon="-1.21397">
        <ele>3.5999999046326</ele>
        <time>2021-11-09T07:50:22.000Z</time>
      </trkpt>
      <trkpt lat="45.90601" lon="-1.21424">
        <ele>3.7999999523163</ele>
        <time>2021-11-09T07:50:26.000Z</time>
      </trkpt>
      <trkpt lat="45.90611" lon="-1.21429">
        <ele>3.5999999046326</ele>
        <time>2021-11-09T07:50:28.000Z</time>
      </trkpt>
      <trkpt lat="45.90626" lon="-1.21422">
        <ele>3.5999999046326</ele>
        <time>2021-11-09T07:50:31.000Z</time>
      </trkpt>
      <trkpt lat="45.90631" lon="-1.21421">
        <ele>3.5999999046326</ele>
        <time>2021-11-09T07:50:32.000Z</time>
      </trkpt>
      <trkpt lat="45.90637" lon="-1.21422">
        <ele>3.5999999046326</ele>
        <time>2021-11-09T07:50:33.000Z</time>
      </trkpt>
      <trkpt lat="45.90647" lon="-1.21429">
        <ele>3.5999999046326</ele>
        <time>2021-11-09T07:50:35.000Z</time>
      </trkpt>
      <trkpt lat="45.90679" lon="-1.21459">
        <ele>3.5999999046326</ele>
        <time>2021-11-09T07:50:42.000Z</time>
      </trkpt>
      <trkpt lat="45.90682" lon="-1.21464">
        <ele>3.4000000953674</ele>
        <time>2021-11-09T07:50:43.000Z</time>
      </trkpt>
      <trkpt lat="45.90683" lon="-1.21468">
        <ele>3.4000000953674</ele>
        <time>2021-11-09T07:50:44.000Z</time>
      </trkpt>
      <trkpt lat="45.9068" lon="-1.21482">
        <ele>3.4000000953674</ele>
        <time>2021-11-09T07:50:46.000Z</time>
      </trkpt>
      <trkpt lat="45.90674" lon="-1.21495">
        <ele>3.4000000953674</ele>
        <time>2021-11-09T07:50:48.000Z</time>
      </trkpt>
      <trkpt lat="45.90667" lon="-1.21509">
        <ele>3.4000000953674</ele>
        <time>2021-11-09T07:50:50.000Z</time>
      </trkpt>
      <trkpt lat="45.9064" lon="-1.21568">
        <ele>3.2000000476837</ele>
        <time>2021-11-09T07:50:58.000Z</time>
      </trkpt>
      <trkpt lat="45.90637" lon="-1.21575">
        <ele>3.2000000476837</ele>
        <time>2021-11-09T07:50:59.000Z</time>
      </trkpt>
      <trkpt lat="45.90628" lon="-1.21584">
        <ele>3</ele>
        <time>2021-11-09T07:51:01.000Z</time>
      </trkpt>
      <trkpt lat="45.90618" lon="-1.2159">
        <ele>2.7999999523163</ele>
        <time>2021-11-09T07:51:03.000Z</time>
      </trkpt>
      <trkpt lat="45.90608" lon="-1.21604">
        <ele>2.7999999523163</ele>
        <time>2021-11-09T07:51:05.000Z</time>
      </trkpt>
      <trkpt lat="45.90582" lon="-1.21648">
        <ele>2.7999999523163</ele>
        <time>2021-11-09T07:51:11.000Z</time>
      </trkpt>
      <trkpt lat="45.90574" lon="-1.21664">
        <ele>2.7999999523163</ele>
        <time>2021-11-09T07:51:13.000Z</time>
      </trkpt>
      <trkpt lat="45.90558" lon="-1.21683">
        <ele>3</ele>
        <time>2021-11-09T07:51:16.000Z</time>
      </trkpt>
      <trkpt lat="45.90544" lon="-1.21702">
        <ele>3.2000000476837</ele>
        <time>2021-11-09T07:51:19.000Z</time>
      </trkpt>
      <trkpt lat="45.90542" lon="-1.2171">
        <ele>3.4000000953674</ele>
        <time>2021-11-09T07:51:20.000Z</time>
      </trkpt>
      <trkpt lat="45.90542" lon="-1.21718">
        <ele>3.4000000953674</ele>
        <time>2021-11-09T07:51:21.000Z</time>
      </trkpt>
      <trkpt lat="45.90545" lon="-1.21734">
        <ele>3.5999999046326</ele>
        <time>2021-11-09T07:51:23.000Z</time>
      </trkpt>
      <trkpt lat="45.90567" lon="-1.21778">
        <ele>3.5999999046326</ele>
        <time>2021-11-09T07:51:29.000Z</time>
      </trkpt>
      <trkpt lat="45.90576" lon="-1.21783">
        <ele>3.7999999523163</ele>
        <time>2021-11-09T07:51:31.000Z</time>
      </trkpt>
      <trkpt lat="45.9058" lon="-1.21779">
        <ele>3.5999999046326</ele>
        <time>2021-11-09T07:51:32.000Z</time>
      </trkpt>
      <trkpt lat="45.90584" lon="-1.21773">
        <ele>3.5999999046326</ele>
        <time>2021-11-09T07:51:33.000Z</time>
      </trkpt>
      <trkpt lat="45.90587" lon="-1.21756">
        <ele>3.5999999046326</ele>
        <time>2021-11-09T07:51:35.000Z</time>
      </trkpt>
      <trkpt lat="45.90588" lon="-1.21747">
        <ele>3.5999999046326</ele>
        <time>2021-11-09T07:51:36.000Z</time>
      </trkpt>
      <trkpt lat="45.90594" lon="-1.2173">
        <ele>3.5999999046326</ele>
        <time>2021-11-09T07:51:38.000Z</time>
      </trkpt>
      <trkpt lat="45.90598" lon="-1.21722">
        <ele>3.5999999046326</ele>
        <time>2021-11-09T07:51:39.000Z</time>
      </trkpt>
      <trkpt lat="45.90602" lon="-1.21716">
        <ele>3.5999999046326</ele>
        <time>2021-11-09T07:51:40.000Z</time>
      </trkpt>
      <trkpt lat="45.90621" lon="-1.21691">
        <ele>3.5999999046326</ele>
        <time>2021-11-09T07:51:44.000Z</time>
      </trkpt>
      <trkpt lat="45.90644" lon="-1.21648">
        <ele>3.5999999046326</ele>
        <time>2021-11-09T07:51:50.000Z</time>
      </trkpt>
      <trkpt lat="45.90669" lon="-1.21602">
        <ele>4</ele>
        <time>2021-11-09T07:51:57.000Z</time>
      </trkpt>
      <trkpt lat="45.90677" lon="-1.21594">
        <ele>4</ele>
        <time>2021-11-09T07:51:59.000Z</time>
      </trkpt>
      <trkpt lat="45.90681" lon="-1.21593">
        <ele>4.4000000953674</ele>
        <time>2021-11-09T07:52:00.000Z</time>
      </trkpt>
      <trkpt lat="45.90685" lon="-1.21595">
        <ele>4.1999998092651</ele>
        <time>2021-11-09T07:52:01.000Z</time>
      </trkpt>
      <trkpt lat="45.90695" lon="-1.21606">
        <ele>4.1999998092651</ele>
        <time>2021-11-09T07:52:04.000Z</time>
      </trkpt>
      <trkpt lat="45.90709" lon="-1.21616">
        <ele>4</ele>
        <time>2021-11-09T07:52:09.000Z</time>
      </trkpt>
      <trkpt lat="45.90727" lon="-1.21637">
        <ele>3.7999999523163</ele>
        <time>2021-11-09T07:52:15.000Z</time>
      </trkpt>
      <trkpt lat="45.9075" lon="-1.21672">
        <ele>4.4000000953674</ele>
        <time>2021-11-09T07:52:22.000Z</time>
      </trkpt>
      <trkpt lat="45.90754" lon="-1.21678">
        <ele>4.5999999046326</ele>
        <time>2021-11-09T07:52:23.000Z</time>
      </trkpt>
      <trkpt lat="45.90772" lon="-1.21706">
        <ele>5</ele>
        <time>2021-11-09T07:52:29.000Z</time>
      </trkpt>
      <trkpt lat="45.90782" lon="-1.21717">
        <ele>5.1999998092651</ele>
        <time>2021-11-09T07:52:32.000Z</time>
      </trkpt>
      <trkpt lat="45.90795" lon="-1.21737">
        <ele>5.4000000953674</ele>
        <time>2021-11-09T07:52:36.000Z</time>
      </trkpt>
      <trkpt lat="45.90813" lon="-1.21762">
        <ele>5.1999998092651</ele>
        <time>2021-11-09T07:52:41.000Z</time>
      </trkpt>
      <trkpt lat="45.90823" lon="-1.21777">
        <ele>5.1999998092651</ele>
        <time>2021-11-09T07:52:44.000Z</time>
      </trkpt>
      <trkpt lat="45.90841" lon="-1.21801">
        <ele>5.1999998092651</ele>
        <time>2021-11-09T07:52:49.000Z</time>
      </trkpt>
      <trkpt lat="45.9087" lon="-1.21841">
        <ele>5</ele>
        <time>2021-11-09T07:52:57.000Z</time>
      </trkpt>
      <trkpt lat="45.90881" lon="-1.21853">
        <ele>5.4000000953674</ele>
        <time>2021-11-09T07:53:00.000Z</time>
      </trkpt>
      <trkpt lat="45.90894" lon="-1.21871">
        <ele>5.4000000953674</ele>
        <time>2021-11-09T07:53:04.000Z</time>
      </trkpt>
      <trkpt lat="45.90905" lon="-1.21885">
        <ele>5.4000000953674</ele>
        <time>2021-11-09T07:53:07.000Z</time>
      </trkpt>
      <trkpt lat="45.90921" lon="-1.21902">
        <ele>5.4000000953674</ele>
        <time>2021-11-09T07:53:11.000Z</time>
      </trkpt>
      <trkpt lat="45.90948" lon="-1.21939">
        <ele>5.4000000953674</ele>
        <time>2021-11-09T07:53:18.000Z</time>
      </trkpt>
      <trkpt lat="45.90952" lon="-1.21944">
        <ele>5.4000000953674</ele>
        <time>2021-11-09T07:53:19.000Z</time>
      </trkpt>
      <trkpt lat="45.90974" lon="-1.21977">
        <ele>6.1999998092651</ele>
        <time>2021-11-09T07:53:26.000Z</time>
      </trkpt>
      <trkpt lat="45.90983" lon="-1.21989">
        <ele>6.1999998092651</ele>
        <time>2021-11-09T07:53:29.000Z</time>
      </trkpt>
      <trkpt lat="45.90995" lon="-1.22003">
        <ele>6.4000000953674</ele>
        <time>2021-11-09T07:53:33.000Z</time>
      </trkpt>
      <trkpt lat="45.91007" lon="-1.2202">
        <ele>6.5999999046326</ele>
        <time>2021-11-09T07:53:38.000Z</time>
      </trkpt>
      <trkpt lat="45.9102" lon="-1.22037">
        <ele>6.8000001907349</ele>
        <time>2021-11-09T07:53:43.000Z</time>
      </trkpt>
      <trkpt lat="45.91029" lon="-1.22055">
        <ele>7</ele>
        <time>2021-11-09T07:53:48.000Z</time>
      </trkpt>
      <trkpt lat="45.91032" lon="-1.22058">
        <ele>6.8000001907349</ele>
        <time>2021-11-09T07:53:49.000Z</time>
      </trkpt>
      <trkpt lat="45.91042" lon="-1.2206">
        <ele>6.8000001907349</ele>
        <time>2021-11-09T07:53:52.000Z</time>
      </trkpt>
      <trkpt lat="45.91046" lon="-1.2206">
        <ele>6.8000001907349</ele>
        <time>2021-11-09T07:53:53.000Z</time>
      </trkpt>
      <trkpt lat="45.91053" lon="-1.22063">
        <ele>6.8000001907349</ele>
        <time>2021-11-09T07:53:55.000Z</time>
      </trkpt>
      <trkpt lat="45.91064" lon="-1.22078">
        <ele>6.4000000953674</ele>
        <time>2021-11-09T07:54:00.000Z</time>
      </trkpt>
      <trkpt lat="45.91072" lon="-1.22088">
        <ele>6.1999998092651</ele>
        <time>2021-11-09T07:54:03.000Z</time>
      </trkpt>
      <trkpt lat="45.91079" lon="-1.22092">
        <ele>6.1999998092651</ele>
        <time>2021-11-09T07:54:05.000Z</time>
      </trkpt>
      <trkpt lat="45.91091" lon="-1.22109">
        <ele>6.1999998092651</ele>
        <time>2021-11-09T07:54:10.000Z</time>
      </trkpt>
      <trkpt lat="45.911" lon="-1.22121">
        <ele>6.4000000953674</ele>
        <time>2021-11-09T07:54:15.000Z</time>
      </trkpt>
      <trkpt lat="45.91117" lon="-1.22138">
        <ele>6.4000000953674</ele>
        <time>2021-11-09T07:54:21.000Z</time>
      </trkpt>
      <trkpt lat="45.91121" lon="-1.22149">
        <ele>6.4000000953674</ele>
        <time>2021-11-09T07:54:24.000Z</time>
      </trkpt>
      <trkpt lat="45.91123" lon="-1.22152">
        <ele>6.4000000953674</ele>
        <time>2021-11-09T07:54:25.000Z</time>
      </trkpt>
      <trkpt lat="45.9113" lon="-1.22161">
        <ele>6</ele>
        <time>2021-11-09T07:54:29.000Z</time>
      </trkpt>
      <trkpt lat="45.91133" lon="-1.22167">
        <ele>6</ele>
        <time>2021-11-09T07:54:34.000Z</time>
      </trkpt>
      <trkpt lat="45.91135" lon="-1.22171">
        <ele>6</ele>
        <time>2021-11-09T07:54:39.000Z</time>
      </trkpt>
      <trkpt lat="45.91136" lon="-1.22173">
        <ele>6</ele>
        <time>2021-11-09T07:54:40.000Z</time>
      </trkpt>
      <trkpt lat="45.91144" lon="-1.22191">
        <ele>6.1999998092651</ele>
        <time>2021-11-09T07:54:45.000Z</time>
      </trkpt>
      <trkpt lat="45.91159" lon="-1.2221">
        <ele>6.1999998092651</ele>
        <time>2021-11-09T07:54:51.000Z</time>
      </trkpt>
      <trkpt lat="45.91164" lon="-1.22212">
        <ele>6.4000000953674</ele>
        <time>2021-11-09T07:54:53.000Z</time>
      </trkpt>
      <trkpt lat="45.91164" lon="-1.22216">
        <ele>6.5999999046326</ele>
        <time>2021-11-09T07:54:55.000Z</time>
      </trkpt>
      <trkpt lat="45.91162" lon="-1.2223">
        <ele>6.4000000953674</ele>
        <time>2021-11-09T07:54:58.000Z</time>
      </trkpt>
      <trkpt lat="45.91164" lon="-1.22235">
        <ele>6.4000000953674</ele>
        <time>2021-11-09T07:54:59.000Z</time>
      </trkpt>
      <trkpt lat="45.91166" lon="-1.22241">
        <ele>6.4000000953674</ele>
        <time>2021-11-09T07:55:00.000Z</time>
      </trkpt>
      <trkpt lat="45.91175" lon="-1.22253">
        <ele>6.4000000953674</ele>
        <time>2021-11-09T07:55:02.000Z</time>
      </trkpt>
      <trkpt lat="45.91209" lon="-1.22293">
        <ele>6</ele>
        <time>2021-11-09T07:55:09.000Z</time>
      </trkpt>
      <trkpt lat="45.91242" lon="-1.22331">
        <ele>6</ele>
        <time>2021-11-09T07:55:15.000Z</time>
      </trkpt>
      <trkpt lat="45.91286" lon="-1.22379">
        <ele>6</ele>
        <time>2021-11-09T07:55:23.000Z</time>
      </trkpt>
      <trkpt lat="45.91305" lon="-1.22398">
        <ele>6</ele>
        <time>2021-11-09T07:55:26.000Z</time>
      </trkpt>
      <trkpt lat="45.91357" lon="-1.22443">
        <ele>6</ele>
        <time>2021-11-09T07:55:34.000Z</time>
      </trkpt>
      <trkpt lat="45.91363" lon="-1.22448">
        <ele>6</ele>
        <time>2021-11-09T07:55:35.000Z</time>
      </trkpt>
      <trkpt lat="45.91413" lon="-1.2248">
        <ele>5.8000001907349</ele>
        <time>2021-11-09T07:55:42.000Z</time>
      </trkpt>
      <trkpt lat="45.91435" lon="-1.22494">
        <ele>5.8000001907349</ele>
        <time>2021-11-09T07:55:45.000Z</time>
      </trkpt>
      <trkpt lat="45.91478" lon="-1.2252">
        <ele>5.5999999046326</ele>
        <time>2021-11-09T07:55:51.000Z</time>
      </trkpt>
      <trkpt lat="45.91515" lon="-1.22541">
        <ele>5.1999998092651</ele>
        <time>2021-11-09T07:55:56.000Z</time>
      </trkpt>
      <trkpt lat="45.91565" lon="-1.22571">
        <ele>5.1999998092651</ele>
        <time>2021-11-09T07:56:03.000Z</time>
      </trkpt>
      <trkpt lat="45.91586" lon="-1.22585">
        <ele>5</ele>
        <time>2021-11-09T07:56:06.000Z</time>
      </trkpt>
      <trkpt lat="45.91641" lon="-1.22621">
        <ele>4.5999999046326</ele>
        <time>2021-11-09T07:56:14.000Z</time>
      </trkpt>
      <trkpt lat="45.91695" lon="-1.22663">
        <ele>4.5999999046326</ele>
        <time>2021-11-09T07:56:22.000Z</time>
      </trkpt>
      <trkpt lat="45.91708" lon="-1.22673">
        <ele>4.5999999046326</ele>
        <time>2021-11-09T07:56:24.000Z</time>
      </trkpt>
      <trkpt lat="45.91756" lon="-1.22711">
        <ele>5</ele>
        <time>2021-11-09T07:56:31.000Z</time>
      </trkpt>
      <trkpt lat="45.91783" lon="-1.22733">
        <ele>5.1999998092651</ele>
        <time>2021-11-09T07:56:35.000Z</time>
      </trkpt>
      <trkpt lat="45.91831" lon="-1.22771">
        <ele>5</ele>
        <time>2021-11-09T07:56:42.000Z</time>
      </trkpt>
      <trkpt lat="45.91852" lon="-1.22787">
        <ele>5</ele>
        <time>2021-11-09T07:56:45.000Z</time>
      </trkpt>
      <trkpt lat="45.919" lon="-1.22825">
        <ele>5.1999998092651</ele>
        <time>2021-11-09T07:56:52.000Z</time>
      </trkpt>
      <trkpt lat="45.91934" lon="-1.22853">
        <ele>5.4000000953674</ele>
        <time>2021-11-09T07:56:57.000Z</time>
      </trkpt>
      <trkpt lat="45.91981" lon="-1.22891">
        <ele>5.1999998092651</ele>
        <time>2021-11-09T07:57:04.000Z</time>
      </trkpt>
      <trkpt lat="45.91994" lon="-1.22902">
        <ele>5.1999998092651</ele>
        <time>2021-11-09T07:57:06.000Z</time>
      </trkpt>
      <trkpt lat="45.92046" lon="-1.22948">
        <ele>4.8000001907349</ele>
        <time>2021-11-09T07:57:14.000Z</time>
      </trkpt>
      <trkpt lat="45.92065" lon="-1.22967">
        <ele>4.5999999046326</ele>
        <time>2021-11-09T07:57:17.000Z</time>
      </trkpt>
      <trkpt lat="45.92101" lon="-1.23005">
        <ele>4.4000000953674</ele>
        <time>2021-11-09T07:57:23.000Z</time>
      </trkpt>
      <trkpt lat="45.9214" lon="-1.23036">
        <ele>4.4000000953674</ele>
        <time>2021-11-09T07:57:29.000Z</time>
      </trkpt>
      <trkpt lat="45.92168" lon="-1.23069">
        <ele>4.4000000953674</ele>
        <time>2021-11-09T07:57:34.000Z</time>
      </trkpt>
      <trkpt lat="45.92212" lon="-1.23128">
        <ele>4.1999998092651</ele>
        <time>2021-11-09T07:57:42.000Z</time>
      </trkpt>
      <trkpt lat="45.92254" lon="-1.2319">
        <ele>4.1999998092651</ele>
        <time>2021-11-09T07:57:50.000Z</time>
      </trkpt>
      <trkpt lat="45.92257" lon="-1.23197">
        <ele>4.1999998092651</ele>
        <time>2021-11-09T07:57:51.000Z</time>
      </trkpt>
      <trkpt lat="45.92291" lon="-1.23257">
        <ele>4.4000000953674</ele>
        <time>2021-11-09T07:57:58.000Z</time>
      </trkpt>
      <trkpt lat="45.923" lon="-1.23272">
        <ele>4.4000000953674</ele>
        <time>2021-11-09T07:58:00.000Z</time>
      </trkpt>
      <trkpt lat="45.92337" lon="-1.23329">
        <ele>4.8000001907349</ele>
        <time>2021-11-09T07:58:07.000Z</time>
      </trkpt>
      <trkpt lat="45.92343" lon="-1.23336">
        <ele>4.8000001907349</ele>
        <time>2021-11-09T07:58:08.000Z</time>
      </trkpt>
      <trkpt lat="45.92388" lon="-1.23373">
        <ele>4.5999999046326</ele>
        <time>2021-11-09T07:58:15.000Z</time>
      </trkpt>
      <trkpt lat="45.92438" lon="-1.23414">
        <ele>4.8000001907349</ele>
        <time>2021-11-09T07:58:23.000Z</time>
      </trkpt>
      <trkpt lat="45.92444" lon="-1.23419">
        <ele>4.8000001907349</ele>
        <time>2021-11-09T07:58:24.000Z</time>
      </trkpt>
      <trkpt lat="45.92474" lon="-1.23441">
        <ele>5</ele>
        <time>2021-11-09T07:58:30.000Z</time>
      </trkpt>
      <trkpt lat="45.92481" lon="-1.23446">
        <ele>5</ele>
        <time>2021-11-09T07:58:32.000Z</time>
      </trkpt>
      <trkpt lat="45.92496" lon="-1.23453">
        <ele>4.8000001907349</ele>
        <time>2021-11-09T07:58:35.000Z</time>
      </trkpt>
      <trkpt lat="45.92527" lon="-1.23464">
        <ele>5</ele>
        <time>2021-11-09T07:58:40.000Z</time>
      </trkpt>
      <trkpt lat="45.92555" lon="-1.23462">
        <ele>5</ele>
        <time>2021-11-09T07:58:44.000Z</time>
      </trkpt>
      <trkpt lat="45.92563" lon="-1.23459">
        <ele>5.1999998092651</ele>
        <time>2021-11-09T07:58:45.000Z</time>
      </trkpt>
      <trkpt lat="45.92576" lon="-1.23452">
        <ele>5.4000000953674</ele>
        <time>2021-11-09T07:58:47.000Z</time>
      </trkpt>
      <trkpt lat="45.92591" lon="-1.2345">
        <ele>5.4000000953674</ele>
        <time>2021-11-09T07:58:49.000Z</time>
      </trkpt>
      <trkpt lat="45.92605" lon="-1.23454">
        <ele>5.1999998092651</ele>
        <time>2021-11-09T07:58:51.000Z</time>
      </trkpt>
      <trkpt lat="45.92618" lon="-1.23463">
        <ele>5</ele>
        <time>2021-11-09T07:58:53.000Z</time>
      </trkpt>
      <trkpt lat="45.92666" lon="-1.23505">
        <ele>4.8000001907349</ele>
        <time>2021-11-09T07:59:01.000Z</time>
      </trkpt>
      <trkpt lat="45.92672" lon="-1.23511">
        <ele>4.5999999046326</ele>
        <time>2021-11-09T07:59:02.000Z</time>
      </trkpt>
      <trkpt lat="45.92697" lon="-1.2355">
        <ele>4.5999999046326</ele>
        <time>2021-11-09T07:59:07.000Z</time>
      </trkpt>
      <trkpt lat="45.92728" lon="-1.23614">
        <ele>4.8000001907349</ele>
        <time>2021-11-09T07:59:14.000Z</time>
      </trkpt>
      <trkpt lat="45.9276" lon="-1.23644">
        <ele>4.8000001907349</ele>
        <time>2021-11-09T07:59:19.000Z</time>
      </trkpt>
      <trkpt lat="45.92809" lon="-1.23668">
        <ele>4.5999999046326</ele>
        <time>2021-11-09T07:59:26.000Z</time>
      </trkpt>
      <trkpt lat="45.9286" lon="-1.23693">
        <ele>4.5999999046326</ele>
        <time>2021-11-09T07:59:33.000Z</time>
      </trkpt>
      <trkpt lat="45.92881" lon="-1.23705">
        <ele>4.5999999046326</ele>
        <time>2021-11-09T07:59:36.000Z</time>
      </trkpt>
      <trkpt lat="45.92937" lon="-1.23734">
        <ele>4.1999998092651</ele>
        <time>2021-11-09T07:59:44.000Z</time>
      </trkpt>
      <trkpt lat="45.92953" lon="-1.2374">
        <ele>4.1999998092651</ele>
        <time>2021-11-09T07:59:46.000Z</time>
      </trkpt>
      <trkpt lat="45.93011" lon="-1.23753">
        <ele>4</ele>
        <time>2021-11-09T07:59:54.000Z</time>
      </trkpt>
      <trkpt lat="45.9302" lon="-1.23754">
        <ele>3.7999999523163</ele>
        <time>2021-11-09T07:59:55.000Z</time>
      </trkpt>
      <trkpt lat="45.93077" lon="-1.23756">
        <ele>3.7999999523163</ele>
        <time>2021-11-09T08:00:03.000Z</time>
      </trkpt>
      <trkpt lat="45.93119" lon="-1.23763">
        <ele>4.1999998092651</ele>
        <time>2021-11-09T08:00:09.000Z</time>
      </trkpt>
      <trkpt lat="45.93132" lon="-1.23772">
        <ele>4.1999998092651</ele>
        <time>2021-11-09T08:00:11.000Z</time>
      </trkpt>
      <trkpt lat="45.93143" lon="-1.23784">
        <ele>4</ele>
        <time>2021-11-09T08:00:13.000Z</time>
      </trkpt>
      <trkpt lat="45.93153" lon="-1.23801">
        <ele>4</ele>
        <time>2021-11-09T08:00:15.000Z</time>
      </trkpt>
      <trkpt lat="45.93158" lon="-1.23819">
        <ele>3.7999999523163</ele>
        <time>2021-11-09T08:00:17.000Z</time>
      </trkpt>
      <trkpt lat="45.93173" lon="-1.23872">
        <ele>3.7999999523163</ele>
        <time>2021-11-09T08:00:22.000Z</time>
      </trkpt>
      <trkpt lat="45.93201" lon="-1.23925">
        <ele>3.7999999523163</ele>
        <time>2021-11-09T08:00:28.000Z</time>
      </trkpt>
      <trkpt lat="45.93217" lon="-1.23974">
        <ele>3.7999999523163</ele>
        <time>2021-11-09T08:00:33.000Z</time>
      </trkpt>
      <trkpt lat="45.93238" lon="-1.24038">
        <ele>3.4000000953674</ele>
        <time>2021-11-09T08:00:40.000Z</time>
      </trkpt>
      <trkpt lat="45.93263" lon="-1.24079">
        <ele>3.5999999046326</ele>
        <time>2021-11-09T08:00:45.000Z</time>
      </trkpt>
      <trkpt lat="45.93306" lon="-1.24139">
        <ele>4.5999999046326</ele>
        <time>2021-11-09T08:00:53.000Z</time>
      </trkpt>
      <trkpt lat="45.93311" lon="-1.24146">
        <ele>4.5999999046326</ele>
        <time>2021-11-09T08:00:54.000Z</time>
      </trkpt>
      <trkpt lat="45.93352" lon="-1.24199">
        <ele>4.1999998092651</ele>
        <time>2021-11-09T08:01:01.000Z</time>
      </trkpt>
      <trkpt lat="45.93357" lon="-1.24204">
        <ele>4</ele>
        <time>2021-11-09T08:01:02.000Z</time>
      </trkpt>
      <trkpt lat="45.93364" lon="-1.24209">
        <ele>4</ele>
        <time>2021-11-09T08:01:03.000Z</time>
      </trkpt>
      <trkpt lat="45.9338" lon="-1.24214">
        <ele>3.7999999523163</ele>
        <time>2021-11-09T08:01:05.000Z</time>
      </trkpt>
      <trkpt lat="45.93407" lon="-1.24203">
        <ele>3.5999999046326</ele>
        <time>2021-11-09T08:01:09.000Z</time>
      </trkpt>
      <trkpt lat="45.93457" lon="-1.24186">
        <ele>3.4000000953674</ele>
        <time>2021-11-09T08:01:16.000Z</time>
      </trkpt>
      <trkpt lat="45.935" lon="-1.24192">
        <ele>3.2000000476837</ele>
        <time>2021-11-09T08:01:22.000Z</time>
      </trkpt>
      <trkpt lat="45.93529" lon="-1.24196">
        <ele>3.2000000476837</ele>
        <time>2021-11-09T08:01:26.000Z</time>
      </trkpt>
      <trkpt lat="45.93549" lon="-1.24195">
        <ele>3.2000000476837</ele>
        <time>2021-11-09T08:01:29.000Z</time>
      </trkpt>
      <trkpt lat="45.93607" lon="-1.24191">
        <ele>3.7999999523163</ele>
        <time>2021-11-09T08:01:37.000Z</time>
      </trkpt>
      <trkpt lat="45.93614" lon="-1.24189">
        <ele>3.7999999523163</ele>
        <time>2021-11-09T08:01:38.000Z</time>
      </trkpt>
      <trkpt lat="45.93624" lon="-1.24182">
        <ele>3.7999999523163</ele>
        <time>2021-11-09T08:01:40.000Z</time>
      </trkpt>
      <trkpt lat="45.93629" lon="-1.24165">
        <ele>3.7999999523163</ele>
        <time>2021-11-09T08:01:42.000Z</time>
      </trkpt>
      <trkpt lat="45.93625" lon="-1.24149">
        <ele>3.7999999523163</ele>
        <time>2021-11-09T08:01:44.000Z</time>
      </trkpt>
      <trkpt lat="45.93616" lon="-1.24135">
        <ele>3.7999999523163</ele>
        <time>2021-11-09T08:01:46.000Z</time>
      </trkpt>
      <trkpt lat="45.93609" lon="-1.24127">
        <ele>3.7999999523163</ele>
        <time>2021-11-09T08:01:47.000Z</time>
      </trkpt>
      <trkpt lat="45.93605" lon="-1.24118">
        <ele>3.5999999046326</ele>
        <time>2021-11-09T08:01:48.000Z</time>
      </trkpt>
      <trkpt lat="45.93599" lon="-1.24102">
        <ele>3.4000000953674</ele>
        <time>2021-11-09T08:01:50.000Z</time>
      </trkpt>
      <trkpt lat="45.93597" lon="-1.2407">
        <ele>3.4000000953674</ele>
        <time>2021-11-09T08:01:53.000Z</time>
      </trkpt>
      <trkpt lat="45.93597" lon="-1.2406">
        <ele>3.2000000476837</ele>
        <time>2021-11-09T08:01:54.000Z</time>
      </trkpt>
      <trkpt lat="45.93598" lon="-1.23982">
        <ele>3</ele>
        <time>2021-11-09T08:02:02.000Z</time>
      </trkpt>
      <trkpt lat="45.93591" lon="-1.23908">
        <ele>3.2000000476837</ele>
        <time>2021-11-09T08:02:09.000Z</time>
      </trkpt>
      <trkpt lat="45.9358" lon="-1.2385">
        <ele>3.2000000476837</ele>
        <time>2021-11-09T08:02:15.000Z</time>
      </trkpt>
      <trkpt lat="45.93581" lon="-1.23839">
        <ele>3</ele>
        <time>2021-11-09T08:02:16.000Z</time>
      </trkpt>
      <trkpt lat="45.93582" lon="-1.23831">
        <ele>3</ele>
        <time>2021-11-09T08:02:17.000Z</time>
      </trkpt>
      <trkpt lat="45.93589" lon="-1.23812">
        <ele>3.2000000476837</ele>
        <time>2021-11-09T08:02:19.000Z</time>
      </trkpt>
      <trkpt lat="45.93601" lon="-1.23801">
        <ele>3</ele>
        <time>2021-11-09T08:02:21.000Z</time>
      </trkpt>
      <trkpt lat="45.93607" lon="-1.23798">
        <ele>3</ele>
        <time>2021-11-09T08:02:22.000Z</time>
      </trkpt>
      <trkpt lat="45.93614" lon="-1.23796">
        <ele>3</ele>
        <time>2021-11-09T08:02:23.000Z</time>
      </trkpt>
      <trkpt lat="45.93639" lon="-1.23794">
        <ele>2.7999999523163</ele>
        <time>2021-11-09T08:02:26.000Z</time>
      </trkpt>
      <trkpt lat="45.93698" lon="-1.238">
        <ele>2.4000000953674</ele>
        <time>2021-11-09T08:02:34.000Z</time>
      </trkpt>
      <trkpt lat="45.93707" lon="-1.238">
        <ele>2.4000000953674</ele>
        <time>2021-11-09T08:02:35.000Z</time>
      </trkpt>
      <trkpt lat="45.93764" lon="-1.23799">
        <ele>3</ele>
        <time>2021-11-09T08:02:43.000Z</time>
      </trkpt>
      <trkpt lat="45.93823" lon="-1.23805">
        <ele>3.7999999523163</ele>
        <time>2021-11-09T08:02:51.000Z</time>
      </trkpt>
      <trkpt lat="45.9383" lon="-1.23806">
        <ele>3.7999999523163</ele>
        <time>2021-11-09T08:02:52.000Z</time>
      </trkpt>
      <trkpt lat="45.9385" lon="-1.23809">
        <ele>3.7999999523163</ele>
        <time>2021-11-09T08:02:55.000Z</time>
      </trkpt>
      <trkpt lat="45.93895" lon="-1.23813">
        <ele>4</ele>
        <time>2021-11-09T08:03:01.000Z</time>
      </trkpt>
      <trkpt lat="45.9395" lon="-1.23817">
        <ele>4.5999999046326</ele>
        <time>2021-11-09T08:03:09.000Z</time>
      </trkpt>
      <trkpt lat="45.93973" lon="-1.23819">
        <ele>5</ele>
        <time>2021-11-09T08:03:12.000Z</time>
      </trkpt>
      <trkpt lat="45.94029" lon="-1.23825">
        <ele>5</ele>
        <time>2021-11-09T08:03:20.000Z</time>
      </trkpt>
      <trkpt lat="45.94086" lon="-1.23839">
        <ele>5</ele>
        <time>2021-11-09T08:03:28.000Z</time>
      </trkpt>
      <trkpt lat="45.94134" lon="-1.23857">
        <ele>4.8000001907349</ele>
        <time>2021-11-09T08:03:35.000Z</time>
      </trkpt>
      <trkpt lat="45.94192" lon="-1.23883">
        <ele>4.4000000953674</ele>
        <time>2021-11-09T08:03:44.000Z</time>
      </trkpt>
      <trkpt lat="45.94233" lon="-1.23894">
        <ele>4</ele>
        <time>2021-11-09T08:03:51.000Z</time>
      </trkpt>
      <trkpt lat="45.94238" lon="-1.23895">
        <ele>3.7999999523163</ele>
        <time>2021-11-09T08:03:52.000Z</time>
      </trkpt>
      <trkpt lat="45.94276" lon="-1.23903">
        <ele>4.1999998092651</ele>
        <time>2021-11-09T08:03:59.000Z</time>
      </trkpt>
      <trkpt lat="45.94293" lon="-1.23908">
        <ele>4</ele>
        <time>2021-11-09T08:04:02.000Z</time>
      </trkpt>
      <trkpt lat="45.94308" lon="-1.23916">
        <ele>3.7999999523163</ele>
        <time>2021-11-09T08:04:05.000Z</time>
      </trkpt>
      <trkpt lat="45.94314" lon="-1.23921">
        <ele>3.7999999523163</ele>
        <time>2021-11-09T08:04:06.000Z</time>
      </trkpt>
      <trkpt lat="45.94345" lon="-1.2394">
        <ele>3.4000000953674</ele>
        <time>2021-11-09T08:04:12.000Z</time>
      </trkpt>
      <trkpt lat="45.94363" lon="-1.23956">
        <ele>3.2000000476837</ele>
        <time>2021-11-09T08:04:16.000Z</time>
      </trkpt>
      <trkpt lat="45.94372" lon="-1.23966">
        <ele>3.2000000476837</ele>
        <time>2021-11-09T08:04:18.000Z</time>
      </trkpt>
      <trkpt lat="45.94378" lon="-1.23978">
        <ele>3</ele>
        <time>2021-11-09T08:04:20.000Z</time>
      </trkpt>
      <trkpt lat="45.94383" lon="-1.23995">
        <ele>3</ele>
        <time>2021-11-09T08:04:22.000Z</time>
      </trkpt>
      <trkpt lat="45.94388" lon="-1.24008">
        <ele>2.7999999523163</ele>
        <time>2021-11-09T08:04:24.000Z</time>
      </trkpt>
      <trkpt lat="45.94395" lon="-1.24022">
        <ele>2.7999999523163</ele>
        <time>2021-11-09T08:04:26.000Z</time>
      </trkpt>
      <trkpt lat="45.944" lon="-1.2403">
        <ele>3</ele>
        <time>2021-11-09T08:04:27.000Z</time>
      </trkpt>
      <trkpt lat="45.94404" lon="-1.24037">
        <ele>3</ele>
        <time>2021-11-09T08:04:28.000Z</time>
      </trkpt>
      <trkpt lat="45.94427" lon="-1.24066">
        <ele>3</ele>
        <time>2021-11-09T08:04:33.000Z</time>
      </trkpt>
      <trkpt lat="45.94467" lon="-1.24117">
        <ele>3</ele>
        <time>2021-11-09T08:04:41.000Z</time>
      </trkpt>
      <trkpt lat="45.94509" lon="-1.24169">
        <ele>3.4000000953674</ele>
        <time>2021-11-09T08:04:49.000Z</time>
      </trkpt>
      <trkpt lat="45.94518" lon="-1.24182">
        <ele>3.4000000953674</ele>
        <time>2021-11-09T08:04:51.000Z</time>
      </trkpt>
      <trkpt lat="45.94524" lon="-1.24199">
        <ele>3.4000000953674</ele>
        <time>2021-11-09T08:04:53.000Z</time>
      </trkpt>
      <trkpt lat="45.94529" lon="-1.24232">
        <ele>3.2000000476837</ele>
        <time>2021-11-09T08:04:56.000Z</time>
      </trkpt>
      <trkpt lat="45.94532" lon="-1.2424">
        <ele>3.2000000476837</ele>
        <time>2021-11-09T08:04:57.000Z</time>
      </trkpt>
      <trkpt lat="45.94543" lon="-1.24268">
        <ele>3</ele>
        <time>2021-11-09T08:05:00.000Z</time>
      </trkpt>
      <trkpt lat="45.94545" lon="-1.24278">
        <ele>3</ele>
        <time>2021-11-09T08:05:01.000Z</time>
      </trkpt>
      <trkpt lat="45.94545" lon="-1.24288">
        <ele>3</ele>
        <time>2021-11-09T08:05:02.000Z</time>
      </trkpt>
      <trkpt lat="45.94542" lon="-1.24305">
        <ele>2.7999999523163</ele>
        <time>2021-11-09T08:05:04.000Z</time>
      </trkpt>
      <trkpt lat="45.94532" lon="-1.24344">
        <ele>2.5999999046326</ele>
        <time>2021-11-09T08:05:08.000Z</time>
      </trkpt>
      <trkpt lat="45.94531" lon="-1.24355">
        <ele>2.5999999046326</ele>
        <time>2021-11-09T08:05:09.000Z</time>
      </trkpt>
      <trkpt lat="45.9453" lon="-1.24365">
        <ele>2.5999999046326</ele>
        <time>2021-11-09T08:05:10.000Z</time>
      </trkpt>
      <trkpt lat="45.94533" lon="-1.24407">
        <ele>2.5999999046326</ele>
        <time>2021-11-09T08:05:14.000Z</time>
      </trkpt>
      <trkpt lat="45.94535" lon="-1.24417">
        <ele>2.4000000953674</ele>
        <time>2021-11-09T08:05:15.000Z</time>
      </trkpt>
      <trkpt lat="45.94542" lon="-1.24435">
        <ele>2.2000000476837</ele>
        <time>2021-11-09T08:05:17.000Z</time>
      </trkpt>
      <trkpt lat="45.9455" lon="-1.24453">
        <ele>2.2000000476837</ele>
        <time>2021-11-09T08:05:19.000Z</time>
      </trkpt>
      <trkpt lat="45.94557" lon="-1.24479">
        <ele>1.7999999523163</ele>
        <time>2021-11-09T08:05:22.000Z</time>
      </trkpt>
      <trkpt lat="45.9456" lon="-1.24492">
        <ele>1.7999999523163</ele>
        <time>2021-11-09T08:05:23.000Z</time>
      </trkpt>
      <trkpt lat="45.94562" lon="-1.24513">
        <ele>1.7999999523163</ele>
        <time>2021-11-09T08:05:25.000Z</time>
      </trkpt>
      <trkpt lat="45.94562" lon="-1.24521">
        <ele>1.7999999523163</ele>
        <time>2021-11-09T08:05:26.000Z</time>
      </trkpt>
      <trkpt lat="45.94561" lon="-1.24545">
        <ele>1.7999999523163</ele>
        <time>2021-11-09T08:05:28.000Z</time>
      </trkpt>
      <trkpt lat="45.94562" lon="-1.24563">
        <ele>1.7999999523163</ele>
        <time>2021-11-09T08:05:30.000Z</time>
      </trkpt>
      <trkpt lat="45.94568" lon="-1.24583">
        <ele>1.7999999523163</ele>
        <time>2021-11-09T08:05:32.000Z</time>
      </trkpt>
      <trkpt lat="45.94569" lon="-1.24601">
        <ele>1.7999999523163</ele>
        <time>2021-11-09T08:05:34.000Z</time>
      </trkpt>
      <trkpt lat="45.94562" lon="-1.24627">
        <ele>2.2000000476837</ele>
        <time>2021-11-09T08:05:37.000Z</time>
      </trkpt>
      <trkpt lat="45.94561" lon="-1.24636">
        <ele>2.2000000476837</ele>
        <time>2021-11-09T08:05:38.000Z</time>
      </trkpt>
      <trkpt lat="45.94561" lon="-1.24694">
        <ele>2.5999999046326</ele>
        <time>2021-11-09T08:05:44.000Z</time>
      </trkpt>
      <trkpt lat="45.94559" lon="-1.24736">
        <ele>2.7999999523163</ele>
        <time>2021-11-09T08:05:48.000Z</time>
      </trkpt>
      <trkpt lat="45.94559" lon="-1.24744">
        <ele>2.7999999523163</ele>
        <time>2021-11-09T08:05:49.000Z</time>
      </trkpt>
      <trkpt lat="45.94559" lon="-1.24754">
        <ele>3</ele>
        <time>2021-11-09T08:05:50.000Z</time>
      </trkpt>
      <trkpt lat="45.9456" lon="-1.24765">
        <ele>3</ele>
        <time>2021-11-09T08:05:51.000Z</time>
      </trkpt>
      <trkpt lat="45.94565" lon="-1.24783">
        <ele>3.2000000476837</ele>
        <time>2021-11-09T08:05:53.000Z</time>
      </trkpt>
      <trkpt lat="45.9458" lon="-1.24816">
        <ele>3.7999999523163</ele>
        <time>2021-11-09T08:05:57.000Z</time>
      </trkpt>
      <trkpt lat="45.94582" lon="-1.24823">
        <ele>3.7999999523163</ele>
        <time>2021-11-09T08:05:58.000Z</time>
      </trkpt>
      <trkpt lat="45.94587" lon="-1.24843">
        <ele>3.7999999523163</ele>
        <time>2021-11-09T08:06:00.000Z</time>
      </trkpt>
      <trkpt lat="45.94593" lon="-1.24871">
        <ele>4.1999998092651</ele>
        <time>2021-11-09T08:06:03.000Z</time>
      </trkpt>
      <trkpt lat="45.94595" lon="-1.2489">
        <ele>4.1999998092651</ele>
        <time>2021-11-09T08:06:05.000Z</time>
      </trkpt>
      <trkpt lat="45.946" lon="-1.24908">
        <ele>4</ele>
        <time>2021-11-09T08:06:07.000Z</time>
      </trkpt>
      <trkpt lat="45.94603" lon="-1.24915">
        <ele>4</ele>
        <time>2021-11-09T08:06:08.000Z</time>
      </trkpt>
      <trkpt lat="45.94625" lon="-1.2498">
        <ele>4.1999998092651</ele>
        <time>2021-11-09T08:06:15.000Z</time>
      </trkpt>
      <trkpt lat="45.94628" lon="-1.24989">
        <ele>4.1999998092651</ele>
        <time>2021-11-09T08:06:16.000Z</time>
      </trkpt>
      <trkpt lat="45.94641" lon="-1.25012">
        <ele>4.4000000953674</ele>
        <time>2021-11-09T08:06:19.000Z</time>
      </trkpt>
      <trkpt lat="45.94649" lon="-1.25027">
        <ele>4.4000000953674</ele>
        <time>2021-11-09T08:06:21.000Z</time>
      </trkpt>
      <trkpt lat="45.94654" lon="-1.25045">
        <ele>4.4000000953674</ele>
        <time>2021-11-09T08:06:23.000Z</time>
      </trkpt>
      <trkpt lat="45.94653" lon="-1.25063">
        <ele>4.4000000953674</ele>
        <time>2021-11-09T08:06:25.000Z</time>
      </trkpt>
      <trkpt lat="45.94651" lon="-1.2507">
        <ele>4.1999998092651</ele>
        <time>2021-11-09T08:06:26.000Z</time>
      </trkpt>
      <trkpt lat="45.94648" lon="-1.25079">
        <ele>4.1999998092651</ele>
        <time>2021-11-09T08:06:27.000Z</time>
      </trkpt>
      <trkpt lat="45.9464" lon="-1.25092">
        <ele>4.1999998092651</ele>
        <time>2021-11-09T08:06:29.000Z</time>
      </trkpt>
      <trkpt lat="45.94627" lon="-1.25112">
        <ele>4.1999998092651</ele>
        <time>2021-11-09T08:06:32.000Z</time>
      </trkpt>
      <trkpt lat="45.94622" lon="-1.2513">
        <ele>4</ele>
        <time>2021-11-09T08:06:34.000Z</time>
      </trkpt>
      <trkpt lat="45.94623" lon="-1.25144">
        <ele>3.7999999523163</ele>
        <time>2021-11-09T08:06:36.000Z</time>
      </trkpt>
      <trkpt lat="45.94626" lon="-1.2515">
        <ele>3.7999999523163</ele>
        <time>2021-11-09T08:06:37.000Z</time>
      </trkpt>
      <trkpt lat="45.94631" lon="-1.25154">
        <ele>3.7999999523163</ele>
        <time>2021-11-09T08:06:38.000Z</time>
      </trkpt>
      <trkpt lat="45.94636" lon="-1.25154">
        <ele>3.7999999523163</ele>
        <time>2021-11-09T08:06:39.000Z</time>
      </trkpt>
      <trkpt lat="45.9468" lon="-1.25155">
        <ele>3.5999999046326</ele>
        <time>2021-11-09T08:06:46.000Z</time>
      </trkpt>
      <trkpt lat="45.94721" lon="-1.25157">
        <ele>3.4000000953674</ele>
        <time>2021-11-09T08:06:52.000Z</time>
      </trkpt>
      <trkpt lat="45.94727" lon="-1.25155">
        <ele>3.4000000953674</ele>
        <time>2021-11-09T08:06:53.000Z</time>
      </trkpt>
      <trkpt lat="45.94732" lon="-1.25151">
        <ele>3.4000000953674</ele>
        <time>2021-11-09T08:06:54.000Z</time>
      </trkpt>
      <trkpt lat="45.94741" lon="-1.25133">
        <ele>3.4000000953674</ele>
        <time>2021-11-09T08:06:56.000Z</time>
      </trkpt>
      <trkpt lat="45.94762" lon="-1.25072">
        <ele>3.7999999523163</ele>
        <time>2021-11-09T08:07:02.000Z</time>
      </trkpt>
      <trkpt lat="45.94765" lon="-1.25063">
        <ele>4</ele>
        <time>2021-11-09T08:07:03.000Z</time>
      </trkpt>
      <trkpt lat="45.94775" lon="-1.25035">
        <ele>4.5999999046326</ele>
        <time>2021-11-09T08:07:06.000Z</time>
      </trkpt>
      <trkpt lat="45.94778" lon="-1.25026">
        <ele>5</ele>
        <time>2021-11-09T08:07:07.000Z</time>
      </trkpt>
      <trkpt lat="45.9478" lon="-1.25018">
        <ele>5</ele>
        <time>2021-11-09T08:07:08.000Z</time>
      </trkpt>
      <trkpt lat="45.94786" lon="-1.24998">
        <ele>5.4000000953674</ele>
        <time>2021-11-09T08:07:10.000Z</time>
      </trkpt>
      <trkpt lat="45.94796" lon="-1.24964">
        <ele>6</ele>
        <time>2021-11-09T08:07:14.000Z</time>
      </trkpt>
      <trkpt lat="45.94801" lon="-1.24942">
        <ele>6.5999999046326</ele>
        <time>2021-11-09T08:07:16.000Z</time>
      </trkpt>
      <trkpt lat="45.94816" lon="-1.2487">
        <ele>6.8000001907349</ele>
        <time>2021-11-09T08:07:23.000Z</time>
      </trkpt>
      <trkpt lat="45.94829" lon="-1.24787">
        <ele>6.5999999046326</ele>
        <time>2021-11-09T08:07:31.000Z</time>
      </trkpt>
      <trkpt lat="45.94834" lon="-1.24713">
        <ele>6.1999998092651</ele>
        <time>2021-11-09T08:07:38.000Z</time>
      </trkpt>
      <trkpt lat="45.94836" lon="-1.24703">
        <ele>6.1999998092651</ele>
        <time>2021-11-09T08:07:39.000Z</time>
      </trkpt>
      <trkpt lat="45.94839" lon="-1.24676">
        <ele>6.5999999046326</ele>
        <time>2021-11-09T08:07:42.000Z</time>
      </trkpt>
      <trkpt lat="45.94842" lon="-1.24667">
        <ele>6.8000001907349</ele>
        <time>2021-11-09T08:07:43.000Z</time>
      </trkpt>
      <trkpt lat="45.94844" lon="-1.2466">
        <ele>6.8000001907349</ele>
        <time>2021-11-09T08:07:44.000Z</time>
      </trkpt>
      <trkpt lat="45.94848" lon="-1.24643">
        <ele>7</ele>
        <time>2021-11-09T08:07:46.000Z</time>
      </trkpt>
      <trkpt lat="45.94851" lon="-1.24632">
        <ele>7</ele>
        <time>2021-11-09T08:07:47.000Z</time>
      </trkpt>
      <trkpt lat="45.94854" lon="-1.24623">
        <ele>7.1999998092651</ele>
        <time>2021-11-09T08:07:48.000Z</time>
      </trkpt>
      <trkpt lat="45.94861" lon="-1.24604">
        <ele>7.1999998092651</ele>
        <time>2021-11-09T08:07:50.000Z</time>
      </trkpt>
      <trkpt lat="45.94871" lon="-1.24588">
        <ele>7.1999998092651</ele>
        <time>2021-11-09T08:07:52.000Z</time>
      </trkpt>
      <trkpt lat="45.94911" lon="-1.24529">
        <ele>7</ele>
        <time>2021-11-09T08:08:00.000Z</time>
      </trkpt>
      <trkpt lat="45.94918" lon="-1.24519">
        <ele>6.8000001907349</ele>
        <time>2021-11-09T08:08:01.000Z</time>
      </trkpt>
      <trkpt lat="45.94948" lon="-1.24464">
        <ele>6.4000000953674</ele>
        <time>2021-11-09T08:08:08.000Z</time>
      </trkpt>
      <trkpt lat="45.94967" lon="-1.2441">
        <ele>6</ele>
        <time>2021-11-09T08:08:14.000Z</time>
      </trkpt>
      <trkpt lat="45.9497" lon="-1.244">
        <ele>6</ele>
        <time>2021-11-09T08:08:15.000Z</time>
      </trkpt>
      <trkpt lat="45.94994" lon="-1.24324">
        <ele>5.8000001907349</ele>
        <time>2021-11-09T08:08:23.000Z</time>
      </trkpt>
      <trkpt lat="45.94996" lon="-1.24314">
        <ele>5.5999999046326</ele>
        <time>2021-11-09T08:08:24.000Z</time>
      </trkpt>
      <trkpt lat="45.95006" lon="-1.24271">
        <ele>5.5999999046326</ele>
        <time>2021-11-09T08:08:29.000Z</time>
      </trkpt>
      <trkpt lat="45.95023" lon="-1.24203">
        <ele>5.4000000953674</ele>
        <time>2021-11-09T08:08:36.000Z</time>
      </trkpt>
      <trkpt lat="45.95033" lon="-1.24163">
        <ele>5</ele>
        <time>2021-11-09T08:08:40.000Z</time>
      </trkpt>
      <trkpt lat="45.9504" lon="-1.24136">
        <ele>4.8000001907349</ele>
        <time>2021-11-09T08:08:43.000Z</time>
      </trkpt>
      <trkpt lat="45.9506" lon="-1.24073">
        <ele>4</ele>
        <time>2021-11-09T08:08:50.000Z</time>
      </trkpt>
      <trkpt lat="45.95063" lon="-1.24065">
        <ele>3.7999999523163</ele>
        <time>2021-11-09T08:08:51.000Z</time>
      </trkpt>
      <trkpt lat="45.95067" lon="-1.24049">
        <ele>3.5999999046326</ele>
        <time>2021-11-09T08:08:53.000Z</time>
      </trkpt>
      <trkpt lat="45.95069" lon="-1.24034">
        <ele>3.4000000953674</ele>
        <time>2021-11-09T08:08:55.000Z</time>
      </trkpt>
      <trkpt lat="45.9507" lon="-1.24021">
        <ele>3</ele>
        <time>2021-11-09T08:08:57.000Z</time>
      </trkpt>
      <trkpt lat="45.95072" lon="-1.24016">
        <ele>2.7999999523163</ele>
        <time>2021-11-09T08:08:58.000Z</time>
      </trkpt>
      <trkpt lat="45.95074" lon="-1.24014">
        <ele>2.5999999046326</ele>
        <time>2021-11-09T08:08:59.000Z</time>
      </trkpt>
      <trkpt lat="45.95076" lon="-1.24013">
        <ele>2.2000000476837</ele>
        <time>2021-11-09T08:09:02.000Z</time>
      </trkpt>
      <trkpt lat="45.95074" lon="-1.24011">
        <ele>2.2000000476837</ele>
        <time>2021-11-09T08:09:04.000Z</time>
      </trkpt>
      <trkpt lat="45.95076" lon="-1.24006">
        <ele>2</ele>
        <time>2021-11-09T08:09:06.000Z</time>
      </trkpt>
      <trkpt lat="45.95085" lon="-1.24001">
        <ele>1.7999999523163</ele>
        <time>2021-11-09T08:09:09.000Z</time>
      </trkpt>
      <trkpt lat="45.95088" lon="-1.24003">
        <ele>1.6000000238419</ele>
        <time>2021-11-09T08:09:10.000Z</time>
      </trkpt>
      <trkpt lat="45.9509" lon="-1.24008">
        <ele>1.6000000238419</ele>
        <time>2021-11-09T08:09:11.000Z</time>
      </trkpt>
      <trkpt lat="45.95093" lon="-1.2402">
        <ele>1.3999999761581</ele>
        <time>2021-11-09T08:09:13.000Z</time>
      </trkpt>
      <trkpt lat="45.95103" lon="-1.24075">
        <ele>0.80000001192093</ele>
        <time>2021-11-09T08:09:20.000Z</time>
      </trkpt>
      <trkpt lat="45.95114" lon="-1.24134">
        <ele>0.40000000596046</ele>
        <time>2021-11-09T08:09:27.000Z</time>
      </trkpt>
      <trkpt lat="45.95117" lon="-1.2414">
        <ele>0.40000000596046</ele>
        <time>2021-11-09T08:09:28.000Z</time>
      </trkpt>
      <trkpt lat="45.9512" lon="-1.24147">
        <ele>0.20000000298023</ele>
        <time>2021-11-09T08:09:29.000Z</time>
      </trkpt>
      <trkpt lat="45.9513" lon="-1.24158">
        <ele>0.20000000298023</ele>
        <time>2021-11-09T08:09:31.000Z</time>
      </trkpt>
      <trkpt lat="45.9514" lon="-1.24164">
        <ele>0.20000000298023</ele>
        <time>2021-11-09T08:09:33.000Z</time>
      </trkpt>
      <trkpt lat="45.95147" lon="-1.24172">
        <ele>-0.20000000298023</ele>
        <time>2021-11-09T08:09:35.000Z</time>
      </trkpt>
      <trkpt lat="45.95167" lon="-1.24188">
        <ele>-0.20000000298023</ele>
        <time>2021-11-09T08:09:40.000Z</time>
      </trkpt>
      <trkpt lat="45.95172" lon="-1.24192">
        <ele>-0.20000000298023</ele>
        <time>2021-11-09T08:09:41.000Z</time>
      </trkpt>
      <trkpt lat="45.95186" lon="-1.24201">
        <ele>2.2</ele>
        <time>2021-11-09T08:09:44.000Z</time>
      </trkpt>
      <trkpt lat="45.95189" lon="-1.24204">
        <ele>-0.20000000298023</ele>
        <time>2021-11-09T08:09:45.000Z</time>
      </trkpt>
      <trkpt lat="45.95215" lon="-1.24224">
        <ele>0.60000002384186</ele>
        <time>2021-11-09T08:09:51.000Z</time>
      </trkpt>
      <trkpt lat="45.95219" lon="-1.24227">
        <ele>0.60000002384186</ele>
        <time>2021-11-09T08:09:52.000Z</time>
      </trkpt>
      <trkpt lat="45.95232" lon="-1.24238">
        <ele>0.40000000596046</ele>
        <time>2021-11-09T08:09:55.000Z</time>
      </trkpt>
      <trkpt lat="45.9524" lon="-1.24243">
        <ele>0.40000000596046</ele>
        <time>2021-11-09T08:09:57.000Z</time>
      </trkpt>
      <trkpt lat="45.95249" lon="-1.24248">
        <ele>0.40000000596046</ele>
        <time>2021-11-09T08:09:59.000Z</time>
      </trkpt>
      <trkpt lat="45.95259" lon="-1.24258">
        <ele>-0.40000000596046</ele>
        <time>2021-11-09T08:10:02.000Z</time>
      </trkpt>
      <trkpt lat="45.95261" lon="-1.24268">
        <ele>-0.60000002384186</ele>
        <time>2021-11-09T08:10:04.000Z</time>
      </trkpt>
      <trkpt lat="45.9526" lon="-1.24273">
        <ele>-0.80000001192093</ele>
        <time>2021-11-09T08:10:05.000Z</time>
      </trkpt>
      <trkpt lat="45.95258" lon="-1.24285">
        <ele>-1</ele>
        <time>2021-11-09T08:10:07.000Z</time>
      </trkpt>
      <trkpt lat="45.9526" lon="-1.24294">
        <ele>-1</ele>
        <time>2021-11-09T08:10:09.000Z</time>
      </trkpt>
      <trkpt lat="45.95263" lon="-1.24298">
        <ele>-1</ele>
        <time>2021-11-09T08:10:10.000Z</time>
      </trkpt>
      <trkpt lat="45.95268" lon="-1.24298">
        <ele>-1</ele>
        <time>2021-11-09T08:10:11.000Z</time>
      </trkpt>
      <trkpt lat="45.95297" lon="-1.2429">
        <ele>-1.2000000476837</ele>
        <time>2021-11-09T08:10:16.000Z</time>
      </trkpt>
      <trkpt lat="45.95344" lon="-1.24277">
        <ele>-1.3999999761581</ele>
        <time>2021-11-09T08:10:24.000Z</time>
      </trkpt>
      <trkpt lat="45.95364" lon="-1.24272">
        <ele>-1.2000000476837</ele>
        <time>2021-11-09T08:10:27.000Z</time>
      </trkpt>
      <trkpt lat="45.95374" lon="-1.24276">
        <ele>-1.2000000476837</ele>
        <time>2021-11-09T08:10:29.000Z</time>
      </trkpt>
      <trkpt lat="45.95384" lon="-1.24287">
        <ele>-1.2000000476837</ele>
        <time>2021-11-09T08:10:31.000Z</time>
      </trkpt>
      <trkpt lat="45.95387" lon="-1.24292">
        <ele>-1.2000000476837</ele>
        <time>2021-11-09T08:10:32.000Z</time>
      </trkpt>
      <trkpt lat="45.95391" lon="-1.24299">
        <ele>-1.2000000476837</ele>
        <time>2021-11-09T08:10:33.000Z</time>
      </trkpt>
      <trkpt lat="45.95398" lon="-1.24325">
        <ele>-1</ele>
        <time>2021-11-09T08:10:36.000Z</time>
      </trkpt>
      <trkpt lat="45.95417" lon="-1.24406">
        <ele>-0.40000000596046</ele>
        <time>2021-11-09T08:10:45.000Z</time>
      </trkpt>
      <trkpt lat="45.95419" lon="-1.24416">
        <ele>-0.40000000596046</ele>
        <time>2021-11-09T08:10:46.000Z</time>
      </trkpt>
      <trkpt lat="45.95431" lon="-1.24462">
        <ele>-0.20000000298023</ele>
        <time>2021-11-09T08:10:51.000Z</time>
      </trkpt>
      <trkpt lat="45.95435" lon="-1.24468">
        <ele>-0.20000000298023</ele>
        <time>2021-11-09T08:10:52.000Z</time>
      </trkpt>
      <trkpt lat="45.95441" lon="-1.24473">
        <ele>3</ele>
        <time>2021-11-09T08:10:53.000Z</time>
      </trkpt>
      <trkpt lat="45.95454" lon="-1.24476">
        <ele>3.1</ele>
        <time>2021-11-09T08:10:55.000Z</time>
      </trkpt>
      <trkpt lat="45.95482" lon="-1.24483">
        <ele>0.20000000298023</ele>
        <time>2021-11-09T08:10:59.000Z</time>
      </trkpt>
      <trkpt lat="45.95504" lon="-1.24491">
        <ele>0.20000000298023</ele>
        <time>2021-11-09T08:11:02.000Z</time>
      </trkpt>
      <trkpt lat="45.95558" lon="-1.24502">
        <ele>0.60000002384186</ele>
        <time>2021-11-09T08:11:10.000Z</time>
      </trkpt>
      <trkpt lat="45.95607" lon="-1.24499">
        <ele>1</ele>
        <time>2021-11-09T08:11:17.000Z</time>
      </trkpt>
      <trkpt lat="45.95622" lon="-1.24492">
        <ele>1.3999999761581</ele>
        <time>2021-11-09T08:11:19.000Z</time>
      </trkpt>
      <trkpt lat="45.95642" lon="-1.24481">
        <ele>1.6000000238419</ele>
        <time>2021-11-09T08:11:22.000Z</time>
      </trkpt>
      <trkpt lat="45.95698" lon="-1.2445">
        <ele>2</ele>
        <time>2021-11-09T08:11:31.000Z</time>
      </trkpt>
      <trkpt lat="45.95722" lon="-1.24437">
        <ele>2.4000000953674</ele>
        <time>2021-11-09T08:11:35.000Z</time>
      </trkpt>
      <trkpt lat="45.95734" lon="-1.2443">
        <ele>2.4000000953674</ele>
        <time>2021-11-09T08:11:37.000Z</time>
      </trkpt>
      <trkpt lat="45.95742" lon="-1.24422">
        <ele>2.7999999523163</ele>
        <time>2021-11-09T08:11:39.000Z</time>
      </trkpt>
      <trkpt lat="45.95743" lon="-1.24416">
        <ele>2.7999999523163</ele>
        <time>2021-11-09T08:11:40.000Z</time>
      </trkpt>
      <trkpt lat="45.95744" lon="-1.24406">
        <ele>2.7999999523163</ele>
        <time>2021-11-09T08:11:41.000Z</time>
      </trkpt>
      <trkpt lat="45.95741" lon="-1.24383">
        <ele>2.7999999523163</ele>
        <time>2021-11-09T08:11:44.000Z</time>
      </trkpt>
      <trkpt lat="45.95739" lon="-1.24335">
        <ele>3.2000000476837</ele>
        <time>2021-11-09T08:11:50.000Z</time>
      </trkpt>
      <trkpt lat="45.95737" lon="-1.24327">
        <ele>3.4000000953674</ele>
        <time>2021-11-09T08:11:51.000Z</time>
      </trkpt>
      <trkpt lat="45.95736" lon="-1.24322">
        <ele>3.4000000953674</ele>
        <time>2021-11-09T08:11:52.000Z</time>
      </trkpt>
      <trkpt lat="45.95735" lon="-1.24319">
        <ele>3.4000000953674</ele>
        <time>2021-11-09T08:11:53.000Z</time>
      </trkpt>
      <trkpt lat="45.95733" lon="-1.24318">
        <ele>3.4000000953674</ele>
        <time>2021-11-09T08:11:54.000Z</time>
      </trkpt>
      <trkpt lat="45.95719" lon="-1.24312">
        <ele>3.4000000953674</ele>
        <time>2021-11-09T08:11:57.000Z</time>
      </trkpt>
      <trkpt lat="45.95714" lon="-1.2431">
        <ele>3.4000000953674</ele>
        <time>2021-11-09T08:11:58.000Z</time>
      </trkpt>
      <trkpt lat="45.95699" lon="-1.24307">
        <ele>3.2000000476837</ele>
        <time>2021-11-09T08:12:00.000Z</time>
      </trkpt>
      <trkpt lat="45.95685" lon="-1.24304">
        <ele>3</ele>
        <time>2021-11-09T08:12:02.000Z</time>
      </trkpt>
      <trkpt lat="45.95674" lon="-1.24298">
        <ele>2.5999999046326</ele>
        <time>2021-11-09T08:12:04.000Z</time>
      </trkpt>
      <trkpt lat="45.95658" lon="-1.24288">
        <ele>2.4000000953674</ele>
        <time>2021-11-09T08:12:06.000Z</time>
      </trkpt>
      <trkpt lat="45.95614" lon="-1.24268">
        <ele>2.2000000476837</ele>
        <time>2021-11-09T08:12:12.000Z</time>
      </trkpt>
      <trkpt lat="45.95599" lon="-1.24263">
        <ele>1.6000000238419</ele>
        <time>2021-11-09T08:12:14.000Z</time>
      </trkpt>
      <trkpt lat="45.95545" lon="-1.24242">
        <ele>1.3999999761581</ele>
        <time>2021-11-09T08:12:22.000Z</time>
      </trkpt>
      <trkpt lat="45.9551" lon="-1.24224">
        <ele>1</ele>
        <time>2021-11-09T08:12:27.000Z</time>
      </trkpt>
      <trkpt lat="45.95484" lon="-1.2421">
        <ele>0.80000001192093</ele>
        <time>2021-11-09T08:12:31.000Z</time>
      </trkpt>
      <trkpt lat="45.95456" lon="-1.24193">
        <ele>0.60000002384186</ele>
        <time>2021-11-09T08:12:36.000Z</time>
      </trkpt>
      <trkpt lat="45.95451" lon="-1.24187">
        <ele>0.40000000596046</ele>
        <time>2021-11-09T08:12:37.000Z</time>
      </trkpt>
      <trkpt lat="45.95448" lon="-1.2418">
        <ele>0.20000000298023</ele>
        <time>2021-11-09T08:12:38.000Z</time>
      </trkpt>
      <trkpt lat="45.95448" lon="-1.24173">
        <ele>0.20000000298023</ele>
        <time>2021-11-09T08:12:39.000Z</time>
      </trkpt>
      <trkpt lat="45.9545" lon="-1.24168">
        <ele>3.2</ele>
        <time>2021-11-09T08:12:40.000Z</time>
      </trkpt>
      <trkpt lat="45.95454" lon="-1.24165">
        <ele>3.4</ele>
        <time>2021-11-09T08:12:41.000Z</time>
      </trkpt>
      <trkpt lat="45.95459" lon="-1.24164">
        <ele>3.6</ele>
        <time>2021-11-09T08:12:42.000Z</time>
      </trkpt>
      <trkpt lat="45.95468" lon="-1.24168">
        <ele>3.8</ele>
        <time>2021-11-09T08:12:44.000Z</time>
      </trkpt>
      <trkpt lat="45.95491" lon="-1.24181">
        <ele>3</ele>
        <time>2021-11-09T08:12:48.000Z</time>
      </trkpt>
      <trkpt lat="45.95536" lon="-1.24205">
        <ele>-0.20000000298023</ele>
        <time>2021-11-09T08:12:55.000Z</time>
      </trkpt>
      <trkpt lat="45.95581" lon="-1.24225">
        <ele>-0.20000000298023</ele>
        <time>2021-11-09T08:13:02.000Z</time>
      </trkpt>
      <trkpt lat="45.95624" lon="-1.2424">
        <ele>3</ele>
        <time>2021-11-09T08:13:09.000Z</time>
      </trkpt>
      <trkpt lat="45.95665" lon="-1.2425">
        <ele>0.60000002384186</ele>
        <time>2021-11-09T08:13:15.000Z</time>
      </trkpt>
      <trkpt lat="45.95671" lon="-1.24248">
        <ele>0.60000002384186</ele>
        <time>2021-11-09T08:13:16.000Z</time>
      </trkpt>
      <trkpt lat="45.95691" lon="-1.24244">
        <ele>0.80000001192093</ele>
        <time>2021-11-09T08:13:19.000Z</time>
      </trkpt>
      <trkpt lat="45.95711" lon="-1.24244">
        <ele>1</ele>
        <time>2021-11-09T08:13:22.000Z</time>
      </trkpt>
      <trkpt lat="45.95744" lon="-1.24241">
        <ele>1.2000000476837</ele>
        <time>2021-11-09T08:13:27.000Z</time>
      </trkpt>
      <trkpt lat="45.95782" lon="-1.24242">
        <ele>2</ele>
        <time>2021-11-09T08:13:33.000Z</time>
      </trkpt>
      <trkpt lat="45.95795" lon="-1.24239">
        <ele>2.2000000476837</ele>
        <time>2021-11-09T08:13:35.000Z</time>
      </trkpt>
      <trkpt lat="45.95836" lon="-1.24229">
        <ele>2.4000000953674</ele>
        <time>2021-11-09T08:13:41.000Z</time>
      </trkpt>
      <trkpt lat="45.95885" lon="-1.24212">
        <ele>2</ele>
        <time>2021-11-09T08:13:48.000Z</time>
      </trkpt>
      <trkpt lat="45.95928" lon="-1.24194">
        <ele>1.7999999523163</ele>
        <time>2021-11-09T08:13:55.000Z</time>
      </trkpt>
      <trkpt lat="45.95937" lon="-1.24197">
        <ele>1.7999999523163</ele>
        <time>2021-11-09T08:13:57.000Z</time>
      </trkpt>
      <trkpt lat="45.9594" lon="-1.24202">
        <ele>1.7999999523163</ele>
        <time>2021-11-09T08:13:58.000Z</time>
      </trkpt>
      <trkpt lat="45.95941" lon="-1.24216">
        <ele>1.6000000238419</ele>
        <time>2021-11-09T08:14:00.000Z</time>
      </trkpt>
      <trkpt lat="45.95942" lon="-1.24225">
        <ele>1.6000000238419</ele>
        <time>2021-11-09T08:14:01.000Z</time>
      </trkpt>
      <trkpt lat="45.95946" lon="-1.2429">
        <ele>1.2000000476837</ele>
        <time>2021-11-09T08:14:08.000Z</time>
      </trkpt>
      <trkpt lat="45.95946" lon="-1.24308">
        <ele>1.2000000476837</ele>
        <time>2021-11-09T08:14:10.000Z</time>
      </trkpt>
      <trkpt lat="45.95945" lon="-1.24326">
        <ele>0.80000001192093</ele>
        <time>2021-11-09T08:14:12.000Z</time>
      </trkpt>
      <trkpt lat="45.95951" lon="-1.24341">
        <ele>0.80000001192093</ele>
        <time>2021-11-09T08:14:14.000Z</time>
      </trkpt>
      <trkpt lat="45.95956" lon="-1.24346">
        <ele>0.60000002384186</ele>
        <time>2021-11-09T08:14:15.000Z</time>
      </trkpt>
      <trkpt lat="45.95985" lon="-1.24354">
        <ele>0.60000002384186</ele>
        <time>2021-11-09T08:14:20.000Z</time>
      </trkpt>
      <trkpt lat="45.96038" lon="-1.24357">
        <ele>0.80000001192093</ele>
        <time>2021-11-09T08:14:28.000Z</time>
      </trkpt>
      <trkpt lat="45.96058" lon="-1.24357">
        <ele>0.80000001192093</ele>
        <time>2021-11-09T08:14:31.000Z</time>
      </trkpt>
      <trkpt lat="45.96071" lon="-1.24351">
        <ele>1</ele>
        <time>2021-11-09T08:14:33.000Z</time>
      </trkpt>
      <trkpt lat="45.96083" lon="-1.24327">
        <ele>1</ele>
        <time>2021-11-09T08:14:36.000Z</time>
      </trkpt>
      <trkpt lat="45.9609" lon="-1.24314">
        <ele>1</ele>
        <time>2021-11-09T08:14:38.000Z</time>
      </trkpt>
      <trkpt lat="45.96097" lon="-1.24303">
        <ele>1</ele>
        <time>2021-11-09T08:14:40.000Z</time>
      </trkpt>
      <trkpt lat="45.96121" lon="-1.24256">
        <ele>0.80000001192093</ele>
        <time>2021-11-09T08:14:46.000Z</time>
      </trkpt>
      <trkpt lat="45.9615" lon="-1.24196">
        <ele>1.2000000476837</ele>
        <time>2021-11-09T08:14:54.000Z</time>
      </trkpt>
      <trkpt lat="45.96183" lon="-1.24133">
        <ele>1.3999999761581</ele>
        <time>2021-11-09T08:15:02.000Z</time>
      </trkpt>
      <trkpt lat="45.96193" lon="-1.24111">
        <ele>1.3999999761581</ele>
        <time>2021-11-09T08:15:05.000Z</time>
      </trkpt>
      <trkpt lat="45.96197" lon="-1.24104">
        <ele>1.6000000238419</ele>
        <time>2021-11-09T08:15:06.000Z</time>
      </trkpt>
      <trkpt lat="45.96206" lon="-1.24094">
        <ele>1.6000000238419</ele>
        <time>2021-11-09T08:15:08.000Z</time>
      </trkpt>
      <trkpt lat="45.96211" lon="-1.24089">
        <ele>1.7999999523163</ele>
        <time>2021-11-09T08:15:09.000Z</time>
      </trkpt>
      <trkpt lat="45.96227" lon="-1.2407">
        <ele>1.7999999523163</ele>
        <time>2021-11-09T08:15:12.000Z</time>
      </trkpt>
      <trkpt lat="45.96272" lon="-1.24019">
        <ele>1.7999999523163</ele>
        <time>2021-11-09T08:15:20.000Z</time>
      </trkpt>
      <trkpt lat="45.96277" lon="-1.24014">
        <ele>2</ele>
        <time>2021-11-09T08:15:21.000Z</time>
      </trkpt>
      <trkpt lat="45.96301" lon="-1.23997">
        <ele>2.5999999046326</ele>
        <time>2021-11-09T08:15:25.000Z</time>
      </trkpt>
      <trkpt lat="45.96342" lon="-1.23977">
        <ele>3</ele>
        <time>2021-11-09T08:15:31.000Z</time>
      </trkpt>
      <trkpt lat="45.96349" lon="-1.23974">
        <ele>3</ele>
        <time>2021-11-09T08:15:32.000Z</time>
      </trkpt>
      <trkpt lat="45.96375" lon="-1.2396">
        <ele>3.2000000476837</ele>
        <time>2021-11-09T08:15:36.000Z</time>
      </trkpt>
      <trkpt lat="45.9638" lon="-1.23955">
        <ele>3.2000000476837</ele>
        <time>2021-11-09T08:15:37.000Z</time>
      </trkpt>
      <trkpt lat="45.96419" lon="-1.23899">
        <ele>4</ele>
        <time>2021-11-09T08:15:45.000Z</time>
      </trkpt>
      <trkpt lat="45.96424" lon="-1.23892">
        <ele>4</ele>
        <time>2021-11-09T08:15:46.000Z</time>
      </trkpt>
      <trkpt lat="45.96457" lon="-1.23843">
        <ele>4.1999998092651</ele>
        <time>2021-11-09T08:15:53.000Z</time>
      </trkpt>
      <trkpt lat="45.9649" lon="-1.23796">
        <ele>4.5999999046326</ele>
        <time>2021-11-09T08:16:00.000Z</time>
      </trkpt>
      <trkpt lat="45.96495" lon="-1.2379">
        <ele>4.5999999046326</ele>
        <time>2021-11-09T08:16:01.000Z</time>
      </trkpt>
      <trkpt lat="45.96518" lon="-1.2377">
        <ele>4.5999999046326</ele>
        <time>2021-11-09T08:16:05.000Z</time>
      </trkpt>
      <trkpt lat="45.9653" lon="-1.23763">
        <ele>4.5999999046326</ele>
        <time>2021-11-09T08:16:07.000Z</time>
      </trkpt>
      <trkpt lat="45.96557" lon="-1.23756">
        <ele>4.5999999046326</ele>
        <time>2021-11-09T08:16:11.000Z</time>
      </trkpt>
      <trkpt lat="45.96598" lon="-1.23749">
        <ele>4.8000001907349</ele>
        <time>2021-11-09T08:16:18.000Z</time>
      </trkpt>
      <trkpt lat="45.96612" lon="-1.23747">
        <ele>5</ele>
        <time>2021-11-09T08:16:21.000Z</time>
      </trkpt>
      <trkpt lat="45.96618" lon="-1.23747">
        <ele>5</ele>
        <time>2021-11-09T08:16:22.000Z</time>
      </trkpt>
      <trkpt lat="45.96645" lon="-1.23746">
        <ele>5</ele>
        <time>2021-11-09T08:16:27.000Z</time>
      </trkpt>
      <trkpt lat="45.96652" lon="-1.23747">
        <ele>5</ele>
        <time>2021-11-09T08:16:28.000Z</time>
      </trkpt>
      <trkpt lat="45.96684" lon="-1.23752">
        <ele>4.5999999046326</ele>
        <time>2021-11-09T08:16:33.000Z</time>
      </trkpt>
      <trkpt lat="45.96742" lon="-1.23763">
        <ele>4.4000000953674</ele>
        <time>2021-11-09T08:16:42.000Z</time>
      </trkpt>
      <trkpt lat="45.96748" lon="-1.23765">
        <ele>4.4000000953674</ele>
        <time>2021-11-09T08:16:43.000Z</time>
      </trkpt>
      <trkpt lat="45.96757" lon="-1.23772">
        <ele>4.5999999046326</ele>
        <time>2021-11-09T08:16:45.000Z</time>
      </trkpt>
      <trkpt lat="45.96761" lon="-1.23784">
        <ele>4.5999999046326</ele>
        <time>2021-11-09T08:16:47.000Z</time>
      </trkpt>
      <trkpt lat="45.96759" lon="-1.23789">
        <ele>4.4000000953674</ele>
        <time>2021-11-09T08:16:48.000Z</time>
      </trkpt>
      <trkpt lat="45.96756" lon="-1.23794">
        <ele>4.4000000953674</ele>
        <time>2021-11-09T08:16:49.000Z</time>
      </trkpt>
      <trkpt lat="45.96748" lon="-1.23805">
        <ele>4.4000000953674</ele>
        <time>2021-11-09T08:16:51.000Z</time>
      </trkpt>
      <trkpt lat="45.96724" lon="-1.2386">
        <ele>3.4000000953674</ele>
        <time>2021-11-09T08:16:59.000Z</time>
      </trkpt>
      <trkpt lat="45.9672" lon="-1.2387">
        <ele>3</ele>
        <time>2021-11-09T08:17:02.000Z</time>
      </trkpt>
      <trkpt lat="45.9672" lon="-1.2387">
        <ele>3</ele>
        <time>2021-11-09T08:17:03.000Z</time>
      </trkpt>
      <trkpt lat="45.9672" lon="-1.2387">
        <ele>3</ele>
        <time>2021-11-09T08:17:04.000Z</time>
      </trkpt>
      <trkpt lat="45.96717" lon="-1.23883">
        <ele>1.7999999523163</ele>
        <time>2021-11-09T08:19:36.000Z</time>
      </trkpt>
      <trkpt lat="45.96714" lon="-1.23892">
        <ele>1.7999999523163</ele>
        <time>2021-11-09T08:19:38.000Z</time>
      </trkpt>
      <trkpt lat="45.96709" lon="-1.23904">
        <ele>1.7999999523163</ele>
        <time>2021-11-09T08:19:40.000Z</time>
      </trkpt>
      <trkpt lat="45.96702" lon="-1.23917">
        <ele>1.6000000238419</ele>
        <time>2021-11-09T08:19:42.000Z</time>
      </trkpt>
      <trkpt lat="45.96694" lon="-1.23933">
        <ele>1.6000000238419</ele>
        <time>2021-11-09T08:19:44.000Z</time>
      </trkpt>
      <trkpt lat="45.96686" lon="-1.23948">
        <ele>1.6000000238419</ele>
        <time>2021-11-09T08:19:46.000Z</time>
      </trkpt>
      <trkpt lat="45.96656" lon="-1.23994">
        <ele>1.2000000476837</ele>
        <time>2021-11-09T08:19:52.000Z</time>
      </trkpt>
      <trkpt lat="45.96618" lon="-1.24056">
        <ele>1.6000000238419</ele>
        <time>2021-11-09T08:20:00.000Z</time>
      </trkpt>
      <trkpt lat="45.96607" lon="-1.24074">
        <ele>1.6000000238419</ele>
        <time>2021-11-09T08:20:02.000Z</time>
      </trkpt>
      <trkpt lat="45.96569" lon="-1.2414">
        <ele>2.2000000476837</ele>
        <time>2021-11-09T08:20:10.000Z</time>
      </trkpt>
      <trkpt lat="45.96554" lon="-1.24168">
        <ele>2.4000000953674</ele>
        <time>2021-11-09T08:20:13.000Z</time>
      </trkpt>
      <trkpt lat="45.96521" lon="-1.24226">
        <ele>3</ele>
        <time>2021-11-09T08:20:20.000Z</time>
      </trkpt>
      <trkpt lat="45.96505" lon="-1.24254">
        <ele>3</ele>
        <time>2021-11-09T08:20:23.000Z</time>
      </trkpt>
      <trkpt lat="45.96467" lon="-1.2432">
        <ele>3.5999999046326</ele>
        <time>2021-11-09T08:20:31.000Z</time>
      </trkpt>
      <trkpt lat="45.96443" lon="-1.24358">
        <ele>3.5999999046326</ele>
        <time>2021-11-09T08:20:36.000Z</time>
      </trkpt>
      <trkpt lat="45.96413" lon="-1.24402">
        <ele>3.5999999046326</ele>
        <time>2021-11-09T08:20:42.000Z</time>
      </trkpt>
      <trkpt lat="45.96413" lon="-1.24418">
        <ele>3.5999999046326</ele>
        <time>2021-11-09T08:20:44.000Z</time>
      </trkpt>
      <trkpt lat="45.96416" lon="-1.24423">
        <ele>3.5999999046326</ele>
        <time>2021-11-09T08:20:45.000Z</time>
      </trkpt>
      <trkpt lat="45.96428" lon="-1.24435">
        <ele>3.7999999523163</ele>
        <time>2021-11-09T08:20:47.000Z</time>
      </trkpt>
      <trkpt lat="45.96453" lon="-1.24464">
        <ele>3.7999999523163</ele>
        <time>2021-11-09T08:20:52.000Z</time>
      </trkpt>
      <trkpt lat="45.96459" lon="-1.24465">
        <ele>3.7999999523163</ele>
        <time>2021-11-09T08:20:53.000Z</time>
      </trkpt>
      <trkpt lat="45.96462" lon="-1.24461">
        <ele>3.7999999523163</ele>
        <time>2021-11-09T08:20:54.000Z</time>
      </trkpt>
      <trkpt lat="45.96467" lon="-1.24453">
        <ele>3.5999999046326</ele>
        <time>2021-11-09T08:20:55.000Z</time>
      </trkpt>
      <trkpt lat="45.96497" lon="-1.24396">
        <ele>3</ele>
        <time>2021-11-09T08:21:02.000Z</time>
      </trkpt>
      <trkpt lat="45.96534" lon="-1.24332">
        <ele>2.5999999046326</ele>
        <time>2021-11-09T08:21:10.000Z</time>
      </trkpt>
      <trkpt lat="45.96538" lon="-1.24324">
        <ele>2.5999999046326</ele>
        <time>2021-11-09T08:21:11.000Z</time>
      </trkpt>
      <trkpt lat="45.96573" lon="-1.24258">
        <ele>2</ele>
        <time>2021-11-09T08:21:19.000Z</time>
      </trkpt>
      <trkpt lat="45.96582" lon="-1.24243">
        <ele>2</ele>
        <time>2021-11-09T08:21:21.000Z</time>
      </trkpt>
      <trkpt lat="45.96587" lon="-1.24235">
        <ele>1.7999999523163</ele>
        <time>2021-11-09T08:21:22.000Z</time>
      </trkpt>
      <trkpt lat="45.96599" lon="-1.24215">
        <ele>1.7999999523163</ele>
        <time>2021-11-09T08:21:25.000Z</time>
      </trkpt>
      <trkpt lat="45.9661" lon="-1.24207">
        <ele>1.6000000238419</ele>
        <time>2021-11-09T08:21:27.000Z</time>
      </trkpt>
      <trkpt lat="45.96625" lon="-1.24207">
        <ele>1.6000000238419</ele>
        <time>2021-11-09T08:21:30.000Z</time>
      </trkpt>
      <trkpt lat="45.96629" lon="-1.24205">
        <ele>1.6000000238419</ele>
        <time>2021-11-09T08:21:31.000Z</time>
      </trkpt>
      <trkpt lat="45.96633" lon="-1.24201">
        <ele>1.6000000238419</ele>
        <time>2021-11-09T08:21:32.000Z</time>
      </trkpt>
      <trkpt lat="45.9664" lon="-1.2419">
        <ele>1.3999999761581</ele>
        <time>2021-11-09T08:21:34.000Z</time>
      </trkpt>
      <trkpt lat="45.96643" lon="-1.24183">
        <ele>1.3999999761581</ele>
        <time>2021-11-09T08:21:35.000Z</time>
      </trkpt>
      <trkpt lat="45.96655" lon="-1.24164">
        <ele>1.2000000476837</ele>
        <time>2021-11-09T08:21:38.000Z</time>
      </trkpt>
      <trkpt lat="45.96664" lon="-1.2416">
        <ele>1</ele>
        <time>2021-11-09T08:21:40.000Z</time>
      </trkpt>
      <trkpt lat="45.96669" lon="-1.24165">
        <ele>0.80000001192093</ele>
        <time>2021-11-09T08:21:41.000Z</time>
      </trkpt>
      <trkpt lat="45.96687" lon="-1.24188">
        <ele>0.60000002384186</ele>
        <time>2021-11-09T08:21:45.000Z</time>
      </trkpt>
      <trkpt lat="45.96702" lon="-1.24206">
        <ele>0.40000000596046</ele>
        <time>2021-11-09T08:21:50.000Z</time>
      </trkpt>
      <trkpt lat="45.96702" lon="-1.24207">
        <ele>0.40000000596046</ele>
        <time>2021-11-09T08:21:51.000Z</time>
      </trkpt>
      <trkpt lat="45.96701" lon="-1.24205">
        <ele>1.2000000476837</ele>
        <time>2021-11-09T08:22:43.000Z</time>
      </trkpt>
      <trkpt lat="45.96701" lon="-1.24205">
        <ele>1.2000000476837</ele>
        <time>2021-11-09T08:22:44.000Z</time>
      </trkpt>
      <trkpt lat="45.96705" lon="-1.24208">
        <ele>1</ele>
        <time>2021-11-09T08:22:47.000Z</time>
      </trkpt>
      <trkpt lat="45.96715" lon="-1.24212">
        <ele>0.60000002384186</ele>
        <time>2021-11-09T08:22:50.000Z</time>
      </trkpt>
      <trkpt lat="45.96722" lon="-1.24205">
        <ele>0.40000000596046</ele>
        <time>2021-11-09T08:22:52.000Z</time>
      </trkpt>
      <trkpt lat="45.96725" lon="-1.24201">
        <ele>0.20000000298023</ele>
        <time>2021-11-09T08:22:53.000Z</time>
      </trkpt>
      <trkpt lat="45.96741" lon="-1.24172">
        <ele>-0.60000002384186</ele>
        <time>2021-11-09T08:22:57.000Z</time>
      </trkpt>
      <trkpt lat="45.96744" lon="-1.24167">
        <ele>-0.60000002384186</ele>
        <time>2021-11-09T08:22:58.000Z</time>
      </trkpt>
      <trkpt lat="45.96759" lon="-1.24145">
        <ele>-0.80000001192093</ele>
        <time>2021-11-09T08:23:01.000Z</time>
      </trkpt>
      <trkpt lat="45.96769" lon="-1.24133">
        <ele>-0.80000001192093</ele>
        <time>2021-11-09T08:23:03.000Z</time>
      </trkpt>
      <trkpt lat="45.96799" lon="-1.24084">
        <ele>-1</ele>
        <time>2021-11-09T08:23:10.000Z</time>
      </trkpt>
      <trkpt lat="45.96819" lon="-1.24044">
        <ele>-1.3999999761581</ele>
        <time>2021-11-09T08:23:16.000Z</time>
      </trkpt>
      <trkpt lat="45.96819" lon="-1.24038">
        <ele>-1.3999999761581</ele>
        <time>2021-11-09T08:23:17.000Z</time>
      </trkpt>
      <trkpt lat="45.96817" lon="-1.24032">
        <ele>-1.3999999761581</ele>
        <time>2021-11-09T08:23:18.000Z</time>
      </trkpt>
      <trkpt lat="45.96808" lon="-1.24009">
        <ele>-1.3999999761581</ele>
        <time>2021-11-09T08:23:21.000Z</time>
      </trkpt>
      <trkpt lat="45.96798" lon="-1.23984">
        <ele>-1.3999999761581</ele>
        <time>2021-11-09T08:23:24.000Z</time>
      </trkpt>
      <trkpt lat="45.96794" lon="-1.23965">
        <ele>-1.3999999761581</ele>
        <time>2021-11-09T08:23:26.000Z</time>
      </trkpt>
      <trkpt lat="45.96793" lon="-1.23956">
        <ele>-1.2000000476837</ele>
        <time>2021-11-09T08:23:27.000Z</time>
      </trkpt>
      <trkpt lat="45.96792" lon="-1.23917">
        <ele>-1.2000000476837</ele>
        <time>2021-11-09T08:23:31.000Z</time>
      </trkpt>
      <trkpt lat="45.96796" lon="-1.2388">
        <ele>-1</ele>
        <time>2021-11-09T08:23:35.000Z</time>
      </trkpt>
      <trkpt lat="45.96801" lon="-1.23863">
        <ele>-1</ele>
        <time>2021-11-09T08:23:37.000Z</time>
      </trkpt>
      <trkpt lat="45.96804" lon="-1.23854">
        <ele>-0.80000001192093</ele>
        <time>2021-11-09T08:23:38.000Z</time>
      </trkpt>
      <trkpt lat="45.96815" lon="-1.23832">
        <ele>-0.60000002384186</ele>
        <time>2021-11-09T08:23:41.000Z</time>
      </trkpt>
      <trkpt lat="45.96823" lon="-1.23818">
        <ele>-0.60000002384186</ele>
        <time>2021-11-09T08:23:43.000Z</time>
      </trkpt>
      <trkpt lat="45.96832" lon="-1.2381">
        <ele>-0.40000000596046</ele>
        <time>2021-11-09T08:23:45.000Z</time>
      </trkpt>
      <trkpt lat="45.96842" lon="-1.23815">
        <ele>-0.40000000596046</ele>
        <time>2021-11-09T08:23:47.000Z</time>
      </trkpt>
      <trkpt lat="45.96853" lon="-1.23825">
        <ele>-0.40000000596046</ele>
        <time>2021-11-09T08:23:49.000Z</time>
      </trkpt>
      <trkpt lat="45.96866" lon="-1.23831">
        <ele>-0.60000002384186</ele>
        <time>2021-11-09T08:23:51.000Z</time>
      </trkpt>
      <trkpt lat="45.96872" lon="-1.23833">
        <ele>-0.40000000596046</ele>
        <time>2021-11-09T08:23:52.000Z</time>
      </trkpt>
      <trkpt lat="45.96891" lon="-1.23834">
        <ele>-0.40000000596046</ele>
        <time>2021-11-09T08:23:55.000Z</time>
      </trkpt>
      <trkpt lat="45.96902" lon="-1.23828">
        <ele>-0.40000000596046</ele>
        <time>2021-11-09T08:23:57.000Z</time>
      </trkpt>
      <trkpt lat="45.96912" lon="-1.23818">
        <ele>-0.60000002384186</ele>
        <time>2021-11-09T08:23:59.000Z</time>
      </trkpt>
      <trkpt lat="45.96918" lon="-1.23816">
        <ele>-0.60000002384186</ele>
        <time>2021-11-09T08:24:00.000Z</time>
      </trkpt>
      <trkpt lat="45.96924" lon="-1.23818">
        <ele>-0.60000002384186</ele>
        <time>2021-11-09T08:24:01.000Z</time>
      </trkpt>
      <trkpt lat="45.96936" lon="-1.23828">
        <ele>-0.60000002384186</ele>
        <time>2021-11-09T08:24:03.000Z</time>
      </trkpt>
      <trkpt lat="45.96981" lon="-1.23869">
        <ele>-0.60000002384186</ele>
        <time>2021-11-09T08:24:10.000Z</time>
      </trkpt>
      <trkpt lat="45.97031" lon="-1.23915">
        <ele>3.1</ele>
        <time>2021-11-09T08:24:18.000Z</time>
      </trkpt>
      <trkpt lat="45.97061" lon="-1.23945">
        <ele>0.60000002384186</ele>
        <time>2021-11-09T08:24:23.000Z</time>
      </trkpt>
      <trkpt lat="45.97067" lon="-1.2395">
        <ele>0.80000001192093</ele>
        <time>2021-11-09T08:24:24.000Z</time>
      </trkpt>
      <trkpt lat="45.97073" lon="-1.23954">
        <ele>0.80000001192093</ele>
        <time>2021-11-09T08:24:25.000Z</time>
      </trkpt>
      <trkpt lat="45.97079" lon="-1.23955">
        <ele>0.80000001192093</ele>
        <time>2021-11-09T08:24:26.000Z</time>
      </trkpt>
      <trkpt lat="45.97093" lon="-1.2395">
        <ele>1</ele>
        <time>2021-11-09T08:24:28.000Z</time>
      </trkpt>
      <trkpt lat="45.97103" lon="-1.23936">
        <ele>1</ele>
        <time>2021-11-09T08:24:30.000Z</time>
      </trkpt>
      <trkpt lat="45.97107" lon="-1.23927">
        <ele>1</ele>
        <time>2021-11-09T08:24:31.000Z</time>
      </trkpt>
      <trkpt lat="45.9711" lon="-1.23918">
        <ele>1.2000000476837</ele>
        <time>2021-11-09T08:24:32.000Z</time>
      </trkpt>
      <trkpt lat="45.97116" lon="-1.239">
        <ele>1.7999999523163</ele>
        <time>2021-11-09T08:24:34.000Z</time>
      </trkpt>
      <trkpt lat="45.97124" lon="-1.23871">
        <ele>2.4000000953674</ele>
        <time>2021-11-09T08:24:37.000Z</time>
      </trkpt>
      <trkpt lat="45.97131" lon="-1.23844">
        <ele>2.7999999523163</ele>
        <time>2021-11-09T08:24:40.000Z</time>
      </trkpt>
      <trkpt lat="45.97145" lon="-1.23802">
        <ele>3.2000000476837</ele>
        <time>2021-11-09T08:24:45.000Z</time>
      </trkpt>
      <trkpt lat="45.97149" lon="-1.23795">
        <ele>3.4000000953674</ele>
        <time>2021-11-09T08:24:46.000Z</time>
      </trkpt>
      <trkpt lat="45.97158" lon="-1.23783">
        <ele>3.5999999046326</ele>
        <time>2021-11-09T08:24:48.000Z</time>
      </trkpt>
      <trkpt lat="45.97164" lon="-1.23781">
        <ele>3.7999999523163</ele>
        <time>2021-11-09T08:24:49.000Z</time>
      </trkpt>
      <trkpt lat="45.97169" lon="-1.2378">
        <ele>4.1999998092651</ele>
        <time>2021-11-09T08:24:50.000Z</time>
      </trkpt>
      <trkpt lat="45.97174" lon="-1.23783">
        <ele>4.5999999046326</ele>
        <time>2021-11-09T08:24:51.000Z</time>
      </trkpt>
      <trkpt lat="45.97188" lon="-1.23795">
        <ele>4.8000001907349</ele>
        <time>2021-11-09T08:24:54.000Z</time>
      </trkpt>
      <trkpt lat="45.97192" lon="-1.23798">
        <ele>5</ele>
        <time>2021-11-09T08:24:55.000Z</time>
      </trkpt>
      <trkpt lat="45.97195" lon="-1.23804">
        <ele>5</ele>
        <time>2021-11-09T08:24:56.000Z</time>
      </trkpt>
      <trkpt lat="45.97202" lon="-1.23817">
        <ele>5.1999998092651</ele>
        <time>2021-11-09T08:24:58.000Z</time>
      </trkpt>
      <trkpt lat="45.97206" lon="-1.23823">
        <ele>5.1999998092651</ele>
        <time>2021-11-09T08:24:59.000Z</time>
      </trkpt>
      <trkpt lat="45.97209" lon="-1.23829">
        <ele>5.4000000953674</ele>
        <time>2021-11-09T08:25:00.000Z</time>
      </trkpt>
      <trkpt lat="45.97221" lon="-1.23851">
        <ele>5.5999999046326</ele>
        <time>2021-11-09T08:25:03.000Z</time>
      </trkpt>
      <trkpt lat="45.97225" lon="-1.23859">
        <ele>5.8000001907349</ele>
        <time>2021-11-09T08:25:04.000Z</time>
      </trkpt>
      <trkpt lat="45.97231" lon="-1.23876">
        <ele>6</ele>
        <time>2021-11-09T08:25:06.000Z</time>
      </trkpt>
      <trkpt lat="45.97235" lon="-1.23883">
        <ele>6.1999998092651</ele>
        <time>2021-11-09T08:25:07.000Z</time>
      </trkpt>
      <trkpt lat="45.97246" lon="-1.23895">
        <ele>6.4000000953674</ele>
        <time>2021-11-09T08:25:09.000Z</time>
      </trkpt>
      <trkpt lat="45.97252" lon="-1.239">
        <ele>6.4000000953674</ele>
        <time>2021-11-09T08:25:10.000Z</time>
      </trkpt>
      <trkpt lat="45.97258" lon="-1.23907">
        <ele>6.5999999046326</ele>
        <time>2021-11-09T08:25:11.000Z</time>
      </trkpt>
      <trkpt lat="45.97274" lon="-1.23928">
        <ele>6.8000001907349</ele>
        <time>2021-11-09T08:25:14.000Z</time>
      </trkpt>
      <trkpt lat="45.97285" lon="-1.23943">
        <ele>7.1999998092651</ele>
        <time>2021-11-09T08:25:16.000Z</time>
      </trkpt>
      <trkpt lat="45.97306" lon="-1.23967">
        <ele>7.4000000953674</ele>
        <time>2021-11-09T08:25:20.000Z</time>
      </trkpt>
      <trkpt lat="45.97327" lon="-1.2399">
        <ele>8.6000003814697</ele>
        <time>2021-11-09T08:25:24.000Z</time>
      </trkpt>
      <trkpt lat="45.97349" lon="-1.24013">
        <ele>9.1999998092651</ele>
        <time>2021-11-09T08:25:28.000Z</time>
      </trkpt>
      <trkpt lat="45.97366" lon="-1.24029">
        <ele>9.1999998092651</ele>
        <time>2021-11-09T08:25:31.000Z</time>
      </trkpt>
      <trkpt lat="45.97371" lon="-1.2403">
        <ele>9.1999998092651</ele>
        <time>2021-11-09T08:25:32.000Z</time>
      </trkpt>
      <trkpt lat="45.97377" lon="-1.2403">
        <ele>9.1999998092651</ele>
        <time>2021-11-09T08:25:33.000Z</time>
      </trkpt>
      <trkpt lat="45.97387" lon="-1.24022">
        <ele>9.1999998092651</ele>
        <time>2021-11-09T08:25:35.000Z</time>
      </trkpt>
      <trkpt lat="45.974" lon="-1.24009">
        <ele>9.3999996185303</ele>
        <time>2021-11-09T08:25:38.000Z</time>
      </trkpt>
      <trkpt lat="45.97405" lon="-1.24008">
        <ele>9.3999996185303</ele>
        <time>2021-11-09T08:25:39.000Z</time>
      </trkpt>
      <trkpt lat="45.9741" lon="-1.24009">
        <ele>9.3999996185303</ele>
        <time>2021-11-09T08:25:40.000Z</time>
      </trkpt>
      <trkpt lat="45.97424" lon="-1.24014">
        <ele>9.3999996185303</ele>
        <time>2021-11-09T08:25:43.000Z</time>
      </trkpt>
      <trkpt lat="45.97441" lon="-1.24031">
        <ele>9.6000003814697</ele>
        <time>2021-11-09T08:25:47.000Z</time>
      </trkpt>
      <trkpt lat="45.97445" lon="-1.24033">
        <ele>9.6000003814697</ele>
        <time>2021-11-09T08:25:48.000Z</time>
      </trkpt>
      <trkpt lat="45.97449" lon="-1.24033">
        <ele>9.6000003814697</ele>
        <time>2021-11-09T08:25:49.000Z</time>
      </trkpt>
      <trkpt lat="45.97464" lon="-1.2403">
        <ele>9.6000003814697</ele>
        <time>2021-11-09T08:25:52.000Z</time>
      </trkpt>
      <trkpt lat="45.97475" lon="-1.24027">
        <ele>9.8000001907349</ele>
        <time>2021-11-09T08:25:54.000Z</time>
      </trkpt>
      <trkpt lat="45.97486" lon="-1.24029">
        <ele>10</ele>
        <time>2021-11-09T08:25:56.000Z</time>
      </trkpt>
      <trkpt lat="45.97502" lon="-1.24038">
        <ele>10.60000038147</ele>
        <time>2021-11-09T08:25:59.000Z</time>
      </trkpt>
      <trkpt lat="45.97513" lon="-1.24044">
        <ele>10.800000190735</ele>
        <time>2021-11-09T08:26:01.000Z</time>
      </trkpt>
      <trkpt lat="45.97519" lon="-1.24046">
        <ele>10.800000190735</ele>
        <time>2021-11-09T08:26:02.000Z</time>
      </trkpt>
      <trkpt lat="45.97535" lon="-1.24051">
        <ele>11</ele>
        <time>2021-11-09T08:26:05.000Z</time>
      </trkpt>
      <trkpt lat="45.9754" lon="-1.24051">
        <ele>11</ele>
        <time>2021-11-09T08:26:06.000Z</time>
      </trkpt>
      <trkpt lat="45.97552" lon="-1.24051">
        <ele>11.199999809265</ele>
        <time>2021-11-09T08:26:08.000Z</time>
      </trkpt>
      <trkpt lat="45.97571" lon="-1.24051">
        <ele>11.39999961853</ele>
        <time>2021-11-09T08:26:11.000Z</time>
      </trkpt>
      <trkpt lat="45.97576" lon="-1.24051">
        <ele>11.39999961853</ele>
        <time>2021-11-09T08:26:12.000Z</time>
      </trkpt>
      <trkpt lat="45.97587" lon="-1.24054">
        <ele>11.39999961853</ele>
        <time>2021-11-09T08:26:14.000Z</time>
      </trkpt>
      <trkpt lat="45.97604" lon="-1.24051">
        <ele>11.39999961853</ele>
        <time>2021-11-09T08:26:17.000Z</time>
      </trkpt>
      <trkpt lat="45.97612" lon="-1.24052">
        <ele>11.39999961853</ele>
        <time>2021-11-09T08:26:18.000Z</time>
      </trkpt>
      <trkpt lat="45.97619" lon="-1.24055">
        <ele>11.39999961853</ele>
        <time>2021-11-09T08:26:19.000Z</time>
      </trkpt>
      <trkpt lat="45.9763" lon="-1.24057">
        <ele>11.39999961853</ele>
        <time>2021-11-09T08:26:21.000Z</time>
      </trkpt>
      <trkpt lat="45.97635" lon="-1.24055">
        <ele>11.39999961853</ele>
        <time>2021-11-09T08:26:22.000Z</time>
      </trkpt>
      <trkpt lat="45.97641" lon="-1.24051">
        <ele>11.39999961853</ele>
        <time>2021-11-09T08:26:24.000Z</time>
      </trkpt>
      <trkpt lat="45.97645" lon="-1.2405">
        <ele>11.39999961853</ele>
        <time>2021-11-09T08:26:25.000Z</time>
      </trkpt>
      <trkpt lat="45.97655" lon="-1.2404">
        <ele>11.60000038147</ele>
        <time>2021-11-09T08:26:28.000Z</time>
      </trkpt>
      <trkpt lat="45.97656" lon="-1.24035">
        <ele>11.39999961853</ele>
        <time>2021-11-09T08:26:29.000Z</time>
      </trkpt>
      <trkpt lat="45.9766" lon="-1.24012">
        <ele>11.39999961853</ele>
        <time>2021-11-09T08:26:32.000Z</time>
      </trkpt>
      <trkpt lat="45.97665" lon="-1.23991">
        <ele>11</ele>
        <time>2021-11-09T08:26:35.000Z</time>
      </trkpt>
      <trkpt lat="45.97669" lon="-1.23971">
        <ele>10.800000190735</ele>
        <time>2021-11-09T08:26:37.000Z</time>
      </trkpt>
      <trkpt lat="45.97676" lon="-1.2394">
        <ele>10.60000038147</ele>
        <time>2021-11-09T08:26:41.000Z</time>
      </trkpt>
      <trkpt lat="45.97678" lon="-1.23932">
        <ele>10.60000038147</ele>
        <time>2021-11-09T08:26:42.000Z</time>
      </trkpt>
      <trkpt lat="45.97678" lon="-1.23925">
        <ele>10.39999961853</ele>
        <time>2021-11-09T08:26:43.000Z</time>
      </trkpt>
      <trkpt lat="45.97679" lon="-1.23907">
        <ele>9.8000001907349</ele>
        <time>2021-11-09T08:26:45.000Z</time>
      </trkpt>
      <trkpt lat="45.9768" lon="-1.23897">
        <ele>9.3999996185303</ele>
        <time>2021-11-09T08:26:46.000Z</time>
      </trkpt>
      <trkpt lat="45.97681" lon="-1.23882">
        <ele>9</ele>
        <time>2021-11-09T08:26:48.000Z</time>
      </trkpt>
      <trkpt lat="45.9768" lon="-1.23869">
        <ele>8.6000003814697</ele>
        <time>2021-11-09T08:26:50.000Z</time>
      </trkpt>
      <trkpt lat="45.9768" lon="-1.23856">
        <ele>8.3999996185303</ele>
        <time>2021-11-09T08:26:52.000Z</time>
      </trkpt>
      <trkpt lat="45.97682" lon="-1.23851">
        <ele>8.1999998092651</ele>
        <time>2021-11-09T08:26:53.000Z</time>
      </trkpt>
      <trkpt lat="45.97685" lon="-1.23848">
        <ele>8.1999998092651</ele>
        <time>2021-11-09T08:26:54.000Z</time>
      </trkpt>
      <trkpt lat="45.97689" lon="-1.23845">
        <ele>8</ele>
        <time>2021-11-09T08:26:55.000Z</time>
      </trkpt>
      <trkpt lat="45.97701" lon="-1.23842">
        <ele>7.8000001907349</ele>
        <time>2021-11-09T08:26:58.000Z</time>
      </trkpt>
      <trkpt lat="45.97707" lon="-1.23842">
        <ele>7.8000001907349</ele>
        <time>2021-11-09T08:26:59.000Z</time>
      </trkpt>
      <trkpt lat="45.97719" lon="-1.23841">
        <ele>7.4000000953674</ele>
        <time>2021-11-09T08:27:01.000Z</time>
      </trkpt>
      <trkpt lat="45.97725" lon="-1.23839">
        <ele>7.1999998092651</ele>
        <time>2021-11-09T08:27:02.000Z</time>
      </trkpt>
      <trkpt lat="45.97743" lon="-1.23833">
        <ele>6.8000001907349</ele>
        <time>2021-11-09T08:27:05.000Z</time>
      </trkpt>
      <trkpt lat="45.97762" lon="-1.23827">
        <ele>6.5999999046326</ele>
        <time>2021-11-09T08:27:08.000Z</time>
      </trkpt>
      <trkpt lat="45.97773" lon="-1.23823">
        <ele>6.4000000953674</ele>
        <time>2021-11-09T08:27:10.000Z</time>
      </trkpt>
      <trkpt lat="45.97778" lon="-1.23822">
        <ele>6.4000000953674</ele>
        <time>2021-11-09T08:27:11.000Z</time>
      </trkpt>
      <trkpt lat="45.97791" lon="-1.23818">
        <ele>6</ele>
        <time>2021-11-09T08:27:13.000Z</time>
      </trkpt>
      <trkpt lat="45.97797" lon="-1.23816">
        <ele>6</ele>
        <time>2021-11-09T08:27:14.000Z</time>
      </trkpt>
      <trkpt lat="45.97821" lon="-1.23811">
        <ele>5.1999998092651</ele>
        <time>2021-11-09T08:27:18.000Z</time>
      </trkpt>
      <trkpt lat="45.97835" lon="-1.23803">
        <ele>5.1999998092651</ele>
        <time>2021-11-09T08:27:20.000Z</time>
      </trkpt>
      <trkpt lat="45.97865" lon="-1.23788">
        <ele>4.8000001907349</ele>
        <time>2021-11-09T08:27:25.000Z</time>
      </trkpt>
      <trkpt lat="45.97877" lon="-1.23784">
        <ele>4</ele>
        <time>2021-11-09T08:27:27.000Z</time>
      </trkpt>
      <trkpt lat="45.97883" lon="-1.23781">
        <ele>4</ele>
        <time>2021-11-09T08:27:28.000Z</time>
      </trkpt>
      <trkpt lat="45.979" lon="-1.23775">
        <ele>3.7999999523163</ele>
        <time>2021-11-09T08:27:31.000Z</time>
      </trkpt>
      <trkpt lat="45.97907" lon="-1.23775">
        <ele>3.7999999523163</ele>
        <time>2021-11-09T08:27:32.000Z</time>
      </trkpt>
      <trkpt lat="45.97923" lon="-1.23769">
        <ele>3.5999999046326</ele>
        <time>2021-11-09T08:27:35.000Z</time>
      </trkpt>
      <trkpt lat="45.97968" lon="-1.23759">
        <ele>3.2000000476837</ele>
        <time>2021-11-09T08:27:42.000Z</time>
      </trkpt>
      <trkpt lat="45.97974" lon="-1.23758">
        <ele>2.7999999523163</ele>
        <time>2021-11-09T08:27:43.000Z</time>
      </trkpt>
      <trkpt lat="45.97998" lon="-1.2375">
        <ele>2.7999999523163</ele>
        <time>2021-11-09T08:27:47.000Z</time>
      </trkpt>
      <trkpt lat="45.9803" lon="-1.23747">
        <ele>2.7999999523163</ele>
        <time>2021-11-09T08:27:53.000Z</time>
      </trkpt>
      <trkpt lat="45.98056" lon="-1.23748">
        <ele>2.7999999523163</ele>
        <time>2021-11-09T08:27:57.000Z</time>
      </trkpt>
      <trkpt lat="45.98067" lon="-1.23754">
        <ele>2.7999999523163</ele>
        <time>2021-11-09T08:27:59.000Z</time>
      </trkpt>
      <trkpt lat="45.98078" lon="-1.23753">
        <ele>2.7999999523163</ele>
        <time>2021-11-09T08:28:01.000Z</time>
      </trkpt>
      <trkpt lat="45.98089" lon="-1.23751">
        <ele>3</ele>
        <time>2021-11-09T08:28:03.000Z</time>
      </trkpt>
      <trkpt lat="45.98102" lon="-1.23751">
        <ele>3</ele>
        <time>2021-11-09T08:28:05.000Z</time>
      </trkpt>
      <trkpt lat="45.98118" lon="-1.23754">
        <ele>2.7999999523163</ele>
        <time>2021-11-09T08:28:08.000Z</time>
      </trkpt>
      <trkpt lat="45.9816" lon="-1.23757">
        <ele>2.5999999046326</ele>
        <time>2021-11-09T08:28:15.000Z</time>
      </trkpt>
      <trkpt lat="45.98195" lon="-1.23765">
        <ele>2.7999999523163</ele>
        <time>2021-11-09T08:28:21.000Z</time>
      </trkpt>
      <trkpt lat="45.98205" lon="-1.23769">
        <ele>2.7999999523163</ele>
        <time>2021-11-09T08:28:23.000Z</time>
      </trkpt>
      <trkpt lat="45.98215" lon="-1.23772">
        <ele>2.7999999523163</ele>
        <time>2021-11-09T08:28:25.000Z</time>
      </trkpt>
      <trkpt lat="45.98231" lon="-1.23776">
        <ele>2.7999999523163</ele>
        <time>2021-11-09T08:28:28.000Z</time>
      </trkpt>
      <trkpt lat="45.98237" lon="-1.23778">
        <ele>2.7999999523163</ele>
        <time>2021-11-09T08:28:29.000Z</time>
      </trkpt>
      <trkpt lat="45.98254" lon="-1.23781">
        <ele>2.7999999523163</ele>
        <time>2021-11-09T08:28:32.000Z</time>
      </trkpt>
      <trkpt lat="45.9826" lon="-1.23781">
        <ele>2.7999999523163</ele>
        <time>2021-11-09T08:28:33.000Z</time>
      </trkpt>
      <trkpt lat="45.9827" lon="-1.23779">
        <ele>2.7999999523163</ele>
        <time>2021-11-09T08:28:36.000Z</time>
      </trkpt>
      <trkpt lat="45.983" lon="-1.23797">
        <ele>3</ele>
        <time>2021-11-09T08:28:43.000Z</time>
      </trkpt>
      <trkpt lat="45.9833" lon="-1.23815">
        <ele>3</ele>
        <time>2021-11-09T08:28:48.000Z</time>
      </trkpt>
      <trkpt lat="45.98337" lon="-1.23819">
        <ele>3</ele>
        <time>2021-11-09T08:28:49.000Z</time>
      </trkpt>
      <trkpt lat="45.98354" lon="-1.23831">
        <ele>3</ele>
        <time>2021-11-09T08:28:52.000Z</time>
      </trkpt>
      <trkpt lat="45.98358" lon="-1.23836">
        <ele>2.7999999523163</ele>
        <time>2021-11-09T08:28:53.000Z</time>
      </trkpt>
      <trkpt lat="45.98362" lon="-1.23841">
        <ele>2.7999999523163</ele>
        <time>2021-11-09T08:28:54.000Z</time>
      </trkpt>
      <trkpt lat="45.98369" lon="-1.23851">
        <ele>2.7999999523163</ele>
        <time>2021-11-09T08:28:56.000Z</time>
      </trkpt>
      <trkpt lat="45.98375" lon="-1.23855">
        <ele>3</ele>
        <time>2021-11-09T08:28:57.000Z</time>
      </trkpt>
      <trkpt lat="45.98384" lon="-1.23863">
        <ele>3</ele>
        <time>2021-11-09T08:28:59.000Z</time>
      </trkpt>
      <trkpt lat="45.98398" lon="-1.23876">
        <ele>3</ele>
        <time>2021-11-09T08:29:02.000Z</time>
      </trkpt>
      <trkpt lat="45.98412" lon="-1.2389">
        <ele>3</ele>
        <time>2021-11-09T08:29:05.000Z</time>
      </trkpt>
      <trkpt lat="45.98422" lon="-1.23899">
        <ele>3.2000000476837</ele>
        <time>2021-11-09T08:29:07.000Z</time>
      </trkpt>
      <trkpt lat="45.98426" lon="-1.23903">
        <ele>3.2000000476837</ele>
        <time>2021-11-09T08:29:08.000Z</time>
      </trkpt>
      <trkpt lat="45.98436" lon="-1.23911">
        <ele>3.2000000476837</ele>
        <time>2021-11-09T08:29:10.000Z</time>
      </trkpt>
      <trkpt lat="45.98453" lon="-1.23922">
        <ele>3.2000000476837</ele>
        <time>2021-11-09T08:29:13.000Z</time>
      </trkpt>
      <trkpt lat="45.98469" lon="-1.23937">
        <ele>3.2000000476837</ele>
        <time>2021-11-09T08:29:16.000Z</time>
      </trkpt>
      <trkpt lat="45.98476" lon="-1.23945">
        <ele>3.4000000953674</ele>
        <time>2021-11-09T08:29:18.000Z</time>
      </trkpt>
      <trkpt lat="45.98481" lon="-1.23953">
        <ele>3.4000000953674</ele>
        <time>2021-11-09T08:29:19.000Z</time>
      </trkpt>
      <trkpt lat="45.98494" lon="-1.2397">
        <ele>3.5999999046326</ele>
        <time>2021-11-09T08:29:22.000Z</time>
      </trkpt>
      <trkpt lat="45.98499" lon="-1.23975">
        <ele>3.5999999046326</ele>
        <time>2021-11-09T08:29:23.000Z</time>
      </trkpt>
      <trkpt lat="45.98518" lon="-1.23995">
        <ele>3.5999999046326</ele>
        <time>2021-11-09T08:29:27.000Z</time>
      </trkpt>
      <trkpt lat="45.98528" lon="-1.24011">
        <ele>3.5999999046326</ele>
        <time>2021-11-09T08:29:30.000Z</time>
      </trkpt>
      <trkpt lat="45.98532" lon="-1.24016">
        <ele>3.5999999046326</ele>
        <time>2021-11-09T08:29:31.000Z</time>
      </trkpt>
      <trkpt lat="45.98549" lon="-1.24033">
        <ele>3.5999999046326</ele>
        <time>2021-11-09T08:29:35.000Z</time>
      </trkpt>
      <trkpt lat="45.98558" lon="-1.24042">
        <ele>3.5999999046326</ele>
        <time>2021-11-09T08:29:37.000Z</time>
      </trkpt>
      <trkpt lat="45.98567" lon="-1.24051">
        <ele>3.5999999046326</ele>
        <time>2021-11-09T08:29:39.000Z</time>
      </trkpt>
      <trkpt lat="45.98576" lon="-1.24061">
        <ele>3.5999999046326</ele>
        <time>2021-11-09T08:29:41.000Z</time>
      </trkpt>
      <trkpt lat="45.98589" lon="-1.24079">
        <ele>3.4000000953674</ele>
        <time>2021-11-09T08:29:44.000Z</time>
      </trkpt>
      <trkpt lat="45.98599" lon="-1.24089">
        <ele>3.4000000953674</ele>
        <time>2021-11-09T08:29:46.000Z</time>
      </trkpt>
      <trkpt lat="45.98619" lon="-1.24108">
        <ele>3.5999999046326</ele>
        <time>2021-11-09T08:29:51.000Z</time>
      </trkpt>
      <trkpt lat="45.98634" lon="-1.24126">
        <ele>3.7999999523163</ele>
        <time>2021-11-09T08:29:55.000Z</time>
      </trkpt>
      <trkpt lat="45.98637" lon="-1.2413">
        <ele>4</ele>
        <time>2021-11-09T08:29:56.000Z</time>
      </trkpt>
      <trkpt lat="45.98667" lon="-1.24154">
        <ele>3.7999999523163</ele>
        <time>2021-11-09T08:30:02.000Z</time>
      </trkpt>
      <trkpt lat="45.98673" lon="-1.2415">
        <ele>3.7999999523163</ele>
        <time>2021-11-09T08:30:05.000Z</time>
      </trkpt>
      <trkpt lat="45.98683" lon="-1.24126">
        <ele>3.4000000953674</ele>
        <time>2021-11-09T08:30:10.000Z</time>
      </trkpt>
      <trkpt lat="45.98695" lon="-1.24114">
        <ele>3.4000000953674</ele>
        <time>2021-11-09T08:30:14.000Z</time>
      </trkpt>
      <trkpt lat="45.98703" lon="-1.2413">
        <ele>3.4000000953674</ele>
        <time>2021-11-09T08:30:18.000Z</time>
      </trkpt>
      <trkpt lat="45.98722" lon="-1.24161">
        <ele>3</ele>
        <time>2021-11-09T08:30:25.000Z</time>
      </trkpt>
      <trkpt lat="45.98741" lon="-1.24191">
        <ele>2.7999999523163</ele>
        <time>2021-11-09T08:30:31.000Z</time>
      </trkpt>
      <trkpt lat="45.98753" lon="-1.2421">
        <ele>3.2000000476837</ele>
        <time>2021-11-09T08:30:36.000Z</time>
      </trkpt>
      <trkpt lat="45.98754" lon="-1.2421">
        <ele>3.4000000953674</ele>
        <time>2021-11-09T08:30:39.000Z</time>
      </trkpt>
      <trkpt lat="45.98754" lon="-1.2421">
        <ele>3.5999999046326</ele>
        <time>2021-11-09T08:30:41.000Z</time>
      </trkpt>
      <trkpt lat="45.98753" lon="-1.2422">
        <ele>4.1999998092651</ele>
        <time>2021-11-09T08:34:44.000Z</time>
      </trkpt>
      <trkpt lat="45.98753" lon="-1.24224">
        <ele>4.1999998092651</ele>
        <time>2021-11-09T08:34:45.000Z</time>
      </trkpt>
      <trkpt lat="45.98752" lon="-1.24244">
        <ele>4.1999998092651</ele>
        <time>2021-11-09T08:34:49.000Z</time>
      </trkpt>
      <trkpt lat="45.98748" lon="-1.24266">
        <ele>3.5999999046326</ele>
        <time>2021-11-09T08:34:55.000Z</time>
      </trkpt>
      <trkpt lat="45.98748" lon="-1.24272">
        <ele>3.4000000953674</ele>
        <time>2021-11-09T08:34:57.000Z</time>
      </trkpt>
      <trkpt lat="45.98749" lon="-1.24277">
        <ele>3.2000000476837</ele>
        <time>2021-11-09T08:34:59.000Z</time>
      </trkpt>
      <trkpt lat="45.98751" lon="-1.24282">
        <ele>3</ele>
        <time>2021-11-09T08:35:01.000Z</time>
      </trkpt>
      <trkpt lat="45.98754" lon="-1.2429">
        <ele>3</ele>
        <time>2021-11-09T08:35:03.000Z</time>
      </trkpt>
      <trkpt lat="45.98764" lon="-1.24308">
        <ele>2.7999999523163</ele>
        <time>2021-11-09T08:35:07.000Z</time>
      </trkpt>
      <trkpt lat="45.98772" lon="-1.24324">
        <ele>2.7999999523163</ele>
        <time>2021-11-09T08:35:10.000Z</time>
      </trkpt>
      <trkpt lat="45.98773" lon="-1.24335">
        <ele>2.7999999523163</ele>
        <time>2021-11-09T08:35:12.000Z</time>
      </trkpt>
      <trkpt lat="45.98771" lon="-1.24357">
        <ele>2.7999999523163</ele>
        <time>2021-11-09T08:35:16.000Z</time>
      </trkpt>
      <trkpt lat="45.98761" lon="-1.24371">
        <ele>2.5999999046326</ele>
        <time>2021-11-09T08:35:20.000Z</time>
      </trkpt>
      <trkpt lat="45.98758" lon="-1.24379">
        <ele>2.5999999046326</ele>
        <time>2021-11-09T08:35:22.000Z</time>
      </trkpt>
      <trkpt lat="45.98756" lon="-1.2439">
        <ele>2.7999999523163</ele>
        <time>2021-11-09T08:35:24.000Z</time>
      </trkpt>
      <trkpt lat="45.98755" lon="-1.24398">
        <ele>2.7999999523163</ele>
        <time>2021-11-09T08:35:25.000Z</time>
      </trkpt>
      <trkpt lat="45.98749" lon="-1.24423">
        <ele>3</ele>
        <time>2021-11-09T08:35:29.000Z</time>
      </trkpt>
      <trkpt lat="45.98753" lon="-1.24449">
        <ele>3.4000000953674</ele>
        <time>2021-11-09T08:35:33.000Z</time>
      </trkpt>
      <trkpt lat="45.98756" lon="-1.24454">
        <ele>3.5999999046326</ele>
        <time>2021-11-09T08:35:34.000Z</time>
      </trkpt>
      <trkpt lat="45.9877" lon="-1.2447">
        <ele>4.4000000953674</ele>
        <time>2021-11-09T08:35:38.000Z</time>
      </trkpt>
      <trkpt lat="45.9879" lon="-1.24489">
        <ele>4.4000000953674</ele>
        <time>2021-11-09T08:35:43.000Z</time>
      </trkpt>
      <trkpt lat="45.98803" lon="-1.24502">
        <ele>4.4000000953674</ele>
        <time>2021-11-09T08:35:46.000Z</time>
      </trkpt>
      <trkpt lat="45.98807" lon="-1.24507">
        <ele>4.5999999046326</ele>
        <time>2021-11-09T08:35:47.000Z</time>
      </trkpt>
      <trkpt lat="45.98811" lon="-1.24512">
        <ele>4.5999999046326</ele>
        <time>2021-11-09T08:35:48.000Z</time>
      </trkpt>
      <trkpt lat="45.98816" lon="-1.24516">
        <ele>4.5999999046326</ele>
        <time>2021-11-09T08:35:49.000Z</time>
      </trkpt>
      <trkpt lat="45.98831" lon="-1.24525">
        <ele>4.5999999046326</ele>
        <time>2021-11-09T08:35:52.000Z</time>
      </trkpt>
      <trkpt lat="45.98852" lon="-1.24539">
        <ele>4.8000001907349</ele>
        <time>2021-11-09T08:35:56.000Z</time>
      </trkpt>
      <trkpt lat="45.9886" lon="-1.24548">
        <ele>5</ele>
        <time>2021-11-09T08:35:58.000Z</time>
      </trkpt>
      <trkpt lat="45.98869" lon="-1.24555">
        <ele>5</ele>
        <time>2021-11-09T08:36:00.000Z</time>
      </trkpt>
      <trkpt lat="45.98878" lon="-1.24567">
        <ele>5</ele>
        <time>2021-11-09T08:36:02.000Z</time>
      </trkpt>
      <trkpt lat="45.98903" lon="-1.24612">
        <ele>5.1999998092651</ele>
        <time>2021-11-09T08:36:09.000Z</time>
      </trkpt>
      <trkpt lat="45.98915" lon="-1.24627">
        <ele>5.1999998092651</ele>
        <time>2021-11-09T08:36:12.000Z</time>
      </trkpt>
      <trkpt lat="45.9892" lon="-1.24641">
        <ele>5.4000000953674</ele>
        <time>2021-11-09T08:36:14.000Z</time>
      </trkpt>
      <trkpt lat="45.98921" lon="-1.24648">
        <ele>5.5999999046326</ele>
        <time>2021-11-09T08:36:15.000Z</time>
      </trkpt>
      <trkpt lat="45.98924" lon="-1.24666">
        <ele>5.5999999046326</ele>
        <time>2021-11-09T08:36:17.000Z</time>
      </trkpt>
      <trkpt lat="45.98934" lon="-1.24682">
        <ele>5.5999999046326</ele>
        <time>2021-11-09T08:36:19.000Z</time>
      </trkpt>
      <trkpt lat="45.9894" lon="-1.24695">
        <ele>5.5999999046326</ele>
        <time>2021-11-09T08:36:21.000Z</time>
      </trkpt>
      <trkpt lat="45.98942" lon="-1.24711">
        <ele>5.8000001907349</ele>
        <time>2021-11-09T08:36:23.000Z</time>
      </trkpt>
      <trkpt lat="45.98945" lon="-1.24726">
        <ele>5.8000001907349</ele>
        <time>2021-11-09T08:36:25.000Z</time>
      </trkpt>
      <trkpt lat="45.9895" lon="-1.24741">
        <ele>6</ele>
        <time>2021-11-09T08:36:27.000Z</time>
      </trkpt>
      <trkpt lat="45.98955" lon="-1.24755">
        <ele>6.1999998092651</ele>
        <time>2021-11-09T08:36:29.000Z</time>
      </trkpt>
      <trkpt lat="45.98958" lon="-1.24771">
        <ele>6.1999998092651</ele>
        <time>2021-11-09T08:36:31.000Z</time>
      </trkpt>
      <trkpt lat="45.98961" lon="-1.24779">
        <ele>6.1999998092651</ele>
        <time>2021-11-09T08:36:32.000Z</time>
      </trkpt>
      <trkpt lat="45.98965" lon="-1.24793">
        <ele>6.1999998092651</ele>
        <time>2021-11-09T08:36:34.000Z</time>
      </trkpt>
      <trkpt lat="45.98964" lon="-1.248">
        <ele>6</ele>
        <time>2021-11-09T08:36:35.000Z</time>
      </trkpt>
      <trkpt lat="45.98963" lon="-1.24812">
        <ele>6</ele>
        <time>2021-11-09T08:36:37.000Z</time>
      </trkpt>
      <trkpt lat="45.9896" lon="-1.24822">
        <ele>6</ele>
        <time>2021-11-09T08:36:39.000Z</time>
      </trkpt>
      <trkpt lat="45.98951" lon="-1.24832">
        <ele>6.5999999046326</ele>
        <time>2021-11-09T08:36:42.000Z</time>
      </trkpt>
      <trkpt lat="45.98946" lon="-1.2484">
        <ele>7.1999998092651</ele>
        <time>2021-11-09T08:36:44.000Z</time>
      </trkpt>
      <trkpt lat="45.98944" lon="-1.24854">
        <ele>7.5999999046326</ele>
        <time>2021-11-09T08:36:47.000Z</time>
      </trkpt>
      <trkpt lat="45.98943" lon="-1.24859">
        <ele>7.8000001907349</ele>
        <time>2021-11-09T08:36:48.000Z</time>
      </trkpt>
      <trkpt lat="45.98947" lon="-1.24888">
        <ele>8.1999998092651</ele>
        <time>2021-11-09T08:36:54.000Z</time>
      </trkpt>
      <trkpt lat="45.98949" lon="-1.24902">
        <ele>8.3999996185303</ele>
        <time>2021-11-09T08:36:58.000Z</time>
      </trkpt>
      <trkpt lat="45.9895" lon="-1.24911">
        <ele>8.6000003814697</ele>
        <time>2021-11-09T08:37:00.000Z</time>
      </trkpt>
      <trkpt lat="45.98952" lon="-1.24939">
        <ele>8.8000001907349</ele>
        <time>2021-11-09T08:37:05.000Z</time>
      </trkpt>
      <trkpt lat="45.98953" lon="-1.24943">
        <ele>8.8000001907349</ele>
        <time>2021-11-09T08:37:06.000Z</time>
      </trkpt>
      <trkpt lat="45.98955" lon="-1.24954">
        <ele>9</ele>
        <time>2021-11-09T08:37:09.000Z</time>
      </trkpt>
      <trkpt lat="45.98954" lon="-1.24962">
        <ele>9.1999998092651</ele>
        <time>2021-11-09T08:37:11.000Z</time>
      </trkpt>
      <trkpt lat="45.98952" lon="-1.24968">
        <ele>9.3999996185303</ele>
        <time>2021-11-09T08:37:13.000Z</time>
      </trkpt>
      <trkpt lat="45.98953" lon="-1.24993">
        <ele>9.3999996185303</ele>
        <time>2021-11-09T08:37:18.000Z</time>
      </trkpt>
      <trkpt lat="45.98953" lon="-1.25001">
        <ele>9.6000003814697</ele>
        <time>2021-11-09T08:37:19.000Z</time>
      </trkpt>
      <trkpt lat="45.98957" lon="-1.25019">
        <ele>9.6000003814697</ele>
        <time>2021-11-09T08:37:22.000Z</time>
      </trkpt>
      <trkpt lat="45.98967" lon="-1.25048">
        <ele>9.6000003814697</ele>
        <time>2021-11-09T08:37:27.000Z</time>
      </trkpt>
      <trkpt lat="45.98969" lon="-1.25054">
        <ele>9.8000001907349</ele>
        <time>2021-11-09T08:37:28.000Z</time>
      </trkpt>
      <trkpt lat="45.9897" lon="-1.25066">
        <ele>9.8000001907349</ele>
        <time>2021-11-09T08:37:30.000Z</time>
      </trkpt>
      <trkpt lat="45.98969" lon="-1.25072">
        <ele>9.8000001907349</ele>
        <time>2021-11-09T08:37:31.000Z</time>
      </trkpt>
      <trkpt lat="45.9897" lon="-1.25079">
        <ele>9.8000001907349</ele>
        <time>2021-11-09T08:37:32.000Z</time>
      </trkpt>
      <trkpt lat="45.9897" lon="-1.25094">
        <ele>9.8000001907349</ele>
        <time>2021-11-09T08:37:34.000Z</time>
      </trkpt>
      <trkpt lat="45.98969" lon="-1.25126">
        <ele>9.8000001907349</ele>
        <time>2021-11-09T08:37:38.000Z</time>
      </trkpt>
      <trkpt lat="45.9897" lon="-1.25134">
        <ele>9.6000003814697</ele>
        <time>2021-11-09T08:37:39.000Z</time>
      </trkpt>
      <trkpt lat="45.98972" lon="-1.25158">
        <ele>9.6000003814697</ele>
        <time>2021-11-09T08:37:42.000Z</time>
      </trkpt>
      <trkpt lat="45.98974" lon="-1.25172">
        <ele>9.6000003814697</ele>
        <time>2021-11-09T08:37:44.000Z</time>
      </trkpt>
      <trkpt lat="45.98975" lon="-1.25179">
        <ele>9.6000003814697</ele>
        <time>2021-11-09T08:37:45.000Z</time>
      </trkpt>
      <trkpt lat="45.98977" lon="-1.25198">
        <ele>9.3999996185303</ele>
        <time>2021-11-09T08:37:48.000Z</time>
      </trkpt>
      <trkpt lat="45.98977" lon="-1.25205">
        <ele>9.3999996185303</ele>
        <time>2021-11-09T08:37:49.000Z</time>
      </trkpt>
      <trkpt lat="45.98975" lon="-1.25231">
        <ele>9.8000001907349</ele>
        <time>2021-11-09T08:37:53.000Z</time>
      </trkpt>
      <trkpt lat="45.98972" lon="-1.2524">
        <ele>9.8000001907349</ele>
        <time>2021-11-09T08:37:55.000Z</time>
      </trkpt>
      <trkpt lat="45.98962" lon="-1.25264">
        <ele>9.8000001907349</ele>
        <time>2021-11-09T08:38:00.000Z</time>
      </trkpt>
      <trkpt lat="45.98961" lon="-1.25283">
        <ele>9.6000003814697</ele>
        <time>2021-11-09T08:38:04.000Z</time>
      </trkpt>
      <trkpt lat="45.98958" lon="-1.25319">
        <ele>9.3999996185303</ele>
        <time>2021-11-09T08:38:10.000Z</time>
      </trkpt>
      <trkpt lat="45.98953" lon="-1.25358">
        <ele>9.6000003814697</ele>
        <time>2021-11-09T08:38:17.000Z</time>
      </trkpt>
      <trkpt lat="45.98951" lon="-1.25386">
        <ele>9.3999996185303</ele>
        <time>2021-11-09T08:38:23.000Z</time>
      </trkpt>
      <trkpt lat="45.98958" lon="-1.25401">
        <ele>9.6000003814697</ele>
        <time>2021-11-09T08:38:28.000Z</time>
      </trkpt>
      <trkpt lat="45.98956" lon="-1.25414">
        <ele>9.3999996185303</ele>
        <time>2021-11-09T08:38:31.000Z</time>
      </trkpt>
      <trkpt lat="45.98947" lon="-1.25445">
        <ele>9.6000003814697</ele>
        <time>2021-11-09T08:38:37.000Z</time>
      </trkpt>
      <trkpt lat="45.98945" lon="-1.25454">
        <ele>9.8000001907349</ele>
        <time>2021-11-09T08:38:39.000Z</time>
      </trkpt>
      <trkpt lat="45.98945" lon="-1.25461">
        <ele>9.8000001907349</ele>
        <time>2021-11-09T08:38:41.000Z</time>
      </trkpt>
      <trkpt lat="45.98943" lon="-1.2547">
        <ele>9.8000001907349</ele>
        <time>2021-11-09T08:38:43.000Z</time>
      </trkpt>
      <trkpt lat="45.98939" lon="-1.25475">
        <ele>10</ele>
        <time>2021-11-09T08:38:45.000Z</time>
      </trkpt>
      <trkpt lat="45.98929" lon="-1.25491">
        <ele>9.3999996185303</ele>
        <time>2021-11-09T08:38:49.000Z</time>
      </trkpt>
      <trkpt lat="45.98928" lon="-1.25502">
        <ele>9</ele>
        <time>2021-11-09T08:38:51.000Z</time>
      </trkpt>
      <trkpt lat="45.98924" lon="-1.25515">
        <ele>8.8000001907349</ele>
        <time>2021-11-09T08:38:53.000Z</time>
      </trkpt>
      <trkpt lat="45.98917" lon="-1.25521">
        <ele>8.3999996185303</ele>
        <time>2021-11-09T08:38:56.000Z</time>
      </trkpt>
      <trkpt lat="45.98907" lon="-1.25528">
        <ele>8.1999998092651</ele>
        <time>2021-11-09T08:39:00.000Z</time>
      </trkpt>
      <trkpt lat="45.98888" lon="-1.25529">
        <ele>7.8000001907349</ele>
        <time>2021-11-09T08:39:04.000Z</time>
      </trkpt>
      <trkpt lat="45.98883" lon="-1.2553">
        <ele>7.5999999046326</ele>
        <time>2021-11-09T08:39:05.000Z</time>
      </trkpt>
      <trkpt lat="45.98869" lon="-1.25534">
        <ele>7.4000000953674</ele>
        <time>2021-11-09T08:39:07.000Z</time>
      </trkpt>
      <trkpt lat="45.98863" lon="-1.25535">
        <ele>7</ele>
        <time>2021-11-09T08:39:08.000Z</time>
      </trkpt>
      <trkpt lat="45.98842" lon="-1.25535">
        <ele>6.4000000953674</ele>
        <time>2021-11-09T08:39:11.000Z</time>
      </trkpt>
      <trkpt lat="45.98827" lon="-1.25536">
        <ele>6.1999998092651</ele>
        <time>2021-11-09T08:39:13.000Z</time>
      </trkpt>
      <trkpt lat="45.98815" lon="-1.25536">
        <ele>6</ele>
        <time>2021-11-09T08:39:15.000Z</time>
      </trkpt>
      <trkpt lat="45.98787" lon="-1.25538">
        <ele>6</ele>
        <time>2021-11-09T08:39:19.000Z</time>
      </trkpt>
      <trkpt lat="45.98731" lon="-1.25536">
        <ele>6.1999998092651</ele>
        <time>2021-11-09T08:39:26.000Z</time>
      </trkpt>
      <trkpt lat="45.98687" lon="-1.25536">
        <ele>6.8000001907349</ele>
        <time>2021-11-09T08:39:32.000Z</time>
      </trkpt>
      <trkpt lat="45.98675" lon="-1.25536">
        <ele>7.1999998092651</ele>
        <time>2021-11-09T08:39:34.000Z</time>
      </trkpt>
      <trkpt lat="45.98652" lon="-1.25536">
        <ele>7.8000001907349</ele>
        <time>2021-11-09T08:39:38.000Z</time>
      </trkpt>
      <trkpt lat="45.98643" lon="-1.25537">
        <ele>8.1999998092651</ele>
        <time>2021-11-09T08:39:40.000Z</time>
      </trkpt>
      <trkpt lat="45.98626" lon="-1.25537">
        <ele>8.8000001907349</ele>
        <time>2021-11-09T08:39:43.000Z</time>
      </trkpt>
      <trkpt lat="45.98617" lon="-1.25537">
        <ele>9.3999996185303</ele>
        <time>2021-11-09T08:39:45.000Z</time>
      </trkpt>
      <trkpt lat="45.98605" lon="-1.25536">
        <ele>9.6000003814697</ele>
        <time>2021-11-09T08:39:47.000Z</time>
      </trkpt>
      <trkpt lat="45.986" lon="-1.25536">
        <ele>9.6000003814697</ele>
        <time>2021-11-09T08:39:48.000Z</time>
      </trkpt>
      <trkpt lat="45.98591" lon="-1.25535">
        <ele>10</ele>
        <time>2021-11-09T08:39:50.000Z</time>
      </trkpt>
      <trkpt lat="45.98587" lon="-1.25535">
        <ele>10.39999961853</ele>
        <time>2021-11-09T08:39:51.000Z</time>
      </trkpt>
      <trkpt lat="45.98581" lon="-1.25535">
        <ele>10.39999961853</ele>
        <time>2021-11-09T08:39:52.000Z</time>
      </trkpt>
      <trkpt lat="45.98576" lon="-1.25536">
        <ele>10.60000038147</ele>
        <time>2021-11-09T08:39:53.000Z</time>
      </trkpt>
      <trkpt lat="45.98543" lon="-1.25542">
        <ele>10.60000038147</ele>
        <time>2021-11-09T08:39:59.000Z</time>
      </trkpt>
      <trkpt lat="45.98503" lon="-1.25556">
        <ele>10.800000190735</ele>
        <time>2021-11-09T08:40:05.000Z</time>
      </trkpt>
      <trkpt lat="45.98477" lon="-1.25576">
        <ele>10.800000190735</ele>
        <time>2021-11-09T08:40:09.000Z</time>
      </trkpt>
      <trkpt lat="45.9847" lon="-1.25584">
        <ele>10.800000190735</ele>
        <time>2021-11-09T08:40:10.000Z</time>
      </trkpt>
      <trkpt lat="45.9844" lon="-1.25631">
        <ele>10.39999961853</ele>
        <time>2021-11-09T08:40:15.000Z</time>
      </trkpt>
      <trkpt lat="45.98411" lon="-1.25692">
        <ele>9.6000003814697</ele>
        <time>2021-11-09T08:40:21.000Z</time>
      </trkpt>
      <trkpt lat="45.98395" lon="-1.25727">
        <ele>9.3999996185303</ele>
        <time>2021-11-09T08:40:25.000Z</time>
      </trkpt>
      <trkpt lat="45.9837" lon="-1.25782">
        <ele>9.8000001907349</ele>
        <time>2021-11-09T08:40:32.000Z</time>
      </trkpt>
      <trkpt lat="45.98345" lon="-1.25831">
        <ele>10.39999961853</ele>
        <time>2021-11-09T08:40:37.000Z</time>
      </trkpt>
      <trkpt lat="45.98336" lon="-1.25851">
        <ele>10.39999961853</ele>
        <time>2021-11-09T08:40:39.000Z</time>
      </trkpt>
      <trkpt lat="45.98332" lon="-1.2587">
        <ele>10.800000190735</ele>
        <time>2021-11-09T08:40:41.000Z</time>
      </trkpt>
      <trkpt lat="45.98331" lon="-1.25893">
        <ele>11.199999809265</ele>
        <time>2021-11-09T08:40:43.000Z</time>
      </trkpt>
      <trkpt lat="45.98332" lon="-1.25904">
        <ele>11.199999809265</ele>
        <time>2021-11-09T08:40:44.000Z</time>
      </trkpt>
      <trkpt lat="45.98336" lon="-1.25921">
        <ele>11.39999961853</ele>
        <time>2021-11-09T08:40:46.000Z</time>
      </trkpt>
      <trkpt lat="45.98339" lon="-1.2594">
        <ele>11.800000190735</ele>
        <time>2021-11-09T08:40:48.000Z</time>
      </trkpt>
      <trkpt lat="45.9834" lon="-1.25948">
        <ele>12</ele>
        <time>2021-11-09T08:40:49.000Z</time>
      </trkpt>
      <trkpt lat="45.98338" lon="-1.25962">
        <ele>12.39999961853</ele>
        <time>2021-11-09T08:40:51.000Z</time>
      </trkpt>
      <trkpt lat="45.98331" lon="-1.25972">
        <ele>13</ele>
        <time>2021-11-09T08:40:53.000Z</time>
      </trkpt>
      <trkpt lat="45.98327" lon="-1.25975">
        <ele>13.199999809265</ele>
        <time>2021-11-09T08:40:54.000Z</time>
      </trkpt>
      <trkpt lat="45.98322" lon="-1.25977">
        <ele>13.39999961853</ele>
        <time>2021-11-09T08:40:55.000Z</time>
      </trkpt>
      <trkpt lat="45.98312" lon="-1.25981">
        <ele>13.39999961853</ele>
        <time>2021-11-09T08:40:57.000Z</time>
      </trkpt>
      <trkpt lat="45.98302" lon="-1.25984">
        <ele>13.39999961853</ele>
        <time>2021-11-09T08:40:59.000Z</time>
      </trkpt>
      <trkpt lat="45.98257" lon="-1.26003">
        <ele>13.39999961853</ele>
        <time>2021-11-09T08:41:08.000Z</time>
      </trkpt>
      <trkpt lat="45.98252" lon="-1.26005">
        <ele>13.39999961853</ele>
        <time>2021-11-09T08:41:09.000Z</time>
      </trkpt>
      <trkpt lat="45.98232" lon="-1.26014">
        <ele>13.39999961853</ele>
        <time>2021-11-09T08:41:12.000Z</time>
      </trkpt>
      <trkpt lat="45.98195" lon="-1.26034">
        <ele>13.199999809265</ele>
        <time>2021-11-09T08:41:17.000Z</time>
      </trkpt>
      <trkpt lat="45.98146" lon="-1.26057">
        <ele>13</ele>
        <time>2021-11-09T08:41:24.000Z</time>
      </trkpt>
      <trkpt lat="45.98124" lon="-1.26069">
        <ele>12.60000038147</ele>
        <time>2021-11-09T08:41:27.000Z</time>
      </trkpt>
      <trkpt lat="45.98119" lon="-1.26076">
        <ele>12.199999809265</ele>
        <time>2021-11-09T08:41:28.000Z</time>
      </trkpt>
      <trkpt lat="45.98116" lon="-1.26083">
        <ele>12</ele>
        <time>2021-11-09T08:41:29.000Z</time>
      </trkpt>
      <trkpt lat="45.98114" lon="-1.26103">
        <ele>11.60000038147</ele>
        <time>2021-11-09T08:41:31.000Z</time>
      </trkpt>
      <trkpt lat="45.98116" lon="-1.26121">
        <ele>11.39999961853</ele>
        <time>2021-11-09T08:41:33.000Z</time>
      </trkpt>
      <trkpt lat="45.9812" lon="-1.26143">
        <ele>11</ele>
        <time>2021-11-09T08:41:35.000Z</time>
      </trkpt>
      <trkpt lat="45.98123" lon="-1.26164">
        <ele>10.199999809265</ele>
        <time>2021-11-09T08:41:37.000Z</time>
      </trkpt>
      <trkpt lat="45.98131" lon="-1.26205">
        <ele>10</ele>
        <time>2021-11-09T08:41:41.000Z</time>
      </trkpt>
      <trkpt lat="45.98138" lon="-1.26249">
        <ele>9.3999996185303</ele>
        <time>2021-11-09T08:41:45.000Z</time>
      </trkpt>
      <trkpt lat="45.98142" lon="-1.2628">
        <ele>9</ele>
        <time>2021-11-09T08:41:48.000Z</time>
      </trkpt>
      <trkpt lat="45.9815" lon="-1.26338">
        <ele>8.8000001907349</ele>
        <time>2021-11-09T08:41:54.000Z</time>
      </trkpt>
      <trkpt lat="45.98157" lon="-1.26391">
        <ele>8.8000001907349</ele>
        <time>2021-11-09T08:42:00.000Z</time>
      </trkpt>
      <trkpt lat="45.98165" lon="-1.26457">
        <ele>9</ele>
        <time>2021-11-09T08:42:07.000Z</time>
      </trkpt>
      <trkpt lat="45.98167" lon="-1.26468">
        <ele>9.1999998092651</ele>
        <time>2021-11-09T08:42:08.000Z</time>
      </trkpt>
      <trkpt lat="45.98175" lon="-1.26538">
        <ele>9</ele>
        <time>2021-11-09T08:42:15.000Z</time>
      </trkpt>
      <trkpt lat="45.98179" lon="-1.26579">
        <ele>9</ele>
        <time>2021-11-09T08:42:20.000Z</time>
      </trkpt>
      <trkpt lat="45.9818" lon="-1.26587">
        <ele>9</ele>
        <time>2021-11-09T08:42:21.000Z</time>
      </trkpt>
      <trkpt lat="45.98188" lon="-1.26646">
        <ele>9.3999996185303</ele>
        <time>2021-11-09T08:42:28.000Z</time>
      </trkpt>
      <trkpt lat="45.98197" lon="-1.26715">
        <ele>9.3999996185303</ele>
        <time>2021-11-09T08:42:35.000Z</time>
      </trkpt>
      <trkpt lat="45.98208" lon="-1.26785">
        <ele>9</ele>
        <time>2021-11-09T08:42:41.000Z</time>
      </trkpt>
      <trkpt lat="45.98216" lon="-1.26835">
        <ele>8.1999998092651</ele>
        <time>2021-11-09T08:42:45.000Z</time>
      </trkpt>
      <trkpt lat="45.98218" lon="-1.26857">
        <ele>8</ele>
        <time>2021-11-09T08:42:47.000Z</time>
      </trkpt>
      <trkpt lat="45.98227" lon="-1.26922">
        <ele>7.5999999046326</ele>
        <time>2021-11-09T08:42:53.000Z</time>
      </trkpt>
      <trkpt lat="45.98238" lon="-1.27005">
        <ele>7.4000000953674</ele>
        <time>2021-11-09T08:43:01.000Z</time>
      </trkpt>
      <trkpt lat="45.98246" lon="-1.27056">
        <ele>7.4000000953674</ele>
        <time>2021-11-09T08:43:07.000Z</time>
      </trkpt>
      <trkpt lat="45.98248" lon="-1.27081">
        <ele>7.4000000953674</ele>
        <time>2021-11-09T08:43:10.000Z</time>
      </trkpt>
      <trkpt lat="45.98251" lon="-1.27098">
        <ele>7.5999999046326</ele>
        <time>2021-11-09T08:43:12.000Z</time>
      </trkpt>
      <trkpt lat="45.9826" lon="-1.27163">
        <ele>8</ele>
        <time>2021-11-09T08:43:19.000Z</time>
      </trkpt>
      <trkpt lat="45.98269" lon="-1.27231">
        <ele>7.4000000953674</ele>
        <time>2021-11-09T08:43:25.000Z</time>
      </trkpt>
      <trkpt lat="45.98279" lon="-1.27312">
        <ele>7.1999998092651</ele>
        <time>2021-11-09T08:43:32.000Z</time>
      </trkpt>
      <trkpt lat="45.98283" lon="-1.27335">
        <ele>7</ele>
        <time>2021-11-09T08:43:34.000Z</time>
      </trkpt>
      <trkpt lat="45.9829" lon="-1.27391">
        <ele>6.5999999046326</ele>
        <time>2021-11-09T08:43:39.000Z</time>
      </trkpt>
      <trkpt lat="45.98297" lon="-1.27445">
        <ele>6.8000001907349</ele>
        <time>2021-11-09T08:43:44.000Z</time>
      </trkpt>
      <trkpt lat="45.98306" lon="-1.27516">
        <ele>7.4000000953674</ele>
        <time>2021-11-09T08:43:51.000Z</time>
      </trkpt>
      <trkpt lat="45.98317" lon="-1.27597">
        <ele>8</ele>
        <time>2021-11-09T08:43:59.000Z</time>
      </trkpt>
      <trkpt lat="45.98319" lon="-1.27607">
        <ele>8</ele>
        <time>2021-11-09T08:44:00.000Z</time>
      </trkpt>
      <trkpt lat="45.98323" lon="-1.27628">
        <ele>8</ele>
        <time>2021-11-09T08:44:02.000Z</time>
      </trkpt>
      <trkpt lat="45.98329" lon="-1.27679">
        <ele>7.8000001907349</ele>
        <time>2021-11-09T08:44:07.000Z</time>
      </trkpt>
      <trkpt lat="45.98337" lon="-1.27747">
        <ele>7.5999999046326</ele>
        <time>2021-11-09T08:44:14.000Z</time>
      </trkpt>
      <trkpt lat="45.98339" lon="-1.27757">
        <ele>7.5999999046326</ele>
        <time>2021-11-09T08:44:15.000Z</time>
      </trkpt>
      <trkpt lat="45.98343" lon="-1.27781">
        <ele>7.5999999046326</ele>
        <time>2021-11-09T08:44:18.000Z</time>
      </trkpt>
      <trkpt lat="45.98346" lon="-1.27804">
        <ele>8</ele>
        <time>2021-11-09T08:44:21.000Z</time>
      </trkpt>
      <trkpt lat="45.98348" lon="-1.27825">
        <ele>8.3999996185303</ele>
        <time>2021-11-09T08:44:24.000Z</time>
      </trkpt>
      <trkpt lat="45.98355" lon="-1.27869">
        <ele>8.8000001907349</ele>
        <time>2021-11-09T08:44:30.000Z</time>
      </trkpt>
      <trkpt lat="45.98356" lon="-1.27876">
        <ele>8.8000001907349</ele>
        <time>2021-11-09T08:44:31.000Z</time>
      </trkpt>
      <trkpt lat="45.98359" lon="-1.27898">
        <ele>9.1999998092651</ele>
        <time>2021-11-09T08:44:34.000Z</time>
      </trkpt>
      <trkpt lat="45.98361" lon="-1.27906">
        <ele>9.1999998092651</ele>
        <time>2021-11-09T08:44:35.000Z</time>
      </trkpt>
      <trkpt lat="45.98368" lon="-1.27969">
        <ele>9.3999996185303</ele>
        <time>2021-11-09T08:44:42.000Z</time>
      </trkpt>
      <trkpt lat="45.98378" lon="-1.28045">
        <ele>8.1999998092651</ele>
        <time>2021-11-09T08:44:49.000Z</time>
      </trkpt>
      <trkpt lat="45.98381" lon="-1.28068">
        <ele>8</ele>
        <time>2021-11-09T08:44:51.000Z</time>
      </trkpt>
      <trkpt lat="45.9839" lon="-1.28128">
        <ele>7.1999998092651</ele>
        <time>2021-11-09T08:44:56.000Z</time>
      </trkpt>
      <trkpt lat="45.98393" lon="-1.28152">
        <ele>6.8000001907349</ele>
        <time>2021-11-09T08:44:58.000Z</time>
      </trkpt>
      <trkpt lat="45.98405" lon="-1.28238">
        <ele>5.8000001907349</ele>
        <time>2021-11-09T08:45:05.000Z</time>
      </trkpt>
      <trkpt lat="45.98415" lon="-1.28308">
        <ele>4.8000001907349</ele>
        <time>2021-11-09T08:45:11.000Z</time>
      </trkpt>
      <trkpt lat="45.9842" lon="-1.28341">
        <ele>4.1999998092651</ele>
        <time>2021-11-09T08:45:14.000Z</time>
      </trkpt>
      <trkpt lat="45.98422" lon="-1.28361">
        <ele>3.5999999046326</ele>
        <time>2021-11-09T08:45:16.000Z</time>
      </trkpt>
      <trkpt lat="45.98428" lon="-1.28403">
        <ele>2.7999999523163</ele>
        <time>2021-11-09T08:45:20.000Z</time>
      </trkpt>
      <trkpt lat="45.9843" lon="-1.28413">
        <ele>2.5999999046326</ele>
        <time>2021-11-09T08:45:21.000Z</time>
      </trkpt>
      <trkpt lat="45.98441" lon="-1.28495">
        <ele>1.6000000238419</ele>
        <time>2021-11-09T08:45:29.000Z</time>
      </trkpt>
      <trkpt lat="45.98442" lon="-1.28505">
        <ele>1.6000000238419</ele>
        <time>2021-11-09T08:45:30.000Z</time>
      </trkpt>
      <trkpt lat="45.98453" lon="-1.28582">
        <ele>0.80000001192093</ele>
        <time>2021-11-09T08:45:37.000Z</time>
      </trkpt>
      <trkpt lat="45.98464" lon="-1.28656">
        <ele>1</ele>
        <time>2021-11-09T08:45:44.000Z</time>
      </trkpt>
      <trkpt lat="45.98469" lon="-1.287">
        <ele>1.2000000476837</ele>
        <time>2021-11-09T08:45:49.000Z</time>
      </trkpt>
      <trkpt lat="45.98471" lon="-1.28707">
        <ele>1.2000000476837</ele>
        <time>2021-11-09T08:45:50.000Z</time>
      </trkpt>
      <trkpt lat="45.98473" lon="-1.28722">
        <ele>1.7999999523163</ele>
        <time>2021-11-09T08:45:52.000Z</time>
      </trkpt>
      <trkpt lat="45.98474" lon="-1.2873">
        <ele>2</ele>
        <time>2021-11-09T08:45:53.000Z</time>
      </trkpt>
      <trkpt lat="45.9848" lon="-1.28782">
        <ele>2.4000000953674</ele>
        <time>2021-11-09T08:45:59.000Z</time>
      </trkpt>
      <trkpt lat="45.98479" lon="-1.28791">
        <ele>2.5999999046326</ele>
        <time>2021-11-09T08:46:00.000Z</time>
      </trkpt>
      <trkpt lat="45.98474" lon="-1.28821">
        <ele>3.2000000476837</ele>
        <time>2021-11-09T08:46:03.000Z</time>
      </trkpt>
      <trkpt lat="45.98463" lon="-1.28852">
        <ele>3.4000000953674</ele>
        <time>2021-11-09T08:46:06.000Z</time>
      </trkpt>
      <trkpt lat="45.98462" lon="-1.28863">
        <ele>3.4000000953674</ele>
        <time>2021-11-09T08:46:07.000Z</time>
      </trkpt>
      <trkpt lat="45.98461" lon="-1.28875">
        <ele>3.4000000953674</ele>
        <time>2021-11-09T08:46:08.000Z</time>
      </trkpt>
      <trkpt lat="45.98465" lon="-1.28898">
        <ele>3.2000000476837</ele>
        <time>2021-11-09T08:46:10.000Z</time>
      </trkpt>
      <trkpt lat="45.98476" lon="-1.28943">
        <ele>2.7999999523163</ele>
        <time>2021-11-09T08:46:14.000Z</time>
      </trkpt>
      <trkpt lat="45.98484" lon="-1.2896">
        <ele>2.5999999046326</ele>
        <time>2021-11-09T08:46:16.000Z</time>
      </trkpt>
      <trkpt lat="45.98498" lon="-1.28971">
        <ele>2.5999999046326</ele>
        <time>2021-11-09T08:46:18.000Z</time>
      </trkpt>
      <trkpt lat="45.98504" lon="-1.28979">
        <ele>2.7999999523163</ele>
        <time>2021-11-09T08:46:19.000Z</time>
      </trkpt>
      <trkpt lat="45.98508" lon="-1.28988">
        <ele>2.4000000953674</ele>
        <time>2021-11-09T08:46:20.000Z</time>
      </trkpt>
      <trkpt lat="45.98514" lon="-1.29009">
        <ele>2.4000000953674</ele>
        <time>2021-11-09T08:46:22.000Z</time>
      </trkpt>
      <trkpt lat="45.98519" lon="-1.29061">
        <ele>2.5999999046326</ele>
        <time>2021-11-09T08:46:27.000Z</time>
      </trkpt>
      <trkpt lat="45.98521" lon="-1.29081">
        <ele>2.7999999523163</ele>
        <time>2021-11-09T08:46:29.000Z</time>
      </trkpt>
      <trkpt lat="45.98527" lon="-1.29124">
        <ele>2.5999999046326</ele>
        <time>2021-11-09T08:46:33.000Z</time>
      </trkpt>
      <trkpt lat="45.98538" lon="-1.29186">
        <ele>2.2000000476837</ele>
        <time>2021-11-09T08:46:39.000Z</time>
      </trkpt>
      <trkpt lat="45.98548" lon="-1.29263">
        <ele>1.6000000238419</ele>
        <time>2021-11-09T08:46:46.000Z</time>
      </trkpt>
      <trkpt lat="45.98557" lon="-1.2934">
        <ele>1.7999999523163</ele>
        <time>2021-11-09T08:46:53.000Z</time>
      </trkpt>
      <trkpt lat="45.98562" lon="-1.29369">
        <ele>1.7999999523163</ele>
        <time>2021-11-09T08:46:56.000Z</time>
      </trkpt>
      <trkpt lat="45.98563" lon="-1.29377">
        <ele>1.7999999523163</ele>
        <time>2021-11-09T08:46:57.000Z</time>
      </trkpt>
      <trkpt lat="45.98565" lon="-1.29396">
        <ele>1.7999999523163</ele>
        <time>2021-11-09T08:46:59.000Z</time>
      </trkpt>
      <trkpt lat="45.98569" lon="-1.29423">
        <ele>1.7999999523163</ele>
        <time>2021-11-09T08:47:02.000Z</time>
      </trkpt>
      <trkpt lat="45.98579" lon="-1.29476">
        <ele>1.7999999523163</ele>
        <time>2021-11-09T08:47:07.000Z</time>
      </trkpt>
      <trkpt lat="45.9859" lon="-1.29555">
        <ele>2</ele>
        <time>2021-11-09T08:47:15.000Z</time>
      </trkpt>
      <trkpt lat="45.98592" lon="-1.29565">
        <ele>2</ele>
        <time>2021-11-09T08:47:16.000Z</time>
      </trkpt>
      <trkpt lat="45.98601" lon="-1.29635">
        <ele>1.7999999523163</ele>
        <time>2021-11-09T08:47:23.000Z</time>
      </trkpt>
      <trkpt lat="45.98612" lon="-1.29721">
        <ele>1.6000000238419</ele>
        <time>2021-11-09T08:47:31.000Z</time>
      </trkpt>
      <trkpt lat="45.98614" lon="-1.29731">
        <ele>1.6000000238419</ele>
        <time>2021-11-09T08:47:32.000Z</time>
      </trkpt>
      <trkpt lat="45.98622" lon="-1.29796">
        <ele>1.2000000476837</ele>
        <time>2021-11-09T08:47:38.000Z</time>
      </trkpt>
      <trkpt lat="45.98628" lon="-1.29839">
        <ele>1.2000000476837</ele>
        <time>2021-11-09T08:47:42.000Z</time>
      </trkpt>
      <trkpt lat="45.98629" lon="-1.2985">
        <ele>1</ele>
        <time>2021-11-09T08:47:43.000Z</time>
      </trkpt>
      <trkpt lat="45.9864" lon="-1.29922">
        <ele>1</ele>
        <time>2021-11-09T08:47:50.000Z</time>
      </trkpt>
      <trkpt lat="45.98643" lon="-1.29942">
        <ele>1</ele>
        <time>2021-11-09T08:47:52.000Z</time>
      </trkpt>
      <trkpt lat="45.98642" lon="-1.29952">
        <ele>1</ele>
        <time>2021-11-09T08:47:53.000Z</time>
      </trkpt>
      <trkpt lat="45.98641" lon="-1.2996">
        <ele>1</ele>
        <time>2021-11-09T08:47:54.000Z</time>
      </trkpt>
      <trkpt lat="45.98632" lon="-1.29984">
        <ele>1.2000000476837</ele>
        <time>2021-11-09T08:47:57.000Z</time>
      </trkpt>
      <trkpt lat="45.98627" lon="-1.30028">
        <ele>1.3999999761581</ele>
        <time>2021-11-09T08:48:02.000Z</time>
      </trkpt>
      <trkpt lat="45.98629" lon="-1.30081">
        <ele>1.3999999761581</ele>
        <time>2021-11-09T08:48:08.000Z</time>
      </trkpt>
      <trkpt lat="45.98626" lon="-1.30126">
        <ele>2.2000000476837</ele>
        <time>2021-11-09T08:48:13.000Z</time>
      </trkpt>
      <trkpt lat="45.98624" lon="-1.30145">
        <ele>2.2000000476837</ele>
        <time>2021-11-09T08:48:15.000Z</time>
      </trkpt>
      <trkpt lat="45.98624" lon="-1.30161">
        <ele>2.4000000953674</ele>
        <time>2021-11-09T08:48:17.000Z</time>
      </trkpt>
      <trkpt lat="45.98625" lon="-1.30169">
        <ele>2.4000000953674</ele>
        <time>2021-11-09T08:48:18.000Z</time>
      </trkpt>
      <trkpt lat="45.98628" lon="-1.30186">
        <ele>2.4000000953674</ele>
        <time>2021-11-09T08:48:20.000Z</time>
      </trkpt>
      <trkpt lat="45.98627" lon="-1.30204">
        <ele>2.4000000953674</ele>
        <time>2021-11-09T08:48:22.000Z</time>
      </trkpt>
      <trkpt lat="45.98626" lon="-1.30216">
        <ele>2.4000000953674</ele>
        <time>2021-11-09T08:48:23.000Z</time>
      </trkpt>
      <trkpt lat="45.98625" lon="-1.30227">
        <ele>2.4000000953674</ele>
        <time>2021-11-09T08:48:24.000Z</time>
      </trkpt>
      <trkpt lat="45.98626" lon="-1.30257">
        <ele>2.5999999046326</ele>
        <time>2021-11-09T08:48:27.000Z</time>
      </trkpt>
      <trkpt lat="45.98625" lon="-1.30267">
        <ele>2.5999999046326</ele>
        <time>2021-11-09T08:48:28.000Z</time>
      </trkpt>
      <trkpt lat="45.98623" lon="-1.30277">
        <ele>2.5999999046326</ele>
        <time>2021-11-09T08:48:29.000Z</time>
      </trkpt>
      <trkpt lat="45.98618" lon="-1.30307">
        <ele>2.7999999523163</ele>
        <time>2021-11-09T08:48:32.000Z</time>
      </trkpt>
      <trkpt lat="45.98617" lon="-1.30317">
        <ele>3</ele>
        <time>2021-11-09T08:48:33.000Z</time>
      </trkpt>
      <trkpt lat="45.98611" lon="-1.30335">
        <ele>3</ele>
        <time>2021-11-09T08:48:35.000Z</time>
      </trkpt>
      <trkpt lat="45.98604" lon="-1.30351">
        <ele>3</ele>
        <time>2021-11-09T08:48:37.000Z</time>
      </trkpt>
      <trkpt lat="45.98601" lon="-1.30359">
        <ele>3</ele>
        <time>2021-11-09T08:48:38.000Z</time>
      </trkpt>
      <trkpt lat="45.98593" lon="-1.30387">
        <ele>3</ele>
        <time>2021-11-09T08:48:41.000Z</time>
      </trkpt>
      <trkpt lat="45.98594" lon="-1.30397">
        <ele>3</ele>
        <time>2021-11-09T08:48:42.000Z</time>
      </trkpt>
      <trkpt lat="45.98589" lon="-1.30418">
        <ele>3</ele>
        <time>2021-11-09T08:48:44.000Z</time>
      </trkpt>
      <trkpt lat="45.98589" lon="-1.30438">
        <ele>2.7999999523163</ele>
        <time>2021-11-09T08:48:46.000Z</time>
      </trkpt>
      <trkpt lat="45.98587" lon="-1.30456">
        <ele>3</ele>
        <time>2021-11-09T08:48:48.000Z</time>
      </trkpt>
      <trkpt lat="45.98587" lon="-1.30472">
        <ele>2.7999999523163</ele>
        <time>2021-11-09T08:48:50.000Z</time>
      </trkpt>
      <trkpt lat="45.98588" lon="-1.30479">
        <ele>3.2000000476837</ele>
        <time>2021-11-09T08:48:51.000Z</time>
      </trkpt>
      <trkpt lat="45.98592" lon="-1.30502">
        <ele>3.7999999523163</ele>
        <time>2021-11-09T08:48:54.000Z</time>
      </trkpt>
      <trkpt lat="45.98597" lon="-1.30534">
        <ele>3.7999999523163</ele>
        <time>2021-11-09T08:48:58.000Z</time>
      </trkpt>
      <trkpt lat="45.98598" lon="-1.30543">
        <ele>3.7999999523163</ele>
        <time>2021-11-09T08:48:59.000Z</time>
      </trkpt>
      <trkpt lat="45.98603" lon="-1.30576">
        <ele>3.7999999523163</ele>
        <time>2021-11-09T08:49:03.000Z</time>
      </trkpt>
      <trkpt lat="45.98603" lon="-1.30584">
        <ele>3.7999999523163</ele>
        <time>2021-11-09T08:49:04.000Z</time>
      </trkpt>
      <trkpt lat="45.98604" lon="-1.30633">
        <ele>3.4000000953674</ele>
        <time>2021-11-09T08:49:11.000Z</time>
      </trkpt>
      <trkpt lat="45.98604" lon="-1.30668">
        <ele>3.4000000953674</ele>
        <time>2021-11-09T08:49:15.000Z</time>
      </trkpt>
      <trkpt lat="45.98602" lon="-1.30674">
        <ele>3.4000000953674</ele>
        <time>2021-11-09T08:49:16.000Z</time>
      </trkpt>
      <trkpt lat="45.98597" lon="-1.30686">
        <ele>3.4000000953674</ele>
        <time>2021-11-09T08:49:18.000Z</time>
      </trkpt>
      <trkpt lat="45.98597" lon="-1.30694">
        <ele>3.2000000476837</ele>
        <time>2021-11-09T08:49:19.000Z</time>
      </trkpt>
      <trkpt lat="45.98604" lon="-1.30735">
        <ele>3.2000000476837</ele>
        <time>2021-11-09T08:49:24.000Z</time>
      </trkpt>
      <trkpt lat="45.98609" lon="-1.30761">
        <ele>3</ele>
        <time>2021-11-09T08:49:27.000Z</time>
      </trkpt>
      <trkpt lat="45.98609" lon="-1.30773">
        <ele>3</ele>
        <time>2021-11-09T08:49:28.000Z</time>
      </trkpt>
      <trkpt lat="45.98611" lon="-1.3081">
        <ele>2.5999999046326</ele>
        <time>2021-11-09T08:49:32.000Z</time>
      </trkpt>
      <trkpt lat="45.98613" lon="-1.30819">
        <ele>2.5999999046326</ele>
        <time>2021-11-09T08:49:33.000Z</time>
      </trkpt>
      <trkpt lat="45.98616" lon="-1.30837">
        <ele>2.5999999046326</ele>
        <time>2021-11-09T08:49:35.000Z</time>
      </trkpt>
      <trkpt lat="45.9862" lon="-1.30851">
        <ele>2.5999999046326</ele>
        <time>2021-11-09T08:49:37.000Z</time>
      </trkpt>
      <trkpt lat="45.98621" lon="-1.30858">
        <ele>2.5999999046326</ele>
        <time>2021-11-09T08:49:38.000Z</time>
      </trkpt>
      <trkpt lat="45.98622" lon="-1.30865">
        <ele>2.5999999046326</ele>
        <time>2021-11-09T08:49:39.000Z</time>
      </trkpt>
      <trkpt lat="45.98627" lon="-1.30874">
        <ele>2.2000000476837</ele>
        <time>2021-11-09T08:49:41.000Z</time>
      </trkpt>
      <trkpt lat="45.98649" lon="-1.30884">
        <ele>2</ele>
        <time>2021-11-09T08:49:46.000Z</time>
      </trkpt>
      <trkpt lat="45.98661" lon="-1.30884">
        <ele>1.6000000238419</ele>
        <time>2021-11-09T08:49:48.000Z</time>
      </trkpt>
      <trkpt lat="45.98667" lon="-1.30885">
        <ele>1.6000000238419</ele>
        <time>2021-11-09T08:49:49.000Z</time>
      </trkpt>
      <trkpt lat="45.98673" lon="-1.30887">
        <ele>1.6000000238419</ele>
        <time>2021-11-09T08:49:50.000Z</time>
      </trkpt>
      <trkpt lat="45.98685" lon="-1.30892">
        <ele>1.6000000238419</ele>
        <time>2021-11-09T08:49:52.000Z</time>
      </trkpt>
      <trkpt lat="45.98698" lon="-1.30892">
        <ele>1.3999999761581</ele>
        <time>2021-11-09T08:49:54.000Z</time>
      </trkpt>
      <trkpt lat="45.98703" lon="-1.30892">
        <ele>1.2000000476837</ele>
        <time>2021-11-09T08:49:55.000Z</time>
      </trkpt>
      <trkpt lat="45.98715" lon="-1.309">
        <ele>1.2000000476837</ele>
        <time>2021-11-09T08:49:57.000Z</time>
      </trkpt>
      <trkpt lat="45.98728" lon="-1.30909">
        <ele>1.2000000476837</ele>
        <time>2021-11-09T08:49:59.000Z</time>
      </trkpt>
      <trkpt lat="45.98742" lon="-1.30914">
        <ele>1.2000000476837</ele>
        <time>2021-11-09T08:50:01.000Z</time>
      </trkpt>
      <trkpt lat="45.98749" lon="-1.30917">
        <ele>1</ele>
        <time>2021-11-09T08:50:02.000Z</time>
      </trkpt>
      <trkpt lat="45.98759" lon="-1.30931">
        <ele>1</ele>
        <time>2021-11-09T08:50:04.000Z</time>
      </trkpt>
      <trkpt lat="45.98768" lon="-1.30945">
        <ele>1</ele>
        <time>2021-11-09T08:50:06.000Z</time>
      </trkpt>
      <trkpt lat="45.98775" lon="-1.30949">
        <ele>1</ele>
        <time>2021-11-09T08:50:07.000Z</time>
      </trkpt>
      <trkpt lat="45.98818" lon="-1.30979">
        <ele>0.80000001192093</ele>
        <time>2021-11-09T08:50:13.000Z</time>
      </trkpt>
      <trkpt lat="45.98841" lon="-1.30996">
        <ele>1</ele>
        <time>2021-11-09T08:50:17.000Z</time>
      </trkpt>
      <trkpt lat="45.98848" lon="-1.30998">
        <ele>1</ele>
        <time>2021-11-09T08:50:18.000Z</time>
      </trkpt>
      <trkpt lat="45.98853" lon="-1.30998">
        <ele>1</ele>
        <time>2021-11-09T08:50:19.000Z</time>
      </trkpt>
      <trkpt lat="45.98864" lon="-1.30997">
        <ele>1</ele>
        <time>2021-11-09T08:50:21.000Z</time>
      </trkpt>
      <trkpt lat="45.98871" lon="-1.31005">
        <ele>1.2000000476837</ele>
        <time>2021-11-09T08:50:23.000Z</time>
      </trkpt>
      <trkpt lat="45.98873" lon="-1.31012">
        <ele>1.2000000476837</ele>
        <time>2021-11-09T08:50:24.000Z</time>
      </trkpt>
      <trkpt lat="45.98876" lon="-1.31017">
        <ele>1.2000000476837</ele>
        <time>2021-11-09T08:50:25.000Z</time>
      </trkpt>
      <trkpt lat="45.98883" lon="-1.31024">
        <ele>1.3999999761581</ele>
        <time>2021-11-09T08:50:27.000Z</time>
      </trkpt>
      <trkpt lat="45.98889" lon="-1.31027">
        <ele>1.3999999761581</ele>
        <time>2021-11-09T08:50:28.000Z</time>
      </trkpt>
      <trkpt lat="45.98895" lon="-1.3103">
        <ele>1.3999999761581</ele>
        <time>2021-11-09T08:50:29.000Z</time>
      </trkpt>
      <trkpt lat="45.9891" lon="-1.31043">
        <ele>1.3999999761581</ele>
        <time>2021-11-09T08:50:31.000Z</time>
      </trkpt>
      <trkpt lat="45.9893" lon="-1.31063">
        <ele>1.3999999761581</ele>
        <time>2021-11-09T08:50:34.000Z</time>
      </trkpt>
      <trkpt lat="45.98936" lon="-1.3107">
        <ele>1.3999999761581</ele>
        <time>2021-11-09T08:50:35.000Z</time>
      </trkpt>
      <trkpt lat="45.98943" lon="-1.31077">
        <ele>1.2000000476837</ele>
        <time>2021-11-09T08:50:36.000Z</time>
      </trkpt>
      <trkpt lat="45.98956" lon="-1.31082">
        <ele>1.2000000476837</ele>
        <time>2021-11-09T08:50:38.000Z</time>
      </trkpt>
      <trkpt lat="45.98968" lon="-1.31084">
        <ele>1.3999999761581</ele>
        <time>2021-11-09T08:50:40.000Z</time>
      </trkpt>
      <trkpt lat="45.98974" lon="-1.31087">
        <ele>1.3999999761581</ele>
        <time>2021-11-09T08:50:41.000Z</time>
      </trkpt>
      <trkpt lat="45.98982" lon="-1.31092">
        <ele>1.3999999761581</ele>
        <time>2021-11-09T08:50:42.000Z</time>
      </trkpt>
      <trkpt lat="45.99006" lon="-1.31107">
        <ele>1.2000000476837</ele>
        <time>2021-11-09T08:50:45.000Z</time>
      </trkpt>
      <trkpt lat="45.99021" lon="-1.31113">
        <ele>1</ele>
        <time>2021-11-09T08:50:47.000Z</time>
      </trkpt>
      <trkpt lat="45.99036" lon="-1.31121">
        <ele>0.80000001192093</ele>
        <time>2021-11-09T08:50:49.000Z</time>
      </trkpt>
      <trkpt lat="45.99042" lon="-1.31126">
        <ele>0.60000002384186</ele>
        <time>2021-11-09T08:50:50.000Z</time>
      </trkpt>
      <trkpt lat="45.99052" lon="-1.31134">
        <ele>0.40000000596046</ele>
        <time>2021-11-09T08:50:52.000Z</time>
      </trkpt>
      <trkpt lat="45.99055" lon="-1.3114">
        <ele>0.20000000298023</ele>
        <time>2021-11-09T08:50:53.000Z</time>
      </trkpt>
      <trkpt lat="45.99068" lon="-1.31184">
        <ele>-0.40000000596046</ele>
        <time>2021-11-09T08:50:59.000Z</time>
      </trkpt>
      <trkpt lat="45.99073" lon="-1.31202">
        <ele>-0.60000002384186</ele>
        <time>2021-11-09T08:51:01.000Z</time>
      </trkpt>
      <trkpt lat="45.99079" lon="-1.31223">
        <ele>-1.2000000476837</ele>
        <time>2021-11-09T08:51:03.000Z</time>
      </trkpt>
      <trkpt lat="45.99084" lon="-1.31264">
        <ele>-1.3999999761581</ele>
        <time>2021-11-09T08:51:07.000Z</time>
      </trkpt>
      <trkpt lat="45.99081" lon="-1.31273">
        <ele>-1.6000000238419</ele>
        <time>2021-11-09T08:51:08.000Z</time>
      </trkpt>
      <trkpt lat="45.99077" lon="-1.31282">
        <ele>-1.6000000238419</ele>
        <time>2021-11-09T08:51:09.000Z</time>
      </trkpt>
      <trkpt lat="45.99071" lon="-1.31297">
        <ele>-2.2000000476837</ele>
        <time>2021-11-09T08:51:11.000Z</time>
      </trkpt>
      <trkpt lat="45.99071" lon="-1.31305">
        <ele>-2.2000000476837</ele>
        <time>2021-11-09T08:51:12.000Z</time>
      </trkpt>
      <trkpt lat="45.99073" lon="-1.31311">
        <ele>-2.4000000953674</ele>
        <time>2021-11-09T08:51:13.000Z</time>
      </trkpt>
      <trkpt lat="45.99081" lon="-1.31321">
        <ele>-2.4000000953674</ele>
        <time>2021-11-09T08:51:15.000Z</time>
      </trkpt>
      <trkpt lat="45.99092" lon="-1.3133">
        <ele>-2.5999999046326</ele>
        <time>2021-11-09T08:51:17.000Z</time>
      </trkpt>
      <trkpt lat="45.99104" lon="-1.31341">
        <ele>-2.5999999046326</ele>
        <time>2021-11-09T08:51:19.000Z</time>
      </trkpt>
      <trkpt lat="45.99122" lon="-1.3136">
        <ele>-2.7999999523163</ele>
        <time>2021-11-09T08:51:22.000Z</time>
      </trkpt>
      <trkpt lat="45.99134" lon="-1.31372">
        <ele>-2.7999999523163</ele>
        <time>2021-11-09T08:51:24.000Z</time>
      </trkpt>
      <trkpt lat="45.99138" lon="-1.31377">
        <ele>-2.7999999523163</ele>
        <time>2021-11-09T08:51:25.000Z</time>
      </trkpt>
      <trkpt lat="45.99144" lon="-1.31387">
        <ele>-3</ele>
        <time>2021-11-09T08:51:27.000Z</time>
      </trkpt>
      <trkpt lat="45.99144" lon="-1.31397">
        <ele>-3</ele>
        <time>2021-11-09T08:51:29.000Z</time>
      </trkpt>
      <trkpt lat="45.99142" lon="-1.31403">
        <ele>-3.2000000476837</ele>
        <time>2021-11-09T08:51:30.000Z</time>
      </trkpt>
      <trkpt lat="45.9914" lon="-1.31409">
        <ele>-3.2000000476837</ele>
        <time>2021-11-09T08:51:31.000Z</time>
      </trkpt>
      <trkpt lat="45.99138" lon="-1.31418">
        <ele>-3.2000000476837</ele>
        <time>2021-11-09T08:51:32.000Z</time>
      </trkpt>
      <trkpt lat="45.99136" lon="-1.31427">
        <ele>-3</ele>
        <time>2021-11-09T08:51:33.000Z</time>
      </trkpt>
      <trkpt lat="45.99122" lon="-1.31474">
        <ele>-3</ele>
        <time>2021-11-09T08:51:38.000Z</time>
      </trkpt>
      <trkpt lat="45.99106" lon="-1.31512">
        <ele>-3</ele>
        <time>2021-11-09T08:51:42.000Z</time>
      </trkpt>
      <trkpt lat="45.99096" lon="-1.31532">
        <ele>-3</ele>
        <time>2021-11-09T08:51:44.000Z</time>
      </trkpt>
      <trkpt lat="45.99069" lon="-1.31585">
        <ele>-3.5999999046326</ele>
        <time>2021-11-09T08:51:50.000Z</time>
      </trkpt>
      <trkpt lat="45.99064" lon="-1.31594">
        <ele>-3.5999999046326</ele>
        <time>2021-11-09T08:51:51.000Z</time>
      </trkpt>
      <trkpt lat="45.99045" lon="-1.31629">
        <ele>-4</ele>
        <time>2021-11-09T08:51:55.000Z</time>
      </trkpt>
      <trkpt lat="45.99009" lon="-1.31683">
        <ele>-3.7999999523163</ele>
        <time>2021-11-09T08:52:02.000Z</time>
      </trkpt>
      <trkpt lat="45.98964" lon="-1.31743">
        <ele>-3.7999999523163</ele>
        <time>2021-11-09T08:52:10.000Z</time>
      </trkpt>
      <trkpt lat="45.98958" lon="-1.31751">
        <ele>-3.7999999523163</ele>
        <time>2021-11-09T08:52:11.000Z</time>
      </trkpt>
      <trkpt lat="45.98914" lon="-1.31809">
        <ele>-3.7999999523163</ele>
        <time>2021-11-09T08:52:19.000Z</time>
      </trkpt>
      <trkpt lat="45.98869" lon="-1.31868">
        <ele>-3.5999999046326</ele>
        <time>2021-11-09T08:52:27.000Z</time>
      </trkpt>
      <trkpt lat="45.98848" lon="-1.31896">
        <ele>-3.7999999523163</ele>
        <time>2021-11-09T08:52:31.000Z</time>
      </trkpt>
      <trkpt lat="45.98845" lon="-1.31906">
        <ele>-4</ele>
        <time>2021-11-09T08:52:32.000Z</time>
      </trkpt>
      <trkpt lat="45.98844" lon="-1.31917">
        <ele>-4</ele>
        <time>2021-11-09T08:52:33.000Z</time>
      </trkpt>
      <trkpt lat="45.98846" lon="-1.31939">
        <ele>-4.1999998092651</ele>
        <time>2021-11-09T08:52:35.000Z</time>
      </trkpt>
      <trkpt lat="45.98854" lon="-1.32026">
        <ele>-4.5999999046326</ele>
        <time>2021-11-09T08:52:43.000Z</time>
      </trkpt>
      <trkpt lat="45.98856" lon="-1.32048">
        <ele>-4.5999999046326</ele>
        <time>2021-11-09T08:52:45.000Z</time>
      </trkpt>
      <trkpt lat="45.9886" lon="-1.3208">
        <ele>-4.5999999046326</ele>
        <time>2021-11-09T08:52:48.000Z</time>
      </trkpt>
      <trkpt lat="45.98864" lon="-1.32088">
        <ele>-4.5999999046326</ele>
        <time>2021-11-09T08:52:49.000Z</time>
      </trkpt>
      <trkpt lat="45.98869" lon="-1.32094">
        <ele>-4.8000001907349</ele>
        <time>2021-11-09T08:52:50.000Z</time>
      </trkpt>
      <trkpt lat="45.98874" lon="-1.32096">
        <ele>-4.8000001907349</ele>
        <time>2021-11-09T08:52:51.000Z</time>
      </trkpt>
      <trkpt lat="45.98881" lon="-1.32095">
        <ele>-5</ele>
        <time>2021-11-09T08:52:52.000Z</time>
      </trkpt>
      <trkpt lat="45.98888" lon="-1.32094">
        <ele>-5</ele>
        <time>2021-11-09T08:52:53.000Z</time>
      </trkpt>
      <trkpt lat="45.98896" lon="-1.32096">
        <ele>-5.1999998092651</ele>
        <time>2021-11-09T08:52:54.000Z</time>
      </trkpt>
      <trkpt lat="45.98921" lon="-1.32115">
        <ele>-5.1999998092651</ele>
        <time>2021-11-09T08:52:58.000Z</time>
      </trkpt>
      <trkpt lat="45.98952" lon="-1.32141">
        <ele>-5.5999999046326</ele>
        <time>2021-11-09T08:53:03.000Z</time>
      </trkpt>
      <trkpt lat="45.98963" lon="-1.3215">
        <ele>-5.8000001907349</ele>
        <time>2021-11-09T08:53:05.000Z</time>
      </trkpt>
      <trkpt lat="45.98973" lon="-1.32158">
        <ele>-6</ele>
        <time>2021-11-09T08:53:07.000Z</time>
      </trkpt>
      <trkpt lat="45.98977" lon="-1.32159">
        <ele>-6</ele>
        <time>2021-11-09T08:53:08.000Z</time>
      </trkpt>
      <trkpt lat="45.98981" lon="-1.32158">
        <ele>-6.1999998092651</ele>
        <time>2021-11-09T08:53:09.000Z</time>
      </trkpt>
      <trkpt lat="45.98992" lon="-1.32156">
        <ele>-6.8000001907349</ele>
        <time>2021-11-09T08:53:13.000Z</time>
      </trkpt>
      <trkpt lat="45.99" lon="-1.32171">
        <ele>-7</ele>
        <time>2021-11-09T08:53:17.000Z</time>
      </trkpt>
      <trkpt lat="45.99007" lon="-1.3218">
        <ele>-7</ele>
        <time>2021-11-09T08:53:20.000Z</time>
      </trkpt>
      <trkpt lat="45.99017" lon="-1.32191">
        <ele>-7.1999998092651</ele>
        <time>2021-11-09T08:53:24.000Z</time>
      </trkpt>
      <trkpt lat="45.99033" lon="-1.32219">
        <ele>-7</ele>
        <time>2021-11-09T08:53:32.000Z</time>
      </trkpt>
      <trkpt lat="45.99052" lon="-1.32258">
        <ele>-6.4000000953674</ele>
        <time>2021-11-09T08:53:41.000Z</time>
      </trkpt>
      <trkpt lat="45.99063" lon="-1.32283">
        <ele>-6.1999998092651</ele>
        <time>2021-11-09T08:53:47.000Z</time>
      </trkpt>
      <trkpt lat="45.99065" lon="-1.32288">
        <ele>-6.1999998092651</ele>
        <time>2021-11-09T08:53:48.000Z</time>
      </trkpt>
      <trkpt lat="45.99075" lon="-1.3232">
        <ele>-6</ele>
        <time>2021-11-09T08:53:55.000Z</time>
      </trkpt>
      <trkpt lat="45.99077" lon="-1.32357">
        <ele>-6.1999998092651</ele>
        <time>2021-11-09T08:54:02.000Z</time>
      </trkpt>
      <trkpt lat="45.99075" lon="-1.32395">
        <ele>-6.1999998092651</ele>
        <time>2021-11-09T08:54:09.000Z</time>
      </trkpt>
      <trkpt lat="45.99072" lon="-1.32445">
        <ele>-6</ele>
        <time>2021-11-09T08:54:19.000Z</time>
      </trkpt>
      <trkpt lat="45.99071" lon="-1.32454">
        <ele>-5.8000001907349</ele>
        <time>2021-11-09T08:54:21.000Z</time>
      </trkpt>
      <trkpt lat="45.99067" lon="-1.3248">
        <ele>-5.4000000953674</ele>
        <time>2021-11-09T08:54:26.000Z</time>
      </trkpt>
      <trkpt lat="45.99062" lon="-1.32503">
        <ele>-5.1999998092651</ele>
        <time>2021-11-09T08:54:30.000Z</time>
      </trkpt>
      <trkpt lat="45.99059" lon="-1.32512">
        <ele>-5.1999998092651</ele>
        <time>2021-11-09T08:54:32.000Z</time>
      </trkpt>
      <trkpt lat="45.99047" lon="-1.32548">
        <ele>-5</ele>
        <time>2021-11-09T08:54:38.000Z</time>
      </trkpt>
      <trkpt lat="45.99044" lon="-1.3256">
        <ele>-5</ele>
        <time>2021-11-09T08:54:40.000Z</time>
      </trkpt>
      <trkpt lat="45.99039" lon="-1.32578">
        <ele>-4.8000001907349</ele>
        <time>2021-11-09T08:54:43.000Z</time>
      </trkpt>
      <trkpt lat="45.99035" lon="-1.32592">
        <ele>-4.8000001907349</ele>
        <time>2021-11-09T08:54:45.000Z</time>
      </trkpt>
      <trkpt lat="45.99031" lon="-1.32608">
        <ele>-4.5999999046326</ele>
        <time>2021-11-09T08:54:47.000Z</time>
      </trkpt>
      <trkpt lat="45.99029" lon="-1.32617">
        <ele>-4.4000000953674</ele>
        <time>2021-11-09T08:54:48.000Z</time>
      </trkpt>
      <trkpt lat="45.99024" lon="-1.32636">
        <ele>-4.1999998092651</ele>
        <time>2021-11-09T08:54:50.000Z</time>
      </trkpt>
      <trkpt lat="45.99021" lon="-1.32645">
        <ele>-4.1999998092651</ele>
        <time>2021-11-09T08:54:51.000Z</time>
      </trkpt>
      <trkpt lat="45.99" lon="-1.32718">
        <ele>-4.1999998092651</ele>
        <time>2021-11-09T08:54:58.000Z</time>
      </trkpt>
      <trkpt lat="45.98984" lon="-1.32761">
        <ele>-4.1999998092651</ele>
        <time>2021-11-09T08:55:02.000Z</time>
      </trkpt>
      <trkpt lat="45.98979" lon="-1.32769">
        <ele>-4</ele>
        <time>2021-11-09T08:55:03.000Z</time>
      </trkpt>
      <trkpt lat="45.98973" lon="-1.32776">
        <ele>-4</ele>
        <time>2021-11-09T08:55:04.000Z</time>
      </trkpt>
      <trkpt lat="45.98962" lon="-1.32785">
        <ele>-4</ele>
        <time>2021-11-09T08:55:06.000Z</time>
      </trkpt>
      <trkpt lat="45.98955" lon="-1.32791">
        <ele>-4</ele>
        <time>2021-11-09T08:55:07.000Z</time>
      </trkpt>
      <trkpt lat="45.98953" lon="-1.32796">
        <ele>-4</ele>
        <time>2021-11-09T08:55:08.000Z</time>
      </trkpt>
      <trkpt lat="45.98952" lon="-1.32805">
        <ele>-4</ele>
        <time>2021-11-09T08:55:09.000Z</time>
      </trkpt>
      <trkpt lat="45.98953" lon="-1.32808">
        <ele>-3.7999999523163</ele>
        <time>2021-11-09T08:55:10.000Z</time>
      </trkpt>
      <trkpt lat="45.98957" lon="-1.32811">
        <ele>-3.7999999523163</ele>
        <time>2021-11-09T08:55:11.000Z</time>
      </trkpt>
      <trkpt lat="45.98969" lon="-1.32818">
        <ele>-3.7999999523163</ele>
        <time>2021-11-09T08:55:13.000Z</time>
      </trkpt>
      <trkpt lat="45.9898" lon="-1.32827">
        <ele>-3.5999999046326</ele>
        <time>2021-11-09T08:55:15.000Z</time>
      </trkpt>
      <trkpt lat="45.99029" lon="-1.32876">
        <ele>-3.4000000953674</ele>
        <time>2021-11-09T08:55:23.000Z</time>
      </trkpt>
      <trkpt lat="45.99035" lon="-1.32882">
        <ele>-3.2000000476837</ele>
        <time>2021-11-09T08:55:24.000Z</time>
      </trkpt>
      <trkpt lat="45.99047" lon="-1.32895">
        <ele>-3</ele>
        <time>2021-11-09T08:55:26.000Z</time>
      </trkpt>
      <trkpt lat="45.99081" lon="-1.32929">
        <ele>-2.7999999523163</ele>
        <time>2021-11-09T08:55:31.000Z</time>
      </trkpt>
      <trkpt lat="45.99127" lon="-1.32975">
        <ele>-2.4000000953674</ele>
        <time>2021-11-09T08:55:38.000Z</time>
      </trkpt>
      <trkpt lat="45.9914" lon="-1.32988">
        <ele>-2.2000000476837</ele>
        <time>2021-11-09T08:55:40.000Z</time>
      </trkpt>
      <trkpt lat="45.99185" lon="-1.33034">
        <ele>-1.6000000238419</ele>
        <time>2021-11-09T08:55:47.000Z</time>
      </trkpt>
      <trkpt lat="45.99203" lon="-1.33053">
        <ele>-1.6000000238419</ele>
        <time>2021-11-09T08:55:50.000Z</time>
      </trkpt>
      <trkpt lat="45.99224" lon="-1.33074">
        <ele>-1.2000000476837</ele>
        <time>2021-11-09T08:55:53.000Z</time>
      </trkpt>
      <trkpt lat="45.9927" lon="-1.33121">
        <ele>-1</ele>
        <time>2021-11-09T08:56:00.000Z</time>
      </trkpt>
      <trkpt lat="45.99315" lon="-1.33166">
        <ele>-0.60000002384186</ele>
        <time>2021-11-09T08:56:07.000Z</time>
      </trkpt>
      <trkpt lat="45.99334" lon="-1.33186">
        <ele>-0.40000000596046</ele>
        <time>2021-11-09T08:56:10.000Z</time>
      </trkpt>
      <trkpt lat="45.99359" lon="-1.33212">
        <ele>-0.20000000298023</ele>
        <time>2021-11-09T08:56:14.000Z</time>
      </trkpt>
      <trkpt lat="45.99409" lon="-1.33262">
        <ele>0.20000000298023</ele>
        <time>2021-11-09T08:56:22.000Z</time>
      </trkpt>
      <trkpt lat="45.99458" lon="-1.33312">
        <ele>0.40000000596046</ele>
        <time>2021-11-09T08:56:30.000Z</time>
      </trkpt>
      <trkpt lat="45.9947" lon="-1.33325">
        <ele>0.40000000596046</ele>
        <time>2021-11-09T08:56:32.000Z</time>
      </trkpt>
      <trkpt lat="45.99519" lon="-1.33376">
        <ele>0.80000001192093</ele>
        <time>2021-11-09T08:56:40.000Z</time>
      </trkpt>
      <trkpt lat="45.99526" lon="-1.33382">
        <ele>0.80000001192093</ele>
        <time>2021-11-09T08:56:41.000Z</time>
      </trkpt>
      <trkpt lat="45.99549" lon="-1.33403">
        <ele>0.80000001192093</ele>
        <time>2021-11-09T08:56:45.000Z</time>
      </trkpt>
      <trkpt lat="45.99552" lon="-1.3341">
        <ele>0.80000001192093</ele>
        <time>2021-11-09T08:56:46.000Z</time>
      </trkpt>
      <trkpt lat="45.99552" lon="-1.33418">
        <ele>0.60000002384186</ele>
        <time>2021-11-09T08:56:47.000Z</time>
      </trkpt>
      <trkpt lat="45.9955" lon="-1.33427">
        <ele>0.60000002384186</ele>
        <time>2021-11-09T08:56:48.000Z</time>
      </trkpt>
      <trkpt lat="45.99549" lon="-1.33436">
        <ele>0.60000002384186</ele>
        <time>2021-11-09T08:56:49.000Z</time>
      </trkpt>
      <trkpt lat="45.99551" lon="-1.33445">
        <ele>0.60000002384186</ele>
        <time>2021-11-09T08:56:50.000Z</time>
      </trkpt>
      <trkpt lat="45.99554" lon="-1.33453">
        <ele>0.60000002384186</ele>
        <time>2021-11-09T08:56:51.000Z</time>
      </trkpt>
      <trkpt lat="45.9956" lon="-1.33459">
        <ele>0.60000002384186</ele>
        <time>2021-11-09T08:56:52.000Z</time>
      </trkpt>
      <trkpt lat="45.99597" lon="-1.33497">
        <ele>0.20000000298023</ele>
        <time>2021-11-09T08:56:58.000Z</time>
      </trkpt>
      <trkpt lat="45.99611" lon="-1.33504">
        <ele>0.20000000298023</ele>
        <time>2021-11-09T08:57:00.000Z</time>
      </trkpt>
      <trkpt lat="45.99617" lon="-1.33504">
        <ele>2</ele>
        <time>2021-11-09T08:57:01.000Z</time>
      </trkpt>
      <trkpt lat="45.99623" lon="-1.33507">
        <ele>2</ele>
        <time>2021-11-09T08:57:02.000Z</time>
      </trkpt>
      <trkpt lat="45.99627" lon="-1.33512">
        <ele>-0.20000000298023</ele>
        <time>2021-11-09T08:57:03.000Z</time>
      </trkpt>
      <trkpt lat="45.99629" lon="-1.33519">
        <ele>-0.60000002384186</ele>
        <time>2021-11-09T08:57:04.000Z</time>
      </trkpt>
      <trkpt lat="45.99629" lon="-1.33525">
        <ele>-0.80000001192093</ele>
        <time>2021-11-09T08:57:05.000Z</time>
      </trkpt>
      <trkpt lat="45.99629" lon="-1.33533">
        <ele>-0.80000001192093</ele>
        <time>2021-11-09T08:57:06.000Z</time>
      </trkpt>
      <trkpt lat="45.99633" lon="-1.33544">
        <ele>-1</ele>
        <time>2021-11-09T08:57:08.000Z</time>
      </trkpt>
      <trkpt lat="45.99637" lon="-1.33547">
        <ele>-1.2000000476837</ele>
        <time>2021-11-09T08:57:09.000Z</time>
      </trkpt>
      <trkpt lat="45.99643" lon="-1.3355">
        <ele>-1.6000000238419</ele>
        <time>2021-11-09T08:57:10.000Z</time>
      </trkpt>
      <trkpt lat="45.99649" lon="-1.33553">
        <ele>-2</ele>
        <time>2021-11-09T08:57:11.000Z</time>
      </trkpt>
      <trkpt lat="45.99661" lon="-1.33564">
        <ele>-2.4000000953674</ele>
        <time>2021-11-09T08:57:13.000Z</time>
      </trkpt>
      <trkpt lat="45.99679" lon="-1.33581">
        <ele>-2.7999999523163</ele>
        <time>2021-11-09T08:57:16.000Z</time>
      </trkpt>
      <trkpt lat="45.99704" lon="-1.33604">
        <ele>-3.4000000953674</ele>
        <time>2021-11-09T08:57:20.000Z</time>
      </trkpt>
      <trkpt lat="45.99736" lon="-1.33635">
        <ele>-3.5999999046326</ele>
        <time>2021-11-09T08:57:25.000Z</time>
      </trkpt>
      <trkpt lat="45.99788" lon="-1.33685">
        <ele>-3.2000000476837</ele>
        <time>2021-11-09T08:57:33.000Z</time>
      </trkpt>
      <trkpt lat="45.99793" lon="-1.3369">
        <ele>-3.2000000476837</ele>
        <time>2021-11-09T08:57:34.000Z</time>
      </trkpt>
      <trkpt lat="45.99838" lon="-1.33734">
        <ele>-3</ele>
        <time>2021-11-09T08:57:41.000Z</time>
      </trkpt>
      <trkpt lat="45.99851" lon="-1.33746">
        <ele>-3</ele>
        <time>2021-11-09T08:57:43.000Z</time>
      </trkpt>
      <trkpt lat="45.99895" lon="-1.33789">
        <ele>-2.5999999046326</ele>
        <time>2021-11-09T08:57:50.000Z</time>
      </trkpt>
      <trkpt lat="45.9994" lon="-1.33834">
        <ele>-2.7999999523163</ele>
        <time>2021-11-09T08:57:57.000Z</time>
      </trkpt>
      <trkpt lat="45.99951" lon="-1.33845">
        <ele>-2.5999999046326</ele>
        <time>2021-11-09T08:57:59.000Z</time>
      </trkpt>
      <trkpt lat="45.99958" lon="-1.33851">
        <ele>-2.4000000953674</ele>
        <time>2021-11-09T08:58:00.000Z</time>
      </trkpt>
      <trkpt lat="45.99983" lon="-1.33875">
        <ele>-2.2000000476837</ele>
        <time>2021-11-09T08:58:04.000Z</time>
      </trkpt>
      <trkpt lat="46.00008" lon="-1.33901">
        <ele>-2.2000000476837</ele>
        <time>2021-11-09T08:58:08.000Z</time>
      </trkpt>
      <trkpt lat="46.00054" lon="-1.33946">
        <ele>-2.4000000953674</ele>
        <time>2021-11-09T08:58:15.000Z</time>
      </trkpt>
      <trkpt lat="46.001" lon="-1.3399">
        <ele>-2.4000000953674</ele>
        <time>2021-11-09T08:58:22.000Z</time>
      </trkpt>
      <trkpt lat="46.00104" lon="-1.33995">
        <ele>-2.4000000953674</ele>
        <time>2021-11-09T08:58:23.000Z</time>
      </trkpt>
      <trkpt lat="46.00135" lon="-1.34025">
        <ele>-2</ele>
        <time>2021-11-09T08:58:28.000Z</time>
      </trkpt>
      <trkpt lat="46.00182" lon="-1.34073">
        <ele>-1.7999999523163</ele>
        <time>2021-11-09T08:58:36.000Z</time>
      </trkpt>
      <trkpt lat="46.00188" lon="-1.3408">
        <ele>-1.7999999523163</ele>
        <time>2021-11-09T08:58:37.000Z</time>
      </trkpt>
      <trkpt lat="46.00238" lon="-1.3413">
        <ele>-2</ele>
        <time>2021-11-09T08:58:45.000Z</time>
      </trkpt>
      <trkpt lat="46.00242" lon="-1.34136">
        <ele>-2</ele>
        <time>2021-11-09T08:58:46.000Z</time>
      </trkpt>
      <trkpt lat="46.00255" lon="-1.3416">
        <ele>-2.2000000476837</ele>
        <time>2021-11-09T08:58:49.000Z</time>
      </trkpt>
      <trkpt lat="46.00256" lon="-1.34178">
        <ele>-2.2000000476837</ele>
        <time>2021-11-09T08:58:51.000Z</time>
      </trkpt>
      <trkpt lat="46.00252" lon="-1.34195">
        <ele>-2.2000000476837</ele>
        <time>2021-11-09T08:58:53.000Z</time>
      </trkpt>
      <trkpt lat="46.00253" lon="-1.34204">
        <ele>-2.2000000476837</ele>
        <time>2021-11-09T08:58:54.000Z</time>
      </trkpt>
      <trkpt lat="46.00257" lon="-1.3421">
        <ele>-2.4000000953674</ele>
        <time>2021-11-09T08:58:55.000Z</time>
      </trkpt>
      <trkpt lat="46.00267" lon="-1.34219">
        <ele>-2.5999999046326</ele>
        <time>2021-11-09T08:58:57.000Z</time>
      </trkpt>
      <trkpt lat="46.00271" lon="-1.34223">
        <ele>-2.5999999046326</ele>
        <time>2021-11-09T08:58:58.000Z</time>
      </trkpt>
      <trkpt lat="46.00273" lon="-1.34234">
        <ele>-2.7999999523163</ele>
        <time>2021-11-09T08:59:00.000Z</time>
      </trkpt>
      <trkpt lat="46.0027" lon="-1.3424">
        <ele>-3</ele>
        <time>2021-11-09T08:59:01.000Z</time>
      </trkpt>
      <trkpt lat="46.00259" lon="-1.3426">
        <ele>-3</ele>
        <time>2021-11-09T08:59:04.000Z</time>
      </trkpt>
      <trkpt lat="46.00235" lon="-1.34303">
        <ele>-3.2000000476837</ele>
        <time>2021-11-09T08:59:09.000Z</time>
      </trkpt>
      <trkpt lat="46.00231" lon="-1.34312">
        <ele>-3.4000000953674</ele>
        <time>2021-11-09T08:59:10.000Z</time>
      </trkpt>
      <trkpt lat="46.00201" lon="-1.34368">
        <ele>-4</ele>
        <time>2021-11-09T08:59:16.000Z</time>
      </trkpt>
      <trkpt lat="46.00191" lon="-1.34387">
        <ele>-4.4000000953674</ele>
        <time>2021-11-09T08:59:18.000Z</time>
      </trkpt>
      <trkpt lat="46.00157" lon="-1.34454">
        <ele>-5</ele>
        <time>2021-11-09T08:59:25.000Z</time>
      </trkpt>
      <trkpt lat="46.00152" lon="-1.34463">
        <ele>-5</ele>
        <time>2021-11-09T08:59:26.000Z</time>
      </trkpt>
      <trkpt lat="46.00118" lon="-1.3453">
        <ele>-5.1999998092651</ele>
        <time>2021-11-09T08:59:33.000Z</time>
      </trkpt>
      <trkpt lat="46.00084" lon="-1.34597">
        <ele>-5.1999998092651</ele>
        <time>2021-11-09T08:59:40.000Z</time>
      </trkpt>
      <trkpt lat="46.00049" lon="-1.34664">
        <ele>-5.1999998092651</ele>
        <time>2021-11-09T08:59:47.000Z</time>
      </trkpt>
      <trkpt lat="46.00021" lon="-1.34719">
        <ele>-5</ele>
        <time>2021-11-09T08:59:53.000Z</time>
      </trkpt>
      <trkpt lat="45.99986" lon="-1.34785">
        <ele>-4.8000001907349</ele>
        <time>2021-11-09T09:00:00.000Z</time>
      </trkpt>
      <trkpt lat="45.99976" lon="-1.34804">
        <ele>-4.5999999046326</ele>
        <time>2021-11-09T09:00:02.000Z</time>
      </trkpt>
      <trkpt lat="45.99947" lon="-1.34861">
        <ele>-4.1999998092651</ele>
        <time>2021-11-09T09:00:08.000Z</time>
      </trkpt>
      <trkpt lat="45.99911" lon="-1.34929">
        <ele>-4</ele>
        <time>2021-11-09T09:00:15.000Z</time>
      </trkpt>
      <trkpt lat="45.99906" lon="-1.34938">
        <ele>-4</ele>
        <time>2021-11-09T09:00:16.000Z</time>
      </trkpt>
      <trkpt lat="45.99873" lon="-1.35003">
        <ele>-4.4000000953674</ele>
        <time>2021-11-09T09:00:23.000Z</time>
      </trkpt>
      <trkpt lat="45.9986" lon="-1.35026">
        <ele>-4.4000000953674</ele>
        <time>2021-11-09T09:00:26.000Z</time>
      </trkpt>
      <trkpt lat="45.99857" lon="-1.35035">
        <ele>-4.4000000953674</ele>
        <time>2021-11-09T09:00:27.000Z</time>
      </trkpt>
      <trkpt lat="45.99856" lon="-1.35056">
        <ele>-4.5999999046326</ele>
        <time>2021-11-09T09:00:29.000Z</time>
      </trkpt>
      <trkpt lat="45.99865" lon="-1.35069">
        <ele>-4.5999999046326</ele>
        <time>2021-11-09T09:00:31.000Z</time>
      </trkpt>
      <trkpt lat="45.99905" lon="-1.35106">
        <ele>-4.8000001907349</ele>
        <time>2021-11-09T09:00:37.000Z</time>
      </trkpt>
      <trkpt lat="45.99953" lon="-1.35153">
        <ele>-4.8000001907349</ele>
        <time>2021-11-09T09:00:44.000Z</time>
      </trkpt>
      <trkpt lat="45.99965" lon="-1.35164">
        <ele>-4.8000001907349</ele>
        <time>2021-11-09T09:00:46.000Z</time>
      </trkpt>
      <trkpt lat="45.99972" lon="-1.35172">
        <ele>-4.5999999046326</ele>
        <time>2021-11-09T09:00:47.000Z</time>
      </trkpt>
      <trkpt lat="45.99984" lon="-1.35182">
        <ele>-4.4000000953674</ele>
        <time>2021-11-09T09:00:49.000Z</time>
      </trkpt>
      <trkpt lat="45.99996" lon="-1.35181">
        <ele>-4.4000000953674</ele>
        <time>2021-11-09T09:00:51.000Z</time>
      </trkpt>
      <trkpt lat="46.00003" lon="-1.35179">
        <ele>-4.4000000953674</ele>
        <time>2021-11-09T09:00:52.000Z</time>
      </trkpt>
      <trkpt lat="46.00011" lon="-1.35175">
        <ele>-4.4000000953674</ele>
        <time>2021-11-09T09:00:53.000Z</time>
      </trkpt>
      <trkpt lat="46.00035" lon="-1.35161">
        <ele>-4.1999998092651</ele>
        <time>2021-11-09T09:00:57.000Z</time>
      </trkpt>
      <trkpt lat="46.00045" lon="-1.35156">
        <ele>-4.1999998092651</ele>
        <time>2021-11-09T09:00:59.000Z</time>
      </trkpt>
      <trkpt lat="46.00056" lon="-1.35148">
        <ele>-3.7999999523163</ele>
        <time>2021-11-09T09:01:01.000Z</time>
      </trkpt>
      <trkpt lat="46.0006" lon="-1.35144">
        <ele>-3.5999999046326</ele>
        <time>2021-11-09T09:01:02.000Z</time>
      </trkpt>
      <trkpt lat="46.00065" lon="-1.35141">
        <ele>-3.4000000953674</ele>
        <time>2021-11-09T09:01:03.000Z</time>
      </trkpt>
      <trkpt lat="46.00073" lon="-1.35134">
        <ele>-3.2000000476837</ele>
        <time>2021-11-09T09:01:05.000Z</time>
      </trkpt>
      <trkpt lat="46.00089" lon="-1.35124">
        <ele>-3</ele>
        <time>2021-11-09T09:01:08.000Z</time>
      </trkpt>
      <trkpt lat="46.00093" lon="-1.35122">
        <ele>-3</ele>
        <time>2021-11-09T09:01:09.000Z</time>
      </trkpt>
      <trkpt lat="46.0011" lon="-1.35119">
        <ele>-3</ele>
        <time>2021-11-09T09:01:12.000Z</time>
      </trkpt>
      <trkpt lat="46.0012" lon="-1.35122">
        <ele>-2.7999999523163</ele>
        <time>2021-11-09T09:01:14.000Z</time>
      </trkpt>
      <trkpt lat="46.00126" lon="-1.35127">
        <ele>-2.5999999046326</ele>
        <time>2021-11-09T09:01:15.000Z</time>
      </trkpt>
      <trkpt lat="46.00135" lon="-1.35137">
        <ele>-2.2000000476837</ele>
        <time>2021-11-09T09:01:17.000Z</time>
      </trkpt>
      <trkpt lat="46.00143" lon="-1.3515">
        <ele>-1.7999999523163</ele>
        <time>2021-11-09T09:01:19.000Z</time>
      </trkpt>
      <trkpt lat="46.00147" lon="-1.35156">
        <ele>-1.3999999761581</ele>
        <time>2021-11-09T09:01:20.000Z</time>
      </trkpt>
      <trkpt lat="46.00155" lon="-1.3517">
        <ele>-1.2000000476837</ele>
        <time>2021-11-09T09:01:22.000Z</time>
      </trkpt>
      <trkpt lat="46.00173" lon="-1.35197">
        <ele>-1.2000000476837</ele>
        <time>2021-11-09T09:01:26.000Z</time>
      </trkpt>
      <trkpt lat="46.00181" lon="-1.35209">
        <ele>-1.2000000476837</ele>
        <time>2021-11-09T09:01:28.000Z</time>
      </trkpt>
      <trkpt lat="46.00194" lon="-1.35232">
        <ele>-1.2000000476837</ele>
        <time>2021-11-09T09:01:31.000Z</time>
      </trkpt>
      <trkpt lat="46.0021" lon="-1.35261">
        <ele>-1.2000000476837</ele>
        <time>2021-11-09T09:01:35.000Z</time>
      </trkpt>
      <trkpt lat="46.00219" lon="-1.35271">
        <ele>-1.2000000476837</ele>
        <time>2021-11-09T09:01:37.000Z</time>
      </trkpt>
      <trkpt lat="46.00235" lon="-1.35292">
        <ele>-1.2000000476837</ele>
        <time>2021-11-09T09:01:40.000Z</time>
      </trkpt>
      <trkpt lat="46.00248" lon="-1.35313">
        <ele>-1.2000000476837</ele>
        <time>2021-11-09T09:01:43.000Z</time>
      </trkpt>
      <trkpt lat="46.00271" lon="-1.35365">
        <ele>-0.80000001192093</ele>
        <time>2021-11-09T09:01:49.000Z</time>
      </trkpt>
      <trkpt lat="46.00279" lon="-1.35378">
        <ele>-0.80000001192093</ele>
        <time>2021-11-09T09:01:51.000Z</time>
      </trkpt>
      <trkpt lat="46.00289" lon="-1.3539">
        <ele>-0.80000001192093</ele>
        <time>2021-11-09T09:01:53.000Z</time>
      </trkpt>
      <trkpt lat="46.00301" lon="-1.35399">
        <ele>-0.80000001192093</ele>
        <time>2021-11-09T09:01:55.000Z</time>
      </trkpt>
      <trkpt lat="46.00312" lon="-1.35404">
        <ele>-0.60000002384186</ele>
        <time>2021-11-09T09:01:57.000Z</time>
      </trkpt>
      <trkpt lat="46.00357" lon="-1.35425">
        <ele>-0.60000002384186</ele>
        <time>2021-11-09T09:02:04.000Z</time>
      </trkpt>
      <trkpt lat="46.00362" lon="-1.35428">
        <ele>-0.60000002384186</ele>
        <time>2021-11-09T09:02:05.000Z</time>
      </trkpt>
      <trkpt lat="46.00368" lon="-1.35433">
        <ele>-0.60000002384186</ele>
        <time>2021-11-09T09:02:06.000Z</time>
      </trkpt>
      <trkpt lat="46.00379" lon="-1.35446">
        <ele>-0.80000001192093</ele>
        <time>2021-11-09T09:02:08.000Z</time>
      </trkpt>
      <trkpt lat="46.00383" lon="-1.35454">
        <ele>-0.80000001192093</ele>
        <time>2021-11-09T09:02:09.000Z</time>
      </trkpt>
      <trkpt lat="46.00413" lon="-1.35521">
        <ele>-1</ele>
        <time>2021-11-09T09:02:17.000Z</time>
      </trkpt>
      <trkpt lat="46.00433" lon="-1.3555">
        <ele>-0.60000002384186</ele>
        <time>2021-11-09T09:02:21.000Z</time>
      </trkpt>
      <trkpt lat="46.00441" lon="-1.35556">
        <ele>-1</ele>
        <time>2021-11-09T09:02:22.000Z</time>
      </trkpt>
      <trkpt lat="46.00491" lon="-1.35578">
        <ele>-0.80000001192093</ele>
        <time>2021-11-09T09:02:29.000Z</time>
      </trkpt>
      <trkpt lat="46.00547" lon="-1.35605">
        <ele>-0.40000000596046</ele>
        <time>2021-11-09T09:02:37.000Z</time>
      </trkpt>
      <trkpt lat="46.00577" lon="-1.3563">
        <ele>-0.80000001192093</ele>
        <time>2021-11-09T09:02:42.000Z</time>
      </trkpt>
      <trkpt lat="46.00603" lon="-1.35659">
        <ele>-0.80000001192093</ele>
        <time>2021-11-09T09:02:47.000Z</time>
      </trkpt>
      <trkpt lat="46.00616" lon="-1.35666">
        <ele>-0.60000002384186</ele>
        <time>2021-11-09T09:02:49.000Z</time>
      </trkpt>
      <trkpt lat="46.00643" lon="-1.35674">
        <ele>-0.20000000298023</ele>
        <time>2021-11-09T09:02:53.000Z</time>
      </trkpt>
      <trkpt lat="46.00663" lon="-1.35681">
        <ele>3.5</ele>
        <time>2021-11-09T09:02:56.000Z</time>
      </trkpt>
      <trkpt lat="46.00696" lon="-1.35698">
        <ele>3</ele>
        <time>2021-11-09T09:03:01.000Z</time>
      </trkpt>
      <trkpt lat="46.00709" lon="-1.35701">
        <ele>0.20000000298023</ele>
        <time>2021-11-09T09:03:03.000Z</time>
      </trkpt>
      <trkpt lat="46.00722" lon="-1.35699">
        <ele>0.20000000298023</ele>
        <time>2021-11-09T09:03:05.000Z</time>
      </trkpt>
      <trkpt lat="46.00749" lon="-1.35695">
        <ele>3</ele>
        <time>2021-11-09T09:03:09.000Z</time>
      </trkpt>
      <trkpt lat="46.00762" lon="-1.35699">
        <ele>3.3</ele>
        <time>2021-11-09T09:03:11.000Z</time>
      </trkpt>
      <trkpt lat="46.00774" lon="-1.35708">
        <ele>3.2</ele>
        <time>2021-11-09T09:03:13.000Z</time>
      </trkpt>
      <trkpt lat="46.00785" lon="-1.35719">
        <ele>-0.20000000298023</ele>
        <time>2021-11-09T09:03:15.000Z</time>
      </trkpt>
      <trkpt lat="46.00797" lon="-1.35721">
        <ele>-0.20000000298023</ele>
        <time>2021-11-09T09:03:17.000Z</time>
      </trkpt>
      <trkpt lat="46.00804" lon="-1.35709">
        <ele>-0.40000000596046</ele>
        <time>2021-11-09T09:03:19.000Z</time>
      </trkpt>
      <trkpt lat="46.00808" lon="-1.35701">
        <ele>-0.40000000596046</ele>
        <time>2021-11-09T09:03:20.000Z</time>
      </trkpt>
      <trkpt lat="46.00812" lon="-1.35684">
        <ele>-0.60000002384186</ele>
        <time>2021-11-09T09:03:22.000Z</time>
      </trkpt>
      <trkpt lat="46.00811" lon="-1.35676">
        <ele>-0.60000002384186</ele>
        <time>2021-11-09T09:03:23.000Z</time>
      </trkpt>
      <trkpt lat="46.00808" lon="-1.35668">
        <ele>-0.80000001192093</ele>
        <time>2021-11-09T09:03:24.000Z</time>
      </trkpt>
      <trkpt lat="46.008" lon="-1.35652">
        <ele>-1</ele>
        <time>2021-11-09T09:03:26.000Z</time>
      </trkpt>
      <trkpt lat="46.0078" lon="-1.35623">
        <ele>-1.2000000476837</ele>
        <time>2021-11-09T09:03:30.000Z</time>
      </trkpt>
      <trkpt lat="46.00776" lon="-1.35615">
        <ele>-1.3999999761581</ele>
        <time>2021-11-09T09:03:31.000Z</time>
      </trkpt>
      <trkpt lat="46.0077" lon="-1.35596">
        <ele>-1.3999999761581</ele>
        <time>2021-11-09T09:03:33.000Z</time>
      </trkpt>
      <trkpt lat="46.0077" lon="-1.35587">
        <ele>-1.3999999761581</ele>
        <time>2021-11-09T09:03:34.000Z</time>
      </trkpt>
      <trkpt lat="46.00771" lon="-1.35575">
        <ele>-1.6000000238419</ele>
        <time>2021-11-09T09:03:35.000Z</time>
      </trkpt>
      <trkpt lat="46.00775" lon="-1.35559">
        <ele>-1.7999999523163</ele>
        <time>2021-11-09T09:03:37.000Z</time>
      </trkpt>
      <trkpt lat="46.00784" lon="-1.35545">
        <ele>-2</ele>
        <time>2021-11-09T09:03:39.000Z</time>
      </trkpt>
      <trkpt lat="46.00789" lon="-1.3554">
        <ele>-2</ele>
        <time>2021-11-09T09:03:40.000Z</time>
      </trkpt>
      <trkpt lat="46.00808" lon="-1.35524">
        <ele>-2.2000000476837</ele>
        <time>2021-11-09T09:03:43.000Z</time>
      </trkpt>
      <trkpt lat="46.00833" lon="-1.35504">
        <ele>-2.5999999046326</ele>
        <time>2021-11-09T09:03:47.000Z</time>
      </trkpt>
      <trkpt lat="46.00882" lon="-1.35463">
        <ele>-3</ele>
        <time>2021-11-09T09:03:55.000Z</time>
      </trkpt>
      <trkpt lat="46.00905" lon="-1.35443">
        <ele>-3</ele>
        <time>2021-11-09T09:03:59.000Z</time>
      </trkpt>
      <trkpt lat="46.00955" lon="-1.35398">
        <ele>-2</ele>
        <time>2021-11-09T09:04:08.000Z</time>
      </trkpt>
      <trkpt lat="46.00986" lon="-1.35361">
        <ele>-1.2000000476837</ele>
        <time>2021-11-09T09:04:14.000Z</time>
      </trkpt>
      <trkpt lat="46.00997" lon="-1.35348">
        <ele>-1</ele>
        <time>2021-11-09T09:04:16.000Z</time>
      </trkpt>
      <trkpt lat="46.01038" lon="-1.353">
        <ele>-0.40000000596046</ele>
        <time>2021-11-09T09:04:23.000Z</time>
      </trkpt>
      <trkpt lat="46.01086" lon="-1.35246">
        <ele>-0.40000000596046</ele>
        <time>2021-11-09T09:04:31.000Z</time>
      </trkpt>
      <trkpt lat="46.01136" lon="-1.35202">
        <ele>-0.60000002384186</ele>
        <time>2021-11-09T09:04:39.000Z</time>
      </trkpt>
      <trkpt lat="46.01148" lon="-1.35194">
        <ele>-0.60000002384186</ele>
        <time>2021-11-09T09:04:41.000Z</time>
      </trkpt>
      <trkpt lat="46.01174" lon="-1.35181">
        <ele>-0.40000000596046</ele>
        <time>2021-11-09T09:04:45.000Z</time>
      </trkpt>
      <trkpt lat="46.01181" lon="-1.35178">
        <ele>-0.20000000298023</ele>
        <time>2021-11-09T09:04:46.000Z</time>
      </trkpt>
      <trkpt lat="46.01192" lon="-1.35167">
        <ele>4</ele>
        <time>2021-11-09T09:04:48.000Z</time>
      </trkpt>
      <trkpt lat="46.01224" lon="-1.35129">
        <ele>0.60000002384186</ele>
        <time>2021-11-09T09:04:54.000Z</time>
      </trkpt>
      <trkpt lat="46.01263" lon="-1.35089">
        <ele>0.80000001192093</ele>
        <time>2021-11-09T09:05:01.000Z</time>
      </trkpt>
      <trkpt lat="46.01275" lon="-1.3508">
        <ele>1</ele>
        <time>2021-11-09T09:05:03.000Z</time>
      </trkpt>
      <trkpt lat="46.01305" lon="-1.35058">
        <ele>1.3999999761581</ele>
        <time>2021-11-09T09:05:08.000Z</time>
      </trkpt>
      <trkpt lat="46.01339" lon="-1.3503">
        <ele>2</ele>
        <time>2021-11-09T09:05:14.000Z</time>
      </trkpt>
      <trkpt lat="46.01344" lon="-1.35025">
        <ele>2.2000000476837</ele>
        <time>2021-11-09T09:05:15.000Z</time>
      </trkpt>
      <trkpt lat="46.01387" lon="-1.34989">
        <ele>3.2000000476837</ele>
        <time>2021-11-09T09:05:23.000Z</time>
      </trkpt>
      <trkpt lat="46.01418" lon="-1.34959">
        <ele>4</ele>
        <time>2021-11-09T09:05:29.000Z</time>
      </trkpt>
      <trkpt lat="46.01429" lon="-1.3495">
        <ele>4.1999998092651</ele>
        <time>2021-11-09T09:05:31.000Z</time>
      </trkpt>
      <trkpt lat="46.01447" lon="-1.34935">
        <ele>4.1999998092651</ele>
        <time>2021-11-09T09:05:35.000Z</time>
      </trkpt>
      <trkpt lat="46.0146" lon="-1.3493">
        <ele>4.8000001907349</ele>
        <time>2021-11-09T09:05:39.000Z</time>
      </trkpt>
      <trkpt lat="46.01462" lon="-1.3493">
        <ele>5</ele>
        <time>2021-11-09T09:05:42.000Z</time>
      </trkpt>
      <trkpt lat="46.01462" lon="-1.3493">
        <ele>5.1999998092651</ele>
        <time>2021-11-09T09:05:43.000Z</time>
      </trkpt>
      <trkpt lat="46.01462" lon="-1.3493">
        <ele>5.1999998092651</ele>
        <time>2021-11-09T09:05:44.000Z</time>
      </trkpt>
      <trkpt lat="46.01463" lon="-1.34929">
        <ele>3</ele>
        <time>2021-11-09T09:16:54.000Z</time>
      </trkpt>
      <trkpt lat="46.01467" lon="-1.34927">
        <ele>3</ele>
        <time>2021-11-09T09:16:56.000Z</time>
      </trkpt>
      <trkpt lat="46.01478" lon="-1.34918">
        <ele>3</ele>
        <time>2021-11-09T09:17:00.000Z</time>
      </trkpt>
      <trkpt lat="46.01488" lon="-1.3491">
        <ele>3</ele>
        <time>2021-11-09T09:17:02.000Z</time>
      </trkpt>
      <trkpt lat="46.01493" lon="-1.34905">
        <ele>3</ele>
        <time>2021-11-09T09:17:03.000Z</time>
      </trkpt>
      <trkpt lat="46.01506" lon="-1.34892">
        <ele>3.5999999046326</ele>
        <time>2021-11-09T09:17:06.000Z</time>
      </trkpt>
      <trkpt lat="46.01513" lon="-1.3488">
        <ele>4.4000000953674</ele>
        <time>2021-11-09T09:17:08.000Z</time>
      </trkpt>
      <trkpt lat="46.01516" lon="-1.34874">
        <ele>4.8000001907349</ele>
        <time>2021-11-09T09:17:09.000Z</time>
      </trkpt>
      <trkpt lat="46.01517" lon="-1.34867">
        <ele>5.4000000953674</ele>
        <time>2021-11-09T09:17:10.000Z</time>
      </trkpt>
      <trkpt lat="46.01518" lon="-1.34852">
        <ele>6.1999998092651</ele>
        <time>2021-11-09T09:17:12.000Z</time>
      </trkpt>
      <trkpt lat="46.01514" lon="-1.3483">
        <ele>7.1999998092651</ele>
        <time>2021-11-09T09:17:15.000Z</time>
      </trkpt>
      <trkpt lat="46.01512" lon="-1.34814">
        <ele>8.1999998092651</ele>
        <time>2021-11-09T09:17:17.000Z</time>
      </trkpt>
      <trkpt lat="46.01512" lon="-1.34807">
        <ele>8.3999996185303</ele>
        <time>2021-11-09T09:17:18.000Z</time>
      </trkpt>
      <trkpt lat="46.01513" lon="-1.34801">
        <ele>9</ele>
        <time>2021-11-09T09:17:19.000Z</time>
      </trkpt>
      <trkpt lat="46.01518" lon="-1.34791">
        <ele>9.8000001907349</ele>
        <time>2021-11-09T09:17:21.000Z</time>
      </trkpt>
      <trkpt lat="46.01523" lon="-1.34785">
        <ele>10.199999809265</ele>
        <time>2021-11-09T09:17:23.000Z</time>
      </trkpt>
      <trkpt lat="46.01527" lon="-1.34783">
        <ele>10.199999809265</ele>
        <time>2021-11-09T09:17:24.000Z</time>
      </trkpt>
      <trkpt lat="46.01532" lon="-1.34779">
        <ele>11</ele>
        <time>2021-11-09T09:17:25.000Z</time>
      </trkpt>
      <trkpt lat="46.01544" lon="-1.34768">
        <ele>12</ele>
        <time>2021-11-09T09:17:28.000Z</time>
      </trkpt>
      <trkpt lat="46.01549" lon="-1.34764">
        <ele>12.39999961853</ele>
        <time>2021-11-09T09:17:29.000Z</time>
      </trkpt>
      <trkpt lat="46.01553" lon="-1.34751">
        <ele>13.199999809265</ele>
        <time>2021-11-09T09:17:31.000Z</time>
      </trkpt>
      <trkpt lat="46.01547" lon="-1.34731">
        <ele>14</ele>
        <time>2021-11-09T09:17:34.000Z</time>
      </trkpt>
      <trkpt lat="46.01544" lon="-1.34725">
        <ele>14.199999809265</ele>
        <time>2021-11-09T09:17:35.000Z</time>
      </trkpt>
      <trkpt lat="46.0154" lon="-1.34719">
        <ele>14.199999809265</ele>
        <time>2021-11-09T09:17:36.000Z</time>
      </trkpt>
      <trkpt lat="46.01533" lon="-1.34697">
        <ele>14.800000190735</ele>
        <time>2021-11-09T09:17:39.000Z</time>
      </trkpt>
      <trkpt lat="46.0153" lon="-1.34688">
        <ele>14.800000190735</ele>
        <time>2021-11-09T09:17:40.000Z</time>
      </trkpt>
      <trkpt lat="46.01524" lon="-1.34662">
        <ele>15.199999809265</ele>
        <time>2021-11-09T09:17:43.000Z</time>
      </trkpt>
      <trkpt lat="46.01522" lon="-1.34653">
        <ele>15.39999961853</ele>
        <time>2021-11-09T09:17:44.000Z</time>
      </trkpt>
      <trkpt lat="46.01513" lon="-1.34621">
        <ele>16</ele>
        <time>2021-11-09T09:17:48.000Z</time>
      </trkpt>
      <trkpt lat="46.01513" lon="-1.34614">
        <ele>16.39999961853</ele>
        <time>2021-11-09T09:17:49.000Z</time>
      </trkpt>
      <trkpt lat="46.01515" lon="-1.34608">
        <ele>16.799999237061</ele>
        <time>2021-11-09T09:17:50.000Z</time>
      </trkpt>
      <trkpt lat="46.01519" lon="-1.34603">
        <ele>17</ele>
        <time>2021-11-09T09:17:51.000Z</time>
      </trkpt>
      <trkpt lat="46.01524" lon="-1.346">
        <ele>17.39999961853</ele>
        <time>2021-11-09T09:17:52.000Z</time>
      </trkpt>
      <trkpt lat="46.0154" lon="-1.3459">
        <ele>18.200000762939</ele>
        <time>2021-11-09T09:17:55.000Z</time>
      </trkpt>
      <trkpt lat="46.01554" lon="-1.34581">
        <ele>18.60000038147</ele>
        <time>2021-11-09T09:17:58.000Z</time>
      </trkpt>
      <trkpt lat="46.01565" lon="-1.3458">
        <ele>18.799999237061</ele>
        <time>2021-11-09T09:18:00.000Z</time>
      </trkpt>
      <trkpt lat="46.01578" lon="-1.34583">
        <ele>18.799999237061</ele>
        <time>2021-11-09T09:18:02.000Z</time>
      </trkpt>
      <trkpt lat="46.0159" lon="-1.34588">
        <ele>19.200000762939</ele>
        <time>2021-11-09T09:18:04.000Z</time>
      </trkpt>
      <trkpt lat="46.01594" lon="-1.34592">
        <ele>19.39999961853</ele>
        <time>2021-11-09T09:18:05.000Z</time>
      </trkpt>
      <trkpt lat="46.01598" lon="-1.34596">
        <ele>19.39999961853</ele>
        <time>2021-11-09T09:18:06.000Z</time>
      </trkpt>
      <trkpt lat="46.01604" lon="-1.34606">
        <ele>20</ele>
        <time>2021-11-09T09:18:08.000Z</time>
      </trkpt>
      <trkpt lat="46.01608" lon="-1.3461">
        <ele>20.200000762939</ele>
        <time>2021-11-09T09:18:09.000Z</time>
      </trkpt>
      <trkpt lat="46.01612" lon="-1.34615">
        <ele>20.60000038147</ele>
        <time>2021-11-09T09:18:10.000Z</time>
      </trkpt>
      <trkpt lat="46.01622" lon="-1.34632">
        <ele>21.200000762939</ele>
        <time>2021-11-09T09:18:13.000Z</time>
      </trkpt>
      <trkpt lat="46.01635" lon="-1.34682">
        <ele>21.60000038147</ele>
        <time>2021-11-09T09:18:19.000Z</time>
      </trkpt>
      <trkpt lat="46.01643" lon="-1.34709">
        <ele>21.60000038147</ele>
        <time>2021-11-09T09:18:22.000Z</time>
      </trkpt>
      <trkpt lat="46.01651" lon="-1.34736">
        <ele>21.39999961853</ele>
        <time>2021-11-09T09:18:25.000Z</time>
      </trkpt>
      <trkpt lat="46.01672" lon="-1.348">
        <ele>21</ele>
        <time>2021-11-09T09:18:32.000Z</time>
      </trkpt>
      <trkpt lat="46.0169" lon="-1.34861">
        <ele>21.60000038147</ele>
        <time>2021-11-09T09:18:38.000Z</time>
      </trkpt>
      <trkpt lat="46.01704" lon="-1.349">
        <ele>21.39999961853</ele>
        <time>2021-11-09T09:18:42.000Z</time>
      </trkpt>
      <trkpt lat="46.01716" lon="-1.34928">
        <ele>21.39999961853</ele>
        <time>2021-11-09T09:18:45.000Z</time>
      </trkpt>
      <trkpt lat="46.01729" lon="-1.34952">
        <ele>21.200000762939</ele>
        <time>2021-11-09T09:18:48.000Z</time>
      </trkpt>
      <trkpt lat="46.01734" lon="-1.34956">
        <ele>21.200000762939</ele>
        <time>2021-11-09T09:18:49.000Z</time>
      </trkpt>
      <trkpt lat="46.0174" lon="-1.34958">
        <ele>20.799999237061</ele>
        <time>2021-11-09T09:18:50.000Z</time>
      </trkpt>
      <trkpt lat="46.01751" lon="-1.34961">
        <ele>20.799999237061</ele>
        <time>2021-11-09T09:18:52.000Z</time>
      </trkpt>
      <trkpt lat="46.01755" lon="-1.34966">
        <ele>20.799999237061</ele>
        <time>2021-11-09T09:18:53.000Z</time>
      </trkpt>
      <trkpt lat="46.01766" lon="-1.34989">
        <ele>20.799999237061</ele>
        <time>2021-11-09T09:18:56.000Z</time>
      </trkpt>
      <trkpt lat="46.01778" lon="-1.35015">
        <ele>20.39999961853</ele>
        <time>2021-11-09T09:18:59.000Z</time>
      </trkpt>
      <trkpt lat="46.01789" lon="-1.35041">
        <ele>20.60000038147</ele>
        <time>2021-11-09T09:19:02.000Z</time>
      </trkpt>
      <trkpt lat="46.01799" lon="-1.35059">
        <ele>20.60000038147</ele>
        <time>2021-11-09T09:19:04.000Z</time>
      </trkpt>
      <trkpt lat="46.01814" lon="-1.35083">
        <ele>20.60000038147</ele>
        <time>2021-11-09T09:19:07.000Z</time>
      </trkpt>
      <trkpt lat="46.01825" lon="-1.35097">
        <ele>20.799999237061</ele>
        <time>2021-11-09T09:19:09.000Z</time>
      </trkpt>
      <trkpt lat="46.0184" lon="-1.35115">
        <ele>21</ele>
        <time>2021-11-09T09:19:12.000Z</time>
      </trkpt>
      <trkpt lat="46.01847" lon="-1.35127">
        <ele>21</ele>
        <time>2021-11-09T09:19:14.000Z</time>
      </trkpt>
      <trkpt lat="46.01853" lon="-1.35139">
        <ele>20.799999237061</ele>
        <time>2021-11-09T09:19:16.000Z</time>
      </trkpt>
      <trkpt lat="46.01858" lon="-1.3515">
        <ele>20.799999237061</ele>
        <time>2021-11-09T09:19:18.000Z</time>
      </trkpt>
      <trkpt lat="46.01862" lon="-1.35157">
        <ele>20.799999237061</ele>
        <time>2021-11-09T09:19:19.000Z</time>
      </trkpt>
      <trkpt lat="46.01884" lon="-1.35193">
        <ele>21.200000762939</ele>
        <time>2021-11-09T09:19:24.000Z</time>
      </trkpt>
      <trkpt lat="46.01909" lon="-1.35233">
        <ele>21</ele>
        <time>2021-11-09T09:19:29.000Z</time>
      </trkpt>
      <trkpt lat="46.01929" lon="-1.35266">
        <ele>21</ele>
        <time>2021-11-09T09:19:33.000Z</time>
      </trkpt>
      <trkpt lat="46.01965" lon="-1.3532">
        <ele>20.60000038147</ele>
        <time>2021-11-09T09:19:40.000Z</time>
      </trkpt>
      <trkpt lat="46.02006" lon="-1.35381">
        <ele>20.799999237061</ele>
        <time>2021-11-09T09:19:48.000Z</time>
      </trkpt>
      <trkpt lat="46.02031" lon="-1.3542">
        <ele>20.200000762939</ele>
        <time>2021-11-09T09:19:53.000Z</time>
      </trkpt>
      <trkpt lat="46.02036" lon="-1.35427">
        <ele>20</ele>
        <time>2021-11-09T09:19:54.000Z</time>
      </trkpt>
      <trkpt lat="46.02053" lon="-1.35447">
        <ele>20.200000762939</ele>
        <time>2021-11-09T09:19:57.000Z</time>
      </trkpt>
      <trkpt lat="46.02065" lon="-1.35459">
        <ele>20.200000762939</ele>
        <time>2021-11-09T09:19:59.000Z</time>
      </trkpt>
      <trkpt lat="46.02078" lon="-1.35468">
        <ele>20.39999961853</ele>
        <time>2021-11-09T09:20:01.000Z</time>
      </trkpt>
      <trkpt lat="46.02098" lon="-1.35477">
        <ele>20.200000762939</ele>
        <time>2021-11-09T09:20:04.000Z</time>
      </trkpt>
      <trkpt lat="46.02142" lon="-1.35489">
        <ele>20</ele>
        <time>2021-11-09T09:20:10.000Z</time>
      </trkpt>
      <trkpt lat="46.02175" lon="-1.35499">
        <ele>19</ele>
        <time>2021-11-09T09:20:15.000Z</time>
      </trkpt>
      <trkpt lat="46.02203" lon="-1.35508">
        <ele>18</ele>
        <time>2021-11-09T09:20:19.000Z</time>
      </trkpt>
      <trkpt lat="46.02235" lon="-1.35526">
        <ele>17.60000038147</ele>
        <time>2021-11-09T09:20:24.000Z</time>
      </trkpt>
      <trkpt lat="46.02245" lon="-1.35538">
        <ele>17.39999961853</ele>
        <time>2021-11-09T09:20:26.000Z</time>
      </trkpt>
      <trkpt lat="46.02258" lon="-1.35561">
        <ele>17.200000762939</ele>
        <time>2021-11-09T09:20:29.000Z</time>
      </trkpt>
      <trkpt lat="46.02262" lon="-1.3557">
        <ele>17.200000762939</ele>
        <time>2021-11-09T09:20:30.000Z</time>
      </trkpt>
      <trkpt lat="46.02267" lon="-1.35578">
        <ele>17.200000762939</ele>
        <time>2021-11-09T09:20:31.000Z</time>
      </trkpt>
      <trkpt lat="46.02283" lon="-1.35599">
        <ele>16.60000038147</ele>
        <time>2021-11-09T09:20:34.000Z</time>
      </trkpt>
      <trkpt lat="46.023" lon="-1.35623">
        <ele>16</ele>
        <time>2021-11-09T09:20:37.000Z</time>
      </trkpt>
      <trkpt lat="46.02322" lon="-1.35655">
        <ele>15.60000038147</ele>
        <time>2021-11-09T09:20:41.000Z</time>
      </trkpt>
      <trkpt lat="46.02352" lon="-1.35692">
        <ele>15.60000038147</ele>
        <time>2021-11-09T09:20:46.000Z</time>
      </trkpt>
      <trkpt lat="46.02359" lon="-1.35698">
        <ele>15.60000038147</ele>
        <time>2021-11-09T09:20:47.000Z</time>
      </trkpt>
      <trkpt lat="46.0241" lon="-1.35734">
        <ele>15.60000038147</ele>
        <time>2021-11-09T09:20:54.000Z</time>
      </trkpt>
      <trkpt lat="46.02423" lon="-1.35746">
        <ele>15.60000038147</ele>
        <time>2021-11-09T09:20:56.000Z</time>
      </trkpt>
      <trkpt lat="46.02434" lon="-1.35762">
        <ele>15.39999961853</ele>
        <time>2021-11-09T09:20:58.000Z</time>
      </trkpt>
      <trkpt lat="46.02443" lon="-1.35782">
        <ele>15.199999809265</ele>
        <time>2021-11-09T09:21:00.000Z</time>
      </trkpt>
      <trkpt lat="46.02451" lon="-1.35802">
        <ele>15.199999809265</ele>
        <time>2021-11-09T09:21:02.000Z</time>
      </trkpt>
      <trkpt lat="46.0246" lon="-1.35835">
        <ele>14.800000190735</ele>
        <time>2021-11-09T09:21:05.000Z</time>
      </trkpt>
      <trkpt lat="46.02469" lon="-1.35879">
        <ele>14.800000190735</ele>
        <time>2021-11-09T09:21:09.000Z</time>
      </trkpt>
      <trkpt lat="46.02475" lon="-1.35911">
        <ele>14.800000190735</ele>
        <time>2021-11-09T09:21:12.000Z</time>
      </trkpt>
      <trkpt lat="46.02488" lon="-1.35987">
        <ele>15</ele>
        <time>2021-11-09T09:21:19.000Z</time>
      </trkpt>
      <trkpt lat="46.02492" lon="-1.3601">
        <ele>15</ele>
        <time>2021-11-09T09:21:21.000Z</time>
      </trkpt>
      <trkpt lat="46.02494" lon="-1.36021">
        <ele>15</ele>
        <time>2021-11-09T09:21:22.000Z</time>
      </trkpt>
      <trkpt lat="46.02506" lon="-1.36052">
        <ele>15</ele>
        <time>2021-11-09T09:21:25.000Z</time>
      </trkpt>
      <trkpt lat="46.02533" lon="-1.36124">
        <ele>15</ele>
        <time>2021-11-09T09:21:32.000Z</time>
      </trkpt>
      <trkpt lat="46.02548" lon="-1.36174">
        <ele>14.199999809265</ele>
        <time>2021-11-09T09:21:37.000Z</time>
      </trkpt>
      <trkpt lat="46.02553" lon="-1.36195">
        <ele>13.60000038147</ele>
        <time>2021-11-09T09:21:39.000Z</time>
      </trkpt>
      <trkpt lat="46.02556" lon="-1.36206">
        <ele>13.39999961853</ele>
        <time>2021-11-09T09:21:40.000Z</time>
      </trkpt>
      <trkpt lat="46.02574" lon="-1.36255">
        <ele>12.800000190735</ele>
        <time>2021-11-09T09:21:45.000Z</time>
      </trkpt>
      <trkpt lat="46.02581" lon="-1.36273">
        <ele>12.800000190735</ele>
        <time>2021-11-09T09:21:47.000Z</time>
      </trkpt>
      <trkpt lat="46.02586" lon="-1.36294">
        <ele>12.60000038147</ele>
        <time>2021-11-09T09:21:49.000Z</time>
      </trkpt>
      <trkpt lat="46.02588" lon="-1.36304">
        <ele>12.39999961853</ele>
        <time>2021-11-09T09:21:50.000Z</time>
      </trkpt>
      <trkpt lat="46.02596" lon="-1.36322">
        <ele>12.39999961853</ele>
        <time>2021-11-09T09:21:52.000Z</time>
      </trkpt>
      <trkpt lat="46.02601" lon="-1.36331">
        <ele>12.39999961853</ele>
        <time>2021-11-09T09:21:53.000Z</time>
      </trkpt>
      <trkpt lat="46.02607" lon="-1.36339">
        <ele>12.39999961853</ele>
        <time>2021-11-09T09:21:54.000Z</time>
      </trkpt>
      <trkpt lat="46.02636" lon="-1.36377">
        <ele>12.39999961853</ele>
        <time>2021-11-09T09:21:59.000Z</time>
      </trkpt>
      <trkpt lat="46.02642" lon="-1.36383">
        <ele>12.39999961853</ele>
        <time>2021-11-09T09:22:00.000Z</time>
      </trkpt>
      <trkpt lat="46.02656" lon="-1.36394">
        <ele>12.39999961853</ele>
        <time>2021-11-09T09:22:02.000Z</time>
      </trkpt>
      <trkpt lat="46.02668" lon="-1.3641">
        <ele>12.39999961853</ele>
        <time>2021-11-09T09:22:04.000Z</time>
      </trkpt>
      <trkpt lat="46.02687" lon="-1.36463">
        <ele>12.39999961853</ele>
        <time>2021-11-09T09:22:09.000Z</time>
      </trkpt>
      <trkpt lat="46.02704" lon="-1.36517">
        <ele>12.199999809265</ele>
        <time>2021-11-09T09:22:14.000Z</time>
      </trkpt>
      <trkpt lat="46.02715" lon="-1.36547">
        <ele>11.800000190735</ele>
        <time>2021-11-09T09:22:17.000Z</time>
      </trkpt>
      <trkpt lat="46.02731" lon="-1.36586">
        <ele>11.39999961853</ele>
        <time>2021-11-09T09:22:21.000Z</time>
      </trkpt>
      <trkpt lat="46.02743" lon="-1.36615">
        <ele>11</ele>
        <time>2021-11-09T09:22:24.000Z</time>
      </trkpt>
      <trkpt lat="46.02765" lon="-1.36664">
        <ele>10.39999961853</ele>
        <time>2021-11-09T09:22:29.000Z</time>
      </trkpt>
      <trkpt lat="46.0277" lon="-1.36674">
        <ele>10.199999809265</ele>
        <time>2021-11-09T09:22:30.000Z</time>
      </trkpt>
      <trkpt lat="46.02792" lon="-1.36721">
        <ele>10</ele>
        <time>2021-11-09T09:22:35.000Z</time>
      </trkpt>
      <trkpt lat="46.02796" lon="-1.36729">
        <ele>10</ele>
        <time>2021-11-09T09:22:36.000Z</time>
      </trkpt>
      <trkpt lat="46.02831" lon="-1.36788">
        <ele>9.3999996185303</ele>
        <time>2021-11-09T09:22:43.000Z</time>
      </trkpt>
      <trkpt lat="46.02836" lon="-1.36797">
        <ele>9.3999996185303</ele>
        <time>2021-11-09T09:22:44.000Z</time>
      </trkpt>
      <trkpt lat="46.02875" lon="-1.36862">
        <ele>9.6000003814697</ele>
        <time>2021-11-09T09:22:51.000Z</time>
      </trkpt>
      <trkpt lat="46.0288" lon="-1.36871">
        <ele>9.6000003814697</ele>
        <time>2021-11-09T09:22:52.000Z</time>
      </trkpt>
      <trkpt lat="46.02904" lon="-1.36914">
        <ele>9.6000003814697</ele>
        <time>2021-11-09T09:22:57.000Z</time>
      </trkpt>
      <trkpt lat="46.02906" lon="-1.36923">
        <ele>9.6000003814697</ele>
        <time>2021-11-09T09:22:58.000Z</time>
      </trkpt>
      <trkpt lat="46.02908" lon="-1.3693">
        <ele>9.6000003814697</ele>
        <time>2021-11-09T09:22:59.000Z</time>
      </trkpt>
      <trkpt lat="46.02914" lon="-1.36942">
        <ele>9.6000003814697</ele>
        <time>2021-11-09T09:23:01.000Z</time>
      </trkpt>
      <trkpt lat="46.02928" lon="-1.36961">
        <ele>9.6000003814697</ele>
        <time>2021-11-09T09:23:04.000Z</time>
      </trkpt>
      <trkpt lat="46.02934" lon="-1.36968">
        <ele>9.6000003814697</ele>
        <time>2021-11-09T09:23:05.000Z</time>
      </trkpt>
      <trkpt lat="46.02959" lon="-1.37006">
        <ele>9.6000003814697</ele>
        <time>2021-11-09T09:23:10.000Z</time>
      </trkpt>
      <trkpt lat="46.02993" lon="-1.37053">
        <ele>8.8000001907349</ele>
        <time>2021-11-09T09:23:16.000Z</time>
      </trkpt>
      <trkpt lat="46.02999" lon="-1.37064">
        <ele>8.8000001907349</ele>
        <time>2021-11-09T09:23:17.000Z</time>
      </trkpt>
      <trkpt lat="46.03006" lon="-1.37081">
        <ele>8.8000001907349</ele>
        <time>2021-11-09T09:23:19.000Z</time>
      </trkpt>
      <trkpt lat="46.03009" lon="-1.37091">
        <ele>8.8000001907349</ele>
        <time>2021-11-09T09:23:20.000Z</time>
      </trkpt>
      <trkpt lat="46.03018" lon="-1.37132">
        <ele>5</ele>
      </trkpt>
      <trkpt lat="46.03018" lon="-1.37132">
        <ele>5</ele>
      </trkpt>
      <trkpt lat="46.03025" lon="-1.37152">
        <ele>5</ele>
      </trkpt>
      <trkpt lat="46.03025" lon="-1.37152">
        <ele>5</ele>
      </trkpt>
      <trkpt lat="46.03041" lon="-1.37133">
        <ele>8</ele>
        <time>2021-11-09T09:23:44.000Z</time>
      </trkpt>
      <trkpt lat="46.03067" lon="-1.37097">
        <ele>7.5999999046326</ele>
        <time>2021-11-09T09:23:50.000Z</time>
      </trkpt>
      <trkpt lat="46.03074" lon="-1.37089">
        <ele>7.1999998092651</ele>
        <time>2021-11-09T09:23:52.000Z</time>
      </trkpt>
      <trkpt lat="46.03081" lon="-1.37087">
        <ele>7</ele>
        <time>2021-11-09T09:23:54.000Z</time>
      </trkpt>
      <trkpt lat="46.03085" lon="-1.37087">
        <ele>7</ele>
        <time>2021-11-09T09:23:55.000Z</time>
      </trkpt>
      <trkpt lat="46.0309" lon="-1.37092">
        <ele>6.8000001907349</ele>
        <time>2021-11-09T09:23:57.000Z</time>
      </trkpt>
      <trkpt lat="46.031" lon="-1.3711">
        <ele>6.5999999046326</ele>
        <time>2021-11-09T09:24:01.000Z</time>
      </trkpt>
      <trkpt lat="46.03103" lon="-1.37114">
        <ele>6.4000000953674</ele>
        <time>2021-11-09T09:24:02.000Z</time>
      </trkpt>
      <trkpt lat="46.03112" lon="-1.37123">
        <ele>6.4000000953674</ele>
        <time>2021-11-09T09:24:04.000Z</time>
      </trkpt>
      <trkpt lat="46.03116" lon="-1.37128">
        <ele>6.4000000953674</ele>
        <time>2021-11-09T09:24:05.000Z</time>
      </trkpt>
      <trkpt lat="46.03125" lon="-1.37137">
        <ele>6.4000000953674</ele>
        <time>2021-11-09T09:24:07.000Z</time>
      </trkpt>
      <trkpt lat="46.0314" lon="-1.37151">
        <ele>6.8000001907349</ele>
        <time>2021-11-09T09:24:10.000Z</time>
      </trkpt>
      <trkpt lat="46.03171" lon="-1.37173">
        <ele>6.4000000953674</ele>
        <time>2021-11-09T09:24:16.000Z</time>
      </trkpt>
      <trkpt lat="46.03188" lon="-1.3718">
        <ele>6.1999998092651</ele>
        <time>2021-11-09T09:24:19.000Z</time>
      </trkpt>
      <trkpt lat="46.03199" lon="-1.37181">
        <ele>6.1999998092651</ele>
        <time>2021-11-09T09:24:21.000Z</time>
      </trkpt>
      <trkpt lat="46.03205" lon="-1.37181">
        <ele>6.4000000953674</ele>
        <time>2021-11-09T09:24:22.000Z</time>
      </trkpt>
      <trkpt lat="46.03216" lon="-1.37186">
        <ele>6.1999998092651</ele>
        <time>2021-11-09T09:24:24.000Z</time>
      </trkpt>
      <trkpt lat="46.03252" lon="-1.37212">
        <ele>7</ele>
        <time>2021-11-09T09:24:31.000Z</time>
      </trkpt>
      <trkpt lat="46.03263" lon="-1.37219">
        <ele>7.1999998092651</ele>
        <time>2021-11-09T09:24:33.000Z</time>
      </trkpt>
      <trkpt lat="46.03279" lon="-1.37224">
        <ele>6.4000000953674</ele>
        <time>2021-11-09T09:24:36.000Z</time>
      </trkpt>
      <trkpt lat="46.03293" lon="-1.37232">
        <ele>6.4000000953674</ele>
        <time>2021-11-09T09:24:40.000Z</time>
      </trkpt>
      <trkpt lat="46.03307" lon="-1.37238">
        <ele>6.4000000953674</ele>
        <time>2021-11-09T09:24:45.000Z</time>
      </trkpt>
      <trkpt lat="46.03321" lon="-1.3726">
        <ele>6.4000000953674</ele>
        <time>2021-11-09T09:24:50.000Z</time>
      </trkpt>
      <trkpt lat="46.03325" lon="-1.37264">
        <ele>6.4000000953674</ele>
        <time>2021-11-09T09:24:51.000Z</time>
      </trkpt>
      <trkpt lat="46.03349" lon="-1.37291">
        <ele>6.4000000953674</ele>
        <time>2021-11-09T09:24:56.000Z</time>
      </trkpt>
      <trkpt lat="46.03384" lon="-1.37337">
        <ele>6.5999999046326</ele>
        <time>2021-11-09T09:25:04.000Z</time>
      </trkpt>
      <trkpt lat="46.03415" lon="-1.37379">
        <ele>7.1999998092651</ele>
        <time>2021-11-09T09:25:11.000Z</time>
      </trkpt>
      <trkpt lat="46.03419" lon="-1.37382">
        <ele>7.4000000953674</ele>
        <time>2021-11-09T09:25:12.000Z</time>
      </trkpt>
      <trkpt lat="46.03424" lon="-1.37381">
        <ele>7.4000000953674</ele>
        <time>2021-11-09T09:25:13.000Z</time>
      </trkpt>
      <trkpt lat="46.03428" lon="-1.37377">
        <ele>7.5999999046326</ele>
        <time>2021-11-09T09:25:14.000Z</time>
      </trkpt>
      <trkpt lat="46.03432" lon="-1.37371">
        <ele>7.5999999046326</ele>
        <time>2021-11-09T09:25:15.000Z</time>
      </trkpt>
      <trkpt lat="46.03444" lon="-1.37349">
        <ele>7.8000001907349</ele>
        <time>2021-11-09T09:25:18.000Z</time>
      </trkpt>
      <trkpt lat="46.03448" lon="-1.37341">
        <ele>8</ele>
        <time>2021-11-09T09:25:19.000Z</time>
      </trkpt>
      <trkpt lat="46.03478" lon="-1.37292">
        <ele>8.6000003814697</ele>
        <time>2021-11-09T09:25:26.000Z</time>
      </trkpt>
      <trkpt lat="46.03482" lon="-1.37285">
        <ele>8.6000003814697</ele>
        <time>2021-11-09T09:25:27.000Z</time>
      </trkpt>
      <trkpt lat="46.03483" lon="-1.37277">
        <ele>8.6000003814697</ele>
        <time>2021-11-09T09:25:28.000Z</time>
      </trkpt>
      <trkpt lat="46.03482" lon="-1.37269">
        <ele>8.8000001907349</ele>
        <time>2021-11-09T09:25:29.000Z</time>
      </trkpt>
      <trkpt lat="46.03478" lon="-1.37262">
        <ele>9</ele>
        <time>2021-11-09T09:25:30.000Z</time>
      </trkpt>
      <trkpt lat="46.03476" lon="-1.37258">
        <ele>9</ele>
        <time>2021-11-09T09:25:31.000Z</time>
      </trkpt>
      <trkpt lat="46.03476" lon="-1.37253">
        <ele>9</ele>
        <time>2021-11-09T09:25:33.000Z</time>
      </trkpt>
      <trkpt lat="46.03477" lon="-1.37247">
        <ele>9</ele>
        <time>2021-11-09T09:25:38.000Z</time>
      </trkpt>
      <trkpt lat="46.03477" lon="-1.37242">
        <ele>8.6000003814697</ele>
        <time>2021-11-09T09:25:42.000Z</time>
      </trkpt>
      <trkpt lat="46.03477" lon="-1.3724">
        <ele>8.3999996185303</ele>
        <time>2021-11-09T09:25:43.000Z</time>
      </trkpt>
      <trkpt lat="46.03478" lon="-1.3724">
        <ele>8.1999998092651</ele>
        <time>2021-11-09T09:25:44.000Z</time>
      </trkpt>
      <trkpt lat="46.03478" lon="-1.3724">
        <ele>7.8000001907349</ele>
        <time>2021-11-09T09:25:46.000Z</time>
      </trkpt>
      <trkpt lat="46.03486" lon="-1.37245">
        <ele>5.1999998092651</ele>
        <time>2021-11-09T09:25:54.000Z</time>
      </trkpt>
      <trkpt lat="46.03505" lon="-1.37253">
        <ele>4.1999998092651</ele>
        <time>2021-11-09T09:25:58.000Z</time>
      </trkpt>
      <trkpt lat="46.0351" lon="-1.37255">
        <ele>4</ele>
        <time>2021-11-09T09:25:59.000Z</time>
      </trkpt>
      <trkpt lat="46.03522" lon="-1.37256">
        <ele>3.2000000476837</ele>
        <time>2021-11-09T09:26:01.000Z</time>
      </trkpt>
      <trkpt lat="46.03527" lon="-1.37255">
        <ele>3</ele>
        <time>2021-11-09T09:26:02.000Z</time>
      </trkpt>
      <trkpt lat="46.03533" lon="-1.37253">
        <ele>2.7999999523163</ele>
        <time>2021-11-09T09:26:03.000Z</time>
      </trkpt>
      <trkpt lat="46.03544" lon="-1.37256">
        <ele>2.4000000953674</ele>
        <time>2021-11-09T09:26:05.000Z</time>
      </trkpt>
      <trkpt lat="46.03564" lon="-1.37266">
        <ele>2.2000000476837</ele>
        <time>2021-11-09T09:26:08.000Z</time>
      </trkpt>
      <trkpt lat="46.03575" lon="-1.3727">
        <ele>2</ele>
        <time>2021-11-09T09:26:10.000Z</time>
      </trkpt>
      <trkpt lat="46.03616" lon="-1.37286">
        <ele>2</ele>
        <time>2021-11-09T09:26:17.000Z</time>
      </trkpt>
      <trkpt lat="46.03627" lon="-1.37288">
        <ele>2</ele>
        <time>2021-11-09T09:26:19.000Z</time>
      </trkpt>
      <trkpt lat="46.03636" lon="-1.37283">
        <ele>2</ele>
        <time>2021-11-09T09:26:21.000Z</time>
      </trkpt>
      <trkpt lat="46.03645" lon="-1.37276">
        <ele>2</ele>
        <time>2021-11-09T09:26:23.000Z</time>
      </trkpt>
      <trkpt lat="46.03657" lon="-1.37275">
        <ele>2.2000000476837</ele>
        <time>2021-11-09T09:26:25.000Z</time>
      </trkpt>
      <trkpt lat="46.03669" lon="-1.37279">
        <ele>2.4000000953674</ele>
        <time>2021-11-09T09:26:27.000Z</time>
      </trkpt>
      <trkpt lat="46.03679" lon="-1.37287">
        <ele>2.5999999046326</ele>
        <time>2021-11-09T09:26:29.000Z</time>
      </trkpt>
      <trkpt lat="46.03704" lon="-1.37311">
        <ele>3.2000000476837</ele>
        <time>2021-11-09T09:26:34.000Z</time>
      </trkpt>
      <trkpt lat="46.0372" lon="-1.37327">
        <ele>3.4000000953674</ele>
        <time>2021-11-09T09:26:37.000Z</time>
      </trkpt>
      <trkpt lat="46.03745" lon="-1.37356">
        <ele>3.7999999523163</ele>
        <time>2021-11-09T09:26:42.000Z</time>
      </trkpt>
      <trkpt lat="46.03755" lon="-1.37368">
        <ele>4</ele>
        <time>2021-11-09T09:26:44.000Z</time>
      </trkpt>
      <trkpt lat="46.03759" lon="-1.37375">
        <ele>4.1999998092651</ele>
        <time>2021-11-09T09:26:45.000Z</time>
      </trkpt>
      <trkpt lat="46.03787" lon="-1.37413">
        <ele>5.4000000953674</ele>
        <time>2021-11-09T09:26:51.000Z</time>
      </trkpt>
      <trkpt lat="46.03796" lon="-1.37425">
        <ele>5.5999999046326</ele>
        <time>2021-11-09T09:26:53.000Z</time>
      </trkpt>
      <trkpt lat="46.03828" lon="-1.37474">
        <ele>5.5999999046326</ele>
        <time>2021-11-09T09:27:00.000Z</time>
      </trkpt>
      <trkpt lat="46.03832" lon="-1.37482">
        <ele>5.5999999046326</ele>
        <time>2021-11-09T09:27:01.000Z</time>
      </trkpt>
      <trkpt lat="46.0384" lon="-1.37497">
        <ele>6</ele>
        <time>2021-11-09T09:27:03.000Z</time>
      </trkpt>
      <trkpt lat="46.03844" lon="-1.37505">
        <ele>6.4000000953674</ele>
        <time>2021-11-09T09:27:04.000Z</time>
      </trkpt>
      <trkpt lat="46.03856" lon="-1.37529">
        <ele>7</ele>
        <time>2021-11-09T09:27:07.000Z</time>
      </trkpt>
      <trkpt lat="46.03881" lon="-1.37583">
        <ele>7</ele>
        <time>2021-11-09T09:27:13.000Z</time>
      </trkpt>
      <trkpt lat="46.03906" lon="-1.37649">
        <ele>6.5999999046326</ele>
        <time>2021-11-09T09:27:20.000Z</time>
      </trkpt>
      <trkpt lat="46.03932" lon="-1.37717">
        <ele>6.8000001907349</ele>
        <time>2021-11-09T09:27:27.000Z</time>
      </trkpt>
      <trkpt lat="46.03939" lon="-1.37737">
        <ele>6.8000001907349</ele>
        <time>2021-11-09T09:27:29.000Z</time>
      </trkpt>
      <trkpt lat="46.0397" lon="-1.37802">
        <ele>7</ele>
        <time>2021-11-09T09:27:36.000Z</time>
      </trkpt>
      <trkpt lat="46.03983" lon="-1.3783">
        <ele>7</ele>
        <time>2021-11-09T09:27:39.000Z</time>
      </trkpt>
      <trkpt lat="46.04002" lon="-1.3789">
        <ele>6.8000001907349</ele>
        <time>2021-11-09T09:27:45.000Z</time>
      </trkpt>
      <trkpt lat="46.04025" lon="-1.37967">
        <ele>6.5999999046326</ele>
        <time>2021-11-09T09:27:52.000Z</time>
      </trkpt>
      <trkpt lat="46.04029" lon="-1.37978">
        <ele>6.4000000953674</ele>
        <time>2021-11-09T09:27:53.000Z</time>
      </trkpt>
      <trkpt lat="46.04057" lon="-1.38033">
        <ele>6</ele>
        <time>2021-11-09T09:27:59.000Z</time>
      </trkpt>
      <trkpt lat="46.04073" lon="-1.38055">
        <ele>6</ele>
        <time>2021-11-09T09:28:02.000Z</time>
      </trkpt>
      <trkpt lat="46.04075" lon="-1.3806">
        <ele>5.8000001907349</ele>
        <time>2021-11-09T09:28:03.000Z</time>
      </trkpt>
      <trkpt lat="46.04075" lon="-1.38065">
        <ele>5.8000001907349</ele>
        <time>2021-11-09T09:28:04.000Z</time>
      </trkpt>
      <trkpt lat="46.04072" lon="-1.38074">
        <ele>5.8000001907349</ele>
        <time>2021-11-09T09:28:06.000Z</time>
      </trkpt>
      <trkpt lat="46.04069" lon="-1.38077">
        <ele>6</ele>
        <time>2021-11-09T09:28:07.000Z</time>
      </trkpt>
      <trkpt lat="46.04062" lon="-1.38075">
        <ele>6</ele>
        <time>2021-11-09T09:28:09.000Z</time>
      </trkpt>
      <trkpt lat="46.04054" lon="-1.38071">
        <ele>5.8000001907349</ele>
        <time>2021-11-09T09:28:11.000Z</time>
      </trkpt>
      <trkpt lat="46.04049" lon="-1.38072">
        <ele>5.8000001907349</ele>
        <time>2021-11-09T09:28:12.000Z</time>
      </trkpt>
      <trkpt lat="46.04045" lon="-1.38077">
        <ele>5.8000001907349</ele>
        <time>2021-11-09T09:28:13.000Z</time>
      </trkpt>
      <trkpt lat="46.04031" lon="-1.38093">
        <ele>6.1999998092651</ele>
        <time>2021-11-09T09:28:16.000Z</time>
      </trkpt>
      <trkpt lat="46.04012" lon="-1.38116">
        <ele>5.4000000953674</ele>
        <time>2021-11-09T09:28:20.000Z</time>
      </trkpt>
      <trkpt lat="46.04002" lon="-1.38127">
        <ele>5.1999998092651</ele>
        <time>2021-11-09T09:28:22.000Z</time>
      </trkpt>
      <trkpt lat="46.03991" lon="-1.38126">
        <ele>5.4000000953674</ele>
        <time>2021-11-09T09:28:24.000Z</time>
      </trkpt>
      <trkpt lat="46.03978" lon="-1.38099">
        <ele>5.1999998092651</ele>
        <time>2021-11-09T09:28:28.000Z</time>
      </trkpt>
      <trkpt lat="46.03949" lon="-1.38058">
        <ele>4.5999999046326</ele>
        <time>2021-11-09T09:28:34.000Z</time>
      </trkpt>
      <trkpt lat="46.03943" lon="-1.3805">
        <ele>4.5999999046326</ele>
        <time>2021-11-09T09:28:35.000Z</time>
      </trkpt>
      <trkpt lat="46.03932" lon="-1.38041">
        <ele>4.4000000953674</ele>
        <time>2021-11-09T09:28:37.000Z</time>
      </trkpt>
      <trkpt lat="46.0392" lon="-1.38034">
        <ele>4.4000000953674</ele>
        <time>2021-11-09T09:28:39.000Z</time>
      </trkpt>
      <trkpt lat="46.03906" lon="-1.38033">
        <ele>4.5999999046326</ele>
        <time>2021-11-09T09:28:41.000Z</time>
      </trkpt>
      <trkpt lat="46.03893" lon="-1.38034">
        <ele>5.1999998092651</ele>
        <time>2021-11-09T09:28:43.000Z</time>
      </trkpt>
      <trkpt lat="46.03887" lon="-1.38036">
        <ele>5.1999998092651</ele>
        <time>2021-11-09T09:28:44.000Z</time>
      </trkpt>
      <trkpt lat="46.03876" lon="-1.38046">
        <ele>5.4000000953674</ele>
        <time>2021-11-09T09:28:46.000Z</time>
      </trkpt>
      <trkpt lat="46.03848" lon="-1.38088">
        <ele>6.1999998092651</ele>
        <time>2021-11-09T09:28:52.000Z</time>
      </trkpt>
      <trkpt lat="46.03843" lon="-1.38096">
        <ele>6.4000000953674</ele>
        <time>2021-11-09T09:28:53.000Z</time>
      </trkpt>
      <trkpt lat="46.03808" lon="-1.38157">
        <ele>7.4000000953674</ele>
        <time>2021-11-09T09:29:01.000Z</time>
      </trkpt>
      <trkpt lat="46.03804" lon="-1.38164">
        <ele>7.5999999046326</ele>
        <time>2021-11-09T09:29:02.000Z</time>
      </trkpt>
      <trkpt lat="46.03788" lon="-1.38193">
        <ele>7.8000001907349</ele>
        <time>2021-11-09T09:29:07.000Z</time>
      </trkpt>
      <trkpt lat="46.03791" lon="-1.38203">
        <ele>8</ele>
        <time>2021-11-09T09:29:09.000Z</time>
      </trkpt>
      <trkpt lat="46.03798" lon="-1.38211">
        <ele>8.1999998092651</ele>
        <time>2021-11-09T09:29:11.000Z</time>
      </trkpt>
      <trkpt lat="46.03806" lon="-1.38223">
        <ele>8.6000003814697</ele>
        <time>2021-11-09T09:29:13.000Z</time>
      </trkpt>
      <trkpt lat="46.03821" lon="-1.38239">
        <ele>8.6000003814697</ele>
        <time>2021-11-09T09:29:16.000Z</time>
      </trkpt>
      <trkpt lat="46.03831" lon="-1.38252">
        <ele>9</ele>
        <time>2021-11-09T09:29:18.000Z</time>
      </trkpt>
      <trkpt lat="46.03865" lon="-1.38294">
        <ele>9.3999996185303</ele>
        <time>2021-11-09T09:29:24.000Z</time>
      </trkpt>
      <trkpt lat="46.0389" lon="-1.3832">
        <ele>9.8000001907349</ele>
        <time>2021-11-09T09:29:28.000Z</time>
      </trkpt>
      <trkpt lat="46.03896" lon="-1.38328">
        <ele>10.199999809265</ele>
        <time>2021-11-09T09:29:29.000Z</time>
      </trkpt>
      <trkpt lat="46.03924" lon="-1.38364">
        <ele>11</ele>
        <time>2021-11-09T09:29:34.000Z</time>
      </trkpt>
      <trkpt lat="46.03931" lon="-1.38368">
        <ele>11.39999961853</ele>
        <time>2021-11-09T09:29:35.000Z</time>
      </trkpt>
      <trkpt lat="46.03938" lon="-1.38371">
        <ele>11.39999961853</ele>
        <time>2021-11-09T09:29:36.000Z</time>
      </trkpt>
      <trkpt lat="46.03961" lon="-1.38378">
        <ele>11.60000038147</ele>
        <time>2021-11-09T09:29:39.000Z</time>
      </trkpt>
      <trkpt lat="46.03974" lon="-1.38388">
        <ele>11.60000038147</ele>
        <time>2021-11-09T09:29:41.000Z</time>
      </trkpt>
      <trkpt lat="46.03986" lon="-1.38401">
        <ele>11.60000038147</ele>
        <time>2021-11-09T09:29:43.000Z</time>
      </trkpt>
      <trkpt lat="46.04026" lon="-1.38455">
        <ele>11.800000190735</ele>
        <time>2021-11-09T09:29:50.000Z</time>
      </trkpt>
      <trkpt lat="46.04031" lon="-1.38463">
        <ele>11.60000038147</ele>
        <time>2021-11-09T09:29:51.000Z</time>
      </trkpt>
      <trkpt lat="46.04066" lon="-1.38508">
        <ele>11.800000190735</ele>
        <time>2021-11-09T09:29:57.000Z</time>
      </trkpt>
      <trkpt lat="46.04109" lon="-1.38555">
        <ele>12.199999809265</ele>
        <time>2021-11-09T09:30:04.000Z</time>
      </trkpt>
      <trkpt lat="46.04115" lon="-1.38561">
        <ele>12.199999809265</ele>
        <time>2021-11-09T09:30:05.000Z</time>
      </trkpt>
      <trkpt lat="46.04121" lon="-1.38567">
        <ele>12.199999809265</ele>
        <time>2021-11-09T09:30:06.000Z</time>
      </trkpt>
      <trkpt lat="46.04133" lon="-1.38576">
        <ele>12.39999961853</ele>
        <time>2021-11-09T09:30:08.000Z</time>
      </trkpt>
      <trkpt lat="46.04138" lon="-1.38582">
        <ele>12.39999961853</ele>
        <time>2021-11-09T09:30:09.000Z</time>
      </trkpt>
      <trkpt lat="46.04143" lon="-1.3859">
        <ele>12.39999961853</ele>
        <time>2021-11-09T09:30:10.000Z</time>
      </trkpt>
      <trkpt lat="46.04147" lon="-1.38609">
        <ele>12.60000038147</ele>
        <time>2021-11-09T09:30:12.000Z</time>
      </trkpt>
      <trkpt lat="46.04148" lon="-1.38661">
        <ele>13</ele>
        <time>2021-11-09T09:30:17.000Z</time>
      </trkpt>
      <trkpt lat="46.04148" lon="-1.38668">
        <ele>13</ele>
        <time>2021-11-09T09:30:18.000Z</time>
      </trkpt>
      <trkpt lat="46.04148" lon="-1.38673">
        <ele>13.199999809265</ele>
        <time>2021-11-09T09:30:20.000Z</time>
      </trkpt>
      <trkpt lat="46.04148" lon="-1.38673">
        <ele>13.39999961853</ele>
        <time>2021-11-09T09:30:23.000Z</time>
      </trkpt>
      <trkpt lat="46.04148" lon="-1.38676">
        <ele>14</ele>
        <time>2021-11-09T09:31:05.000Z</time>
      </trkpt>
      <trkpt lat="46.04148" lon="-1.38698">
        <ele>13.800000190735</ele>
        <time>2021-11-09T09:31:09.000Z</time>
      </trkpt>
      <trkpt lat="46.04149" lon="-1.38735">
        <ele>13.199999809265</ele>
        <time>2021-11-09T09:31:14.000Z</time>
      </trkpt>
      <trkpt lat="46.0415" lon="-1.38745">
        <ele>13</ele>
        <time>2021-11-09T09:31:15.000Z</time>
      </trkpt>
      <trkpt lat="46.04154" lon="-1.38788">
        <ele>12.60000038147</ele>
        <time>2021-11-09T09:31:19.000Z</time>
      </trkpt>
      <trkpt lat="46.0416" lon="-1.38843">
        <ele>12.199999809265</ele>
        <time>2021-11-09T09:31:24.000Z</time>
      </trkpt>
      <trkpt lat="46.04167" lon="-1.38896">
        <ele>12</ele>
        <time>2021-11-09T09:31:29.000Z</time>
      </trkpt>
      <trkpt lat="46.04171" lon="-1.38916">
        <ele>11.800000190735</ele>
        <time>2021-11-09T09:31:31.000Z</time>
      </trkpt>
      <trkpt lat="46.04175" lon="-1.38935">
        <ele>11.39999961853</ele>
        <time>2021-11-09T09:31:33.000Z</time>
      </trkpt>
      <trkpt lat="46.04184" lon="-1.38961">
        <ele>11</ele>
        <time>2021-11-09T09:31:36.000Z</time>
      </trkpt>
      <trkpt lat="46.04186" lon="-1.3897">
        <ele>11</ele>
        <time>2021-11-09T09:31:37.000Z</time>
      </trkpt>
      <trkpt lat="46.04185" lon="-1.38977">
        <ele>10.800000190735</ele>
        <time>2021-11-09T09:31:38.000Z</time>
      </trkpt>
      <trkpt lat="46.04182" lon="-1.38984">
        <ele>10.60000038147</ele>
        <time>2021-11-09T09:31:39.000Z</time>
      </trkpt>
      <trkpt lat="46.04176" lon="-1.38996">
        <ele>10.199999809265</ele>
        <time>2021-11-09T09:31:41.000Z</time>
      </trkpt>
      <trkpt lat="46.04175" lon="-1.39001">
        <ele>10</ele>
        <time>2021-11-09T09:31:42.000Z</time>
      </trkpt>
      <trkpt lat="46.04176" lon="-1.39007">
        <ele>10</ele>
        <time>2021-11-09T09:31:43.000Z</time>
      </trkpt>
      <trkpt lat="46.04188" lon="-1.39038">
        <ele>9.3999996185303</ele>
        <time>2021-11-09T09:31:48.000Z</time>
      </trkpt>
      <trkpt lat="46.04193" lon="-1.39055">
        <ele>9.3999996185303</ele>
        <time>2021-11-09T09:31:50.000Z</time>
      </trkpt>
      <trkpt lat="46.04195" lon="-1.39074">
        <ele>9.3999996185303</ele>
        <time>2021-11-09T09:31:52.000Z</time>
      </trkpt>
      <trkpt lat="46.04199" lon="-1.39092">
        <ele>9.1999998092651</ele>
        <time>2021-11-09T09:31:54.000Z</time>
      </trkpt>
      <trkpt lat="46.04205" lon="-1.3911">
        <ele>9.1999998092651</ele>
        <time>2021-11-09T09:31:56.000Z</time>
      </trkpt>
      <trkpt lat="46.04214" lon="-1.39137">
        <ele>8.8000001907349</ele>
        <time>2021-11-09T09:31:59.000Z</time>
      </trkpt>
      <trkpt lat="46.0423" lon="-1.39184">
        <ele>8.1999998092651</ele>
        <time>2021-11-09T09:32:04.000Z</time>
      </trkpt>
      <trkpt lat="46.04239" lon="-1.39199">
        <ele>8</ele>
        <time>2021-11-09T09:32:06.000Z</time>
      </trkpt>
      <trkpt lat="46.04243" lon="-1.39208">
        <ele>7.8000001907349</ele>
        <time>2021-11-09T09:32:07.000Z</time>
      </trkpt>
      <trkpt lat="46.04252" lon="-1.39237">
        <ele>7.8000001907349</ele>
        <time>2021-11-09T09:32:10.000Z</time>
      </trkpt>
      <trkpt lat="46.04268" lon="-1.39283">
        <ele>7.5999999046326</ele>
        <time>2021-11-09T09:32:15.000Z</time>
      </trkpt>
      <trkpt lat="46.04287" lon="-1.39326">
        <ele>7.5999999046326</ele>
        <time>2021-11-09T09:32:20.000Z</time>
      </trkpt>
      <trkpt lat="46.04292" lon="-1.39333">
        <ele>7.5999999046326</ele>
        <time>2021-11-09T09:32:21.000Z</time>
      </trkpt>
      <trkpt lat="46.0432" lon="-1.39364">
        <ele>7.4000000953674</ele>
        <time>2021-11-09T09:32:26.000Z</time>
      </trkpt>
      <trkpt lat="46.04325" lon="-1.39373">
        <ele>7.4000000953674</ele>
        <time>2021-11-09T09:32:27.000Z</time>
      </trkpt>
      <trkpt lat="46.04347" lon="-1.39434">
        <ele>7.4000000953674</ele>
        <time>2021-11-09T09:32:34.000Z</time>
      </trkpt>
      <trkpt lat="46.04363" lon="-1.39476">
        <ele>7.4000000953674</ele>
        <time>2021-11-09T09:32:39.000Z</time>
      </trkpt>
      <trkpt lat="46.04368" lon="-1.39482">
        <ele>7.4000000953674</ele>
        <time>2021-11-09T09:32:40.000Z</time>
      </trkpt>
      <trkpt lat="46.04378" lon="-1.39493">
        <ele>7</ele>
        <time>2021-11-09T09:32:42.000Z</time>
      </trkpt>
      <trkpt lat="46.04385" lon="-1.39508">
        <ele>7</ele>
        <time>2021-11-09T09:32:44.000Z</time>
      </trkpt>
      <trkpt lat="46.0439" lon="-1.39517">
        <ele>7</ele>
        <time>2021-11-09T09:32:45.000Z</time>
      </trkpt>
      <trkpt lat="46.04403" lon="-1.39533">
        <ele>7</ele>
        <time>2021-11-09T09:32:47.000Z</time>
      </trkpt>
      <trkpt lat="46.0441" lon="-1.39542">
        <ele>7</ele>
        <time>2021-11-09T09:32:48.000Z</time>
      </trkpt>
      <trkpt lat="46.0442" lon="-1.39564">
        <ele>6.5999999046326</ele>
        <time>2021-11-09T09:32:50.000Z</time>
      </trkpt>
      <trkpt lat="46.04431" lon="-1.39642">
        <ele>6.1999998092651</ele>
        <time>2021-11-09T09:32:56.000Z</time>
      </trkpt>
      <trkpt lat="46.04438" lon="-1.39667">
        <ele>6.1999998092651</ele>
        <time>2021-11-09T09:32:58.000Z</time>
      </trkpt>
      <trkpt lat="46.04446" lon="-1.3969">
        <ele>6.1999998092651</ele>
        <time>2021-11-09T09:33:00.000Z</time>
      </trkpt>
      <trkpt lat="46.04454" lon="-1.3974">
        <ele>6.1999998092651</ele>
        <time>2021-11-09T09:33:04.000Z</time>
      </trkpt>
      <trkpt lat="46.04461" lon="-1.39818">
        <ele>6.4000000953674</ele>
        <time>2021-11-09T09:33:10.000Z</time>
      </trkpt>
      <trkpt lat="46.04461" lon="-1.3983">
        <ele>6.4000000953674</ele>
        <time>2021-11-09T09:33:11.000Z</time>
      </trkpt>
      <trkpt lat="46.04459" lon="-1.3985">
        <ele>6.5999999046326</ele>
        <time>2021-11-09T09:33:13.000Z</time>
      </trkpt>
      <trkpt lat="46.04454" lon="-1.39867">
        <ele>6.8000001907349</ele>
        <time>2021-11-09T09:33:15.000Z</time>
      </trkpt>
      <trkpt lat="46.04447" lon="-1.39881">
        <ele>7.1999998092651</ele>
        <time>2021-11-09T09:33:17.000Z</time>
      </trkpt>
      <trkpt lat="46.04439" lon="-1.39895">
        <ele>7.5999999046326</ele>
        <time>2021-11-09T09:33:19.000Z</time>
      </trkpt>
      <trkpt lat="46.04431" lon="-1.39915">
        <ele>7.8000001907349</ele>
        <time>2021-11-09T09:33:22.000Z</time>
      </trkpt>
      <trkpt lat="46.04427" lon="-1.3993">
        <ele>7.8000001907349</ele>
        <time>2021-11-09T09:33:24.000Z</time>
      </trkpt>
      <trkpt lat="46.04423" lon="-1.39945">
        <ele>8</ele>
        <time>2021-11-09T09:33:26.000Z</time>
      </trkpt>
      <trkpt lat="46.04423" lon="-1.39954">
        <ele>8</ele>
        <time>2021-11-09T09:33:27.000Z</time>
      </trkpt>
      <trkpt lat="46.04423" lon="-1.39963">
        <ele>8.1999998092651</ele>
        <time>2021-11-09T09:33:28.000Z</time>
      </trkpt>
      <trkpt lat="46.0443" lon="-1.3999">
        <ele>8.3999996185303</ele>
        <time>2021-11-09T09:33:31.000Z</time>
      </trkpt>
      <trkpt lat="46.04446" lon="-1.40036">
        <ele>8.6000003814697</ele>
        <time>2021-11-09T09:33:36.000Z</time>
      </trkpt>
      <trkpt lat="46.04449" lon="-1.40046">
        <ele>8.8000001907349</ele>
        <time>2021-11-09T09:33:37.000Z</time>
      </trkpt>
      <trkpt lat="46.04476" lon="-1.40115">
        <ele>8.8000001907349</ele>
        <time>2021-11-09T09:33:44.000Z</time>
      </trkpt>
      <trkpt lat="46.04483" lon="-1.40136">
        <ele>8.8000001907349</ele>
        <time>2021-11-09T09:33:46.000Z</time>
      </trkpt>
      <trkpt lat="46.04509" lon="-1.40207">
        <ele>8.6000003814697</ele>
        <time>2021-11-09T09:33:53.000Z</time>
      </trkpt>
      <trkpt lat="46.04523" lon="-1.40247">
        <ele>8.6000003814697</ele>
        <time>2021-11-09T09:33:57.000Z</time>
      </trkpt>
      <trkpt lat="46.04545" lon="-1.4032">
        <ele>8.3999996185303</ele>
        <time>2021-11-09T09:34:04.000Z</time>
      </trkpt>
      <trkpt lat="46.04551" lon="-1.40342">
        <ele>8.1999998092651</ele>
        <time>2021-11-09T09:34:06.000Z</time>
      </trkpt>
      <trkpt lat="46.04569" lon="-1.40417">
        <ele>8.3999996185303</ele>
        <time>2021-11-09T09:34:13.000Z</time>
      </trkpt>
      <trkpt lat="46.04574" lon="-1.40438">
        <ele>8.3999996185303</ele>
        <time>2021-11-09T09:34:15.000Z</time>
      </trkpt>
      <trkpt lat="46.04588" lon="-1.40514">
        <ele>8.6000003814697</ele>
        <time>2021-11-09T09:34:22.000Z</time>
      </trkpt>
      <trkpt lat="46.04591" lon="-1.40535">
        <ele>8.6000003814697</ele>
        <time>2021-11-09T09:34:24.000Z</time>
      </trkpt>
      <trkpt lat="46.046" lon="-1.40591">
        <ele>8.8000001907349</ele>
        <time>2021-11-09T09:34:30.000Z</time>
      </trkpt>
      <trkpt lat="46.04601" lon="-1.40601">
        <ele>9</ele>
        <time>2021-11-09T09:34:32.000Z</time>
      </trkpt>
      <trkpt lat="46.04603" lon="-1.40604">
        <ele>9</ele>
        <time>2021-11-09T09:34:33.000Z</time>
      </trkpt>
      <trkpt lat="46.04604" lon="-1.40605">
        <ele>9.1999998092651</ele>
        <time>2021-11-09T09:34:34.000Z</time>
      </trkpt>
      <trkpt lat="46.04602" lon="-1.40601">
        <ele>8</ele>
        <time>2021-11-09T09:35:43.000Z</time>
      </trkpt>
      <trkpt lat="46.04602" lon="-1.406">
        <ele>8</ele>
        <time>2021-11-09T09:35:44.000Z</time>
      </trkpt>
      <trkpt lat="46.04602" lon="-1.406">
        <ele>8</ele>
        <time>2021-11-09T09:35:45.000Z</time>
      </trkpt>
      <trkpt lat="46.04611" lon="-1.40595">
        <ele>8</ele>
        <time>2021-11-09T09:35:49.000Z</time>
      </trkpt>
      <trkpt lat="46.04614" lon="-1.40594">
        <ele>8</ele>
        <time>2021-11-09T09:35:50.000Z</time>
      </trkpt>
      <trkpt lat="46.0462" lon="-1.40591">
        <ele>8</ele>
        <time>2021-11-09T09:35:51.000Z</time>
      </trkpt>
      <trkpt lat="46.04629" lon="-1.40586">
        <ele>8</ele>
        <time>2021-11-09T09:35:53.000Z</time>
      </trkpt>
      <trkpt lat="46.04635" lon="-1.40582">
        <ele>7.8000001907349</ele>
        <time>2021-11-09T09:35:54.000Z</time>
      </trkpt>
      <trkpt lat="46.04641" lon="-1.40577">
        <ele>7.5999999046326</ele>
        <time>2021-11-09T09:35:55.000Z</time>
      </trkpt>
      <trkpt lat="46.04652" lon="-1.4057">
        <ele>7.5999999046326</ele>
        <time>2021-11-09T09:35:57.000Z</time>
      </trkpt>
      <trkpt lat="46.04659" lon="-1.40567">
        <ele>7.5999999046326</ele>
        <time>2021-11-09T09:35:58.000Z</time>
      </trkpt>
      <trkpt lat="46.04666" lon="-1.40565">
        <ele>7.8000001907349</ele>
        <time>2021-11-09T09:35:59.000Z</time>
      </trkpt>
      <trkpt lat="46.04685" lon="-1.40557">
        <ele>7.8000001907349</ele>
        <time>2021-11-09T09:36:02.000Z</time>
      </trkpt>
      <trkpt lat="46.0469" lon="-1.40556">
        <ele>7.8000001907349</ele>
        <time>2021-11-09T09:36:03.000Z</time>
      </trkpt>
      <trkpt lat="46.04695" lon="-1.40558">
        <ele>7.8000001907349</ele>
        <time>2021-11-09T09:36:04.000Z</time>
      </trkpt>
      <trkpt lat="46.04701" lon="-1.40564">
        <ele>7.8000001907349</ele>
        <time>2021-11-09T09:36:05.000Z</time>
      </trkpt>
      <trkpt lat="46.04705" lon="-1.40578">
        <ele>8.1999998092651</ele>
        <time>2021-11-09T09:36:07.000Z</time>
      </trkpt>
      <trkpt lat="46.04707" lon="-1.40588">
        <ele>8.6000003814697</ele>
        <time>2021-11-09T09:36:08.000Z</time>
      </trkpt>
      <trkpt lat="46.04709" lon="-1.40596">
        <ele>8.6000003814697</ele>
        <time>2021-11-09T09:36:09.000Z</time>
      </trkpt>
      <trkpt lat="46.04712" lon="-1.40603">
        <ele>8.8000001907349</ele>
        <time>2021-11-09T09:36:10.000Z</time>
      </trkpt>
      <trkpt lat="46.04715" lon="-1.40611">
        <ele>9</ele>
        <time>2021-11-09T09:36:11.000Z</time>
      </trkpt>
      <trkpt lat="46.04736" lon="-1.4065">
        <ele>9</ele>
        <time>2021-11-09T09:36:16.000Z</time>
      </trkpt>
      <trkpt lat="46.0474" lon="-1.40657">
        <ele>9</ele>
        <time>2021-11-09T09:36:17.000Z</time>
      </trkpt>
      <trkpt lat="46.0475" lon="-1.40673">
        <ele>9</ele>
        <time>2021-11-09T09:36:19.000Z</time>
      </trkpt>
      <trkpt lat="46.04759" lon="-1.40681">
        <ele>9</ele>
        <time>2021-11-09T09:36:21.000Z</time>
      </trkpt>
      <trkpt lat="46.04765" lon="-1.40685">
        <ele>8.8000001907349</ele>
        <time>2021-11-09T09:36:22.000Z</time>
      </trkpt>
      <trkpt lat="46.0477" lon="-1.40688">
        <ele>8.8000001907349</ele>
        <time>2021-11-09T09:36:23.000Z</time>
      </trkpt>
      <trkpt lat="46.04777" lon="-1.40696">
        <ele>8.8000001907349</ele>
        <time>2021-11-09T09:36:25.000Z</time>
      </trkpt>
      <trkpt lat="46.04783" lon="-1.40719">
        <ele>8.8000001907349</ele>
        <time>2021-11-09T09:36:28.000Z</time>
      </trkpt>
      <trkpt lat="46.04783" lon="-1.40727">
        <ele>8.8000001907349</ele>
        <time>2021-11-09T09:36:29.000Z</time>
      </trkpt>
      <trkpt lat="46.04778" lon="-1.40771">
        <ele>9</ele>
        <time>2021-11-09T09:36:34.000Z</time>
      </trkpt>
      <trkpt lat="46.04776" lon="-1.4078">
        <ele>9</ele>
        <time>2021-11-09T09:36:35.000Z</time>
      </trkpt>
      <trkpt lat="46.04772" lon="-1.40801">
        <ele>9</ele>
        <time>2021-11-09T09:36:37.000Z</time>
      </trkpt>
      <trkpt lat="46.04771" lon="-1.4081">
        <ele>9</ele>
        <time>2021-11-09T09:36:38.000Z</time>
      </trkpt>
      <trkpt lat="46.04769" lon="-1.40818">
        <ele>9</ele>
        <time>2021-11-09T09:36:39.000Z</time>
      </trkpt>
      <trkpt lat="46.04763" lon="-1.40835">
        <ele>9</ele>
        <time>2021-11-09T09:36:41.000Z</time>
      </trkpt>
      <trkpt lat="46.0476" lon="-1.40841">
        <ele>9</ele>
        <time>2021-11-09T09:36:42.000Z</time>
      </trkpt>
      <trkpt lat="46.04758" lon="-1.40851">
        <ele>9</ele>
        <time>2021-11-09T09:36:43.000Z</time>
      </trkpt>
      <trkpt lat="46.04756" lon="-1.40865">
        <ele>9</ele>
        <time>2021-11-09T09:36:45.000Z</time>
      </trkpt>
      <trkpt lat="46.04753" lon="-1.40891">
        <ele>8.8000001907349</ele>
        <time>2021-11-09T09:36:48.000Z</time>
      </trkpt>
      <trkpt lat="46.04754" lon="-1.40906">
        <ele>8.6000003814697</ele>
        <time>2021-11-09T09:36:50.000Z</time>
      </trkpt>
      <trkpt lat="46.04755" lon="-1.40915">
        <ele>8.6000003814697</ele>
        <time>2021-11-09T09:36:51.000Z</time>
      </trkpt>
      <trkpt lat="46.04759" lon="-1.40934">
        <ele>8.3999996185303</ele>
        <time>2021-11-09T09:36:53.000Z</time>
      </trkpt>
      <trkpt lat="46.04761" lon="-1.40942">
        <ele>8.1999998092651</ele>
        <time>2021-11-09T09:36:54.000Z</time>
      </trkpt>
      <trkpt lat="46.04766" lon="-1.40961">
        <ele>8.1999998092651</ele>
        <time>2021-11-09T09:36:56.000Z</time>
      </trkpt>
      <trkpt lat="46.04769" lon="-1.4099">
        <ele>8.1999998092651</ele>
        <time>2021-11-09T09:36:59.000Z</time>
      </trkpt>
      <trkpt lat="46.04771" lon="-1.41029">
        <ele>8</ele>
        <time>2021-11-09T09:37:03.000Z</time>
      </trkpt>
      <trkpt lat="46.0477" lon="-1.41039">
        <ele>8</ele>
        <time>2021-11-09T09:37:04.000Z</time>
      </trkpt>
      <trkpt lat="46.04771" lon="-1.4105">
        <ele>8</ele>
        <time>2021-11-09T09:37:05.000Z</time>
      </trkpt>
      <trkpt lat="46.04776" lon="-1.41066">
        <ele>8</ele>
        <time>2021-11-09T09:37:07.000Z</time>
      </trkpt>
      <trkpt lat="46.04778" lon="-1.41072">
        <ele>7.8000001907349</ele>
        <time>2021-11-09T09:37:08.000Z</time>
      </trkpt>
      <trkpt lat="46.04785" lon="-1.4109">
        <ele>7.5999999046326</ele>
        <time>2021-11-09T09:37:10.000Z</time>
      </trkpt>
      <trkpt lat="46.04787" lon="-1.41106">
        <ele>7.8000001907349</ele>
        <time>2021-11-09T09:37:12.000Z</time>
      </trkpt>
      <trkpt lat="46.04782" lon="-1.41125">
        <ele>8.1999998092651</ele>
        <time>2021-11-09T09:37:14.000Z</time>
      </trkpt>
      <trkpt lat="46.04778" lon="-1.41133">
        <ele>8</ele>
        <time>2021-11-09T09:37:15.000Z</time>
      </trkpt>
      <trkpt lat="46.04768" lon="-1.41157">
        <ele>8.1999998092651</ele>
        <time>2021-11-09T09:37:18.000Z</time>
      </trkpt>
      <trkpt lat="46.04755" lon="-1.41182">
        <ele>8.1999998092651</ele>
        <time>2021-11-09T09:37:21.000Z</time>
      </trkpt>
      <trkpt lat="46.04747" lon="-1.41194">
        <ele>8.1999998092651</ele>
        <time>2021-11-09T09:37:23.000Z</time>
      </trkpt>
      <trkpt lat="46.04736" lon="-1.41206">
        <ele>7.8000001907349</ele>
        <time>2021-11-09T09:37:25.000Z</time>
      </trkpt>
      <trkpt lat="46.04726" lon="-1.41216">
        <ele>7.5999999046326</ele>
        <time>2021-11-09T09:37:27.000Z</time>
      </trkpt>
      <trkpt lat="46.04716" lon="-1.4123">
        <ele>7.4000000953674</ele>
        <time>2021-11-09T09:37:29.000Z</time>
      </trkpt>
      <trkpt lat="46.04687" lon="-1.41254">
        <ele>7.1999998092651</ele>
        <time>2021-11-09T09:37:34.000Z</time>
      </trkpt>
      <trkpt lat="46.04665" lon="-1.4127">
        <ele>6.8000001907349</ele>
        <time>2021-11-09T09:37:38.000Z</time>
      </trkpt>
      <trkpt lat="46.0466" lon="-1.41271">
        <ele>6.8000001907349</ele>
        <time>2021-11-09T09:37:39.000Z</time>
      </trkpt>
      <trkpt lat="46.04656" lon="-1.41269">
        <ele>6.8000001907349</ele>
        <time>2021-11-09T09:37:40.000Z</time>
      </trkpt>
      <trkpt lat="46.04655" lon="-1.41267">
        <ele>6.8000001907349</ele>
        <time>2021-11-09T09:37:41.000Z</time>
      </trkpt>
      <trkpt lat="46.04651" lon="-1.41262">
        <ele>6.8000001907349</ele>
        <time>2021-11-09T09:37:43.000Z</time>
      </trkpt>
      <trkpt lat="46.04649" lon="-1.41261">
        <ele>6.5999999046326</ele>
        <time>2021-11-09T09:37:44.000Z</time>
      </trkpt>
      <trkpt lat="46.04636" lon="-1.41256">
        <ele>6.5999999046326</ele>
        <time>2021-11-09T09:37:48.000Z</time>
      </trkpt>
      <trkpt lat="46.04625" lon="-1.41236">
        <ele>6.4000000953674</ele>
        <time>2021-11-09T09:37:52.000Z</time>
      </trkpt>
      <trkpt lat="46.04619" lon="-1.41224">
        <ele>6.1999998092651</ele>
        <time>2021-11-09T09:37:54.000Z</time>
      </trkpt>
      <trkpt lat="46.04611" lon="-1.41215">
        <ele>5.8000001907349</ele>
        <time>2021-11-09T09:37:56.000Z</time>
      </trkpt>
      <trkpt lat="46.04602" lon="-1.41202">
        <ele>5.5999999046326</ele>
        <time>2021-11-09T09:37:58.000Z</time>
      </trkpt>
      <trkpt lat="46.046" lon="-1.41194">
        <ele>5.4000000953674</ele>
        <time>2021-11-09T09:37:59.000Z</time>
      </trkpt>
      <trkpt lat="46.04594" lon="-1.41162">
        <ele>5.1999998092651</ele>
        <time>2021-11-09T09:38:03.000Z</time>
      </trkpt>
      <trkpt lat="46.04591" lon="-1.41157">
        <ele>5.4000000953674</ele>
        <time>2021-11-09T09:38:04.000Z</time>
      </trkpt>
      <trkpt lat="46.04567" lon="-1.41115">
        <ele>5.1999998092651</ele>
        <time>2021-11-09T09:38:10.000Z</time>
      </trkpt>
      <trkpt lat="46.0456" lon="-1.41106">
        <ele>5.1999998092651</ele>
        <time>2021-11-09T09:38:12.000Z</time>
      </trkpt>
      <trkpt lat="46.04557" lon="-1.41107">
        <ele>5.1999998092651</ele>
        <time>2021-11-09T09:38:13.000Z</time>
      </trkpt>
      <trkpt lat="46.04551" lon="-1.41109">
        <ele>5.1999998092651</ele>
        <time>2021-11-09T09:38:15.000Z</time>
      </trkpt>
      <trkpt lat="46.04546" lon="-1.41107">
        <ele>5.1999998092651</ele>
        <time>2021-11-09T09:38:16.000Z</time>
      </trkpt>
      <trkpt lat="46.04529" lon="-1.41096">
        <ele>5.1999998092651</ele>
        <time>2021-11-09T09:38:20.000Z</time>
      </trkpt>
      <trkpt lat="46.04511" lon="-1.41093">
        <ele>5</ele>
        <time>2021-11-09T09:38:23.000Z</time>
      </trkpt>
      <trkpt lat="46.04506" lon="-1.41093">
        <ele>5</ele>
        <time>2021-11-09T09:38:24.000Z</time>
      </trkpt>
      <trkpt lat="46.045" lon="-1.41091">
        <ele>4.8000001907349</ele>
        <time>2021-11-09T09:38:25.000Z</time>
      </trkpt>
      <trkpt lat="46.04488" lon="-1.41085">
        <ele>4.8000001907349</ele>
        <time>2021-11-09T09:38:27.000Z</time>
      </trkpt>
      <trkpt lat="46.04484" lon="-1.41082">
        <ele>5</ele>
        <time>2021-11-09T09:38:28.000Z</time>
      </trkpt>
      <trkpt lat="46.0448" lon="-1.41077">
        <ele>5</ele>
        <time>2021-11-09T09:38:29.000Z</time>
      </trkpt>
      <trkpt lat="46.04469" lon="-1.41068">
        <ele>5</ele>
        <time>2021-11-09T09:38:31.000Z</time>
      </trkpt>
      <trkpt lat="46.04459" lon="-1.41073">
        <ele>4.8000001907349</ele>
        <time>2021-11-09T09:38:33.000Z</time>
      </trkpt>
      <trkpt lat="46.04453" lon="-1.41077">
        <ele>4.8000001907349</ele>
        <time>2021-11-09T09:38:34.000Z</time>
      </trkpt>
      <trkpt lat="46.04442" lon="-1.41082">
        <ele>4.8000001907349</ele>
        <time>2021-11-09T09:38:36.000Z</time>
      </trkpt>
      <trkpt lat="46.04431" lon="-1.41084">
        <ele>4.8000001907349</ele>
        <time>2021-11-09T09:38:38.000Z</time>
      </trkpt>
      <trkpt lat="46.0442" lon="-1.41083">
        <ele>4.8000001907349</ele>
        <time>2021-11-09T09:38:40.000Z</time>
      </trkpt>
      <trkpt lat="46.04416" lon="-1.41081">
        <ele>4.8000001907349</ele>
        <time>2021-11-09T09:38:41.000Z</time>
      </trkpt>
      <trkpt lat="46.044" lon="-1.41076">
        <ele>4.8000001907349</ele>
        <time>2021-11-09T09:38:44.000Z</time>
      </trkpt>
      <trkpt lat="46.04386" lon="-1.41075">
        <ele>5</ele>
        <time>2021-11-09T09:38:46.000Z</time>
      </trkpt>
      <trkpt lat="46.04374" lon="-1.41076">
        <ele>5</ele>
        <time>2021-11-09T09:38:48.000Z</time>
      </trkpt>
      <trkpt lat="46.0436" lon="-1.41079">
        <ele>5</ele>
        <time>2021-11-09T09:38:50.000Z</time>
      </trkpt>
      <trkpt lat="46.04353" lon="-1.4108">
        <ele>4.8000001907349</ele>
        <time>2021-11-09T09:38:51.000Z</time>
      </trkpt>
      <trkpt lat="46.04341" lon="-1.4108">
        <ele>5</ele>
        <time>2021-11-09T09:38:53.000Z</time>
      </trkpt>
      <trkpt lat="46.04329" lon="-1.41081">
        <ele>5</ele>
        <time>2021-11-09T09:38:55.000Z</time>
      </trkpt>
      <trkpt lat="46.04322" lon="-1.41081">
        <ele>5.4000000953674</ele>
        <time>2021-11-09T09:38:56.000Z</time>
      </trkpt>
      <trkpt lat="46.04288" lon="-1.41083">
        <ele>5.4000000953674</ele>
        <time>2021-11-09T09:39:01.000Z</time>
      </trkpt>
      <trkpt lat="46.04254" lon="-1.41071">
        <ele>5.1999998092651</ele>
        <time>2021-11-09T09:39:06.000Z</time>
      </trkpt>
      <trkpt lat="46.04212" lon="-1.41063">
        <ele>5.1999998092651</ele>
        <time>2021-11-09T09:39:12.000Z</time>
      </trkpt>
      <trkpt lat="46.04188" lon="-1.41063">
        <ele>5.1999998092651</ele>
        <time>2021-11-09T09:39:15.000Z</time>
      </trkpt>
      <trkpt lat="46.04175" lon="-1.41062">
        <ele>5.5999999046326</ele>
        <time>2021-11-09T09:39:17.000Z</time>
      </trkpt>
      <trkpt lat="46.04141" lon="-1.41056">
        <ele>5.8000001907349</ele>
        <time>2021-11-09T09:39:22.000Z</time>
      </trkpt>
      <trkpt lat="46.04134" lon="-1.41055">
        <ele>5.8000001907349</ele>
        <time>2021-11-09T09:39:23.000Z</time>
      </trkpt>
      <trkpt lat="46.04125" lon="-1.41054">
        <ele>5.8000001907349</ele>
        <time>2021-11-09T09:39:24.000Z</time>
      </trkpt>
      <trkpt lat="46.04098" lon="-1.41045">
        <ele>6</ele>
        <time>2021-11-09T09:39:28.000Z</time>
      </trkpt>
      <trkpt lat="46.04089" lon="-1.41042">
        <ele>6</ele>
        <time>2021-11-09T09:39:29.000Z</time>
      </trkpt>
      <trkpt lat="46.04078" lon="-1.41033">
        <ele>6.1999998092651</ele>
        <time>2021-11-09T09:39:31.000Z</time>
      </trkpt>
      <trkpt lat="46.04069" lon="-1.41017">
        <ele>6.1999998092651</ele>
        <time>2021-11-09T09:39:33.000Z</time>
      </trkpt>
      <trkpt lat="46.04067" lon="-1.4101">
        <ele>6.1999998092651</ele>
        <time>2021-11-09T09:39:34.000Z</time>
      </trkpt>
      <trkpt lat="46.04059" lon="-1.40965">
        <ele>6.4000000953674</ele>
        <time>2021-11-09T09:39:39.000Z</time>
      </trkpt>
      <trkpt lat="46.04057" lon="-1.40959">
        <ele>6.4000000953674</ele>
        <time>2021-11-09T09:39:40.000Z</time>
      </trkpt>
      <trkpt lat="46.04054" lon="-1.40952">
        <ele>6.4000000953674</ele>
        <time>2021-11-09T09:39:41.000Z</time>
      </trkpt>
      <trkpt lat="46.04044" lon="-1.40944">
        <ele>6.4000000953674</ele>
        <time>2021-11-09T09:39:43.000Z</time>
      </trkpt>
      <trkpt lat="46.04034" lon="-1.40946">
        <ele>6.4000000953674</ele>
        <time>2021-11-09T09:39:45.000Z</time>
      </trkpt>
      <trkpt lat="46.04021" lon="-1.40946">
        <ele>6.4000000953674</ele>
        <time>2021-11-09T09:39:47.000Z</time>
      </trkpt>
      <trkpt lat="46.04004" lon="-1.40935">
        <ele>6.4000000953674</ele>
        <time>2021-11-09T09:39:50.000Z</time>
      </trkpt>
      <trkpt lat="46.03992" lon="-1.40924">
        <ele>6.4000000953674</ele>
        <time>2021-11-09T09:39:52.000Z</time>
      </trkpt>
      <trkpt lat="46.03981" lon="-1.40917">
        <ele>6.4000000953674</ele>
        <time>2021-11-09T09:39:54.000Z</time>
      </trkpt>
      <trkpt lat="46.03976" lon="-1.40914">
        <ele>6.4000000953674</ele>
        <time>2021-11-09T09:39:55.000Z</time>
      </trkpt>
      <trkpt lat="46.03969" lon="-1.40909">
        <ele>6.4000000953674</ele>
        <time>2021-11-09T09:39:56.000Z</time>
      </trkpt>
      <trkpt lat="46.03958" lon="-1.40907">
        <ele>6.4000000953674</ele>
        <time>2021-11-09T09:39:58.000Z</time>
      </trkpt>
      <trkpt lat="46.0394" lon="-1.40907">
        <ele>6.4000000953674</ele>
        <time>2021-11-09T09:40:01.000Z</time>
      </trkpt>
      <trkpt lat="46.03933" lon="-1.40909">
        <ele>6.4000000953674</ele>
        <time>2021-11-09T09:40:02.000Z</time>
      </trkpt>
      <trkpt lat="46.03928" lon="-1.4091">
        <ele>6.4000000953674</ele>
        <time>2021-11-09T09:40:03.000Z</time>
      </trkpt>
      <trkpt lat="46.03913" lon="-1.40911">
        <ele>6.4000000953674</ele>
        <time>2021-11-09T09:40:05.000Z</time>
      </trkpt>
      <trkpt lat="46.039" lon="-1.40909">
        <ele>6</ele>
        <time>2021-11-09T09:40:07.000Z</time>
      </trkpt>
      <trkpt lat="46.03857" lon="-1.409">
        <ele>5.4000000953674</ele>
        <time>2021-11-09T09:40:13.000Z</time>
      </trkpt>
      <trkpt lat="46.03829" lon="-1.40892">
        <ele>5</ele>
        <time>2021-11-09T09:40:17.000Z</time>
      </trkpt>
      <trkpt lat="46.03814" lon="-1.40888">
        <ele>5</ele>
        <time>2021-11-09T09:40:19.000Z</time>
      </trkpt>
      <trkpt lat="46.03771" lon="-1.40874">
        <ele>5</ele>
        <time>2021-11-09T09:40:25.000Z</time>
      </trkpt>
      <trkpt lat="46.03765" lon="-1.4087">
        <ele>5</ele>
        <time>2021-11-09T09:40:26.000Z</time>
      </trkpt>
      <trkpt lat="46.03721" lon="-1.40841">
        <ele>5.5999999046326</ele>
        <time>2021-11-09T09:40:33.000Z</time>
      </trkpt>
      <trkpt lat="46.03692" lon="-1.40829">
        <ele>5.5999999046326</ele>
        <time>2021-11-09T09:40:37.000Z</time>
      </trkpt>
      <trkpt lat="46.03669" lon="-1.40821">
        <ele>6</ele>
        <time>2021-11-09T09:40:40.000Z</time>
      </trkpt>
      <trkpt lat="46.03628" lon="-1.40802">
        <ele>6</ele>
        <time>2021-11-09T09:40:46.000Z</time>
      </trkpt>
      <trkpt lat="46.03606" lon="-1.40791">
        <ele>6.1999998092651</ele>
        <time>2021-11-09T09:40:49.000Z</time>
      </trkpt>
      <trkpt lat="46.03587" lon="-1.40782">
        <ele>6.1999998092651</ele>
        <time>2021-11-09T09:40:52.000Z</time>
      </trkpt>
      <trkpt lat="46.03581" lon="-1.40778">
        <ele>6.1999998092651</ele>
        <time>2021-11-09T09:40:53.000Z</time>
      </trkpt>
      <trkpt lat="46.03561" lon="-1.40769">
        <ele>6.4000000953674</ele>
        <time>2021-11-09T09:40:56.000Z</time>
      </trkpt>
      <trkpt lat="46.03548" lon="-1.40766">
        <ele>6.5999999046326</ele>
        <time>2021-11-09T09:40:58.000Z</time>
      </trkpt>
      <trkpt lat="46.03528" lon="-1.40758">
        <ele>6.8000001907349</ele>
        <time>2021-11-09T09:41:01.000Z</time>
      </trkpt>
      <trkpt lat="46.03518" lon="-1.40747">
        <ele>6.8000001907349</ele>
        <time>2021-11-09T09:41:03.000Z</time>
      </trkpt>
      <trkpt lat="46.03514" lon="-1.40744">
        <ele>6.5999999046326</ele>
        <time>2021-11-09T09:41:04.000Z</time>
      </trkpt>
      <trkpt lat="46.03501" lon="-1.40742">
        <ele>6.5999999046326</ele>
        <time>2021-11-09T09:41:07.000Z</time>
      </trkpt>
      <trkpt lat="46.03496" lon="-1.4074">
        <ele>6.5999999046326</ele>
        <time>2021-11-09T09:41:08.000Z</time>
      </trkpt>
      <trkpt lat="46.03491" lon="-1.40738">
        <ele>6.4000000953674</ele>
        <time>2021-11-09T09:41:09.000Z</time>
      </trkpt>
      <trkpt lat="46.03482" lon="-1.40735">
        <ele>6</ele>
        <time>2021-11-09T09:41:11.000Z</time>
      </trkpt>
      <trkpt lat="46.03479" lon="-1.40737">
        <ele>5.5999999046326</ele>
        <time>2021-11-09T09:41:12.000Z</time>
      </trkpt>
      <trkpt lat="46.03474" lon="-1.40746">
        <ele>5.4000000953674</ele>
        <time>2021-11-09T09:41:14.000Z</time>
      </trkpt>
      <trkpt lat="46.03466" lon="-1.40749">
        <ele>5.1999998092651</ele>
        <time>2021-11-09T09:41:16.000Z</time>
      </trkpt>
      <trkpt lat="46.03461" lon="-1.40746">
        <ele>5</ele>
        <time>2021-11-09T09:41:17.000Z</time>
      </trkpt>
      <trkpt lat="46.03456" lon="-1.40742">
        <ele>5</ele>
        <time>2021-11-09T09:41:18.000Z</time>
      </trkpt>
      <trkpt lat="46.03451" lon="-1.4074">
        <ele>4.8000001907349</ele>
        <time>2021-11-09T09:41:19.000Z</time>
      </trkpt>
      <trkpt lat="46.03438" lon="-1.40736">
        <ele>4.8000001907349</ele>
        <time>2021-11-09T09:41:21.000Z</time>
      </trkpt>
      <trkpt lat="46.03427" lon="-1.40732">
        <ele>4.8000001907349</ele>
        <time>2021-11-09T09:41:23.000Z</time>
      </trkpt>
      <trkpt lat="46.03415" lon="-1.40733">
        <ele>4.8000001907349</ele>
        <time>2021-11-09T09:41:25.000Z</time>
      </trkpt>
      <trkpt lat="46.03402" lon="-1.40729">
        <ele>5.1999998092651</ele>
        <time>2021-11-09T09:41:27.000Z</time>
      </trkpt>
      <trkpt lat="46.0339" lon="-1.40725">
        <ele>5</ele>
        <time>2021-11-09T09:41:29.000Z</time>
      </trkpt>
      <trkpt lat="46.03379" lon="-1.40719">
        <ele>5.1999998092651</ele>
        <time>2021-11-09T09:41:31.000Z</time>
      </trkpt>
      <trkpt lat="46.03366" lon="-1.40718">
        <ele>5.1999998092651</ele>
        <time>2021-11-09T09:41:33.000Z</time>
      </trkpt>
      <trkpt lat="46.0336" lon="-1.40719">
        <ele>5.1999998092651</ele>
        <time>2021-11-09T09:41:34.000Z</time>
      </trkpt>
      <trkpt lat="46.03354" lon="-1.40719">
        <ele>5.1999998092651</ele>
        <time>2021-11-09T09:41:35.000Z</time>
      </trkpt>
      <trkpt lat="46.0334" lon="-1.40715">
        <ele>5.1999998092651</ele>
        <time>2021-11-09T09:41:37.000Z</time>
      </trkpt>
      <trkpt lat="46.03333" lon="-1.40712">
        <ele>5.1999998092651</ele>
        <time>2021-11-09T09:41:38.000Z</time>
      </trkpt>
      <trkpt lat="46.03323" lon="-1.40711">
        <ele>5.1999998092651</ele>
        <time>2021-11-09T09:41:40.000Z</time>
      </trkpt>
      <trkpt lat="46.03311" lon="-1.40714">
        <ele>5.1999998092651</ele>
        <time>2021-11-09T09:41:42.000Z</time>
      </trkpt>
      <trkpt lat="46.03299" lon="-1.40712">
        <ele>5.4000000953674</ele>
        <time>2021-11-09T09:41:44.000Z</time>
      </trkpt>
      <trkpt lat="46.03245" lon="-1.40698">
        <ele>5</ele>
        <time>2021-11-09T09:41:52.000Z</time>
      </trkpt>
      <trkpt lat="46.0324" lon="-1.40697">
        <ele>5</ele>
        <time>2021-11-09T09:41:53.000Z</time>
      </trkpt>
      <trkpt lat="46.03212" lon="-1.40687">
        <ele>5</ele>
        <time>2021-11-09T09:41:57.000Z</time>
      </trkpt>
      <trkpt lat="46.032" lon="-1.40681">
        <ele>5</ele>
        <time>2021-11-09T09:41:59.000Z</time>
      </trkpt>
      <trkpt lat="46.03175" lon="-1.40676">
        <ele>5.1999998092651</ele>
        <time>2021-11-09T09:42:03.000Z</time>
      </trkpt>
      <trkpt lat="46.03161" lon="-1.40672">
        <ele>5.1999998092651</ele>
        <time>2021-11-09T09:42:05.000Z</time>
      </trkpt>
      <trkpt lat="46.03153" lon="-1.4067">
        <ele>5.1999998092651</ele>
        <time>2021-11-09T09:42:06.000Z</time>
      </trkpt>
      <trkpt lat="46.03129" lon="-1.40662">
        <ele>5</ele>
        <time>2021-11-09T09:42:10.000Z</time>
      </trkpt>
      <trkpt lat="46.0312" lon="-1.40658">
        <ele>5</ele>
        <time>2021-11-09T09:42:12.000Z</time>
      </trkpt>
      <trkpt lat="46.03114" lon="-1.40649">
        <ele>5.4000000953674</ele>
        <time>2021-11-09T09:42:14.000Z</time>
      </trkpt>
      <trkpt lat="46.03109" lon="-1.40645">
        <ele>5.4000000953674</ele>
        <time>2021-11-09T09:42:15.000Z</time>
      </trkpt>
      <trkpt lat="46.03088" lon="-1.40638">
        <ele>5.1999998092651</ele>
        <time>2021-11-09T09:42:19.000Z</time>
      </trkpt>
      <trkpt lat="46.0308" lon="-1.40635">
        <ele>5.4000000953674</ele>
        <time>2021-11-09T09:42:20.000Z</time>
      </trkpt>
      <trkpt lat="46.03063" lon="-1.40626">
        <ele>5.5999999046326</ele>
        <time>2021-11-09T09:42:23.000Z</time>
      </trkpt>
      <trkpt lat="46.03045" lon="-1.40617">
        <ele>5.5999999046326</ele>
        <time>2021-11-09T09:42:26.000Z</time>
      </trkpt>
      <trkpt lat="46.03035" lon="-1.40607">
        <ele>5.5999999046326</ele>
        <time>2021-11-09T09:42:28.000Z</time>
      </trkpt>
      <trkpt lat="46.03031" lon="-1.40599">
        <ele>5.5999999046326</ele>
        <time>2021-11-09T09:42:29.000Z</time>
      </trkpt>
      <trkpt lat="46.03026" lon="-1.40592">
        <ele>5.5999999046326</ele>
        <time>2021-11-09T09:42:30.000Z</time>
      </trkpt>
      <trkpt lat="46.03019" lon="-1.40585">
        <ele>5.5999999046326</ele>
        <time>2021-11-09T09:42:32.000Z</time>
      </trkpt>
      <trkpt lat="46.03008" lon="-1.40583">
        <ele>5.5999999046326</ele>
        <time>2021-11-09T09:42:34.000Z</time>
      </trkpt>
      <trkpt lat="46.02998" lon="-1.4058">
        <ele>5.5999999046326</ele>
        <time>2021-11-09T09:42:36.000Z</time>
      </trkpt>
      <trkpt lat="46.02965" lon="-1.40572">
        <ele>5.5999999046326</ele>
        <time>2021-11-09T09:42:41.000Z</time>
      </trkpt>
      <trkpt lat="46.02957" lon="-1.40573">
        <ele>5.5999999046326</ele>
        <time>2021-11-09T09:42:42.000Z</time>
      </trkpt>
      <trkpt lat="46.02945" lon="-1.40574">
        <ele>5.5999999046326</ele>
        <time>2021-11-09T09:42:44.000Z</time>
      </trkpt>
      <trkpt lat="46.02931" lon="-1.4057">
        <ele>5.4000000953674</ele>
        <time>2021-11-09T09:42:46.000Z</time>
      </trkpt>
      <trkpt lat="46.02911" lon="-1.4056">
        <ele>5.5999999046326</ele>
        <time>2021-11-09T09:42:49.000Z</time>
      </trkpt>
      <trkpt lat="46.02899" lon="-1.40549">
        <ele>5.8000001907349</ele>
        <time>2021-11-09T09:42:51.000Z</time>
      </trkpt>
      <trkpt lat="46.0288" lon="-1.40547">
        <ele>5.8000001907349</ele>
        <time>2021-11-09T09:42:54.000Z</time>
      </trkpt>
      <trkpt lat="46.02867" lon="-1.4054">
        <ele>5.8000001907349</ele>
        <time>2021-11-09T09:42:56.000Z</time>
      </trkpt>
      <trkpt lat="46.02863" lon="-1.40535">
        <ele>5.8000001907349</ele>
        <time>2021-11-09T09:42:57.000Z</time>
      </trkpt>
      <trkpt lat="46.02853" lon="-1.40523">
        <ele>5.8000001907349</ele>
        <time>2021-11-09T09:42:59.000Z</time>
      </trkpt>
      <trkpt lat="46.02844" lon="-1.40511">
        <ele>5.8000001907349</ele>
        <time>2021-11-09T09:43:01.000Z</time>
      </trkpt>
      <trkpt lat="46.0284" lon="-1.40497">
        <ele>5.8000001907349</ele>
        <time>2021-11-09T09:43:03.000Z</time>
      </trkpt>
      <trkpt lat="46.02832" lon="-1.40482">
        <ele>5.8000001907349</ele>
        <time>2021-11-09T09:43:05.000Z</time>
      </trkpt>
      <trkpt lat="46.02819" lon="-1.40473">
        <ele>5.8000001907349</ele>
        <time>2021-11-09T09:43:07.000Z</time>
      </trkpt>
      <trkpt lat="46.02814" lon="-1.40467">
        <ele>5.8000001907349</ele>
        <time>2021-11-09T09:43:08.000Z</time>
      </trkpt>
      <trkpt lat="46.02811" lon="-1.40462">
        <ele>5.8000001907349</ele>
        <time>2021-11-09T09:43:09.000Z</time>
      </trkpt>
      <trkpt lat="46.02802" lon="-1.40447">
        <ele>5.5999999046326</ele>
        <time>2021-11-09T09:43:11.000Z</time>
      </trkpt>
      <trkpt lat="46.02794" lon="-1.40436">
        <ele>5.5999999046326</ele>
        <time>2021-11-09T09:43:13.000Z</time>
      </trkpt>
      <trkpt lat="46.02784" lon="-1.40431">
        <ele>5.8000001907349</ele>
        <time>2021-11-09T09:43:15.000Z</time>
      </trkpt>
      <trkpt lat="46.02775" lon="-1.40434">
        <ele>5.5999999046326</ele>
        <time>2021-11-09T09:43:17.000Z</time>
      </trkpt>
      <trkpt lat="46.02766" lon="-1.40439">
        <ele>5.5999999046326</ele>
        <time>2021-11-09T09:43:19.000Z</time>
      </trkpt>
      <trkpt lat="46.0276" lon="-1.40442">
        <ele>5.5999999046326</ele>
        <time>2021-11-09T09:43:20.000Z</time>
      </trkpt>
      <trkpt lat="46.02749" lon="-1.40439">
        <ele>5.5999999046326</ele>
        <time>2021-11-09T09:43:22.000Z</time>
      </trkpt>
      <trkpt lat="46.02719" lon="-1.40426">
        <ele>5.5999999046326</ele>
        <time>2021-11-09T09:43:28.000Z</time>
      </trkpt>
      <trkpt lat="46.02705" lon="-1.40423">
        <ele>5.4000000953674</ele>
        <time>2021-11-09T09:43:32.000Z</time>
      </trkpt>
      <trkpt lat="46.02694" lon="-1.40418">
        <ele>5.1999998092651</ele>
        <time>2021-11-09T09:43:34.000Z</time>
      </trkpt>
      <trkpt lat="46.02686" lon="-1.40412">
        <ele>5.1999998092651</ele>
        <time>2021-11-09T09:43:36.000Z</time>
      </trkpt>
      <trkpt lat="46.02679" lon="-1.40408">
        <ele>5.1999998092651</ele>
        <time>2021-11-09T09:43:38.000Z</time>
      </trkpt>
      <trkpt lat="46.02675" lon="-1.40407">
        <ele>5.1999998092651</ele>
        <time>2021-11-09T09:43:39.000Z</time>
      </trkpt>
      <trkpt lat="46.02669" lon="-1.40406">
        <ele>5.1999998092651</ele>
        <time>2021-11-09T09:43:40.000Z</time>
      </trkpt>
      <trkpt lat="46.0266" lon="-1.40403">
        <ele>5.1999998092651</ele>
        <time>2021-11-09T09:43:42.000Z</time>
      </trkpt>
      <trkpt lat="46.02653" lon="-1.40398">
        <ele>5</ele>
        <time>2021-11-09T09:43:43.000Z</time>
      </trkpt>
      <trkpt lat="46.02648" lon="-1.40394">
        <ele>5</ele>
        <time>2021-11-09T09:43:44.000Z</time>
      </trkpt>
      <trkpt lat="46.02639" lon="-1.40388">
        <ele>5</ele>
        <time>2021-11-09T09:43:46.000Z</time>
      </trkpt>
      <trkpt lat="46.02635" lon="-1.40383">
        <ele>5</ele>
        <time>2021-11-09T09:43:47.000Z</time>
      </trkpt>
      <trkpt lat="46.0263" lon="-1.40379">
        <ele>5</ele>
        <time>2021-11-09T09:43:48.000Z</time>
      </trkpt>
      <trkpt lat="46.02613" lon="-1.40367">
        <ele>4.8000001907349</ele>
        <time>2021-11-09T09:43:51.000Z</time>
      </trkpt>
      <trkpt lat="46.02596" lon="-1.40356">
        <ele>5</ele>
        <time>2021-11-09T09:43:54.000Z</time>
      </trkpt>
      <trkpt lat="46.02592" lon="-1.40348">
        <ele>5.1999998092651</ele>
        <time>2021-11-09T09:43:56.000Z</time>
      </trkpt>
      <trkpt lat="46.02589" lon="-1.40344">
        <ele>5.1999998092651</ele>
        <time>2021-11-09T09:43:57.000Z</time>
      </trkpt>
      <trkpt lat="46.02579" lon="-1.40341">
        <ele>5.1999998092651</ele>
        <time>2021-11-09T09:43:59.000Z</time>
      </trkpt>
      <trkpt lat="46.02571" lon="-1.40325">
        <ele>5.1999998092651</ele>
        <time>2021-11-09T09:44:02.000Z</time>
      </trkpt>
      <trkpt lat="46.02559" lon="-1.4031">
        <ele>5.1999998092651</ele>
        <time>2021-11-09T09:44:05.000Z</time>
      </trkpt>
      <trkpt lat="46.02555" lon="-1.40304">
        <ele>5.1999998092651</ele>
        <time>2021-11-09T09:44:06.000Z</time>
      </trkpt>
      <trkpt lat="46.02551" lon="-1.40297">
        <ele>5.1999998092651</ele>
        <time>2021-11-09T09:44:07.000Z</time>
      </trkpt>
      <trkpt lat="46.02545" lon="-1.40275">
        <ele>5.4000000953674</ele>
        <time>2021-11-09T09:44:10.000Z</time>
      </trkpt>
      <trkpt lat="46.02541" lon="-1.40263">
        <ele>5.4000000953674</ele>
        <time>2021-11-09T09:44:12.000Z</time>
      </trkpt>
      <trkpt lat="46.0254" lon="-1.40255">
        <ele>5.4000000953674</ele>
        <time>2021-11-09T09:44:14.000Z</time>
      </trkpt>
      <trkpt lat="46.02543" lon="-1.40244">
        <ele>4.1999998092651</ele>
        <time>2021-11-09T09:44:43.000Z</time>
      </trkpt>
      <trkpt lat="46.0253" lon="-1.40236">
        <ele>4</ele>
        <time>2021-11-09T09:44:47.000Z</time>
      </trkpt>
      <trkpt lat="46.02509" lon="-1.40216">
        <ele>4</ele>
        <time>2021-11-09T09:44:52.000Z</time>
      </trkpt>
      <trkpt lat="46.02488" lon="-1.40188">
        <ele>4.4000000953674</ele>
        <time>2021-11-09T09:44:58.000Z</time>
      </trkpt>
      <trkpt lat="46.0247" lon="-1.4016">
        <ele>4.5999999046326</ele>
        <time>2021-11-09T09:45:03.000Z</time>
      </trkpt>
      <trkpt lat="46.02462" lon="-1.40146">
        <ele>4.8000001907349</ele>
        <time>2021-11-09T09:45:05.000Z</time>
      </trkpt>
      <trkpt lat="46.02453" lon="-1.40133">
        <ele>4.8000001907349</ele>
        <time>2021-11-09T09:45:07.000Z</time>
      </trkpt>
      <trkpt lat="46.02444" lon="-1.40118">
        <ele>4.8000001907349</ele>
        <time>2021-11-09T09:45:09.000Z</time>
      </trkpt>
      <trkpt lat="46.02417" lon="-1.40072">
        <ele>4.5999999046326</ele>
        <time>2021-11-09T09:45:15.000Z</time>
      </trkpt>
      <trkpt lat="46.02413" lon="-1.40065">
        <ele>4.8000001907349</ele>
        <time>2021-11-09T09:45:16.000Z</time>
      </trkpt>
      <trkpt lat="46.02407" lon="-1.40046">
        <ele>4.5999999046326</ele>
        <time>2021-11-09T09:45:18.000Z</time>
      </trkpt>
      <trkpt lat="46.02404" lon="-1.40028">
        <ele>5</ele>
        <time>2021-11-09T09:45:20.000Z</time>
      </trkpt>
      <trkpt lat="46.02392" lon="-1.40005">
        <ele>5.1999998092651</ele>
        <time>2021-11-09T09:45:23.000Z</time>
      </trkpt>
      <trkpt lat="46.0239" lon="-1.39988">
        <ele>5.4000000953674</ele>
        <time>2021-11-09T09:45:25.000Z</time>
      </trkpt>
      <trkpt lat="46.02393" lon="-1.39979">
        <ele>5.4000000953674</ele>
        <time>2021-11-09T09:45:26.000Z</time>
      </trkpt>
      <trkpt lat="46.02398" lon="-1.3997">
        <ele>5.4000000953674</ele>
        <time>2021-11-09T09:45:27.000Z</time>
      </trkpt>
      <trkpt lat="46.02413" lon="-1.3995">
        <ele>5.4000000953674</ele>
        <time>2021-11-09T09:45:30.000Z</time>
      </trkpt>
      <trkpt lat="46.0243" lon="-1.39927">
        <ele>5.5999999046326</ele>
        <time>2021-11-09T09:45:33.000Z</time>
      </trkpt>
      <trkpt lat="46.02435" lon="-1.3991">
        <ele>5.5999999046326</ele>
        <time>2021-11-09T09:45:35.000Z</time>
      </trkpt>
      <trkpt lat="46.0243" lon="-1.39891">
        <ele>5.8000001907349</ele>
        <time>2021-11-09T09:45:37.000Z</time>
      </trkpt>
      <trkpt lat="46.02417" lon="-1.39872">
        <ele>6.4000000953674</ele>
        <time>2021-11-09T09:45:40.000Z</time>
      </trkpt>
      <trkpt lat="46.02406" lon="-1.39856">
        <ele>6.8000001907349</ele>
        <time>2021-11-09T09:45:42.000Z</time>
      </trkpt>
      <trkpt lat="46.02369" lon="-1.3981">
        <ele>7.1999998092651</ele>
        <time>2021-11-09T09:45:49.000Z</time>
      </trkpt>
      <trkpt lat="46.02347" lon="-1.39785">
        <ele>7.4000000953674</ele>
        <time>2021-11-09T09:45:53.000Z</time>
      </trkpt>
      <trkpt lat="46.02329" lon="-1.39769">
        <ele>7.8000001907349</ele>
        <time>2021-11-09T09:45:56.000Z</time>
      </trkpt>
      <trkpt lat="46.02308" lon="-1.39768">
        <ele>8</ele>
        <time>2021-11-09T09:45:59.000Z</time>
      </trkpt>
      <trkpt lat="46.02301" lon="-1.39767">
        <ele>8</ele>
        <time>2021-11-09T09:46:00.000Z</time>
      </trkpt>
      <trkpt lat="46.02289" lon="-1.39761">
        <ele>8.1999998092651</ele>
        <time>2021-11-09T09:46:02.000Z</time>
      </trkpt>
      <trkpt lat="46.02261" lon="-1.39723">
        <ele>8.1999998092651</ele>
        <time>2021-11-09T09:46:07.000Z</time>
      </trkpt>
      <trkpt lat="46.02226" lon="-1.39681">
        <ele>8</ele>
        <time>2021-11-09T09:46:13.000Z</time>
      </trkpt>
      <trkpt lat="46.02199" lon="-1.39642">
        <ele>8.1999998092651</ele>
        <time>2021-11-09T09:46:19.000Z</time>
      </trkpt>
      <trkpt lat="46.02196" lon="-1.39636">
        <ele>8.1999998092651</ele>
        <time>2021-11-09T09:46:20.000Z</time>
      </trkpt>
      <trkpt lat="46.02194" lon="-1.39627">
        <ele>8</ele>
        <time>2021-11-09T09:46:22.000Z</time>
      </trkpt>
      <trkpt lat="46.02183" lon="-1.3962">
        <ele>7.8000001907349</ele>
        <time>2021-11-09T09:46:25.000Z</time>
      </trkpt>
      <trkpt lat="46.02171" lon="-1.3961">
        <ele>7.4000000953674</ele>
        <time>2021-11-09T09:46:27.000Z</time>
      </trkpt>
      <trkpt lat="46.02165" lon="-1.39605">
        <ele>7.5999999046326</ele>
        <time>2021-11-09T09:46:28.000Z</time>
      </trkpt>
      <trkpt lat="46.02133" lon="-1.39568">
        <ele>7.4000000953674</ele>
        <time>2021-11-09T09:46:34.000Z</time>
      </trkpt>
      <trkpt lat="46.02128" lon="-1.39561">
        <ele>7.1999998092651</ele>
        <time>2021-11-09T09:46:35.000Z</time>
      </trkpt>
      <trkpt lat="46.02115" lon="-1.39536">
        <ele>7</ele>
        <time>2021-11-09T09:46:38.000Z</time>
      </trkpt>
      <trkpt lat="46.02104" lon="-1.39517">
        <ele>7.1999998092651</ele>
        <time>2021-11-09T09:46:40.000Z</time>
      </trkpt>
      <trkpt lat="46.02093" lon="-1.39502">
        <ele>7</ele>
        <time>2021-11-09T09:46:42.000Z</time>
      </trkpt>
      <trkpt lat="46.02086" lon="-1.39496">
        <ele>6.8000001907349</ele>
        <time>2021-11-09T09:46:43.000Z</time>
      </trkpt>
      <trkpt lat="46.0206" lon="-1.39474">
        <ele>7</ele>
        <time>2021-11-09T09:46:47.000Z</time>
      </trkpt>
      <trkpt lat="46.02054" lon="-1.39471">
        <ele>6.8000001907349</ele>
        <time>2021-11-09T09:46:48.000Z</time>
      </trkpt>
      <trkpt lat="46.02038" lon="-1.39465">
        <ele>6.5999999046326</ele>
        <time>2021-11-09T09:46:50.000Z</time>
      </trkpt>
      <trkpt lat="46.02032" lon="-1.39467">
        <ele>6.5999999046326</ele>
        <time>2021-11-09T09:46:51.000Z</time>
      </trkpt>
      <trkpt lat="46.02026" lon="-1.39472">
        <ele>6.8000001907349</ele>
        <time>2021-11-09T09:46:52.000Z</time>
      </trkpt>
      <trkpt lat="46.02023" lon="-1.39476">
        <ele>6.8000001907349</ele>
        <time>2021-11-09T09:46:53.000Z</time>
      </trkpt>
      <trkpt lat="46.02019" lon="-1.39482">
        <ele>6.8000001907349</ele>
        <time>2021-11-09T09:46:54.000Z</time>
      </trkpt>
      <trkpt lat="46.02016" lon="-1.39485">
        <ele>6.8000001907349</ele>
        <time>2021-11-09T09:46:56.000Z</time>
      </trkpt>
      <trkpt lat="46.02015" lon="-1.39485">
        <ele>6.8000001907349</ele>
        <time>2021-11-09T09:46:58.000Z</time>
      </trkpt>
      <trkpt lat="46.02013" lon="-1.39492">
        <ele>6.4000000953674</ele>
        <time>2021-11-09T09:47:02.000Z</time>
      </trkpt>
      <trkpt lat="46.02005" lon="-1.39509">
        <ele>6</ele>
        <time>2021-11-09T09:47:06.000Z</time>
      </trkpt>
      <trkpt lat="46.01997" lon="-1.39522">
        <ele>5.5999999046326</ele>
        <time>2021-11-09T09:47:08.000Z</time>
      </trkpt>
      <trkpt lat="46.01988" lon="-1.39535">
        <ele>5.4000000953674</ele>
        <time>2021-11-09T09:47:10.000Z</time>
      </trkpt>
      <trkpt lat="46.01973" lon="-1.39559">
        <ele>5</ele>
        <time>2021-11-09T09:47:13.000Z</time>
      </trkpt>
      <trkpt lat="46.01959" lon="-1.39584">
        <ele>4.5999999046326</ele>
        <time>2021-11-09T09:47:16.000Z</time>
      </trkpt>
      <trkpt lat="46.01922" lon="-1.39652">
        <ele>4</ele>
        <time>2021-11-09T09:47:24.000Z</time>
      </trkpt>
      <trkpt lat="46.01894" lon="-1.39697">
        <ele>4.4000000953674</ele>
        <time>2021-11-09T09:47:30.000Z</time>
      </trkpt>
      <trkpt lat="46.01883" lon="-1.39701">
        <ele>4.4000000953674</ele>
        <time>2021-11-09T09:47:32.000Z</time>
      </trkpt>
      <trkpt lat="46.01877" lon="-1.397">
        <ele>4.4000000953674</ele>
        <time>2021-11-09T09:47:33.000Z</time>
      </trkpt>
      <trkpt lat="46.01852" lon="-1.39681">
        <ele>4.4000000953674</ele>
        <time>2021-11-09T09:47:37.000Z</time>
      </trkpt>
      <trkpt lat="46.01804" lon="-1.39628">
        <ele>4</ele>
        <time>2021-11-09T09:47:45.000Z</time>
      </trkpt>
      <trkpt lat="46.01761" lon="-1.39566">
        <ele>4.4000000953674</ele>
        <time>2021-11-09T09:47:53.000Z</time>
      </trkpt>
      <trkpt lat="46.0175" lon="-1.39551">
        <ele>4.4000000953674</ele>
        <time>2021-11-09T09:47:55.000Z</time>
      </trkpt>
      <trkpt lat="46.01712" lon="-1.39484">
        <ele>5</ele>
        <time>2021-11-09T09:48:03.000Z</time>
      </trkpt>
      <trkpt lat="46.01686" lon="-1.39421">
        <ele>5.4000000953674</ele>
        <time>2021-11-09T09:48:10.000Z</time>
      </trkpt>
      <trkpt lat="46.01655" lon="-1.39347">
        <ele>6</ele>
        <time>2021-11-09T09:48:18.000Z</time>
      </trkpt>
      <trkpt lat="46.01648" lon="-1.39328">
        <ele>6.1999998092651</ele>
        <time>2021-11-09T09:48:20.000Z</time>
      </trkpt>
      <trkpt lat="46.01636" lon="-1.39293">
        <ele>6.5999999046326</ele>
        <time>2021-11-09T09:48:24.000Z</time>
      </trkpt>
      <trkpt lat="46.01632" lon="-1.39286">
        <ele>6.5999999046326</ele>
        <time>2021-11-09T09:48:25.000Z</time>
      </trkpt>
      <trkpt lat="46.01626" lon="-1.39281">
        <ele>6.5999999046326</ele>
        <time>2021-11-09T09:48:26.000Z</time>
      </trkpt>
      <trkpt lat="46.01613" lon="-1.39276">
        <ele>6.8000001907349</ele>
        <time>2021-11-09T09:48:28.000Z</time>
      </trkpt>
      <trkpt lat="46.01592" lon="-1.39269">
        <ele>7</ele>
        <time>2021-11-09T09:48:31.000Z</time>
      </trkpt>
      <trkpt lat="46.01577" lon="-1.39266">
        <ele>7.1999998092651</ele>
        <time>2021-11-09T09:48:33.000Z</time>
      </trkpt>
      <trkpt lat="46.01564" lon="-1.39272">
        <ele>7.1999998092651</ele>
        <time>2021-11-09T09:48:35.000Z</time>
      </trkpt>
      <trkpt lat="46.01557" lon="-1.39289">
        <ele>7.1999998092651</ele>
        <time>2021-11-09T09:48:37.000Z</time>
      </trkpt>
      <trkpt lat="46.01554" lon="-1.39339">
        <ele>7.1999998092651</ele>
        <time>2021-11-09T09:48:42.000Z</time>
      </trkpt>
      <trkpt lat="46.01546" lon="-1.39417">
        <ele>7</ele>
        <time>2021-11-09T09:48:49.000Z</time>
      </trkpt>
      <trkpt lat="46.01548" lon="-1.39462">
        <ele>6.5999999046326</ele>
        <time>2021-11-09T09:48:53.000Z</time>
      </trkpt>
      <trkpt lat="46.01556" lon="-1.39493">
        <ele>6.1999998092651</ele>
        <time>2021-11-09T09:48:56.000Z</time>
      </trkpt>
      <trkpt lat="46.01558" lon="-1.39504">
        <ele>6.1999998092651</ele>
        <time>2021-11-09T09:48:57.000Z</time>
      </trkpt>
      <trkpt lat="46.01558" lon="-1.39514">
        <ele>6.1999998092651</ele>
        <time>2021-11-09T09:48:58.000Z</time>
      </trkpt>
      <trkpt lat="46.01551" lon="-1.39535">
        <ele>6</ele>
        <time>2021-11-09T09:49:00.000Z</time>
      </trkpt>
      <trkpt lat="46.01529" lon="-1.39566">
        <ele>6</ele>
        <time>2021-11-09T09:49:04.000Z</time>
      </trkpt>
      <trkpt lat="46.0152" lon="-1.39582">
        <ele>6</ele>
        <time>2021-11-09T09:49:06.000Z</time>
      </trkpt>
      <trkpt lat="46.01514" lon="-1.39601">
        <ele>6</ele>
        <time>2021-11-09T09:49:08.000Z</time>
      </trkpt>
      <trkpt lat="46.01511" lon="-1.39611">
        <ele>5.8000001907349</ele>
        <time>2021-11-09T09:49:09.000Z</time>
      </trkpt>
      <trkpt lat="46.01508" lon="-1.39632">
        <ele>5.8000001907349</ele>
        <time>2021-11-09T09:49:11.000Z</time>
      </trkpt>
      <trkpt lat="46.01507" lon="-1.39642">
        <ele>5.8000001907349</ele>
        <time>2021-11-09T09:49:12.000Z</time>
      </trkpt>
      <trkpt lat="46.01499" lon="-1.39721">
        <ele>5.8000001907349</ele>
        <time>2021-11-09T09:49:20.000Z</time>
      </trkpt>
      <trkpt lat="46.01498" lon="-1.39731">
        <ele>5.8000001907349</ele>
        <time>2021-11-09T09:49:21.000Z</time>
      </trkpt>
      <trkpt lat="46.01494" lon="-1.39755">
        <ele>5</ele>
        <time>2021-11-09T09:49:24.000Z</time>
      </trkpt>
      <trkpt lat="46.01491" lon="-1.39764">
        <ele>4.8000001907349</ele>
        <time>2021-11-09T09:49:25.000Z</time>
      </trkpt>
      <trkpt lat="46.01487" lon="-1.39769">
        <ele>4.8000001907349</ele>
        <time>2021-11-09T09:49:26.000Z</time>
      </trkpt>
      <trkpt lat="46.01479" lon="-1.39773">
        <ele>4.5999999046326</ele>
        <time>2021-11-09T09:49:28.000Z</time>
      </trkpt>
      <trkpt lat="46.01469" lon="-1.39768">
        <ele>4.4000000953674</ele>
        <time>2021-11-09T09:49:30.000Z</time>
      </trkpt>
      <trkpt lat="46.01461" lon="-1.39761">
        <ele>4.4000000953674</ele>
        <time>2021-11-09T09:49:32.000Z</time>
      </trkpt>
      <trkpt lat="46.01454" lon="-1.39753">
        <ele>4.1999998092651</ele>
        <time>2021-11-09T09:49:34.000Z</time>
      </trkpt>
      <trkpt lat="46.0145" lon="-1.39748">
        <ele>3.7999999523163</ele>
        <time>2021-11-09T09:49:35.000Z</time>
      </trkpt>
      <trkpt lat="46.01437" lon="-1.39737">
        <ele>3.4000000953674</ele>
        <time>2021-11-09T09:49:38.000Z</time>
      </trkpt>
      <trkpt lat="46.01416" lon="-1.39716">
        <ele>2.7999999523163</ele>
        <time>2021-11-09T09:49:42.000Z</time>
      </trkpt>
      <trkpt lat="46.0141" lon="-1.39711">
        <ele>2.7999999523163</ele>
        <time>2021-11-09T09:49:43.000Z</time>
      </trkpt>
      <trkpt lat="46.01385" lon="-1.39681">
        <ele>2.7999999523163</ele>
        <time>2021-11-09T09:49:48.000Z</time>
      </trkpt>
      <trkpt lat="46.01371" lon="-1.39661">
        <ele>2.4000000953674</ele>
        <time>2021-11-09T09:49:51.000Z</time>
      </trkpt>
      <trkpt lat="46.0136" lon="-1.39651">
        <ele>2.2000000476837</ele>
        <time>2021-11-09T09:49:53.000Z</time>
      </trkpt>
      <trkpt lat="46.01322" lon="-1.39618">
        <ele>2.7999999523163</ele>
        <time>2021-11-09T09:50:00.000Z</time>
      </trkpt>
      <trkpt lat="46.01302" lon="-1.39606">
        <ele>2.7999999523163</ele>
        <time>2021-11-09T09:50:04.000Z</time>
      </trkpt>
      <trkpt lat="46.01298" lon="-1.39603">
        <ele>2.7999999523163</ele>
        <time>2021-11-09T09:50:05.000Z</time>
      </trkpt>
      <trkpt lat="46.01282" lon="-1.39586">
        <ele>2.4000000953674</ele>
        <time>2021-11-09T09:50:09.000Z</time>
      </trkpt>
      <trkpt lat="46.01263" lon="-1.39571">
        <ele>2.5999999046326</ele>
        <time>2021-11-09T09:50:13.000Z</time>
      </trkpt>
      <trkpt lat="46.01252" lon="-1.39561">
        <ele>2.5999999046326</ele>
        <time>2021-11-09T09:50:16.000Z</time>
      </trkpt>
      <trkpt lat="46.01248" lon="-1.39558">
        <ele>2.5999999046326</ele>
        <time>2021-11-09T09:50:19.000Z</time>
      </trkpt>
      <trkpt lat="46.01248" lon="-1.39558">
        <ele>2.5999999046326</ele>
        <time>2021-11-09T09:50:20.000Z</time>
      </trkpt>
      <trkpt lat="46.01246" lon="-1.39556">
        <ele>0.80000001192093</ele>
        <time>2021-11-09T09:55:21.000Z</time>
      </trkpt>
      <trkpt lat="46.01239" lon="-1.39548">
        <ele>0.80000001192093</ele>
        <time>2021-11-09T09:55:23.000Z</time>
      </trkpt>
      <trkpt lat="46.0123" lon="-1.39538">
        <ele>0.60000002384186</ele>
        <time>2021-11-09T09:55:25.000Z</time>
      </trkpt>
      <trkpt lat="46.01219" lon="-1.39528">
        <ele>0.60000002384186</ele>
        <time>2021-11-09T09:55:27.000Z</time>
      </trkpt>
      <trkpt lat="46.01173" lon="-1.39477">
        <ele>0.40000000596046</ele>
        <time>2021-11-09T09:55:35.000Z</time>
      </trkpt>
      <trkpt lat="46.01141" lon="-1.39436">
        <ele>1</ele>
        <time>2021-11-09T09:55:41.000Z</time>
      </trkpt>
      <trkpt lat="46.01135" lon="-1.3943">
        <ele>1.2000000476837</ele>
        <time>2021-11-09T09:55:42.000Z</time>
      </trkpt>
      <trkpt lat="46.01124" lon="-1.39419">
        <ele>2</ele>
        <time>2021-11-09T09:55:44.000Z</time>
      </trkpt>
      <trkpt lat="46.01081" lon="-1.39381">
        <ele>3.2000000476837</ele>
        <time>2021-11-09T09:55:51.000Z</time>
      </trkpt>
      <trkpt lat="46.01048" lon="-1.39356">
        <ele>4.4000000953674</ele>
        <time>2021-11-09T09:55:56.000Z</time>
      </trkpt>
      <trkpt lat="46.01041" lon="-1.39352">
        <ele>4.5999999046326</ele>
        <time>2021-11-09T09:55:57.000Z</time>
      </trkpt>
      <trkpt lat="46.01015" lon="-1.39334">
        <ele>5.5999999046326</ele>
        <time>2021-11-09T09:56:01.000Z</time>
      </trkpt>
      <trkpt lat="46.00998" lon="-1.39318">
        <ele>6.4000000953674</ele>
        <time>2021-11-09T09:56:04.000Z</time>
      </trkpt>
      <trkpt lat="46.00992" lon="-1.39312">
        <ele>6.5999999046326</ele>
        <time>2021-11-09T09:56:05.000Z</time>
      </trkpt>
      <trkpt lat="46.00955" lon="-1.39285">
        <ele>7.1999998092651</ele>
        <time>2021-11-09T09:56:11.000Z</time>
      </trkpt>
      <trkpt lat="46.00943" lon="-1.39276">
        <ele>7.5999999046326</ele>
        <time>2021-11-09T09:56:13.000Z</time>
      </trkpt>
      <trkpt lat="46.00918" lon="-1.39253">
        <ele>8.1999998092651</ele>
        <time>2021-11-09T09:56:17.000Z</time>
      </trkpt>
      <trkpt lat="46.00894" lon="-1.39231">
        <ele>8.6000003814697</ele>
        <time>2021-11-09T09:56:21.000Z</time>
      </trkpt>
      <trkpt lat="46.00862" lon="-1.39203">
        <ele>9.6000003814697</ele>
        <time>2021-11-09T09:56:26.000Z</time>
      </trkpt>
      <trkpt lat="46.00815" lon="-1.39166">
        <ele>10</ele>
        <time>2021-11-09T09:56:33.000Z</time>
      </trkpt>
      <trkpt lat="46.00808" lon="-1.39161">
        <ele>10</ele>
        <time>2021-11-09T09:56:34.000Z</time>
      </trkpt>
      <trkpt lat="46.00758" lon="-1.39124">
        <ele>10.199999809265</ele>
        <time>2021-11-09T09:56:41.000Z</time>
      </trkpt>
      <trkpt lat="46.00746" lon="-1.39116">
        <ele>10.199999809265</ele>
        <time>2021-11-09T09:56:43.000Z</time>
      </trkpt>
      <trkpt lat="46.00698" lon="-1.39082">
        <ele>10.199999809265</ele>
        <time>2021-11-09T09:56:50.000Z</time>
      </trkpt>
      <trkpt lat="46.00691" lon="-1.39079">
        <ele>10.199999809265</ele>
        <time>2021-11-09T09:56:51.000Z</time>
      </trkpt>
      <trkpt lat="46.00685" lon="-1.39078">
        <ele>10.199999809265</ele>
        <time>2021-11-09T09:56:52.000Z</time>
      </trkpt>
      <trkpt lat="46.00667" lon="-1.39076">
        <ele>10</ele>
        <time>2021-11-09T09:56:55.000Z</time>
      </trkpt>
      <trkpt lat="46.00657" lon="-1.39071">
        <ele>10</ele>
        <time>2021-11-09T09:56:57.000Z</time>
      </trkpt>
      <trkpt lat="46.00642" lon="-1.39058">
        <ele>9.8000001907349</ele>
        <time>2021-11-09T09:57:00.000Z</time>
      </trkpt>
      <trkpt lat="46.00637" lon="-1.39054">
        <ele>10</ele>
        <time>2021-11-09T09:57:01.000Z</time>
      </trkpt>
      <trkpt lat="46.00625" lon="-1.39044">
        <ele>9.8000001907349</ele>
        <time>2021-11-09T09:57:03.000Z</time>
      </trkpt>
      <trkpt lat="46.00621" lon="-1.39037">
        <ele>9.8000001907349</ele>
        <time>2021-11-09T09:57:04.000Z</time>
      </trkpt>
      <trkpt lat="46.00617" lon="-1.3903">
        <ele>9.8000001907349</ele>
        <time>2021-11-09T09:57:05.000Z</time>
      </trkpt>
      <trkpt lat="46.00613" lon="-1.39011">
        <ele>9.8000001907349</ele>
        <time>2021-11-09T09:57:07.000Z</time>
      </trkpt>
      <trkpt lat="46.00611" lon="-1.38978">
        <ele>9.8000001907349</ele>
        <time>2021-11-09T09:57:10.000Z</time>
      </trkpt>
      <trkpt lat="46.00612" lon="-1.38967">
        <ele>9.8000001907349</ele>
        <time>2021-11-09T09:57:11.000Z</time>
      </trkpt>
      <trkpt lat="46.00613" lon="-1.38957">
        <ele>9.6000003814697</ele>
        <time>2021-11-09T09:57:12.000Z</time>
      </trkpt>
      <trkpt lat="46.00618" lon="-1.38938">
        <ele>9.3999996185303</ele>
        <time>2021-11-09T09:57:14.000Z</time>
      </trkpt>
      <trkpt lat="46.00622" lon="-1.38929">
        <ele>9</ele>
        <time>2021-11-09T09:57:15.000Z</time>
      </trkpt>
      <trkpt lat="46.00628" lon="-1.3891">
        <ele>8.8000001907349</ele>
        <time>2021-11-09T09:57:17.000Z</time>
      </trkpt>
      <trkpt lat="46.00643" lon="-1.38873">
        <ele>8</ele>
        <time>2021-11-09T09:57:21.000Z</time>
      </trkpt>
      <trkpt lat="46.00647" lon="-1.38864">
        <ele>8</ele>
        <time>2021-11-09T09:57:22.000Z</time>
      </trkpt>
      <trkpt lat="46.00659" lon="-1.38839">
        <ele>7.8000001907349</ele>
        <time>2021-11-09T09:57:25.000Z</time>
      </trkpt>
      <trkpt lat="46.00672" lon="-1.38805">
        <ele>7.8000001907349</ele>
        <time>2021-11-09T09:57:29.000Z</time>
      </trkpt>
      <trkpt lat="46.00675" lon="-1.38796">
        <ele>8</ele>
        <time>2021-11-09T09:57:30.000Z</time>
      </trkpt>
      <trkpt lat="46.0069" lon="-1.38751">
        <ele>7.8000001907349</ele>
        <time>2021-11-09T09:57:36.000Z</time>
      </trkpt>
      <trkpt lat="46.00692" lon="-1.38741">
        <ele>7.5999999046326</ele>
        <time>2021-11-09T09:57:37.000Z</time>
      </trkpt>
      <trkpt lat="46.00695" lon="-1.38732">
        <ele>7.5999999046326</ele>
        <time>2021-11-09T09:57:38.000Z</time>
      </trkpt>
      <trkpt lat="46.00696" lon="-1.38711">
        <ele>7.5999999046326</ele>
        <time>2021-11-09T09:57:40.000Z</time>
      </trkpt>
      <trkpt lat="46.00691" lon="-1.38664">
        <ele>7</ele>
        <time>2021-11-09T09:57:45.000Z</time>
      </trkpt>
      <trkpt lat="46.00688" lon="-1.38607">
        <ele>7</ele>
        <time>2021-11-09T09:57:51.000Z</time>
      </trkpt>
      <trkpt lat="46.00691" lon="-1.3858">
        <ele>7.1999998092651</ele>
        <time>2021-11-09T09:57:55.000Z</time>
      </trkpt>
      <trkpt lat="46.0069" lon="-1.38577">
        <ele>7.4000000953674</ele>
        <time>2021-11-09T09:57:56.000Z</time>
      </trkpt>
      <trkpt lat="46.00689" lon="-1.38575">
        <ele>7.5999999046326</ele>
        <time>2021-11-09T09:57:58.000Z</time>
      </trkpt>
      <trkpt lat="46.00688" lon="-1.38575">
        <ele>7.8000001907349</ele>
        <time>2021-11-09T09:57:59.000Z</time>
      </trkpt>
      <trkpt lat="46.00672" lon="-1.38567">
        <ele>8.3999996185303</ele>
        <time>2021-11-09T09:58:03.000Z</time>
      </trkpt>
      <trkpt lat="46.00662" lon="-1.38557">
        <ele>8.6000003814697</ele>
        <time>2021-11-09T09:58:06.000Z</time>
      </trkpt>
      <trkpt lat="46.00661" lon="-1.38553">
        <ele>8.6000003814697</ele>
        <time>2021-11-09T09:58:07.000Z</time>
      </trkpt>
      <trkpt lat="46.00666" lon="-1.38542">
        <ele>8.6000003814697</ele>
        <time>2021-11-09T09:58:09.000Z</time>
      </trkpt>
      <trkpt lat="46.0067" lon="-1.38536">
        <ele>8.6000003814697</ele>
        <time>2021-11-09T09:58:10.000Z</time>
      </trkpt>
      <trkpt lat="46.00684" lon="-1.38521">
        <ele>8.3999996185303</ele>
        <time>2021-11-09T09:58:13.000Z</time>
      </trkpt>
      <trkpt lat="46.00689" lon="-1.38516">
        <ele>8.1999998092651</ele>
        <time>2021-11-09T09:58:14.000Z</time>
      </trkpt>
      <trkpt lat="46.00693" lon="-1.38511">
        <ele>8.1999998092651</ele>
        <time>2021-11-09T09:58:15.000Z</time>
      </trkpt>
      <trkpt lat="46.00695" lon="-1.38495">
        <ele>8</ele>
        <time>2021-11-09T09:58:17.000Z</time>
      </trkpt>
      <trkpt lat="46.00691" lon="-1.38486">
        <ele>8</ele>
        <time>2021-11-09T09:58:18.000Z</time>
      </trkpt>
      <trkpt lat="46.00679" lon="-1.38472">
        <ele>7.8000001907349</ele>
        <time>2021-11-09T09:58:20.000Z</time>
      </trkpt>
      <trkpt lat="46.00674" lon="-1.38466">
        <ele>7.4000000953674</ele>
        <time>2021-11-09T09:58:21.000Z</time>
      </trkpt>
      <trkpt lat="46.00665" lon="-1.38451">
        <ele>7.1999998092651</ele>
        <time>2021-11-09T09:58:23.000Z</time>
      </trkpt>
      <trkpt lat="46.00663" lon="-1.38443">
        <ele>6.8000001907349</ele>
        <time>2021-11-09T09:58:24.000Z</time>
      </trkpt>
      <trkpt lat="46.00664" lon="-1.38432">
        <ele>6.8000001907349</ele>
        <time>2021-11-09T09:58:25.000Z</time>
      </trkpt>
      <trkpt lat="46.00666" lon="-1.38404">
        <ele>7.1999998092651</ele>
        <time>2021-11-09T09:58:28.000Z</time>
      </trkpt>
      <trkpt lat="46.00667" lon="-1.38385">
        <ele>7.8000001907349</ele>
        <time>2021-11-09T09:58:30.000Z</time>
      </trkpt>
      <trkpt lat="46.00668" lon="-1.38347">
        <ele>8.1999998092651</ele>
        <time>2021-11-09T09:58:34.000Z</time>
      </trkpt>
      <trkpt lat="46.0067" lon="-1.38269">
        <ele>8.1999998092651</ele>
        <time>2021-11-09T09:58:42.000Z</time>
      </trkpt>
      <trkpt lat="46.00669" lon="-1.3826">
        <ele>8.6000003814697</ele>
        <time>2021-11-09T09:58:43.000Z</time>
      </trkpt>
      <trkpt lat="46.00666" lon="-1.38236">
        <ele>9</ele>
        <time>2021-11-09T09:58:46.000Z</time>
      </trkpt>
      <trkpt lat="46.00663" lon="-1.3822">
        <ele>9</ele>
        <time>2021-11-09T09:58:48.000Z</time>
      </trkpt>
      <trkpt lat="46.00659" lon="-1.38204">
        <ele>9.1999998092651</ele>
        <time>2021-11-09T09:58:50.000Z</time>
      </trkpt>
      <trkpt lat="46.00655" lon="-1.3818">
        <ele>9.1999998092651</ele>
        <time>2021-11-09T09:58:53.000Z</time>
      </trkpt>
      <trkpt lat="46.00653" lon="-1.38173">
        <ele>9.3999996185303</ele>
        <time>2021-11-09T09:58:54.000Z</time>
      </trkpt>
      <trkpt lat="46.00649" lon="-1.38167">
        <ele>9.1999998092651</ele>
        <time>2021-11-09T09:58:55.000Z</time>
      </trkpt>
      <trkpt lat="46.00637" lon="-1.38165">
        <ele>9</ele>
        <time>2021-11-09T09:58:57.000Z</time>
      </trkpt>
      <trkpt lat="46.00632" lon="-1.38166">
        <ele>8.8000001907349</ele>
        <time>2021-11-09T09:58:58.000Z</time>
      </trkpt>
      <trkpt lat="46.00615" lon="-1.38168">
        <ele>8.1999998092651</ele>
        <time>2021-11-09T09:59:01.000Z</time>
      </trkpt>
      <trkpt lat="46.00609" lon="-1.38167">
        <ele>8</ele>
        <time>2021-11-09T09:59:02.000Z</time>
      </trkpt>
      <trkpt lat="46.00601" lon="-1.38161">
        <ele>7.5999999046326</ele>
        <time>2021-11-09T09:59:04.000Z</time>
      </trkpt>
      <trkpt lat="46.00599" lon="-1.38142">
        <ele>7</ele>
        <time>2021-11-09T09:59:07.000Z</time>
      </trkpt>
      <trkpt lat="46.00597" lon="-1.38135">
        <ele>6.5999999046326</ele>
        <time>2021-11-09T09:59:08.000Z</time>
      </trkpt>
      <trkpt lat="46.00588" lon="-1.38107">
        <ele>6.1999998092651</ele>
        <time>2021-11-09T09:59:12.000Z</time>
      </trkpt>
      <trkpt lat="46.00581" lon="-1.38085">
        <ele>6</ele>
        <time>2021-11-09T09:59:15.000Z</time>
      </trkpt>
      <trkpt lat="46.00572" lon="-1.38051">
        <ele>5.1999998092651</ele>
        <time>2021-11-09T09:59:19.000Z</time>
      </trkpt>
      <trkpt lat="46.00569" lon="-1.38034">
        <ele>4.8000001907349</ele>
        <time>2021-11-09T09:59:21.000Z</time>
      </trkpt>
      <trkpt lat="46.0056" lon="-1.37993">
        <ele>4</ele>
        <time>2021-11-09T09:59:26.000Z</time>
      </trkpt>
      <trkpt lat="46.00558" lon="-1.37987">
        <ele>3.7999999523163</ele>
        <time>2021-11-09T09:59:27.000Z</time>
      </trkpt>
      <trkpt lat="46.00554" lon="-1.37982">
        <ele>3.7999999523163</ele>
        <time>2021-11-09T09:59:28.000Z</time>
      </trkpt>
      <trkpt lat="46.00547" lon="-1.3798">
        <ele>3.5999999046326</ele>
        <time>2021-11-09T09:59:30.000Z</time>
      </trkpt>
      <trkpt lat="46.0054" lon="-1.37986">
        <ele>3.4000000953674</ele>
        <time>2021-11-09T09:59:32.000Z</time>
      </trkpt>
      <trkpt lat="46.0053" lon="-1.37992">
        <ele>3.4000000953674</ele>
        <time>2021-11-09T09:59:34.000Z</time>
      </trkpt>
      <trkpt lat="46.00525" lon="-1.37995">
        <ele>3.2000000476837</ele>
        <time>2021-11-09T09:59:35.000Z</time>
      </trkpt>
      <trkpt lat="46.00503" lon="-1.38001">
        <ele>3.2000000476837</ele>
        <time>2021-11-09T09:59:39.000Z</time>
      </trkpt>
      <trkpt lat="46.00492" lon="-1.38004">
        <ele>3</ele>
        <time>2021-11-09T09:59:41.000Z</time>
      </trkpt>
      <trkpt lat="46.00462" lon="-1.38011">
        <ele>2.7999999523163</ele>
        <time>2021-11-09T09:59:46.000Z</time>
      </trkpt>
      <trkpt lat="46.0045" lon="-1.38014">
        <ele>2.5999999046326</ele>
        <time>2021-11-09T09:59:48.000Z</time>
      </trkpt>
      <trkpt lat="46.00419" lon="-1.38025">
        <ele>2.4000000953674</ele>
        <time>2021-11-09T09:59:53.000Z</time>
      </trkpt>
      <trkpt lat="46.00379" lon="-1.38048">
        <ele>2.2000000476837</ele>
        <time>2021-11-09T10:00:00.000Z</time>
      </trkpt>
      <trkpt lat="46.00362" lon="-1.38056">
        <ele>2.5999999046326</ele>
        <time>2021-11-09T10:00:03.000Z</time>
      </trkpt>
      <trkpt lat="46.0035" lon="-1.38057">
        <ele>3</ele>
        <time>2021-11-09T10:00:05.000Z</time>
      </trkpt>
      <trkpt lat="46.00341" lon="-1.38054">
        <ele>3.2000000476837</ele>
        <time>2021-11-09T10:00:08.000Z</time>
      </trkpt>
      <trkpt lat="46.00321" lon="-1.38048">
        <ele>3</ele>
        <time>2021-11-09T10:00:14.000Z</time>
      </trkpt>
      <trkpt lat="46.00292" lon="-1.38031">
        <ele>2.7999999523163</ele>
        <time>2021-11-09T10:00:21.000Z</time>
      </trkpt>
      <trkpt lat="46.00287" lon="-1.38028">
        <ele>2.5999999046326</ele>
        <time>2021-11-09T10:00:22.000Z</time>
      </trkpt>
      <trkpt lat="46.0027" lon="-1.38014">
        <ele>2</ele>
        <time>2021-11-09T10:00:26.000Z</time>
      </trkpt>
      <trkpt lat="46.00267" lon="-1.38011">
        <ele>1.7999999523163</ele>
        <time>2021-11-09T10:00:27.000Z</time>
      </trkpt>
      <trkpt lat="46.0026" lon="-1.38004">
        <ele>1.3999999761581</ele>
        <time>2021-11-09T10:00:30.000Z</time>
      </trkpt>
      <trkpt lat="46.00251" lon="-1.37997">
        <ele>0.80000001192093</ele>
        <time>2021-11-09T10:00:35.000Z</time>
      </trkpt>
      <trkpt lat="46.00249" lon="-1.37994">
        <ele>0.80000001192093</ele>
        <time>2021-11-09T10:00:36.000Z</time>
      </trkpt>
      <trkpt lat="46.00235" lon="-1.37988">
        <ele>0.40000000596046</ele>
        <time>2021-11-09T10:00:40.000Z</time>
      </trkpt>
      <trkpt lat="46.00212" lon="-1.37985">
        <ele>0.20000000298023</ele>
        <time>2021-11-09T10:00:46.000Z</time>
      </trkpt>
      <trkpt lat="46.00198" lon="-1.37976">
        <ele>-0.20000000298023</ele>
        <time>2021-11-09T10:00:51.000Z</time>
      </trkpt>
      <trkpt lat="46.00193" lon="-1.37967">
        <ele>-0.20000000298023</ele>
        <time>2021-11-09T10:00:53.000Z</time>
      </trkpt>
      <trkpt lat="46.00193" lon="-1.37962">
        <ele>-0.40000000596046</ele>
        <time>2021-11-09T10:00:54.000Z</time>
      </trkpt>
      <trkpt lat="46.00193" lon="-1.37953">
        <ele>-0.80000001192093</ele>
        <time>2021-11-09T10:00:58.000Z</time>
      </trkpt>
      <trkpt lat="46.00193" lon="-1.37944">
        <ele>-1.3999999761581</ele>
        <time>2021-11-09T10:01:05.000Z</time>
      </trkpt>
      <trkpt lat="46.00193" lon="-1.37933">
        <ele>-1.3999999761581</ele>
        <time>2021-11-09T10:01:07.000Z</time>
      </trkpt>
      <trkpt lat="46.00192" lon="-1.37927">
        <ele>-1.6000000238419</ele>
        <time>2021-11-09T10:01:08.000Z</time>
      </trkpt>
      <trkpt lat="46.00191" lon="-1.37921">
        <ele>-1.6000000238419</ele>
        <time>2021-11-09T10:01:09.000Z</time>
      </trkpt>
      <trkpt lat="46.00191" lon="-1.37904">
        <ele>-2</ele>
        <time>2021-11-09T10:01:12.000Z</time>
      </trkpt>
      <trkpt lat="46.00192" lon="-1.37877">
        <ele>-2</ele>
        <time>2021-11-09T10:01:17.000Z</time>
      </trkpt>
      <trkpt lat="46.00186" lon="-1.37863">
        <ele>-1.7999999523163</ele>
        <time>2021-11-09T10:01:21.000Z</time>
      </trkpt>
      <trkpt lat="46.00176" lon="-1.37834">
        <ele>-1.6000000238419</ele>
        <time>2021-11-09T10:01:27.000Z</time>
      </trkpt>
      <trkpt lat="46.00169" lon="-1.37795">
        <ele>-1.2000000476837</ele>
        <time>2021-11-09T10:01:34.000Z</time>
      </trkpt>
      <trkpt lat="46.00167" lon="-1.37779">
        <ele>-1</ele>
        <time>2021-11-09T10:01:38.000Z</time>
      </trkpt>
      <trkpt lat="46.00155" lon="-1.3777">
        <ele>-1</ele>
        <time>2021-11-09T10:01:43.000Z</time>
      </trkpt>
      <trkpt lat="46.00136" lon="-1.3776">
        <ele>-1</ele>
        <time>2021-11-09T10:01:49.000Z</time>
      </trkpt>
      <trkpt lat="46.0011" lon="-1.37734">
        <ele>-1</ele>
        <time>2021-11-09T10:01:57.000Z</time>
      </trkpt>
      <trkpt lat="46.00096" lon="-1.37713">
        <ele>-1.3999999761581</ele>
        <time>2021-11-09T10:02:02.000Z</time>
      </trkpt>
      <trkpt lat="46.00069" lon="-1.37673">
        <ele>-1.6000000238419</ele>
        <time>2021-11-09T10:02:11.000Z</time>
      </trkpt>
      <trkpt lat="46.00043" lon="-1.37635">
        <ele>-1</ele>
        <time>2021-11-09T10:02:19.000Z</time>
      </trkpt>
      <trkpt lat="46.0004" lon="-1.3763">
        <ele>-1</ele>
        <time>2021-11-09T10:02:20.000Z</time>
      </trkpt>
      <trkpt lat="46.00037" lon="-1.3762">
        <ele>-1</ele>
        <time>2021-11-09T10:02:22.000Z</time>
      </trkpt>
      <trkpt lat="46.00038" lon="-1.37614">
        <ele>-0.80000001192093</ele>
        <time>2021-11-09T10:02:23.000Z</time>
      </trkpt>
      <trkpt lat="46.00039" lon="-1.37608">
        <ele>-0.80000001192093</ele>
        <time>2021-11-09T10:02:24.000Z</time>
      </trkpt>
      <trkpt lat="46.00043" lon="-1.37595">
        <ele>-0.60000002384186</ele>
        <time>2021-11-09T10:02:26.000Z</time>
      </trkpt>
      <trkpt lat="46.00046" lon="-1.37588">
        <ele>-0.60000002384186</ele>
        <time>2021-11-09T10:02:27.000Z</time>
      </trkpt>
      <trkpt lat="46.00065" lon="-1.37529">
        <ele>-0.20000000298023</ele>
        <time>2021-11-09T10:02:34.000Z</time>
      </trkpt>
      <trkpt lat="46.00086" lon="-1.37471">
        <ele>2</ele>
        <time>2021-11-09T10:02:41.000Z</time>
      </trkpt>
      <trkpt lat="46.00091" lon="-1.37455">
        <ele>0.20000000298023</ele>
        <time>2021-11-09T10:02:43.000Z</time>
      </trkpt>
      <trkpt lat="46.00089" lon="-1.37439">
        <ele>0.20000000298023</ele>
        <time>2021-11-09T10:02:45.000Z</time>
      </trkpt>
      <trkpt lat="46.00078" lon="-1.3742">
        <ele>0.60000002384186</ele>
        <time>2021-11-09T10:02:48.000Z</time>
      </trkpt>
      <trkpt lat="46.00073" lon="-1.37414">
        <ele>0.60000002384186</ele>
        <time>2021-11-09T10:02:49.000Z</time>
      </trkpt>
      <trkpt lat="46.00046" lon="-1.37377">
        <ele>1.6000000238419</ele>
        <time>2021-11-09T10:02:55.000Z</time>
      </trkpt>
      <trkpt lat="46.00033" lon="-1.37359">
        <ele>2</ele>
        <time>2021-11-09T10:02:58.000Z</time>
      </trkpt>
      <trkpt lat="46.00028" lon="-1.37354">
        <ele>2</ele>
        <time>2021-11-09T10:02:59.000Z</time>
      </trkpt>
      <trkpt lat="46.00022" lon="-1.37351">
        <ele>2</ele>
        <time>2021-11-09T10:03:00.000Z</time>
      </trkpt>
      <trkpt lat="46.00009" lon="-1.37353">
        <ele>2</ele>
        <time>2021-11-09T10:03:02.000Z</time>
      </trkpt>
      <trkpt lat="45.9998" lon="-1.37377">
        <ele>2</ele>
        <time>2021-11-09T10:03:07.000Z</time>
      </trkpt>
      <trkpt lat="45.99932" lon="-1.37416">
        <ele>2.2000000476837</ele>
        <time>2021-11-09T10:03:15.000Z</time>
      </trkpt>
      <trkpt lat="45.999" lon="-1.3743">
        <ele>2.5999999046326</ele>
        <time>2021-11-09T10:03:20.000Z</time>
      </trkpt>
      <trkpt lat="45.99893" lon="-1.37432">
        <ele>2.5999999046326</ele>
        <time>2021-11-09T10:03:21.000Z</time>
      </trkpt>
      <trkpt lat="45.99841" lon="-1.37451">
        <ele>3.5999999046326</ele>
        <time>2021-11-09T10:03:29.000Z</time>
      </trkpt>
      <trkpt lat="45.99794" lon="-1.37472">
        <ele>4.8000001907349</ele>
        <time>2021-11-09T10:03:36.000Z</time>
      </trkpt>
      <trkpt lat="45.99787" lon="-1.37475">
        <ele>5</ele>
        <time>2021-11-09T10:03:37.000Z</time>
      </trkpt>
      <trkpt lat="45.99753" lon="-1.37493">
        <ele>6</ele>
        <time>2021-11-09T10:03:42.000Z</time>
      </trkpt>
      <trkpt lat="45.99732" lon="-1.37503">
        <ele>6.1999998092651</ele>
        <time>2021-11-09T10:03:45.000Z</time>
      </trkpt>
      <trkpt lat="45.99698" lon="-1.37519">
        <ele>7.4000000953674</ele>
        <time>2021-11-09T10:03:50.000Z</time>
      </trkpt>
      <trkpt lat="45.99677" lon="-1.37528">
        <ele>7.1999998092651</ele>
        <time>2021-11-09T10:03:53.000Z</time>
      </trkpt>
      <trkpt lat="45.99622" lon="-1.37554">
        <ele>7.1999998092651</ele>
        <time>2021-11-09T10:04:01.000Z</time>
      </trkpt>
      <trkpt lat="45.99567" lon="-1.37579">
        <ele>7.8000001907349</ele>
        <time>2021-11-09T10:04:09.000Z</time>
      </trkpt>
      <trkpt lat="45.9956" lon="-1.37582">
        <ele>7.8000001907349</ele>
        <time>2021-11-09T10:04:10.000Z</time>
      </trkpt>
      <trkpt lat="45.99506" lon="-1.37607">
        <ele>8.3999996185303</ele>
        <time>2021-11-09T10:04:18.000Z</time>
      </trkpt>
      <trkpt lat="45.99452" lon="-1.37634">
        <ele>8.1999998092651</ele>
        <time>2021-11-09T10:04:26.000Z</time>
      </trkpt>
      <trkpt lat="45.99397" lon="-1.37658">
        <ele>7.8000001907349</ele>
        <time>2021-11-09T10:04:34.000Z</time>
      </trkpt>
      <trkpt lat="45.9939" lon="-1.37662">
        <ele>7.5999999046326</ele>
        <time>2021-11-09T10:04:35.000Z</time>
      </trkpt>
      <trkpt lat="45.9937" lon="-1.37672">
        <ele>7.4000000953674</ele>
        <time>2021-11-09T10:04:38.000Z</time>
      </trkpt>
      <trkpt lat="45.99363" lon="-1.37672">
        <ele>7.1999998092651</ele>
        <time>2021-11-09T10:04:39.000Z</time>
      </trkpt>
      <trkpt lat="45.99357" lon="-1.37669">
        <ele>7</ele>
        <time>2021-11-09T10:04:40.000Z</time>
      </trkpt>
      <trkpt lat="45.99353" lon="-1.37663">
        <ele>7</ele>
        <time>2021-11-09T10:04:41.000Z</time>
      </trkpt>
      <trkpt lat="45.99348" lon="-1.37656">
        <ele>7</ele>
        <time>2021-11-09T10:04:42.000Z</time>
      </trkpt>
      <trkpt lat="45.99337" lon="-1.37629">
        <ele>6.8000001907349</ele>
        <time>2021-11-09T10:04:45.000Z</time>
      </trkpt>
      <trkpt lat="45.99327" lon="-1.37606">
        <ele>6.8000001907349</ele>
        <time>2021-11-09T10:04:48.000Z</time>
      </trkpt>
      <trkpt lat="45.99315" lon="-1.3758">
        <ele>6.8000001907349</ele>
        <time>2021-11-09T10:04:51.000Z</time>
      </trkpt>
      <trkpt lat="45.99285" lon="-1.37513">
        <ele>6.4000000953674</ele>
        <time>2021-11-09T10:04:59.000Z</time>
      </trkpt>
      <trkpt lat="45.99281" lon="-1.37507">
        <ele>6.4000000953674</ele>
        <time>2021-11-09T10:05:00.000Z</time>
      </trkpt>
      <trkpt lat="45.99269" lon="-1.37475">
        <ele>6.4000000953674</ele>
        <time>2021-11-09T10:05:04.000Z</time>
      </trkpt>
      <trkpt lat="45.99256" lon="-1.37434">
        <ele>6.5999999046326</ele>
        <time>2021-11-09T10:05:09.000Z</time>
      </trkpt>
      <trkpt lat="45.99254" lon="-1.37425">
        <ele>6.5999999046326</ele>
        <time>2021-11-09T10:05:10.000Z</time>
      </trkpt>
      <trkpt lat="45.99244" lon="-1.37389">
        <ele>7</ele>
        <time>2021-11-09T10:05:14.000Z</time>
      </trkpt>
      <trkpt lat="45.99239" lon="-1.37373">
        <ele>7.1999998092651</ele>
        <time>2021-11-09T10:05:16.000Z</time>
      </trkpt>
      <trkpt lat="45.99237" lon="-1.37365">
        <ele>7.4000000953674</ele>
        <time>2021-11-09T10:05:17.000Z</time>
      </trkpt>
      <trkpt lat="45.99232" lon="-1.37346">
        <ele>7.5999999046326</ele>
        <time>2021-11-09T10:05:19.000Z</time>
      </trkpt>
      <trkpt lat="45.9923" lon="-1.37337">
        <ele>7.8000001907349</ele>
        <time>2021-11-09T10:05:20.000Z</time>
      </trkpt>
      <trkpt lat="45.99227" lon="-1.37328">
        <ele>8.1999998092651</ele>
        <time>2021-11-09T10:05:21.000Z</time>
      </trkpt>
      <trkpt lat="45.99217" lon="-1.37304">
        <ele>8.3999996185303</ele>
        <time>2021-11-09T10:05:24.000Z</time>
      </trkpt>
      <trkpt lat="45.99212" lon="-1.37288">
        <ele>8.3999996185303</ele>
        <time>2021-11-09T10:05:26.000Z</time>
      </trkpt>
      <trkpt lat="45.99205" lon="-1.37273">
        <ele>8.3999996185303</ele>
        <time>2021-11-09T10:05:28.000Z</time>
      </trkpt>
      <trkpt lat="45.99198" lon="-1.37262">
        <ele>8.6000003814697</ele>
        <time>2021-11-09T10:05:30.000Z</time>
      </trkpt>
      <trkpt lat="45.99191" lon="-1.3726">
        <ele>8.6000003814697</ele>
        <time>2021-11-09T10:05:32.000Z</time>
      </trkpt>
      <trkpt lat="45.99179" lon="-1.37262">
        <ele>8.6000003814697</ele>
        <time>2021-11-09T10:05:34.000Z</time>
      </trkpt>
      <trkpt lat="45.99175" lon="-1.37259">
        <ele>8.6000003814697</ele>
        <time>2021-11-09T10:05:35.000Z</time>
      </trkpt>
      <trkpt lat="45.99171" lon="-1.37255">
        <ele>8.8000001907349</ele>
        <time>2021-11-09T10:05:36.000Z</time>
      </trkpt>
      <trkpt lat="45.99165" lon="-1.37242">
        <ele>9.1999998092651</ele>
        <time>2021-11-09T10:05:38.000Z</time>
      </trkpt>
      <trkpt lat="45.99162" lon="-1.37236">
        <ele>9.3999996185303</ele>
        <time>2021-11-09T10:05:39.000Z</time>
      </trkpt>
      <trkpt lat="45.99151" lon="-1.37214">
        <ele>9.8000001907349</ele>
        <time>2021-11-09T10:05:42.000Z</time>
      </trkpt>
      <trkpt lat="45.99133" lon="-1.37172">
        <ele>10</ele>
        <time>2021-11-09T10:05:47.000Z</time>
      </trkpt>
      <trkpt lat="45.9913" lon="-1.37166">
        <ele>10</ele>
        <time>2021-11-09T10:05:48.000Z</time>
      </trkpt>
      <trkpt lat="45.99121" lon="-1.37154">
        <ele>9.6000003814697</ele>
        <time>2021-11-09T10:05:50.000Z</time>
      </trkpt>
      <trkpt lat="45.99112" lon="-1.37155">
        <ele>9</ele>
        <time>2021-11-09T10:05:52.000Z</time>
      </trkpt>
      <trkpt lat="45.99096" lon="-1.37171">
        <ele>8.1999998092651</ele>
        <time>2021-11-09T10:05:55.000Z</time>
      </trkpt>
      <trkpt lat="45.99089" lon="-1.37176">
        <ele>7.8000001907349</ele>
        <time>2021-11-09T10:05:56.000Z</time>
      </trkpt>
      <trkpt lat="45.9907" lon="-1.37191">
        <ele>7</ele>
        <time>2021-11-09T10:05:59.000Z</time>
      </trkpt>
      <trkpt lat="45.99051" lon="-1.37207">
        <ele>6.5999999046326</ele>
        <time>2021-11-09T10:06:02.000Z</time>
      </trkpt>
      <trkpt lat="45.99033" lon="-1.37223">
        <ele>6</ele>
        <time>2021-11-09T10:06:05.000Z</time>
      </trkpt>
      <trkpt lat="45.99014" lon="-1.37236">
        <ele>5.1999998092651</ele>
        <time>2021-11-09T10:06:08.000Z</time>
      </trkpt>
      <trkpt lat="45.99008" lon="-1.37237">
        <ele>5.1999998092651</ele>
        <time>2021-11-09T10:06:09.000Z</time>
      </trkpt>
      <trkpt lat="45.99003" lon="-1.37232">
        <ele>5</ele>
        <time>2021-11-09T10:06:10.000Z</time>
      </trkpt>
      <trkpt lat="45.99" lon="-1.37225">
        <ele>5</ele>
        <time>2021-11-09T10:06:11.000Z</time>
      </trkpt>
      <trkpt lat="45.98997" lon="-1.37217">
        <ele>5</ele>
        <time>2021-11-09T10:06:12.000Z</time>
      </trkpt>
      <trkpt lat="45.98982" lon="-1.37163">
        <ele>3.5999999046326</ele>
        <time>2021-11-09T10:06:18.000Z</time>
      </trkpt>
      <trkpt lat="45.98968" lon="-1.37105">
        <ele>2.5999999046326</ele>
        <time>2021-11-09T10:06:24.000Z</time>
      </trkpt>
      <trkpt lat="45.98962" lon="-1.37087">
        <ele>2.4000000953674</ele>
        <time>2021-11-09T10:06:26.000Z</time>
      </trkpt>
      <trkpt lat="45.98945" lon="-1.37027">
        <ele>2.2000000476837</ele>
        <time>2021-11-09T10:06:33.000Z</time>
      </trkpt>
      <trkpt lat="45.98928" lon="-1.36957">
        <ele>2.5999999046326</ele>
        <time>2021-11-09T10:06:41.000Z</time>
      </trkpt>
      <trkpt lat="45.98912" lon="-1.36899">
        <ele>3.2000000476837</ele>
        <time>2021-11-09T10:06:48.000Z</time>
      </trkpt>
      <trkpt lat="45.98904" lon="-1.36875">
        <ele>3.5999999046326</ele>
        <time>2021-11-09T10:06:51.000Z</time>
      </trkpt>
      <trkpt lat="45.98895" lon="-1.36842">
        <ele>4.1999998092651</ele>
        <time>2021-11-09T10:06:55.000Z</time>
      </trkpt>
      <trkpt lat="45.98889" lon="-1.36819">
        <ele>4.5999999046326</ele>
        <time>2021-11-09T10:06:58.000Z</time>
      </trkpt>
      <trkpt lat="45.98883" lon="-1.3681">
        <ele>4.5999999046326</ele>
        <time>2021-11-09T10:07:00.000Z</time>
      </trkpt>
      <trkpt lat="45.98875" lon="-1.36813">
        <ele>4.4000000953674</ele>
        <time>2021-11-09T10:07:02.000Z</time>
      </trkpt>
      <trkpt lat="45.98855" lon="-1.36836">
        <ele>4.1999998092651</ele>
        <time>2021-11-09T10:07:06.000Z</time>
      </trkpt>
      <trkpt lat="45.98817" lon="-1.36876">
        <ele>3.7999999523163</ele>
        <time>2021-11-09T10:07:13.000Z</time>
      </trkpt>
      <trkpt lat="45.98802" lon="-1.3689">
        <ele>3.5999999046326</ele>
        <time>2021-11-09T10:07:16.000Z</time>
      </trkpt>
      <trkpt lat="45.98797" lon="-1.36891">
        <ele>3.4000000953674</ele>
        <time>2021-11-09T10:07:17.000Z</time>
      </trkpt>
      <trkpt lat="45.98793" lon="-1.36879">
        <ele>3.4000000953674</ele>
        <time>2021-11-09T10:07:19.000Z</time>
      </trkpt>
      <trkpt lat="45.98794" lon="-1.36871">
        <ele>3.4000000953674</ele>
        <time>2021-11-09T10:07:20.000Z</time>
      </trkpt>
      <trkpt lat="45.98797" lon="-1.36855">
        <ele>3.2000000476837</ele>
        <time>2021-11-09T10:07:22.000Z</time>
      </trkpt>
      <trkpt lat="45.988" lon="-1.36847">
        <ele>2.7999999523163</ele>
        <time>2021-11-09T10:07:23.000Z</time>
      </trkpt>
      <trkpt lat="45.98804" lon="-1.36829">
        <ele>2.4000000953674</ele>
        <time>2021-11-09T10:07:25.000Z</time>
      </trkpt>
      <trkpt lat="45.98808" lon="-1.36801">
        <ele>2</ele>
        <time>2021-11-09T10:07:28.000Z</time>
      </trkpt>
      <trkpt lat="45.98809" lon="-1.36782">
        <ele>1.7999999523163</ele>
        <time>2021-11-09T10:07:30.000Z</time>
      </trkpt>
      <trkpt lat="45.98807" lon="-1.36763">
        <ele>1.3999999761581</ele>
        <time>2021-11-09T10:07:32.000Z</time>
      </trkpt>
      <trkpt lat="45.98805" lon="-1.36754">
        <ele>1.3999999761581</ele>
        <time>2021-11-09T10:07:33.000Z</time>
      </trkpt>
      <trkpt lat="45.98799" lon="-1.36737">
        <ele>1.3999999761581</ele>
        <time>2021-11-09T10:07:35.000Z</time>
      </trkpt>
      <trkpt lat="45.98795" lon="-1.36729">
        <ele>1.3999999761581</ele>
        <time>2021-11-09T10:07:36.000Z</time>
      </trkpt>
      <trkpt lat="45.98787" lon="-1.36713">
        <ele>1.3999999761581</ele>
        <time>2021-11-09T10:07:38.000Z</time>
      </trkpt>
      <trkpt lat="45.98767" lon="-1.36661">
        <ele>1.3999999761581</ele>
        <time>2021-11-09T10:07:44.000Z</time>
      </trkpt>
      <trkpt lat="45.98749" lon="-1.36586">
        <ele>1.2000000476837</ele>
        <time>2021-11-09T10:07:52.000Z</time>
      </trkpt>
      <trkpt lat="45.98736" lon="-1.36521">
        <ele>0.80000001192093</ele>
        <time>2021-11-09T10:07:59.000Z</time>
      </trkpt>
      <trkpt lat="45.98718" lon="-1.36461">
        <ele>0.60000002384186</ele>
        <time>2021-11-09T10:08:06.000Z</time>
      </trkpt>
      <trkpt lat="45.98711" lon="-1.36439">
        <ele>0.60000002384186</ele>
        <time>2021-11-09T10:08:09.000Z</time>
      </trkpt>
      <trkpt lat="45.98708" lon="-1.36434">
        <ele>0.60000002384186</ele>
        <time>2021-11-09T10:08:10.000Z</time>
      </trkpt>
      <trkpt lat="45.98705" lon="-1.36433">
        <ele>0.60000002384186</ele>
        <time>2021-11-09T10:08:11.000Z</time>
      </trkpt>
      <trkpt lat="45.98694" lon="-1.36438">
        <ele>0.60000002384186</ele>
        <time>2021-11-09T10:08:13.000Z</time>
      </trkpt>
      <trkpt lat="45.98684" lon="-1.36447">
        <ele>0.60000002384186</ele>
        <time>2021-11-09T10:08:15.000Z</time>
      </trkpt>
      <trkpt lat="45.98671" lon="-1.36458">
        <ele>0.60000002384186</ele>
        <time>2021-11-09T10:08:17.000Z</time>
      </trkpt>
      <trkpt lat="45.98634" lon="-1.36489">
        <ele>0.40000000596046</ele>
        <time>2021-11-09T10:08:23.000Z</time>
      </trkpt>
      <trkpt lat="45.98623" lon="-1.36499">
        <ele>0.20000000298023</ele>
        <time>2021-11-09T10:08:25.000Z</time>
      </trkpt>
      <trkpt lat="45.9857" lon="-1.36541">
        <ele>0.20000000298023</ele>
        <time>2021-11-09T10:08:34.000Z</time>
      </trkpt>
      <trkpt lat="45.98522" lon="-1.36581">
        <ele>0.20000000298023</ele>
        <time>2021-11-09T10:08:42.000Z</time>
      </trkpt>
      <trkpt lat="45.9851" lon="-1.36591">
        <ele>-0.20000000298023</ele>
        <time>2021-11-09T10:08:44.000Z</time>
      </trkpt>
      <trkpt lat="45.98461" lon="-1.36632">
        <ele>-0.80000001192093</ele>
        <time>2021-11-09T10:08:52.000Z</time>
      </trkpt>
      <trkpt lat="45.98448" lon="-1.36642">
        <ele>-0.80000001192093</ele>
        <time>2021-11-09T10:08:54.000Z</time>
      </trkpt>
      <trkpt lat="45.98399" lon="-1.36681">
        <ele>-0.40000000596046</ele>
        <time>2021-11-09T10:09:02.000Z</time>
      </trkpt>
      <trkpt lat="45.98366" lon="-1.36703">
        <ele>-0.40000000596046</ele>
        <time>2021-11-09T10:09:07.000Z</time>
      </trkpt>
      <trkpt lat="45.98314" lon="-1.36744">
        <ele>-0.20000000298023</ele>
        <time>2021-11-09T10:09:15.000Z</time>
      </trkpt>
      <trkpt lat="45.98308" lon="-1.36749">
        <ele>-0.20000000298023</ele>
        <time>2021-11-09T10:09:16.000Z</time>
      </trkpt>
      <trkpt lat="45.98259" lon="-1.36795">
        <ele>-0.20000000298023</ele>
        <time>2021-11-09T10:09:24.000Z</time>
      </trkpt>
      <trkpt lat="45.98254" lon="-1.36801">
        <ele>6</ele>
        <time>2021-11-09T10:09:25.000Z</time>
      </trkpt>
      <trkpt lat="45.98226" lon="-1.36826">
        <ele>6.6</ele>
        <time>2021-11-09T10:09:30.000Z</time>
      </trkpt>
      <trkpt lat="45.9822" lon="-1.36826">
        <ele>6.7</ele>
        <time>2021-11-09T10:09:31.000Z</time>
      </trkpt>
      <trkpt lat="45.98215" lon="-1.36821">
        <ele>6.5</ele>
        <time>2021-11-09T10:09:32.000Z</time>
      </trkpt>
      <trkpt lat="45.98213" lon="-1.36814">
        <ele>0.20000000298023</ele>
        <time>2021-11-09T10:09:33.000Z</time>
      </trkpt>
      <trkpt lat="45.98206" lon="-1.36791">
        <ele>6.3</ele>
        <time>2021-11-09T10:09:36.000Z</time>
      </trkpt>
      <trkpt lat="45.98201" lon="-1.36787">
        <ele>6.5</ele>
        <time>2021-11-09T10:09:37.000Z</time>
      </trkpt>
      <trkpt lat="45.98189" lon="-1.36792">
        <ele>6.5</ele>
        <time>2021-11-09T10:09:39.000Z</time>
      </trkpt>
      <trkpt lat="45.98144" lon="-1.36833">
        <ele>-0.60000002384186</ele>
        <time>2021-11-09T10:09:47.000Z</time>
      </trkpt>
      <trkpt lat="45.98128" lon="-1.36849">
        <ele>-0.40000000596046</ele>
        <time>2021-11-09T10:09:50.000Z</time>
      </trkpt>
      <trkpt lat="45.9811" lon="-1.36865">
        <ele>0.20000000298023</ele>
        <time>2021-11-09T10:09:53.000Z</time>
      </trkpt>
      <trkpt lat="45.98098" lon="-1.36876">
        <ele>0.20000000298023</ele>
        <time>2021-11-09T10:09:55.000Z</time>
      </trkpt>
      <trkpt lat="45.98087" lon="-1.36879">
        <ele>6</ele>
        <time>2021-11-09T10:09:57.000Z</time>
      </trkpt>
      <trkpt lat="45.98076" lon="-1.36871">
        <ele>0.20000000298023</ele>
        <time>2021-11-09T10:09:59.000Z</time>
      </trkpt>
      <trkpt lat="45.98071" lon="-1.36864">
        <ele>0.40000000596046</ele>
        <time>2021-11-09T10:10:00.000Z</time>
      </trkpt>
      <trkpt lat="45.98067" lon="-1.36858">
        <ele>0.40000000596046</ele>
        <time>2021-11-09T10:10:01.000Z</time>
      </trkpt>
      <trkpt lat="45.98056" lon="-1.36835">
        <ele>1</ele>
        <time>2021-11-09T10:10:04.000Z</time>
      </trkpt>
      <trkpt lat="45.98053" lon="-1.36827">
        <ele>1</ele>
        <time>2021-11-09T10:10:05.000Z</time>
      </trkpt>
      <trkpt lat="45.98025" lon="-1.36755">
        <ele>1.6000000238419</ele>
        <time>2021-11-09T10:10:14.000Z</time>
      </trkpt>
      <trkpt lat="45.98018" lon="-1.3674">
        <ele>1.3999999761581</ele>
        <time>2021-11-09T10:10:16.000Z</time>
      </trkpt>
      <trkpt lat="45.98001" lon="-1.36702">
        <ele>2</ele>
        <time>2021-11-09T10:10:21.000Z</time>
      </trkpt>
      <trkpt lat="45.97991" lon="-1.36679">
        <ele>3</ele>
        <time>2021-11-09T10:10:24.000Z</time>
      </trkpt>
      <trkpt lat="45.97984" lon="-1.36665">
        <ele>3.2000000476837</ele>
        <time>2021-11-09T10:10:26.000Z</time>
      </trkpt>
      <trkpt lat="45.97965" lon="-1.36631">
        <ele>3.5999999046326</ele>
        <time>2021-11-09T10:10:31.000Z</time>
      </trkpt>
      <trkpt lat="45.97961" lon="-1.36626">
        <ele>3.5999999046326</ele>
        <time>2021-11-09T10:10:32.000Z</time>
      </trkpt>
      <trkpt lat="45.97956" lon="-1.36625">
        <ele>3.5999999046326</ele>
        <time>2021-11-09T10:10:33.000Z</time>
      </trkpt>
      <trkpt lat="45.97946" lon="-1.3663">
        <ele>3.7999999523163</ele>
        <time>2021-11-09T10:10:35.000Z</time>
      </trkpt>
      <trkpt lat="45.97936" lon="-1.36641">
        <ele>3</ele>
        <time>2021-11-09T10:10:37.000Z</time>
      </trkpt>
      <trkpt lat="45.9792" lon="-1.36659">
        <ele>2.7999999523163</ele>
        <time>2021-11-09T10:10:40.000Z</time>
      </trkpt>
      <trkpt lat="45.97903" lon="-1.36675">
        <ele>2.5999999046326</ele>
        <time>2021-11-09T10:10:43.000Z</time>
      </trkpt>
      <trkpt lat="45.9789" lon="-1.36682">
        <ele>2.5999999046326</ele>
        <time>2021-11-09T10:10:45.000Z</time>
      </trkpt>
      <trkpt lat="45.97878" lon="-1.36689">
        <ele>2.5999999046326</ele>
        <time>2021-11-09T10:10:47.000Z</time>
      </trkpt>
      <trkpt lat="45.97867" lon="-1.367">
        <ele>2.4000000953674</ele>
        <time>2021-11-09T10:10:49.000Z</time>
      </trkpt>
      <trkpt lat="45.97822" lon="-1.36749">
        <ele>3.2000000476837</ele>
        <time>2021-11-09T10:10:57.000Z</time>
      </trkpt>
      <trkpt lat="45.97816" lon="-1.36755">
        <ele>3.2000000476837</ele>
        <time>2021-11-09T10:10:58.000Z</time>
      </trkpt>
      <trkpt lat="45.97769" lon="-1.36806">
        <ele>3.4000000953674</ele>
        <time>2021-11-09T10:11:06.000Z</time>
      </trkpt>
      <trkpt lat="45.97758" lon="-1.36817">
        <ele>3.4000000953674</ele>
        <time>2021-11-09T10:11:08.000Z</time>
      </trkpt>
      <trkpt lat="45.97751" lon="-1.36831">
        <ele>3.2000000476837</ele>
        <time>2021-11-09T10:11:10.000Z</time>
      </trkpt>
      <trkpt lat="45.97752" lon="-1.36839">
        <ele>3.4000000953674</ele>
        <time>2021-11-09T10:11:11.000Z</time>
      </trkpt>
      <trkpt lat="45.97756" lon="-1.36845">
        <ele>3.4000000953674</ele>
        <time>2021-11-09T10:11:12.000Z</time>
      </trkpt>
      <trkpt lat="45.97765" lon="-1.36859">
        <ele>4.1999998092651</ele>
        <time>2021-11-09T10:11:14.000Z</time>
      </trkpt>
      <trkpt lat="45.97768" lon="-1.36867">
        <ele>4.4000000953674</ele>
        <time>2021-11-09T10:11:15.000Z</time>
      </trkpt>
      <trkpt lat="45.97768" lon="-1.36884">
        <ele>4.1999998092651</ele>
        <time>2021-11-09T10:11:17.000Z</time>
      </trkpt>
      <trkpt lat="45.97759" lon="-1.36897">
        <ele>3.7999999523163</ele>
        <time>2021-11-09T10:11:19.000Z</time>
      </trkpt>
      <trkpt lat="45.9773" lon="-1.36928">
        <ele>3.4000000953674</ele>
        <time>2021-11-09T10:11:24.000Z</time>
      </trkpt>
      <trkpt lat="45.97712" lon="-1.36947">
        <ele>3</ele>
        <time>2021-11-09T10:11:27.000Z</time>
      </trkpt>
      <trkpt lat="45.97687" lon="-1.3697">
        <ele>3.2000000476837</ele>
        <time>2021-11-09T10:11:31.000Z</time>
      </trkpt>
      <trkpt lat="45.97645" lon="-1.37013">
        <ele>3.5999999046326</ele>
        <time>2021-11-09T10:11:38.000Z</time>
      </trkpt>
      <trkpt lat="45.97638" lon="-1.37017">
        <ele>3.5999999046326</ele>
        <time>2021-11-09T10:11:39.000Z</time>
      </trkpt>
      <trkpt lat="45.97597" lon="-1.37046">
        <ele>3.5999999046326</ele>
        <time>2021-11-09T10:11:45.000Z</time>
      </trkpt>
      <trkpt lat="45.97545" lon="-1.37093">
        <ele>3.5999999046326</ele>
        <time>2021-11-09T10:11:53.000Z</time>
      </trkpt>
      <trkpt lat="45.9753" lon="-1.37106">
        <ele>3.5999999046326</ele>
        <time>2021-11-09T10:11:55.000Z</time>
      </trkpt>
      <trkpt lat="45.97492" lon="-1.3714">
        <ele>3.2000000476837</ele>
        <time>2021-11-09T10:12:01.000Z</time>
      </trkpt>
      <trkpt lat="45.97485" lon="-1.37143">
        <ele>3.2000000476837</ele>
        <time>2021-11-09T10:12:02.000Z</time>
      </trkpt>
      <trkpt lat="45.97479" lon="-1.37141">
        <ele>3.2000000476837</ele>
        <time>2021-11-09T10:12:03.000Z</time>
      </trkpt>
      <trkpt lat="45.97474" lon="-1.37135">
        <ele>3.2000000476837</ele>
        <time>2021-11-09T10:12:04.000Z</time>
      </trkpt>
      <trkpt lat="45.9747" lon="-1.37128">
        <ele>3.2000000476837</ele>
        <time>2021-11-09T10:12:05.000Z</time>
      </trkpt>
      <trkpt lat="45.97451" lon="-1.37086">
        <ele>3.2000000476837</ele>
        <time>2021-11-09T10:12:10.000Z</time>
      </trkpt>
      <trkpt lat="45.97419" lon="-1.37019">
        <ele>3</ele>
        <time>2021-11-09T10:12:19.000Z</time>
      </trkpt>
      <trkpt lat="45.97401" lon="-1.36971">
        <ele>3.7999999523163</ele>
        <time>2021-11-09T10:12:25.000Z</time>
      </trkpt>
      <trkpt lat="45.97387" lon="-1.36939">
        <ele>4.1999998092651</ele>
        <time>2021-11-09T10:12:29.000Z</time>
      </trkpt>
      <trkpt lat="45.97377" lon="-1.36918">
        <ele>4.1999998092651</ele>
        <time>2021-11-09T10:12:32.000Z</time>
      </trkpt>
      <trkpt lat="45.97369" lon="-1.36904">
        <ele>4.1999998092651</ele>
        <time>2021-11-09T10:12:34.000Z</time>
      </trkpt>
      <trkpt lat="45.97351" lon="-1.36866">
        <ele>4.8000001907349</ele>
        <time>2021-11-09T10:12:39.000Z</time>
      </trkpt>
      <trkpt lat="45.97328" lon="-1.3682">
        <ele>5.4000000953674</ele>
        <time>2021-11-09T10:12:45.000Z</time>
      </trkpt>
      <trkpt lat="45.97321" lon="-1.36804">
        <ele>5.4000000953674</ele>
        <time>2021-11-09T10:12:47.000Z</time>
      </trkpt>
      <trkpt lat="45.97288" lon="-1.36739">
        <ele>5.1999998092651</ele>
        <time>2021-11-09T10:12:56.000Z</time>
      </trkpt>
      <trkpt lat="45.97285" lon="-1.36732">
        <ele>5.1999998092651</ele>
        <time>2021-11-09T10:12:57.000Z</time>
      </trkpt>
      <trkpt lat="45.97254" lon="-1.36668">
        <ele>5.1999998092651</ele>
        <time>2021-11-09T10:13:06.000Z</time>
      </trkpt>
      <trkpt lat="45.9725" lon="-1.36662">
        <ele>5.1999998092651</ele>
        <time>2021-11-09T10:13:07.000Z</time>
      </trkpt>
      <trkpt lat="45.97224" lon="-1.36605">
        <ele>5.8000001907349</ele>
        <time>2021-11-09T10:13:15.000Z</time>
      </trkpt>
      <trkpt lat="45.97196" lon="-1.36546">
        <ele>6.1999998092651</ele>
        <time>2021-11-09T10:13:23.000Z</time>
      </trkpt>
      <trkpt lat="45.97191" lon="-1.36537">
        <ele>6.4000000953674</ele>
        <time>2021-11-09T10:13:24.000Z</time>
      </trkpt>
      <trkpt lat="45.97183" lon="-1.36524">
        <ele>6.5999999046326</ele>
        <time>2021-11-09T10:13:26.000Z</time>
      </trkpt>
      <trkpt lat="45.97169" lon="-1.36506">
        <ele>6.5999999046326</ele>
        <time>2021-11-09T10:13:29.000Z</time>
      </trkpt>
      <trkpt lat="45.97133" lon="-1.36457">
        <ele>6.8000001907349</ele>
        <time>2021-11-09T10:13:36.000Z</time>
      </trkpt>
      <trkpt lat="45.97101" lon="-1.36404">
        <ele>6.5999999046326</ele>
        <time>2021-11-09T10:13:43.000Z</time>
      </trkpt>
      <trkpt lat="45.97085" lon="-1.36375">
        <ele>6.4000000953674</ele>
        <time>2021-11-09T10:13:47.000Z</time>
      </trkpt>
      <trkpt lat="45.9708" lon="-1.36371">
        <ele>6.5999999046326</ele>
        <time>2021-11-09T10:13:48.000Z</time>
      </trkpt>
      <trkpt lat="45.97076" lon="-1.36372">
        <ele>6.5999999046326</ele>
        <time>2021-11-09T10:13:49.000Z</time>
      </trkpt>
      <trkpt lat="45.97072" lon="-1.36375">
        <ele>6.5999999046326</ele>
        <time>2021-11-09T10:13:50.000Z</time>
      </trkpt>
      <trkpt lat="45.97067" lon="-1.36378">
        <ele>6.5999999046326</ele>
        <time>2021-11-09T10:13:51.000Z</time>
      </trkpt>
      <trkpt lat="45.97056" lon="-1.36377">
        <ele>6.1999998092651</ele>
        <time>2021-11-09T10:13:53.000Z</time>
      </trkpt>
      <trkpt lat="45.97045" lon="-1.36367">
        <ele>6.1999998092651</ele>
        <time>2021-11-09T10:13:55.000Z</time>
      </trkpt>
      <trkpt lat="45.9704" lon="-1.3636">
        <ele>6.1999998092651</ele>
        <time>2021-11-09T10:13:56.000Z</time>
      </trkpt>
      <trkpt lat="45.97009" lon="-1.36322">
        <ele>5.8000001907349</ele>
        <time>2021-11-09T10:14:02.000Z</time>
      </trkpt>
      <trkpt lat="45.96999" lon="-1.36309">
        <ele>5.8000001907349</ele>
        <time>2021-11-09T10:14:04.000Z</time>
      </trkpt>
      <trkpt lat="45.9697" lon="-1.36271">
        <ele>6.1999998092651</ele>
        <time>2021-11-09T10:14:10.000Z</time>
      </trkpt>
      <trkpt lat="45.96935" lon="-1.36222">
        <ele>6.4000000953674</ele>
        <time>2021-11-09T10:14:17.000Z</time>
      </trkpt>
      <trkpt lat="45.96906" lon="-1.36181">
        <ele>6.5999999046326</ele>
        <time>2021-11-09T10:14:23.000Z</time>
      </trkpt>
      <trkpt lat="45.96872" lon="-1.36135">
        <ele>6.5999999046326</ele>
        <time>2021-11-09T10:14:30.000Z</time>
      </trkpt>
      <trkpt lat="45.9686" lon="-1.36121">
        <ele>6.5999999046326</ele>
        <time>2021-11-09T10:14:32.000Z</time>
      </trkpt>
      <trkpt lat="45.96847" lon="-1.36099">
        <ele>6.8000001907349</ele>
        <time>2021-11-09T10:14:35.000Z</time>
      </trkpt>
      <trkpt lat="45.96836" lon="-1.36082">
        <ele>7</ele>
        <time>2021-11-09T10:14:37.000Z</time>
      </trkpt>
      <trkpt lat="45.96817" lon="-1.36055">
        <ele>7.1999998092651</ele>
        <time>2021-11-09T10:14:41.000Z</time>
      </trkpt>
      <trkpt lat="45.96813" lon="-1.36049">
        <ele>7.1999998092651</ele>
        <time>2021-11-09T10:14:42.000Z</time>
      </trkpt>
      <trkpt lat="45.96803" lon="-1.36047">
        <ele>7.1999998092651</ele>
        <time>2021-11-09T10:14:44.000Z</time>
      </trkpt>
      <trkpt lat="45.96795" lon="-1.36058">
        <ele>7.4000000953674</ele>
        <time>2021-11-09T10:14:46.000Z</time>
      </trkpt>
      <trkpt lat="45.96779" lon="-1.36089">
        <ele>7.4000000953674</ele>
        <time>2021-11-09T10:14:50.000Z</time>
      </trkpt>
      <trkpt lat="45.96768" lon="-1.36111">
        <ele>7.4000000953674</ele>
        <time>2021-11-09T10:14:53.000Z</time>
      </trkpt>
      <trkpt lat="45.96758" lon="-1.36129">
        <ele>7.1999998092651</ele>
        <time>2021-11-09T10:14:55.000Z</time>
      </trkpt>
      <trkpt lat="45.96754" lon="-1.36136">
        <ele>7.1999998092651</ele>
        <time>2021-11-09T10:14:56.000Z</time>
      </trkpt>
      <trkpt lat="45.96749" lon="-1.3614">
        <ele>7.1999998092651</ele>
        <time>2021-11-09T10:14:57.000Z</time>
      </trkpt>
      <trkpt lat="45.96743" lon="-1.36141">
        <ele>7.4000000953674</ele>
        <time>2021-11-09T10:14:58.000Z</time>
      </trkpt>
      <trkpt lat="45.96737" lon="-1.36139">
        <ele>7.1999998092651</ele>
        <time>2021-11-09T10:14:59.000Z</time>
      </trkpt>
      <trkpt lat="45.96728" lon="-1.3613">
        <ele>7.1999998092651</ele>
        <time>2021-11-09T10:15:01.000Z</time>
      </trkpt>
      <trkpt lat="45.96685" lon="-1.36079">
        <ele>6.8000001907349</ele>
        <time>2021-11-09T10:15:09.000Z</time>
      </trkpt>
      <trkpt lat="45.96681" lon="-1.36074">
        <ele>6.5999999046326</ele>
        <time>2021-11-09T10:15:10.000Z</time>
      </trkpt>
      <trkpt lat="45.96676" lon="-1.3607">
        <ele>6.1999998092651</ele>
        <time>2021-11-09T10:15:11.000Z</time>
      </trkpt>
      <trkpt lat="45.96672" lon="-1.3607">
        <ele>6.1999998092651</ele>
        <time>2021-11-09T10:15:12.000Z</time>
      </trkpt>
      <trkpt lat="45.96663" lon="-1.36085">
        <ele>6.1999998092651</ele>
        <time>2021-11-09T10:15:15.000Z</time>
      </trkpt>
      <trkpt lat="45.96643" lon="-1.3612">
        <ele>6.1999998092651</ele>
        <time>2021-11-09T10:15:20.000Z</time>
      </trkpt>
      <trkpt lat="45.9664" lon="-1.36125">
        <ele>6.1999998092651</ele>
        <time>2021-11-09T10:15:21.000Z</time>
      </trkpt>
      <trkpt lat="45.96626" lon="-1.36147">
        <ele>6.5999999046326</ele>
        <time>2021-11-09T10:15:24.000Z</time>
      </trkpt>
      <trkpt lat="45.96621" lon="-1.36153">
        <ele>6.5999999046326</ele>
        <time>2021-11-09T10:15:25.000Z</time>
      </trkpt>
      <trkpt lat="45.96612" lon="-1.36158">
        <ele>6.8000001907349</ele>
        <time>2021-11-09T10:15:27.000Z</time>
      </trkpt>
      <trkpt lat="45.96603" lon="-1.36143">
        <ele>7</ele>
        <time>2021-11-09T10:15:30.000Z</time>
      </trkpt>
      <trkpt lat="45.96597" lon="-1.36131">
        <ele>7</ele>
        <time>2021-11-09T10:15:32.000Z</time>
      </trkpt>
      <trkpt lat="45.9659" lon="-1.3612">
        <ele>6.8000001907349</ele>
        <time>2021-11-09T10:15:34.000Z</time>
      </trkpt>
      <trkpt lat="45.96582" lon="-1.36106">
        <ele>6.5999999046326</ele>
        <time>2021-11-09T10:15:36.000Z</time>
      </trkpt>
      <trkpt lat="45.96582" lon="-1.36091">
        <ele>6.4000000953674</ele>
        <time>2021-11-09T10:15:38.000Z</time>
      </trkpt>
      <trkpt lat="45.96586" lon="-1.36078">
        <ele>6</ele>
        <time>2021-11-09T10:15:40.000Z</time>
      </trkpt>
      <trkpt lat="45.96587" lon="-1.36062">
        <ele>5.8000001907349</ele>
        <time>2021-11-09T10:15:42.000Z</time>
      </trkpt>
      <trkpt lat="45.96582" lon="-1.36047">
        <ele>5.5999999046326</ele>
        <time>2021-11-09T10:15:44.000Z</time>
      </trkpt>
      <trkpt lat="45.96575" lon="-1.36024">
        <ele>5.1999998092651</ele>
        <time>2021-11-09T10:15:47.000Z</time>
      </trkpt>
      <trkpt lat="45.96554" lon="-1.35971">
        <ele>5.1999998092651</ele>
        <time>2021-11-09T10:15:54.000Z</time>
      </trkpt>
      <trkpt lat="45.96551" lon="-1.35964">
        <ele>5</ele>
        <time>2021-11-09T10:15:55.000Z</time>
      </trkpt>
      <trkpt lat="45.96533" lon="-1.3593">
        <ele>5.1999998092651</ele>
        <time>2021-11-09T10:16:00.000Z</time>
      </trkpt>
      <trkpt lat="45.96531" lon="-1.35923">
        <ele>5.1999998092651</ele>
        <time>2021-11-09T10:16:01.000Z</time>
      </trkpt>
      <trkpt lat="45.96531" lon="-1.35908">
        <ele>5.4000000953674</ele>
        <time>2021-11-09T10:16:03.000Z</time>
      </trkpt>
      <trkpt lat="45.96547" lon="-1.35863">
        <ele>5.8000001907349</ele>
        <time>2021-11-09T10:16:09.000Z</time>
      </trkpt>
      <trkpt lat="45.96573" lon="-1.35816">
        <ele>5.8000001907349</ele>
        <time>2021-11-09T10:16:16.000Z</time>
      </trkpt>
      <trkpt lat="45.9661" lon="-1.35756">
        <ele>6.1999998092651</ele>
        <time>2021-11-09T10:16:25.000Z</time>
      </trkpt>
      <trkpt lat="45.96631" lon="-1.35707">
        <ele>6.1999998092651</ele>
        <time>2021-11-09T10:16:32.000Z</time>
      </trkpt>
      <trkpt lat="45.96638" lon="-1.35682">
        <ele>5.8000001907349</ele>
        <time>2021-11-09T10:16:35.000Z</time>
      </trkpt>
      <trkpt lat="45.96636" lon="-1.35668">
        <ele>5.8000001907349</ele>
        <time>2021-11-09T10:16:37.000Z</time>
      </trkpt>
      <trkpt lat="45.9663" lon="-1.35654">
        <ele>5.8000001907349</ele>
        <time>2021-11-09T10:16:39.000Z</time>
      </trkpt>
      <trkpt lat="45.96619" lon="-1.35632">
        <ele>5.8000001907349</ele>
        <time>2021-11-09T10:16:42.000Z</time>
      </trkpt>
      <trkpt lat="45.96605" lon="-1.35603">
        <ele>6</ele>
        <time>2021-11-09T10:16:46.000Z</time>
      </trkpt>
      <trkpt lat="45.96601" lon="-1.35597">
        <ele>6</ele>
        <time>2021-11-09T10:16:47.000Z</time>
      </trkpt>
      <trkpt lat="45.96594" lon="-1.35593">
        <ele>6</ele>
        <time>2021-11-09T10:16:48.000Z</time>
      </trkpt>
      <trkpt lat="45.96588" lon="-1.35594">
        <ele>6</ele>
        <time>2021-11-09T10:16:49.000Z</time>
      </trkpt>
      <trkpt lat="45.96583" lon="-1.35598">
        <ele>6.1999998092651</ele>
        <time>2021-11-09T10:16:50.000Z</time>
      </trkpt>
      <trkpt lat="45.96572" lon="-1.35612">
        <ele>6.1999998092651</ele>
        <time>2021-11-09T10:16:52.000Z</time>
      </trkpt>
      <trkpt lat="45.9654" lon="-1.35654">
        <ele>6</ele>
        <time>2021-11-09T10:16:58.000Z</time>
      </trkpt>
      <trkpt lat="45.96494" lon="-1.35712">
        <ele>5.8000001907349</ele>
        <time>2021-11-09T10:17:06.000Z</time>
      </trkpt>
      <trkpt lat="45.96479" lon="-1.35732">
        <ele>5.8000001907349</ele>
        <time>2021-11-09T10:17:09.000Z</time>
      </trkpt>
      <trkpt lat="45.96464" lon="-1.3574">
        <ele>6</ele>
        <time>2021-11-09T10:17:11.000Z</time>
      </trkpt>
      <trkpt lat="45.96458" lon="-1.35744">
        <ele>6</ele>
        <time>2021-11-09T10:17:12.000Z</time>
      </trkpt>
      <trkpt lat="45.96441" lon="-1.35763">
        <ele>6.1999998092651</ele>
        <time>2021-11-09T10:17:15.000Z</time>
      </trkpt>
      <trkpt lat="45.96426" lon="-1.35781">
        <ele>6.1999998092651</ele>
        <time>2021-11-09T10:17:18.000Z</time>
      </trkpt>
      <trkpt lat="45.96414" lon="-1.35784">
        <ele>5.8000001907349</ele>
        <time>2021-11-09T10:17:20.000Z</time>
      </trkpt>
      <trkpt lat="45.96407" lon="-1.35772">
        <ele>5.8000001907349</ele>
        <time>2021-11-09T10:17:22.000Z</time>
      </trkpt>
      <trkpt lat="45.96399" lon="-1.35758">
        <ele>5.8000001907349</ele>
        <time>2021-11-09T10:17:24.000Z</time>
      </trkpt>
      <trkpt lat="45.96394" lon="-1.35749">
        <ele>5.5999999046326</ele>
        <time>2021-11-09T10:17:25.000Z</time>
      </trkpt>
      <trkpt lat="45.96375" lon="-1.3572">
        <ele>5.8000001907349</ele>
        <time>2021-11-09T10:17:29.000Z</time>
      </trkpt>
      <trkpt lat="45.96345" lon="-1.35673">
        <ele>6.1999998092651</ele>
        <time>2021-11-09T10:17:35.000Z</time>
      </trkpt>
      <trkpt lat="45.96336" lon="-1.3566">
        <ele>6.5999999046326</ele>
        <time>2021-11-09T10:17:37.000Z</time>
      </trkpt>
      <trkpt lat="45.96312" lon="-1.35621">
        <ele>7.1999998092651</ele>
        <time>2021-11-09T10:17:43.000Z</time>
      </trkpt>
      <trkpt lat="45.96314" lon="-1.35612">
        <ele>7.5999999046326</ele>
        <time>2021-11-09T10:17:45.000Z</time>
      </trkpt>
      <trkpt lat="45.9632" lon="-1.35602">
        <ele>7.5999999046326</ele>
        <time>2021-11-09T10:17:47.000Z</time>
      </trkpt>
      <trkpt lat="45.9632" lon="-1.35597">
        <ele>7.8000001907349</ele>
        <time>2021-11-09T10:17:48.000Z</time>
      </trkpt>
      <trkpt lat="45.96313" lon="-1.35593">
        <ele>7.8000001907349</ele>
        <time>2021-11-09T10:17:50.000Z</time>
      </trkpt>
      <trkpt lat="45.96308" lon="-1.35591">
        <ele>8</ele>
        <time>2021-11-09T10:17:51.000Z</time>
      </trkpt>
      <trkpt lat="45.96278" lon="-1.3558">
        <ele>8.3999996185303</ele>
        <time>2021-11-09T10:17:56.000Z</time>
      </trkpt>
      <trkpt lat="45.96264" lon="-1.35576">
        <ele>8.6000003814697</ele>
        <time>2021-11-09T10:17:58.000Z</time>
      </trkpt>
      <trkpt lat="45.96236" lon="-1.35567">
        <ele>8.8000001907349</ele>
        <time>2021-11-09T10:18:02.000Z</time>
      </trkpt>
      <trkpt lat="45.96194" lon="-1.35553">
        <ele>8.3999996185303</ele>
        <time>2021-11-09T10:18:08.000Z</time>
      </trkpt>
      <trkpt lat="45.96174" lon="-1.35554">
        <ele>8.6000003814697</ele>
        <time>2021-11-09T10:18:11.000Z</time>
      </trkpt>
      <trkpt lat="45.9616" lon="-1.35558">
        <ele>8.3999996185303</ele>
        <time>2021-11-09T10:18:13.000Z</time>
      </trkpt>
      <trkpt lat="45.96118" lon="-1.35569">
        <ele>8.3999996185303</ele>
        <time>2021-11-09T10:18:19.000Z</time>
      </trkpt>
      <trkpt lat="45.96103" lon="-1.35574">
        <ele>8.3999996185303</ele>
        <time>2021-11-09T10:18:21.000Z</time>
      </trkpt>
      <trkpt lat="45.96074" lon="-1.35578">
        <ele>8.3999996185303</ele>
        <time>2021-11-09T10:18:25.000Z</time>
      </trkpt>
      <trkpt lat="45.96061" lon="-1.35576">
        <ele>8.1999998092651</ele>
        <time>2021-11-09T10:18:27.000Z</time>
      </trkpt>
      <trkpt lat="45.96048" lon="-1.35569">
        <ele>8.1999998092651</ele>
        <time>2021-11-09T10:18:29.000Z</time>
      </trkpt>
      <trkpt lat="45.96024" lon="-1.35551">
        <ele>8</ele>
        <time>2021-11-09T10:18:33.000Z</time>
      </trkpt>
      <trkpt lat="45.96018" lon="-1.35546">
        <ele>8</ele>
        <time>2021-11-09T10:18:34.000Z</time>
      </trkpt>
      <trkpt lat="45.9599" lon="-1.35508">
        <ele>8.3999996185303</ele>
        <time>2021-11-09T10:18:40.000Z</time>
      </trkpt>
      <trkpt lat="45.95956" lon="-1.35457">
        <ele>9</ele>
        <time>2021-11-09T10:18:47.000Z</time>
      </trkpt>
      <trkpt lat="45.95925" lon="-1.35418">
        <ele>9.6000003814697</ele>
        <time>2021-11-09T10:18:53.000Z</time>
      </trkpt>
      <trkpt lat="45.95921" lon="-1.35413">
        <ele>9.8000001907349</ele>
        <time>2021-11-09T10:18:54.000Z</time>
      </trkpt>
      <trkpt lat="45.95906" lon="-1.35407">
        <ele>10</ele>
        <time>2021-11-09T10:18:56.000Z</time>
      </trkpt>
      <trkpt lat="45.95894" lon="-1.35403">
        <ele>9.8000001907349</ele>
        <time>2021-11-09T10:18:58.000Z</time>
      </trkpt>
      <trkpt lat="45.95886" lon="-1.35395">
        <ele>9.8000001907349</ele>
        <time>2021-11-09T10:19:00.000Z</time>
      </trkpt>
      <trkpt lat="45.95886" lon="-1.35389">
        <ele>10</ele>
        <time>2021-11-09T10:19:01.000Z</time>
      </trkpt>
      <trkpt lat="45.95888" lon="-1.35382">
        <ele>10</ele>
        <time>2021-11-09T10:19:02.000Z</time>
      </trkpt>
      <trkpt lat="45.95893" lon="-1.35368">
        <ele>9.8000001907349</ele>
        <time>2021-11-09T10:19:04.000Z</time>
      </trkpt>
      <trkpt lat="45.959" lon="-1.35356">
        <ele>9.8000001907349</ele>
        <time>2021-11-09T10:19:06.000Z</time>
      </trkpt>
      <trkpt lat="45.95912" lon="-1.3533">
        <ele>9.6000003814697</ele>
        <time>2021-11-09T10:19:09.000Z</time>
      </trkpt>
      <trkpt lat="45.95936" lon="-1.35276">
        <ele>9.1999998092651</ele>
        <time>2021-11-09T10:19:16.000Z</time>
      </trkpt>
      <trkpt lat="45.95938" lon="-1.35267">
        <ele>9.1999998092651</ele>
        <time>2021-11-09T10:19:17.000Z</time>
      </trkpt>
      <trkpt lat="45.95935" lon="-1.35253">
        <ele>9.3999996185303</ele>
        <time>2021-11-09T10:19:19.000Z</time>
      </trkpt>
      <trkpt lat="45.95927" lon="-1.35241">
        <ele>9</ele>
        <time>2021-11-09T10:19:21.000Z</time>
      </trkpt>
      <trkpt lat="45.95921" lon="-1.35224">
        <ele>9</ele>
        <time>2021-11-09T10:19:23.000Z</time>
      </trkpt>
      <trkpt lat="45.95919" lon="-1.35195">
        <ele>9</ele>
        <time>2021-11-09T10:19:26.000Z</time>
      </trkpt>
      <trkpt lat="45.9592" lon="-1.35177">
        <ele>9</ele>
        <time>2021-11-09T10:19:28.000Z</time>
      </trkpt>
      <trkpt lat="45.95917" lon="-1.35162">
        <ele>9</ele>
        <time>2021-11-09T10:19:30.000Z</time>
      </trkpt>
      <trkpt lat="45.95912" lon="-1.35153">
        <ele>8.8000001907349</ele>
        <time>2021-11-09T10:19:31.000Z</time>
      </trkpt>
      <trkpt lat="45.95907" lon="-1.35147">
        <ele>8.8000001907349</ele>
        <time>2021-11-09T10:19:32.000Z</time>
      </trkpt>
      <trkpt lat="45.95881" lon="-1.3512">
        <ele>9</ele>
        <time>2021-11-09T10:19:37.000Z</time>
      </trkpt>
      <trkpt lat="45.9587" lon="-1.35107">
        <ele>8.6000003814697</ele>
        <time>2021-11-09T10:19:39.000Z</time>
      </trkpt>
      <trkpt lat="45.95859" lon="-1.35092">
        <ele>8.3999996185303</ele>
        <time>2021-11-09T10:19:41.000Z</time>
      </trkpt>
      <trkpt lat="45.9585" lon="-1.35077">
        <ele>8.3999996185303</ele>
        <time>2021-11-09T10:19:43.000Z</time>
      </trkpt>
      <trkpt lat="45.9584" lon="-1.35059">
        <ele>8.3999996185303</ele>
        <time>2021-11-09T10:19:45.000Z</time>
      </trkpt>
      <trkpt lat="45.95839" lon="-1.35042">
        <ele>8.1999998092651</ele>
        <time>2021-11-09T10:19:47.000Z</time>
      </trkpt>
      <trkpt lat="45.95842" lon="-1.35027">
        <ele>7.8000001907349</ele>
        <time>2021-11-09T10:19:49.000Z</time>
      </trkpt>
      <trkpt lat="45.95842" lon="-1.35019">
        <ele>7.5999999046326</ele>
        <time>2021-11-09T10:19:50.000Z</time>
      </trkpt>
      <trkpt lat="45.9584" lon="-1.35011">
        <ele>7.4000000953674</ele>
        <time>2021-11-09T10:19:51.000Z</time>
      </trkpt>
      <trkpt lat="45.95832" lon="-1.34999">
        <ele>7</ele>
        <time>2021-11-09T10:19:53.000Z</time>
      </trkpt>
      <trkpt lat="45.95813" lon="-1.34968">
        <ele>6.4000000953674</ele>
        <time>2021-11-09T10:19:57.000Z</time>
      </trkpt>
      <trkpt lat="45.95802" lon="-1.34954">
        <ele>6.1999998092651</ele>
        <time>2021-11-09T10:19:59.000Z</time>
      </trkpt>
      <trkpt lat="45.95774" lon="-1.34925">
        <ele>6.1999998092651</ele>
        <time>2021-11-09T10:20:04.000Z</time>
      </trkpt>
      <trkpt lat="45.95762" lon="-1.34921">
        <ele>6.4000000953674</ele>
        <time>2021-11-09T10:20:06.000Z</time>
      </trkpt>
      <trkpt lat="45.95755" lon="-1.34922">
        <ele>6.4000000953674</ele>
        <time>2021-11-09T10:20:07.000Z</time>
      </trkpt>
      <trkpt lat="45.95698" lon="-1.34933">
        <ele>6.4000000953674</ele>
        <time>2021-11-09T10:20:15.000Z</time>
      </trkpt>
      <trkpt lat="45.95691" lon="-1.34935">
        <ele>6.4000000953674</ele>
        <time>2021-11-09T10:20:16.000Z</time>
      </trkpt>
      <trkpt lat="45.95632" lon="-1.34947">
        <ele>6.1999998092651</ele>
        <time>2021-11-09T10:20:24.000Z</time>
      </trkpt>
      <trkpt lat="45.95626" lon="-1.34949">
        <ele>6</ele>
        <time>2021-11-09T10:20:25.000Z</time>
      </trkpt>
      <trkpt lat="45.95571" lon="-1.34962">
        <ele>5.8000001907349</ele>
        <time>2021-11-09T10:20:32.000Z</time>
      </trkpt>
      <trkpt lat="45.95557" lon="-1.34965">
        <ele>6.1999998092651</ele>
        <time>2021-11-09T10:20:34.000Z</time>
      </trkpt>
      <trkpt lat="45.9551" lon="-1.34972">
        <ele>7</ele>
        <time>2021-11-09T10:20:40.000Z</time>
      </trkpt>
      <trkpt lat="45.95482" lon="-1.34985">
        <ele>7.5999999046326</ele>
        <time>2021-11-09T10:20:44.000Z</time>
      </trkpt>
      <trkpt lat="45.95467" lon="-1.34991">
        <ele>7.5999999046326</ele>
        <time>2021-11-09T10:20:46.000Z</time>
      </trkpt>
      <trkpt lat="45.95424" lon="-1.35001">
        <ele>7.4000000953674</ele>
        <time>2021-11-09T10:20:52.000Z</time>
      </trkpt>
      <trkpt lat="45.95378" lon="-1.35009">
        <ele>7.4000000953674</ele>
        <time>2021-11-09T10:20:58.000Z</time>
      </trkpt>
      <trkpt lat="45.9532" lon="-1.35029">
        <ele>7.5999999046326</ele>
        <time>2021-11-09T10:21:06.000Z</time>
      </trkpt>
      <trkpt lat="45.95296" lon="-1.35037">
        <ele>7.5999999046326</ele>
        <time>2021-11-09T10:21:09.000Z</time>
      </trkpt>
      <trkpt lat="45.95249" lon="-1.35055">
        <ele>8.1999998092651</ele>
        <time>2021-11-09T10:21:16.000Z</time>
      </trkpt>
      <trkpt lat="45.95242" lon="-1.35065">
        <ele>8.3999996185303</ele>
        <time>2021-11-09T10:21:18.000Z</time>
      </trkpt>
      <trkpt lat="45.9524" lon="-1.35072">
        <ele>8.1999998092651</ele>
        <time>2021-11-09T10:21:19.000Z</time>
      </trkpt>
      <trkpt lat="45.95237" lon="-1.35079">
        <ele>8.3999996185303</ele>
        <time>2021-11-09T10:21:20.000Z</time>
      </trkpt>
      <trkpt lat="45.95225" lon="-1.35101">
        <ele>8.3999996185303</ele>
        <time>2021-11-09T10:21:23.000Z</time>
      </trkpt>
      <trkpt lat="45.95216" lon="-1.35116">
        <ele>8.6000003814697</ele>
        <time>2021-11-09T10:21:25.000Z</time>
      </trkpt>
      <trkpt lat="45.95201" lon="-1.35142">
        <ele>9.1999998092651</ele>
        <time>2021-11-09T10:21:28.000Z</time>
      </trkpt>
      <trkpt lat="45.95187" lon="-1.35166">
        <ele>9.6000003814697</ele>
        <time>2021-11-09T10:21:31.000Z</time>
      </trkpt>
      <trkpt lat="45.95183" lon="-1.35172">
        <ele>9.8000001907349</ele>
        <time>2021-11-09T10:21:32.000Z</time>
      </trkpt>
      <trkpt lat="45.95177" lon="-1.35178">
        <ele>9.8000001907349</ele>
        <time>2021-11-09T10:21:33.000Z</time>
      </trkpt>
      <trkpt lat="45.95147" lon="-1.35205">
        <ele>10.800000190735</ele>
        <time>2021-11-09T10:21:38.000Z</time>
      </trkpt>
      <trkpt lat="45.95137" lon="-1.35216">
        <ele>12</ele>
        <time>2021-11-09T10:21:40.000Z</time>
      </trkpt>
      <trkpt lat="45.95118" lon="-1.35231">
        <ele>13</ele>
        <time>2021-11-09T10:21:43.000Z</time>
      </trkpt>
      <trkpt lat="45.95109" lon="-1.3524">
        <ele>13.800000190735</ele>
        <time>2021-11-09T10:21:45.000Z</time>
      </trkpt>
      <trkpt lat="45.95105" lon="-1.35245">
        <ele>13.800000190735</ele>
        <time>2021-11-09T10:21:46.000Z</time>
      </trkpt>
      <trkpt lat="45.95088" lon="-1.35263">
        <ele>14</ele>
        <time>2021-11-09T10:21:49.000Z</time>
      </trkpt>
      <trkpt lat="45.95066" lon="-1.35289">
        <ele>14</ele>
        <time>2021-11-09T10:21:53.000Z</time>
      </trkpt>
      <trkpt lat="45.95061" lon="-1.35295">
        <ele>14</ele>
        <time>2021-11-09T10:21:54.000Z</time>
      </trkpt>
      <trkpt lat="45.95028" lon="-1.35336">
        <ele>14.800000190735</ele>
        <time>2021-11-09T10:22:00.000Z</time>
      </trkpt>
      <trkpt lat="45.95006" lon="-1.35362">
        <ele>15.199999809265</ele>
        <time>2021-11-09T10:22:04.000Z</time>
      </trkpt>
      <trkpt lat="45.95" lon="-1.3537">
        <ele>15.199999809265</ele>
        <time>2021-11-09T10:22:05.000Z</time>
      </trkpt>
      <trkpt lat="45.94968" lon="-1.35403">
        <ele>16.200000762939</ele>
        <time>2021-11-09T10:22:10.000Z</time>
      </trkpt>
      <trkpt lat="45.94954" lon="-1.35416">
        <ele>16.200000762939</ele>
        <time>2021-11-09T10:22:12.000Z</time>
      </trkpt>
      <trkpt lat="45.94941" lon="-1.35427">
        <ele>16.39999961853</ele>
        <time>2021-11-09T10:22:14.000Z</time>
      </trkpt>
      <trkpt lat="45.94921" lon="-1.35444">
        <ele>16.39999961853</ele>
        <time>2021-11-09T10:22:17.000Z</time>
      </trkpt>
      <trkpt lat="45.94908" lon="-1.35453">
        <ele>16.60000038147</ele>
        <time>2021-11-09T10:22:19.000Z</time>
      </trkpt>
      <trkpt lat="45.94887" lon="-1.35464">
        <ele>16.799999237061</ele>
        <time>2021-11-09T10:22:22.000Z</time>
      </trkpt>
      <trkpt lat="45.94881" lon="-1.35463">
        <ele>16.799999237061</ele>
        <time>2021-11-09T10:22:23.000Z</time>
      </trkpt>
      <trkpt lat="45.94872" lon="-1.35462">
        <ele>16.799999237061</ele>
        <time>2021-11-09T10:22:24.000Z</time>
      </trkpt>
      <trkpt lat="45.94853" lon="-1.3545">
        <ele>16.60000038147</ele>
        <time>2021-11-09T10:22:27.000Z</time>
      </trkpt>
      <trkpt lat="45.94828" lon="-1.3543">
        <ele>16.39999961853</ele>
        <time>2021-11-09T10:22:31.000Z</time>
      </trkpt>
      <trkpt lat="45.94822" lon="-1.35426">
        <ele>16.39999961853</ele>
        <time>2021-11-09T10:22:32.000Z</time>
      </trkpt>
      <trkpt lat="45.94788" lon="-1.35395">
        <ele>15.800000190735</ele>
        <time>2021-11-09T10:22:37.000Z</time>
      </trkpt>
      <trkpt lat="45.94762" lon="-1.35356">
        <ele>15.39999961853</ele>
        <time>2021-11-09T10:22:42.000Z</time>
      </trkpt>
      <trkpt lat="45.94755" lon="-1.35349">
        <ele>15.39999961853</ele>
        <time>2021-11-09T10:22:43.000Z</time>
      </trkpt>
      <trkpt lat="45.94748" lon="-1.35346">
        <ele>15.39999961853</ele>
        <time>2021-11-09T10:22:44.000Z</time>
      </trkpt>
      <trkpt lat="45.94731" lon="-1.35341">
        <ele>15</ele>
        <time>2021-11-09T10:22:46.000Z</time>
      </trkpt>
      <trkpt lat="45.94675" lon="-1.35329">
        <ele>14.199999809265</ele>
        <time>2021-11-09T10:22:54.000Z</time>
      </trkpt>
      <trkpt lat="45.94664" lon="-1.35317">
        <ele>14</ele>
        <time>2021-11-09T10:22:56.000Z</time>
      </trkpt>
      <trkpt lat="45.94661" lon="-1.35309">
        <ele>13.800000190735</ele>
        <time>2021-11-09T10:22:57.000Z</time>
      </trkpt>
      <trkpt lat="45.94653" lon="-1.35261">
        <ele>13.39999961853</ele>
        <time>2021-11-09T10:23:02.000Z</time>
      </trkpt>
      <trkpt lat="45.94649" lon="-1.35241">
        <ele>13.199999809265</ele>
        <time>2021-11-09T10:23:04.000Z</time>
      </trkpt>
      <trkpt lat="45.94644" lon="-1.35214">
        <ele>13.199999809265</ele>
        <time>2021-11-09T10:23:07.000Z</time>
      </trkpt>
      <trkpt lat="45.94644" lon="-1.35206">
        <ele>13.199999809265</ele>
        <time>2021-11-09T10:23:08.000Z</time>
      </trkpt>
      <trkpt lat="45.94646" lon="-1.35187">
        <ele>13</ele>
        <time>2021-11-09T10:23:10.000Z</time>
      </trkpt>
      <trkpt lat="45.94649" lon="-1.35157">
        <ele>12.800000190735</ele>
        <time>2021-11-09T10:23:13.000Z</time>
      </trkpt>
      <trkpt lat="45.9465" lon="-1.35134">
        <ele>12.60000038147</ele>
        <time>2021-11-09T10:23:16.000Z</time>
      </trkpt>
      <trkpt lat="45.94652" lon="-1.35127">
        <ele>12.60000038147</ele>
        <time>2021-11-09T10:23:17.000Z</time>
      </trkpt>
      <trkpt lat="45.94654" lon="-1.3512">
        <ele>12.60000038147</ele>
        <time>2021-11-09T10:23:18.000Z</time>
      </trkpt>
      <trkpt lat="45.94661" lon="-1.35097">
        <ele>12.39999961853</ele>
        <time>2021-11-09T10:23:21.000Z</time>
      </trkpt>
      <trkpt lat="45.94668" lon="-1.3508">
        <ele>12.39999961853</ele>
        <time>2021-11-09T10:23:23.000Z</time>
      </trkpt>
      <trkpt lat="45.94681" lon="-1.35052">
        <ele>12.39999961853</ele>
        <time>2021-11-09T10:23:26.000Z</time>
      </trkpt>
      <trkpt lat="45.94696" lon="-1.35029">
        <ele>12.60000038147</ele>
        <time>2021-11-09T10:23:29.000Z</time>
      </trkpt>
      <trkpt lat="45.94704" lon="-1.35012">
        <ele>12.60000038147</ele>
        <time>2021-11-09T10:23:31.000Z</time>
      </trkpt>
      <trkpt lat="45.94715" lon="-1.34976">
        <ele>12.199999809265</ele>
        <time>2021-11-09T10:23:35.000Z</time>
      </trkpt>
      <trkpt lat="45.94712" lon="-1.34965">
        <ele>12.199999809265</ele>
        <time>2021-11-09T10:23:36.000Z</time>
      </trkpt>
      <trkpt lat="45.94711" lon="-1.34938">
        <ele>12</ele>
        <time>2021-11-09T10:23:38.000Z</time>
      </trkpt>
      <trkpt lat="45.94712" lon="-1.34917">
        <ele>12</ele>
        <time>2021-11-09T10:23:40.000Z</time>
      </trkpt>
      <trkpt lat="45.94712" lon="-1.34908">
        <ele>12</ele>
        <time>2021-11-09T10:23:41.000Z</time>
      </trkpt>
      <trkpt lat="45.94711" lon="-1.34899">
        <ele>12</ele>
        <time>2021-11-09T10:23:42.000Z</time>
      </trkpt>
      <trkpt lat="45.94706" lon="-1.3487">
        <ele>11.800000190735</ele>
        <time>2021-11-09T10:23:45.000Z</time>
      </trkpt>
      <trkpt lat="45.94705" lon="-1.34861">
        <ele>11.800000190735</ele>
        <time>2021-11-09T10:23:46.000Z</time>
      </trkpt>
      <trkpt lat="45.94698" lon="-1.3481">
        <ele>11.800000190735</ele>
        <time>2021-11-09T10:23:51.000Z</time>
      </trkpt>
      <trkpt lat="45.94691" lon="-1.34763">
        <ele>12.199999809265</ele>
        <time>2021-11-09T10:23:56.000Z</time>
      </trkpt>
      <trkpt lat="45.94688" lon="-1.34754">
        <ele>12.199999809265</ele>
        <time>2021-11-09T10:23:57.000Z</time>
      </trkpt>
      <trkpt lat="45.94668" lon="-1.34716">
        <ele>12.39999961853</ele>
        <time>2021-11-09T10:24:02.000Z</time>
      </trkpt>
      <trkpt lat="45.94656" lon="-1.34696">
        <ele>12.800000190735</ele>
        <time>2021-11-09T10:24:05.000Z</time>
      </trkpt>
      <trkpt lat="45.94654" lon="-1.34679">
        <ele>12.800000190735</ele>
        <time>2021-11-09T10:24:07.000Z</time>
      </trkpt>
      <trkpt lat="45.94659" lon="-1.34666">
        <ele>12.60000038147</ele>
        <time>2021-11-09T10:24:09.000Z</time>
      </trkpt>
      <trkpt lat="45.94664" lon="-1.34661">
        <ele>12.60000038147</ele>
        <time>2021-11-09T10:24:10.000Z</time>
      </trkpt>
      <trkpt lat="45.94686" lon="-1.34628">
        <ele>11.60000038147</ele>
        <time>2021-11-09T10:24:15.000Z</time>
      </trkpt>
      <trkpt lat="45.9469" lon="-1.3462">
        <ele>11.199999809265</ele>
        <time>2021-11-09T10:24:16.000Z</time>
      </trkpt>
      <trkpt lat="45.94699" lon="-1.34584">
        <ele>10.199999809265</ele>
        <time>2021-11-09T10:24:20.000Z</time>
      </trkpt>
      <trkpt lat="45.94702" lon="-1.34575">
        <ele>9.6000003814697</ele>
        <time>2021-11-09T10:24:21.000Z</time>
      </trkpt>
      <trkpt lat="45.94706" lon="-1.34557">
        <ele>9</ele>
        <time>2021-11-09T10:24:23.000Z</time>
      </trkpt>
      <trkpt lat="45.94719" lon="-1.34512">
        <ele>8</ele>
        <time>2021-11-09T10:24:28.000Z</time>
      </trkpt>
      <trkpt lat="45.94736" lon="-1.34474">
        <ele>7.1999998092651</ele>
        <time>2021-11-09T10:24:33.000Z</time>
      </trkpt>
      <trkpt lat="45.94744" lon="-1.34459">
        <ele>7</ele>
        <time>2021-11-09T10:24:35.000Z</time>
      </trkpt>
      <trkpt lat="45.94757" lon="-1.34434">
        <ele>7</ele>
        <time>2021-11-09T10:24:38.000Z</time>
      </trkpt>
      <trkpt lat="45.94779" lon="-1.34383">
        <ele>7.4000000953674</ele>
        <time>2021-11-09T10:24:44.000Z</time>
      </trkpt>
      <trkpt lat="45.94787" lon="-1.34366">
        <ele>7.5999999046326</ele>
        <time>2021-11-09T10:24:46.000Z</time>
      </trkpt>
      <trkpt lat="45.94798" lon="-1.34341">
        <ele>8</ele>
        <time>2021-11-09T10:24:49.000Z</time>
      </trkpt>
      <trkpt lat="45.94826" lon="-1.34291">
        <ele>8.6000003814697</ele>
        <time>2021-11-09T10:24:55.000Z</time>
      </trkpt>
      <trkpt lat="45.94844" lon="-1.34259">
        <ele>9.1999998092651</ele>
        <time>2021-11-09T10:24:59.000Z</time>
      </trkpt>
      <trkpt lat="45.94853" lon="-1.3424">
        <ele>9.3999996185303</ele>
        <time>2021-11-09T10:25:01.000Z</time>
      </trkpt>
      <trkpt lat="45.94881" lon="-1.34185">
        <ele>9.8000001907349</ele>
        <time>2021-11-09T10:25:07.000Z</time>
      </trkpt>
      <trkpt lat="45.94902" lon="-1.34155">
        <ele>10</ele>
        <time>2021-11-09T10:25:11.000Z</time>
      </trkpt>
      <trkpt lat="45.94911" lon="-1.3414">
        <ele>10</ele>
        <time>2021-11-09T10:25:13.000Z</time>
      </trkpt>
      <trkpt lat="45.94932" lon="-1.34107">
        <ele>10</ele>
        <time>2021-11-09T10:25:17.000Z</time>
      </trkpt>
      <trkpt lat="45.94939" lon="-1.34092">
        <ele>10</ele>
        <time>2021-11-09T10:25:19.000Z</time>
      </trkpt>
      <trkpt lat="45.9495" lon="-1.34071">
        <ele>10</ele>
        <time>2021-11-09T10:25:22.000Z</time>
      </trkpt>
      <trkpt lat="45.94953" lon="-1.34064">
        <ele>10</ele>
        <time>2021-11-09T10:25:23.000Z</time>
      </trkpt>
      <trkpt lat="45.94958" lon="-1.34049">
        <ele>10.199999809265</ele>
        <time>2021-11-09T10:25:25.000Z</time>
      </trkpt>
      <trkpt lat="45.94969" lon="-1.34017">
        <ele>10.39999961853</ele>
        <time>2021-11-09T10:25:29.000Z</time>
      </trkpt>
      <trkpt lat="45.94972" lon="-1.34007">
        <ele>10.39999961853</ele>
        <time>2021-11-09T10:25:30.000Z</time>
      </trkpt>
      <trkpt lat="45.94978" lon="-1.33989">
        <ele>10.60000038147</ele>
        <time>2021-11-09T10:25:32.000Z</time>
      </trkpt>
      <trkpt lat="45.94988" lon="-1.33961">
        <ele>10.800000190735</ele>
        <time>2021-11-09T10:25:35.000Z</time>
      </trkpt>
      <trkpt lat="45.95003" lon="-1.33925">
        <ele>11</ele>
        <time>2021-11-09T10:25:39.000Z</time>
      </trkpt>
      <trkpt lat="45.95009" lon="-1.33907">
        <ele>10.800000190735</ele>
        <time>2021-11-09T10:25:41.000Z</time>
      </trkpt>
      <trkpt lat="45.95022" lon="-1.3387">
        <ele>11</ele>
        <time>2021-11-09T10:25:45.000Z</time>
      </trkpt>
      <trkpt lat="45.95028" lon="-1.33855">
        <ele>11</ele>
        <time>2021-11-09T10:25:47.000Z</time>
      </trkpt>
      <trkpt lat="45.95041" lon="-1.33828">
        <ele>10.60000038147</ele>
        <time>2021-11-09T10:25:51.000Z</time>
      </trkpt>
      <trkpt lat="45.95041" lon="-1.33811">
        <ele>10.60000038147</ele>
        <time>2021-11-09T10:25:53.000Z</time>
      </trkpt>
      <trkpt lat="45.9504" lon="-1.33801">
        <ele>10.39999961853</ele>
        <time>2021-11-09T10:25:54.000Z</time>
      </trkpt>
      <trkpt lat="45.95041" lon="-1.33794">
        <ele>10.39999961853</ele>
        <time>2021-11-09T10:25:55.000Z</time>
      </trkpt>
      <trkpt lat="45.95051" lon="-1.33784">
        <ele>10.39999961853</ele>
        <time>2021-11-09T10:25:57.000Z</time>
      </trkpt>
      <trkpt lat="45.9509" lon="-1.33747">
        <ele>9.1999998092651</ele>
        <time>2021-11-09T10:26:05.000Z</time>
      </trkpt>
      <trkpt lat="45.95098" lon="-1.33739">
        <ele>8.8000001907349</ele>
        <time>2021-11-09T10:26:07.000Z</time>
      </trkpt>
      <trkpt lat="45.95105" lon="-1.33736">
        <ele>8.6000003814697</ele>
        <time>2021-11-09T10:26:09.000Z</time>
      </trkpt>
      <trkpt lat="45.9512" lon="-1.33726">
        <ele>8.1999998092651</ele>
        <time>2021-11-09T10:26:14.000Z</time>
      </trkpt>
      <trkpt lat="45.95124" lon="-1.33723">
        <ele>8</ele>
        <time>2021-11-09T10:26:15.000Z</time>
      </trkpt>
      <trkpt lat="45.95137" lon="-1.33711">
        <ele>7.8000001907349</ele>
        <time>2021-11-09T10:26:18.000Z</time>
      </trkpt>
      <trkpt lat="45.95141" lon="-1.33705">
        <ele>7.5999999046326</ele>
        <time>2021-11-09T10:26:19.000Z</time>
      </trkpt>
      <trkpt lat="45.9517" lon="-1.33665">
        <ele>7.1999998092651</ele>
        <time>2021-11-09T10:26:25.000Z</time>
      </trkpt>
      <trkpt lat="45.95187" lon="-1.33624">
        <ele>7.4000000953674</ele>
        <time>2021-11-09T10:26:30.000Z</time>
      </trkpt>
      <trkpt lat="45.95213" lon="-1.33548">
        <ele>8.8000001907349</ele>
        <time>2021-11-09T10:26:39.000Z</time>
      </trkpt>
      <trkpt lat="45.95242" lon="-1.33476">
        <ele>7.4000000953674</ele>
        <time>2021-11-09T10:26:48.000Z</time>
      </trkpt>
      <trkpt lat="45.95251" lon="-1.33453">
        <ele>7</ele>
        <time>2021-11-09T10:26:51.000Z</time>
      </trkpt>
      <trkpt lat="45.95262" lon="-1.33428">
        <ele>6.4000000953674</ele>
        <time>2021-11-09T10:26:55.000Z</time>
      </trkpt>
      <trkpt lat="45.95265" lon="-1.33423">
        <ele>6.1999998092651</ele>
        <time>2021-11-09T10:26:56.000Z</time>
      </trkpt>
      <trkpt lat="45.95267" lon="-1.33418">
        <ele>6</ele>
        <time>2021-11-09T10:26:57.000Z</time>
      </trkpt>
      <trkpt lat="45.95276" lon="-1.33402">
        <ele>5</ele>
        <time>2021-11-09T10:27:00.000Z</time>
      </trkpt>
      <trkpt lat="45.95277" lon="-1.33397">
        <ele>4.8000001907349</ele>
        <time>2021-11-09T10:27:01.000Z</time>
      </trkpt>
      <trkpt lat="45.95275" lon="-1.33389">
        <ele>4.4000000953674</ele>
        <time>2021-11-09T10:27:03.000Z</time>
      </trkpt>
      <trkpt lat="45.95259" lon="-1.33382">
        <ele>3.5999999046326</ele>
        <time>2021-11-09T10:27:06.000Z</time>
      </trkpt>
      <trkpt lat="45.95254" lon="-1.33379">
        <ele>3.7999999523163</ele>
        <time>2021-11-09T10:27:07.000Z</time>
      </trkpt>
      <trkpt lat="45.95222" lon="-1.33359">
        <ele>2.7999999523163</ele>
        <time>2021-11-09T10:27:13.000Z</time>
      </trkpt>
      <trkpt lat="45.95216" lon="-1.33355">
        <ele>2.5999999046326</ele>
        <time>2021-11-09T10:27:14.000Z</time>
      </trkpt>
      <trkpt lat="45.95205" lon="-1.33348">
        <ele>2.5999999046326</ele>
        <time>2021-11-09T10:27:16.000Z</time>
      </trkpt>
      <trkpt lat="45.95194" lon="-1.3334">
        <ele>2.5999999046326</ele>
        <time>2021-11-09T10:27:18.000Z</time>
      </trkpt>
      <trkpt lat="45.95188" lon="-1.33336">
        <ele>2.5999999046326</ele>
        <time>2021-11-09T10:27:19.000Z</time>
      </trkpt>
      <trkpt lat="45.95163" lon="-1.33324">
        <ele>2.2000000476837</ele>
        <time>2021-11-09T10:27:23.000Z</time>
      </trkpt>
      <trkpt lat="45.95138" lon="-1.33313">
        <ele>1.3999999761581</ele>
        <time>2021-11-09T10:27:27.000Z</time>
      </trkpt>
      <trkpt lat="45.95125" lon="-1.33307">
        <ele>1.3999999761581</ele>
        <time>2021-11-09T10:27:29.000Z</time>
      </trkpt>
      <trkpt lat="45.95121" lon="-1.33304">
        <ele>1.2000000476837</ele>
        <time>2021-11-09T10:27:30.000Z</time>
      </trkpt>
      <trkpt lat="45.95082" lon="-1.33286">
        <ele>1.2000000476837</ele>
        <time>2021-11-09T10:27:36.000Z</time>
      </trkpt>
      <trkpt lat="45.95075" lon="-1.33284">
        <ele>1.2000000476837</ele>
        <time>2021-11-09T10:27:37.000Z</time>
      </trkpt>
      <trkpt lat="45.95062" lon="-1.33277">
        <ele>1.2000000476837</ele>
        <time>2021-11-09T10:27:39.000Z</time>
      </trkpt>
      <trkpt lat="45.95058" lon="-1.33273">
        <ele>1.3999999761581</ele>
        <time>2021-11-09T10:27:40.000Z</time>
      </trkpt>
      <trkpt lat="45.95047" lon="-1.33261">
        <ele>1.3999999761581</ele>
        <time>2021-11-09T10:27:42.000Z</time>
      </trkpt>
      <trkpt lat="45.95033" lon="-1.33243">
        <ele>1.3999999761581</ele>
        <time>2021-11-09T10:27:45.000Z</time>
      </trkpt>
      <trkpt lat="45.95019" lon="-1.33225">
        <ele>1.6000000238419</ele>
        <time>2021-11-09T10:27:48.000Z</time>
      </trkpt>
      <trkpt lat="45.95007" lon="-1.33219">
        <ele>1.7999999523163</ele>
        <time>2021-11-09T10:27:50.000Z</time>
      </trkpt>
      <trkpt lat="45.94995" lon="-1.3322">
        <ele>1.7999999523163</ele>
        <time>2021-11-09T10:27:52.000Z</time>
      </trkpt>
      <trkpt lat="45.94987" lon="-1.33223">
        <ele>1.7999999523163</ele>
        <time>2021-11-09T10:27:53.000Z</time>
      </trkpt>
      <trkpt lat="45.94936" lon="-1.33245">
        <ele>1.2000000476837</ele>
        <time>2021-11-09T10:28:01.000Z</time>
      </trkpt>
      <trkpt lat="45.94925" lon="-1.3325">
        <ele>1</ele>
        <time>2021-11-09T10:28:03.000Z</time>
      </trkpt>
      <trkpt lat="45.94914" lon="-1.33245">
        <ele>1.6000000238419</ele>
        <time>2021-11-09T10:28:05.000Z</time>
      </trkpt>
      <trkpt lat="45.94888" lon="-1.33217">
        <ele>2</ele>
        <time>2021-11-09T10:28:10.000Z</time>
      </trkpt>
      <trkpt lat="45.9487" lon="-1.332">
        <ele>2.4000000953674</ele>
        <time>2021-11-09T10:28:13.000Z</time>
      </trkpt>
      <trkpt lat="45.94851" lon="-1.33184">
        <ele>2.7999999523163</ele>
        <time>2021-11-09T10:28:16.000Z</time>
      </trkpt>
      <trkpt lat="45.94845" lon="-1.33179">
        <ele>3</ele>
        <time>2021-11-09T10:28:17.000Z</time>
      </trkpt>
      <trkpt lat="45.94829" lon="-1.3316">
        <ele>3.5999999046326</ele>
        <time>2021-11-09T10:28:20.000Z</time>
      </trkpt>
      <trkpt lat="45.94824" lon="-1.33153">
        <ele>3.5999999046326</ele>
        <time>2021-11-09T10:28:21.000Z</time>
      </trkpt>
      <trkpt lat="45.94798" lon="-1.3312">
        <ele>4.5999999046326</ele>
        <time>2021-11-09T10:28:26.000Z</time>
      </trkpt>
      <trkpt lat="45.94789" lon="-1.33108">
        <ele>5</ele>
        <time>2021-11-09T10:28:28.000Z</time>
      </trkpt>
      <trkpt lat="45.9478" lon="-1.33094">
        <ele>5.4000000953674</ele>
        <time>2021-11-09T10:28:30.000Z</time>
      </trkpt>
      <trkpt lat="45.94776" lon="-1.33085">
        <ele>5.8000001907349</ele>
        <time>2021-11-09T10:28:31.000Z</time>
      </trkpt>
      <trkpt lat="45.94772" lon="-1.33076">
        <ele>6</ele>
        <time>2021-11-09T10:28:32.000Z</time>
      </trkpt>
      <trkpt lat="45.94768" lon="-1.33067">
        <ele>6.4000000953674</ele>
        <time>2021-11-09T10:28:33.000Z</time>
      </trkpt>
      <trkpt lat="45.94759" lon="-1.3305">
        <ele>6.8000001907349</ele>
        <time>2021-11-09T10:28:35.000Z</time>
      </trkpt>
      <trkpt lat="45.94753" lon="-1.33043">
        <ele>7</ele>
        <time>2021-11-09T10:28:36.000Z</time>
      </trkpt>
      <trkpt lat="45.94716" lon="-1.33002">
        <ele>7.8000001907349</ele>
        <time>2021-11-09T10:28:42.000Z</time>
      </trkpt>
      <trkpt lat="45.94704" lon="-1.3299">
        <ele>8.1999998092651</ele>
        <time>2021-11-09T10:28:44.000Z</time>
      </trkpt>
      <trkpt lat="45.94682" lon="-1.32963">
        <ele>8.8000001907349</ele>
        <time>2021-11-09T10:28:48.000Z</time>
      </trkpt>
      <trkpt lat="45.94653" lon="-1.3293">
        <ele>9.1999998092651</ele>
        <time>2021-11-09T10:28:53.000Z</time>
      </trkpt>
      <trkpt lat="45.94623" lon="-1.32899">
        <ele>9.1999998092651</ele>
        <time>2021-11-09T10:28:58.000Z</time>
      </trkpt>
      <trkpt lat="45.94606" lon="-1.3288">
        <ele>9.1999998092651</ele>
        <time>2021-11-09T10:29:01.000Z</time>
      </trkpt>
      <trkpt lat="45.94597" lon="-1.32863">
        <ele>9</ele>
        <time>2021-11-09T10:29:03.000Z</time>
      </trkpt>
      <trkpt lat="45.94587" lon="-1.32847">
        <ele>8.6000003814697</ele>
        <time>2021-11-09T10:29:05.000Z</time>
      </trkpt>
      <trkpt lat="45.94571" lon="-1.32826">
        <ele>8.3999996185303</ele>
        <time>2021-11-09T10:29:08.000Z</time>
      </trkpt>
      <trkpt lat="45.9456" lon="-1.32812">
        <ele>8.1999998092651</ele>
        <time>2021-11-09T10:29:10.000Z</time>
      </trkpt>
      <trkpt lat="45.94517" lon="-1.32757">
        <ele>7.8000001907349</ele>
        <time>2021-11-09T10:29:18.000Z</time>
      </trkpt>
      <trkpt lat="45.94479" lon="-1.3271">
        <ele>7.5999999046326</ele>
        <time>2021-11-09T10:29:25.000Z</time>
      </trkpt>
      <trkpt lat="45.9444" lon="-1.32665">
        <ele>7.8000001907349</ele>
        <time>2021-11-09T10:29:32.000Z</time>
      </trkpt>
      <trkpt lat="45.94415" lon="-1.32633">
        <ele>7.8000001907349</ele>
        <time>2021-11-09T10:29:37.000Z</time>
      </trkpt>
      <trkpt lat="45.94412" lon="-1.32628">
        <ele>7.8000001907349</ele>
        <time>2021-11-09T10:29:38.000Z</time>
      </trkpt>
      <trkpt lat="45.94406" lon="-1.32619">
        <ele>7.8000001907349</ele>
        <time>2021-11-09T10:29:40.000Z</time>
      </trkpt>
      <trkpt lat="45.94402" lon="-1.32618">
        <ele>7.8000001907349</ele>
        <time>2021-11-09T10:29:41.000Z</time>
      </trkpt>
      <trkpt lat="45.94398" lon="-1.32625">
        <ele>7.8000001907349</ele>
        <time>2021-11-09T10:29:43.000Z</time>
      </trkpt>
      <trkpt lat="45.94397" lon="-1.32631">
        <ele>7.8000001907349</ele>
        <time>2021-11-09T10:29:44.000Z</time>
      </trkpt>
      <trkpt lat="45.94396" lon="-1.32648">
        <ele>7.5999999046326</ele>
        <time>2021-11-09T10:29:46.000Z</time>
      </trkpt>
      <trkpt lat="45.94394" lon="-1.32665">
        <ele>7.5999999046326</ele>
        <time>2021-11-09T10:29:48.000Z</time>
      </trkpt>
      <trkpt lat="45.94391" lon="-1.32677">
        <ele>7.5999999046326</ele>
        <time>2021-11-09T10:29:49.000Z</time>
      </trkpt>
      <trkpt lat="45.94381" lon="-1.32704">
        <ele>7.4000000953674</ele>
        <time>2021-11-09T10:29:52.000Z</time>
      </trkpt>
      <trkpt lat="45.94371" lon="-1.3272">
        <ele>7.1999998092651</ele>
        <time>2021-11-09T10:29:54.000Z</time>
      </trkpt>
      <trkpt lat="45.94355" lon="-1.3274">
        <ele>6.8000001907349</ele>
        <time>2021-11-09T10:29:57.000Z</time>
      </trkpt>
      <trkpt lat="45.94327" lon="-1.32778">
        <ele>6.5999999046326</ele>
        <time>2021-11-09T10:30:02.000Z</time>
      </trkpt>
      <trkpt lat="45.9432" lon="-1.32785">
        <ele>6.4000000953674</ele>
        <time>2021-11-09T10:30:03.000Z</time>
      </trkpt>
      <trkpt lat="45.94293" lon="-1.32805">
        <ele>6</ele>
        <time>2021-11-09T10:30:07.000Z</time>
      </trkpt>
      <trkpt lat="45.94279" lon="-1.32813">
        <ele>5.5999999046326</ele>
        <time>2021-11-09T10:30:09.000Z</time>
      </trkpt>
      <trkpt lat="45.94251" lon="-1.32826">
        <ele>5.1999998092651</ele>
        <time>2021-11-09T10:30:13.000Z</time>
      </trkpt>
      <trkpt lat="45.94239" lon="-1.32834">
        <ele>5</ele>
        <time>2021-11-09T10:30:15.000Z</time>
      </trkpt>
      <trkpt lat="45.94202" lon="-1.32871">
        <ele>4.8000001907349</ele>
        <time>2021-11-09T10:30:21.000Z</time>
      </trkpt>
      <trkpt lat="45.94195" lon="-1.32878">
        <ele>4.8000001907349</ele>
        <time>2021-11-09T10:30:22.000Z</time>
      </trkpt>
      <trkpt lat="45.94148" lon="-1.32924">
        <ele>4.1999998092651</ele>
        <time>2021-11-09T10:30:30.000Z</time>
      </trkpt>
      <trkpt lat="45.94135" lon="-1.32936">
        <ele>4.1999998092651</ele>
        <time>2021-11-09T10:30:32.000Z</time>
      </trkpt>
      <trkpt lat="45.94101" lon="-1.32966">
        <ele>3.7999999523163</ele>
        <time>2021-11-09T10:30:38.000Z</time>
      </trkpt>
      <trkpt lat="45.94095" lon="-1.32969">
        <ele>3.7999999523163</ele>
        <time>2021-11-09T10:30:39.000Z</time>
      </trkpt>
      <trkpt lat="45.9409" lon="-1.3297">
        <ele>3.7999999523163</ele>
        <time>2021-11-09T10:30:40.000Z</time>
      </trkpt>
      <trkpt lat="45.94083" lon="-1.3297">
        <ele>3.7999999523163</ele>
        <time>2021-11-09T10:30:41.000Z</time>
      </trkpt>
      <trkpt lat="45.94076" lon="-1.32967">
        <ele>3.7999999523163</ele>
        <time>2021-11-09T10:30:42.000Z</time>
      </trkpt>
      <trkpt lat="45.94059" lon="-1.32957">
        <ele>3.7999999523163</ele>
        <time>2021-11-09T10:30:45.000Z</time>
      </trkpt>
      <trkpt lat="45.94015" lon="-1.32924">
        <ele>5</ele>
        <time>2021-11-09T10:30:52.000Z</time>
      </trkpt>
      <trkpt lat="45.94009" lon="-1.32917">
        <ele>5.1999998092651</ele>
        <time>2021-11-09T10:30:53.000Z</time>
      </trkpt>
      <trkpt lat="45.93977" lon="-1.32871">
        <ele>5.8000001907349</ele>
        <time>2021-11-09T10:30:59.000Z</time>
      </trkpt>
      <trkpt lat="45.93973" lon="-1.32862">
        <ele>5.8000001907349</ele>
        <time>2021-11-09T10:31:00.000Z</time>
      </trkpt>
      <trkpt lat="45.9397" lon="-1.32855">
        <ele>6</ele>
        <time>2021-11-09T10:31:01.000Z</time>
      </trkpt>
      <trkpt lat="45.9394" lon="-1.32791">
        <ele>7</ele>
        <time>2021-11-09T10:31:08.000Z</time>
      </trkpt>
      <trkpt lat="45.93917" lon="-1.32739">
        <ele>7</ele>
        <time>2021-11-09T10:31:14.000Z</time>
      </trkpt>
      <trkpt lat="45.93887" lon="-1.32686">
        <ele>6.5999999046326</ele>
        <time>2021-11-09T10:31:21.000Z</time>
      </trkpt>
      <trkpt lat="45.93862" lon="-1.32639">
        <ele>6.4000000953674</ele>
        <time>2021-11-09T10:31:27.000Z</time>
      </trkpt>
      <trkpt lat="45.93858" lon="-1.32631">
        <ele>6.4000000953674</ele>
        <time>2021-11-09T10:31:28.000Z</time>
      </trkpt>
      <trkpt lat="45.93829" lon="-1.32562">
        <ele>6.5999999046326</ele>
        <time>2021-11-09T10:31:36.000Z</time>
      </trkpt>
      <trkpt lat="45.93801" lon="-1.32495">
        <ele>6.5999999046326</ele>
        <time>2021-11-09T10:31:44.000Z</time>
      </trkpt>
      <trkpt lat="45.93769" lon="-1.32422">
        <ele>7</ele>
        <time>2021-11-09T10:31:52.000Z</time>
      </trkpt>
      <trkpt lat="45.93733" lon="-1.32358">
        <ele>7.4000000953674</ele>
        <time>2021-11-09T10:32:00.000Z</time>
      </trkpt>
      <trkpt lat="45.93715" lon="-1.32327">
        <ele>8</ele>
        <time>2021-11-09T10:32:04.000Z</time>
      </trkpt>
      <trkpt lat="45.93696" lon="-1.32296">
        <ele>8.6000003814697</ele>
        <time>2021-11-09T10:32:08.000Z</time>
      </trkpt>
      <trkpt lat="45.93681" lon="-1.32269">
        <ele>9</ele>
        <time>2021-11-09T10:32:11.000Z</time>
      </trkpt>
      <trkpt lat="45.9366" lon="-1.32228">
        <ele>9.3999996185303</ele>
        <time>2021-11-09T10:32:16.000Z</time>
      </trkpt>
      <trkpt lat="45.93648" lon="-1.32202">
        <ele>10</ele>
        <time>2021-11-09T10:32:19.000Z</time>
      </trkpt>
      <trkpt lat="45.93628" lon="-1.32163">
        <ele>10.60000038147</ele>
        <time>2021-11-09T10:32:24.000Z</time>
      </trkpt>
      <trkpt lat="45.93624" lon="-1.32157">
        <ele>10.800000190735</ele>
        <time>2021-11-09T10:32:25.000Z</time>
      </trkpt>
      <trkpt lat="45.93618" lon="-1.32147">
        <ele>10.800000190735</ele>
        <time>2021-11-09T10:32:27.000Z</time>
      </trkpt>
      <trkpt lat="45.9361" lon="-1.32136">
        <ele>11.199999809265</ele>
        <time>2021-11-09T10:32:29.000Z</time>
      </trkpt>
      <trkpt lat="45.93592" lon="-1.32114">
        <ele>11.199999809265</ele>
        <time>2021-11-09T10:32:33.000Z</time>
      </trkpt>
      <trkpt lat="45.93578" lon="-1.32094">
        <ele>11.60000038147</ele>
        <time>2021-11-09T10:32:36.000Z</time>
      </trkpt>
      <trkpt lat="45.93574" lon="-1.32089">
        <ele>11.60000038147</ele>
        <time>2021-11-09T10:32:37.000Z</time>
      </trkpt>
      <trkpt lat="45.93555" lon="-1.3206">
        <ele>12.199999809265</ele>
        <time>2021-11-09T10:32:41.000Z</time>
      </trkpt>
      <trkpt lat="45.93543" lon="-1.32044">
        <ele>12.199999809265</ele>
        <time>2021-11-09T10:32:43.000Z</time>
      </trkpt>
      <trkpt lat="45.9351" lon="-1.32002">
        <ele>12</ele>
        <time>2021-11-09T10:32:49.000Z</time>
      </trkpt>
      <trkpt lat="45.93478" lon="-1.31971">
        <ele>11</ele>
        <time>2021-11-09T10:32:54.000Z</time>
      </trkpt>
      <trkpt lat="45.93471" lon="-1.31966">
        <ele>11</ele>
        <time>2021-11-09T10:32:55.000Z</time>
      </trkpt>
      <trkpt lat="45.93441" lon="-1.31934">
        <ele>10</ele>
        <time>2021-11-09T10:33:00.000Z</time>
      </trkpt>
      <trkpt lat="45.93435" lon="-1.31927">
        <ele>10</ele>
        <time>2021-11-09T10:33:01.000Z</time>
      </trkpt>
      <trkpt lat="45.93392" lon="-1.31871">
        <ele>10.39999961853</ele>
        <time>2021-11-09T10:33:09.000Z</time>
      </trkpt>
      <trkpt lat="45.93381" lon="-1.31854">
        <ele>10.39999961853</ele>
        <time>2021-11-09T10:33:11.000Z</time>
      </trkpt>
      <trkpt lat="45.93352" lon="-1.31803">
        <ele>11</ele>
        <time>2021-11-09T10:33:17.000Z</time>
      </trkpt>
      <trkpt lat="45.93327" lon="-1.31751">
        <ele>10.800000190735</ele>
        <time>2021-11-09T10:33:23.000Z</time>
      </trkpt>
      <trkpt lat="45.9332" lon="-1.31736">
        <ele>10.60000038147</ele>
        <time>2021-11-09T10:33:25.000Z</time>
      </trkpt>
      <trkpt lat="45.93303" lon="-1.31704">
        <ele>10.60000038147</ele>
        <time>2021-11-09T10:33:29.000Z</time>
      </trkpt>
      <trkpt lat="45.93265" lon="-1.31642">
        <ele>11</ele>
        <time>2021-11-09T10:33:37.000Z</time>
      </trkpt>
      <trkpt lat="45.9326" lon="-1.31635">
        <ele>11</ele>
        <time>2021-11-09T10:33:38.000Z</time>
      </trkpt>
      <trkpt lat="45.93225" lon="-1.31588">
        <ele>10.800000190735</ele>
        <time>2021-11-09T10:33:45.000Z</time>
      </trkpt>
      <trkpt lat="45.93204" lon="-1.31561">
        <ele>10.60000038147</ele>
        <time>2021-11-09T10:33:50.000Z</time>
      </trkpt>
      <trkpt lat="45.93197" lon="-1.31559">
        <ele>10.60000038147</ele>
        <time>2021-11-09T10:33:52.000Z</time>
      </trkpt>
      <trkpt lat="45.93191" lon="-1.31558">
        <ele>10.60000038147</ele>
        <time>2021-11-09T10:33:53.000Z</time>
      </trkpt>
      <trkpt lat="45.93185" lon="-1.31555">
        <ele>10.60000038147</ele>
        <time>2021-11-09T10:33:54.000Z</time>
      </trkpt>
      <trkpt lat="45.93175" lon="-1.31547">
        <ele>10.60000038147</ele>
        <time>2021-11-09T10:33:56.000Z</time>
      </trkpt>
      <trkpt lat="45.93144" lon="-1.31523">
        <ele>10.39999961853</ele>
        <time>2021-11-09T10:34:01.000Z</time>
      </trkpt>
      <trkpt lat="45.93111" lon="-1.31497">
        <ele>10</ele>
        <time>2021-11-09T10:34:06.000Z</time>
      </trkpt>
      <trkpt lat="45.93067" lon="-1.31455">
        <ele>9.3999996185303</ele>
        <time>2021-11-09T10:34:13.000Z</time>
      </trkpt>
      <trkpt lat="45.93049" lon="-1.31438">
        <ele>9</ele>
        <time>2021-11-09T10:34:16.000Z</time>
      </trkpt>
      <trkpt lat="45.93023" lon="-1.31411">
        <ele>8.8000001907349</ele>
        <time>2021-11-09T10:34:20.000Z</time>
      </trkpt>
      <trkpt lat="45.92987" lon="-1.31363">
        <ele>8.3999996185303</ele>
        <time>2021-11-09T10:34:26.000Z</time>
      </trkpt>
      <trkpt lat="45.92952" lon="-1.31311">
        <ele>8</ele>
        <time>2021-11-09T10:34:32.000Z</time>
      </trkpt>
      <trkpt lat="45.92943" lon="-1.31296">
        <ele>7.5999999046326</ele>
        <time>2021-11-09T10:34:34.000Z</time>
      </trkpt>
      <trkpt lat="45.92926" lon="-1.3127">
        <ele>7.4000000953674</ele>
        <time>2021-11-09T10:34:37.000Z</time>
      </trkpt>
      <trkpt lat="45.92914" lon="-1.31259">
        <ele>7.1999998092651</ele>
        <time>2021-11-09T10:34:39.000Z</time>
      </trkpt>
      <trkpt lat="45.929" lon="-1.31258">
        <ele>7</ele>
        <time>2021-11-09T10:34:41.000Z</time>
      </trkpt>
      <trkpt lat="45.92889" lon="-1.31264">
        <ele>7</ele>
        <time>2021-11-09T10:34:43.000Z</time>
      </trkpt>
      <trkpt lat="45.92882" lon="-1.31264">
        <ele>6.8000001907349</ele>
        <time>2021-11-09T10:34:44.000Z</time>
      </trkpt>
      <trkpt lat="45.92876" lon="-1.31261">
        <ele>6.8000001907349</ele>
        <time>2021-11-09T10:34:45.000Z</time>
      </trkpt>
      <trkpt lat="45.92868" lon="-1.31251">
        <ele>6.8000001907349</ele>
        <time>2021-11-09T10:34:47.000Z</time>
      </trkpt>
      <trkpt lat="45.92863" lon="-1.31245">
        <ele>6.8000001907349</ele>
        <time>2021-11-09T10:34:48.000Z</time>
      </trkpt>
      <trkpt lat="45.92847" lon="-1.31234">
        <ele>6.5999999046326</ele>
        <time>2021-11-09T10:34:50.000Z</time>
      </trkpt>
      <trkpt lat="45.92841" lon="-1.31232">
        <ele>6.5999999046326</ele>
        <time>2021-11-09T10:34:51.000Z</time>
      </trkpt>
      <trkpt lat="45.92824" lon="-1.31232">
        <ele>6.5999999046326</ele>
        <time>2021-11-09T10:34:53.000Z</time>
      </trkpt>
      <trkpt lat="45.92795" lon="-1.31236">
        <ele>6.5999999046326</ele>
        <time>2021-11-09T10:34:57.000Z</time>
      </trkpt>
      <trkpt lat="45.92787" lon="-1.3124">
        <ele>6.5999999046326</ele>
        <time>2021-11-09T10:34:58.000Z</time>
      </trkpt>
      <trkpt lat="45.92779" lon="-1.31246">
        <ele>6.8000001907349</ele>
        <time>2021-11-09T10:34:59.000Z</time>
      </trkpt>
      <trkpt lat="45.9276" lon="-1.31262">
        <ele>7</ele>
        <time>2021-11-09T10:35:02.000Z</time>
      </trkpt>
      <trkpt lat="45.92717" lon="-1.31308">
        <ele>8</ele>
        <time>2021-11-09T10:35:09.000Z</time>
      </trkpt>
      <trkpt lat="45.92678" lon="-1.31356">
        <ele>9</ele>
        <time>2021-11-09T10:35:16.000Z</time>
      </trkpt>
      <trkpt lat="45.92671" lon="-1.31363">
        <ele>9</ele>
        <time>2021-11-09T10:35:17.000Z</time>
      </trkpt>
      <trkpt lat="45.92654" lon="-1.31378">
        <ele>9.3999996185303</ele>
        <time>2021-11-09T10:35:20.000Z</time>
      </trkpt>
      <trkpt lat="45.92645" lon="-1.31383">
        <ele>9.3999996185303</ele>
        <time>2021-11-09T10:35:21.000Z</time>
      </trkpt>
      <trkpt lat="45.92631" lon="-1.31389">
        <ele>9.6000003814697</ele>
        <time>2021-11-09T10:35:23.000Z</time>
      </trkpt>
      <trkpt lat="45.9262" lon="-1.3139">
        <ele>9.8000001907349</ele>
        <time>2021-11-09T10:35:25.000Z</time>
      </trkpt>
      <trkpt lat="45.9261" lon="-1.31379">
        <ele>10</ele>
        <time>2021-11-09T10:35:27.000Z</time>
      </trkpt>
      <trkpt lat="45.92607" lon="-1.31363">
        <ele>10</ele>
        <time>2021-11-09T10:35:29.000Z</time>
      </trkpt>
      <trkpt lat="45.92597" lon="-1.31346">
        <ele>10</ele>
        <time>2021-11-09T10:35:31.000Z</time>
      </trkpt>
      <trkpt lat="45.92584" lon="-1.31339">
        <ele>10</ele>
        <time>2021-11-09T10:35:33.000Z</time>
      </trkpt>
      <trkpt lat="45.92577" lon="-1.31339">
        <ele>10</ele>
        <time>2021-11-09T10:35:34.000Z</time>
      </trkpt>
      <trkpt lat="45.92556" lon="-1.31342">
        <ele>9.8000001907349</ele>
        <time>2021-11-09T10:35:37.000Z</time>
      </trkpt>
      <trkpt lat="45.92543" lon="-1.31345">
        <ele>9.3999996185303</ele>
        <time>2021-11-09T10:35:39.000Z</time>
      </trkpt>
      <trkpt lat="45.9252" lon="-1.31351">
        <ele>9</ele>
        <time>2021-11-09T10:35:42.000Z</time>
      </trkpt>
      <trkpt lat="45.92506" lon="-1.3136">
        <ele>8.6000003814697</ele>
        <time>2021-11-09T10:35:44.000Z</time>
      </trkpt>
      <trkpt lat="45.92486" lon="-1.31377">
        <ele>7.5999999046326</ele>
        <time>2021-11-09T10:35:47.000Z</time>
      </trkpt>
      <trkpt lat="45.92465" lon="-1.31391">
        <ele>6.8000001907349</ele>
        <time>2021-11-09T10:35:50.000Z</time>
      </trkpt>
      <trkpt lat="45.92452" lon="-1.31398">
        <ele>6.1999998092651</ele>
        <time>2021-11-09T10:35:52.000Z</time>
      </trkpt>
      <trkpt lat="45.92445" lon="-1.31402">
        <ele>6.1999998092651</ele>
        <time>2021-11-09T10:35:53.000Z</time>
      </trkpt>
      <trkpt lat="45.92432" lon="-1.314">
        <ele>6</ele>
        <time>2021-11-09T10:35:55.000Z</time>
      </trkpt>
      <trkpt lat="45.92419" lon="-1.31372">
        <ele>5.5999999046326</ele>
        <time>2021-11-09T10:35:59.000Z</time>
      </trkpt>
      <trkpt lat="45.92415" lon="-1.31363">
        <ele>5.1999998092651</ele>
        <time>2021-11-09T10:36:00.000Z</time>
      </trkpt>
      <trkpt lat="45.92392" lon="-1.3131">
        <ele>4.8000001907349</ele>
        <time>2021-11-09T10:36:07.000Z</time>
      </trkpt>
      <trkpt lat="45.92366" lon="-1.31255">
        <ele>4.8000001907349</ele>
        <time>2021-11-09T10:36:14.000Z</time>
      </trkpt>
      <trkpt lat="45.92345" lon="-1.31219">
        <ele>4</ele>
        <time>2021-11-09T10:36:19.000Z</time>
      </trkpt>
      <trkpt lat="45.92338" lon="-1.31204">
        <ele>3.5999999046326</ele>
        <time>2021-11-09T10:36:21.000Z</time>
      </trkpt>
      <trkpt lat="45.92326" lon="-1.31184">
        <ele>3.5999999046326</ele>
        <time>2021-11-09T10:36:24.000Z</time>
      </trkpt>
      <trkpt lat="45.92315" lon="-1.31176">
        <ele>3.5999999046326</ele>
        <time>2021-11-09T10:36:26.000Z</time>
      </trkpt>
      <trkpt lat="45.92277" lon="-1.31159">
        <ele>3.5999999046326</ele>
        <time>2021-11-09T10:36:32.000Z</time>
      </trkpt>
      <trkpt lat="45.9227" lon="-1.31156">
        <ele>3.5999999046326</ele>
        <time>2021-11-09T10:36:33.000Z</time>
      </trkpt>
      <trkpt lat="45.92259" lon="-1.31151">
        <ele>3.5999999046326</ele>
        <time>2021-11-09T10:36:35.000Z</time>
      </trkpt>
      <trkpt lat="45.9225" lon="-1.31152">
        <ele>3.5999999046326</ele>
        <time>2021-11-09T10:36:37.000Z</time>
      </trkpt>
      <trkpt lat="45.92233" lon="-1.31166">
        <ele>3.5999999046326</ele>
        <time>2021-11-09T10:36:41.000Z</time>
      </trkpt>
      <trkpt lat="45.92228" lon="-1.31169">
        <ele>3.5999999046326</ele>
        <time>2021-11-09T10:36:42.000Z</time>
      </trkpt>
      <trkpt lat="45.92216" lon="-1.31178">
        <ele>3.5999999046326</ele>
        <time>2021-11-09T10:36:44.000Z</time>
      </trkpt>
      <trkpt lat="45.92211" lon="-1.31182">
        <ele>3.5999999046326</ele>
        <time>2021-11-09T10:36:45.000Z</time>
      </trkpt>
      <trkpt lat="45.92181" lon="-1.31205">
        <ele>3.5999999046326</ele>
        <time>2021-11-09T10:36:50.000Z</time>
      </trkpt>
      <trkpt lat="45.92174" lon="-1.31219">
        <ele>3.5999999046326</ele>
        <time>2021-11-09T10:36:52.000Z</time>
      </trkpt>
      <trkpt lat="45.92172" lon="-1.31226">
        <ele>3.5999999046326</ele>
        <time>2021-11-09T10:36:53.000Z</time>
      </trkpt>
      <trkpt lat="45.92164" lon="-1.31249">
        <ele>3.5999999046326</ele>
        <time>2021-11-09T10:36:56.000Z</time>
      </trkpt>
      <trkpt lat="45.92162" lon="-1.31255">
        <ele>3.5999999046326</ele>
        <time>2021-11-09T10:36:57.000Z</time>
      </trkpt>
      <trkpt lat="45.92153" lon="-1.31278">
        <ele>3.7999999523163</ele>
        <time>2021-11-09T10:37:01.000Z</time>
      </trkpt>
      <trkpt lat="45.92151" lon="-1.31283">
        <ele>3.7999999523163</ele>
        <time>2021-11-09T10:37:02.000Z</time>
      </trkpt>
      <trkpt lat="45.92142" lon="-1.31294">
        <ele>4</ele>
        <time>2021-11-09T10:37:05.000Z</time>
      </trkpt>
      <trkpt lat="45.92132" lon="-1.31314">
        <ele>4.4000000953674</ele>
        <time>2021-11-09T10:37:08.000Z</time>
      </trkpt>
      <trkpt lat="45.92128" lon="-1.31322">
        <ele>4.4000000953674</ele>
        <time>2021-11-09T10:37:09.000Z</time>
      </trkpt>
      <trkpt lat="45.92124" lon="-1.31326">
        <ele>4.4000000953674</ele>
        <time>2021-11-09T10:37:10.000Z</time>
      </trkpt>
      <trkpt lat="45.92114" lon="-1.31337">
        <ele>5</ele>
        <time>2021-11-09T10:37:12.000Z</time>
      </trkpt>
      <trkpt lat="45.92108" lon="-1.31343">
        <ele>5.5999999046326</ele>
        <time>2021-11-09T10:37:13.000Z</time>
      </trkpt>
      <trkpt lat="45.92098" lon="-1.31353">
        <ele>6</ele>
        <time>2021-11-09T10:37:15.000Z</time>
      </trkpt>
      <trkpt lat="45.92093" lon="-1.31354">
        <ele>6.4000000953674</ele>
        <time>2021-11-09T10:37:16.000Z</time>
      </trkpt>
      <trkpt lat="45.92089" lon="-1.31352">
        <ele>6.4000000953674</ele>
        <time>2021-11-09T10:37:17.000Z</time>
      </trkpt>
      <trkpt lat="45.92087" lon="-1.31348">
        <ele>6.5999999046326</ele>
        <time>2021-11-09T10:37:18.000Z</time>
      </trkpt>
      <trkpt lat="45.9208" lon="-1.31331">
        <ele>7</ele>
        <time>2021-11-09T10:37:21.000Z</time>
      </trkpt>
      <trkpt lat="45.92078" lon="-1.31325">
        <ele>7.5999999046326</ele>
        <time>2021-11-09T10:37:22.000Z</time>
      </trkpt>
      <trkpt lat="45.92076" lon="-1.31319">
        <ele>7.8000001907349</ele>
        <time>2021-11-09T10:37:23.000Z</time>
      </trkpt>
      <trkpt lat="45.92065" lon="-1.31298">
        <ele>8</ele>
        <time>2021-11-09T10:37:26.000Z</time>
      </trkpt>
      <trkpt lat="45.9206" lon="-1.31292">
        <ele>8</ele>
        <time>2021-11-09T10:37:27.000Z</time>
      </trkpt>
      <trkpt lat="45.92053" lon="-1.31277">
        <ele>8</ele>
        <time>2021-11-09T10:37:29.000Z</time>
      </trkpt>
      <trkpt lat="45.92049" lon="-1.31269">
        <ele>8</ele>
        <time>2021-11-09T10:37:30.000Z</time>
      </trkpt>
      <trkpt lat="45.92045" lon="-1.31261">
        <ele>8</ele>
        <time>2021-11-09T10:37:31.000Z</time>
      </trkpt>
      <trkpt lat="45.92031" lon="-1.31238">
        <ele>7.5999999046326</ele>
        <time>2021-11-09T10:37:34.000Z</time>
      </trkpt>
      <trkpt lat="45.92015" lon="-1.3121">
        <ele>6.4000000953674</ele>
        <time>2021-11-09T10:37:38.000Z</time>
      </trkpt>
      <trkpt lat="45.92002" lon="-1.31186">
        <ele>6.1999998092651</ele>
        <time>2021-11-09T10:37:41.000Z</time>
      </trkpt>
      <trkpt lat="45.91991" lon="-1.31162">
        <ele>5.4000000953674</ele>
        <time>2021-11-09T10:37:44.000Z</time>
      </trkpt>
      <trkpt lat="45.91982" lon="-1.3114">
        <ele>5</ele>
        <time>2021-11-09T10:37:47.000Z</time>
      </trkpt>
      <trkpt lat="45.91968" lon="-1.31108">
        <ele>4.4000000953674</ele>
        <time>2021-11-09T10:37:51.000Z</time>
      </trkpt>
      <trkpt lat="45.91943" lon="-1.31047">
        <ele>4</ele>
        <time>2021-11-09T10:37:59.000Z</time>
      </trkpt>
      <trkpt lat="45.91933" lon="-1.31025">
        <ele>2.7999999523163</ele>
        <time>2021-11-09T10:38:02.000Z</time>
      </trkpt>
      <trkpt lat="45.91916" lon="-1.3099">
        <ele>2.2000000476837</ele>
        <time>2021-11-09T10:38:07.000Z</time>
      </trkpt>
      <trkpt lat="45.91911" lon="-1.30984">
        <ele>2.2000000476837</ele>
        <time>2021-11-09T10:38:08.000Z</time>
      </trkpt>
      <trkpt lat="45.91905" lon="-1.30982">
        <ele>2.2000000476837</ele>
        <time>2021-11-09T10:38:09.000Z</time>
      </trkpt>
      <trkpt lat="45.91899" lon="-1.30983">
        <ele>2.4000000953674</ele>
        <time>2021-11-09T10:38:10.000Z</time>
      </trkpt>
      <trkpt lat="45.91895" lon="-1.30986">
        <ele>2.4000000953674</ele>
        <time>2021-11-09T10:38:11.000Z</time>
      </trkpt>
      <trkpt lat="45.91886" lon="-1.30998">
        <ele>2.4000000953674</ele>
        <time>2021-11-09T10:38:13.000Z</time>
      </trkpt>
      <trkpt lat="45.91877" lon="-1.31009">
        <ele>2.4000000953674</ele>
        <time>2021-11-09T10:38:15.000Z</time>
      </trkpt>
      <trkpt lat="45.91866" lon="-1.31012">
        <ele>1.7999999523163</ele>
        <time>2021-11-09T10:38:17.000Z</time>
      </trkpt>
      <trkpt lat="45.91861" lon="-1.31009">
        <ele>1.6000000238419</ele>
        <time>2021-11-09T10:38:18.000Z</time>
      </trkpt>
      <trkpt lat="45.91856" lon="-1.31002">
        <ele>1.6000000238419</ele>
        <time>2021-11-09T10:38:19.000Z</time>
      </trkpt>
      <trkpt lat="45.91852" lon="-1.30996">
        <ele>1.6000000238419</ele>
        <time>2021-11-09T10:38:20.000Z</time>
      </trkpt>
      <trkpt lat="45.91844" lon="-1.30976">
        <ele>1.3999999761581</ele>
        <time>2021-11-09T10:38:23.000Z</time>
      </trkpt>
      <trkpt lat="45.91837" lon="-1.30962">
        <ele>1</ele>
        <time>2021-11-09T10:38:25.000Z</time>
      </trkpt>
      <trkpt lat="45.91815" lon="-1.30915">
        <ele>0.40000000596046</ele>
        <time>2021-11-09T10:38:31.000Z</time>
      </trkpt>
      <trkpt lat="45.91812" lon="-1.30907">
        <ele>0.20000000298023</ele>
        <time>2021-11-09T10:38:32.000Z</time>
      </trkpt>
      <trkpt lat="45.91808" lon="-1.30899">
        <ele>4.3</ele>
        <time>2021-11-09T10:38:33.000Z</time>
      </trkpt>
      <trkpt lat="45.91798" lon="-1.30889">
        <ele>0.20000000298023</ele>
        <time>2021-11-09T10:38:35.000Z</time>
      </trkpt>
      <trkpt lat="45.91786" lon="-1.30891">
        <ele>0.40000000596046</ele>
        <time>2021-11-09T10:38:37.000Z</time>
      </trkpt>
      <trkpt lat="45.91775" lon="-1.30898">
        <ele>0.40000000596046</ele>
        <time>2021-11-09T10:38:39.000Z</time>
      </trkpt>
      <trkpt lat="45.91765" lon="-1.30898">
        <ele>0.60000002384186</ele>
        <time>2021-11-09T10:38:41.000Z</time>
      </trkpt>
      <trkpt lat="45.91758" lon="-1.30886">
        <ele>0.60000002384186</ele>
        <time>2021-11-09T10:38:43.000Z</time>
      </trkpt>
      <trkpt lat="45.91755" lon="-1.30878">
        <ele>0.60000002384186</ele>
        <time>2021-11-09T10:38:44.000Z</time>
      </trkpt>
      <trkpt lat="45.9175" lon="-1.30866">
        <ele>0.60000002384186</ele>
        <time>2021-11-09T10:38:46.000Z</time>
      </trkpt>
      <trkpt lat="45.91742" lon="-1.30843">
        <ele>0.40000000596046</ele>
        <time>2021-11-09T10:38:49.000Z</time>
      </trkpt>
      <trkpt lat="45.91719" lon="-1.30785">
        <ele>-0.40000000596046</ele>
        <time>2021-11-09T10:38:57.000Z</time>
      </trkpt>
      <trkpt lat="45.91694" lon="-1.30725">
        <ele>-0.40000000596046</ele>
        <time>2021-11-09T10:39:05.000Z</time>
      </trkpt>
      <trkpt lat="45.91685" lon="-1.30705">
        <ele>-0.20000000298023</ele>
        <time>2021-11-09T10:39:08.000Z</time>
      </trkpt>
      <trkpt lat="45.91684" lon="-1.30698">
        <ele>5</ele>
        <time>2021-11-09T10:39:09.000Z</time>
      </trkpt>
      <trkpt lat="45.91684" lon="-1.30692">
        <ele>5</ele>
        <time>2021-11-09T10:39:10.000Z</time>
      </trkpt>
      <trkpt lat="45.91688" lon="-1.30676">
        <ele>0.20000000298023</ele>
        <time>2021-11-09T10:39:12.000Z</time>
      </trkpt>
      <trkpt lat="45.91691" lon="-1.30669">
        <ele>0.40000000596046</ele>
        <time>2021-11-09T10:39:13.000Z</time>
      </trkpt>
      <trkpt lat="45.91692" lon="-1.30663">
        <ele>0.40000000596046</ele>
        <time>2021-11-09T10:39:14.000Z</time>
      </trkpt>
      <trkpt lat="45.91686" lon="-1.30651">
        <ele>0.60000002384186</ele>
        <time>2021-11-09T10:39:16.000Z</time>
      </trkpt>
      <trkpt lat="45.91681" lon="-1.3065">
        <ele>0.60000002384186</ele>
        <time>2021-11-09T10:39:17.000Z</time>
      </trkpt>
      <trkpt lat="45.91677" lon="-1.30652">
        <ele>0.60000002384186</ele>
        <time>2021-11-09T10:39:18.000Z</time>
      </trkpt>
      <trkpt lat="45.91667" lon="-1.30655">
        <ele>0.60000002384186</ele>
        <time>2021-11-09T10:39:20.000Z</time>
      </trkpt>
      <trkpt lat="45.91662" lon="-1.30653">
        <ele>0.60000002384186</ele>
        <time>2021-11-09T10:39:21.000Z</time>
      </trkpt>
      <trkpt lat="45.91658" lon="-1.30647">
        <ele>0.80000001192093</ele>
        <time>2021-11-09T10:39:22.000Z</time>
      </trkpt>
      <trkpt lat="45.91653" lon="-1.30637">
        <ele>1</ele>
        <time>2021-11-09T10:39:24.000Z</time>
      </trkpt>
      <trkpt lat="45.91649" lon="-1.30633">
        <ele>1</ele>
        <time>2021-11-09T10:39:25.000Z</time>
      </trkpt>
      <trkpt lat="45.91644" lon="-1.30626">
        <ele>1</ele>
        <time>2021-11-09T10:39:26.000Z</time>
      </trkpt>
      <trkpt lat="45.91637" lon="-1.30614">
        <ele>1.3999999761581</ele>
        <time>2021-11-09T10:39:28.000Z</time>
      </trkpt>
      <trkpt lat="45.91633" lon="-1.30609">
        <ele>1.6000000238419</ele>
        <time>2021-11-09T10:39:29.000Z</time>
      </trkpt>
      <trkpt lat="45.91606" lon="-1.30575">
        <ele>1.7999999523163</ele>
        <time>2021-11-09T10:39:35.000Z</time>
      </trkpt>
      <trkpt lat="45.91601" lon="-1.30569">
        <ele>1.7999999523163</ele>
        <time>2021-11-09T10:39:36.000Z</time>
      </trkpt>
      <trkpt lat="45.91591" lon="-1.30558">
        <ele>2.4000000953674</ele>
        <time>2021-11-09T10:39:38.000Z</time>
      </trkpt>
      <trkpt lat="45.91587" lon="-1.30552">
        <ele>2.5999999046326</ele>
        <time>2021-11-09T10:39:39.000Z</time>
      </trkpt>
      <trkpt lat="45.91574" lon="-1.30527">
        <ele>2.7999999523163</ele>
        <time>2021-11-09T10:39:43.000Z</time>
      </trkpt>
      <trkpt lat="45.91573" lon="-1.3052">
        <ele>3</ele>
        <time>2021-11-09T10:39:44.000Z</time>
      </trkpt>
      <trkpt lat="45.91573" lon="-1.30512">
        <ele>3</ele>
        <time>2021-11-09T10:39:45.000Z</time>
      </trkpt>
      <trkpt lat="45.91578" lon="-1.30502">
        <ele>3.2000000476837</ele>
        <time>2021-11-09T10:39:47.000Z</time>
      </trkpt>
      <trkpt lat="45.9158" lon="-1.30497">
        <ele>3.2000000476837</ele>
        <time>2021-11-09T10:39:48.000Z</time>
      </trkpt>
      <trkpt lat="45.91584" lon="-1.30481">
        <ele>3.2000000476837</ele>
        <time>2021-11-09T10:39:50.000Z</time>
      </trkpt>
      <trkpt lat="45.91582" lon="-1.30465">
        <ele>3</ele>
        <time>2021-11-09T10:39:52.000Z</time>
      </trkpt>
      <trkpt lat="45.91579" lon="-1.3045">
        <ele>3.2000000476837</ele>
        <time>2021-11-09T10:39:54.000Z</time>
      </trkpt>
      <trkpt lat="45.91574" lon="-1.30398">
        <ele>3.2000000476837</ele>
        <time>2021-11-09T10:40:00.000Z</time>
      </trkpt>
      <trkpt lat="45.91568" lon="-1.30348">
        <ele>3.4000000953674</ele>
        <time>2021-11-09T10:40:06.000Z</time>
      </trkpt>
      <trkpt lat="45.91566" lon="-1.3034">
        <ele>3.4000000953674</ele>
        <time>2021-11-09T10:40:07.000Z</time>
      </trkpt>
      <trkpt lat="45.91565" lon="-1.30332">
        <ele>3.7999999523163</ele>
        <time>2021-11-09T10:40:08.000Z</time>
      </trkpt>
      <trkpt lat="45.91563" lon="-1.30324">
        <ele>4</ele>
        <time>2021-11-09T10:40:09.000Z</time>
      </trkpt>
      <trkpt lat="45.91559" lon="-1.30309">
        <ele>4.1999998092651</ele>
        <time>2021-11-09T10:40:11.000Z</time>
      </trkpt>
      <trkpt lat="45.91557" lon="-1.30301">
        <ele>4.1999998092651</ele>
        <time>2021-11-09T10:40:12.000Z</time>
      </trkpt>
      <trkpt lat="45.91551" lon="-1.30271">
        <ele>3.5999999046326</ele>
        <time>2021-11-09T10:40:16.000Z</time>
      </trkpt>
      <trkpt lat="45.91547" lon="-1.30248">
        <ele>3.5999999046326</ele>
        <time>2021-11-09T10:40:19.000Z</time>
      </trkpt>
      <trkpt lat="45.91544" lon="-1.30231">
        <ele>3.4000000953674</ele>
        <time>2021-11-09T10:40:21.000Z</time>
      </trkpt>
      <trkpt lat="45.91542" lon="-1.30211">
        <ele>3.2000000476837</ele>
        <time>2021-11-09T10:40:23.000Z</time>
      </trkpt>
      <trkpt lat="45.91542" lon="-1.30201">
        <ele>3</ele>
        <time>2021-11-09T10:40:24.000Z</time>
      </trkpt>
      <trkpt lat="45.91541" lon="-1.30172">
        <ele>3</ele>
        <time>2021-11-09T10:40:27.000Z</time>
      </trkpt>
      <trkpt lat="45.91538" lon="-1.30162">
        <ele>3.4000000953674</ele>
        <time>2021-11-09T10:40:28.000Z</time>
      </trkpt>
      <trkpt lat="45.91534" lon="-1.30153">
        <ele>3.4000000953674</ele>
        <time>2021-11-09T10:40:29.000Z</time>
      </trkpt>
      <trkpt lat="45.91523" lon="-1.30142">
        <ele>3.2000000476837</ele>
        <time>2021-11-09T10:40:31.000Z</time>
      </trkpt>
      <trkpt lat="45.91512" lon="-1.30129">
        <ele>3.7999999523163</ele>
        <time>2021-11-09T10:40:33.000Z</time>
      </trkpt>
      <trkpt lat="45.9149" lon="-1.30102">
        <ele>3.7999999523163</ele>
        <time>2021-11-09T10:40:37.000Z</time>
      </trkpt>
      <trkpt lat="45.91474" lon="-1.3008">
        <ele>3.5999999046326</ele>
        <time>2021-11-09T10:40:40.000Z</time>
      </trkpt>
      <trkpt lat="45.91465" lon="-1.30065">
        <ele>3.5999999046326</ele>
        <time>2021-11-09T10:40:42.000Z</time>
      </trkpt>
      <trkpt lat="45.91433" lon="-1.30011">
        <ele>3</ele>
        <time>2021-11-09T10:40:49.000Z</time>
      </trkpt>
      <trkpt lat="45.91418" lon="-1.29979">
        <ele>2.5999999046326</ele>
        <time>2021-11-09T10:40:53.000Z</time>
      </trkpt>
      <trkpt lat="45.91411" lon="-1.29963">
        <ele>2.4000000953674</ele>
        <time>2021-11-09T10:40:55.000Z</time>
      </trkpt>
      <trkpt lat="45.91406" lon="-1.29949">
        <ele>2.5999999046326</ele>
        <time>2021-11-09T10:40:57.000Z</time>
      </trkpt>
      <trkpt lat="45.91406" lon="-1.29941">
        <ele>2.7999999523163</ele>
        <time>2021-11-09T10:40:58.000Z</time>
      </trkpt>
      <trkpt lat="45.91408" lon="-1.29934">
        <ele>2.7999999523163</ele>
        <time>2021-11-09T10:40:59.000Z</time>
      </trkpt>
      <trkpt lat="45.91413" lon="-1.29923">
        <ele>2.5999999046326</ele>
        <time>2021-11-09T10:41:01.000Z</time>
      </trkpt>
      <trkpt lat="45.91417" lon="-1.29917">
        <ele>2.5999999046326</ele>
        <time>2021-11-09T10:41:02.000Z</time>
      </trkpt>
      <trkpt lat="45.91433" lon="-1.29901">
        <ele>2.4000000953674</ele>
        <time>2021-11-09T10:41:05.000Z</time>
      </trkpt>
      <trkpt lat="45.91472" lon="-1.29871">
        <ele>2.5999999046326</ele>
        <time>2021-11-09T10:41:11.000Z</time>
      </trkpt>
      <trkpt lat="45.91526" lon="-1.29837">
        <ele>3.5999999046326</ele>
        <time>2021-11-09T10:41:19.000Z</time>
      </trkpt>
      <trkpt lat="45.91538" lon="-1.29829">
        <ele>3.5999999046326</ele>
        <time>2021-11-09T10:41:21.000Z</time>
      </trkpt>
      <trkpt lat="45.91545" lon="-1.29816">
        <ele>4</ele>
        <time>2021-11-09T10:41:23.000Z</time>
      </trkpt>
      <trkpt lat="45.9154" lon="-1.29799">
        <ele>4.1999998092651</ele>
        <time>2021-11-09T10:41:25.000Z</time>
      </trkpt>
      <trkpt lat="45.91535" lon="-1.2979">
        <ele>4.1999998092651</ele>
        <time>2021-11-09T10:41:26.000Z</time>
      </trkpt>
      <trkpt lat="45.91515" lon="-1.29764">
        <ele>4.4000000953674</ele>
        <time>2021-11-09T10:41:30.000Z</time>
      </trkpt>
      <trkpt lat="45.91477" lon="-1.29711">
        <ele>4.4000000953674</ele>
        <time>2021-11-09T10:41:37.000Z</time>
      </trkpt>
      <trkpt lat="45.91472" lon="-1.29704">
        <ele>4.4000000953674</ele>
        <time>2021-11-09T10:41:38.000Z</time>
      </trkpt>
      <trkpt lat="45.91444" lon="-1.29671">
        <ele>4.1999998092651</ele>
        <time>2021-11-09T10:41:43.000Z</time>
      </trkpt>
      <trkpt lat="45.91414" lon="-1.29629">
        <ele>3.4000000953674</ele>
        <time>2021-11-09T10:41:49.000Z</time>
      </trkpt>
      <trkpt lat="45.91383" lon="-1.29571">
        <ele>3.4000000953674</ele>
        <time>2021-11-09T10:41:56.000Z</time>
      </trkpt>
      <trkpt lat="45.9137" lon="-1.29547">
        <ele>3.5999999046326</ele>
        <time>2021-11-09T10:41:59.000Z</time>
      </trkpt>
      <trkpt lat="45.91355" lon="-1.29526">
        <ele>3.2000000476837</ele>
        <time>2021-11-09T10:42:02.000Z</time>
      </trkpt>
      <trkpt lat="45.91331" lon="-1.295">
        <ele>2.5999999046326</ele>
        <time>2021-11-09T10:42:06.000Z</time>
      </trkpt>
      <trkpt lat="45.91325" lon="-1.29495">
        <ele>2.4000000953674</ele>
        <time>2021-11-09T10:42:07.000Z</time>
      </trkpt>
      <trkpt lat="45.91286" lon="-1.29463">
        <ele>1.7999999523163</ele>
        <time>2021-11-09T10:42:13.000Z</time>
      </trkpt>
      <trkpt lat="45.91281" lon="-1.29455">
        <ele>1.6000000238419</ele>
        <time>2021-11-09T10:42:14.000Z</time>
      </trkpt>
      <trkpt lat="45.9126" lon="-1.29415">
        <ele>1.7999999523163</ele>
        <time>2021-11-09T10:42:19.000Z</time>
      </trkpt>
      <trkpt lat="45.91256" lon="-1.29389">
        <ele>1.7999999523163</ele>
        <time>2021-11-09T10:42:22.000Z</time>
      </trkpt>
      <trkpt lat="45.91254" lon="-1.29371">
        <ele>1.7999999523163</ele>
        <time>2021-11-09T10:42:24.000Z</time>
      </trkpt>
      <trkpt lat="45.91256" lon="-1.29353">
        <ele>1.7999999523163</ele>
        <time>2021-11-09T10:42:26.000Z</time>
      </trkpt>
      <trkpt lat="45.91261" lon="-1.29336">
        <ele>1.7999999523163</ele>
        <time>2021-11-09T10:42:28.000Z</time>
      </trkpt>
      <trkpt lat="45.91265" lon="-1.29329">
        <ele>1.7999999523163</ele>
        <time>2021-11-09T10:42:29.000Z</time>
      </trkpt>
      <trkpt lat="45.91271" lon="-1.29322">
        <ele>1.7999999523163</ele>
        <time>2021-11-09T10:42:30.000Z</time>
      </trkpt>
      <trkpt lat="45.91292" lon="-1.29298">
        <ele>2.5999999046326</ele>
        <time>2021-11-09T10:42:34.000Z</time>
      </trkpt>
      <trkpt lat="45.91322" lon="-1.29259">
        <ele>2.7999999523163</ele>
        <time>2021-11-09T10:42:40.000Z</time>
      </trkpt>
      <trkpt lat="45.91335" lon="-1.29237">
        <ele>3.7999999523163</ele>
        <time>2021-11-09T10:42:43.000Z</time>
      </trkpt>
      <trkpt lat="45.91343" lon="-1.29222">
        <ele>4.1999998092651</ele>
        <time>2021-11-09T10:42:45.000Z</time>
      </trkpt>
      <trkpt lat="45.91351" lon="-1.29209">
        <ele>4.8000001907349</ele>
        <time>2021-11-09T10:42:47.000Z</time>
      </trkpt>
      <trkpt lat="45.91355" lon="-1.29203">
        <ele>5.1999998092651</ele>
        <time>2021-11-09T10:42:48.000Z</time>
      </trkpt>
      <trkpt lat="45.91358" lon="-1.29199">
        <ele>5.5999999046326</ele>
        <time>2021-11-09T10:42:49.000Z</time>
      </trkpt>
      <trkpt lat="45.91375" lon="-1.29181">
        <ele>6</ele>
        <time>2021-11-09T10:42:53.000Z</time>
      </trkpt>
      <trkpt lat="45.91377" lon="-1.29176">
        <ele>6.1999998092651</ele>
        <time>2021-11-09T10:42:54.000Z</time>
      </trkpt>
      <trkpt lat="45.91379" lon="-1.29173">
        <ele>6.4000000953674</ele>
        <time>2021-11-09T10:42:56.000Z</time>
      </trkpt>
      <trkpt lat="45.91379" lon="-1.29173">
        <ele>6.5999999046326</ele>
        <time>2021-11-09T10:42:57.000Z</time>
      </trkpt>
      <trkpt lat="45.91381" lon="-1.29168">
        <ele>7</ele>
        <time>2021-11-09T10:43:01.000Z</time>
      </trkpt>
      <trkpt lat="45.91383" lon="-1.29165">
        <ele>7.1999998092651</ele>
        <time>2021-11-09T10:43:03.000Z</time>
      </trkpt>
      <trkpt lat="45.91384" lon="-1.29162">
        <ele>7.4000000953674</ele>
        <time>2021-11-09T10:43:04.000Z</time>
      </trkpt>
      <trkpt lat="45.91391" lon="-1.29151">
        <ele>7.4000000953674</ele>
        <time>2021-11-09T10:43:08.000Z</time>
      </trkpt>
      <trkpt lat="45.91401" lon="-1.29135">
        <ele>7.4000000953674</ele>
        <time>2021-11-09T10:43:12.000Z</time>
      </trkpt>
      <trkpt lat="45.91404" lon="-1.29131">
        <ele>7.4000000953674</ele>
        <time>2021-11-09T10:43:13.000Z</time>
      </trkpt>
      <trkpt lat="45.91414" lon="-1.29116">
        <ele>7.4000000953674</ele>
        <time>2021-11-09T10:43:16.000Z</time>
      </trkpt>
      <trkpt lat="45.91418" lon="-1.29111">
        <ele>7.4000000953674</ele>
        <time>2021-11-09T10:43:17.000Z</time>
      </trkpt>
      <trkpt lat="45.9144" lon="-1.2908">
        <ele>7.8000001907349</ele>
        <time>2021-11-09T10:43:22.000Z</time>
      </trkpt>
      <trkpt lat="45.91449" lon="-1.29067">
        <ele>7.8000001907349</ele>
        <time>2021-11-09T10:43:24.000Z</time>
      </trkpt>
      <trkpt lat="45.91463" lon="-1.29042">
        <ele>8</ele>
        <time>2021-11-09T10:43:27.000Z</time>
      </trkpt>
      <trkpt lat="45.91467" lon="-1.29036">
        <ele>8</ele>
        <time>2021-11-09T10:43:28.000Z</time>
      </trkpt>
      <trkpt lat="45.91485" lon="-1.29007">
        <ele>8</ele>
        <time>2021-11-09T10:43:32.000Z</time>
      </trkpt>
      <trkpt lat="45.91489" lon="-1.29001">
        <ele>8</ele>
        <time>2021-11-09T10:43:33.000Z</time>
      </trkpt>
      <trkpt lat="45.91503" lon="-1.28981">
        <ele>7.8000001907349</ele>
        <time>2021-11-09T10:43:37.000Z</time>
      </trkpt>
      <trkpt lat="45.91507" lon="-1.2897">
        <ele>7.8000001907349</ele>
        <time>2021-11-09T10:43:39.000Z</time>
      </trkpt>
      <trkpt lat="45.91511" lon="-1.28965">
        <ele>7.8000001907349</ele>
        <time>2021-11-09T10:43:40.000Z</time>
      </trkpt>
      <trkpt lat="45.91514" lon="-1.28962">
        <ele>7.5999999046326</ele>
        <time>2021-11-09T10:43:41.000Z</time>
      </trkpt>
      <trkpt lat="45.91516" lon="-1.28962">
        <ele>7.5999999046326</ele>
        <time>2021-11-09T10:43:42.000Z</time>
      </trkpt>
      <trkpt lat="45.91522" lon="-1.28983">
        <ele>7.5999999046326</ele>
        <time>2021-11-09T10:43:46.000Z</time>
      </trkpt>
      <trkpt lat="45.9153" lon="-1.29001">
        <ele>7.8000001907349</ele>
        <time>2021-11-09T10:43:49.000Z</time>
      </trkpt>
      <trkpt lat="45.91537" lon="-1.29012">
        <ele>8</ele>
        <time>2021-11-09T10:43:51.000Z</time>
      </trkpt>
      <trkpt lat="45.91541" lon="-1.29017">
        <ele>8</ele>
        <time>2021-11-09T10:43:52.000Z</time>
      </trkpt>
      <trkpt lat="45.91552" lon="-1.29016">
        <ele>8.1999998092651</ele>
        <time>2021-11-09T10:43:54.000Z</time>
      </trkpt>
      <trkpt lat="45.91582" lon="-1.29001">
        <ele>8.3999996185303</ele>
        <time>2021-11-09T10:43:59.000Z</time>
      </trkpt>
      <trkpt lat="45.91606" lon="-1.28986">
        <ele>8.3999996185303</ele>
        <time>2021-11-09T10:44:03.000Z</time>
      </trkpt>
      <trkpt lat="45.91612" lon="-1.28982">
        <ele>8.3999996185303</ele>
        <time>2021-11-09T10:44:04.000Z</time>
      </trkpt>
      <trkpt lat="45.91638" lon="-1.28963">
        <ele>8.6000003814697</ele>
        <time>2021-11-09T10:44:08.000Z</time>
      </trkpt>
      <trkpt lat="45.91648" lon="-1.28954">
        <ele>8.6000003814697</ele>
        <time>2021-11-09T10:44:10.000Z</time>
      </trkpt>
      <trkpt lat="45.91659" lon="-1.28945">
        <ele>8.6000003814697</ele>
        <time>2021-11-09T10:44:12.000Z</time>
      </trkpt>
      <trkpt lat="45.9167" lon="-1.28945">
        <ele>8.8000001907349</ele>
        <time>2021-11-09T10:44:14.000Z</time>
      </trkpt>
      <trkpt lat="45.91679" lon="-1.28953">
        <ele>9</ele>
        <time>2021-11-09T10:44:16.000Z</time>
      </trkpt>
      <trkpt lat="45.91682" lon="-1.28959">
        <ele>9.1999998092651</ele>
        <time>2021-11-09T10:44:17.000Z</time>
      </trkpt>
      <trkpt lat="45.91687" lon="-1.28965">
        <ele>9.1999998092651</ele>
        <time>2021-11-09T10:44:18.000Z</time>
      </trkpt>
      <trkpt lat="45.91697" lon="-1.28968">
        <ele>9</ele>
        <time>2021-11-09T10:44:20.000Z</time>
      </trkpt>
      <trkpt lat="45.91714" lon="-1.28958">
        <ele>8.8000001907349</ele>
        <time>2021-11-09T10:44:23.000Z</time>
      </trkpt>
      <trkpt lat="45.91754" lon="-1.28928">
        <ele>8.6000003814697</ele>
        <time>2021-11-09T10:44:30.000Z</time>
      </trkpt>
      <trkpt lat="45.91768" lon="-1.28916">
        <ele>8.6000003814697</ele>
        <time>2021-11-09T10:44:33.000Z</time>
      </trkpt>
      <trkpt lat="45.91771" lon="-1.28911">
        <ele>8.6000003814697</ele>
        <time>2021-11-09T10:44:34.000Z</time>
      </trkpt>
      <trkpt lat="45.91772" lon="-1.28906">
        <ele>8.6000003814697</ele>
        <time>2021-11-09T10:44:35.000Z</time>
      </trkpt>
      <trkpt lat="45.91767" lon="-1.28893">
        <ele>8.6000003814697</ele>
        <time>2021-11-09T10:44:37.000Z</time>
      </trkpt>
      <trkpt lat="45.91744" lon="-1.2885">
        <ele>8.8000001907349</ele>
        <time>2021-11-09T10:44:43.000Z</time>
      </trkpt>
      <trkpt lat="45.9174" lon="-1.28842">
        <ele>8.8000001907349</ele>
        <time>2021-11-09T10:44:44.000Z</time>
      </trkpt>
      <trkpt lat="45.91729" lon="-1.28807">
        <ele>8.3999996185303</ele>
        <time>2021-11-09T10:44:48.000Z</time>
      </trkpt>
      <trkpt lat="45.91726" lon="-1.28798">
        <ele>8.3999996185303</ele>
        <time>2021-11-09T10:44:49.000Z</time>
      </trkpt>
      <trkpt lat="45.91723" lon="-1.28789">
        <ele>8.3999996185303</ele>
        <time>2021-11-09T10:44:50.000Z</time>
      </trkpt>
      <trkpt lat="45.91714" lon="-1.28779">
        <ele>8.1999998092651</ele>
        <time>2021-11-09T10:44:52.000Z</time>
      </trkpt>
      <trkpt lat="45.91705" lon="-1.28776">
        <ele>8</ele>
        <time>2021-11-09T10:44:54.000Z</time>
      </trkpt>
      <trkpt lat="45.91703" lon="-1.28773">
        <ele>8</ele>
        <time>2021-11-09T10:44:55.000Z</time>
      </trkpt>
      <trkpt lat="45.91698" lon="-1.28764">
        <ele>8</ele>
        <time>2021-11-09T10:44:57.000Z</time>
      </trkpt>
      <trkpt lat="45.91691" lon="-1.28754">
        <ele>8</ele>
        <time>2021-11-09T10:44:59.000Z</time>
      </trkpt>
      <trkpt lat="45.91688" lon="-1.28749">
        <ele>8</ele>
        <time>2021-11-09T10:45:00.000Z</time>
      </trkpt>
      <trkpt lat="45.91674" lon="-1.28736">
        <ele>8</ele>
        <time>2021-11-09T10:45:03.000Z</time>
      </trkpt>
      <trkpt lat="45.91668" lon="-1.2873">
        <ele>8</ele>
        <time>2021-11-09T10:45:04.000Z</time>
      </trkpt>
      <trkpt lat="45.91654" lon="-1.2871">
        <ele>8.1999998092651</ele>
        <time>2021-11-09T10:45:07.000Z</time>
      </trkpt>
      <trkpt lat="45.9165" lon="-1.28704">
        <ele>8.1999998092651</ele>
        <time>2021-11-09T10:45:08.000Z</time>
      </trkpt>
      <trkpt lat="45.91638" lon="-1.28686">
        <ele>8.3999996185303</ele>
        <time>2021-11-09T10:45:11.000Z</time>
      </trkpt>
      <trkpt lat="45.91634" lon="-1.28681">
        <ele>8.3999996185303</ele>
        <time>2021-11-09T10:45:12.000Z</time>
      </trkpt>
      <trkpt lat="45.91615" lon="-1.28659">
        <ele>8.6000003814697</ele>
        <time>2021-11-09T10:45:16.000Z</time>
      </trkpt>
      <trkpt lat="45.91606" lon="-1.28647">
        <ele>8.6000003814697</ele>
        <time>2021-11-09T10:45:18.000Z</time>
      </trkpt>
      <trkpt lat="45.91597" lon="-1.28633">
        <ele>8.8000001907349</ele>
        <time>2021-11-09T10:45:20.000Z</time>
      </trkpt>
      <trkpt lat="45.91592" lon="-1.28625">
        <ele>8.8000001907349</ele>
        <time>2021-11-09T10:45:21.000Z</time>
      </trkpt>
      <trkpt lat="45.91586" lon="-1.28619">
        <ele>9</ele>
        <time>2021-11-09T10:45:22.000Z</time>
      </trkpt>
      <trkpt lat="45.91576" lon="-1.28608">
        <ele>9.1999998092651</ele>
        <time>2021-11-09T10:45:24.000Z</time>
      </trkpt>
      <trkpt lat="45.91572" lon="-1.28602">
        <ele>9.3999996185303</ele>
        <time>2021-11-09T10:45:25.000Z</time>
      </trkpt>
      <trkpt lat="45.91537" lon="-1.28559">
        <ele>9.6000003814697</ele>
        <time>2021-11-09T10:45:32.000Z</time>
      </trkpt>
      <trkpt lat="45.91511" lon="-1.28528">
        <ele>10</ele>
        <time>2021-11-09T10:45:37.000Z</time>
      </trkpt>
      <trkpt lat="45.91502" lon="-1.28518">
        <ele>10</ele>
        <time>2021-11-09T10:45:39.000Z</time>
      </trkpt>
      <trkpt lat="45.91496" lon="-1.28509">
        <ele>10</ele>
        <time>2021-11-09T10:45:41.000Z</time>
      </trkpt>
      <trkpt lat="45.915" lon="-1.28502">
        <ele>9.8000001907349</ele>
        <time>2021-11-09T10:45:43.000Z</time>
      </trkpt>
      <trkpt lat="45.91512" lon="-1.28488">
        <ele>9.6000003814697</ele>
        <time>2021-11-09T10:45:48.000Z</time>
      </trkpt>
      <trkpt lat="45.91511" lon="-1.28474">
        <ele>9.1999998092651</ele>
        <time>2021-11-09T10:45:50.000Z</time>
      </trkpt>
      <trkpt lat="45.91509" lon="-1.28465">
        <ele>8.8000001907349</ele>
        <time>2021-11-09T10:45:51.000Z</time>
      </trkpt>
      <trkpt lat="45.91507" lon="-1.28456">
        <ele>8.8000001907349</ele>
        <time>2021-11-09T10:45:52.000Z</time>
      </trkpt>
      <trkpt lat="45.91503" lon="-1.2844">
        <ele>8.6000003814697</ele>
        <time>2021-11-09T10:45:54.000Z</time>
      </trkpt>
      <trkpt lat="45.91502" lon="-1.28424">
        <ele>8.6000003814697</ele>
        <time>2021-11-09T10:45:56.000Z</time>
      </trkpt>
      <trkpt lat="45.91502" lon="-1.28413">
        <ele>8.6000003814697</ele>
        <time>2021-11-09T10:45:58.000Z</time>
      </trkpt>
      <trkpt lat="45.91505" lon="-1.2841">
        <ele>8.6000003814697</ele>
        <time>2021-11-09T10:45:59.000Z</time>
      </trkpt>
      <trkpt lat="45.91521" lon="-1.28391">
        <ele>8.3999996185303</ele>
        <time>2021-11-09T10:46:03.000Z</time>
      </trkpt>
      <trkpt lat="45.91528" lon="-1.28381">
        <ele>8.3999996185303</ele>
        <time>2021-11-09T10:46:05.000Z</time>
      </trkpt>
      <trkpt lat="45.91533" lon="-1.28371">
        <ele>8.3999996185303</ele>
        <time>2021-11-09T10:46:06.000Z</time>
      </trkpt>
      <trkpt lat="45.91535" lon="-1.28363">
        <ele>8.3999996185303</ele>
        <time>2021-11-09T10:46:07.000Z</time>
      </trkpt>
      <trkpt lat="45.9153" lon="-1.28339">
        <ele>8.6000003814697</ele>
        <time>2021-11-09T10:46:10.000Z</time>
      </trkpt>
      <trkpt lat="45.91526" lon="-1.28319">
        <ele>8.8000001907349</ele>
        <time>2021-11-09T10:46:12.000Z</time>
      </trkpt>
      <trkpt lat="45.91528" lon="-1.283">
        <ele>8.6000003814697</ele>
        <time>2021-11-09T10:46:14.000Z</time>
      </trkpt>
      <trkpt lat="45.91537" lon="-1.28273">
        <ele>8.8000001907349</ele>
        <time>2021-11-09T10:46:17.000Z</time>
      </trkpt>
      <trkpt lat="45.91537" lon="-1.28265">
        <ele>9</ele>
        <time>2021-11-09T10:46:18.000Z</time>
      </trkpt>
      <trkpt lat="45.91536" lon="-1.28259">
        <ele>9</ele>
        <time>2021-11-09T10:46:19.000Z</time>
      </trkpt>
      <trkpt lat="45.91529" lon="-1.28228">
        <ele>9</ele>
        <time>2021-11-09T10:46:23.000Z</time>
      </trkpt>
      <trkpt lat="45.91524" lon="-1.2821">
        <ele>9.1999998092651</ele>
        <time>2021-11-09T10:46:25.000Z</time>
      </trkpt>
      <trkpt lat="45.9152" lon="-1.28192">
        <ele>9.3999996185303</ele>
        <time>2021-11-09T10:46:27.000Z</time>
      </trkpt>
      <trkpt lat="45.91518" lon="-1.28182">
        <ele>9.3999996185303</ele>
        <time>2021-11-09T10:46:28.000Z</time>
      </trkpt>
      <trkpt lat="45.91515" lon="-1.28133">
        <ele>9.1999998092651</ele>
        <time>2021-11-09T10:46:34.000Z</time>
      </trkpt>
      <trkpt lat="45.91514" lon="-1.28094">
        <ele>9</ele>
        <time>2021-11-09T10:46:38.000Z</time>
      </trkpt>
      <trkpt lat="45.91514" lon="-1.28083">
        <ele>8.8000001907349</ele>
        <time>2021-11-09T10:46:39.000Z</time>
      </trkpt>
      <trkpt lat="45.91514" lon="-1.28071">
        <ele>8.8000001907349</ele>
        <time>2021-11-09T10:46:40.000Z</time>
      </trkpt>
      <trkpt lat="45.91513" lon="-1.28035">
        <ele>8.3999996185303</ele>
        <time>2021-11-09T10:46:44.000Z</time>
      </trkpt>
      <trkpt lat="45.91514" lon="-1.28004">
        <ele>8</ele>
        <time>2021-11-09T10:46:47.000Z</time>
      </trkpt>
      <trkpt lat="45.91513" lon="-1.27977">
        <ele>7.5999999046326</ele>
        <time>2021-11-09T10:46:50.000Z</time>
      </trkpt>
      <trkpt lat="45.91513" lon="-1.27948">
        <ele>6.8000001907349</ele>
        <time>2021-11-09T10:46:53.000Z</time>
      </trkpt>
      <trkpt lat="45.91515" lon="-1.2792">
        <ele>5.5999999046326</ele>
        <time>2021-11-09T10:46:56.000Z</time>
      </trkpt>
      <trkpt lat="45.91516" lon="-1.27913">
        <ele>5.1999998092651</ele>
        <time>2021-11-09T10:46:57.000Z</time>
      </trkpt>
      <trkpt lat="45.91518" lon="-1.27887">
        <ele>4.4000000953674</ele>
        <time>2021-11-09T10:47:00.000Z</time>
      </trkpt>
      <trkpt lat="45.91517" lon="-1.2788">
        <ele>4.1999998092651</ele>
        <time>2021-11-09T10:47:01.000Z</time>
      </trkpt>
      <trkpt lat="45.91513" lon="-1.27875">
        <ele>3.7999999523163</ele>
        <time>2021-11-09T10:47:02.000Z</time>
      </trkpt>
      <trkpt lat="45.91502" lon="-1.27866">
        <ele>3.5999999046326</ele>
        <time>2021-11-09T10:47:04.000Z</time>
      </trkpt>
      <trkpt lat="45.91497" lon="-1.27861">
        <ele>3.2000000476837</ele>
        <time>2021-11-09T10:47:05.000Z</time>
      </trkpt>
      <trkpt lat="45.91481" lon="-1.27843">
        <ele>2</ele>
        <time>2021-11-09T10:47:08.000Z</time>
      </trkpt>
      <trkpt lat="45.91479" lon="-1.27835">
        <ele>1.7999999523163</ele>
        <time>2021-11-09T10:47:09.000Z</time>
      </trkpt>
      <trkpt lat="45.91478" lon="-1.27826">
        <ele>1.6000000238419</ele>
        <time>2021-11-09T10:47:10.000Z</time>
      </trkpt>
      <trkpt lat="45.91481" lon="-1.2781">
        <ele>1</ele>
        <time>2021-11-09T10:47:12.000Z</time>
      </trkpt>
      <trkpt lat="45.91501" lon="-1.27745">
        <ele>3</ele>
        <time>2021-11-09T10:47:19.000Z</time>
      </trkpt>
      <trkpt lat="45.91506" lon="-1.27728">
        <ele>2.8</ele>
        <time>2021-11-09T10:47:21.000Z</time>
      </trkpt>
      <trkpt lat="45.91517" lon="-1.27695">
        <ele>-0.40000000596046</ele>
        <time>2021-11-09T10:47:25.000Z</time>
      </trkpt>
      <trkpt lat="45.9152" lon="-1.27687">
        <ele>-0.60000002384186</ele>
        <time>2021-11-09T10:47:26.000Z</time>
      </trkpt>
      <trkpt lat="45.91541" lon="-1.27614">
        <ele>-0.80000001192093</ele>
        <time>2021-11-09T10:47:34.000Z</time>
      </trkpt>
      <trkpt lat="45.91544" lon="-1.27605">
        <ele>-0.80000001192093</ele>
        <time>2021-11-09T10:47:35.000Z</time>
      </trkpt>
      <trkpt lat="45.91548" lon="-1.27578">
        <ele>-1</ele>
        <time>2021-11-09T10:47:38.000Z</time>
      </trkpt>
      <trkpt lat="45.91548" lon="-1.27569">
        <ele>-1</ele>
        <time>2021-11-09T10:47:39.000Z</time>
      </trkpt>
      <trkpt lat="45.91546" lon="-1.2755">
        <ele>-1.3999999761581</ele>
        <time>2021-11-09T10:47:41.000Z</time>
      </trkpt>
      <trkpt lat="45.91545" lon="-1.27523">
        <ele>-1.3999999761581</ele>
        <time>2021-11-09T10:47:44.000Z</time>
      </trkpt>
      <trkpt lat="45.91544" lon="-1.27498">
        <ele>-1.3999999761581</ele>
        <time>2021-11-09T10:47:47.000Z</time>
      </trkpt>
      <trkpt lat="45.91539" lon="-1.27492">
        <ele>-1.3999999761581</ele>
        <time>2021-11-09T10:47:48.000Z</time>
      </trkpt>
      <trkpt lat="45.9153" lon="-1.27493">
        <ele>-1.3999999761581</ele>
        <time>2021-11-09T10:47:50.000Z</time>
      </trkpt>
      <trkpt lat="45.91525" lon="-1.27496">
        <ele>-1.2000000476837</ele>
        <time>2021-11-09T10:47:51.000Z</time>
      </trkpt>
      <trkpt lat="45.91507" lon="-1.27503">
        <ele>-0.80000001192093</ele>
        <time>2021-11-09T10:47:54.000Z</time>
      </trkpt>
      <trkpt lat="45.91502" lon="-1.27506">
        <ele>-0.60000002384186</ele>
        <time>2021-11-09T10:47:55.000Z</time>
      </trkpt>
      <trkpt lat="45.91479" lon="-1.27521">
        <ele>-0.40000000596046</ele>
        <time>2021-11-09T10:47:59.000Z</time>
      </trkpt>
      <trkpt lat="45.91468" lon="-1.27529">
        <ele>-0.20000000298023</ele>
        <time>2021-11-09T10:48:01.000Z</time>
      </trkpt>
      <trkpt lat="45.91415" lon="-1.27558">
        <ele>0.40000000596046</ele>
        <time>2021-11-09T10:48:10.000Z</time>
      </trkpt>
      <trkpt lat="45.91383" lon="-1.27575">
        <ele>1</ele>
        <time>2021-11-09T10:48:15.000Z</time>
      </trkpt>
      <trkpt lat="45.91371" lon="-1.27582">
        <ele>1.6000000238419</ele>
        <time>2021-11-09T10:48:17.000Z</time>
      </trkpt>
      <trkpt lat="45.91346" lon="-1.27595">
        <ele>1.7999999523163</ele>
        <time>2021-11-09T10:48:21.000Z</time>
      </trkpt>
      <trkpt lat="45.91331" lon="-1.27598">
        <ele>2</ele>
        <time>2021-11-09T10:48:23.000Z</time>
      </trkpt>
      <trkpt lat="45.91278" lon="-1.27598">
        <ele>2.5999999046326</ele>
        <time>2021-11-09T10:48:31.000Z</time>
      </trkpt>
      <trkpt lat="45.91271" lon="-1.27597">
        <ele>3</ele>
        <time>2021-11-09T10:48:32.000Z</time>
      </trkpt>
      <trkpt lat="45.91233" lon="-1.27594">
        <ele>4</ele>
        <time>2021-11-09T10:48:38.000Z</time>
      </trkpt>
      <trkpt lat="45.91226" lon="-1.27593">
        <ele>4.4000000953674</ele>
        <time>2021-11-09T10:48:39.000Z</time>
      </trkpt>
      <trkpt lat="45.91177" lon="-1.27585">
        <ele>5.1999998092651</ele>
        <time>2021-11-09T10:48:47.000Z</time>
      </trkpt>
      <trkpt lat="45.91165" lon="-1.27585">
        <ele>5.4000000953674</ele>
        <time>2021-11-09T10:48:49.000Z</time>
      </trkpt>
      <trkpt lat="45.91147" lon="-1.2759">
        <ele>5.5999999046326</ele>
        <time>2021-11-09T10:48:52.000Z</time>
      </trkpt>
      <trkpt lat="45.91091" lon="-1.27609">
        <ele>4.8000001907349</ele>
        <time>2021-11-09T10:49:01.000Z</time>
      </trkpt>
      <trkpt lat="45.91085" lon="-1.27611">
        <ele>4.8000001907349</ele>
        <time>2021-11-09T10:49:02.000Z</time>
      </trkpt>
      <trkpt lat="45.9104" lon="-1.27614">
        <ele>4.8000001907349</ele>
        <time>2021-11-09T10:49:09.000Z</time>
      </trkpt>
      <trkpt lat="45.91029" lon="-1.27612">
        <ele>4.8000001907349</ele>
        <time>2021-11-09T10:49:11.000Z</time>
      </trkpt>
      <trkpt lat="45.91017" lon="-1.2761">
        <ele>4.8000001907349</ele>
        <time>2021-11-09T10:49:13.000Z</time>
      </trkpt>
      <trkpt lat="45.91011" lon="-1.27611">
        <ele>4.8000001907349</ele>
        <time>2021-11-09T10:49:14.000Z</time>
      </trkpt>
      <trkpt lat="45.91005" lon="-1.27616">
        <ele>4.8000001907349</ele>
        <time>2021-11-09T10:49:15.000Z</time>
      </trkpt>
      <trkpt lat="45.90996" lon="-1.27626">
        <ele>4.8000001907349</ele>
        <time>2021-11-09T10:49:17.000Z</time>
      </trkpt>
      <trkpt lat="45.90973" lon="-1.27652">
        <ele>4.5999999046326</ele>
        <time>2021-11-09T10:49:21.000Z</time>
      </trkpt>
      <trkpt lat="45.90957" lon="-1.27671">
        <ele>4.4000000953674</ele>
        <time>2021-11-09T10:49:24.000Z</time>
      </trkpt>
      <trkpt lat="45.90934" lon="-1.27699">
        <ele>4</ele>
        <time>2021-11-09T10:49:28.000Z</time>
      </trkpt>
      <trkpt lat="45.9089" lon="-1.27758">
        <ele>3.2000000476837</ele>
        <time>2021-11-09T10:49:36.000Z</time>
      </trkpt>
      <trkpt lat="45.90884" lon="-1.27765">
        <ele>3</ele>
        <time>2021-11-09T10:49:37.000Z</time>
      </trkpt>
      <trkpt lat="45.90854" lon="-1.27796">
        <ele>2.7999999523163</ele>
        <time>2021-11-09T10:49:42.000Z</time>
      </trkpt>
      <trkpt lat="45.90822" lon="-1.27823">
        <ele>3.4000000953674</ele>
        <time>2021-11-09T10:49:47.000Z</time>
      </trkpt>
      <trkpt lat="45.9081" lon="-1.27834">
        <ele>3.4000000953674</ele>
        <time>2021-11-09T10:49:49.000Z</time>
      </trkpt>
      <trkpt lat="45.90801" lon="-1.27847">
        <ele>3.4000000953674</ele>
        <time>2021-11-09T10:49:51.000Z</time>
      </trkpt>
      <trkpt lat="45.90772" lon="-1.27896">
        <ele>3.4000000953674</ele>
        <time>2021-11-09T10:49:57.000Z</time>
      </trkpt>
      <trkpt lat="45.90733" lon="-1.27942">
        <ele>2.7999999523163</ele>
        <time>2021-11-09T10:50:04.000Z</time>
      </trkpt>
      <trkpt lat="45.90722" lon="-1.27943">
        <ele>2.4000000953674</ele>
        <time>2021-11-09T10:50:06.000Z</time>
      </trkpt>
      <trkpt lat="45.90717" lon="-1.27931">
        <ele>2.2000000476837</ele>
        <time>2021-11-09T10:50:08.000Z</time>
      </trkpt>
      <trkpt lat="45.90715" lon="-1.27926">
        <ele>2.2000000476837</ele>
        <time>2021-11-09T10:50:09.000Z</time>
      </trkpt>
      <trkpt lat="45.90709" lon="-1.27913">
        <ele>2.2000000476837</ele>
        <time>2021-11-09T10:50:11.000Z</time>
      </trkpt>
      <trkpt lat="45.90699" lon="-1.27894">
        <ele>2</ele>
        <time>2021-11-09T10:50:14.000Z</time>
      </trkpt>
      <trkpt lat="45.90687" lon="-1.27873">
        <ele>2</ele>
        <time>2021-11-09T10:50:17.000Z</time>
      </trkpt>
      <trkpt lat="45.90676" lon="-1.27854">
        <ele>2</ele>
        <time>2021-11-09T10:50:20.000Z</time>
      </trkpt>
      <trkpt lat="45.90661" lon="-1.27829">
        <ele>1.6000000238419</ele>
        <time>2021-11-09T10:50:24.000Z</time>
      </trkpt>
      <trkpt lat="45.90655" lon="-1.27824">
        <ele>1.7999999523163</ele>
        <time>2021-11-09T10:50:25.000Z</time>
      </trkpt>
      <trkpt lat="45.90626" lon="-1.27798">
        <ele>1.3999999761581</ele>
        <time>2021-11-09T10:50:30.000Z</time>
      </trkpt>
      <trkpt lat="45.9062" lon="-1.27793">
        <ele>1.3999999761581</ele>
        <time>2021-11-09T10:50:31.000Z</time>
      </trkpt>
      <trkpt lat="45.90596" lon="-1.27775">
        <ele>1.2000000476837</ele>
        <time>2021-11-09T10:50:35.000Z</time>
      </trkpt>
      <trkpt lat="45.90578" lon="-1.2776">
        <ele>1.6000000238419</ele>
        <time>2021-11-09T10:50:38.000Z</time>
      </trkpt>
      <trkpt lat="45.90567" lon="-1.27748">
        <ele>1.6000000238419</ele>
        <time>2021-11-09T10:50:40.000Z</time>
      </trkpt>
      <trkpt lat="45.90562" lon="-1.27742">
        <ele>1.6000000238419</ele>
        <time>2021-11-09T10:50:41.000Z</time>
      </trkpt>
      <trkpt lat="45.90552" lon="-1.27729">
        <ele>1.7999999523163</ele>
        <time>2021-11-09T10:50:43.000Z</time>
      </trkpt>
      <trkpt lat="45.90542" lon="-1.27716">
        <ele>2</ele>
        <time>2021-11-09T10:50:45.000Z</time>
      </trkpt>
      <trkpt lat="45.90537" lon="-1.2771">
        <ele>2</ele>
        <time>2021-11-09T10:50:46.000Z</time>
      </trkpt>
      <trkpt lat="45.90532" lon="-1.27704">
        <ele>2</ele>
        <time>2021-11-09T10:50:47.000Z</time>
      </trkpt>
      <trkpt lat="45.90513" lon="-1.27674">
        <ele>2.4000000953674</ele>
        <time>2021-11-09T10:50:51.000Z</time>
      </trkpt>
      <trkpt lat="45.90499" lon="-1.27653">
        <ele>2.4000000953674</ele>
        <time>2021-11-09T10:50:54.000Z</time>
      </trkpt>
      <trkpt lat="45.90492" lon="-1.27637">
        <ele>2</ele>
        <time>2021-11-09T10:50:56.000Z</time>
      </trkpt>
      <trkpt lat="45.90489" lon="-1.27629">
        <ele>2</ele>
        <time>2021-11-09T10:50:57.000Z</time>
      </trkpt>
      <trkpt lat="45.90464" lon="-1.27562">
        <ele>2</ele>
        <time>2021-11-09T10:51:05.000Z</time>
      </trkpt>
      <trkpt lat="45.90455" lon="-1.27517">
        <ele>2</ele>
        <time>2021-11-09T10:51:10.000Z</time>
      </trkpt>
      <trkpt lat="45.90448" lon="-1.27502">
        <ele>2</ele>
        <time>2021-11-09T10:51:12.000Z</time>
      </trkpt>
      <trkpt lat="45.90428" lon="-1.27453">
        <ele>2</ele>
        <time>2021-11-09T10:51:18.000Z</time>
      </trkpt>
      <trkpt lat="45.90424" lon="-1.27446">
        <ele>2</ele>
        <time>2021-11-09T10:51:19.000Z</time>
      </trkpt>
      <trkpt lat="45.90419" lon="-1.27437">
        <ele>2</ele>
        <time>2021-11-09T10:51:20.000Z</time>
      </trkpt>
      <trkpt lat="45.9041" lon="-1.27425">
        <ele>2.5999999046326</ele>
        <time>2021-11-09T10:51:22.000Z</time>
      </trkpt>
      <trkpt lat="45.90404" lon="-1.27419">
        <ele>2.7999999523163</ele>
        <time>2021-11-09T10:51:23.000Z</time>
      </trkpt>
      <trkpt lat="45.90397" lon="-1.27415">
        <ele>2.7999999523163</ele>
        <time>2021-11-09T10:51:24.000Z</time>
      </trkpt>
      <trkpt lat="45.90384" lon="-1.27408">
        <ele>3</ele>
        <time>2021-11-09T10:51:26.000Z</time>
      </trkpt>
      <trkpt lat="45.90371" lon="-1.27401">
        <ele>3.2000000476837</ele>
        <time>2021-11-09T10:51:28.000Z</time>
      </trkpt>
      <trkpt lat="45.90334" lon="-1.27374">
        <ele>3.4000000953674</ele>
        <time>2021-11-09T10:51:34.000Z</time>
      </trkpt>
      <trkpt lat="45.90293" lon="-1.27343">
        <ele>3.5999999046326</ele>
        <time>2021-11-09T10:51:41.000Z</time>
      </trkpt>
      <trkpt lat="45.90257" lon="-1.27304">
        <ele>3.4000000953674</ele>
        <time>2021-11-09T10:51:48.000Z</time>
      </trkpt>
      <trkpt lat="45.90247" lon="-1.27292">
        <ele>3.5999999046326</ele>
        <time>2021-11-09T10:51:50.000Z</time>
      </trkpt>
      <trkpt lat="45.90236" lon="-1.27268">
        <ele>3.4000000953674</ele>
        <time>2021-11-09T10:51:53.000Z</time>
      </trkpt>
      <trkpt lat="45.90223" lon="-1.27242">
        <ele>3.5999999046326</ele>
        <time>2021-11-09T10:51:57.000Z</time>
      </trkpt>
      <trkpt lat="45.90219" lon="-1.27238">
        <ele>3.5999999046326</ele>
        <time>2021-11-09T10:51:58.000Z</time>
      </trkpt>
      <trkpt lat="45.90215" lon="-1.27239">
        <ele>3.5999999046326</ele>
        <time>2021-11-09T10:51:59.000Z</time>
      </trkpt>
      <trkpt lat="45.90211" lon="-1.27242">
        <ele>3.5999999046326</ele>
        <time>2021-11-09T10:52:00.000Z</time>
      </trkpt>
      <trkpt lat="45.90207" lon="-1.27247">
        <ele>3.5999999046326</ele>
        <time>2021-11-09T10:52:01.000Z</time>
      </trkpt>
      <trkpt lat="45.90192" lon="-1.27267">
        <ele>3.5999999046326</ele>
        <time>2021-11-09T10:52:04.000Z</time>
      </trkpt>
      <trkpt lat="45.90152" lon="-1.27313">
        <ele>3.4000000953674</ele>
        <time>2021-11-09T10:52:11.000Z</time>
      </trkpt>
      <trkpt lat="45.90108" lon="-1.27365">
        <ele>3</ele>
        <time>2021-11-09T10:52:19.000Z</time>
      </trkpt>
      <trkpt lat="45.90097" lon="-1.27377">
        <ele>2.7999999523163</ele>
        <time>2021-11-09T10:52:21.000Z</time>
      </trkpt>
      <trkpt lat="45.90082" lon="-1.27394">
        <ele>2.5999999046326</ele>
        <time>2021-11-09T10:52:24.000Z</time>
      </trkpt>
      <trkpt lat="45.90073" lon="-1.27396">
        <ele>2.5999999046326</ele>
        <time>2021-11-09T10:52:26.000Z</time>
      </trkpt>
      <trkpt lat="45.90063" lon="-1.27381">
        <ele>2.4000000953674</ele>
        <time>2021-11-09T10:52:29.000Z</time>
      </trkpt>
      <trkpt lat="45.90059" lon="-1.27374">
        <ele>2.4000000953674</ele>
        <time>2021-11-09T10:52:30.000Z</time>
      </trkpt>
      <trkpt lat="45.90048" lon="-1.27352">
        <ele>2.4000000953674</ele>
        <time>2021-11-09T10:52:33.000Z</time>
      </trkpt>
      <trkpt lat="45.9003" lon="-1.27323">
        <ele>2</ele>
        <time>2021-11-09T10:52:37.000Z</time>
      </trkpt>
      <trkpt lat="45.90021" lon="-1.27308">
        <ele>2</ele>
        <time>2021-11-09T10:52:39.000Z</time>
      </trkpt>
      <trkpt lat="45.90016" lon="-1.27301">
        <ele>1.7999999523163</ele>
        <time>2021-11-09T10:52:40.000Z</time>
      </trkpt>
      <trkpt lat="45.90009" lon="-1.27284">
        <ele>1.6000000238419</ele>
        <time>2021-11-09T10:52:42.000Z</time>
      </trkpt>
      <trkpt lat="45.90005" lon="-1.27275">
        <ele>1.7999999523163</ele>
        <time>2021-11-09T10:52:43.000Z</time>
      </trkpt>
      <trkpt lat="45.89999" lon="-1.27259">
        <ele>2</ele>
        <time>2021-11-09T10:52:45.000Z</time>
      </trkpt>
      <trkpt lat="45.8999" lon="-1.2723">
        <ele>2.7999999523163</ele>
        <time>2021-11-09T10:52:48.000Z</time>
      </trkpt>
      <trkpt lat="45.89986" lon="-1.27221">
        <ele>3.2000000476837</ele>
        <time>2021-11-09T10:52:49.000Z</time>
      </trkpt>
      <trkpt lat="45.89982" lon="-1.27212">
        <ele>3.7999999523163</ele>
        <time>2021-11-09T10:52:50.000Z</time>
      </trkpt>
      <trkpt lat="45.89979" lon="-1.27201">
        <ele>3.7999999523163</ele>
        <time>2021-11-09T10:52:51.000Z</time>
      </trkpt>
      <trkpt lat="45.89963" lon="-1.27143">
        <ele>4</ele>
        <time>2021-11-09T10:52:57.000Z</time>
      </trkpt>
      <trkpt lat="45.89957" lon="-1.27115">
        <ele>4.1999998092651</ele>
        <time>2021-11-09T10:53:00.000Z</time>
      </trkpt>
      <trkpt lat="45.89948" lon="-1.27095">
        <ele>4.1999998092651</ele>
        <time>2021-11-09T10:53:02.000Z</time>
      </trkpt>
      <trkpt lat="45.89939" lon="-1.27083">
        <ele>4.4000000953674</ele>
        <time>2021-11-09T10:53:04.000Z</time>
      </trkpt>
      <trkpt lat="45.89934" lon="-1.27072">
        <ele>4.4000000953674</ele>
        <time>2021-11-09T10:53:05.000Z</time>
      </trkpt>
      <trkpt lat="45.89931" lon="-1.27065">
        <ele>4.4000000953674</ele>
        <time>2021-11-09T10:53:06.000Z</time>
      </trkpt>
      <trkpt lat="45.89924" lon="-1.27037">
        <ele>5</ele>
        <time>2021-11-09T10:53:09.000Z</time>
      </trkpt>
      <trkpt lat="45.89918" lon="-1.27017">
        <ele>5.4000000953674</ele>
        <time>2021-11-09T10:53:11.000Z</time>
      </trkpt>
      <trkpt lat="45.89902" lon="-1.26969">
        <ele>6.1999998092651</ele>
        <time>2021-11-09T10:53:16.000Z</time>
      </trkpt>
      <trkpt lat="45.89895" lon="-1.2695">
        <ele>6.4000000953674</ele>
        <time>2021-11-09T10:53:18.000Z</time>
      </trkpt>
      <trkpt lat="45.89884" lon="-1.26936">
        <ele>6.4000000953674</ele>
        <time>2021-11-09T10:53:20.000Z</time>
      </trkpt>
      <trkpt lat="45.89846" lon="-1.26897">
        <ele>6</ele>
        <time>2021-11-09T10:53:26.000Z</time>
      </trkpt>
      <trkpt lat="45.8984" lon="-1.26893">
        <ele>6</ele>
        <time>2021-11-09T10:53:27.000Z</time>
      </trkpt>
      <trkpt lat="45.89802" lon="-1.2688">
        <ele>5.5999999046326</ele>
        <time>2021-11-09T10:53:32.000Z</time>
      </trkpt>
      <trkpt lat="45.8978" lon="-1.26873">
        <ele>5.4000000953674</ele>
        <time>2021-11-09T10:53:35.000Z</time>
      </trkpt>
      <trkpt lat="45.89767" lon="-1.26864">
        <ele>5.4000000953674</ele>
        <time>2021-11-09T10:53:37.000Z</time>
      </trkpt>
      <trkpt lat="45.89731" lon="-1.26825">
        <ele>5.1999998092651</ele>
        <time>2021-11-09T10:53:43.000Z</time>
      </trkpt>
      <trkpt lat="45.89687" lon="-1.26786">
        <ele>5.5999999046326</ele>
        <time>2021-11-09T10:53:50.000Z</time>
      </trkpt>
      <trkpt lat="45.89675" lon="-1.26778">
        <ele>5.5999999046326</ele>
        <time>2021-11-09T10:53:52.000Z</time>
      </trkpt>
      <trkpt lat="45.89667" lon="-1.26769">
        <ele>5.4000000953674</ele>
        <time>2021-11-09T10:53:54.000Z</time>
      </trkpt>
      <trkpt lat="45.89662" lon="-1.26764">
        <ele>5.1999998092651</ele>
        <time>2021-11-09T10:53:55.000Z</time>
      </trkpt>
      <trkpt lat="45.89651" lon="-1.26755">
        <ele>5</ele>
        <time>2021-11-09T10:53:57.000Z</time>
      </trkpt>
      <trkpt lat="45.89645" lon="-1.26751">
        <ele>4.8000001907349</ele>
        <time>2021-11-09T10:53:58.000Z</time>
      </trkpt>
      <trkpt lat="45.89633" lon="-1.26742">
        <ele>4.5999999046326</ele>
        <time>2021-11-09T10:54:00.000Z</time>
      </trkpt>
      <trkpt lat="45.89627" lon="-1.26739">
        <ele>4.1999998092651</ele>
        <time>2021-11-09T10:54:01.000Z</time>
      </trkpt>
      <trkpt lat="45.89616" lon="-1.26733">
        <ele>3.7999999523163</ele>
        <time>2021-11-09T10:54:03.000Z</time>
      </trkpt>
      <trkpt lat="45.89604" lon="-1.26726">
        <ele>3.7999999523163</ele>
        <time>2021-11-09T10:54:05.000Z</time>
      </trkpt>
      <trkpt lat="45.89586" lon="-1.26714">
        <ele>3.2000000476837</ele>
        <time>2021-11-09T10:54:08.000Z</time>
      </trkpt>
      <trkpt lat="45.89556" lon="-1.26695">
        <ele>2.7999999523163</ele>
        <time>2021-11-09T10:54:13.000Z</time>
      </trkpt>
      <trkpt lat="45.89544" lon="-1.26689">
        <ele>2.5999999046326</ele>
        <time>2021-11-09T10:54:15.000Z</time>
      </trkpt>
      <trkpt lat="45.89533" lon="-1.26682">
        <ele>2.2000000476837</ele>
        <time>2021-11-09T10:54:17.000Z</time>
      </trkpt>
      <trkpt lat="45.89526" lon="-1.26675">
        <ele>2</ele>
        <time>2021-11-09T10:54:18.000Z</time>
      </trkpt>
      <trkpt lat="45.89523" lon="-1.2667">
        <ele>1.7999999523163</ele>
        <time>2021-11-09T10:54:19.000Z</time>
      </trkpt>
      <trkpt lat="45.89513" lon="-1.26658">
        <ele>1.6000000238419</ele>
        <time>2021-11-09T10:54:21.000Z</time>
      </trkpt>
      <trkpt lat="45.89503" lon="-1.26646">
        <ele>1.2000000476837</ele>
        <time>2021-11-09T10:54:23.000Z</time>
      </trkpt>
      <trkpt lat="45.89498" lon="-1.26638">
        <ele>1.2000000476837</ele>
        <time>2021-11-09T10:54:24.000Z</time>
      </trkpt>
      <trkpt lat="45.89492" lon="-1.26623">
        <ele>1.2000000476837</ele>
        <time>2021-11-09T10:54:26.000Z</time>
      </trkpt>
      <trkpt lat="45.89478" lon="-1.26603">
        <ele>1.3999999761581</ele>
        <time>2021-11-09T10:54:29.000Z</time>
      </trkpt>
      <trkpt lat="45.89473" lon="-1.26596">
        <ele>1.3999999761581</ele>
        <time>2021-11-09T10:54:30.000Z</time>
      </trkpt>
      <trkpt lat="45.89449" lon="-1.26561">
        <ele>1.6000000238419</ele>
        <time>2021-11-09T10:54:35.000Z</time>
      </trkpt>
      <trkpt lat="45.89425" lon="-1.2653">
        <ele>1.6000000238419</ele>
        <time>2021-11-09T10:54:40.000Z</time>
      </trkpt>
      <trkpt lat="45.89421" lon="-1.26523">
        <ele>1.6000000238419</ele>
        <time>2021-11-09T10:54:41.000Z</time>
      </trkpt>
      <trkpt lat="45.8938" lon="-1.2646">
        <ele>1.6000000238419</ele>
        <time>2021-11-09T10:54:50.000Z</time>
      </trkpt>
      <trkpt lat="45.89353" lon="-1.2642">
        <ele>1.6000000238419</ele>
        <time>2021-11-09T10:54:56.000Z</time>
      </trkpt>
      <trkpt lat="45.89349" lon="-1.26414">
        <ele>1.6000000238419</ele>
        <time>2021-11-09T10:54:57.000Z</time>
      </trkpt>
      <trkpt lat="45.89338" lon="-1.26412">
        <ele>1.6000000238419</ele>
        <time>2021-11-09T10:54:59.000Z</time>
      </trkpt>
      <trkpt lat="45.89328" lon="-1.2642">
        <ele>1.7999999523163</ele>
        <time>2021-11-09T10:55:01.000Z</time>
      </trkpt>
      <trkpt lat="45.89324" lon="-1.26426">
        <ele>1.6000000238419</ele>
        <time>2021-11-09T10:55:02.000Z</time>
      </trkpt>
      <trkpt lat="45.89293" lon="-1.26471">
        <ele>2.5999999046326</ele>
        <time>2021-11-09T10:55:09.000Z</time>
      </trkpt>
      <trkpt lat="45.8928" lon="-1.26492">
        <ele>2.7999999523163</ele>
        <time>2021-11-09T10:55:12.000Z</time>
      </trkpt>
      <trkpt lat="45.89272" lon="-1.26506">
        <ele>2.5999999046326</ele>
        <time>2021-11-09T10:55:14.000Z</time>
      </trkpt>
      <trkpt lat="45.89266" lon="-1.26511">
        <ele>2.4000000953674</ele>
        <time>2021-11-09T10:55:15.000Z</time>
      </trkpt>
      <trkpt lat="45.89255" lon="-1.26517">
        <ele>2.4000000953674</ele>
        <time>2021-11-09T10:55:17.000Z</time>
      </trkpt>
      <trkpt lat="45.89249" lon="-1.26516">
        <ele>2.2000000476837</ele>
        <time>2021-11-09T10:55:18.000Z</time>
      </trkpt>
      <trkpt lat="45.89237" lon="-1.26513">
        <ele>2</ele>
        <time>2021-11-09T10:55:20.000Z</time>
      </trkpt>
      <trkpt lat="45.89225" lon="-1.26508">
        <ele>2.2000000476837</ele>
        <time>2021-11-09T10:55:22.000Z</time>
      </trkpt>
      <trkpt lat="45.89214" lon="-1.26503">
        <ele>2.2000000476837</ele>
        <time>2021-11-09T10:55:24.000Z</time>
      </trkpt>
      <trkpt lat="45.89208" lon="-1.26499">
        <ele>2.2000000476837</ele>
        <time>2021-11-09T10:55:25.000Z</time>
      </trkpt>
      <trkpt lat="45.89198" lon="-1.2649">
        <ele>2.4000000953674</ele>
        <time>2021-11-09T10:55:27.000Z</time>
      </trkpt>
      <trkpt lat="45.89193" lon="-1.26484">
        <ele>2.5999999046326</ele>
        <time>2021-11-09T10:55:28.000Z</time>
      </trkpt>
      <trkpt lat="45.89184" lon="-1.26473">
        <ele>3.2000000476837</ele>
        <time>2021-11-09T10:55:30.000Z</time>
      </trkpt>
      <trkpt lat="45.89176" lon="-1.26464">
        <ele>3.5999999046326</ele>
        <time>2021-11-09T10:55:32.000Z</time>
      </trkpt>
      <trkpt lat="45.89172" lon="-1.26457">
        <ele>3.7999999523163</ele>
        <time>2021-11-09T10:55:33.000Z</time>
      </trkpt>
      <trkpt lat="45.89161" lon="-1.26441">
        <ele>4.1999998092651</ele>
        <time>2021-11-09T10:55:35.000Z</time>
      </trkpt>
      <trkpt lat="45.89156" lon="-1.26433">
        <ele>4.5999999046326</ele>
        <time>2021-11-09T10:55:36.000Z</time>
      </trkpt>
      <trkpt lat="45.89146" lon="-1.26419">
        <ele>5.1999998092651</ele>
        <time>2021-11-09T10:55:38.000Z</time>
      </trkpt>
      <trkpt lat="45.89136" lon="-1.26403">
        <ele>5.5999999046326</ele>
        <time>2021-11-09T10:55:40.000Z</time>
      </trkpt>
      <trkpt lat="45.89131" lon="-1.26395">
        <ele>5.8000001907349</ele>
        <time>2021-11-09T10:55:41.000Z</time>
      </trkpt>
      <trkpt lat="45.89111" lon="-1.26365">
        <ele>6.4000000953674</ele>
        <time>2021-11-09T10:55:45.000Z</time>
      </trkpt>
      <trkpt lat="45.89098" lon="-1.26344">
        <ele>6.5999999046326</ele>
        <time>2021-11-09T10:55:48.000Z</time>
      </trkpt>
      <trkpt lat="45.89086" lon="-1.2633">
        <ele>6.8000001907349</ele>
        <time>2021-11-09T10:55:50.000Z</time>
      </trkpt>
      <trkpt lat="45.89076" lon="-1.26318">
        <ele>7.1999998092651</ele>
        <time>2021-11-09T10:55:52.000Z</time>
      </trkpt>
      <trkpt lat="45.89071" lon="-1.26311">
        <ele>7.5999999046326</ele>
        <time>2021-11-09T10:55:53.000Z</time>
      </trkpt>
      <trkpt lat="45.89066" lon="-1.26304">
        <ele>7.8000001907349</ele>
        <time>2021-11-09T10:55:54.000Z</time>
      </trkpt>
      <trkpt lat="45.89045" lon="-1.26272">
        <ele>8.3999996185303</ele>
        <time>2021-11-09T10:55:58.000Z</time>
      </trkpt>
      <trkpt lat="45.89042" lon="-1.26265">
        <ele>8.6000003814697</ele>
        <time>2021-11-09T10:55:59.000Z</time>
      </trkpt>
      <trkpt lat="45.89031" lon="-1.26253">
        <ele>9</ele>
        <time>2021-11-09T10:56:01.000Z</time>
      </trkpt>
      <trkpt lat="45.89018" lon="-1.26243">
        <ele>9.1999998092651</ele>
        <time>2021-11-09T10:56:03.000Z</time>
      </trkpt>
      <trkpt lat="45.88982" lon="-1.26214">
        <ele>9.8000001907349</ele>
        <time>2021-11-09T10:56:09.000Z</time>
      </trkpt>
      <trkpt lat="45.88977" lon="-1.26211">
        <ele>10</ele>
        <time>2021-11-09T10:56:10.000Z</time>
      </trkpt>
      <trkpt lat="45.88952" lon="-1.26196">
        <ele>10.60000038147</ele>
        <time>2021-11-09T10:56:14.000Z</time>
      </trkpt>
      <trkpt lat="45.88946" lon="-1.26192">
        <ele>10.800000190735</ele>
        <time>2021-11-09T10:56:15.000Z</time>
      </trkpt>
      <trkpt lat="45.88942" lon="-1.26189">
        <ele>10.800000190735</ele>
        <time>2021-11-09T10:56:16.000Z</time>
      </trkpt>
      <trkpt lat="45.88937" lon="-1.26186">
        <ele>11</ele>
        <time>2021-11-09T10:56:17.000Z</time>
      </trkpt>
      <trkpt lat="45.88931" lon="-1.26184">
        <ele>11</ele>
        <time>2021-11-09T10:56:18.000Z</time>
      </trkpt>
      <trkpt lat="45.88918" lon="-1.26181">
        <ele>11.199999809265</ele>
        <time>2021-11-09T10:56:20.000Z</time>
      </trkpt>
      <trkpt lat="45.88911" lon="-1.26179">
        <ele>11.199999809265</ele>
        <time>2021-11-09T10:56:21.000Z</time>
      </trkpt>
      <trkpt lat="45.88904" lon="-1.26175">
        <ele>11.39999961853</ele>
        <time>2021-11-09T10:56:22.000Z</time>
      </trkpt>
      <trkpt lat="45.88892" lon="-1.26168">
        <ele>11.60000038147</ele>
        <time>2021-11-09T10:56:24.000Z</time>
      </trkpt>
      <trkpt lat="45.88886" lon="-1.26167">
        <ele>11.60000038147</ele>
        <time>2021-11-09T10:56:25.000Z</time>
      </trkpt>
      <trkpt lat="45.88881" lon="-1.26165">
        <ele>11.60000038147</ele>
        <time>2021-11-09T10:56:26.000Z</time>
      </trkpt>
      <trkpt lat="45.8887" lon="-1.26156">
        <ele>11.800000190735</ele>
        <time>2021-11-09T10:56:28.000Z</time>
      </trkpt>
      <trkpt lat="45.88866" lon="-1.26151">
        <ele>11.800000190735</ele>
        <time>2021-11-09T10:56:29.000Z</time>
      </trkpt>
      <trkpt lat="45.88842" lon="-1.26118">
        <ele>12.39999961853</ele>
        <time>2021-11-09T10:56:34.000Z</time>
      </trkpt>
      <trkpt lat="45.88827" lon="-1.26099">
        <ele>12.800000190735</ele>
        <time>2021-11-09T10:56:37.000Z</time>
      </trkpt>
      <trkpt lat="45.88818" lon="-1.26091">
        <ele>13</ele>
        <time>2021-11-09T10:56:39.000Z</time>
      </trkpt>
      <trkpt lat="45.88813" lon="-1.26087">
        <ele>13.199999809265</ele>
        <time>2021-11-09T10:56:40.000Z</time>
      </trkpt>
      <trkpt lat="45.88799" lon="-1.26073">
        <ele>13.39999961853</ele>
        <time>2021-11-09T10:56:42.000Z</time>
      </trkpt>
      <trkpt lat="45.8879" lon="-1.26066">
        <ele>13.39999961853</ele>
        <time>2021-11-09T10:56:44.000Z</time>
      </trkpt>
      <trkpt lat="45.88778" lon="-1.26058">
        <ele>14</ele>
        <time>2021-11-09T10:56:46.000Z</time>
      </trkpt>
      <trkpt lat="45.88765" lon="-1.2605">
        <ele>14.199999809265</ele>
        <time>2021-11-09T10:56:48.000Z</time>
      </trkpt>
      <trkpt lat="45.88753" lon="-1.26039">
        <ele>14.39999961853</ele>
        <time>2021-11-09T10:56:50.000Z</time>
      </trkpt>
      <trkpt lat="45.88749" lon="-1.26036">
        <ele>14.39999961853</ele>
        <time>2021-11-09T10:56:51.000Z</time>
      </trkpt>
      <trkpt lat="45.88738" lon="-1.26024">
        <ele>14.39999961853</ele>
        <time>2021-11-09T10:56:53.000Z</time>
      </trkpt>
      <trkpt lat="45.88732" lon="-1.2602">
        <ele>14.60000038147</ele>
        <time>2021-11-09T10:56:54.000Z</time>
      </trkpt>
      <trkpt lat="45.8872" lon="-1.26012">
        <ele>14.60000038147</ele>
        <time>2021-11-09T10:56:56.000Z</time>
      </trkpt>
      <trkpt lat="45.88713" lon="-1.26008">
        <ele>14.60000038147</ele>
        <time>2021-11-09T10:56:57.000Z</time>
      </trkpt>
      <trkpt lat="45.88698" lon="-1.25993">
        <ele>15.199999809265</ele>
        <time>2021-11-09T10:57:00.000Z</time>
      </trkpt>
      <trkpt lat="45.88688" lon="-1.25981">
        <ele>15</ele>
        <time>2021-11-09T10:57:02.000Z</time>
      </trkpt>
      <trkpt lat="45.88683" lon="-1.25973">
        <ele>15.199999809265</ele>
        <time>2021-11-09T10:57:03.000Z</time>
      </trkpt>
      <trkpt lat="45.88669" lon="-1.2596">
        <ele>15.199999809265</ele>
        <time>2021-11-09T10:57:07.000Z</time>
      </trkpt>
      <trkpt lat="45.88666" lon="-1.25967">
        <ele>15.199999809265</ele>
        <time>2021-11-09T10:57:09.000Z</time>
      </trkpt>
      <trkpt lat="45.88671" lon="-1.25985">
        <ele>15.199999809265</ele>
        <time>2021-11-09T10:57:13.000Z</time>
      </trkpt>
      <trkpt lat="45.88673" lon="-1.25992">
        <ele>15.39999961853</ele>
        <time>2021-11-09T10:57:14.000Z</time>
      </trkpt>
      <trkpt lat="45.8868" lon="-1.26006">
        <ele>15.60000038147</ele>
        <time>2021-11-09T10:57:16.000Z</time>
      </trkpt>
      <trkpt lat="45.88688" lon="-1.26023">
        <ele>15.60000038147</ele>
        <time>2021-11-09T10:57:18.000Z</time>
      </trkpt>
      <trkpt lat="45.88702" lon="-1.26062">
        <ele>15.199999809265</ele>
        <time>2021-11-09T10:57:22.000Z</time>
      </trkpt>
      <trkpt lat="45.88705" lon="-1.26072">
        <ele>15.199999809265</ele>
        <time>2021-11-09T10:57:23.000Z</time>
      </trkpt>
      <trkpt lat="45.88716" lon="-1.26099">
        <ele>15.199999809265</ele>
        <time>2021-11-09T10:57:26.000Z</time>
      </trkpt>
      <trkpt lat="45.88723" lon="-1.26115">
        <ele>15.199999809265</ele>
        <time>2021-11-09T10:57:28.000Z</time>
      </trkpt>
      <trkpt lat="45.88735" lon="-1.26137">
        <ele>15</ele>
        <time>2021-11-09T10:57:31.000Z</time>
      </trkpt>
      <trkpt lat="45.88743" lon="-1.2615">
        <ele>15</ele>
        <time>2021-11-09T10:57:33.000Z</time>
      </trkpt>
      <trkpt lat="45.88747" lon="-1.26158">
        <ele>14.800000190735</ele>
        <time>2021-11-09T10:57:34.000Z</time>
      </trkpt>
      <trkpt lat="45.88751" lon="-1.26166">
        <ele>14.800000190735</ele>
        <time>2021-11-09T10:57:35.000Z</time>
      </trkpt>
      <trkpt lat="45.88759" lon="-1.26181">
        <ele>14.60000038147</ele>
        <time>2021-11-09T10:57:37.000Z</time>
      </trkpt>
      <trkpt lat="45.88769" lon="-1.26194">
        <ele>14.39999961853</ele>
        <time>2021-11-09T10:57:39.000Z</time>
      </trkpt>
      <trkpt lat="45.8878" lon="-1.26207">
        <ele>14.39999961853</ele>
        <time>2021-11-09T10:57:41.000Z</time>
      </trkpt>
      <trkpt lat="45.88802" lon="-1.26233">
        <ele>14.199999809265</ele>
        <time>2021-11-09T10:57:45.000Z</time>
      </trkpt>
      <trkpt lat="45.8881" lon="-1.26246">
        <ele>14.199999809265</ele>
        <time>2021-11-09T10:57:47.000Z</time>
      </trkpt>
      <trkpt lat="45.88845" lon="-1.26292">
        <ele>13.800000190735</ele>
        <time>2021-11-09T10:57:54.000Z</time>
      </trkpt>
      <trkpt lat="45.88879" lon="-1.26339">
        <ele>13.60000038147</ele>
        <time>2021-11-09T10:58:01.000Z</time>
      </trkpt>
      <trkpt lat="45.88905" lon="-1.26379">
        <ele>13.39999961853</ele>
        <time>2021-11-09T10:58:07.000Z</time>
      </trkpt>
      <trkpt lat="45.88933" lon="-1.26418">
        <ele>13.199999809265</ele>
        <time>2021-11-09T10:58:13.000Z</time>
      </trkpt>
      <trkpt lat="45.88937" lon="-1.26424">
        <ele>13.199999809265</ele>
        <time>2021-11-09T10:58:14.000Z</time>
      </trkpt>
      <trkpt lat="45.88953" lon="-1.26448">
        <ele>13.60000038147</ele>
        <time>2021-11-09T10:58:18.000Z</time>
      </trkpt>
      <trkpt lat="45.88964" lon="-1.2646">
        <ele>13.60000038147</ele>
        <time>2021-11-09T10:58:20.000Z</time>
      </trkpt>
      <trkpt lat="45.88974" lon="-1.26473">
        <ele>13.60000038147</ele>
        <time>2021-11-09T10:58:22.000Z</time>
      </trkpt>
      <trkpt lat="45.88983" lon="-1.26487">
        <ele>13.60000038147</ele>
        <time>2021-11-09T10:58:24.000Z</time>
      </trkpt>
      <trkpt lat="45.89017" lon="-1.26526">
        <ele>14</ele>
        <time>2021-11-09T10:58:30.000Z</time>
      </trkpt>
      <trkpt lat="45.89041" lon="-1.26554">
        <ele>14</ele>
        <time>2021-11-09T10:58:34.000Z</time>
      </trkpt>
      <trkpt lat="45.89049" lon="-1.26567">
        <ele>14</ele>
        <time>2021-11-09T10:58:36.000Z</time>
      </trkpt>
      <trkpt lat="45.89083" lon="-1.26627">
        <ele>14</ele>
        <time>2021-11-09T10:58:44.000Z</time>
      </trkpt>
      <trkpt lat="45.89101" lon="-1.26647">
        <ele>13.800000190735</ele>
        <time>2021-11-09T10:58:47.000Z</time>
      </trkpt>
      <trkpt lat="45.89113" lon="-1.26658">
        <ele>13.60000038147</ele>
        <time>2021-11-09T10:58:49.000Z</time>
      </trkpt>
      <trkpt lat="45.89118" lon="-1.26664">
        <ele>13.60000038147</ele>
        <time>2021-11-09T10:58:50.000Z</time>
      </trkpt>
      <trkpt lat="45.89137" lon="-1.2669">
        <ele>13.39999961853</ele>
        <time>2021-11-09T10:58:54.000Z</time>
      </trkpt>
      <trkpt lat="45.89169" lon="-1.26737">
        <ele>14</ele>
        <time>2021-11-09T10:59:01.000Z</time>
      </trkpt>
      <trkpt lat="45.89183" lon="-1.26756">
        <ele>14</ele>
        <time>2021-11-09T10:59:04.000Z</time>
      </trkpt>
      <trkpt lat="45.89192" lon="-1.26769">
        <ele>13.800000190735</ele>
        <time>2021-11-09T10:59:06.000Z</time>
      </trkpt>
      <trkpt lat="45.89208" lon="-1.26792">
        <ele>13.60000038147</ele>
        <time>2021-11-09T10:59:09.000Z</time>
      </trkpt>
      <trkpt lat="45.89225" lon="-1.26813">
        <ele>13.60000038147</ele>
        <time>2021-11-09T10:59:12.000Z</time>
      </trkpt>
      <trkpt lat="45.89254" lon="-1.26848">
        <ele>13</ele>
        <time>2021-11-09T10:59:17.000Z</time>
      </trkpt>
      <trkpt lat="45.89282" lon="-1.26868">
        <ele>12.39999961853</ele>
        <time>2021-11-09T10:59:22.000Z</time>
      </trkpt>
      <trkpt lat="45.89296" lon="-1.26876">
        <ele>12.199999809265</ele>
        <time>2021-11-09T10:59:25.000Z</time>
      </trkpt>
      <trkpt lat="45.89298" lon="-1.2688">
        <ele>12</ele>
        <time>2021-11-09T10:59:26.000Z</time>
      </trkpt>
      <trkpt lat="45.89299" lon="-1.26885">
        <ele>11.800000190735</ele>
        <time>2021-11-09T10:59:27.000Z</time>
      </trkpt>
      <trkpt lat="45.89298" lon="-1.26892">
        <ele>11.800000190735</ele>
        <time>2021-11-09T10:59:29.000Z</time>
      </trkpt>
      <trkpt lat="45.89297" lon="-1.26892">
        <ele>11.60000038147</ele>
        <time>2021-11-09T10:59:32.000Z</time>
      </trkpt>
      <trkpt lat="45.89293" lon="-1.26897">
        <ele>8.3999996185303</ele>
        <time>2021-11-09T11:01:39.000Z</time>
      </trkpt>
      <trkpt lat="45.89276" lon="-1.26917">
        <ele>8.3999996185303</ele>
        <time>2021-11-09T11:01:46.000Z</time>
      </trkpt>
      <trkpt lat="45.8926" lon="-1.26938">
        <ele>8.3999996185303</ele>
        <time>2021-11-09T11:01:50.000Z</time>
      </trkpt>
      <trkpt lat="45.89227" lon="-1.26975">
        <ele>8</ele>
        <time>2021-11-09T11:01:56.000Z</time>
      </trkpt>
      <trkpt lat="45.89199" lon="-1.27004">
        <ele>7.4000000953674</ele>
        <time>2021-11-09T11:02:01.000Z</time>
      </trkpt>
      <trkpt lat="45.89194" lon="-1.27009">
        <ele>7.4000000953674</ele>
        <time>2021-11-09T11:02:02.000Z</time>
      </trkpt>
      <trkpt lat="45.89182" lon="-1.27018">
        <ele>7.1999998092651</ele>
        <time>2021-11-09T11:02:04.000Z</time>
      </trkpt>
      <trkpt lat="45.8916" lon="-1.27037">
        <ele>7.4000000953674</ele>
        <time>2021-11-09T11:02:08.000Z</time>
      </trkpt>
      <trkpt lat="45.89137" lon="-1.27054">
        <ele>7.5999999046326</ele>
        <time>2021-11-09T11:02:13.000Z</time>
      </trkpt>
      <trkpt lat="45.89133" lon="-1.27056">
        <ele>7.8000001907349</ele>
        <time>2021-11-09T11:02:14.000Z</time>
      </trkpt>
      <trkpt lat="45.89118" lon="-1.27071">
        <ele>8</ele>
        <time>2021-11-09T11:02:18.000Z</time>
      </trkpt>
      <trkpt lat="45.89101" lon="-1.27089">
        <ele>8.1999998092651</ele>
        <time>2021-11-09T11:02:21.000Z</time>
      </trkpt>
      <trkpt lat="45.89097" lon="-1.27094">
        <ele>8.1999998092651</ele>
        <time>2021-11-09T11:02:22.000Z</time>
      </trkpt>
      <trkpt lat="45.89054" lon="-1.27142">
        <ele>8</ele>
        <time>2021-11-09T11:02:30.000Z</time>
      </trkpt>
      <trkpt lat="45.89015" lon="-1.27183">
        <ele>6.5999999046326</ele>
        <time>2021-11-09T11:02:37.000Z</time>
      </trkpt>
      <trkpt lat="45.89002" lon="-1.27197">
        <ele>6.1999998092651</ele>
        <time>2021-11-09T11:02:39.000Z</time>
      </trkpt>
      <trkpt lat="45.88982" lon="-1.27217">
        <ele>5</ele>
        <time>2021-11-09T11:02:43.000Z</time>
      </trkpt>
      <trkpt lat="45.88971" lon="-1.27226">
        <ele>4.5999999046326</ele>
        <time>2021-11-09T11:02:45.000Z</time>
      </trkpt>
      <trkpt lat="45.88966" lon="-1.27227">
        <ele>4.5999999046326</ele>
        <time>2021-11-09T11:02:46.000Z</time>
      </trkpt>
      <trkpt lat="45.88962" lon="-1.27226">
        <ele>4.4000000953674</ele>
        <time>2021-11-09T11:02:47.000Z</time>
      </trkpt>
      <trkpt lat="45.88956" lon="-1.27219">
        <ele>4.4000000953674</ele>
        <time>2021-11-09T11:02:49.000Z</time>
      </trkpt>
      <trkpt lat="45.88953" lon="-1.27207">
        <ele>4.1999998092651</ele>
        <time>2021-11-09T11:02:51.000Z</time>
      </trkpt>
      <trkpt lat="45.88953" lon="-1.27201">
        <ele>4</ele>
        <time>2021-11-09T11:02:52.000Z</time>
      </trkpt>
      <trkpt lat="45.88954" lon="-1.27195">
        <ele>4</ele>
        <time>2021-11-09T11:02:53.000Z</time>
      </trkpt>
      <trkpt lat="45.88954" lon="-1.27183">
        <ele>4</ele>
        <time>2021-11-09T11:02:55.000Z</time>
      </trkpt>
      <trkpt lat="45.88943" lon="-1.27172">
        <ele>3.7999999523163</ele>
        <time>2021-11-09T11:02:58.000Z</time>
      </trkpt>
      <trkpt lat="45.88934" lon="-1.27166">
        <ele>4</ele>
        <time>2021-11-09T11:03:00.000Z</time>
      </trkpt>
      <trkpt lat="45.88922" lon="-1.27165">
        <ele>4.1999998092651</ele>
        <time>2021-11-09T11:03:02.000Z</time>
      </trkpt>
      <trkpt lat="45.88897" lon="-1.27171">
        <ele>4.5999999046326</ele>
        <time>2021-11-09T11:03:06.000Z</time>
      </trkpt>
      <trkpt lat="45.88894" lon="-1.27172">
        <ele>4.5999999046326</ele>
        <time>2021-11-09T11:03:07.000Z</time>
      </trkpt>
      <trkpt lat="45.8888" lon="-1.27184">
        <ele>5</ele>
        <time>2021-11-09T11:03:10.000Z</time>
      </trkpt>
      <trkpt lat="45.88873" lon="-1.27188">
        <ele>5</ele>
        <time>2021-11-09T11:03:11.000Z</time>
      </trkpt>
      <trkpt lat="45.88862" lon="-1.27194">
        <ele>5.4000000953674</ele>
        <time>2021-11-09T11:03:13.000Z</time>
      </trkpt>
      <trkpt lat="45.88851" lon="-1.27206">
        <ele>5.8000001907349</ele>
        <time>2021-11-09T11:03:15.000Z</time>
      </trkpt>
      <trkpt lat="45.88849" lon="-1.27211">
        <ele>6.1999998092651</ele>
        <time>2021-11-09T11:03:16.000Z</time>
      </trkpt>
      <trkpt lat="45.88847" lon="-1.27217">
        <ele>6.1999998092651</ele>
        <time>2021-11-09T11:03:17.000Z</time>
      </trkpt>
      <trkpt lat="45.8884" lon="-1.27229">
        <ele>6.4000000953674</ele>
        <time>2021-11-09T11:03:19.000Z</time>
      </trkpt>
      <trkpt lat="45.88821" lon="-1.27241">
        <ele>7.1999998092651</ele>
        <time>2021-11-09T11:03:23.000Z</time>
      </trkpt>
      <trkpt lat="45.88811" lon="-1.27254">
        <ele>7.5999999046326</ele>
        <time>2021-11-09T11:03:25.000Z</time>
      </trkpt>
      <trkpt lat="45.88806" lon="-1.27259">
        <ele>7.5999999046326</ele>
        <time>2021-11-09T11:03:26.000Z</time>
      </trkpt>
      <trkpt lat="45.88793" lon="-1.27269">
        <ele>8.1999998092651</ele>
        <time>2021-11-09T11:03:28.000Z</time>
      </trkpt>
      <trkpt lat="45.88787" lon="-1.27273">
        <ele>8.1999998092651</ele>
        <time>2021-11-09T11:03:29.000Z</time>
      </trkpt>
      <trkpt lat="45.88777" lon="-1.27276">
        <ele>8.3999996185303</ele>
        <time>2021-11-09T11:03:31.000Z</time>
      </trkpt>
      <trkpt lat="45.88772" lon="-1.27273">
        <ele>8.6000003814697</ele>
        <time>2021-11-09T11:03:32.000Z</time>
      </trkpt>
      <trkpt lat="45.88768" lon="-1.27266">
        <ele>8.8000001907349</ele>
        <time>2021-11-09T11:03:33.000Z</time>
      </trkpt>
      <trkpt lat="45.88764" lon="-1.27259">
        <ele>9.1999998092651</ele>
        <time>2021-11-09T11:03:34.000Z</time>
      </trkpt>
      <trkpt lat="45.88759" lon="-1.27256">
        <ele>9.3999996185303</ele>
        <time>2021-11-09T11:03:35.000Z</time>
      </trkpt>
      <trkpt lat="45.88748" lon="-1.27248">
        <ele>9.6000003814697</ele>
        <time>2021-11-09T11:03:37.000Z</time>
      </trkpt>
      <trkpt lat="45.88729" lon="-1.2722">
        <ele>10</ele>
        <time>2021-11-09T11:03:41.000Z</time>
      </trkpt>
      <trkpt lat="45.88726" lon="-1.27211">
        <ele>9.8000001907349</ele>
        <time>2021-11-09T11:03:42.000Z</time>
      </trkpt>
      <trkpt lat="45.88724" lon="-1.27206">
        <ele>9.6000003814697</ele>
        <time>2021-11-09T11:03:43.000Z</time>
      </trkpt>
      <trkpt lat="45.88718" lon="-1.27183">
        <ele>10.199999809265</ele>
        <time>2021-11-09T11:03:46.000Z</time>
      </trkpt>
      <trkpt lat="45.88706" lon="-1.27166">
        <ele>10.800000190735</ele>
        <time>2021-11-09T11:03:49.000Z</time>
      </trkpt>
      <trkpt lat="45.88703" lon="-1.27159">
        <ele>10.800000190735</ele>
        <time>2021-11-09T11:03:50.000Z</time>
      </trkpt>
      <trkpt lat="45.88701" lon="-1.27151">
        <ele>11</ele>
        <time>2021-11-09T11:03:51.000Z</time>
      </trkpt>
      <trkpt lat="45.887" lon="-1.27134">
        <ele>11.199999809265</ele>
        <time>2021-11-09T11:03:53.000Z</time>
      </trkpt>
      <trkpt lat="45.88702" lon="-1.27125">
        <ele>11.199999809265</ele>
        <time>2021-11-09T11:03:54.000Z</time>
      </trkpt>
      <trkpt lat="45.88701" lon="-1.27116">
        <ele>11.39999961853</ele>
        <time>2021-11-09T11:03:55.000Z</time>
      </trkpt>
      <trkpt lat="45.88698" lon="-1.27102">
        <ele>11.39999961853</ele>
        <time>2021-11-09T11:03:57.000Z</time>
      </trkpt>
      <trkpt lat="45.8869" lon="-1.27087">
        <ele>11.199999809265</ele>
        <time>2021-11-09T11:03:59.000Z</time>
      </trkpt>
      <trkpt lat="45.88681" lon="-1.27074">
        <ele>11.199999809265</ele>
        <time>2021-11-09T11:04:01.000Z</time>
      </trkpt>
      <trkpt lat="45.88666" lon="-1.27052">
        <ele>11.199999809265</ele>
        <time>2021-11-09T11:04:04.000Z</time>
      </trkpt>
      <trkpt lat="45.8866" lon="-1.27035">
        <ele>10.800000190735</ele>
        <time>2021-11-09T11:04:06.000Z</time>
      </trkpt>
      <trkpt lat="45.88659" lon="-1.27027">
        <ele>10.800000190735</ele>
        <time>2021-11-09T11:04:07.000Z</time>
      </trkpt>
      <trkpt lat="45.88645" lon="-1.27001">
        <ele>10.800000190735</ele>
        <time>2021-11-09T11:04:10.000Z</time>
      </trkpt>
      <trkpt lat="45.88637" lon="-1.26975">
        <ele>10.60000038147</ele>
        <time>2021-11-09T11:04:13.000Z</time>
      </trkpt>
      <trkpt lat="45.88631" lon="-1.26957">
        <ele>10.60000038147</ele>
        <time>2021-11-09T11:04:15.000Z</time>
      </trkpt>
      <trkpt lat="45.88622" lon="-1.26912">
        <ele>10.199999809265</ele>
        <time>2021-11-09T11:04:20.000Z</time>
      </trkpt>
      <trkpt lat="45.88621" lon="-1.26903">
        <ele>10</ele>
        <time>2021-11-09T11:04:21.000Z</time>
      </trkpt>
      <trkpt lat="45.88616" lon="-1.26884">
        <ele>9.8000001907349</ele>
        <time>2021-11-09T11:04:23.000Z</time>
      </trkpt>
      <trkpt lat="45.88611" lon="-1.26867">
        <ele>10.199999809265</ele>
        <time>2021-11-09T11:04:25.000Z</time>
      </trkpt>
      <trkpt lat="45.88603" lon="-1.26838">
        <ele>9.8000001907349</ele>
        <time>2021-11-09T11:04:28.000Z</time>
      </trkpt>
      <trkpt lat="45.88595" lon="-1.26815">
        <ele>9.8000001907349</ele>
        <time>2021-11-09T11:04:31.000Z</time>
      </trkpt>
      <trkpt lat="45.88592" lon="-1.26795">
        <ele>9.8000001907349</ele>
        <time>2021-11-09T11:04:33.000Z</time>
      </trkpt>
      <trkpt lat="45.88591" lon="-1.26779">
        <ele>9.8000001907349</ele>
        <time>2021-11-09T11:04:35.000Z</time>
      </trkpt>
      <trkpt lat="45.8859" lon="-1.26772">
        <ele>9.8000001907349</ele>
        <time>2021-11-09T11:04:36.000Z</time>
      </trkpt>
      <trkpt lat="45.88588" lon="-1.26756">
        <ele>9.8000001907349</ele>
        <time>2021-11-09T11:04:38.000Z</time>
      </trkpt>
      <trkpt lat="45.88586" lon="-1.26748">
        <ele>10</ele>
        <time>2021-11-09T11:04:39.000Z</time>
      </trkpt>
      <trkpt lat="45.88583" lon="-1.26741">
        <ele>10</ele>
        <time>2021-11-09T11:04:40.000Z</time>
      </trkpt>
      <trkpt lat="45.88575" lon="-1.26727">
        <ele>10.199999809265</ele>
        <time>2021-11-09T11:04:42.000Z</time>
      </trkpt>
      <trkpt lat="45.88569" lon="-1.26716">
        <ele>10.199999809265</ele>
        <time>2021-11-09T11:04:43.000Z</time>
      </trkpt>
      <trkpt lat="45.88564" lon="-1.26708">
        <ele>10.39999961853</ele>
        <time>2021-11-09T11:04:44.000Z</time>
      </trkpt>
      <trkpt lat="45.88551" lon="-1.26681">
        <ele>10.60000038147</ele>
        <time>2021-11-09T11:04:47.000Z</time>
      </trkpt>
      <trkpt lat="45.88529" lon="-1.26643">
        <ele>10</ele>
        <time>2021-11-09T11:04:52.000Z</time>
      </trkpt>
      <trkpt lat="45.88525" lon="-1.26634">
        <ele>10</ele>
        <time>2021-11-09T11:04:53.000Z</time>
      </trkpt>
      <trkpt lat="45.88515" lon="-1.26606">
        <ele>9.6000003814697</ele>
        <time>2021-11-09T11:04:57.000Z</time>
      </trkpt>
      <trkpt lat="45.88512" lon="-1.26599">
        <ele>9.6000003814697</ele>
        <time>2021-11-09T11:04:58.000Z</time>
      </trkpt>
      <trkpt lat="45.88509" lon="-1.2659">
        <ele>9.6000003814697</ele>
        <time>2021-11-09T11:04:59.000Z</time>
      </trkpt>
      <trkpt lat="45.88501" lon="-1.26564">
        <ele>9.3999996185303</ele>
        <time>2021-11-09T11:05:02.000Z</time>
      </trkpt>
      <trkpt lat="45.88477" lon="-1.26503">
        <ele>9.6000003814697</ele>
        <time>2021-11-09T11:05:09.000Z</time>
      </trkpt>
      <trkpt lat="45.88467" lon="-1.26479">
        <ele>9.6000003814697</ele>
        <time>2021-11-09T11:05:12.000Z</time>
      </trkpt>
      <trkpt lat="45.88461" lon="-1.26454">
        <ele>9.8000001907349</ele>
        <time>2021-11-09T11:05:15.000Z</time>
      </trkpt>
      <trkpt lat="45.88456" lon="-1.26434">
        <ele>9.8000001907349</ele>
        <time>2021-11-09T11:05:17.000Z</time>
      </trkpt>
      <trkpt lat="45.88448" lon="-1.26416">
        <ele>9.8000001907349</ele>
        <time>2021-11-09T11:05:19.000Z</time>
      </trkpt>
      <trkpt lat="45.8843" lon="-1.26369">
        <ele>9.8000001907349</ele>
        <time>2021-11-09T11:05:24.000Z</time>
      </trkpt>
      <trkpt lat="45.88409" lon="-1.26333">
        <ele>9.8000001907349</ele>
        <time>2021-11-09T11:05:29.000Z</time>
      </trkpt>
      <trkpt lat="45.88391" lon="-1.26311">
        <ele>9.8000001907349</ele>
        <time>2021-11-09T11:05:33.000Z</time>
      </trkpt>
      <trkpt lat="45.88386" lon="-1.26296">
        <ele>9.8000001907349</ele>
        <time>2021-11-09T11:05:35.000Z</time>
      </trkpt>
      <trkpt lat="45.88381" lon="-1.26277">
        <ele>9.8000001907349</ele>
        <time>2021-11-09T11:05:37.000Z</time>
      </trkpt>
      <trkpt lat="45.88381" lon="-1.26262">
        <ele>9.8000001907349</ele>
        <time>2021-11-09T11:05:39.000Z</time>
      </trkpt>
      <trkpt lat="45.88381" lon="-1.26255">
        <ele>9.8000001907349</ele>
        <time>2021-11-09T11:05:40.000Z</time>
      </trkpt>
      <trkpt lat="45.88384" lon="-1.26229">
        <ele>9.8000001907349</ele>
        <time>2021-11-09T11:05:43.000Z</time>
      </trkpt>
      <trkpt lat="45.88387" lon="-1.26209">
        <ele>10.39999961853</ele>
        <time>2021-11-09T11:05:45.000Z</time>
      </trkpt>
      <trkpt lat="45.88391" lon="-1.26158">
        <ele>11</ele>
        <time>2021-11-09T11:05:51.000Z</time>
      </trkpt>
      <trkpt lat="45.88394" lon="-1.26092">
        <ele>10.800000190735</ele>
        <time>2021-11-09T11:05:57.000Z</time>
      </trkpt>
      <trkpt lat="45.88394" lon="-1.26037">
        <ele>10.39999961853</ele>
        <time>2021-11-09T11:06:02.000Z</time>
      </trkpt>
      <trkpt lat="45.884" lon="-1.25974">
        <ele>10</ele>
        <time>2021-11-09T11:06:08.000Z</time>
      </trkpt>
      <trkpt lat="45.88406" lon="-1.25922">
        <ele>9.1999998092651</ele>
        <time>2021-11-09T11:06:13.000Z</time>
      </trkpt>
      <trkpt lat="45.88408" lon="-1.25915">
        <ele>9.1999998092651</ele>
        <time>2021-11-09T11:06:14.000Z</time>
      </trkpt>
      <trkpt lat="45.88411" lon="-1.25895">
        <ele>9.1999998092651</ele>
        <time>2021-11-09T11:06:16.000Z</time>
      </trkpt>
      <trkpt lat="45.88413" lon="-1.2587">
        <ele>9</ele>
        <time>2021-11-09T11:06:19.000Z</time>
      </trkpt>
      <trkpt lat="45.88414" lon="-1.25844">
        <ele>8.3999996185303</ele>
        <time>2021-11-09T11:06:22.000Z</time>
      </trkpt>
      <trkpt lat="45.88414" lon="-1.25831">
        <ele>8.1999998092651</ele>
        <time>2021-11-09T11:06:24.000Z</time>
      </trkpt>
      <trkpt lat="45.88407" lon="-1.25829">
        <ele>8</ele>
        <time>2021-11-09T11:06:26.000Z</time>
      </trkpt>
      <trkpt lat="45.88402" lon="-1.25832">
        <ele>8</ele>
        <time>2021-11-09T11:06:27.000Z</time>
      </trkpt>
      <trkpt lat="45.88394" lon="-1.25841">
        <ele>8</ele>
        <time>2021-11-09T11:06:29.000Z</time>
      </trkpt>
      <trkpt lat="45.88384" lon="-1.25851">
        <ele>8</ele>
        <time>2021-11-09T11:06:31.000Z</time>
      </trkpt>
      <trkpt lat="45.88372" lon="-1.25862">
        <ele>7.5999999046326</ele>
        <time>2021-11-09T11:06:33.000Z</time>
      </trkpt>
      <trkpt lat="45.88342" lon="-1.25886">
        <ele>7.1999998092651</ele>
        <time>2021-11-09T11:06:38.000Z</time>
      </trkpt>
      <trkpt lat="45.88305" lon="-1.25916">
        <ele>6.8000001907349</ele>
        <time>2021-11-09T11:06:44.000Z</time>
      </trkpt>
      <trkpt lat="45.88275" lon="-1.25941">
        <ele>7</ele>
        <time>2021-11-09T11:06:49.000Z</time>
      </trkpt>
      <trkpt lat="45.88228" lon="-1.25984">
        <ele>6.5999999046326</ele>
        <time>2021-11-09T11:06:57.000Z</time>
      </trkpt>
      <trkpt lat="45.88222" lon="-1.25989">
        <ele>6.5999999046326</ele>
        <time>2021-11-09T11:06:58.000Z</time>
      </trkpt>
      <trkpt lat="45.88183" lon="-1.26021">
        <ele>6.1999998092651</ele>
        <time>2021-11-09T11:07:05.000Z</time>
      </trkpt>
      <trkpt lat="45.88174" lon="-1.26031">
        <ele>6.1999998092651</ele>
        <time>2021-11-09T11:07:07.000Z</time>
      </trkpt>
      <trkpt lat="45.88164" lon="-1.26043">
        <ele>6.4000000953674</ele>
        <time>2021-11-09T11:07:09.000Z</time>
      </trkpt>
      <trkpt lat="45.8816" lon="-1.2605">
        <ele>6.4000000953674</ele>
        <time>2021-11-09T11:07:10.000Z</time>
      </trkpt>
      <trkpt lat="45.88147" lon="-1.26077">
        <ele>6.5999999046326</ele>
        <time>2021-11-09T11:07:15.000Z</time>
      </trkpt>
      <trkpt lat="45.88149" lon="-1.26086">
        <ele>6.8000001907349</ele>
        <time>2021-11-09T11:07:17.000Z</time>
      </trkpt>
      <trkpt lat="45.88152" lon="-1.26089">
        <ele>6.8000001907349</ele>
        <time>2021-11-09T11:07:18.000Z</time>
      </trkpt>
      <trkpt lat="45.88156" lon="-1.26092">
        <ele>6.8000001907349</ele>
        <time>2021-11-09T11:07:19.000Z</time>
      </trkpt>
      <trkpt lat="45.88168" lon="-1.26101">
        <ele>6.8000001907349</ele>
        <time>2021-11-09T11:07:21.000Z</time>
      </trkpt>
      <trkpt lat="45.88178" lon="-1.26115">
        <ele>7</ele>
        <time>2021-11-09T11:07:23.000Z</time>
      </trkpt>
      <trkpt lat="45.88187" lon="-1.26132">
        <ele>7</ele>
        <time>2021-11-09T11:07:25.000Z</time>
      </trkpt>
      <trkpt lat="45.88195" lon="-1.2615">
        <ele>7.1999998092651</ele>
        <time>2021-11-09T11:07:27.000Z</time>
      </trkpt>
      <trkpt lat="45.88213" lon="-1.26174">
        <ele>7.5999999046326</ele>
        <time>2021-11-09T11:07:30.000Z</time>
      </trkpt>
      <trkpt lat="45.88223" lon="-1.2619">
        <ele>7.8000001907349</ele>
        <time>2021-11-09T11:07:32.000Z</time>
      </trkpt>
      <trkpt lat="45.88238" lon="-1.26213">
        <ele>8.1999998092651</ele>
        <time>2021-11-09T11:07:35.000Z</time>
      </trkpt>
      <trkpt lat="45.88242" lon="-1.26222">
        <ele>8.1999998092651</ele>
        <time>2021-11-09T11:07:36.000Z</time>
      </trkpt>
      <trkpt lat="45.88255" lon="-1.26247">
        <ele>9.1999998092651</ele>
        <time>2021-11-09T11:07:39.000Z</time>
      </trkpt>
      <trkpt lat="45.88264" lon="-1.26265">
        <ele>9.3999996185303</ele>
        <time>2021-11-09T11:07:41.000Z</time>
      </trkpt>
      <trkpt lat="45.88268" lon="-1.26274">
        <ele>9.3999996185303</ele>
        <time>2021-11-09T11:07:42.000Z</time>
      </trkpt>
      <trkpt lat="45.88271" lon="-1.26283">
        <ele>9.6000003814697</ele>
        <time>2021-11-09T11:07:43.000Z</time>
      </trkpt>
      <trkpt lat="45.88277" lon="-1.26301">
        <ele>9.8000001907349</ele>
        <time>2021-11-09T11:07:45.000Z</time>
      </trkpt>
      <trkpt lat="45.8828" lon="-1.2631">
        <ele>9.8000001907349</ele>
        <time>2021-11-09T11:07:46.000Z</time>
      </trkpt>
      <trkpt lat="45.88292" lon="-1.26345">
        <ele>10</ele>
        <time>2021-11-09T11:07:50.000Z</time>
      </trkpt>
      <trkpt lat="45.88297" lon="-1.26361">
        <ele>10</ele>
        <time>2021-11-09T11:07:52.000Z</time>
      </trkpt>
      <trkpt lat="45.88302" lon="-1.26377">
        <ele>10.199999809265</ele>
        <time>2021-11-09T11:07:54.000Z</time>
      </trkpt>
      <trkpt lat="45.88312" lon="-1.26401">
        <ele>10.60000038147</ele>
        <time>2021-11-09T11:07:57.000Z</time>
      </trkpt>
      <trkpt lat="45.88317" lon="-1.26418">
        <ele>10.60000038147</ele>
        <time>2021-11-09T11:07:59.000Z</time>
      </trkpt>
      <trkpt lat="45.88335" lon="-1.26471">
        <ele>11</ele>
        <time>2021-11-09T11:08:05.000Z</time>
      </trkpt>
      <trkpt lat="45.88341" lon="-1.26488">
        <ele>11</ele>
        <time>2021-11-09T11:08:07.000Z</time>
      </trkpt>
      <trkpt lat="45.88346" lon="-1.26503">
        <ele>11</ele>
        <time>2021-11-09T11:08:09.000Z</time>
      </trkpt>
      <trkpt lat="45.88349" lon="-1.26521">
        <ele>11.199999809265</ele>
        <time>2021-11-09T11:08:11.000Z</time>
      </trkpt>
      <trkpt lat="45.88351" lon="-1.26529">
        <ele>11.39999961853</ele>
        <time>2021-11-09T11:08:12.000Z</time>
      </trkpt>
      <trkpt lat="45.88354" lon="-1.2654">
        <ele>11.60000038147</ele>
        <time>2021-11-09T11:08:13.000Z</time>
      </trkpt>
      <trkpt lat="45.88364" lon="-1.26592">
        <ele>12.199999809265</ele>
        <time>2021-11-09T11:08:19.000Z</time>
      </trkpt>
      <trkpt lat="45.88365" lon="-1.26601">
        <ele>12.199999809265</ele>
        <time>2021-11-09T11:08:20.000Z</time>
      </trkpt>
      <trkpt lat="45.88365" lon="-1.2664">
        <ele>12.39999961853</ele>
        <time>2021-11-09T11:08:24.000Z</time>
      </trkpt>
      <trkpt lat="45.88364" lon="-1.2665">
        <ele>12.39999961853</ele>
        <time>2021-11-09T11:08:25.000Z</time>
      </trkpt>
      <trkpt lat="45.88366" lon="-1.26681">
        <ele>12.39999961853</ele>
        <time>2021-11-09T11:08:28.000Z</time>
      </trkpt>
      <trkpt lat="45.88368" lon="-1.2669">
        <ele>12.39999961853</ele>
        <time>2021-11-09T11:08:29.000Z</time>
      </trkpt>
      <trkpt lat="45.88372" lon="-1.26698">
        <ele>12.60000038147</ele>
        <time>2021-11-09T11:08:30.000Z</time>
      </trkpt>
      <trkpt lat="45.88377" lon="-1.26713">
        <ele>12.60000038147</ele>
        <time>2021-11-09T11:08:32.000Z</time>
      </trkpt>
      <trkpt lat="45.8838" lon="-1.2672">
        <ele>12.60000038147</ele>
        <time>2021-11-09T11:08:33.000Z</time>
      </trkpt>
      <trkpt lat="45.88388" lon="-1.26748">
        <ele>12.800000190735</ele>
        <time>2021-11-09T11:08:36.000Z</time>
      </trkpt>
      <trkpt lat="45.88391" lon="-1.26766">
        <ele>12.800000190735</ele>
        <time>2021-11-09T11:08:38.000Z</time>
      </trkpt>
      <trkpt lat="45.88397" lon="-1.26798">
        <ele>12.800000190735</ele>
        <time>2021-11-09T11:08:42.000Z</time>
      </trkpt>
      <trkpt lat="45.884" lon="-1.26808">
        <ele>12.800000190735</ele>
        <time>2021-11-09T11:08:43.000Z</time>
      </trkpt>
      <trkpt lat="45.88406" lon="-1.26826">
        <ele>13</ele>
        <time>2021-11-09T11:08:45.000Z</time>
      </trkpt>
      <trkpt lat="45.8841" lon="-1.26852">
        <ele>13.199999809265</ele>
        <time>2021-11-09T11:08:48.000Z</time>
      </trkpt>
      <trkpt lat="45.88411" lon="-1.2687">
        <ele>13.39999961853</ele>
        <time>2021-11-09T11:08:50.000Z</time>
      </trkpt>
      <trkpt lat="45.88412" lon="-1.26891">
        <ele>13.39999961853</ele>
        <time>2021-11-09T11:08:52.000Z</time>
      </trkpt>
      <trkpt lat="45.8841" lon="-1.26903">
        <ele>13.39999961853</ele>
        <time>2021-11-09T11:08:53.000Z</time>
      </trkpt>
      <trkpt lat="45.88413" lon="-1.26925">
        <ele>13.199999809265</ele>
        <time>2021-11-09T11:08:55.000Z</time>
      </trkpt>
      <trkpt lat="45.88416" lon="-1.26952">
        <ele>13.199999809265</ele>
        <time>2021-11-09T11:08:58.000Z</time>
      </trkpt>
      <trkpt lat="45.88415" lon="-1.26963">
        <ele>13.39999961853</ele>
        <time>2021-11-09T11:08:59.000Z</time>
      </trkpt>
      <trkpt lat="45.88411" lon="-1.2698">
        <ele>13.199999809265</ele>
        <time>2021-11-09T11:09:01.000Z</time>
      </trkpt>
      <trkpt lat="45.8841" lon="-1.26987">
        <ele>13.199999809265</ele>
        <time>2021-11-09T11:09:02.000Z</time>
      </trkpt>
      <trkpt lat="45.88409" lon="-1.27002">
        <ele>13</ele>
        <time>2021-11-09T11:09:04.000Z</time>
      </trkpt>
      <trkpt lat="45.88409" lon="-1.27007">
        <ele>13</ele>
        <time>2021-11-09T11:09:05.000Z</time>
      </trkpt>
      <trkpt lat="45.88412" lon="-1.27013">
        <ele>13.199999809265</ele>
        <time>2021-11-09T11:09:07.000Z</time>
      </trkpt>
      <trkpt lat="45.88439" lon="-1.27034">
        <ele>13.199999809265</ele>
        <time>2021-11-09T11:09:13.000Z</time>
      </trkpt>
      <trkpt lat="45.88453" lon="-1.27047">
        <ele>13.60000038147</ele>
        <time>2021-11-09T11:09:16.000Z</time>
      </trkpt>
      <trkpt lat="45.88461" lon="-1.27053">
        <ele>13.60000038147</ele>
        <time>2021-11-09T11:09:18.000Z</time>
      </trkpt>
      <trkpt lat="45.8849" lon="-1.27075">
        <ele>14.199999809265</ele>
        <time>2021-11-09T11:09:23.000Z</time>
      </trkpt>
      <trkpt lat="45.88517" lon="-1.27088">
        <ele>14.199999809265</ele>
        <time>2021-11-09T11:09:28.000Z</time>
      </trkpt>
      <trkpt lat="45.88525" lon="-1.27101">
        <ele>14.39999961853</ele>
        <time>2021-11-09T11:09:30.000Z</time>
      </trkpt>
      <trkpt lat="45.88529" lon="-1.27106">
        <ele>14.39999961853</ele>
        <time>2021-11-09T11:09:31.000Z</time>
      </trkpt>
      <trkpt lat="45.88534" lon="-1.2711">
        <ele>14.39999961853</ele>
        <time>2021-11-09T11:09:32.000Z</time>
      </trkpt>
      <trkpt lat="45.88541" lon="-1.27115">
        <ele>14.39999961853</ele>
        <time>2021-11-09T11:09:33.000Z</time>
      </trkpt>
      <trkpt lat="45.88567" lon="-1.27125">
        <ele>14.199999809265</ele>
        <time>2021-11-09T11:09:37.000Z</time>
      </trkpt>
      <trkpt lat="45.88586" lon="-1.27122">
        <ele>14</ele>
        <time>2021-11-09T11:09:40.000Z</time>
      </trkpt>
      <trkpt lat="45.88592" lon="-1.2713">
        <ele>13.800000190735</ele>
        <time>2021-11-09T11:09:42.000Z</time>
      </trkpt>
      <trkpt lat="45.88593" lon="-1.27135">
        <ele>13.800000190735</ele>
        <time>2021-11-09T11:09:43.000Z</time>
      </trkpt>
      <trkpt lat="45.88607" lon="-1.2716">
        <ele>13.60000038147</ele>
        <time>2021-11-09T11:09:48.000Z</time>
      </trkpt>
      <trkpt lat="45.8862" lon="-1.27157">
        <ele>13.60000038147</ele>
        <time>2021-11-09T11:09:51.000Z</time>
      </trkpt>
      <trkpt lat="45.88629" lon="-1.2715">
        <ele>13.39999961853</ele>
        <time>2021-11-09T11:09:53.000Z</time>
      </trkpt>
      <trkpt lat="45.88638" lon="-1.27149">
        <ele>13.199999809265</ele>
        <time>2021-11-09T11:09:55.000Z</time>
      </trkpt>
      <trkpt lat="45.88648" lon="-1.27145">
        <ele>12.800000190735</ele>
        <time>2021-11-09T11:09:58.000Z</time>
      </trkpt>
      <trkpt lat="45.88651" lon="-1.27144">
        <ele>12.60000038147</ele>
        <time>2021-11-09T11:09:59.000Z</time>
      </trkpt>
      <trkpt lat="45.88657" lon="-1.27143">
        <ele>12.39999961853</ele>
        <time>2021-11-09T11:10:01.000Z</time>
      </trkpt>
      <trkpt lat="45.88659" lon="-1.27148">
        <ele>12.39999961853</ele>
        <time>2021-11-09T11:10:03.000Z</time>
      </trkpt>
      <trkpt lat="45.88661" lon="-1.27156">
        <ele>12.39999961853</ele>
        <time>2021-11-09T11:10:05.000Z</time>
      </trkpt>
      <trkpt lat="45.88666" lon="-1.27172">
        <ele>12.39999961853</ele>
        <time>2021-11-09T11:10:08.000Z</time>
      </trkpt>
      <trkpt lat="45.88671" lon="-1.27181">
        <ele>12.39999961853</ele>
        <time>2021-11-09T11:10:10.000Z</time>
      </trkpt>
      <trkpt lat="45.88674" lon="-1.27183">
        <ele>12.39999961853</ele>
        <time>2021-11-09T11:10:12.000Z</time>
      </trkpt>
      <trkpt lat="45.88679" lon="-1.27186">
        <ele>12.39999961853</ele>
        <time>2021-11-09T11:10:14.000Z</time>
      </trkpt>
      <trkpt lat="45.8868" lon="-1.27191">
        <ele>12.199999809265</ele>
        <time>2021-11-09T11:10:15.000Z</time>
      </trkpt>
      <trkpt lat="45.88684" lon="-1.27203">
        <ele>12.199999809265</ele>
        <time>2021-11-09T11:10:18.000Z</time>
      </trkpt>
      <trkpt lat="45.88691" lon="-1.27214">
        <ele>12.199999809265</ele>
        <time>2021-11-09T11:10:21.000Z</time>
      </trkpt>
      <trkpt lat="45.88694" lon="-1.27222">
        <ele>12</ele>
        <time>2021-11-09T11:10:23.000Z</time>
      </trkpt>
      <trkpt lat="45.887" lon="-1.27229">
        <ele>12</ele>
        <time>2021-11-09T11:10:25.000Z</time>
      </trkpt>
      <trkpt lat="45.88705" lon="-1.27233">
        <ele>12</ele>
        <time>2021-11-09T11:10:27.000Z</time>
      </trkpt>
      <trkpt lat="45.88708" lon="-1.27241">
        <ele>12</ele>
        <time>2021-11-09T11:10:29.000Z</time>
      </trkpt>
      <trkpt lat="45.88716" lon="-1.27262">
        <ele>12</ele>
        <time>2021-11-09T11:10:32.000Z</time>
      </trkpt>
      <trkpt lat="45.8872" lon="-1.27276">
        <ele>12</ele>
        <time>2021-11-09T11:10:34.000Z</time>
      </trkpt>
      <trkpt lat="45.88727" lon="-1.27287">
        <ele>12</ele>
        <time>2021-11-09T11:10:36.000Z</time>
      </trkpt>
      <trkpt lat="45.8874" lon="-1.27309">
        <ele>11.60000038147</ele>
        <time>2021-11-09T11:10:39.000Z</time>
      </trkpt>
      <trkpt lat="45.88743" lon="-1.27318">
        <ele>11.60000038147</ele>
        <time>2021-11-09T11:10:40.000Z</time>
      </trkpt>
      <trkpt lat="45.88747" lon="-1.27328">
        <ele>11.60000038147</ele>
        <time>2021-11-09T11:10:41.000Z</time>
      </trkpt>
      <trkpt lat="45.88752" lon="-1.27347">
        <ele>11.60000038147</ele>
        <time>2021-11-09T11:10:43.000Z</time>
      </trkpt>
      <trkpt lat="45.88754" lon="-1.27354">
        <ele>11.39999961853</ele>
        <time>2021-11-09T11:10:44.000Z</time>
      </trkpt>
      <trkpt lat="45.88757" lon="-1.2736">
        <ele>11.199999809265</ele>
        <time>2021-11-09T11:10:45.000Z</time>
      </trkpt>
      <trkpt lat="45.8876" lon="-1.27367">
        <ele>11.199999809265</ele>
        <time>2021-11-09T11:10:46.000Z</time>
      </trkpt>
      <trkpt lat="45.88764" lon="-1.27381">
        <ele>11</ele>
        <time>2021-11-09T11:10:48.000Z</time>
      </trkpt>
      <trkpt lat="45.88771" lon="-1.27396">
        <ele>10.800000190735</ele>
        <time>2021-11-09T11:10:50.000Z</time>
      </trkpt>
      <trkpt lat="45.88782" lon="-1.2741">
        <ele>10.800000190735</ele>
        <time>2021-11-09T11:10:52.000Z</time>
      </trkpt>
      <trkpt lat="45.88792" lon="-1.27433">
        <ele>10.39999961853</ele>
        <time>2021-11-09T11:10:55.000Z</time>
      </trkpt>
      <trkpt lat="45.88792" lon="-1.27441">
        <ele>10.199999809265</ele>
        <time>2021-11-09T11:10:56.000Z</time>
      </trkpt>
      <trkpt lat="45.88792" lon="-1.27461">
        <ele>9.8000001907349</ele>
        <time>2021-11-09T11:10:59.000Z</time>
      </trkpt>
      <trkpt lat="45.88793" lon="-1.27468">
        <ele>9.8000001907349</ele>
        <time>2021-11-09T11:11:00.000Z</time>
      </trkpt>
      <trkpt lat="45.88797" lon="-1.27475">
        <ele>9.8000001907349</ele>
        <time>2021-11-09T11:11:01.000Z</time>
      </trkpt>
      <trkpt lat="45.88805" lon="-1.27488">
        <ele>9.8000001907349</ele>
        <time>2021-11-09T11:11:03.000Z</time>
      </trkpt>
      <trkpt lat="45.88808" lon="-1.27494">
        <ele>9.6000003814697</ele>
        <time>2021-11-09T11:11:04.000Z</time>
      </trkpt>
      <trkpt lat="45.88815" lon="-1.27505">
        <ele>9.6000003814697</ele>
        <time>2021-11-09T11:11:06.000Z</time>
      </trkpt>
      <trkpt lat="45.88816" lon="-1.2751">
        <ele>9.6000003814697</ele>
        <time>2021-11-09T11:11:07.000Z</time>
      </trkpt>
      <trkpt lat="45.88815" lon="-1.27515">
        <ele>9.8000001907349</ele>
        <time>2021-11-09T11:11:08.000Z</time>
      </trkpt>
      <trkpt lat="45.88807" lon="-1.27523">
        <ele>9.8000001907349</ele>
        <time>2021-11-09T11:11:10.000Z</time>
      </trkpt>
      <trkpt lat="45.88783" lon="-1.27538">
        <ele>9.6000003814697</ele>
        <time>2021-11-09T11:11:15.000Z</time>
      </trkpt>
      <trkpt lat="45.88778" lon="-1.27548">
        <ele>9.6000003814697</ele>
        <time>2021-11-09T11:11:17.000Z</time>
      </trkpt>
      <trkpt lat="45.88778" lon="-1.27552">
        <ele>9.6000003814697</ele>
        <time>2021-11-09T11:11:18.000Z</time>
      </trkpt>
      <trkpt lat="45.88783" lon="-1.2757">
        <ele>9.3999996185303</ele>
        <time>2021-11-09T11:11:22.000Z</time>
      </trkpt>
      <trkpt lat="45.88784" lon="-1.27577">
        <ele>9.3999996185303</ele>
        <time>2021-11-09T11:11:23.000Z</time>
      </trkpt>
      <trkpt lat="45.88788" lon="-1.27592">
        <ele>9.3999996185303</ele>
        <time>2021-11-09T11:11:25.000Z</time>
      </trkpt>
      <trkpt lat="45.88791" lon="-1.27599">
        <ele>9.3999996185303</ele>
        <time>2021-11-09T11:11:26.000Z</time>
      </trkpt>
      <trkpt lat="45.88794" lon="-1.27604">
        <ele>9.3999996185303</ele>
        <time>2021-11-09T11:11:27.000Z</time>
      </trkpt>
      <trkpt lat="45.88804" lon="-1.27614">
        <ele>9.1999998092651</ele>
        <time>2021-11-09T11:11:29.000Z</time>
      </trkpt>
      <trkpt lat="45.88812" lon="-1.27628">
        <ele>9</ele>
        <time>2021-11-09T11:11:31.000Z</time>
      </trkpt>
      <trkpt lat="45.88818" lon="-1.27644">
        <ele>9</ele>
        <time>2021-11-09T11:11:33.000Z</time>
      </trkpt>
      <trkpt lat="45.88824" lon="-1.27668">
        <ele>9</ele>
        <time>2021-11-09T11:11:36.000Z</time>
      </trkpt>
      <trkpt lat="45.88827" lon="-1.27682">
        <ele>9.1999998092651</ele>
        <time>2021-11-09T11:11:38.000Z</time>
      </trkpt>
      <trkpt lat="45.88831" lon="-1.27702">
        <ele>9</ele>
        <time>2021-11-09T11:11:41.000Z</time>
      </trkpt>
      <trkpt lat="45.88835" lon="-1.27716">
        <ele>9</ele>
        <time>2021-11-09T11:11:43.000Z</time>
      </trkpt>
      <trkpt lat="45.88837" lon="-1.27722">
        <ele>9.1999998092651</ele>
        <time>2021-11-09T11:11:44.000Z</time>
      </trkpt>
      <trkpt lat="45.88844" lon="-1.27735">
        <ele>9.3999996185303</ele>
        <time>2021-11-09T11:11:46.000Z</time>
      </trkpt>
      <trkpt lat="45.88854" lon="-1.2775">
        <ele>9.6000003814697</ele>
        <time>2021-11-09T11:11:49.000Z</time>
      </trkpt>
      <trkpt lat="45.88858" lon="-1.27755">
        <ele>9.6000003814697</ele>
        <time>2021-11-09T11:11:50.000Z</time>
      </trkpt>
      <trkpt lat="45.88869" lon="-1.27759">
        <ele>9.8000001907349</ele>
        <time>2021-11-09T11:11:52.000Z</time>
      </trkpt>
      <trkpt lat="45.8888" lon="-1.2776">
        <ele>10</ele>
        <time>2021-11-09T11:11:54.000Z</time>
      </trkpt>
      <trkpt lat="45.88893" lon="-1.27757">
        <ele>10</ele>
        <time>2021-11-09T11:11:57.000Z</time>
      </trkpt>
      <trkpt lat="45.88906" lon="-1.2776">
        <ele>10</ele>
        <time>2021-11-09T11:12:00.000Z</time>
      </trkpt>
      <trkpt lat="45.88934" lon="-1.27781">
        <ele>9.8000001907349</ele>
        <time>2021-11-09T11:12:06.000Z</time>
      </trkpt>
      <trkpt lat="45.88939" lon="-1.27788">
        <ele>10</ele>
        <time>2021-11-09T11:12:07.000Z</time>
      </trkpt>
      <trkpt lat="45.88949" lon="-1.27807">
        <ele>10.199999809265</ele>
        <time>2021-11-09T11:12:10.000Z</time>
      </trkpt>
      <trkpt lat="45.88953" lon="-1.27822">
        <ele>10.199999809265</ele>
        <time>2021-11-09T11:12:12.000Z</time>
      </trkpt>
      <trkpt lat="45.88958" lon="-1.27835">
        <ele>10.199999809265</ele>
        <time>2021-11-09T11:12:14.000Z</time>
      </trkpt>
      <trkpt lat="45.88965" lon="-1.2785">
        <ele>10.199999809265</ele>
        <time>2021-11-09T11:12:17.000Z</time>
      </trkpt>
      <trkpt lat="45.88966" lon="-1.27855">
        <ele>10.199999809265</ele>
        <time>2021-11-09T11:12:18.000Z</time>
      </trkpt>
      <trkpt lat="45.88965" lon="-1.27861">
        <ele>10.199999809265</ele>
        <time>2021-11-09T11:12:19.000Z</time>
      </trkpt>
      <trkpt lat="45.88959" lon="-1.2787">
        <ele>10.199999809265</ele>
        <time>2021-11-09T11:12:21.000Z</time>
      </trkpt>
      <trkpt lat="45.8895" lon="-1.27882">
        <ele>10.39999961853</ele>
        <time>2021-11-09T11:12:23.000Z</time>
      </trkpt>
      <trkpt lat="45.88941" lon="-1.27893">
        <ele>10.60000038147</ele>
        <time>2021-11-09T11:12:25.000Z</time>
      </trkpt>
      <trkpt lat="45.88933" lon="-1.27915">
        <ele>10.800000190735</ele>
        <time>2021-11-09T11:12:28.000Z</time>
      </trkpt>
      <trkpt lat="45.88929" lon="-1.27921">
        <ele>10.800000190735</ele>
        <time>2021-11-09T11:12:29.000Z</time>
      </trkpt>
      <trkpt lat="45.88924" lon="-1.27924">
        <ele>10.800000190735</ele>
        <time>2021-11-09T11:12:30.000Z</time>
      </trkpt>
      <trkpt lat="45.8892" lon="-1.27924">
        <ele>10.800000190735</ele>
        <time>2021-11-09T11:12:31.000Z</time>
      </trkpt>
      <trkpt lat="45.88911" lon="-1.27922">
        <ele>11</ele>
        <time>2021-11-09T11:12:34.000Z</time>
      </trkpt>
      <trkpt lat="45.88908" lon="-1.27924">
        <ele>11</ele>
        <time>2021-11-09T11:12:35.000Z</time>
      </trkpt>
      <trkpt lat="45.88895" lon="-1.27921">
        <ele>11</ele>
        <time>2021-11-09T11:12:39.000Z</time>
      </trkpt>
      <trkpt lat="45.88892" lon="-1.27919">
        <ele>11</ele>
        <time>2021-11-09T11:12:41.000Z</time>
      </trkpt>
      <trkpt lat="45.88887" lon="-1.27917">
        <ele>11.199999809265</ele>
        <time>2021-11-09T11:12:43.000Z</time>
      </trkpt>
      <trkpt lat="45.88879" lon="-1.27901">
        <ele>11.199999809265</ele>
        <time>2021-11-09T11:12:47.000Z</time>
      </trkpt>
      <trkpt lat="45.88871" lon="-1.27876">
        <ele>11.60000038147</ele>
        <time>2021-11-09T11:12:52.000Z</time>
      </trkpt>
      <trkpt lat="45.88862" lon="-1.27863">
        <ele>12.199999809265</ele>
        <time>2021-11-09T11:12:56.000Z</time>
      </trkpt>
      <trkpt lat="45.88858" lon="-1.27863">
        <ele>12.60000038147</ele>
        <time>2021-11-09T11:12:57.000Z</time>
      </trkpt>
      <trkpt lat="45.8885" lon="-1.27862">
        <ele>13.199999809265</ele>
        <time>2021-11-09T11:12:59.000Z</time>
      </trkpt>
      <trkpt lat="45.88849" lon="-1.2786">
        <ele>13.39999961853</ele>
        <time>2021-11-09T11:13:00.000Z</time>
      </trkpt>
      <trkpt lat="45.8884" lon="-1.27852">
        <ele>13.800000190735</ele>
        <time>2021-11-09T11:13:04.000Z</time>
      </trkpt>
      <trkpt lat="45.88823" lon="-1.27857">
        <ele>14.199999809265</ele>
        <time>2021-11-09T11:13:08.000Z</time>
      </trkpt>
      <trkpt lat="45.88818" lon="-1.27856">
        <ele>14.39999961853</ele>
        <time>2021-11-09T11:13:10.000Z</time>
      </trkpt>
      <trkpt lat="45.88818" lon="-1.27854">
        <ele>14.39999961853</ele>
        <time>2021-11-09T11:13:11.000Z</time>
      </trkpt>
      <trkpt lat="45.88816" lon="-1.27846">
        <ele>14.39999961853</ele>
        <time>2021-11-09T11:13:13.000Z</time>
      </trkpt>
      <trkpt lat="45.88811" lon="-1.27835">
        <ele>14.39999961853</ele>
        <time>2021-11-09T11:13:15.000Z</time>
      </trkpt>
      <trkpt lat="45.88808" lon="-1.2783">
        <ele>14.39999961853</ele>
        <time>2021-11-09T11:13:16.000Z</time>
      </trkpt>
      <trkpt lat="45.88799" lon="-1.27828">
        <ele>14.39999961853</ele>
        <time>2021-11-09T11:13:18.000Z</time>
      </trkpt>
      <trkpt lat="45.88782" lon="-1.27821">
        <ele>14.39999961853</ele>
        <time>2021-11-09T11:13:22.000Z</time>
      </trkpt>
      <trkpt lat="45.88776" lon="-1.27817">
        <ele>14.199999809265</ele>
        <time>2021-11-09T11:13:23.000Z</time>
      </trkpt>
      <trkpt lat="45.8876" lon="-1.27798">
        <ele>14.199999809265</ele>
        <time>2021-11-09T11:13:27.000Z</time>
      </trkpt>
      <trkpt lat="45.88753" lon="-1.27787">
        <ele>14.199999809265</ele>
        <time>2021-11-09T11:13:30.000Z</time>
      </trkpt>
      <trkpt lat="45.88746" lon="-1.27774">
        <ele>14.199999809265</ele>
        <time>2021-11-09T11:13:33.000Z</time>
      </trkpt>
      <trkpt lat="45.88743" lon="-1.27768">
        <ele>14.199999809265</ele>
        <time>2021-11-09T11:13:35.000Z</time>
      </trkpt>
      <trkpt lat="45.8874" lon="-1.27766">
        <ele>14.199999809265</ele>
        <time>2021-11-09T11:13:36.000Z</time>
      </trkpt>
      <trkpt lat="45.88737" lon="-1.27763">
        <ele>14.199999809265</ele>
        <time>2021-11-09T11:13:37.000Z</time>
      </trkpt>
      <trkpt lat="45.88731" lon="-1.27759">
        <ele>13.800000190735</ele>
        <time>2021-11-09T11:13:39.000Z</time>
      </trkpt>
      <trkpt lat="45.88728" lon="-1.27755">
        <ele>13.800000190735</ele>
        <time>2021-11-09T11:13:40.000Z</time>
      </trkpt>
      <trkpt lat="45.88722" lon="-1.27741">
        <ele>13.60000038147</ele>
        <time>2021-11-09T11:13:42.000Z</time>
      </trkpt>
      <trkpt lat="45.88719" lon="-1.27733">
        <ele>13.60000038147</ele>
        <time>2021-11-09T11:13:43.000Z</time>
      </trkpt>
      <trkpt lat="45.88718" lon="-1.27723">
        <ele>13.39999961853</ele>
        <time>2021-11-09T11:13:45.000Z</time>
      </trkpt>
      <trkpt lat="45.88722" lon="-1.27711">
        <ele>13.39999961853</ele>
        <time>2021-11-09T11:13:47.000Z</time>
      </trkpt>
      <trkpt lat="45.88723" lon="-1.277">
        <ele>13.199999809265</ele>
        <time>2021-11-09T11:13:49.000Z</time>
      </trkpt>
      <trkpt lat="45.8873" lon="-1.27676">
        <ele>12.800000190735</ele>
        <time>2021-11-09T11:13:54.000Z</time>
      </trkpt>
      <trkpt lat="45.88734" lon="-1.27659">
        <ele>12.60000038147</ele>
        <time>2021-11-09T11:13:58.000Z</time>
      </trkpt>
      <trkpt lat="45.88735" lon="-1.27652">
        <ele>12.60000038147</ele>
        <time>2021-11-09T11:14:00.000Z</time>
      </trkpt>
      <trkpt lat="45.8873" lon="-1.27639">
        <ele>12.60000038147</ele>
        <time>2021-11-09T11:14:02.000Z</time>
      </trkpt>
      <trkpt lat="45.88728" lon="-1.27628">
        <ele>13</ele>
        <time>2021-11-09T11:14:04.000Z</time>
      </trkpt>
      <trkpt lat="45.88723" lon="-1.27626">
        <ele>13.199999809265</ele>
        <time>2021-11-09T11:14:06.000Z</time>
      </trkpt>
      <trkpt lat="45.8872" lon="-1.27624">
        <ele>13.39999961853</ele>
        <time>2021-11-09T11:14:07.000Z</time>
      </trkpt>
      <trkpt lat="45.88713" lon="-1.27623">
        <ele>13.800000190735</ele>
        <time>2021-11-09T11:14:10.000Z</time>
      </trkpt>
      <trkpt lat="45.88703" lon="-1.27625">
        <ele>14</ele>
        <time>2021-11-09T11:14:13.000Z</time>
      </trkpt>
      <trkpt lat="45.887" lon="-1.27624">
        <ele>14</ele>
        <time>2021-11-09T11:14:14.000Z</time>
      </trkpt>
      <trkpt lat="45.88697" lon="-1.27623">
        <ele>14.199999809265</ele>
        <time>2021-11-09T11:14:15.000Z</time>
      </trkpt>
      <trkpt lat="45.88695" lon="-1.2762">
        <ele>14.60000038147</ele>
        <time>2021-11-09T11:14:16.000Z</time>
      </trkpt>
      <trkpt lat="45.88691" lon="-1.27618">
        <ele>15</ele>
        <time>2021-11-09T11:14:18.000Z</time>
      </trkpt>
      <trkpt lat="45.88683" lon="-1.27612">
        <ele>15</ele>
        <time>2021-11-09T11:14:21.000Z</time>
      </trkpt>
      <trkpt lat="45.88679" lon="-1.27613">
        <ele>15</ele>
        <time>2021-11-09T11:14:22.000Z</time>
      </trkpt>
      <trkpt lat="45.88672" lon="-1.27622">
        <ele>14.800000190735</ele>
        <time>2021-11-09T11:14:24.000Z</time>
      </trkpt>
      <trkpt lat="45.88664" lon="-1.27633">
        <ele>14.60000038147</ele>
        <time>2021-11-09T11:14:26.000Z</time>
      </trkpt>
      <trkpt lat="45.88647" lon="-1.27656">
        <ele>13.39999961853</ele>
        <time>2021-11-09T11:14:30.000Z</time>
      </trkpt>
      <trkpt lat="45.88642" lon="-1.27673">
        <ele>12.800000190735</ele>
        <time>2021-11-09T11:14:32.000Z</time>
      </trkpt>
      <trkpt lat="45.8864" lon="-1.27682">
        <ele>12.39999961853</ele>
        <time>2021-11-09T11:14:33.000Z</time>
      </trkpt>
      <trkpt lat="45.88637" lon="-1.27689">
        <ele>12.39999961853</ele>
        <time>2021-11-09T11:14:34.000Z</time>
      </trkpt>
      <trkpt lat="45.88632" lon="-1.27693">
        <ele>11.800000190735</ele>
        <time>2021-11-09T11:14:35.000Z</time>
      </trkpt>
      <trkpt lat="45.88622" lon="-1.27689">
        <ele>11.199999809265</ele>
        <time>2021-11-09T11:14:37.000Z</time>
      </trkpt>
      <trkpt lat="45.88619" lon="-1.27675">
        <ele>10.199999809265</ele>
        <time>2021-11-09T11:14:39.000Z</time>
      </trkpt>
      <trkpt lat="45.88621" lon="-1.27668">
        <ele>10</ele>
        <time>2021-11-09T11:14:40.000Z</time>
      </trkpt>
      <trkpt lat="45.88625" lon="-1.27663">
        <ele>9.8000001907349</ele>
        <time>2021-11-09T11:14:41.000Z</time>
      </trkpt>
      <trkpt lat="45.8863" lon="-1.27661">
        <ele>9.6000003814697</ele>
        <time>2021-11-09T11:14:42.000Z</time>
      </trkpt>
      <trkpt lat="45.88635" lon="-1.27658">
        <ele>8.8000001907349</ele>
        <time>2021-11-09T11:14:43.000Z</time>
      </trkpt>
      <trkpt lat="45.8864" lon="-1.27654">
        <ele>8.3999996185303</ele>
        <time>2021-11-09T11:14:44.000Z</time>
      </trkpt>
      <trkpt lat="45.88649" lon="-1.27644">
        <ele>7.5999999046326</ele>
        <time>2021-11-09T11:14:46.000Z</time>
      </trkpt>
      <trkpt lat="45.88653" lon="-1.27638">
        <ele>7.4000000953674</ele>
        <time>2021-11-09T11:14:47.000Z</time>
      </trkpt>
      <trkpt lat="45.88661" lon="-1.27627">
        <ele>7</ele>
        <time>2021-11-09T11:14:49.000Z</time>
      </trkpt>
      <trkpt lat="45.8867" lon="-1.27615">
        <ele>6.5999999046326</ele>
        <time>2021-11-09T11:14:51.000Z</time>
      </trkpt>
      <trkpt lat="45.88686" lon="-1.27593">
        <ele>6.5999999046326</ele>
        <time>2021-11-09T11:14:55.000Z</time>
      </trkpt>
      <trkpt lat="45.88688" lon="-1.2758">
        <ele>6.5999999046326</ele>
        <time>2021-11-09T11:14:58.000Z</time>
      </trkpt>
      <trkpt lat="45.88674" lon="-1.27569">
        <ele>6.8000001907349</ele>
        <time>2021-11-09T11:15:02.000Z</time>
      </trkpt>
      <trkpt lat="45.88653" lon="-1.27549">
        <ele>7.5999999046326</ele>
        <time>2021-11-09T11:15:06.000Z</time>
      </trkpt>
      <trkpt lat="45.88647" lon="-1.27542">
        <ele>7.8000001907349</ele>
        <time>2021-11-09T11:15:07.000Z</time>
      </trkpt>
      <trkpt lat="45.88631" lon="-1.27521">
        <ele>8</ele>
        <time>2021-11-09T11:15:10.000Z</time>
      </trkpt>
      <trkpt lat="45.88619" lon="-1.27508">
        <ele>8.3999996185303</ele>
        <time>2021-11-09T11:15:13.000Z</time>
      </trkpt>
      <trkpt lat="45.88614" lon="-1.27502">
        <ele>8.6000003814697</ele>
        <time>2021-11-09T11:15:14.000Z</time>
      </trkpt>
      <trkpt lat="45.88609" lon="-1.27497">
        <ele>9</ele>
        <time>2021-11-09T11:15:15.000Z</time>
      </trkpt>
      <trkpt lat="45.88604" lon="-1.27492">
        <ele>9.3999996185303</ele>
        <time>2021-11-09T11:15:16.000Z</time>
      </trkpt>
      <trkpt lat="45.886" lon="-1.27486">
        <ele>9.8000001907349</ele>
        <time>2021-11-09T11:15:17.000Z</time>
      </trkpt>
      <trkpt lat="45.88586" lon="-1.27469">
        <ele>10</ele>
        <time>2021-11-09T11:15:20.000Z</time>
      </trkpt>
      <trkpt lat="45.88576" lon="-1.27456">
        <ele>10.39999961853</ele>
        <time>2021-11-09T11:15:22.000Z</time>
      </trkpt>
      <trkpt lat="45.88571" lon="-1.2745">
        <ele>10.60000038147</ele>
        <time>2021-11-09T11:15:23.000Z</time>
      </trkpt>
      <trkpt lat="45.88565" lon="-1.27443">
        <ele>10.800000190735</ele>
        <time>2021-11-09T11:15:24.000Z</time>
      </trkpt>
      <trkpt lat="45.8856" lon="-1.27435">
        <ele>11.199999809265</ele>
        <time>2021-11-09T11:15:25.000Z</time>
      </trkpt>
      <trkpt lat="45.88548" lon="-1.27422">
        <ele>11.60000038147</ele>
        <time>2021-11-09T11:15:27.000Z</time>
      </trkpt>
      <trkpt lat="45.88544" lon="-1.27416">
        <ele>11.60000038147</ele>
        <time>2021-11-09T11:15:28.000Z</time>
      </trkpt>
      <trkpt lat="45.88539" lon="-1.2741">
        <ele>11.60000038147</ele>
        <time>2021-11-09T11:15:29.000Z</time>
      </trkpt>
      <trkpt lat="45.8853" lon="-1.274">
        <ele>11.800000190735</ele>
        <time>2021-11-09T11:15:31.000Z</time>
      </trkpt>
      <trkpt lat="45.88524" lon="-1.27391">
        <ele>11.800000190735</ele>
        <time>2021-11-09T11:15:32.000Z</time>
      </trkpt>
      <trkpt lat="45.88503" lon="-1.27362">
        <ele>12.39999961853</ele>
        <time>2021-11-09T11:15:36.000Z</time>
      </trkpt>
      <trkpt lat="45.88498" lon="-1.27357">
        <ele>12.39999961853</ele>
        <time>2021-11-09T11:15:37.000Z</time>
      </trkpt>
      <trkpt lat="45.88476" lon="-1.27338">
        <ele>12.60000038147</ele>
        <time>2021-11-09T11:15:41.000Z</time>
      </trkpt>
      <trkpt lat="45.88465" lon="-1.27328">
        <ele>12.800000190735</ele>
        <time>2021-11-09T11:15:43.000Z</time>
      </trkpt>
      <trkpt lat="45.88461" lon="-1.27321">
        <ele>13</ele>
        <time>2021-11-09T11:15:44.000Z</time>
      </trkpt>
      <trkpt lat="45.88455" lon="-1.27306">
        <ele>13.199999809265</ele>
        <time>2021-11-09T11:15:46.000Z</time>
      </trkpt>
      <trkpt lat="45.88452" lon="-1.27291">
        <ele>13.39999961853</ele>
        <time>2021-11-09T11:15:48.000Z</time>
      </trkpt>
      <trkpt lat="45.88449" lon="-1.27275">
        <ele>13.39999961853</ele>
        <time>2021-11-09T11:15:50.000Z</time>
      </trkpt>
      <trkpt lat="45.88447" lon="-1.27265">
        <ele>13.39999961853</ele>
        <time>2021-11-09T11:15:51.000Z</time>
      </trkpt>
      <trkpt lat="45.88438" lon="-1.27224">
        <ele>13.800000190735</ele>
        <time>2021-11-09T11:15:55.000Z</time>
      </trkpt>
      <trkpt lat="45.88435" lon="-1.27214">
        <ele>13.800000190735</ele>
        <time>2021-11-09T11:15:56.000Z</time>
      </trkpt>
      <trkpt lat="45.88433" lon="-1.27206">
        <ele>13.800000190735</ele>
        <time>2021-11-09T11:15:57.000Z</time>
      </trkpt>
      <trkpt lat="45.88424" lon="-1.27194">
        <ele>14</ele>
        <time>2021-11-09T11:15:59.000Z</time>
      </trkpt>
      <trkpt lat="45.88413" lon="-1.27185">
        <ele>14</ele>
        <time>2021-11-09T11:16:01.000Z</time>
      </trkpt>
      <trkpt lat="45.884" lon="-1.27185">
        <ele>14</ele>
        <time>2021-11-09T11:16:03.000Z</time>
      </trkpt>
      <trkpt lat="45.88381" lon="-1.27182">
        <ele>14.199999809265</ele>
        <time>2021-11-09T11:16:06.000Z</time>
      </trkpt>
      <trkpt lat="45.88376" lon="-1.27179">
        <ele>14.39999961853</ele>
        <time>2021-11-09T11:16:07.000Z</time>
      </trkpt>
      <trkpt lat="45.88363" lon="-1.27174">
        <ele>14.800000190735</ele>
        <time>2021-11-09T11:16:09.000Z</time>
      </trkpt>
      <trkpt lat="45.88351" lon="-1.27173">
        <ele>15</ele>
        <time>2021-11-09T11:16:11.000Z</time>
      </trkpt>
      <trkpt lat="45.88343" lon="-1.27171">
        <ele>15.199999809265</ele>
        <time>2021-11-09T11:16:13.000Z</time>
      </trkpt>
      <trkpt lat="45.88341" lon="-1.27171">
        <ele>15.39999961853</ele>
        <time>2021-11-09T11:16:14.000Z</time>
      </trkpt>
      <trkpt lat="45.88339" lon="-1.2717">
        <ele>15.39999961853</ele>
        <time>2021-11-09T11:16:15.000Z</time>
      </trkpt>
      <trkpt lat="45.88336" lon="-1.27167">
        <ele>16.200000762939</ele>
        <time>2021-11-09T11:16:17.000Z</time>
      </trkpt>
      <trkpt lat="45.88336" lon="-1.27165">
        <ele>16.39999961853</ele>
        <time>2021-11-09T11:16:18.000Z</time>
      </trkpt>
      <trkpt lat="45.88337" lon="-1.27161">
        <ele>16.799999237061</ele>
        <time>2021-11-09T11:16:19.000Z</time>
      </trkpt>
      <trkpt lat="45.88339" lon="-1.27143">
        <ele>17.200000762939</ele>
        <time>2021-11-09T11:16:23.000Z</time>
      </trkpt>
      <trkpt lat="45.88337" lon="-1.27128">
        <ele>17.200000762939</ele>
        <time>2021-11-09T11:16:26.000Z</time>
      </trkpt>
      <trkpt lat="45.88335" lon="-1.27123">
        <ele>17.200000762939</ele>
        <time>2021-11-09T11:16:27.000Z</time>
      </trkpt>
      <trkpt lat="45.88325" lon="-1.27102">
        <ele>17.200000762939</ele>
        <time>2021-11-09T11:16:30.000Z</time>
      </trkpt>
      <trkpt lat="45.88321" lon="-1.27094">
        <ele>17.200000762939</ele>
        <time>2021-11-09T11:16:31.000Z</time>
      </trkpt>
      <trkpt lat="45.88316" lon="-1.27075">
        <ele>17.200000762939</ele>
        <time>2021-11-09T11:16:33.000Z</time>
      </trkpt>
      <trkpt lat="45.8831" lon="-1.27047">
        <ele>17.200000762939</ele>
        <time>2021-11-09T11:16:36.000Z</time>
      </trkpt>
      <trkpt lat="45.8831" lon="-1.27036">
        <ele>17.200000762939</ele>
        <time>2021-11-09T11:16:37.000Z</time>
      </trkpt>
      <trkpt lat="45.88308" lon="-1.27009">
        <ele>17</ele>
        <time>2021-11-09T11:16:40.000Z</time>
      </trkpt>
      <trkpt lat="45.88308" lon="-1.26997">
        <ele>17</ele>
        <time>2021-11-09T11:16:42.000Z</time>
      </trkpt>
      <trkpt lat="45.88307" lon="-1.26992">
        <ele>17</ele>
        <time>2021-11-09T11:16:43.000Z</time>
      </trkpt>
      <trkpt lat="45.88299" lon="-1.26982">
        <ele>17</ele>
        <time>2021-11-09T11:16:45.000Z</time>
      </trkpt>
      <trkpt lat="45.88295" lon="-1.26978">
        <ele>16.799999237061</ele>
        <time>2021-11-09T11:16:46.000Z</time>
      </trkpt>
      <trkpt lat="45.88288" lon="-1.26966">
        <ele>16.60000038147</ele>
        <time>2021-11-09T11:16:48.000Z</time>
      </trkpt>
      <trkpt lat="45.88277" lon="-1.26958">
        <ele>16.39999961853</ele>
        <time>2021-11-09T11:16:50.000Z</time>
      </trkpt>
      <trkpt lat="45.88274" lon="-1.26953">
        <ele>16.39999961853</ele>
        <time>2021-11-09T11:16:51.000Z</time>
      </trkpt>
      <trkpt lat="45.8827" lon="-1.26945">
        <ele>15.800000190735</ele>
        <time>2021-11-09T11:16:52.000Z</time>
      </trkpt>
      <trkpt lat="45.88268" lon="-1.26936">
        <ele>15.60000038147</ele>
        <time>2021-11-09T11:16:54.000Z</time>
      </trkpt>
      <trkpt lat="45.88268" lon="-1.26929">
        <ele>15.39999961853</ele>
        <time>2021-11-09T11:16:55.000Z</time>
      </trkpt>
      <trkpt lat="45.8827" lon="-1.26922">
        <ele>15.39999961853</ele>
        <time>2021-11-09T11:16:56.000Z</time>
      </trkpt>
      <trkpt lat="45.88274" lon="-1.2691">
        <ele>15.199999809265</ele>
        <time>2021-11-09T11:16:58.000Z</time>
      </trkpt>
      <trkpt lat="45.88277" lon="-1.26904">
        <ele>15.199999809265</ele>
        <time>2021-11-09T11:16:59.000Z</time>
      </trkpt>
      <trkpt lat="45.88278" lon="-1.2689">
        <ele>15.199999809265</ele>
        <time>2021-11-09T11:17:01.000Z</time>
      </trkpt>
      <trkpt lat="45.88272" lon="-1.26883">
        <ele>14.800000190735</ele>
        <time>2021-11-09T11:17:03.000Z</time>
      </trkpt>
      <trkpt lat="45.88266" lon="-1.26881">
        <ele>14.800000190735</ele>
        <time>2021-11-09T11:17:04.000Z</time>
      </trkpt>
      <trkpt lat="45.88249" lon="-1.26875">
        <ele>14.39999961853</ele>
        <time>2021-11-09T11:17:07.000Z</time>
      </trkpt>
      <trkpt lat="45.88245" lon="-1.26872">
        <ele>14.39999961853</ele>
        <time>2021-11-09T11:17:08.000Z</time>
      </trkpt>
      <trkpt lat="45.88243" lon="-1.26867">
        <ele>14.39999961853</ele>
        <time>2021-11-09T11:17:09.000Z</time>
      </trkpt>
      <trkpt lat="45.88241" lon="-1.26859">
        <ele>14.199999809265</ele>
        <time>2021-11-09T11:17:10.000Z</time>
      </trkpt>
      <trkpt lat="45.8824" lon="-1.26851">
        <ele>14.199999809265</ele>
        <time>2021-11-09T11:17:11.000Z</time>
      </trkpt>
      <trkpt lat="45.88239" lon="-1.26827">
        <ele>14.39999961853</ele>
        <time>2021-11-09T11:17:15.000Z</time>
      </trkpt>
      <trkpt lat="45.88239" lon="-1.2682">
        <ele>14.39999961853</ele>
        <time>2021-11-09T11:17:16.000Z</time>
      </trkpt>
      <trkpt lat="45.8824" lon="-1.26809">
        <ele>14.39999961853</ele>
        <time>2021-11-09T11:17:18.000Z</time>
      </trkpt>
      <trkpt lat="45.88239" lon="-1.26786">
        <ele>14.39999961853</ele>
        <time>2021-11-09T11:17:21.000Z</time>
      </trkpt>
      <trkpt lat="45.88232" lon="-1.26775">
        <ele>14.60000038147</ele>
        <time>2021-11-09T11:17:23.000Z</time>
      </trkpt>
      <trkpt lat="45.88224" lon="-1.26769">
        <ele>14.800000190735</ele>
        <time>2021-11-09T11:17:25.000Z</time>
      </trkpt>
      <trkpt lat="45.88222" lon="-1.26764">
        <ele>14.800000190735</ele>
        <time>2021-11-09T11:17:26.000Z</time>
      </trkpt>
      <trkpt lat="45.88221" lon="-1.26736">
        <ele>14.800000190735</ele>
        <time>2021-11-09T11:17:30.000Z</time>
      </trkpt>
      <trkpt lat="45.88223" lon="-1.26723">
        <ele>14.800000190735</ele>
        <time>2021-11-09T11:17:32.000Z</time>
      </trkpt>
      <trkpt lat="45.88223" lon="-1.26707">
        <ele>14.800000190735</ele>
        <time>2021-11-09T11:17:34.000Z</time>
      </trkpt>
      <trkpt lat="45.88223" lon="-1.26698">
        <ele>14.800000190735</ele>
        <time>2021-11-09T11:17:35.000Z</time>
      </trkpt>
      <trkpt lat="45.88218" lon="-1.26688">
        <ele>15</ele>
        <time>2021-11-09T11:17:37.000Z</time>
      </trkpt>
      <trkpt lat="45.88208" lon="-1.2668">
        <ele>15.199999809265</ele>
        <time>2021-11-09T11:17:39.000Z</time>
      </trkpt>
      <trkpt lat="45.88204" lon="-1.2668">
        <ele>15.39999961853</ele>
        <time>2021-11-09T11:17:40.000Z</time>
      </trkpt>
      <trkpt lat="45.88201" lon="-1.26677">
        <ele>15.60000038147</ele>
        <time>2021-11-09T11:17:41.000Z</time>
      </trkpt>
      <trkpt lat="45.88197" lon="-1.26659">
        <ele>15.800000190735</ele>
        <time>2021-11-09T11:17:45.000Z</time>
      </trkpt>
      <trkpt lat="45.88195" lon="-1.26658">
        <ele>15.800000190735</ele>
        <time>2021-11-09T11:17:46.000Z</time>
      </trkpt>
      <trkpt lat="45.88192" lon="-1.26649">
        <ele>16</ele>
        <time>2021-11-09T11:17:48.000Z</time>
      </trkpt>
      <trkpt lat="45.88197" lon="-1.26624">
        <ele>16.39999961853</ele>
        <time>2021-11-09T11:17:53.000Z</time>
      </trkpt>
      <trkpt lat="45.88196" lon="-1.2661">
        <ele>16.60000038147</ele>
        <time>2021-11-09T11:17:55.000Z</time>
      </trkpt>
      <trkpt lat="45.88194" lon="-1.26602">
        <ele>16.39999961853</ele>
        <time>2021-11-09T11:17:56.000Z</time>
      </trkpt>
      <trkpt lat="45.88183" lon="-1.26588">
        <ele>16.39999961853</ele>
        <time>2021-11-09T11:17:58.000Z</time>
      </trkpt>
      <trkpt lat="45.88171" lon="-1.26582">
        <ele>16.39999961853</ele>
        <time>2021-11-09T11:18:00.000Z</time>
      </trkpt>
      <trkpt lat="45.88166" lon="-1.26582">
        <ele>16.39999961853</ele>
        <time>2021-11-09T11:18:01.000Z</time>
      </trkpt>
      <trkpt lat="45.8816" lon="-1.26581">
        <ele>16.39999961853</ele>
        <time>2021-11-09T11:18:02.000Z</time>
      </trkpt>
      <trkpt lat="45.88148" lon="-1.26574">
        <ele>16.39999961853</ele>
        <time>2021-11-09T11:18:04.000Z</time>
      </trkpt>
      <trkpt lat="45.88136" lon="-1.26567">
        <ele>16.39999961853</ele>
        <time>2021-11-09T11:18:06.000Z</time>
      </trkpt>
      <trkpt lat="45.88127" lon="-1.26555">
        <ele>16.39999961853</ele>
        <time>2021-11-09T11:18:08.000Z</time>
      </trkpt>
      <trkpt lat="45.88125" lon="-1.26537">
        <ele>16.200000762939</ele>
        <time>2021-11-09T11:18:10.000Z</time>
      </trkpt>
      <trkpt lat="45.88125" lon="-1.26526">
        <ele>16.200000762939</ele>
        <time>2021-11-09T11:18:11.000Z</time>
      </trkpt>
      <trkpt lat="45.88125" lon="-1.26493">
        <ele>15.39999961853</ele>
        <time>2021-11-09T11:18:14.000Z</time>
      </trkpt>
      <trkpt lat="45.88124" lon="-1.26483">
        <ele>15.199999809265</ele>
        <time>2021-11-09T11:18:15.000Z</time>
      </trkpt>
      <trkpt lat="45.8812" lon="-1.26454">
        <ele>15</ele>
        <time>2021-11-09T11:18:18.000Z</time>
      </trkpt>
      <trkpt lat="45.88117" lon="-1.26448">
        <ele>15</ele>
        <time>2021-11-09T11:18:19.000Z</time>
      </trkpt>
      <trkpt lat="45.88114" lon="-1.26441">
        <ele>15</ele>
        <time>2021-11-09T11:18:20.000Z</time>
      </trkpt>
      <trkpt lat="45.88108" lon="-1.26432">
        <ele>15</ele>
        <time>2021-11-09T11:18:22.000Z</time>
      </trkpt>
      <trkpt lat="45.88098" lon="-1.26425">
        <ele>15</ele>
        <time>2021-11-09T11:18:24.000Z</time>
      </trkpt>
      <trkpt lat="45.88093" lon="-1.26424">
        <ele>14.800000190735</ele>
        <time>2021-11-09T11:18:25.000Z</time>
      </trkpt>
      <trkpt lat="45.88088" lon="-1.26423">
        <ele>14.800000190735</ele>
        <time>2021-11-09T11:18:26.000Z</time>
      </trkpt>
      <trkpt lat="45.88081" lon="-1.26426">
        <ele>14.60000038147</ele>
        <time>2021-11-09T11:18:28.000Z</time>
      </trkpt>
      <trkpt lat="45.88064" lon="-1.26434">
        <ele>14.60000038147</ele>
        <time>2021-11-09T11:18:31.000Z</time>
      </trkpt>
      <trkpt lat="45.88052" lon="-1.26431">
        <ele>14.39999961853</ele>
        <time>2021-11-09T11:18:33.000Z</time>
      </trkpt>
      <trkpt lat="45.88049" lon="-1.26426">
        <ele>14.39999961853</ele>
        <time>2021-11-09T11:18:34.000Z</time>
      </trkpt>
      <trkpt lat="45.88048" lon="-1.26422">
        <ele>14.39999961853</ele>
        <time>2021-11-09T11:18:35.000Z</time>
      </trkpt>
      <trkpt lat="45.88045" lon="-1.2641">
        <ele>14.199999809265</ele>
        <time>2021-11-09T11:18:37.000Z</time>
      </trkpt>
      <trkpt lat="45.88042" lon="-1.26405">
        <ele>14.199999809265</ele>
        <time>2021-11-09T11:18:38.000Z</time>
      </trkpt>
      <trkpt lat="45.88031" lon="-1.26388">
        <ele>14.199999809265</ele>
        <time>2021-11-09T11:18:41.000Z</time>
      </trkpt>
      <trkpt lat="45.8802" lon="-1.26383">
        <ele>14.199999809265</ele>
        <time>2021-11-09T11:18:43.000Z</time>
      </trkpt>
      <trkpt lat="45.88014" lon="-1.26383">
        <ele>14</ele>
        <time>2021-11-09T11:18:44.000Z</time>
      </trkpt>
      <trkpt lat="45.88007" lon="-1.26382">
        <ele>14</ele>
        <time>2021-11-09T11:18:45.000Z</time>
      </trkpt>
      <trkpt lat="45.87997" lon="-1.2638">
        <ele>13.60000038147</ele>
        <time>2021-11-09T11:18:47.000Z</time>
      </trkpt>
      <trkpt lat="45.8799" lon="-1.26379">
        <ele>13.60000038147</ele>
        <time>2021-11-09T11:18:48.000Z</time>
      </trkpt>
      <trkpt lat="45.87984" lon="-1.26376">
        <ele>13.60000038147</ele>
        <time>2021-11-09T11:18:49.000Z</time>
      </trkpt>
      <trkpt lat="45.87974" lon="-1.26364">
        <ele>13.39999961853</ele>
        <time>2021-11-09T11:18:51.000Z</time>
      </trkpt>
      <trkpt lat="45.87972" lon="-1.2635">
        <ele>13.39999961853</ele>
        <time>2021-11-09T11:18:53.000Z</time>
      </trkpt>
      <trkpt lat="45.87971" lon="-1.26343">
        <ele>13.39999961853</ele>
        <time>2021-11-09T11:18:54.000Z</time>
      </trkpt>
      <trkpt lat="45.87959" lon="-1.2633">
        <ele>13.199999809265</ele>
        <time>2021-11-09T11:18:57.000Z</time>
      </trkpt>
      <trkpt lat="45.87956" lon="-1.26328">
        <ele>13</ele>
        <time>2021-11-09T11:18:58.000Z</time>
      </trkpt>
      <trkpt lat="45.87948" lon="-1.26329">
        <ele>13</ele>
        <time>2021-11-09T11:19:00.000Z</time>
      </trkpt>
      <trkpt lat="45.87941" lon="-1.26325">
        <ele>13</ele>
        <time>2021-11-09T11:19:02.000Z</time>
      </trkpt>
      <trkpt lat="45.87941" lon="-1.26307">
        <ele>12.800000190735</ele>
        <time>2021-11-09T11:19:05.000Z</time>
      </trkpt>
      <trkpt lat="45.87944" lon="-1.26294">
        <ele>13</ele>
        <time>2021-11-09T11:19:07.000Z</time>
      </trkpt>
      <trkpt lat="45.87952" lon="-1.26273">
        <ele>13</ele>
        <time>2021-11-09T11:19:10.000Z</time>
      </trkpt>
      <trkpt lat="45.87956" lon="-1.26265">
        <ele>12.800000190735</ele>
        <time>2021-11-09T11:19:11.000Z</time>
      </trkpt>
      <trkpt lat="45.87969" lon="-1.26224">
        <ele>12.60000038147</ele>
        <time>2021-11-09T11:19:16.000Z</time>
      </trkpt>
      <trkpt lat="45.87974" lon="-1.26207">
        <ele>12.60000038147</ele>
        <time>2021-11-09T11:19:18.000Z</time>
      </trkpt>
      <trkpt lat="45.8798" lon="-1.26191">
        <ele>12.60000038147</ele>
        <time>2021-11-09T11:19:20.000Z</time>
      </trkpt>
      <trkpt lat="45.87981" lon="-1.26184">
        <ele>12.60000038147</ele>
        <time>2021-11-09T11:19:21.000Z</time>
      </trkpt>
      <trkpt lat="45.8798" lon="-1.26177">
        <ele>12.60000038147</ele>
        <time>2021-11-09T11:19:22.000Z</time>
      </trkpt>
      <trkpt lat="45.87973" lon="-1.26165">
        <ele>12.800000190735</ele>
        <time>2021-11-09T11:19:24.000Z</time>
      </trkpt>
      <trkpt lat="45.8795" lon="-1.26134">
        <ele>13.39999961853</ele>
        <time>2021-11-09T11:19:29.000Z</time>
      </trkpt>
      <trkpt lat="45.87939" lon="-1.2612">
        <ele>13.800000190735</ele>
        <time>2021-11-09T11:19:32.000Z</time>
      </trkpt>
      <trkpt lat="45.87921" lon="-1.26095">
        <ele>13.60000038147</ele>
        <time>2021-11-09T11:19:36.000Z</time>
      </trkpt>
      <trkpt lat="45.87892" lon="-1.26052">
        <ele>13.60000038147</ele>
        <time>2021-11-09T11:19:41.000Z</time>
      </trkpt>
      <trkpt lat="45.87881" lon="-1.26037">
        <ele>14.199999809265</ele>
        <time>2021-11-09T11:19:44.000Z</time>
      </trkpt>
      <trkpt lat="45.87874" lon="-1.26027">
        <ele>14.60000038147</ele>
        <time>2021-11-09T11:19:46.000Z</time>
      </trkpt>
      <trkpt lat="45.87858" lon="-1.26005">
        <ele>15</ele>
        <time>2021-11-09T11:19:49.000Z</time>
      </trkpt>
      <trkpt lat="45.87848" lon="-1.25996">
        <ele>15.39999961853</ele>
        <time>2021-11-09T11:19:52.000Z</time>
      </trkpt>
      <trkpt lat="45.87843" lon="-1.25985">
        <ele>15.39999961853</ele>
        <time>2021-11-09T11:19:54.000Z</time>
      </trkpt>
      <trkpt lat="45.87838" lon="-1.25971">
        <ele>15.39999961853</ele>
        <time>2021-11-09T11:19:57.000Z</time>
      </trkpt>
      <trkpt lat="45.87835" lon="-1.25965">
        <ele>15.60000038147</ele>
        <time>2021-11-09T11:19:58.000Z</time>
      </trkpt>
      <trkpt lat="45.87831" lon="-1.2596">
        <ele>15.60000038147</ele>
        <time>2021-11-09T11:19:59.000Z</time>
      </trkpt>
      <trkpt lat="45.87823" lon="-1.25947">
        <ele>15.60000038147</ele>
        <time>2021-11-09T11:20:01.000Z</time>
      </trkpt>
      <trkpt lat="45.87795" lon="-1.25905">
        <ele>15.39999961853</ele>
        <time>2021-11-09T11:20:07.000Z</time>
      </trkpt>
      <trkpt lat="45.87771" lon="-1.2587">
        <ele>14.60000038147</ele>
        <time>2021-11-09T11:20:12.000Z</time>
      </trkpt>
      <trkpt lat="45.87762" lon="-1.25857">
        <ele>14.199999809265</ele>
        <time>2021-11-09T11:20:14.000Z</time>
      </trkpt>
      <trkpt lat="45.87753" lon="-1.25844">
        <ele>13.39999961853</ele>
        <time>2021-11-09T11:20:16.000Z</time>
      </trkpt>
      <trkpt lat="45.8774" lon="-1.25825">
        <ele>12.60000038147</ele>
        <time>2021-11-09T11:20:19.000Z</time>
      </trkpt>
      <trkpt lat="45.87732" lon="-1.25812">
        <ele>12.39999961853</ele>
        <time>2021-11-09T11:20:21.000Z</time>
      </trkpt>
      <trkpt lat="45.87723" lon="-1.25799">
        <ele>11.800000190735</ele>
        <time>2021-11-09T11:20:24.000Z</time>
      </trkpt>
      <trkpt lat="45.87711" lon="-1.25781">
        <ele>11.199999809265</ele>
        <time>2021-11-09T11:20:28.000Z</time>
      </trkpt>
      <trkpt lat="45.87708" lon="-1.25776">
        <ele>11.39999961853</ele>
        <time>2021-11-09T11:20:29.000Z</time>
      </trkpt>
      <trkpt lat="45.87702" lon="-1.25769">
        <ele>11.60000038147</ele>
        <time>2021-11-09T11:20:31.000Z</time>
      </trkpt>
      <trkpt lat="45.87698" lon="-1.25762">
        <ele>11.60000038147</ele>
        <time>2021-11-09T11:20:32.000Z</time>
      </trkpt>
      <trkpt lat="45.87691" lon="-1.25752">
        <ele>11.60000038147</ele>
        <time>2021-11-09T11:20:34.000Z</time>
      </trkpt>
      <trkpt lat="45.87683" lon="-1.25743">
        <ele>11.60000038147</ele>
        <time>2021-11-09T11:20:36.000Z</time>
      </trkpt>
      <trkpt lat="45.87669" lon="-1.25723">
        <ele>11.39999961853</ele>
        <time>2021-11-09T11:20:39.000Z</time>
      </trkpt>
      <trkpt lat="45.87661" lon="-1.2571">
        <ele>11.39999961853</ele>
        <time>2021-11-09T11:20:41.000Z</time>
      </trkpt>
      <trkpt lat="45.87647" lon="-1.25686">
        <ele>11.39999961853</ele>
        <time>2021-11-09T11:20:44.000Z</time>
      </trkpt>
      <trkpt lat="45.87632" lon="-1.25662">
        <ele>12.39999961853</ele>
        <time>2021-11-09T11:20:47.000Z</time>
      </trkpt>
      <trkpt lat="45.87628" lon="-1.25658">
        <ele>12.800000190735</ele>
        <time>2021-11-09T11:20:48.000Z</time>
      </trkpt>
      <trkpt lat="45.87625" lon="-1.25658">
        <ele>12.800000190735</ele>
        <time>2021-11-09T11:20:49.000Z</time>
      </trkpt>
      <trkpt lat="45.87622" lon="-1.2566">
        <ele>13</ele>
        <time>2021-11-09T11:20:50.000Z</time>
      </trkpt>
      <trkpt lat="45.87605" lon="-1.25673">
        <ele>13</ele>
        <time>2021-11-09T11:20:55.000Z</time>
      </trkpt>
      <trkpt lat="45.87596" lon="-1.25684">
        <ele>13</ele>
        <time>2021-11-09T11:20:57.000Z</time>
      </trkpt>
      <trkpt lat="45.87591" lon="-1.2569">
        <ele>13.199999809265</ele>
        <time>2021-11-09T11:20:58.000Z</time>
      </trkpt>
      <trkpt lat="45.87568" lon="-1.25711">
        <ele>13.39999961853</ele>
        <time>2021-11-09T11:21:02.000Z</time>
      </trkpt>
      <trkpt lat="45.87562" lon="-1.25715">
        <ele>13.39999961853</ele>
        <time>2021-11-09T11:21:03.000Z</time>
      </trkpt>
      <trkpt lat="45.87539" lon="-1.2573">
        <ele>14</ele>
        <time>2021-11-09T11:21:07.000Z</time>
      </trkpt>
      <trkpt lat="45.87534" lon="-1.25732">
        <ele>13.800000190735</ele>
        <time>2021-11-09T11:21:08.000Z</time>
      </trkpt>
      <trkpt lat="45.87527" lon="-1.25734">
        <ele>13.800000190735</ele>
        <time>2021-11-09T11:21:09.000Z</time>
      </trkpt>
      <trkpt lat="45.87517" lon="-1.25727">
        <ele>13.199999809265</ele>
        <time>2021-11-09T11:21:11.000Z</time>
      </trkpt>
      <trkpt lat="45.87498" lon="-1.25695">
        <ele>13</ele>
        <time>2021-11-09T11:21:16.000Z</time>
      </trkpt>
      <trkpt lat="45.87495" lon="-1.25682">
        <ele>12.60000038147</ele>
        <time>2021-11-09T11:21:18.000Z</time>
      </trkpt>
      <trkpt lat="45.87495" lon="-1.25673">
        <ele>12.60000038147</ele>
        <time>2021-11-09T11:21:19.000Z</time>
      </trkpt>
      <trkpt lat="45.87494" lon="-1.25665">
        <ele>12.199999809265</ele>
        <time>2021-11-09T11:21:20.000Z</time>
      </trkpt>
      <trkpt lat="45.87493" lon="-1.25658">
        <ele>12</ele>
        <time>2021-11-09T11:21:21.000Z</time>
      </trkpt>
      <trkpt lat="45.87487" lon="-1.25647">
        <ele>11.800000190735</ele>
        <time>2021-11-09T11:21:23.000Z</time>
      </trkpt>
      <trkpt lat="45.87484" lon="-1.2564">
        <ele>11.60000038147</ele>
        <time>2021-11-09T11:21:24.000Z</time>
      </trkpt>
      <trkpt lat="45.87478" lon="-1.25626">
        <ele>11.39999961853</ele>
        <time>2021-11-09T11:21:26.000Z</time>
      </trkpt>
      <trkpt lat="45.87463" lon="-1.25606">
        <ele>11.199999809265</ele>
        <time>2021-11-09T11:21:29.000Z</time>
      </trkpt>
      <trkpt lat="45.87458" lon="-1.256">
        <ele>11</ele>
        <time>2021-11-09T11:21:30.000Z</time>
      </trkpt>
      <trkpt lat="45.87452" lon="-1.25596">
        <ele>11</ele>
        <time>2021-11-09T11:21:31.000Z</time>
      </trkpt>
      <trkpt lat="45.87439" lon="-1.2559">
        <ele>10.800000190735</ele>
        <time>2021-11-09T11:21:33.000Z</time>
      </trkpt>
      <trkpt lat="45.87427" lon="-1.25592">
        <ele>10.800000190735</ele>
        <time>2021-11-09T11:21:35.000Z</time>
      </trkpt>
      <trkpt lat="45.87416" lon="-1.25593">
        <ele>10.199999809265</ele>
        <time>2021-11-09T11:21:37.000Z</time>
      </trkpt>
      <trkpt lat="45.87407" lon="-1.25589">
        <ele>9.8000001907349</ele>
        <time>2021-11-09T11:21:39.000Z</time>
      </trkpt>
      <trkpt lat="45.87402" lon="-1.25587">
        <ele>9.8000001907349</ele>
        <time>2021-11-09T11:21:40.000Z</time>
      </trkpt>
      <trkpt lat="45.87396" lon="-1.25586">
        <ele>9.3999996185303</ele>
        <time>2021-11-09T11:21:41.000Z</time>
      </trkpt>
      <trkpt lat="45.87391" lon="-1.25585">
        <ele>9.3999996185303</ele>
        <time>2021-11-09T11:21:42.000Z</time>
      </trkpt>
      <trkpt lat="45.87382" lon="-1.25577">
        <ele>9.1999998092651</ele>
        <time>2021-11-09T11:21:44.000Z</time>
      </trkpt>
      <trkpt lat="45.87378" lon="-1.25555">
        <ele>9</ele>
        <time>2021-11-09T11:21:47.000Z</time>
      </trkpt>
      <trkpt lat="45.87372" lon="-1.2555">
        <ele>9</ele>
        <time>2021-11-09T11:21:49.000Z</time>
      </trkpt>
      <trkpt lat="45.87358" lon="-1.25561">
        <ele>9.3999996185303</ele>
        <time>2021-11-09T11:21:53.000Z</time>
      </trkpt>
      <trkpt lat="45.87343" lon="-1.2557">
        <ele>9.3999996185303</ele>
        <time>2021-11-09T11:21:56.000Z</time>
      </trkpt>
      <trkpt lat="45.87331" lon="-1.25576">
        <ele>9.1999998092651</ele>
        <time>2021-11-09T11:21:58.000Z</time>
      </trkpt>
      <trkpt lat="45.87325" lon="-1.25579">
        <ele>9.6000003814697</ele>
        <time>2021-11-09T11:21:59.000Z</time>
      </trkpt>
      <trkpt lat="45.87318" lon="-1.25591">
        <ele>9.6000003814697</ele>
        <time>2021-11-09T11:22:01.000Z</time>
      </trkpt>
      <trkpt lat="45.87306" lon="-1.25613">
        <ele>10</ele>
        <time>2021-11-09T11:22:05.000Z</time>
      </trkpt>
      <trkpt lat="45.87295" lon="-1.25617">
        <ele>10.199999809265</ele>
        <time>2021-11-09T11:22:07.000Z</time>
      </trkpt>
      <trkpt lat="45.8729" lon="-1.25617">
        <ele>10.199999809265</ele>
        <time>2021-11-09T11:22:08.000Z</time>
      </trkpt>
      <trkpt lat="45.87284" lon="-1.25618">
        <ele>10.39999961853</ele>
        <time>2021-11-09T11:22:09.000Z</time>
      </trkpt>
      <trkpt lat="45.87271" lon="-1.25623">
        <ele>10.60000038147</ele>
        <time>2021-11-09T11:22:11.000Z</time>
      </trkpt>
      <trkpt lat="45.87265" lon="-1.25627">
        <ele>10.60000038147</ele>
        <time>2021-11-09T11:22:12.000Z</time>
      </trkpt>
      <trkpt lat="45.87254" lon="-1.25635">
        <ele>11</ele>
        <time>2021-11-09T11:22:14.000Z</time>
      </trkpt>
      <trkpt lat="45.87243" lon="-1.25637">
        <ele>11.39999961853</ele>
        <time>2021-11-09T11:22:16.000Z</time>
      </trkpt>
      <trkpt lat="45.87238" lon="-1.25638">
        <ele>11.60000038147</ele>
        <time>2021-11-09T11:22:17.000Z</time>
      </trkpt>
      <trkpt lat="45.87219" lon="-1.25645">
        <ele>11.60000038147</ele>
        <time>2021-11-09T11:22:20.000Z</time>
      </trkpt>
      <trkpt lat="45.87204" lon="-1.25649">
        <ele>11.60000038147</ele>
        <time>2021-11-09T11:22:22.000Z</time>
      </trkpt>
      <trkpt lat="45.87191" lon="-1.25654">
        <ele>11.60000038147</ele>
        <time>2021-11-09T11:22:24.000Z</time>
      </trkpt>
      <trkpt lat="45.87176" lon="-1.25651">
        <ele>12</ele>
        <time>2021-11-09T11:22:27.000Z</time>
      </trkpt>
      <trkpt lat="45.87152" lon="-1.25652">
        <ele>12.60000038147</ele>
        <time>2021-11-09T11:22:31.000Z</time>
      </trkpt>
      <trkpt lat="45.8714" lon="-1.25654">
        <ele>12.800000190735</ele>
        <time>2021-11-09T11:22:33.000Z</time>
      </trkpt>
      <trkpt lat="45.8713" lon="-1.25655">
        <ele>13.199999809265</ele>
        <time>2021-11-09T11:22:35.000Z</time>
      </trkpt>
      <trkpt lat="45.87116" lon="-1.25648">
        <ele>13.39999961853</ele>
        <time>2021-11-09T11:22:39.000Z</time>
      </trkpt>
      <trkpt lat="45.87105" lon="-1.25624">
        <ele>13.199999809265</ele>
        <time>2021-11-09T11:22:43.000Z</time>
      </trkpt>
      <trkpt lat="45.87097" lon="-1.25594">
        <ele>13</ele>
        <time>2021-11-09T11:22:47.000Z</time>
      </trkpt>
      <trkpt lat="45.87097" lon="-1.2557">
        <ele>13</ele>
        <time>2021-11-09T11:22:50.000Z</time>
      </trkpt>
      <trkpt lat="45.871" lon="-1.25549">
        <ele>12.60000038147</ele>
        <time>2021-11-09T11:22:52.000Z</time>
      </trkpt>
      <trkpt lat="45.87112" lon="-1.25515">
        <ele>12.39999961853</ele>
        <time>2021-11-09T11:22:56.000Z</time>
      </trkpt>
      <trkpt lat="45.87122" lon="-1.25485">
        <ele>12.199999809265</ele>
        <time>2021-11-09T11:23:00.000Z</time>
      </trkpt>
      <trkpt lat="45.87124" lon="-1.25476">
        <ele>12.199999809265</ele>
        <time>2021-11-09T11:23:01.000Z</time>
      </trkpt>
      <trkpt lat="45.87125" lon="-1.25468">
        <ele>12.199999809265</ele>
        <time>2021-11-09T11:23:02.000Z</time>
      </trkpt>
      <trkpt lat="45.87125" lon="-1.25442">
        <ele>12.199999809265</ele>
        <time>2021-11-09T11:23:05.000Z</time>
      </trkpt>
      <trkpt lat="45.87128" lon="-1.25424">
        <ele>12.199999809265</ele>
        <time>2021-11-09T11:23:07.000Z</time>
      </trkpt>
      <trkpt lat="45.87132" lon="-1.25404">
        <ele>12.39999961853</ele>
        <time>2021-11-09T11:23:09.000Z</time>
      </trkpt>
      <trkpt lat="45.87134" lon="-1.25385">
        <ele>12.60000038147</ele>
        <time>2021-11-09T11:23:11.000Z</time>
      </trkpt>
      <trkpt lat="45.87135" lon="-1.25367">
        <ele>12.800000190735</ele>
        <time>2021-11-09T11:23:13.000Z</time>
      </trkpt>
      <trkpt lat="45.87136" lon="-1.25309">
        <ele>13.199999809265</ele>
        <time>2021-11-09T11:23:19.000Z</time>
      </trkpt>
      <trkpt lat="45.87134" lon="-1.25291">
        <ele>13.199999809265</ele>
        <time>2021-11-09T11:23:21.000Z</time>
      </trkpt>
      <trkpt lat="45.87133" lon="-1.25273">
        <ele>13</ele>
        <time>2021-11-09T11:23:23.000Z</time>
      </trkpt>
      <trkpt lat="45.87131" lon="-1.25255">
        <ele>13</ele>
        <time>2021-11-09T11:23:25.000Z</time>
      </trkpt>
      <trkpt lat="45.87129" lon="-1.25236">
        <ele>13</ele>
        <time>2021-11-09T11:23:27.000Z</time>
      </trkpt>
      <trkpt lat="45.87127" lon="-1.25228">
        <ele>13</ele>
        <time>2021-11-09T11:23:28.000Z</time>
      </trkpt>
      <trkpt lat="45.87125" lon="-1.2522">
        <ele>12.800000190735</ele>
        <time>2021-11-09T11:23:29.000Z</time>
      </trkpt>
      <trkpt lat="45.87125" lon="-1.25204">
        <ele>12.800000190735</ele>
        <time>2021-11-09T11:23:31.000Z</time>
      </trkpt>
      <trkpt lat="45.87128" lon="-1.25187">
        <ele>13</ele>
        <time>2021-11-09T11:23:33.000Z</time>
      </trkpt>
      <trkpt lat="45.87132" lon="-1.2517">
        <ele>13.60000038147</ele>
        <time>2021-11-09T11:23:35.000Z</time>
      </trkpt>
      <trkpt lat="45.87133" lon="-1.25162">
        <ele>14</ele>
        <time>2021-11-09T11:23:36.000Z</time>
      </trkpt>
      <trkpt lat="45.87134" lon="-1.25138">
        <ele>14</ele>
        <time>2021-11-09T11:23:39.000Z</time>
      </trkpt>
      <trkpt lat="45.87133" lon="-1.25132">
        <ele>14.199999809265</ele>
        <time>2021-11-09T11:23:40.000Z</time>
      </trkpt>
      <trkpt lat="45.8713" lon="-1.25125">
        <ele>14.199999809265</ele>
        <time>2021-11-09T11:23:42.000Z</time>
      </trkpt>
      <trkpt lat="45.87127" lon="-1.25125">
        <ele>14.39999961853</ele>
        <time>2021-11-09T11:23:43.000Z</time>
      </trkpt>
      <trkpt lat="45.87124" lon="-1.25126">
        <ele>14.60000038147</ele>
        <time>2021-11-09T11:23:44.000Z</time>
      </trkpt>
      <trkpt lat="45.87122" lon="-1.25129">
        <ele>14.60000038147</ele>
        <time>2021-11-09T11:23:45.000Z</time>
      </trkpt>
      <trkpt lat="45.87118" lon="-1.25131">
        <ele>14.60000038147</ele>
        <time>2021-11-09T11:23:46.000Z</time>
      </trkpt>
      <trkpt lat="45.87096" lon="-1.25144">
        <ele>14.60000038147</ele>
        <time>2021-11-09T11:23:51.000Z</time>
      </trkpt>
      <trkpt lat="45.87065" lon="-1.25171">
        <ele>14.800000190735</ele>
        <time>2021-11-09T11:23:57.000Z</time>
      </trkpt>
      <trkpt lat="45.87035" lon="-1.25201">
        <ele>14.60000038147</ele>
        <time>2021-11-09T11:24:03.000Z</time>
      </trkpt>
      <trkpt lat="45.87031" lon="-1.25203">
        <ele>14.60000038147</ele>
        <time>2021-11-09T11:24:04.000Z</time>
      </trkpt>
      <trkpt lat="45.87023" lon="-1.25205">
        <ele>14.60000038147</ele>
        <time>2021-11-09T11:24:06.000Z</time>
      </trkpt>
      <trkpt lat="45.87013" lon="-1.25208">
        <ele>14.39999961853</ele>
        <time>2021-11-09T11:24:08.000Z</time>
      </trkpt>
      <trkpt lat="45.87005" lon="-1.25215">
        <ele>15.199999809265</ele>
        <time>2021-11-09T11:24:10.000Z</time>
      </trkpt>
      <trkpt lat="45.86987" lon="-1.25233">
        <ele>15.199999809265</ele>
        <time>2021-11-09T11:24:14.000Z</time>
      </trkpt>
      <trkpt lat="45.86976" lon="-1.25243">
        <ele>15</ele>
        <time>2021-11-09T11:24:16.000Z</time>
      </trkpt>
      <trkpt lat="45.86953" lon="-1.25262">
        <ele>14.39999961853</ele>
        <time>2021-11-09T11:24:20.000Z</time>
      </trkpt>
      <trkpt lat="45.86941" lon="-1.25271">
        <ele>14.199999809265</ele>
        <time>2021-11-09T11:24:22.000Z</time>
      </trkpt>
      <trkpt lat="45.86915" lon="-1.2529">
        <ele>13.60000038147</ele>
        <time>2021-11-09T11:24:26.000Z</time>
      </trkpt>
      <trkpt lat="45.86909" lon="-1.25294">
        <ele>13.199999809265</ele>
        <time>2021-11-09T11:24:27.000Z</time>
      </trkpt>
      <trkpt lat="45.86902" lon="-1.25297">
        <ele>13</ele>
        <time>2021-11-09T11:24:28.000Z</time>
      </trkpt>
      <trkpt lat="45.86889" lon="-1.25304">
        <ele>12.800000190735</ele>
        <time>2021-11-09T11:24:30.000Z</time>
      </trkpt>
      <trkpt lat="45.86864" lon="-1.25313">
        <ele>12.800000190735</ele>
        <time>2021-11-09T11:24:34.000Z</time>
      </trkpt>
      <trkpt lat="45.86859" lon="-1.25318">
        <ele>12.800000190735</ele>
        <time>2021-11-09T11:24:35.000Z</time>
      </trkpt>
      <trkpt lat="45.86842" lon="-1.25331">
        <ele>12.800000190735</ele>
        <time>2021-11-09T11:24:38.000Z</time>
      </trkpt>
      <trkpt lat="45.86836" lon="-1.25334">
        <ele>12.800000190735</ele>
        <time>2021-11-09T11:24:39.000Z</time>
      </trkpt>
      <trkpt lat="45.8683" lon="-1.25336">
        <ele>13</ele>
        <time>2021-11-09T11:24:40.000Z</time>
      </trkpt>
      <trkpt lat="45.86812" lon="-1.25339">
        <ele>12.800000190735</ele>
        <time>2021-11-09T11:24:43.000Z</time>
      </trkpt>
      <trkpt lat="45.86799" lon="-1.25341">
        <ele>13</ele>
        <time>2021-11-09T11:24:45.000Z</time>
      </trkpt>
      <trkpt lat="45.86781" lon="-1.25346">
        <ele>13</ele>
        <time>2021-11-09T11:24:48.000Z</time>
      </trkpt>
      <trkpt lat="45.8677" lon="-1.25354">
        <ele>13</ele>
        <time>2021-11-09T11:24:50.000Z</time>
      </trkpt>
      <trkpt lat="45.86753" lon="-1.25367">
        <ele>13.199999809265</ele>
        <time>2021-11-09T11:24:53.000Z</time>
      </trkpt>
      <trkpt lat="45.86724" lon="-1.2538">
        <ele>13.60000038147</ele>
        <time>2021-11-09T11:24:58.000Z</time>
      </trkpt>
      <trkpt lat="45.86708" lon="-1.25389">
        <ele>13.800000190735</ele>
        <time>2021-11-09T11:25:01.000Z</time>
      </trkpt>
      <trkpt lat="45.86698" lon="-1.25391">
        <ele>14</ele>
        <time>2021-11-09T11:25:03.000Z</time>
      </trkpt>
      <trkpt lat="45.86663" lon="-1.25403">
        <ele>13.800000190735</ele>
        <time>2021-11-09T11:25:09.000Z</time>
      </trkpt>
      <trkpt lat="45.86652" lon="-1.25406">
        <ele>13.800000190735</ele>
        <time>2021-11-09T11:25:11.000Z</time>
      </trkpt>
      <trkpt lat="45.86634" lon="-1.25407">
        <ele>13.39999961853</ele>
        <time>2021-11-09T11:25:14.000Z</time>
      </trkpt>
      <trkpt lat="45.8663" lon="-1.25411">
        <ele>13.39999961853</ele>
        <time>2021-11-09T11:25:15.000Z</time>
      </trkpt>
      <trkpt lat="45.86622" lon="-1.25431">
        <ele>13.199999809265</ele>
        <time>2021-11-09T11:25:18.000Z</time>
      </trkpt>
      <trkpt lat="45.86616" lon="-1.25441">
        <ele>13.199999809265</ele>
        <time>2021-11-09T11:25:20.000Z</time>
      </trkpt>
      <trkpt lat="45.86603" lon="-1.25446">
        <ele>13.199999809265</ele>
        <time>2021-11-09T11:25:24.000Z</time>
      </trkpt>
      <trkpt lat="45.86594" lon="-1.25443">
        <ele>13.199999809265</ele>
        <time>2021-11-09T11:25:26.000Z</time>
      </trkpt>
      <trkpt lat="45.86584" lon="-1.25442">
        <ele>13</ele>
        <time>2021-11-09T11:25:28.000Z</time>
      </trkpt>
      <trkpt lat="45.86565" lon="-1.25439">
        <ele>12.60000038147</ele>
        <time>2021-11-09T11:25:31.000Z</time>
      </trkpt>
      <trkpt lat="45.86559" lon="-1.25437">
        <ele>12.60000038147</ele>
        <time>2021-11-09T11:25:32.000Z</time>
      </trkpt>
      <trkpt lat="45.86554" lon="-1.25434">
        <ele>12.39999961853</ele>
        <time>2021-11-09T11:25:33.000Z</time>
      </trkpt>
      <trkpt lat="45.86544" lon="-1.25426">
        <ele>12.39999961853</ele>
        <time>2021-11-09T11:25:35.000Z</time>
      </trkpt>
      <trkpt lat="45.86538" lon="-1.25422">
        <ele>12.39999961853</ele>
        <time>2021-11-09T11:25:36.000Z</time>
      </trkpt>
      <trkpt lat="45.86528" lon="-1.25416">
        <ele>12.39999961853</ele>
        <time>2021-11-09T11:25:38.000Z</time>
      </trkpt>
      <trkpt lat="45.86513" lon="-1.25402">
        <ele>12.60000038147</ele>
        <time>2021-11-09T11:25:41.000Z</time>
      </trkpt>
      <trkpt lat="45.86504" lon="-1.25384">
        <ele>12.800000190735</ele>
        <time>2021-11-09T11:25:44.000Z</time>
      </trkpt>
      <trkpt lat="45.86499" lon="-1.2538">
        <ele>12.800000190735</ele>
        <time>2021-11-09T11:25:45.000Z</time>
      </trkpt>
      <trkpt lat="45.86495" lon="-1.25376">
        <ele>13</ele>
        <time>2021-11-09T11:25:46.000Z</time>
      </trkpt>
      <trkpt lat="45.86479" lon="-1.25362">
        <ele>12.60000038147</ele>
        <time>2021-11-09T11:25:50.000Z</time>
      </trkpt>
      <trkpt lat="45.86474" lon="-1.25358">
        <ele>12.60000038147</ele>
        <time>2021-11-09T11:25:51.000Z</time>
      </trkpt>
      <trkpt lat="45.86464" lon="-1.25346">
        <ele>12.39999961853</ele>
        <time>2021-11-09T11:25:54.000Z</time>
      </trkpt>
      <trkpt lat="45.86443" lon="-1.25337">
        <ele>12.39999961853</ele>
        <time>2021-11-09T11:25:58.000Z</time>
      </trkpt>
      <trkpt lat="45.86438" lon="-1.25334">
        <ele>12.39999961853</ele>
        <time>2021-11-09T11:25:59.000Z</time>
      </trkpt>
      <trkpt lat="45.86427" lon="-1.25334">
        <ele>12.39999961853</ele>
        <time>2021-11-09T11:26:01.000Z</time>
      </trkpt>
      <trkpt lat="45.86414" lon="-1.25333">
        <ele>12.199999809265</ele>
        <time>2021-11-09T11:26:03.000Z</time>
      </trkpt>
      <trkpt lat="45.86409" lon="-1.25331">
        <ele>12.199999809265</ele>
        <time>2021-11-09T11:26:04.000Z</time>
      </trkpt>
      <trkpt lat="45.86404" lon="-1.25326">
        <ele>12.39999961853</ele>
        <time>2021-11-09T11:26:05.000Z</time>
      </trkpt>
      <trkpt lat="45.86397" lon="-1.25319">
        <ele>12.60000038147</ele>
        <time>2021-11-09T11:26:07.000Z</time>
      </trkpt>
      <trkpt lat="45.86391" lon="-1.25315">
        <ele>12.60000038147</ele>
        <time>2021-11-09T11:26:09.000Z</time>
      </trkpt>
      <trkpt lat="45.86381" lon="-1.25307">
        <ele>12.800000190735</ele>
        <time>2021-11-09T11:26:12.000Z</time>
      </trkpt>
      <trkpt lat="45.86366" lon="-1.253">
        <ele>13</ele>
        <time>2021-11-09T11:26:16.000Z</time>
      </trkpt>
      <trkpt lat="45.86361" lon="-1.25299">
        <ele>13</ele>
        <time>2021-11-09T11:26:17.000Z</time>
      </trkpt>
      <trkpt lat="45.86352" lon="-1.25295">
        <ele>12.800000190735</ele>
        <time>2021-11-09T11:26:19.000Z</time>
      </trkpt>
      <trkpt lat="45.86325" lon="-1.25285">
        <ele>12.60000038147</ele>
        <time>2021-11-09T11:26:23.000Z</time>
      </trkpt>
      <trkpt lat="45.86313" lon="-1.25279">
        <ele>12.39999961853</ele>
        <time>2021-11-09T11:26:25.000Z</time>
      </trkpt>
      <trkpt lat="45.86302" lon="-1.25273">
        <ele>12.39999961853</ele>
        <time>2021-11-09T11:26:27.000Z</time>
      </trkpt>
      <trkpt lat="45.86297" lon="-1.25269">
        <ele>12.39999961853</ele>
        <time>2021-11-09T11:26:28.000Z</time>
      </trkpt>
      <trkpt lat="45.86287" lon="-1.2526">
        <ele>12.199999809265</ele>
        <time>2021-11-09T11:26:30.000Z</time>
      </trkpt>
      <trkpt lat="45.86279" lon="-1.25249">
        <ele>12.199999809265</ele>
        <time>2021-11-09T11:26:32.000Z</time>
      </trkpt>
      <trkpt lat="45.86268" lon="-1.25244">
        <ele>12.199999809265</ele>
        <time>2021-11-09T11:26:34.000Z</time>
      </trkpt>
      <trkpt lat="45.86256" lon="-1.25243">
        <ele>12.199999809265</ele>
        <time>2021-11-09T11:26:36.000Z</time>
      </trkpt>
      <trkpt lat="45.86252" lon="-1.25241">
        <ele>12.199999809265</ele>
        <time>2021-11-09T11:26:37.000Z</time>
      </trkpt>
      <trkpt lat="45.86234" lon="-1.25231">
        <ele>12.199999809265</ele>
        <time>2021-11-09T11:26:41.000Z</time>
      </trkpt>
      <trkpt lat="45.86229" lon="-1.25227">
        <ele>12.199999809265</ele>
        <time>2021-11-09T11:26:42.000Z</time>
      </trkpt>
      <trkpt lat="45.86211" lon="-1.25214">
        <ele>12.60000038147</ele>
        <time>2021-11-09T11:26:45.000Z</time>
      </trkpt>
      <trkpt lat="45.86204" lon="-1.2521">
        <ele>12.60000038147</ele>
        <time>2021-11-09T11:26:46.000Z</time>
      </trkpt>
      <trkpt lat="45.86193" lon="-1.25202">
        <ele>12.800000190735</ele>
        <time>2021-11-09T11:26:48.000Z</time>
      </trkpt>
      <trkpt lat="45.86186" lon="-1.25198">
        <ele>12.800000190735</ele>
        <time>2021-11-09T11:26:49.000Z</time>
      </trkpt>
      <trkpt lat="45.86161" lon="-1.25184">
        <ele>12.800000190735</ele>
        <time>2021-11-09T11:26:53.000Z</time>
      </trkpt>
      <trkpt lat="45.86156" lon="-1.2518">
        <ele>12.800000190735</ele>
        <time>2021-11-09T11:26:54.000Z</time>
      </trkpt>
      <trkpt lat="45.86152" lon="-1.25174">
        <ele>12.800000190735</ele>
        <time>2021-11-09T11:26:55.000Z</time>
      </trkpt>
      <trkpt lat="45.86141" lon="-1.25151">
        <ele>12.60000038147</ele>
        <time>2021-11-09T11:26:58.000Z</time>
      </trkpt>
      <trkpt lat="45.86115" lon="-1.25106">
        <ele>12</ele>
        <time>2021-11-09T11:27:05.000Z</time>
      </trkpt>
      <trkpt lat="45.86105" lon="-1.2507">
        <ele>12.199999809265</ele>
        <time>2021-11-09T11:27:09.000Z</time>
      </trkpt>
      <trkpt lat="45.86095" lon="-1.25034">
        <ele>11.60000038147</ele>
        <time>2021-11-09T11:27:13.000Z</time>
      </trkpt>
      <trkpt lat="45.86088" lon="-1.25005">
        <ele>11.39999961853</ele>
        <time>2021-11-09T11:27:16.000Z</time>
      </trkpt>
      <trkpt lat="45.86078" lon="-1.24992">
        <ele>11</ele>
        <time>2021-11-09T11:27:18.000Z</time>
      </trkpt>
      <trkpt lat="45.86058" lon="-1.24971">
        <ele>10.800000190735</ele>
        <time>2021-11-09T11:27:22.000Z</time>
      </trkpt>
      <trkpt lat="45.86043" lon="-1.24939">
        <ele>10.60000038147</ele>
        <time>2021-11-09T11:27:26.000Z</time>
      </trkpt>
      <trkpt lat="45.86039" lon="-1.24931">
        <ele>10.39999961853</ele>
        <time>2021-11-09T11:27:27.000Z</time>
      </trkpt>
      <trkpt lat="45.86032" lon="-1.24916">
        <ele>10.39999961853</ele>
        <time>2021-11-09T11:27:29.000Z</time>
      </trkpt>
      <trkpt lat="45.86024" lon="-1.24902">
        <ele>10</ele>
        <time>2021-11-09T11:27:31.000Z</time>
      </trkpt>
      <trkpt lat="45.86019" lon="-1.24897">
        <ele>10</ele>
        <time>2021-11-09T11:27:32.000Z</time>
      </trkpt>
      <trkpt lat="45.86014" lon="-1.24892">
        <ele>9.6000003814697</ele>
        <time>2021-11-09T11:27:33.000Z</time>
      </trkpt>
      <trkpt lat="45.86008" lon="-1.24889">
        <ele>9.6000003814697</ele>
        <time>2021-11-09T11:27:34.000Z</time>
      </trkpt>
      <trkpt lat="45.86002" lon="-1.24887">
        <ele>9.3999996185303</ele>
        <time>2021-11-09T11:27:35.000Z</time>
      </trkpt>
      <trkpt lat="45.85996" lon="-1.24887">
        <ele>9.3999996185303</ele>
        <time>2021-11-09T11:27:36.000Z</time>
      </trkpt>
      <trkpt lat="45.8599" lon="-1.24888">
        <ele>9.3999996185303</ele>
        <time>2021-11-09T11:27:37.000Z</time>
      </trkpt>
      <trkpt lat="45.85979" lon="-1.24895">
        <ele>9.1999998092651</ele>
        <time>2021-11-09T11:27:39.000Z</time>
      </trkpt>
      <trkpt lat="45.85973" lon="-1.24896">
        <ele>9.1999998092651</ele>
        <time>2021-11-09T11:27:40.000Z</time>
      </trkpt>
      <trkpt lat="45.85965" lon="-1.2489">
        <ele>9.1999998092651</ele>
        <time>2021-11-09T11:27:42.000Z</time>
      </trkpt>
      <trkpt lat="45.85943" lon="-1.24865">
        <ele>8.8000001907349</ele>
        <time>2021-11-09T11:27:47.000Z</time>
      </trkpt>
      <trkpt lat="45.85939" lon="-1.24862">
        <ele>8.6000003814697</ele>
        <time>2021-11-09T11:27:48.000Z</time>
      </trkpt>
      <trkpt lat="45.85934" lon="-1.24858">
        <ele>8.8000001907349</ele>
        <time>2021-11-09T11:27:49.000Z</time>
      </trkpt>
      <trkpt lat="45.85923" lon="-1.2485">
        <ele>8.8000001907349</ele>
        <time>2021-11-09T11:27:52.000Z</time>
      </trkpt>
      <trkpt lat="45.85901" lon="-1.24832">
        <ele>9</ele>
        <time>2021-11-09T11:27:56.000Z</time>
      </trkpt>
      <trkpt lat="45.85892" lon="-1.24822">
        <ele>9</ele>
        <time>2021-11-09T11:27:58.000Z</time>
      </trkpt>
      <trkpt lat="45.85888" lon="-1.24816">
        <ele>9.1999998092651</ele>
        <time>2021-11-09T11:27:59.000Z</time>
      </trkpt>
      <trkpt lat="45.85883" lon="-1.24811">
        <ele>9.3999996185303</ele>
        <time>2021-11-09T11:28:00.000Z</time>
      </trkpt>
      <trkpt lat="45.85871" lon="-1.24809">
        <ele>9.6000003814697</ele>
        <time>2021-11-09T11:28:02.000Z</time>
      </trkpt>
      <trkpt lat="45.85857" lon="-1.24799">
        <ele>9.6000003814697</ele>
        <time>2021-11-09T11:28:05.000Z</time>
      </trkpt>
      <trkpt lat="45.85831" lon="-1.24776">
        <ele>10.199999809265</ele>
        <time>2021-11-09T11:28:10.000Z</time>
      </trkpt>
      <trkpt lat="45.85822" lon="-1.24761">
        <ele>10.39999961853</ele>
        <time>2021-11-09T11:28:12.000Z</time>
      </trkpt>
      <trkpt lat="45.85817" lon="-1.24755">
        <ele>10.39999961853</ele>
        <time>2021-11-09T11:28:13.000Z</time>
      </trkpt>
      <trkpt lat="45.85802" lon="-1.24737">
        <ele>10.60000038147</ele>
        <time>2021-11-09T11:28:16.000Z</time>
      </trkpt>
      <trkpt lat="45.85787" lon="-1.24722">
        <ele>10.800000190735</ele>
        <time>2021-11-09T11:28:19.000Z</time>
      </trkpt>
      <trkpt lat="45.8578" lon="-1.24708">
        <ele>10.800000190735</ele>
        <time>2021-11-09T11:28:21.000Z</time>
      </trkpt>
      <trkpt lat="45.85776" lon="-1.24694">
        <ele>10.800000190735</ele>
        <time>2021-11-09T11:28:23.000Z</time>
      </trkpt>
      <trkpt lat="45.85775" lon="-1.24684">
        <ele>10.800000190735</ele>
        <time>2021-11-09T11:28:24.000Z</time>
      </trkpt>
      <trkpt lat="45.85775" lon="-1.24675">
        <ele>11</ele>
        <time>2021-11-09T11:28:25.000Z</time>
      </trkpt>
      <trkpt lat="45.8577" lon="-1.24662">
        <ele>11.199999809265</ele>
        <time>2021-11-09T11:28:27.000Z</time>
      </trkpt>
      <trkpt lat="45.85759" lon="-1.24654">
        <ele>11.60000038147</ele>
        <time>2021-11-09T11:28:29.000Z</time>
      </trkpt>
      <trkpt lat="45.85752" lon="-1.24651">
        <ele>11.800000190735</ele>
        <time>2021-11-09T11:28:30.000Z</time>
      </trkpt>
      <trkpt lat="45.85746" lon="-1.24649">
        <ele>11.800000190735</ele>
        <time>2021-11-09T11:28:31.000Z</time>
      </trkpt>
      <trkpt lat="45.85729" lon="-1.24638">
        <ele>12</ele>
        <time>2021-11-09T11:28:34.000Z</time>
      </trkpt>
      <trkpt lat="45.85718" lon="-1.2463">
        <ele>12</ele>
        <time>2021-11-09T11:28:36.000Z</time>
      </trkpt>
      <trkpt lat="45.85703" lon="-1.24617">
        <ele>12.199999809265</ele>
        <time>2021-11-09T11:28:39.000Z</time>
      </trkpt>
      <trkpt lat="45.85691" lon="-1.24607">
        <ele>12.39999961853</ele>
        <time>2021-11-09T11:28:41.000Z</time>
      </trkpt>
      <trkpt lat="45.85656" lon="-1.24588">
        <ele>12.800000190735</ele>
        <time>2021-11-09T11:28:47.000Z</time>
      </trkpt>
      <trkpt lat="45.85652" lon="-1.24586">
        <ele>13</ele>
        <time>2021-11-09T11:28:48.000Z</time>
      </trkpt>
      <trkpt lat="45.85642" lon="-1.24578">
        <ele>13</ele>
        <time>2021-11-09T11:28:50.000Z</time>
      </trkpt>
      <trkpt lat="45.85633" lon="-1.24567">
        <ele>13</ele>
        <time>2021-11-09T11:28:52.000Z</time>
      </trkpt>
      <trkpt lat="45.85626" lon="-1.24555">
        <ele>13</ele>
        <time>2021-11-09T11:28:54.000Z</time>
      </trkpt>
      <trkpt lat="45.85618" lon="-1.24537">
        <ele>13.199999809265</ele>
        <time>2021-11-09T11:28:57.000Z</time>
      </trkpt>
      <trkpt lat="45.85614" lon="-1.24532">
        <ele>13.199999809265</ele>
        <time>2021-11-09T11:28:58.000Z</time>
      </trkpt>
      <trkpt lat="45.85601" lon="-1.24515">
        <ele>13.199999809265</ele>
        <time>2021-11-09T11:29:01.000Z</time>
      </trkpt>
      <trkpt lat="45.856" lon="-1.24503">
        <ele>13.199999809265</ele>
        <time>2021-11-09T11:29:03.000Z</time>
      </trkpt>
      <trkpt lat="45.856" lon="-1.24498">
        <ele>13.199999809265</ele>
        <time>2021-11-09T11:29:04.000Z</time>
      </trkpt>
      <trkpt lat="45.85599" lon="-1.24484">
        <ele>13.39999961853</ele>
        <time>2021-11-09T11:29:06.000Z</time>
      </trkpt>
      <trkpt lat="45.85597" lon="-1.24472">
        <ele>13.39999961853</ele>
        <time>2021-11-09T11:29:08.000Z</time>
      </trkpt>
      <trkpt lat="45.85598" lon="-1.24468">
        <ele>13.39999961853</ele>
        <time>2021-11-09T11:29:09.000Z</time>
      </trkpt>
      <trkpt lat="45.85601" lon="-1.24462">
        <ele>13.39999961853</ele>
        <time>2021-11-09T11:29:10.000Z</time>
      </trkpt>
      <trkpt lat="45.85606" lon="-1.24446">
        <ele>13.39999961853</ele>
        <time>2021-11-09T11:29:13.000Z</time>
      </trkpt>
      <trkpt lat="45.85608" lon="-1.24441">
        <ele>13.199999809265</ele>
        <time>2021-11-09T11:29:14.000Z</time>
      </trkpt>
      <trkpt lat="45.85608" lon="-1.24434">
        <ele>13.199999809265</ele>
        <time>2021-11-09T11:29:15.000Z</time>
      </trkpt>
      <trkpt lat="45.85606" lon="-1.24428">
        <ele>13.199999809265</ele>
        <time>2021-11-09T11:29:16.000Z</time>
      </trkpt>
      <trkpt lat="45.85591" lon="-1.24414">
        <ele>13</ele>
        <time>2021-11-09T11:29:20.000Z</time>
      </trkpt>
      <trkpt lat="45.85566" lon="-1.24396">
        <ele>12.39999961853</ele>
        <time>2021-11-09T11:29:26.000Z</time>
      </trkpt>
      <trkpt lat="45.85552" lon="-1.24378">
        <ele>12.39999961853</ele>
        <time>2021-11-09T11:29:29.000Z</time>
      </trkpt>
      <trkpt lat="45.85546" lon="-1.24374">
        <ele>12.199999809265</ele>
        <time>2021-11-09T11:29:30.000Z</time>
      </trkpt>
      <trkpt lat="45.85522" lon="-1.24356">
        <ele>12.199999809265</ele>
        <time>2021-11-09T11:29:34.000Z</time>
      </trkpt>
      <trkpt lat="45.85516" lon="-1.24353">
        <ele>12.60000038147</ele>
        <time>2021-11-09T11:29:35.000Z</time>
      </trkpt>
      <trkpt lat="45.85505" lon="-1.24347">
        <ele>12.800000190735</ele>
        <time>2021-11-09T11:29:37.000Z</time>
      </trkpt>
      <trkpt lat="45.85492" lon="-1.24345">
        <ele>12.800000190735</ele>
        <time>2021-11-09T11:29:39.000Z</time>
      </trkpt>
      <trkpt lat="45.85469" lon="-1.24351">
        <ele>13</ele>
        <time>2021-11-09T11:29:43.000Z</time>
      </trkpt>
      <trkpt lat="45.85456" lon="-1.2435">
        <ele>12.800000190735</ele>
        <time>2021-11-09T11:29:45.000Z</time>
      </trkpt>
      <trkpt lat="45.85418" lon="-1.2434">
        <ele>12.60000038147</ele>
        <time>2021-11-09T11:29:51.000Z</time>
      </trkpt>
      <trkpt lat="45.85389" lon="-1.24335">
        <ele>12.39999961853</ele>
        <time>2021-11-09T11:29:56.000Z</time>
      </trkpt>
      <trkpt lat="45.85366" lon="-1.24333">
        <ele>12.800000190735</ele>
        <time>2021-11-09T11:30:00.000Z</time>
      </trkpt>
      <trkpt lat="45.8536" lon="-1.24331">
        <ele>12.800000190735</ele>
        <time>2021-11-09T11:30:01.000Z</time>
      </trkpt>
      <trkpt lat="45.8533" lon="-1.24318">
        <ele>12.800000190735</ele>
        <time>2021-11-09T11:30:06.000Z</time>
      </trkpt>
      <trkpt lat="45.85293" lon="-1.24305">
        <ele>12.800000190735</ele>
        <time>2021-11-09T11:30:12.000Z</time>
      </trkpt>
      <trkpt lat="45.85254" lon="-1.24297">
        <ele>13.39999961853</ele>
        <time>2021-11-09T11:30:18.000Z</time>
      </trkpt>
      <trkpt lat="45.8524" lon="-1.24295">
        <ele>13.39999961853</ele>
        <time>2021-11-09T11:30:20.000Z</time>
      </trkpt>
      <trkpt lat="45.85201" lon="-1.24292">
        <ele>12.39999961853</ele>
        <time>2021-11-09T11:30:26.000Z</time>
      </trkpt>
      <trkpt lat="45.85188" lon="-1.2429">
        <ele>12</ele>
        <time>2021-11-09T11:30:28.000Z</time>
      </trkpt>
      <trkpt lat="45.85176" lon="-1.24289">
        <ele>11.800000190735</ele>
        <time>2021-11-09T11:30:30.000Z</time>
      </trkpt>
      <trkpt lat="45.85164" lon="-1.24286">
        <ele>11.39999961853</ele>
        <time>2021-11-09T11:30:32.000Z</time>
      </trkpt>
      <trkpt lat="45.85145" lon="-1.24282">
        <ele>11.199999809265</ele>
        <time>2021-11-09T11:30:35.000Z</time>
      </trkpt>
      <trkpt lat="45.85135" lon="-1.24278">
        <ele>11.199999809265</ele>
        <time>2021-11-09T11:30:37.000Z</time>
      </trkpt>
      <trkpt lat="45.85114" lon="-1.24268">
        <ele>11</ele>
        <time>2021-11-09T11:30:41.000Z</time>
      </trkpt>
      <trkpt lat="45.85107" lon="-1.24267">
        <ele>11.199999809265</ele>
        <time>2021-11-09T11:30:42.000Z</time>
      </trkpt>
      <trkpt lat="45.85102" lon="-1.24266">
        <ele>11.199999809265</ele>
        <time>2021-11-09T11:30:43.000Z</time>
      </trkpt>
      <trkpt lat="45.8509" lon="-1.24262">
        <ele>11.199999809265</ele>
        <time>2021-11-09T11:30:45.000Z</time>
      </trkpt>
      <trkpt lat="45.85084" lon="-1.24261">
        <ele>11</ele>
        <time>2021-11-09T11:30:46.000Z</time>
      </trkpt>
      <trkpt lat="45.85073" lon="-1.24258">
        <ele>11</ele>
        <time>2021-11-09T11:30:48.000Z</time>
      </trkpt>
      <trkpt lat="45.85063" lon="-1.24255">
        <ele>10.800000190735</ele>
        <time>2021-11-09T11:30:50.000Z</time>
      </trkpt>
      <trkpt lat="45.85059" lon="-1.24255">
        <ele>10.60000038147</ele>
        <time>2021-11-09T11:30:51.000Z</time>
      </trkpt>
      <trkpt lat="45.85047" lon="-1.24252">
        <ele>10.39999961853</ele>
        <time>2021-11-09T11:30:53.000Z</time>
      </trkpt>
      <trkpt lat="45.85035" lon="-1.24247">
        <ele>10</ele>
        <time>2021-11-09T11:30:55.000Z</time>
      </trkpt>
      <trkpt lat="45.85025" lon="-1.24245">
        <ele>10</ele>
        <time>2021-11-09T11:30:57.000Z</time>
      </trkpt>
      <trkpt lat="45.85016" lon="-1.24249">
        <ele>10.39999961853</ele>
        <time>2021-11-09T11:30:59.000Z</time>
      </trkpt>
      <trkpt lat="45.85004" lon="-1.24262">
        <ele>10</ele>
        <time>2021-11-09T11:31:02.000Z</time>
      </trkpt>
      <trkpt lat="45.84993" lon="-1.24269">
        <ele>9.8000001907349</ele>
        <time>2021-11-09T11:31:04.000Z</time>
      </trkpt>
      <trkpt lat="45.84988" lon="-1.2427">
        <ele>9.6000003814697</ele>
        <time>2021-11-09T11:31:05.000Z</time>
      </trkpt>
      <trkpt lat="45.84983" lon="-1.24268">
        <ele>9.1999998092651</ele>
        <time>2021-11-09T11:31:06.000Z</time>
      </trkpt>
      <trkpt lat="45.84974" lon="-1.24264">
        <ele>10</ele>
        <time>2021-11-09T11:31:08.000Z</time>
      </trkpt>
      <trkpt lat="45.8497" lon="-1.2426">
        <ele>10</ele>
        <time>2021-11-09T11:31:09.000Z</time>
      </trkpt>
      <trkpt lat="45.84961" lon="-1.2425">
        <ele>9.3999996185303</ele>
        <time>2021-11-09T11:31:11.000Z</time>
      </trkpt>
      <trkpt lat="45.8495" lon="-1.24236">
        <ele>9.3999996185303</ele>
        <time>2021-11-09T11:31:14.000Z</time>
      </trkpt>
      <trkpt lat="45.84941" lon="-1.2423">
        <ele>9.1999998092651</ele>
        <time>2021-11-09T11:31:16.000Z</time>
      </trkpt>
      <trkpt lat="45.84933" lon="-1.24226">
        <ele>9.6000003814697</ele>
        <time>2021-11-09T11:31:18.000Z</time>
      </trkpt>
      <trkpt lat="45.84923" lon="-1.24222">
        <ele>10</ele>
        <time>2021-11-09T11:31:20.000Z</time>
      </trkpt>
      <trkpt lat="45.84916" lon="-1.24217">
        <ele>9.8000001907349</ele>
        <time>2021-11-09T11:31:22.000Z</time>
      </trkpt>
      <trkpt lat="45.84906" lon="-1.24213">
        <ele>10</ele>
        <time>2021-11-09T11:31:24.000Z</time>
      </trkpt>
      <trkpt lat="45.84896" lon="-1.24209">
        <ele>10.199999809265</ele>
        <time>2021-11-09T11:31:26.000Z</time>
      </trkpt>
      <trkpt lat="45.84871" lon="-1.24203">
        <ele>10.39999961853</ele>
        <time>2021-11-09T11:31:30.000Z</time>
      </trkpt>
      <trkpt lat="45.8486" lon="-1.24201">
        <ele>10.60000038147</ele>
        <time>2021-11-09T11:31:32.000Z</time>
      </trkpt>
      <trkpt lat="45.84849" lon="-1.24195">
        <ele>10.800000190735</ele>
        <time>2021-11-09T11:31:34.000Z</time>
      </trkpt>
      <trkpt lat="45.84816" lon="-1.24182">
        <ele>11.39999961853</ele>
        <time>2021-11-09T11:31:39.000Z</time>
      </trkpt>
      <trkpt lat="45.84805" lon="-1.24177">
        <ele>11.60000038147</ele>
        <time>2021-11-09T11:31:41.000Z</time>
      </trkpt>
      <trkpt lat="45.84798" lon="-1.24176">
        <ele>12</ele>
        <time>2021-11-09T11:31:42.000Z</time>
      </trkpt>
      <trkpt lat="45.84784" lon="-1.24174">
        <ele>12.39999961853</ele>
        <time>2021-11-09T11:31:44.000Z</time>
      </trkpt>
      <trkpt lat="45.84764" lon="-1.24172">
        <ele>12.60000038147</ele>
        <time>2021-11-09T11:31:47.000Z</time>
      </trkpt>
      <trkpt lat="45.84744" lon="-1.24173">
        <ele>12.800000190735</ele>
        <time>2021-11-09T11:31:50.000Z</time>
      </trkpt>
      <trkpt lat="45.84715" lon="-1.24173">
        <ele>13.199999809265</ele>
        <time>2021-11-09T11:31:55.000Z</time>
      </trkpt>
      <trkpt lat="45.84702" lon="-1.24172">
        <ele>13.39999961853</ele>
        <time>2021-11-09T11:31:57.000Z</time>
      </trkpt>
      <trkpt lat="45.84689" lon="-1.24171">
        <ele>13.199999809265</ele>
        <time>2021-11-09T11:31:59.000Z</time>
      </trkpt>
      <trkpt lat="45.84665" lon="-1.24165">
        <ele>13.39999961853</ele>
        <time>2021-11-09T11:32:03.000Z</time>
      </trkpt>
      <trkpt lat="45.84647" lon="-1.24163">
        <ele>13.60000038147</ele>
        <time>2021-11-09T11:32:06.000Z</time>
      </trkpt>
      <trkpt lat="45.84631" lon="-1.24158">
        <ele>13.60000038147</ele>
        <time>2021-11-09T11:32:09.000Z</time>
      </trkpt>
      <trkpt lat="45.84625" lon="-1.24156">
        <ele>13.60000038147</ele>
        <time>2021-11-09T11:32:10.000Z</time>
      </trkpt>
      <trkpt lat="45.84606" lon="-1.24147">
        <ele>13.60000038147</ele>
        <time>2021-11-09T11:32:14.000Z</time>
      </trkpt>
      <trkpt lat="45.84599" lon="-1.24145">
        <ele>13.60000038147</ele>
        <time>2021-11-09T11:32:15.000Z</time>
      </trkpt>
      <trkpt lat="45.84589" lon="-1.24142">
        <ele>13.60000038147</ele>
        <time>2021-11-09T11:32:17.000Z</time>
      </trkpt>
      <trkpt lat="45.84584" lon="-1.24139">
        <ele>13.60000038147</ele>
        <time>2021-11-09T11:32:18.000Z</time>
      </trkpt>
      <trkpt lat="45.84575" lon="-1.24132">
        <ele>13.800000190735</ele>
        <time>2021-11-09T11:32:20.000Z</time>
      </trkpt>
      <trkpt lat="45.84564" lon="-1.24128">
        <ele>13.60000038147</ele>
        <time>2021-11-09T11:32:22.000Z</time>
      </trkpt>
      <trkpt lat="45.8456" lon="-1.24127">
        <ele>13.800000190735</ele>
        <time>2021-11-09T11:32:23.000Z</time>
      </trkpt>
      <trkpt lat="45.84548" lon="-1.24123">
        <ele>13.800000190735</ele>
        <time>2021-11-09T11:32:25.000Z</time>
      </trkpt>
      <trkpt lat="45.84526" lon="-1.24117">
        <ele>14</ele>
        <time>2021-11-09T11:32:29.000Z</time>
      </trkpt>
      <trkpt lat="45.8452" lon="-1.24117">
        <ele>14.199999809265</ele>
        <time>2021-11-09T11:32:30.000Z</time>
      </trkpt>
      <trkpt lat="45.84508" lon="-1.24118">
        <ele>14.60000038147</ele>
        <time>2021-11-09T11:32:32.000Z</time>
      </trkpt>
      <trkpt lat="45.84503" lon="-1.24118">
        <ele>14.800000190735</ele>
        <time>2021-11-09T11:32:33.000Z</time>
      </trkpt>
      <trkpt lat="45.84496" lon="-1.24118">
        <ele>15</ele>
        <time>2021-11-09T11:32:34.000Z</time>
      </trkpt>
      <trkpt lat="45.8449" lon="-1.24118">
        <ele>15</ele>
        <time>2021-11-09T11:32:35.000Z</time>
      </trkpt>
      <trkpt lat="45.84476" lon="-1.24114">
        <ele>15.199999809265</ele>
        <time>2021-11-09T11:32:37.000Z</time>
      </trkpt>
      <trkpt lat="45.84469" lon="-1.24112">
        <ele>15</ele>
        <time>2021-11-09T11:32:38.000Z</time>
      </trkpt>
      <trkpt lat="45.84452" lon="-1.24102">
        <ele>14.800000190735</ele>
        <time>2021-11-09T11:32:41.000Z</time>
      </trkpt>
      <trkpt lat="45.8444" lon="-1.24096">
        <ele>14.800000190735</ele>
        <time>2021-11-09T11:32:43.000Z</time>
      </trkpt>
      <trkpt lat="45.84436" lon="-1.24093">
        <ele>14.800000190735</ele>
        <time>2021-11-09T11:32:44.000Z</time>
      </trkpt>
      <trkpt lat="45.84422" lon="-1.2409">
        <ele>14.60000038147</ele>
        <time>2021-11-09T11:32:46.000Z</time>
      </trkpt>
      <trkpt lat="45.84416" lon="-1.24088">
        <ele>14.60000038147</ele>
        <time>2021-11-09T11:32:47.000Z</time>
      </trkpt>
      <trkpt lat="45.84411" lon="-1.24085">
        <ele>14.60000038147</ele>
        <time>2021-11-09T11:32:48.000Z</time>
      </trkpt>
      <trkpt lat="45.844" lon="-1.24079">
        <ele>14.60000038147</ele>
        <time>2021-11-09T11:32:50.000Z</time>
      </trkpt>
      <trkpt lat="45.84393" lon="-1.24078">
        <ele>14.60000038147</ele>
        <time>2021-11-09T11:32:51.000Z</time>
      </trkpt>
      <trkpt lat="45.84371" lon="-1.24071">
        <ele>14.39999961853</ele>
        <time>2021-11-09T11:32:55.000Z</time>
      </trkpt>
      <trkpt lat="45.84365" lon="-1.24068">
        <ele>14.39999961853</ele>
        <time>2021-11-09T11:32:56.000Z</time>
      </trkpt>
      <trkpt lat="45.84346" lon="-1.24061">
        <ele>14.800000190735</ele>
        <time>2021-11-09T11:32:59.000Z</time>
      </trkpt>
      <trkpt lat="45.84328" lon="-1.24055">
        <ele>15.199999809265</ele>
        <time>2021-11-09T11:33:02.000Z</time>
      </trkpt>
      <trkpt lat="45.84317" lon="-1.24053">
        <ele>15.199999809265</ele>
        <time>2021-11-09T11:33:04.000Z</time>
      </trkpt>
      <trkpt lat="45.84287" lon="-1.24041">
        <ele>15.199999809265</ele>
        <time>2021-11-09T11:33:09.000Z</time>
      </trkpt>
      <trkpt lat="45.84276" lon="-1.24035">
        <ele>15.60000038147</ele>
        <time>2021-11-09T11:33:11.000Z</time>
      </trkpt>
      <trkpt lat="45.8426" lon="-1.24028">
        <ele>16</ele>
        <time>2021-11-09T11:33:14.000Z</time>
      </trkpt>
      <trkpt lat="45.84242" lon="-1.24022">
        <ele>16.200000762939</ele>
        <time>2021-11-09T11:33:17.000Z</time>
      </trkpt>
      <trkpt lat="45.84225" lon="-1.24014">
        <ele>16.200000762939</ele>
        <time>2021-11-09T11:33:20.000Z</time>
      </trkpt>
      <trkpt lat="45.84211" lon="-1.24003">
        <ele>16.200000762939</ele>
        <time>2021-11-09T11:33:23.000Z</time>
      </trkpt>
      <trkpt lat="45.842" lon="-1.23998">
        <ele>16</ele>
        <time>2021-11-09T11:33:25.000Z</time>
      </trkpt>
      <trkpt lat="45.84194" lon="-1.24003">
        <ele>16</ele>
        <time>2021-11-09T11:33:27.000Z</time>
      </trkpt>
      <trkpt lat="45.84192" lon="-1.24023">
        <ele>16</ele>
        <time>2021-11-09T11:33:30.000Z</time>
      </trkpt>
      <trkpt lat="45.84192" lon="-1.24031">
        <ele>16</ele>
        <time>2021-11-09T11:33:31.000Z</time>
      </trkpt>
      <trkpt lat="45.8419" lon="-1.24048">
        <ele>15.800000190735</ele>
        <time>2021-11-09T11:33:33.000Z</time>
      </trkpt>
      <trkpt lat="45.8419" lon="-1.24071">
        <ele>15.800000190735</ele>
        <time>2021-11-09T11:33:36.000Z</time>
      </trkpt>
      <trkpt lat="45.84188" lon="-1.24084">
        <ele>15.800000190735</ele>
        <time>2021-11-09T11:33:37.000Z</time>
      </trkpt>
      <trkpt lat="45.84184" lon="-1.24099">
        <ele>15.60000038147</ele>
        <time>2021-11-09T11:33:39.000Z</time>
      </trkpt>
      <trkpt lat="45.84174" lon="-1.24128">
        <ele>15.39999961853</ele>
        <time>2021-11-09T11:33:42.000Z</time>
      </trkpt>
      <trkpt lat="45.84171" lon="-1.24138">
        <ele>15.199999809265</ele>
        <time>2021-11-09T11:33:43.000Z</time>
      </trkpt>
      <trkpt lat="45.8417" lon="-1.24147">
        <ele>15</ele>
        <time>2021-11-09T11:33:44.000Z</time>
      </trkpt>
      <trkpt lat="45.84166" lon="-1.2419">
        <ele>14.60000038147</ele>
        <time>2021-11-09T11:33:48.000Z</time>
      </trkpt>
      <trkpt lat="45.84166" lon="-1.24198">
        <ele>14.39999961853</ele>
        <time>2021-11-09T11:33:49.000Z</time>
      </trkpt>
      <trkpt lat="45.84168" lon="-1.24221">
        <ele>14.199999809265</ele>
        <time>2021-11-09T11:33:51.000Z</time>
      </trkpt>
      <trkpt lat="45.84173" lon="-1.2424">
        <ele>14</ele>
        <time>2021-11-09T11:33:53.000Z</time>
      </trkpt>
      <trkpt lat="45.84176" lon="-1.24256">
        <ele>14</ele>
        <time>2021-11-09T11:33:55.000Z</time>
      </trkpt>
      <trkpt lat="45.84178" lon="-1.24264">
        <ele>14</ele>
        <time>2021-11-09T11:33:56.000Z</time>
      </trkpt>
      <trkpt lat="45.8418" lon="-1.24272">
        <ele>13.800000190735</ele>
        <time>2021-11-09T11:33:57.000Z</time>
      </trkpt>
      <trkpt lat="45.84182" lon="-1.24283">
        <ele>13.800000190735</ele>
        <time>2021-11-09T11:33:58.000Z</time>
      </trkpt>
      <trkpt lat="45.84182" lon="-1.24305">
        <ele>13.800000190735</ele>
        <time>2021-11-09T11:34:00.000Z</time>
      </trkpt>
      <trkpt lat="45.84176" lon="-1.24337">
        <ele>13.39999961853</ele>
        <time>2021-11-09T11:34:03.000Z</time>
      </trkpt>
      <trkpt lat="45.84173" lon="-1.24356">
        <ele>13.199999809265</ele>
        <time>2021-11-09T11:34:05.000Z</time>
      </trkpt>
      <trkpt lat="45.84171" lon="-1.24366">
        <ele>12.800000190735</ele>
        <time>2021-11-09T11:34:06.000Z</time>
      </trkpt>
      <trkpt lat="45.84159" lon="-1.24416">
        <ele>12.39999961853</ele>
        <time>2021-11-09T11:34:11.000Z</time>
      </trkpt>
      <trkpt lat="45.84154" lon="-1.24438">
        <ele>12</ele>
        <time>2021-11-09T11:34:13.000Z</time>
      </trkpt>
      <trkpt lat="45.84152" lon="-1.24449">
        <ele>11.800000190735</ele>
        <time>2021-11-09T11:34:14.000Z</time>
      </trkpt>
      <trkpt lat="45.8415" lon="-1.24467">
        <ele>11.39999961853</ele>
        <time>2021-11-09T11:34:16.000Z</time>
      </trkpt>
      <trkpt lat="45.84146" lon="-1.24487">
        <ele>11</ele>
        <time>2021-11-09T11:34:18.000Z</time>
      </trkpt>
      <trkpt lat="45.84142" lon="-1.24495">
        <ele>10.800000190735</ele>
        <time>2021-11-09T11:34:19.000Z</time>
      </trkpt>
      <trkpt lat="45.84138" lon="-1.24503">
        <ele>10.60000038147</ele>
        <time>2021-11-09T11:34:20.000Z</time>
      </trkpt>
      <trkpt lat="45.84127" lon="-1.24522">
        <ele>9.8000001907349</ele>
        <time>2021-11-09T11:34:23.000Z</time>
      </trkpt>
      <trkpt lat="45.84123" lon="-1.24524">
        <ele>9.3999996185303</ele>
        <time>2021-11-09T11:34:24.000Z</time>
      </trkpt>
      <trkpt lat="45.84119" lon="-1.24521">
        <ele>9.1999998092651</ele>
        <time>2021-11-09T11:34:26.000Z</time>
      </trkpt>
      <trkpt lat="45.84119" lon="-1.24517">
        <ele>9</ele>
        <time>2021-11-09T11:34:27.000Z</time>
      </trkpt>
      <trkpt lat="45.8412" lon="-1.24511">
        <ele>8.1999998092651</ele>
        <time>2021-11-09T11:34:30.000Z</time>
      </trkpt>
      <trkpt lat="45.8412" lon="-1.24511">
        <ele>8</ele>
        <time>2021-11-09T11:34:31.000Z</time>
      </trkpt>
      <trkpt lat="45.8412" lon="-1.24511">
        <ele>7.8000001907349</ele>
        <time>2021-11-09T11:34:32.000Z</time>
      </trkpt>
      <trkpt lat="45.8412" lon="-1.24507">
        <ele>5.4000000953674</ele>
        <time>2021-11-09T11:36:54.000Z</time>
      </trkpt>
      <trkpt lat="45.84121" lon="-1.24496">
        <ele>5.5999999046326</ele>
        <time>2021-11-09T11:36:57.000Z</time>
      </trkpt>
      <trkpt lat="45.84122" lon="-1.24481">
        <ele>5.8000001907349</ele>
        <time>2021-11-09T11:37:02.000Z</time>
      </trkpt>
      <trkpt lat="45.84122" lon="-1.24476">
        <ele>12.199999809265</ele>
        <time>2021-11-09T11:40:00.000Z</time>
      </trkpt>
      <trkpt lat="45.84122" lon="-1.24476">
        <ele>12.39999961853</ele>
        <time>2021-11-09T11:40:01.000Z</time>
      </trkpt>
      <trkpt lat="45.8412" lon="-1.24468">
        <ele>12</ele>
        <time>2021-11-09T11:40:05.000Z</time>
      </trkpt>
      <trkpt lat="45.84117" lon="-1.24459">
        <ele>11.800000190735</ele>
        <time>2021-11-09T11:40:07.000Z</time>
      </trkpt>
      <trkpt lat="45.84114" lon="-1.24445">
        <ele>11.199999809265</ele>
        <time>2021-11-09T11:40:10.000Z</time>
      </trkpt>
      <trkpt lat="45.84111" lon="-1.24435">
        <ele>11.199999809265</ele>
        <time>2021-11-09T11:40:12.000Z</time>
      </trkpt>
      <trkpt lat="45.84104" lon="-1.24429">
        <ele>11.199999809265</ele>
        <time>2021-11-09T11:40:14.000Z</time>
      </trkpt>
      <trkpt lat="45.84099" lon="-1.24429">
        <ele>11.199999809265</ele>
        <time>2021-11-09T11:40:15.000Z</time>
      </trkpt>
      <trkpt lat="45.84089" lon="-1.2443">
        <ele>11</ele>
        <time>2021-11-09T11:40:17.000Z</time>
      </trkpt>
      <trkpt lat="45.84072" lon="-1.24427">
        <ele>11</ele>
        <time>2021-11-09T11:40:20.000Z</time>
      </trkpt>
      <trkpt lat="45.84035" lon="-1.24422">
        <ele>11</ele>
        <time>2021-11-09T11:40:26.000Z</time>
      </trkpt>
      <trkpt lat="45.84022" lon="-1.24419">
        <ele>11.199999809265</ele>
        <time>2021-11-09T11:40:28.000Z</time>
      </trkpt>
      <trkpt lat="45.84003" lon="-1.24418">
        <ele>12</ele>
        <time>2021-11-09T11:40:31.000Z</time>
      </trkpt>
      <trkpt lat="45.83991" lon="-1.24414">
        <ele>12.39999961853</ele>
        <time>2021-11-09T11:40:33.000Z</time>
      </trkpt>
      <trkpt lat="45.83964" lon="-1.2441">
        <ele>13</ele>
        <time>2021-11-09T11:40:37.000Z</time>
      </trkpt>
      <trkpt lat="45.83958" lon="-1.24409">
        <ele>13.39999961853</ele>
        <time>2021-11-09T11:40:38.000Z</time>
      </trkpt>
      <trkpt lat="45.83931" lon="-1.24406">
        <ele>14.39999961853</ele>
        <time>2021-11-09T11:40:42.000Z</time>
      </trkpt>
      <trkpt lat="45.83925" lon="-1.24405">
        <ele>14.60000038147</ele>
        <time>2021-11-09T11:40:43.000Z</time>
      </trkpt>
      <trkpt lat="45.83912" lon="-1.24404">
        <ele>15</ele>
        <time>2021-11-09T11:40:45.000Z</time>
      </trkpt>
      <trkpt lat="45.83892" lon="-1.24402">
        <ele>15.199999809265</ele>
        <time>2021-11-09T11:40:48.000Z</time>
      </trkpt>
      <trkpt lat="45.83871" lon="-1.244">
        <ele>15.60000038147</ele>
        <time>2021-11-09T11:40:51.000Z</time>
      </trkpt>
      <trkpt lat="45.83857" lon="-1.24399">
        <ele>15.800000190735</ele>
        <time>2021-11-09T11:40:53.000Z</time>
      </trkpt>
      <trkpt lat="45.83845" lon="-1.24397">
        <ele>16.39999961853</ele>
        <time>2021-11-09T11:40:55.000Z</time>
      </trkpt>
      <trkpt lat="45.83838" lon="-1.24397">
        <ele>16.60000038147</ele>
        <time>2021-11-09T11:40:56.000Z</time>
      </trkpt>
      <trkpt lat="45.83832" lon="-1.24396">
        <ele>17</ele>
        <time>2021-11-09T11:40:57.000Z</time>
      </trkpt>
      <trkpt lat="45.8382" lon="-1.24396">
        <ele>17.200000762939</ele>
        <time>2021-11-09T11:40:59.000Z</time>
      </trkpt>
      <trkpt lat="45.83814" lon="-1.24396">
        <ele>17.200000762939</ele>
        <time>2021-11-09T11:41:00.000Z</time>
      </trkpt>
      <trkpt lat="45.83808" lon="-1.24396">
        <ele>17.200000762939</ele>
        <time>2021-11-09T11:41:01.000Z</time>
      </trkpt>
      <trkpt lat="45.83785" lon="-1.24394">
        <ele>17.60000038147</ele>
        <time>2021-11-09T11:41:05.000Z</time>
      </trkpt>
      <trkpt lat="45.83772" lon="-1.24391">
        <ele>18</ele>
        <time>2021-11-09T11:41:07.000Z</time>
      </trkpt>
      <trkpt lat="45.83748" lon="-1.24388">
        <ele>18.60000038147</ele>
        <time>2021-11-09T11:41:11.000Z</time>
      </trkpt>
      <trkpt lat="45.83742" lon="-1.24387">
        <ele>18.60000038147</ele>
        <time>2021-11-09T11:41:12.000Z</time>
      </trkpt>
      <trkpt lat="45.8373" lon="-1.24387">
        <ele>18.60000038147</ele>
        <time>2021-11-09T11:41:14.000Z</time>
      </trkpt>
      <trkpt lat="45.83682" lon="-1.24381">
        <ele>18.60000038147</ele>
        <time>2021-11-09T11:41:21.000Z</time>
      </trkpt>
      <trkpt lat="45.83668" lon="-1.24378">
        <ele>18.60000038147</ele>
        <time>2021-11-09T11:41:23.000Z</time>
      </trkpt>
      <trkpt lat="45.83635" lon="-1.24372">
        <ele>18.60000038147</ele>
        <time>2021-11-09T11:41:28.000Z</time>
      </trkpt>
      <trkpt lat="45.83629" lon="-1.2437">
        <ele>18.60000038147</ele>
        <time>2021-11-09T11:41:30.000Z</time>
      </trkpt>
      <trkpt lat="45.83616" lon="-1.24366">
        <ele>18.60000038147</ele>
        <time>2021-11-09T11:41:31.000Z</time>
      </trkpt>
      <trkpt lat="45.83603" lon="-1.24363">
        <ele>18.799999237061</ele>
        <time>2021-11-09T11:41:33.000Z</time>
      </trkpt>
      <trkpt lat="45.8359" lon="-1.24361">
        <ele>18.799999237061</ele>
        <time>2021-11-09T11:41:35.000Z</time>
      </trkpt>
      <trkpt lat="45.8357" lon="-1.24357">
        <ele>18.799999237061</ele>
        <time>2021-11-09T11:41:38.000Z</time>
      </trkpt>
      <trkpt lat="45.83564" lon="-1.24355">
        <ele>19.200000762939</ele>
        <time>2021-11-09T11:41:40.000Z</time>
      </trkpt>
      <trkpt lat="45.83539" lon="-1.24351">
        <ele>19.200000762939</ele>
        <time>2021-11-09T11:41:43.000Z</time>
      </trkpt>
      <trkpt lat="45.83528" lon="-1.24348">
        <ele>19.200000762939</ele>
        <time>2021-11-09T11:41:45.000Z</time>
      </trkpt>
      <trkpt lat="45.83522" lon="-1.24346">
        <ele>19.200000762939</ele>
        <time>2021-11-09T11:41:47.000Z</time>
      </trkpt>
      <trkpt lat="45.83492" lon="-1.24339">
        <ele>19.39999961853</ele>
        <time>2021-11-09T11:41:51.000Z</time>
      </trkpt>
      <trkpt lat="45.83462" lon="-1.24331">
        <ele>19.39999961853</ele>
        <time>2021-11-09T11:41:56.000Z</time>
      </trkpt>
      <trkpt lat="45.83438" lon="-1.24324">
        <ele>19.799999237061</ele>
        <time>2021-11-09T11:42:00.000Z</time>
      </trkpt>
      <trkpt lat="45.83425" lon="-1.2432">
        <ele>20</ele>
        <time>2021-11-09T11:42:02.000Z</time>
      </trkpt>
      <trkpt lat="45.83404" lon="-1.24314">
        <ele>20.200000762939</ele>
        <time>2021-11-09T11:42:05.000Z</time>
      </trkpt>
      <trkpt lat="45.83397" lon="-1.24312">
        <ele>20.200000762939</ele>
        <time>2021-11-09T11:42:06.000Z</time>
      </trkpt>
      <trkpt lat="45.83384" lon="-1.24308">
        <ele>20.60000038147</ele>
        <time>2021-11-09T11:42:08.000Z</time>
      </trkpt>
      <trkpt lat="45.83357" lon="-1.24304">
        <ele>20.60000038147</ele>
        <time>2021-11-09T11:42:12.000Z</time>
      </trkpt>
      <trkpt lat="45.8335" lon="-1.24302">
        <ele>20.799999237061</ele>
        <time>2021-11-09T11:42:13.000Z</time>
      </trkpt>
      <trkpt lat="45.83336" lon="-1.243">
        <ele>20.799999237061</ele>
        <time>2021-11-09T11:42:15.000Z</time>
      </trkpt>
      <trkpt lat="45.83324" lon="-1.24297">
        <ele>20.799999237061</ele>
        <time>2021-11-09T11:42:17.000Z</time>
      </trkpt>
      <trkpt lat="45.83281" lon="-1.2429">
        <ele>20.799999237061</ele>
        <time>2021-11-09T11:42:23.000Z</time>
      </trkpt>
      <trkpt lat="45.83239" lon="-1.2428">
        <ele>20.799999237061</ele>
        <time>2021-11-09T11:42:30.000Z</time>
      </trkpt>
      <trkpt lat="45.83188" lon="-1.24266">
        <ele>21.200000762939</ele>
        <time>2021-11-09T11:42:38.000Z</time>
      </trkpt>
      <trkpt lat="45.83182" lon="-1.24265">
        <ele>21.200000762939</ele>
        <time>2021-11-09T11:42:39.000Z</time>
      </trkpt>
      <trkpt lat="45.83148" lon="-1.24255">
        <ele>21.200000762939</ele>
        <time>2021-11-09T11:42:44.000Z</time>
      </trkpt>
      <trkpt lat="45.83105" lon="-1.24246">
        <ele>20.799999237061</ele>
        <time>2021-11-09T11:42:51.000Z</time>
      </trkpt>
      <trkpt lat="45.83049" lon="-1.24233">
        <ele>19.60000038147</ele>
        <time>2021-11-09T11:42:58.000Z</time>
      </trkpt>
      <trkpt lat="45.83043" lon="-1.24231">
        <ele>19.60000038147</ele>
        <time>2021-11-09T11:42:59.000Z</time>
      </trkpt>
      <trkpt lat="45.83024" lon="-1.24229">
        <ele>19.60000038147</ele>
        <time>2021-11-09T11:43:02.000Z</time>
      </trkpt>
      <trkpt lat="45.8301" lon="-1.24228">
        <ele>19.39999961853</ele>
        <time>2021-11-09T11:43:04.000Z</time>
      </trkpt>
      <trkpt lat="45.83004" lon="-1.24227">
        <ele>19.200000762939</ele>
        <time>2021-11-09T11:43:05.000Z</time>
      </trkpt>
      <trkpt lat="45.82991" lon="-1.24224">
        <ele>19.39999961853</ele>
        <time>2021-11-09T11:43:07.000Z</time>
      </trkpt>
      <trkpt lat="45.82979" lon="-1.24222">
        <ele>18.799999237061</ele>
        <time>2021-11-09T11:43:09.000Z</time>
      </trkpt>
      <trkpt lat="45.82954" lon="-1.24218">
        <ele>18.60000038147</ele>
        <time>2021-11-09T11:43:13.000Z</time>
      </trkpt>
      <trkpt lat="45.82941" lon="-1.24216">
        <ele>18.39999961853</ele>
        <time>2021-11-09T11:43:15.000Z</time>
      </trkpt>
      <trkpt lat="45.82934" lon="-1.24215">
        <ele>18.60000038147</ele>
        <time>2021-11-09T11:43:16.000Z</time>
      </trkpt>
      <trkpt lat="45.82908" lon="-1.24209">
        <ele>18.60000038147</ele>
        <time>2021-11-09T11:43:20.000Z</time>
      </trkpt>
      <trkpt lat="45.8289" lon="-1.24205">
        <ele>18.60000038147</ele>
        <time>2021-11-09T11:43:23.000Z</time>
      </trkpt>
      <trkpt lat="45.82885" lon="-1.24203">
        <ele>18.60000038147</ele>
        <time>2021-11-09T11:43:25.000Z</time>
      </trkpt>
      <trkpt lat="45.82859" lon="-1.24199">
        <ele>18.39999961853</ele>
        <time>2021-11-09T11:43:28.000Z</time>
      </trkpt>
      <trkpt lat="45.82853" lon="-1.24199">
        <ele>18.39999961853</ele>
        <time>2021-11-09T11:43:29.000Z</time>
      </trkpt>
      <trkpt lat="45.82846" lon="-1.24197">
        <ele>18.39999961853</ele>
        <time>2021-11-09T11:43:30.000Z</time>
      </trkpt>
      <trkpt lat="45.82827" lon="-1.24194">
        <ele>18.200000762939</ele>
        <time>2021-11-09T11:43:33.000Z</time>
      </trkpt>
      <trkpt lat="45.82813" lon="-1.24192">
        <ele>18.200000762939</ele>
        <time>2021-11-09T11:43:35.000Z</time>
      </trkpt>
      <trkpt lat="45.82799" lon="-1.2419">
        <ele>18.200000762939</ele>
        <time>2021-11-09T11:43:37.000Z</time>
      </trkpt>
      <trkpt lat="45.82792" lon="-1.24189">
        <ele>18.200000762939</ele>
        <time>2021-11-09T11:43:38.000Z</time>
      </trkpt>
      <trkpt lat="45.82746" lon="-1.2419">
        <ele>18.200000762939</ele>
        <time>2021-11-09T11:43:44.000Z</time>
      </trkpt>
      <trkpt lat="45.82726" lon="-1.24188">
        <ele>18.200000762939</ele>
        <time>2021-11-09T11:43:47.000Z</time>
      </trkpt>
      <trkpt lat="45.82705" lon="-1.24187">
        <ele>18.200000762939</ele>
        <time>2021-11-09T11:43:50.000Z</time>
      </trkpt>
      <trkpt lat="45.82671" lon="-1.24187">
        <ele>18</ele>
        <time>2021-11-09T11:43:55.000Z</time>
      </trkpt>
      <trkpt lat="45.82665" lon="-1.24188">
        <ele>17.799999237061</ele>
        <time>2021-11-09T11:43:56.000Z</time>
      </trkpt>
      <trkpt lat="45.82625" lon="-1.24188">
        <ele>17.60000038147</ele>
        <time>2021-11-09T11:44:02.000Z</time>
      </trkpt>
      <trkpt lat="45.82591" lon="-1.24189">
        <ele>17</ele>
        <time>2021-11-09T11:44:07.000Z</time>
      </trkpt>
      <trkpt lat="45.82569" lon="-1.2419">
        <ele>16.200000762939</ele>
        <time>2021-11-09T11:44:10.000Z</time>
      </trkpt>
      <trkpt lat="45.82563" lon="-1.24191">
        <ele>15.800000190735</ele>
        <time>2021-11-09T11:44:11.000Z</time>
      </trkpt>
      <trkpt lat="45.82545" lon="-1.2419">
        <ele>15</ele>
        <time>2021-11-09T11:44:14.000Z</time>
      </trkpt>
      <trkpt lat="45.82539" lon="-1.24189">
        <ele>15</ele>
        <time>2021-11-09T11:44:15.000Z</time>
      </trkpt>
      <trkpt lat="45.82528" lon="-1.24189">
        <ele>14.800000190735</ele>
        <time>2021-11-09T11:44:17.000Z</time>
      </trkpt>
      <trkpt lat="45.82508" lon="-1.24189">
        <ele>14.60000038147</ele>
        <time>2021-11-09T11:44:20.000Z</time>
      </trkpt>
      <trkpt lat="45.82502" lon="-1.24189">
        <ele>14.60000038147</ele>
        <time>2021-11-09T11:44:21.000Z</time>
      </trkpt>
      <trkpt lat="45.82477" lon="-1.2419">
        <ele>14.800000190735</ele>
        <time>2021-11-09T11:44:25.000Z</time>
      </trkpt>
      <trkpt lat="45.82464" lon="-1.2419">
        <ele>14.800000190735</ele>
        <time>2021-11-09T11:44:27.000Z</time>
      </trkpt>
      <trkpt lat="45.82443" lon="-1.24192">
        <ele>14.60000038147</ele>
        <time>2021-11-09T11:44:30.000Z</time>
      </trkpt>
      <trkpt lat="45.82396" lon="-1.24195">
        <ele>14</ele>
        <time>2021-11-09T11:44:37.000Z</time>
      </trkpt>
      <trkpt lat="45.82376" lon="-1.24195">
        <ele>14</ele>
        <time>2021-11-09T11:44:40.000Z</time>
      </trkpt>
      <trkpt lat="45.82355" lon="-1.24196">
        <ele>14</ele>
        <time>2021-11-09T11:44:43.000Z</time>
      </trkpt>
      <trkpt lat="45.82321" lon="-1.24197">
        <ele>14.39999961853</ele>
        <time>2021-11-09T11:44:48.000Z</time>
      </trkpt>
      <trkpt lat="45.82313" lon="-1.24197">
        <ele>14.39999961853</ele>
        <time>2021-11-09T11:44:49.000Z</time>
      </trkpt>
      <trkpt lat="45.82291" lon="-1.24196">
        <ele>14.800000190735</ele>
        <time>2021-11-09T11:44:52.000Z</time>
      </trkpt>
      <trkpt lat="45.82271" lon="-1.24196">
        <ele>14.800000190735</ele>
        <time>2021-11-09T11:44:55.000Z</time>
      </trkpt>
      <trkpt lat="45.82244" lon="-1.242">
        <ele>14.800000190735</ele>
        <time>2021-11-09T11:44:59.000Z</time>
      </trkpt>
      <trkpt lat="45.82227" lon="-1.24201">
        <ele>14.39999961853</ele>
        <time>2021-11-09T11:45:02.000Z</time>
      </trkpt>
      <trkpt lat="45.8219" lon="-1.24201">
        <ele>14.39999961853</ele>
        <time>2021-11-09T11:45:08.000Z</time>
      </trkpt>
      <trkpt lat="45.82185" lon="-1.242">
        <ele>14.60000038147</ele>
        <time>2021-11-09T11:45:09.000Z</time>
      </trkpt>
      <trkpt lat="45.82174" lon="-1.242">
        <ele>14.60000038147</ele>
        <time>2021-11-09T11:45:11.000Z</time>
      </trkpt>
      <trkpt lat="45.82153" lon="-1.24202">
        <ele>14.800000190735</ele>
        <time>2021-11-09T11:45:14.000Z</time>
      </trkpt>
      <trkpt lat="45.82108" lon="-1.24205">
        <ele>14.800000190735</ele>
        <time>2021-11-09T11:45:21.000Z</time>
      </trkpt>
      <trkpt lat="45.82083" lon="-1.24207">
        <ele>15</ele>
        <time>2021-11-09T11:45:25.000Z</time>
      </trkpt>
      <trkpt lat="45.82071" lon="-1.24205">
        <ele>14.60000038147</ele>
        <time>2021-11-09T11:45:27.000Z</time>
      </trkpt>
      <trkpt lat="45.82052" lon="-1.24205">
        <ele>14.800000190735</ele>
        <time>2021-11-09T11:45:30.000Z</time>
      </trkpt>
      <trkpt lat="45.82037" lon="-1.24204">
        <ele>14.39999961853</ele>
        <time>2021-11-09T11:45:32.000Z</time>
      </trkpt>
      <trkpt lat="45.82031" lon="-1.24204">
        <ele>14.800000190735</ele>
        <time>2021-11-09T11:45:33.000Z</time>
      </trkpt>
      <trkpt lat="45.82001" lon="-1.24204">
        <ele>14.800000190735</ele>
        <time>2021-11-09T11:45:38.000Z</time>
      </trkpt>
      <trkpt lat="45.81955" lon="-1.24201">
        <ele>14.800000190735</ele>
        <time>2021-11-09T11:45:46.000Z</time>
      </trkpt>
      <trkpt lat="45.81944" lon="-1.24199">
        <ele>14.800000190735</ele>
        <time>2021-11-09T11:45:48.000Z</time>
      </trkpt>
      <trkpt lat="45.81934" lon="-1.24194">
        <ele>14.60000038147</ele>
        <time>2021-11-09T11:45:50.000Z</time>
      </trkpt>
      <trkpt lat="45.81928" lon="-1.24179">
        <ele>14.39999961853</ele>
        <time>2021-11-09T11:45:54.000Z</time>
      </trkpt>
      <trkpt lat="45.81928" lon="-1.24163">
        <ele>14</ele>
        <time>2021-11-09T11:45:59.000Z</time>
      </trkpt>
      <trkpt lat="45.81928" lon="-1.2416">
        <ele>14</ele>
        <time>2021-11-09T11:46:00.000Z</time>
      </trkpt>
      <trkpt lat="45.81933" lon="-1.24145">
        <ele>13.60000038147</ele>
        <time>2021-11-09T11:46:06.000Z</time>
      </trkpt>
      <trkpt lat="45.81934" lon="-1.24142">
        <ele>13.60000038147</ele>
        <time>2021-11-09T11:46:08.000Z</time>
      </trkpt>
      <trkpt lat="45.81936" lon="-1.24139">
        <ele>13.60000038147</ele>
        <time>2021-11-09T11:46:11.000Z</time>
      </trkpt>
      <trkpt lat="45.81945" lon="-1.24128">
        <ele>13.199999809265</ele>
        <time>2021-11-09T11:46:16.000Z</time>
      </trkpt>
      <trkpt lat="45.81949" lon="-1.24108">
        <ele>13.199999809265</ele>
        <time>2021-11-09T11:46:20.000Z</time>
      </trkpt>
      <trkpt lat="45.8195" lon="-1.24093">
        <ele>13.199999809265</ele>
        <time>2021-11-09T11:46:22.000Z</time>
      </trkpt>
      <trkpt lat="45.81954" lon="-1.24075">
        <ele>13.199999809265</ele>
        <time>2021-11-09T11:46:25.000Z</time>
      </trkpt>
      <trkpt lat="45.81965" lon="-1.24029">
        <ele>13.39999961853</ele>
        <time>2021-11-09T11:46:32.000Z</time>
      </trkpt>
      <trkpt lat="45.81969" lon="-1.24003">
        <ele>13.60000038147</ele>
        <time>2021-11-09T11:46:36.000Z</time>
      </trkpt>
      <trkpt lat="45.81971" lon="-1.23991">
        <ele>14.199999809265</ele>
        <time>2021-11-09T11:46:38.000Z</time>
      </trkpt>
      <trkpt lat="45.8197" lon="-1.23977">
        <ele>14.39999961853</ele>
        <time>2021-11-09T11:46:40.000Z</time>
      </trkpt>
      <trkpt lat="45.81966" lon="-1.23966">
        <ele>14.60000038147</ele>
        <time>2021-11-09T11:46:42.000Z</time>
      </trkpt>
      <trkpt lat="45.81957" lon="-1.23954">
        <ele>15</ele>
        <time>2021-11-09T11:46:44.000Z</time>
      </trkpt>
      <trkpt lat="45.81953" lon="-1.23948">
        <ele>15.199999809265</ele>
        <time>2021-11-09T11:46:45.000Z</time>
      </trkpt>
      <trkpt lat="45.81952" lon="-1.2394">
        <ele>15.60000038147</ele>
        <time>2021-11-09T11:46:47.000Z</time>
      </trkpt>
      <trkpt lat="45.81952" lon="-1.2394">
        <ele>15.800000190735</ele>
        <time>2021-11-09T11:46:48.000Z</time>
      </trkpt>
      <trkpt lat="45.81958" lon="-1.2393">
        <ele>16.200000762939</ele>
        <time>2021-11-09T11:46:49.000Z</time>
      </trkpt>
      <trkpt lat="45.81963" lon="-1.23925">
        <ele>16.39999961853</ele>
        <time>2021-11-09T11:46:50.000Z</time>
      </trkpt>
      <trkpt lat="45.81971" lon="-1.23919">
        <ele>16.60000038147</ele>
        <time>2021-11-09T11:46:52.000Z</time>
      </trkpt>
      <trkpt lat="45.81992" lon="-1.239">
        <ele>17.200000762939</ele>
        <time>2021-11-09T11:46:55.000Z</time>
      </trkpt>
      <trkpt lat="45.82002" lon="-1.23888">
        <ele>17.39999961853</ele>
        <time>2021-11-09T11:46:57.000Z</time>
      </trkpt>
      <trkpt lat="45.82006" lon="-1.23882">
        <ele>17.60000038147</ele>
        <time>2021-11-09T11:46:58.000Z</time>
      </trkpt>
      <trkpt lat="45.8201" lon="-1.23875">
        <ele>17.60000038147</ele>
        <time>2021-11-09T11:46:59.000Z</time>
      </trkpt>
      <trkpt lat="45.82015" lon="-1.23863">
        <ele>17.799999237061</ele>
        <time>2021-11-09T11:47:01.000Z</time>
      </trkpt>
      <trkpt lat="45.82018" lon="-1.23857">
        <ele>17.799999237061</ele>
        <time>2021-11-09T11:47:02.000Z</time>
      </trkpt>
      <trkpt lat="45.82021" lon="-1.23852">
        <ele>17.799999237061</ele>
        <time>2021-11-09T11:47:03.000Z</time>
      </trkpt>
      <trkpt lat="45.82029" lon="-1.23839">
        <ele>17.799999237061</ele>
        <time>2021-11-09T11:47:05.000Z</time>
      </trkpt>
      <trkpt lat="45.82031" lon="-1.23833">
        <ele>17.799999237061</ele>
        <time>2021-11-09T11:47:06.000Z</time>
      </trkpt>
      <trkpt lat="45.82041" lon="-1.23792">
        <ele>17.799999237061</ele>
        <time>2021-11-09T11:47:11.000Z</time>
      </trkpt>
      <trkpt lat="45.82043" lon="-1.23784">
        <ele>17.799999237061</ele>
        <time>2021-11-09T11:47:12.000Z</time>
      </trkpt>
      <trkpt lat="45.82043" lon="-1.23779">
        <ele>17.799999237061</ele>
        <time>2021-11-09T11:47:13.000Z</time>
      </trkpt>
      <trkpt lat="45.82039" lon="-1.23767">
        <ele>17.799999237061</ele>
        <time>2021-11-09T11:47:15.000Z</time>
      </trkpt>
      <trkpt lat="45.82032" lon="-1.23764">
        <ele>18</ele>
        <time>2021-11-09T11:47:17.000Z</time>
      </trkpt>
      <trkpt lat="45.82028" lon="-1.23765">
        <ele>18</ele>
        <time>2021-11-09T11:47:18.000Z</time>
      </trkpt>
      <trkpt lat="45.8202" lon="-1.23766">
        <ele>18.200000762939</ele>
        <time>2021-11-09T11:47:20.000Z</time>
      </trkpt>
      <trkpt lat="45.82011" lon="-1.23761">
        <ele>18.200000762939</ele>
        <time>2021-11-09T11:47:22.000Z</time>
      </trkpt>
      <trkpt lat="45.82006" lon="-1.23757">
        <ele>18.200000762939</ele>
        <time>2021-11-09T11:47:23.000Z</time>
      </trkpt>
      <trkpt lat="45.81997" lon="-1.23751">
        <ele>18</ele>
        <time>2021-11-09T11:47:26.000Z</time>
      </trkpt>
      <trkpt lat="45.81983" lon="-1.23746">
        <ele>18.200000762939</ele>
        <time>2021-11-09T11:47:28.000Z</time>
      </trkpt>
      <trkpt lat="45.81979" lon="-1.23746">
        <ele>18.200000762939</ele>
        <time>2021-11-09T11:47:29.000Z</time>
      </trkpt>
      <trkpt lat="45.81973" lon="-1.23748">
        <ele>18.200000762939</ele>
        <time>2021-11-09T11:47:30.000Z</time>
      </trkpt>
      <trkpt lat="45.81952" lon="-1.23754">
        <ele>18</ele>
        <time>2021-11-09T11:47:34.000Z</time>
      </trkpt>
      <trkpt lat="45.81939" lon="-1.23755">
        <ele>18</ele>
        <time>2021-11-09T11:47:36.000Z</time>
      </trkpt>
      <trkpt lat="45.81926" lon="-1.23755">
        <ele>18</ele>
        <time>2021-11-09T11:47:38.000Z</time>
      </trkpt>
      <trkpt lat="45.81917" lon="-1.23758">
        <ele>17.799999237061</ele>
        <time>2021-11-09T11:47:40.000Z</time>
      </trkpt>
      <trkpt lat="45.81903" lon="-1.23762">
        <ele>17.39999961853</ele>
        <time>2021-11-09T11:47:42.000Z</time>
      </trkpt>
      <trkpt lat="45.81887" lon="-1.23764">
        <ele>17.39999961853</ele>
        <time>2021-11-09T11:47:45.000Z</time>
      </trkpt>
      <trkpt lat="45.81875" lon="-1.23762">
        <ele>17.60000038147</ele>
        <time>2021-11-09T11:47:48.000Z</time>
      </trkpt>
      <trkpt lat="45.81834" lon="-1.23757">
        <ele>17.60000038147</ele>
        <time>2021-11-09T11:47:54.000Z</time>
      </trkpt>
      <trkpt lat="45.81815" lon="-1.23762">
        <ele>17.60000038147</ele>
        <time>2021-11-09T11:47:58.000Z</time>
      </trkpt>
      <trkpt lat="45.81791" lon="-1.23774">
        <ele>17.39999961853</ele>
        <time>2021-11-09T11:48:02.000Z</time>
      </trkpt>
      <trkpt lat="45.8178" lon="-1.23797">
        <ele>17.39999961853</ele>
        <time>2021-11-09T11:48:05.000Z</time>
      </trkpt>
      <trkpt lat="45.81771" lon="-1.2382">
        <ele>17.799999237061</ele>
        <time>2021-11-09T11:48:08.000Z</time>
      </trkpt>
      <trkpt lat="45.81762" lon="-1.23831">
        <ele>18</ele>
        <time>2021-11-09T11:48:10.000Z</time>
      </trkpt>
      <trkpt lat="45.81753" lon="-1.23839">
        <ele>18.200000762939</ele>
        <time>2021-11-09T11:48:12.000Z</time>
      </trkpt>
      <trkpt lat="45.81744" lon="-1.23846">
        <ele>18.39999961853</ele>
        <time>2021-11-09T11:48:14.000Z</time>
      </trkpt>
      <trkpt lat="45.8174" lon="-1.2385">
        <ele>18.200000762939</ele>
        <time>2021-11-09T11:48:15.000Z</time>
      </trkpt>
      <trkpt lat="45.81731" lon="-1.23853">
        <ele>18.200000762939</ele>
        <time>2021-11-09T11:48:17.000Z</time>
      </trkpt>
      <trkpt lat="45.81726" lon="-1.23853">
        <ele>18.200000762939</ele>
        <time>2021-11-09T11:48:18.000Z</time>
      </trkpt>
      <trkpt lat="45.81707" lon="-1.23851">
        <ele>18.200000762939</ele>
        <time>2021-11-09T11:48:21.000Z</time>
      </trkpt>
      <trkpt lat="45.81691" lon="-1.23855">
        <ele>18.200000762939</ele>
        <time>2021-11-09T11:48:24.000Z</time>
      </trkpt>
      <trkpt lat="45.81685" lon="-1.23857">
        <ele>18.200000762939</ele>
        <time>2021-11-09T11:48:25.000Z</time>
      </trkpt>
      <trkpt lat="45.81668" lon="-1.23858">
        <ele>18.39999961853</ele>
        <time>2021-11-09T11:48:28.000Z</time>
      </trkpt>
      <trkpt lat="45.81654" lon="-1.23854">
        <ele>18.39999961853</ele>
        <time>2021-11-09T11:48:30.000Z</time>
      </trkpt>
      <trkpt lat="45.8163" lon="-1.23848">
        <ele>18.39999961853</ele>
        <time>2021-11-09T11:48:34.000Z</time>
      </trkpt>
      <trkpt lat="45.81621" lon="-1.23847">
        <ele>18.200000762939</ele>
        <time>2021-11-09T11:48:36.000Z</time>
      </trkpt>
      <trkpt lat="45.81594" lon="-1.23841">
        <ele>18.200000762939</ele>
        <time>2021-11-09T11:48:41.000Z</time>
      </trkpt>
      <trkpt lat="45.8159" lon="-1.2384">
        <ele>18.200000762939</ele>
        <time>2021-11-09T11:48:42.000Z</time>
      </trkpt>
      <trkpt lat="45.81585" lon="-1.23839">
        <ele>18.200000762939</ele>
        <time>2021-11-09T11:48:43.000Z</time>
      </trkpt>
      <trkpt lat="45.81574" lon="-1.23838">
        <ele>18.200000762939</ele>
        <time>2021-11-09T11:48:45.000Z</time>
      </trkpt>
      <trkpt lat="45.81566" lon="-1.23837">
        <ele>18.39999961853</ele>
        <time>2021-11-09T11:48:46.000Z</time>
      </trkpt>
      <trkpt lat="45.8156" lon="-1.23837">
        <ele>18.39999961853</ele>
        <time>2021-11-09T11:48:47.000Z</time>
      </trkpt>
      <trkpt lat="45.81542" lon="-1.23828">
        <ele>18.39999961853</ele>
        <time>2021-11-09T11:48:50.000Z</time>
      </trkpt>
      <trkpt lat="45.81537" lon="-1.23825">
        <ele>18.39999961853</ele>
        <time>2021-11-09T11:48:51.000Z</time>
      </trkpt>
      <trkpt lat="45.81527" lon="-1.2383">
        <ele>18.200000762939</ele>
        <time>2021-11-09T11:48:53.000Z</time>
      </trkpt>
      <trkpt lat="45.8151" lon="-1.23843">
        <ele>18.39999961853</ele>
        <time>2021-11-09T11:48:56.000Z</time>
      </trkpt>
      <trkpt lat="45.81505" lon="-1.23845">
        <ele>18.39999961853</ele>
        <time>2021-11-09T11:48:57.000Z</time>
      </trkpt>
      <trkpt lat="45.81499" lon="-1.23846">
        <ele>18.39999961853</ele>
        <time>2021-11-09T11:48:58.000Z</time>
      </trkpt>
      <trkpt lat="45.81489" lon="-1.23847">
        <ele>18.799999237061</ele>
        <time>2021-11-09T11:49:00.000Z</time>
      </trkpt>
      <trkpt lat="45.81478" lon="-1.23849">
        <ele>19.200000762939</ele>
        <time>2021-11-09T11:49:02.000Z</time>
      </trkpt>
      <trkpt lat="45.81463" lon="-1.23846">
        <ele>19.39999961853</ele>
        <time>2021-11-09T11:49:05.000Z</time>
      </trkpt>
      <trkpt lat="45.81452" lon="-1.23841">
        <ele>19.200000762939</ele>
        <time>2021-11-09T11:49:07.000Z</time>
      </trkpt>
      <trkpt lat="45.81432" lon="-1.23833">
        <ele>18.60000038147</ele>
        <time>2021-11-09T11:49:11.000Z</time>
      </trkpt>
      <trkpt lat="45.81421" lon="-1.2383">
        <ele>18.39999961853</ele>
        <time>2021-11-09T11:49:13.000Z</time>
      </trkpt>
      <trkpt lat="45.81415" lon="-1.23829">
        <ele>18.39999961853</ele>
        <time>2021-11-09T11:49:14.000Z</time>
      </trkpt>
      <trkpt lat="45.81399" lon="-1.23825">
        <ele>18.39999961853</ele>
        <time>2021-11-09T11:49:17.000Z</time>
      </trkpt>
      <trkpt lat="45.81393" lon="-1.23826">
        <ele>18.200000762939</ele>
        <time>2021-11-09T11:49:18.000Z</time>
      </trkpt>
      <trkpt lat="45.81378" lon="-1.23827">
        <ele>18.60000038147</ele>
        <time>2021-11-09T11:49:21.000Z</time>
      </trkpt>
      <trkpt lat="45.81373" lon="-1.23825">
        <ele>18.799999237061</ele>
        <time>2021-11-09T11:49:22.000Z</time>
      </trkpt>
      <trkpt lat="45.81362" lon="-1.2382">
        <ele>19</ele>
        <time>2021-11-09T11:49:24.000Z</time>
      </trkpt>
      <trkpt lat="45.81349" lon="-1.23821">
        <ele>19</ele>
        <time>2021-11-09T11:49:26.000Z</time>
      </trkpt>
      <trkpt lat="45.81323" lon="-1.2382">
        <ele>19</ele>
        <time>2021-11-09T11:49:30.000Z</time>
      </trkpt>
      <trkpt lat="45.81316" lon="-1.2382">
        <ele>19</ele>
        <time>2021-11-09T11:49:31.000Z</time>
      </trkpt>
      <trkpt lat="45.8131" lon="-1.23819">
        <ele>19</ele>
        <time>2021-11-09T11:49:32.000Z</time>
      </trkpt>
      <trkpt lat="45.81288" lon="-1.23812">
        <ele>18.799999237061</ele>
        <time>2021-11-09T11:49:35.000Z</time>
      </trkpt>
      <trkpt lat="45.81255" lon="-1.23805">
        <ele>18.200000762939</ele>
        <time>2021-11-09T11:49:40.000Z</time>
      </trkpt>
      <trkpt lat="45.8125" lon="-1.23803">
        <ele>18</ele>
        <time>2021-11-09T11:49:41.000Z</time>
      </trkpt>
      <trkpt lat="45.81246" lon="-1.23801">
        <ele>17.799999237061</ele>
        <time>2021-11-09T11:49:42.000Z</time>
      </trkpt>
      <trkpt lat="45.81233" lon="-1.23793">
        <ele>17.39999961853</ele>
        <time>2021-11-09T11:49:44.000Z</time>
      </trkpt>
      <trkpt lat="45.81226" lon="-1.23787">
        <ele>17.39999961853</ele>
        <time>2021-11-09T11:49:45.000Z</time>
      </trkpt>
      <trkpt lat="45.81219" lon="-1.23782">
        <ele>17.39999961853</ele>
        <time>2021-11-09T11:49:46.000Z</time>
      </trkpt>
      <trkpt lat="45.81212" lon="-1.23782">
        <ele>17.200000762939</ele>
        <time>2021-11-09T11:49:48.000Z</time>
      </trkpt>
      <trkpt lat="45.81201" lon="-1.23781">
        <ele>17</ele>
        <time>2021-11-09T11:49:49.000Z</time>
      </trkpt>
      <trkpt lat="45.8119" lon="-1.23775">
        <ele>17.200000762939</ele>
        <time>2021-11-09T11:49:51.000Z</time>
      </trkpt>
      <trkpt lat="45.81173" lon="-1.23769">
        <ele>16.799999237061</ele>
        <time>2021-11-09T11:49:54.000Z</time>
      </trkpt>
      <trkpt lat="45.81162" lon="-1.23765">
        <ele>16.39999961853</ele>
        <time>2021-11-09T11:49:56.000Z</time>
      </trkpt>
      <trkpt lat="45.81157" lon="-1.23765">
        <ele>16.200000762939</ele>
        <time>2021-11-09T11:49:57.000Z</time>
      </trkpt>
      <trkpt lat="45.81121" lon="-1.23773">
        <ele>15.800000190735</ele>
        <time>2021-11-09T11:50:03.000Z</time>
      </trkpt>
      <trkpt lat="45.81109" lon="-1.23771">
        <ele>15.800000190735</ele>
        <time>2021-11-09T11:50:05.000Z</time>
      </trkpt>
      <trkpt lat="45.81101" lon="-1.23766">
        <ele>15.800000190735</ele>
        <time>2021-11-09T11:50:07.000Z</time>
      </trkpt>
      <trkpt lat="45.81095" lon="-1.23763">
        <ele>15.800000190735</ele>
        <time>2021-11-09T11:50:08.000Z</time>
      </trkpt>
      <trkpt lat="45.8109" lon="-1.2376">
        <ele>15.60000038147</ele>
        <time>2021-11-09T11:50:09.000Z</time>
      </trkpt>
      <trkpt lat="45.81081" lon="-1.23759">
        <ele>15.800000190735</ele>
        <time>2021-11-09T11:50:11.000Z</time>
      </trkpt>
      <trkpt lat="45.81066" lon="-1.2376">
        <ele>16</ele>
        <time>2021-11-09T11:50:15.000Z</time>
      </trkpt>
      <trkpt lat="45.81042" lon="-1.2376">
        <ele>16</ele>
        <time>2021-11-09T11:50:19.000Z</time>
      </trkpt>
      <trkpt lat="45.81031" lon="-1.2376">
        <ele>16</ele>
        <time>2021-11-09T11:50:21.000Z</time>
      </trkpt>
      <trkpt lat="45.81021" lon="-1.23756">
        <ele>16</ele>
        <time>2021-11-09T11:50:23.000Z</time>
      </trkpt>
      <trkpt lat="45.80997" lon="-1.23748">
        <ele>16</ele>
        <time>2021-11-09T11:50:27.000Z</time>
      </trkpt>
      <trkpt lat="45.80992" lon="-1.23745">
        <ele>16</ele>
        <time>2021-11-09T11:50:28.000Z</time>
      </trkpt>
      <trkpt lat="45.80986" lon="-1.23743">
        <ele>16.200000762939</ele>
        <time>2021-11-09T11:50:29.000Z</time>
      </trkpt>
      <trkpt lat="45.8097" lon="-1.23737">
        <ele>16.200000762939</ele>
        <time>2021-11-09T11:50:32.000Z</time>
      </trkpt>
      <trkpt lat="45.80967" lon="-1.23734">
        <ele>16</ele>
        <time>2021-11-09T11:50:33.000Z</time>
      </trkpt>
      <trkpt lat="45.80961" lon="-1.23716">
        <ele>16.200000762939</ele>
        <time>2021-11-09T11:50:37.000Z</time>
      </trkpt>
      <trkpt lat="45.80961" lon="-1.23711">
        <ele>16.200000762939</ele>
        <time>2021-11-09T11:50:38.000Z</time>
      </trkpt>
      <trkpt lat="45.8096" lon="-1.23696">
        <ele>16</ele>
        <time>2021-11-09T11:50:40.000Z</time>
      </trkpt>
      <trkpt lat="45.80964" lon="-1.23683">
        <ele>15.60000038147</ele>
        <time>2021-11-09T11:50:42.000Z</time>
      </trkpt>
      <trkpt lat="45.80968" lon="-1.23678">
        <ele>15.60000038147</ele>
        <time>2021-11-09T11:50:43.000Z</time>
      </trkpt>
      <trkpt lat="45.80973" lon="-1.23676">
        <ele>15.39999961853</ele>
        <time>2021-11-09T11:50:44.000Z</time>
      </trkpt>
      <trkpt lat="45.80982" lon="-1.23678">
        <ele>15.39999961853</ele>
        <time>2021-11-09T11:50:46.000Z</time>
      </trkpt>
      <trkpt lat="45.80986" lon="-1.2368">
        <ele>15.39999961853</ele>
        <time>2021-11-09T11:50:47.000Z</time>
      </trkpt>
      <trkpt lat="45.81001" lon="-1.23676">
        <ele>15.199999809265</ele>
        <time>2021-11-09T11:50:50.000Z</time>
      </trkpt>
      <trkpt lat="45.8101" lon="-1.23666">
        <ele>14.800000190735</ele>
        <time>2021-11-09T11:50:52.000Z</time>
      </trkpt>
      <trkpt lat="45.81011" lon="-1.2366">
        <ele>14.800000190735</ele>
        <time>2021-11-09T11:50:53.000Z</time>
      </trkpt>
      <trkpt lat="45.81013" lon="-1.23652">
        <ele>14.800000190735</ele>
        <time>2021-11-09T11:50:54.000Z</time>
      </trkpt>
      <trkpt lat="45.81014" lon="-1.23628">
        <ele>14.800000190735</ele>
        <time>2021-11-09T11:50:57.000Z</time>
      </trkpt>
      <trkpt lat="45.81015" lon="-1.23614">
        <ele>14.60000038147</ele>
        <time>2021-11-09T11:50:59.000Z</time>
      </trkpt>
      <trkpt lat="45.81015" lon="-1.23601">
        <ele>14.39999961853</ele>
        <time>2021-11-09T11:51:01.000Z</time>
      </trkpt>
      <trkpt lat="45.81016" lon="-1.23594">
        <ele>14.60000038147</ele>
        <time>2021-11-09T11:51:02.000Z</time>
      </trkpt>
      <trkpt lat="45.81018" lon="-1.23588">
        <ele>14.60000038147</ele>
        <time>2021-11-09T11:51:03.000Z</time>
      </trkpt>
      <trkpt lat="45.81022" lon="-1.23577">
        <ele>14.60000038147</ele>
        <time>2021-11-09T11:51:05.000Z</time>
      </trkpt>
      <trkpt lat="45.81024" lon="-1.23571">
        <ele>14.800000190735</ele>
        <time>2021-11-09T11:51:06.000Z</time>
      </trkpt>
      <trkpt lat="45.81026" lon="-1.23551">
        <ele>14.800000190735</ele>
        <time>2021-11-09T11:51:09.000Z</time>
      </trkpt>
      <trkpt lat="45.81034" lon="-1.23513">
        <ele>14.800000190735</ele>
        <time>2021-11-09T11:51:14.000Z</time>
      </trkpt>
      <trkpt lat="45.81041" lon="-1.23494">
        <ele>14.800000190735</ele>
        <time>2021-11-09T11:51:17.000Z</time>
      </trkpt>
      <trkpt lat="45.81041" lon="-1.23487">
        <ele>14.800000190735</ele>
        <time>2021-11-09T11:51:18.000Z</time>
      </trkpt>
      <trkpt lat="45.81037" lon="-1.2348">
        <ele>14.60000038147</ele>
        <time>2021-11-09T11:51:19.000Z</time>
      </trkpt>
      <trkpt lat="45.81029" lon="-1.23476">
        <ele>14.60000038147</ele>
        <time>2021-11-09T11:51:21.000Z</time>
      </trkpt>
      <trkpt lat="45.81016" lon="-1.23472">
        <ele>14.39999961853</ele>
        <time>2021-11-09T11:51:24.000Z</time>
      </trkpt>
      <trkpt lat="45.81008" lon="-1.23466">
        <ele>14.39999961853</ele>
        <time>2021-11-09T11:51:26.000Z</time>
      </trkpt>
      <trkpt lat="45.81004" lon="-1.23462">
        <ele>14.199999809265</ele>
        <time>2021-11-09T11:51:27.000Z</time>
      </trkpt>
      <trkpt lat="45.80996" lon="-1.23453">
        <ele>14.199999809265</ele>
        <time>2021-11-09T11:51:29.000Z</time>
      </trkpt>
      <trkpt lat="45.80995" lon="-1.23447">
        <ele>14.199999809265</ele>
        <time>2021-11-09T11:51:30.000Z</time>
      </trkpt>
      <trkpt lat="45.80993" lon="-1.23439">
        <ele>14</ele>
        <time>2021-11-09T11:51:31.000Z</time>
      </trkpt>
      <trkpt lat="45.80988" lon="-1.23417">
        <ele>14</ele>
        <time>2021-11-09T11:51:34.000Z</time>
      </trkpt>
      <trkpt lat="45.80981" lon="-1.23397">
        <ele>14.199999809265</ele>
        <time>2021-11-09T11:51:37.000Z</time>
      </trkpt>
      <trkpt lat="45.80974" lon="-1.23383">
        <ele>14.39999961853</ele>
        <time>2021-11-09T11:51:39.000Z</time>
      </trkpt>
      <trkpt lat="45.80972" lon="-1.23376">
        <ele>14.199999809265</ele>
        <time>2021-11-09T11:51:40.000Z</time>
      </trkpt>
      <trkpt lat="45.8096" lon="-1.23345">
        <ele>14</ele>
        <time>2021-11-09T11:51:44.000Z</time>
      </trkpt>
      <trkpt lat="45.80952" lon="-1.23324">
        <ele>14</ele>
        <time>2021-11-09T11:51:47.000Z</time>
      </trkpt>
      <trkpt lat="45.80939" lon="-1.23302">
        <ele>14</ele>
        <time>2021-11-09T11:51:50.000Z</time>
      </trkpt>
      <trkpt lat="45.8091" lon="-1.23264">
        <ele>14.39999961853</ele>
        <time>2021-11-09T11:51:56.000Z</time>
      </trkpt>
      <trkpt lat="45.80905" lon="-1.23251">
        <ele>14.39999961853</ele>
        <time>2021-11-09T11:51:58.000Z</time>
      </trkpt>
      <trkpt lat="45.80902" lon="-1.23242">
        <ele>14.39999961853</ele>
        <time>2021-11-09T11:51:59.000Z</time>
      </trkpt>
      <trkpt lat="45.80898" lon="-1.23233">
        <ele>14.39999961853</ele>
        <time>2021-11-09T11:52:01.000Z</time>
      </trkpt>
      <trkpt lat="45.80888" lon="-1.2322">
        <ele>14.60000038147</ele>
        <time>2021-11-09T11:52:03.000Z</time>
      </trkpt>
      <trkpt lat="45.8088" lon="-1.23214">
        <ele>14.60000038147</ele>
        <time>2021-11-09T11:52:05.000Z</time>
      </trkpt>
      <trkpt lat="45.80871" lon="-1.23204">
        <ele>14.60000038147</ele>
        <time>2021-11-09T11:52:07.000Z</time>
      </trkpt>
      <trkpt lat="45.8086" lon="-1.23187">
        <ele>14.60000038147</ele>
        <time>2021-11-09T11:52:10.000Z</time>
      </trkpt>
      <trkpt lat="45.80858" lon="-1.2318">
        <ele>14.60000038147</ele>
        <time>2021-11-09T11:52:11.000Z</time>
      </trkpt>
      <trkpt lat="45.80857" lon="-1.23173">
        <ele>14.60000038147</ele>
        <time>2021-11-09T11:52:12.000Z</time>
      </trkpt>
      <trkpt lat="45.80861" lon="-1.23159">
        <ele>14.60000038147</ele>
        <time>2021-11-09T11:52:14.000Z</time>
      </trkpt>
      <trkpt lat="45.80864" lon="-1.23143">
        <ele>14.39999961853</ele>
        <time>2021-11-09T11:52:16.000Z</time>
      </trkpt>
      <trkpt lat="45.80864" lon="-1.23133">
        <ele>14.39999961853</ele>
        <time>2021-11-09T11:52:17.000Z</time>
      </trkpt>
      <trkpt lat="45.8086" lon="-1.23118">
        <ele>14.39999961853</ele>
        <time>2021-11-09T11:52:19.000Z</time>
      </trkpt>
      <trkpt lat="45.80858" lon="-1.23112">
        <ele>14.60000038147</ele>
        <time>2021-11-09T11:52:20.000Z</time>
      </trkpt>
      <trkpt lat="45.80854" lon="-1.23106">
        <ele>14.60000038147</ele>
        <time>2021-11-09T11:52:21.000Z</time>
      </trkpt>
      <trkpt lat="45.80848" lon="-1.23093">
        <ele>14.60000038147</ele>
        <time>2021-11-09T11:52:23.000Z</time>
      </trkpt>
      <trkpt lat="45.80842" lon="-1.23079">
        <ele>14.39999961853</ele>
        <time>2021-11-09T11:52:25.000Z</time>
      </trkpt>
      <trkpt lat="45.80841" lon="-1.23073">
        <ele>14.39999961853</ele>
        <time>2021-11-09T11:52:26.000Z</time>
      </trkpt>
      <trkpt lat="45.80832" lon="-1.23042">
        <ele>14.39999961853</ele>
        <time>2021-11-09T11:52:29.000Z</time>
      </trkpt>
      <trkpt lat="45.80827" lon="-1.23027">
        <ele>14.39999961853</ele>
        <time>2021-11-09T11:52:31.000Z</time>
      </trkpt>
      <trkpt lat="45.80823" lon="-1.23005">
        <ele>14.199999809265</ele>
        <time>2021-11-09T11:52:34.000Z</time>
      </trkpt>
      <trkpt lat="45.80822" lon="-1.23001">
        <ele>14</ele>
        <time>2021-11-09T11:52:35.000Z</time>
      </trkpt>
      <trkpt lat="45.80822" lon="-1.22986">
        <ele>14</ele>
        <time>2021-11-09T11:52:38.000Z</time>
      </trkpt>
      <trkpt lat="45.80823" lon="-1.22959">
        <ele>13.60000038147</ele>
        <time>2021-11-09T11:52:42.000Z</time>
      </trkpt>
      <trkpt lat="45.80824" lon="-1.22931">
        <ele>14.199999809265</ele>
        <time>2021-11-09T11:52:47.000Z</time>
      </trkpt>
      <trkpt lat="45.80826" lon="-1.229">
        <ele>14</ele>
        <time>2021-11-09T11:52:52.000Z</time>
      </trkpt>
      <trkpt lat="45.80835" lon="-1.22854">
        <ele>14.60000038147</ele>
        <time>2021-11-09T11:53:00.000Z</time>
      </trkpt>
      <trkpt lat="45.80838" lon="-1.22847">
        <ele>14.800000190735</ele>
        <time>2021-11-09T11:53:01.000Z</time>
      </trkpt>
      <trkpt lat="45.80852" lon="-1.22828">
        <ele>15.199999809265</ele>
        <time>2021-11-09T11:53:04.000Z</time>
      </trkpt>
      <trkpt lat="45.80862" lon="-1.22806">
        <ele>15.199999809265</ele>
        <time>2021-11-09T11:53:07.000Z</time>
      </trkpt>
      <trkpt lat="45.80863" lon="-1.2279">
        <ele>14.800000190735</ele>
        <time>2021-11-09T11:53:09.000Z</time>
      </trkpt>
      <trkpt lat="45.80858" lon="-1.22775">
        <ele>14.199999809265</ele>
        <time>2021-11-09T11:53:12.000Z</time>
      </trkpt>
      <trkpt lat="45.80841" lon="-1.22752">
        <ele>14.39999961853</ele>
        <time>2021-11-09T11:53:17.000Z</time>
      </trkpt>
      <trkpt lat="45.80825" lon="-1.2274">
        <ele>15</ele>
        <time>2021-11-09T11:53:22.000Z</time>
      </trkpt>
      <trkpt lat="45.80824" lon="-1.22737">
        <ele>15</ele>
        <time>2021-11-09T11:53:23.000Z</time>
      </trkpt>
      <trkpt lat="45.80828" lon="-1.2273">
        <ele>15</ele>
        <time>2021-11-09T11:53:25.000Z</time>
      </trkpt>
      <trkpt lat="45.80843" lon="-1.22716">
        <ele>14.800000190735</ele>
        <time>2021-11-09T11:53:29.000Z</time>
      </trkpt>
      <trkpt lat="45.80845" lon="-1.22712">
        <ele>14.800000190735</ele>
        <time>2021-11-09T11:53:30.000Z</time>
      </trkpt>
      <trkpt lat="45.80851" lon="-1.22701">
        <ele>14.800000190735</ele>
        <time>2021-11-09T11:53:32.000Z</time>
      </trkpt>
      <trkpt lat="45.80861" lon="-1.22689">
        <ele>14.800000190735</ele>
        <time>2021-11-09T11:53:34.000Z</time>
      </trkpt>
      <trkpt lat="45.80878" lon="-1.22673">
        <ele>15.199999809265</ele>
        <time>2021-11-09T11:53:37.000Z</time>
      </trkpt>
      <trkpt lat="45.8089" lon="-1.22664">
        <ele>15</ele>
        <time>2021-11-09T11:53:39.000Z</time>
      </trkpt>
      <trkpt lat="45.80901" lon="-1.22657">
        <ele>15</ele>
        <time>2021-11-09T11:53:41.000Z</time>
      </trkpt>
      <trkpt lat="45.80914" lon="-1.22651">
        <ele>14.800000190735</ele>
        <time>2021-11-09T11:53:43.000Z</time>
      </trkpt>
      <trkpt lat="45.80921" lon="-1.22644">
        <ele>14.60000038147</ele>
        <time>2021-11-09T11:53:44.000Z</time>
      </trkpt>
      <trkpt lat="45.80924" lon="-1.22638">
        <ele>14.60000038147</ele>
        <time>2021-11-09T11:53:45.000Z</time>
      </trkpt>
      <trkpt lat="45.80934" lon="-1.22617">
        <ele>14.199999809265</ele>
        <time>2021-11-09T11:53:48.000Z</time>
      </trkpt>
      <trkpt lat="45.80938" lon="-1.2261">
        <ele>14.199999809265</ele>
        <time>2021-11-09T11:53:49.000Z</time>
      </trkpt>
      <trkpt lat="45.80941" lon="-1.22606">
        <ele>14</ele>
        <time>2021-11-09T11:53:50.000Z</time>
      </trkpt>
      <trkpt lat="45.80947" lon="-1.22593">
        <ele>14</ele>
        <time>2021-11-09T11:53:52.000Z</time>
      </trkpt>
      <trkpt lat="45.80953" lon="-1.22582">
        <ele>14</ele>
        <time>2021-11-09T11:53:54.000Z</time>
      </trkpt>
      <trkpt lat="45.80956" lon="-1.22577">
        <ele>14</ele>
        <time>2021-11-09T11:53:55.000Z</time>
      </trkpt>
      <trkpt lat="45.80965" lon="-1.22567">
        <ele>13.800000190735</ele>
        <time>2021-11-09T11:53:57.000Z</time>
      </trkpt>
      <trkpt lat="45.8098" lon="-1.22555">
        <ele>13.800000190735</ele>
        <time>2021-11-09T11:54:00.000Z</time>
      </trkpt>
      <trkpt lat="45.81017" lon="-1.22527">
        <ele>13.39999961853</ele>
        <time>2021-11-09T11:54:08.000Z</time>
      </trkpt>
      <trkpt lat="45.81031" lon="-1.22518">
        <ele>13</ele>
        <time>2021-11-09T11:54:11.000Z</time>
      </trkpt>
      <trkpt lat="45.81037" lon="-1.2251">
        <ele>13</ele>
        <time>2021-11-09T11:54:13.000Z</time>
      </trkpt>
      <trkpt lat="45.81053" lon="-1.22484">
        <ele>12</ele>
        <time>2021-11-09T11:54:19.000Z</time>
      </trkpt>
      <trkpt lat="45.81056" lon="-1.22478">
        <ele>11.800000190735</ele>
        <time>2021-11-09T11:54:20.000Z</time>
      </trkpt>
      <trkpt lat="45.81071" lon="-1.22457">
        <ele>11</ele>
        <time>2021-11-09T11:54:24.000Z</time>
      </trkpt>
      <trkpt lat="45.81074" lon="-1.22451">
        <ele>10.800000190735</ele>
        <time>2021-11-09T11:54:25.000Z</time>
      </trkpt>
      <trkpt lat="45.81082" lon="-1.22437">
        <ele>10.39999961853</ele>
        <time>2021-11-09T11:54:28.000Z</time>
      </trkpt>
      <trkpt lat="45.81094" lon="-1.22425">
        <ele>10</ele>
        <time>2021-11-09T11:54:31.000Z</time>
      </trkpt>
      <trkpt lat="45.81098" lon="-1.22422">
        <ele>10</ele>
        <time>2021-11-09T11:54:32.000Z</time>
      </trkpt>
      <trkpt lat="45.81103" lon="-1.22419">
        <ele>9.8000001907349</ele>
        <time>2021-11-09T11:54:33.000Z</time>
      </trkpt>
      <trkpt lat="45.8112" lon="-1.22406">
        <ele>9.8000001907349</ele>
        <time>2021-11-09T11:54:37.000Z</time>
      </trkpt>
      <trkpt lat="45.81147" lon="-1.22376">
        <ele>10</ele>
        <time>2021-11-09T11:54:44.000Z</time>
      </trkpt>
      <trkpt lat="45.81166" lon="-1.22346">
        <ele>10</ele>
        <time>2021-11-09T11:54:51.000Z</time>
      </trkpt>
      <trkpt lat="45.81177" lon="-1.22329">
        <ele>9.1999998092651</ele>
        <time>2021-11-09T11:54:55.000Z</time>
      </trkpt>
      <trkpt lat="45.81197" lon="-1.22295">
        <ele>8.8000001907349</ele>
        <time>2021-11-09T11:55:02.000Z</time>
      </trkpt>
      <trkpt lat="45.81211" lon="-1.22274">
        <ele>8.6000003814697</ele>
        <time>2021-11-09T11:55:06.000Z</time>
      </trkpt>
      <trkpt lat="45.81217" lon="-1.22265">
        <ele>8.8000001907349</ele>
        <time>2021-11-09T11:55:07.000Z</time>
      </trkpt>
      <trkpt lat="45.81221" lon="-1.22258">
        <ele>8.8000001907349</ele>
        <time>2021-11-09T11:55:08.000Z</time>
      </trkpt>
      <trkpt lat="45.81235" lon="-1.22231">
        <ele>8.6000003814697</ele>
        <time>2021-11-09T11:55:12.000Z</time>
      </trkpt>
      <trkpt lat="45.81244" lon="-1.22213">
        <ele>8.8000001907349</ele>
        <time>2021-11-09T11:55:15.000Z</time>
      </trkpt>
      <trkpt lat="45.81254" lon="-1.22195">
        <ele>8.8000001907349</ele>
        <time>2021-11-09T11:55:18.000Z</time>
      </trkpt>
      <trkpt lat="45.81261" lon="-1.22186">
        <ele>8.6000003814697</ele>
        <time>2021-11-09T11:55:20.000Z</time>
      </trkpt>
      <trkpt lat="45.81276" lon="-1.22167">
        <ele>8.6000003814697</ele>
        <time>2021-11-09T11:55:24.000Z</time>
      </trkpt>
      <trkpt lat="45.81281" lon="-1.22161">
        <ele>8.8000001907349</ele>
        <time>2021-11-09T11:55:25.000Z</time>
      </trkpt>
      <trkpt lat="45.81292" lon="-1.22142">
        <ele>9.3999996185303</ele>
        <time>2021-11-09T11:55:29.000Z</time>
      </trkpt>
      <trkpt lat="45.81297" lon="-1.22137">
        <ele>9.3999996185303</ele>
        <time>2021-11-09T11:55:30.000Z</time>
      </trkpt>
      <trkpt lat="45.81304" lon="-1.2213">
        <ele>9.6000003814697</ele>
        <time>2021-11-09T11:55:33.000Z</time>
      </trkpt>
      <trkpt lat="45.81311" lon="-1.22126">
        <ele>9.8000001907349</ele>
        <time>2021-11-09T11:55:34.000Z</time>
      </trkpt>
      <trkpt lat="45.81315" lon="-1.22125">
        <ele>10</ele>
        <time>2021-11-09T11:55:35.000Z</time>
      </trkpt>
      <trkpt lat="45.81329" lon="-1.22122">
        <ele>10.39999961853</ele>
        <time>2021-11-09T11:55:39.000Z</time>
      </trkpt>
      <trkpt lat="45.81336" lon="-1.22121">
        <ele>10.800000190735</ele>
        <time>2021-11-09T11:55:40.000Z</time>
      </trkpt>
      <trkpt lat="45.81349" lon="-1.22117">
        <ele>11.199999809265</ele>
        <time>2021-11-09T11:55:43.000Z</time>
      </trkpt>
      <trkpt lat="45.81369" lon="-1.22117">
        <ele>11.800000190735</ele>
        <time>2021-11-09T11:55:47.000Z</time>
      </trkpt>
      <trkpt lat="45.81372" lon="-1.22123">
        <ele>11.800000190735</ele>
        <time>2021-11-09T11:55:48.000Z</time>
      </trkpt>
      <trkpt lat="45.81386" lon="-1.22147">
        <ele>13</ele>
        <time>2021-11-09T11:55:53.000Z</time>
      </trkpt>
      <trkpt lat="45.81394" lon="-1.22178">
        <ele>14.199999809265</ele>
        <time>2021-11-09T11:55:58.000Z</time>
      </trkpt>
      <trkpt lat="45.81399" lon="-1.22199">
        <ele>14.60000038147</ele>
        <time>2021-11-09T11:56:01.000Z</time>
      </trkpt>
      <trkpt lat="45.81402" lon="-1.22204">
        <ele>14.800000190735</ele>
        <time>2021-11-09T11:56:02.000Z</time>
      </trkpt>
      <trkpt lat="45.81414" lon="-1.22235">
        <ele>15</ele>
        <time>2021-11-09T11:56:08.000Z</time>
      </trkpt>
      <trkpt lat="45.81416" lon="-1.2224">
        <ele>15.199999809265</ele>
        <time>2021-11-09T11:56:09.000Z</time>
      </trkpt>
      <trkpt lat="45.81419" lon="-1.22245">
        <ele>15.199999809265</ele>
        <time>2021-11-09T11:56:10.000Z</time>
      </trkpt>
      <trkpt lat="45.81427" lon="-1.22256">
        <ele>15.60000038147</ele>
        <time>2021-11-09T11:56:12.000Z</time>
      </trkpt>
      <trkpt lat="45.81434" lon="-1.22263">
        <ele>16.60000038147</ele>
        <time>2021-11-09T11:56:14.000Z</time>
      </trkpt>
      <trkpt lat="45.81447" lon="-1.22272">
        <ele>17</ele>
        <time>2021-11-09T11:56:17.000Z</time>
      </trkpt>
      <trkpt lat="45.81456" lon="-1.2228">
        <ele>17.200000762939</ele>
        <time>2021-11-09T11:56:19.000Z</time>
      </trkpt>
      <trkpt lat="45.81459" lon="-1.22291">
        <ele>17.39999961853</ele>
        <time>2021-11-09T11:56:21.000Z</time>
      </trkpt>
      <trkpt lat="45.81461" lon="-1.22294">
        <ele>17.60000038147</ele>
        <time>2021-11-09T11:56:22.000Z</time>
      </trkpt>
      <trkpt lat="45.81462" lon="-1.22295">
        <ele>17.799999237061</ele>
        <time>2021-11-09T11:56:23.000Z</time>
      </trkpt>
      <trkpt lat="45.81474" lon="-1.22283">
        <ele>17.799999237061</ele>
        <time>2021-11-09T11:56:27.000Z</time>
      </trkpt>
      <trkpt lat="45.81483" lon="-1.22276">
        <ele>18</ele>
        <time>2021-11-09T11:56:29.000Z</time>
      </trkpt>
      <trkpt lat="45.81498" lon="-1.2226">
        <ele>18</ele>
        <time>2021-11-09T11:56:32.000Z</time>
      </trkpt>
      <trkpt lat="45.81507" lon="-1.22247">
        <ele>17.799999237061</ele>
        <time>2021-11-09T11:56:34.000Z</time>
      </trkpt>
      <trkpt lat="45.81515" lon="-1.2223">
        <ele>18.200000762939</ele>
        <time>2021-11-09T11:56:36.000Z</time>
      </trkpt>
      <trkpt lat="45.81522" lon="-1.22215">
        <ele>18.200000762939</ele>
        <time>2021-11-09T11:56:38.000Z</time>
      </trkpt>
      <trkpt lat="45.81529" lon="-1.22199">
        <ele>18.200000762939</ele>
        <time>2021-11-09T11:56:40.000Z</time>
      </trkpt>
      <trkpt lat="45.81533" lon="-1.2219">
        <ele>18.39999961853</ele>
        <time>2021-11-09T11:56:41.000Z</time>
      </trkpt>
      <trkpt lat="45.81536" lon="-1.22183">
        <ele>18.39999961853</ele>
        <time>2021-11-09T11:56:42.000Z</time>
      </trkpt>
      <trkpt lat="45.81548" lon="-1.22143">
        <ele>18.39999961853</ele>
        <time>2021-11-09T11:56:46.000Z</time>
      </trkpt>
      <trkpt lat="45.81552" lon="-1.22126">
        <ele>18.200000762939</ele>
        <time>2021-11-09T11:56:48.000Z</time>
      </trkpt>
      <trkpt lat="45.81558" lon="-1.22111">
        <ele>18.200000762939</ele>
        <time>2021-11-09T11:56:50.000Z</time>
      </trkpt>
      <trkpt lat="45.81562" lon="-1.22098">
        <ele>18.200000762939</ele>
        <time>2021-11-09T11:56:52.000Z</time>
      </trkpt>
      <trkpt lat="45.81568" lon="-1.22081">
        <ele>18</ele>
        <time>2021-11-09T11:56:54.000Z</time>
      </trkpt>
      <trkpt lat="45.81573" lon="-1.22067">
        <ele>18.200000762939</ele>
        <time>2021-11-09T11:56:56.000Z</time>
      </trkpt>
      <trkpt lat="45.81579" lon="-1.22041">
        <ele>18.200000762939</ele>
        <time>2021-11-09T11:56:59.000Z</time>
      </trkpt>
      <trkpt lat="45.81585" lon="-1.22029">
        <ele>18.200000762939</ele>
        <time>2021-11-09T11:57:01.000Z</time>
      </trkpt>
      <trkpt lat="45.81596" lon="-1.22005">
        <ele>18.60000038147</ele>
        <time>2021-11-09T11:57:05.000Z</time>
      </trkpt>
      <trkpt lat="45.81601" lon="-1.21984">
        <ele>18.60000038147</ele>
        <time>2021-11-09T11:57:08.000Z</time>
      </trkpt>
      <trkpt lat="45.81603" lon="-1.21969">
        <ele>18.60000038147</ele>
        <time>2021-11-09T11:57:10.000Z</time>
      </trkpt>
      <trkpt lat="45.81599" lon="-1.21954">
        <ele>18.60000038147</ele>
        <time>2021-11-09T11:57:12.000Z</time>
      </trkpt>
      <trkpt lat="45.81595" lon="-1.21947">
        <ele>18.39999961853</ele>
        <time>2021-11-09T11:57:13.000Z</time>
      </trkpt>
      <trkpt lat="45.81592" lon="-1.21942">
        <ele>18.200000762939</ele>
        <time>2021-11-09T11:57:14.000Z</time>
      </trkpt>
      <trkpt lat="45.81582" lon="-1.21924">
        <ele>18</ele>
        <time>2021-11-09T11:57:17.000Z</time>
      </trkpt>
      <trkpt lat="45.81573" lon="-1.21903">
        <ele>17.799999237061</ele>
        <time>2021-11-09T11:57:20.000Z</time>
      </trkpt>
      <trkpt lat="45.81561" lon="-1.21885">
        <ele>17.60000038147</ele>
        <time>2021-11-09T11:57:23.000Z</time>
      </trkpt>
      <trkpt lat="45.81553" lon="-1.21869">
        <ele>17.60000038147</ele>
        <time>2021-11-09T11:57:26.000Z</time>
      </trkpt>
      <trkpt lat="45.8153" lon="-1.21833">
        <ele>17.799999237061</ele>
        <time>2021-11-09T11:57:33.000Z</time>
      </trkpt>
      <trkpt lat="45.81526" lon="-1.21827">
        <ele>18.39999961853</ele>
        <time>2021-11-09T11:57:34.000Z</time>
      </trkpt>
      <trkpt lat="45.81508" lon="-1.21796">
        <ele>18.799999237061</ele>
        <time>2021-11-09T11:57:38.000Z</time>
      </trkpt>
      <trkpt lat="45.81501" lon="-1.21784">
        <ele>19</ele>
        <time>2021-11-09T11:57:40.000Z</time>
      </trkpt>
      <trkpt lat="45.81495" lon="-1.21773">
        <ele>18.60000038147</ele>
        <time>2021-11-09T11:57:42.000Z</time>
      </trkpt>
      <trkpt lat="45.81486" lon="-1.21758">
        <ele>18.60000038147</ele>
        <time>2021-11-09T11:57:44.000Z</time>
      </trkpt>
      <trkpt lat="45.8147" lon="-1.21736">
        <ele>18.39999961853</ele>
        <time>2021-11-09T11:57:48.000Z</time>
      </trkpt>
      <trkpt lat="45.81464" lon="-1.21724">
        <ele>18.60000038147</ele>
        <time>2021-11-09T11:57:50.000Z</time>
      </trkpt>
      <trkpt lat="45.81459" lon="-1.21714">
        <ele>18.60000038147</ele>
        <time>2021-11-09T11:57:52.000Z</time>
      </trkpt>
      <trkpt lat="45.81445" lon="-1.21694">
        <ele>18.60000038147</ele>
        <time>2021-11-09T11:57:56.000Z</time>
      </trkpt>
      <trkpt lat="45.81432" lon="-1.21674">
        <ele>18.799999237061</ele>
        <time>2021-11-09T11:58:00.000Z</time>
      </trkpt>
      <trkpt lat="45.81422" lon="-1.21657">
        <ele>18.799999237061</ele>
        <time>2021-11-09T11:58:04.000Z</time>
      </trkpt>
      <trkpt lat="45.81416" lon="-1.21643">
        <ele>19.39999961853</ele>
        <time>2021-11-09T11:58:08.000Z</time>
      </trkpt>
      <trkpt lat="45.81416" lon="-1.21642">
        <ele>19.799999237061</ele>
        <time>2021-11-09T11:58:13.000Z</time>
      </trkpt>
      <trkpt lat="45.81413" lon="-1.21635">
        <ele>20</ele>
        <time>2021-11-09T11:58:15.000Z</time>
      </trkpt>
      <trkpt lat="45.81415" lon="-1.21627">
        <ele>20</ele>
        <time>2021-11-09T11:58:17.000Z</time>
      </trkpt>
      <trkpt lat="45.81417" lon="-1.21624">
        <ele>20</ele>
        <time>2021-11-09T11:58:18.000Z</time>
      </trkpt>
      <trkpt lat="45.81423" lon="-1.21625">
        <ele>20.200000762939</ele>
        <time>2021-11-09T11:58:20.000Z</time>
      </trkpt>
      <trkpt lat="45.81437" lon="-1.21621">
        <ele>20.200000762939</ele>
        <time>2021-11-09T11:58:24.000Z</time>
      </trkpt>
      <trkpt lat="45.81454" lon="-1.21608">
        <ele>20</ele>
        <time>2021-11-09T11:58:28.000Z</time>
      </trkpt>
      <trkpt lat="45.81459" lon="-1.21606">
        <ele>20</ele>
        <time>2021-11-09T11:58:29.000Z</time>
      </trkpt>
      <trkpt lat="45.81466" lon="-1.21603">
        <ele>20</ele>
        <time>2021-11-09T11:58:30.000Z</time>
      </trkpt>
      <trkpt lat="45.81479" lon="-1.21598">
        <ele>19.799999237061</ele>
        <time>2021-11-09T11:58:32.000Z</time>
      </trkpt>
      <trkpt lat="45.81483" lon="-1.21595">
        <ele>19.799999237061</ele>
        <time>2021-11-09T11:58:33.000Z</time>
      </trkpt>
      <trkpt lat="45.81493" lon="-1.21587">
        <ele>19</ele>
        <time>2021-11-09T11:58:35.000Z</time>
      </trkpt>
      <trkpt lat="45.81499" lon="-1.21583">
        <ele>18.60000038147</ele>
        <time>2021-11-09T11:58:36.000Z</time>
      </trkpt>
      <trkpt lat="45.81503" lon="-1.2158">
        <ele>18.60000038147</ele>
        <time>2021-11-09T11:58:37.000Z</time>
      </trkpt>
      <trkpt lat="45.81516" lon="-1.21573">
        <ele>18</ele>
        <time>2021-11-09T11:58:39.000Z</time>
      </trkpt>
      <trkpt lat="45.81523" lon="-1.2157">
        <ele>17.799999237061</ele>
        <time>2021-11-09T11:58:41.000Z</time>
      </trkpt>
      <trkpt lat="45.81526" lon="-1.21568">
        <ele>17.60000038147</ele>
        <time>2021-11-09T11:58:42.000Z</time>
      </trkpt>
      <trkpt lat="45.81535" lon="-1.21557">
        <ele>17.200000762939</ele>
        <time>2021-11-09T11:58:44.000Z</time>
      </trkpt>
      <trkpt lat="45.81539" lon="-1.21551">
        <ele>17</ele>
        <time>2021-11-09T11:58:45.000Z</time>
      </trkpt>
      <trkpt lat="45.81547" lon="-1.2154">
        <ele>16.799999237061</ele>
        <time>2021-11-09T11:58:47.000Z</time>
      </trkpt>
      <trkpt lat="45.81552" lon="-1.21535">
        <ele>16.799999237061</ele>
        <time>2021-11-09T11:58:48.000Z</time>
      </trkpt>
      <trkpt lat="45.81557" lon="-1.21531">
        <ele>16.799999237061</ele>
        <time>2021-11-09T11:58:49.000Z</time>
      </trkpt>
      <trkpt lat="45.81568" lon="-1.21523">
        <ele>16.39999961853</ele>
        <time>2021-11-09T11:58:52.000Z</time>
      </trkpt>
      <trkpt lat="45.8158" lon="-1.21509">
        <ele>16</ele>
        <time>2021-11-09T11:58:56.000Z</time>
      </trkpt>
      <trkpt lat="45.81582" lon="-1.21505">
        <ele>15.800000190735</ele>
        <time>2021-11-09T11:58:57.000Z</time>
      </trkpt>
      <trkpt lat="45.81592" lon="-1.21493">
        <ele>15</ele>
        <time>2021-11-09T11:59:00.000Z</time>
      </trkpt>
      <trkpt lat="45.81605" lon="-1.2148">
        <ele>14.39999961853</ele>
        <time>2021-11-09T11:59:03.000Z</time>
      </trkpt>
      <trkpt lat="45.81619" lon="-1.21464">
        <ele>14.199999809265</ele>
        <time>2021-11-09T11:59:06.000Z</time>
      </trkpt>
      <trkpt lat="45.81635" lon="-1.2144">
        <ele>13.800000190735</ele>
        <time>2021-11-09T11:59:10.000Z</time>
      </trkpt>
      <trkpt lat="45.81651" lon="-1.21422">
        <ele>13.199999809265</ele>
        <time>2021-11-09T11:59:14.000Z</time>
      </trkpt>
      <trkpt lat="45.81656" lon="-1.21419">
        <ele>13.199999809265</ele>
        <time>2021-11-09T11:59:15.000Z</time>
      </trkpt>
      <trkpt lat="45.81665" lon="-1.21417">
        <ele>13</ele>
        <time>2021-11-09T11:59:17.000Z</time>
      </trkpt>
      <trkpt lat="45.8167" lon="-1.21416">
        <ele>12.800000190735</ele>
        <time>2021-11-09T11:59:18.000Z</time>
      </trkpt>
      <trkpt lat="45.81674" lon="-1.21412">
        <ele>12.800000190735</ele>
        <time>2021-11-09T11:59:19.000Z</time>
      </trkpt>
      <trkpt lat="45.81679" lon="-1.21408">
        <ele>12.60000038147</ele>
        <time>2021-11-09T11:59:20.000Z</time>
      </trkpt>
      <trkpt lat="45.81707" lon="-1.21376">
        <ele>12.60000038147</ele>
        <time>2021-11-09T11:59:26.000Z</time>
      </trkpt>
      <trkpt lat="45.8172" lon="-1.21361">
        <ele>12.60000038147</ele>
        <time>2021-11-09T11:59:29.000Z</time>
      </trkpt>
      <trkpt lat="45.81728" lon="-1.21352">
        <ele>12.60000038147</ele>
        <time>2021-11-09T11:59:31.000Z</time>
      </trkpt>
      <trkpt lat="45.81756" lon="-1.21318">
        <ele>13</ele>
        <time>2021-11-09T11:59:38.000Z</time>
      </trkpt>
      <trkpt lat="45.81793" lon="-1.21276">
        <ele>13.199999809265</ele>
        <time>2021-11-09T11:59:46.000Z</time>
      </trkpt>
      <trkpt lat="45.81801" lon="-1.21268">
        <ele>13.39999961853</ele>
        <time>2021-11-09T11:59:48.000Z</time>
      </trkpt>
      <trkpt lat="45.81812" lon="-1.21253">
        <ele>13.800000190735</ele>
        <time>2021-11-09T11:59:51.000Z</time>
      </trkpt>
      <trkpt lat="45.81822" lon="-1.21243">
        <ele>13.800000190735</ele>
        <time>2021-11-09T11:59:53.000Z</time>
      </trkpt>
      <trkpt lat="45.81826" lon="-1.21237">
        <ele>13.800000190735</ele>
        <time>2021-11-09T11:59:54.000Z</time>
      </trkpt>
      <trkpt lat="45.81834" lon="-1.21226">
        <ele>13.800000190735</ele>
        <time>2021-11-09T11:59:56.000Z</time>
      </trkpt>
      <trkpt lat="45.81838" lon="-1.21219">
        <ele>13.800000190735</ele>
        <time>2021-11-09T11:59:57.000Z</time>
      </trkpt>
      <trkpt lat="45.81854" lon="-1.21193">
        <ele>13.800000190735</ele>
        <time>2021-11-09T12:00:01.000Z</time>
      </trkpt>
      <trkpt lat="45.81873" lon="-1.21168">
        <ele>13.39999961853</ele>
        <time>2021-11-09T12:00:05.000Z</time>
      </trkpt>
      <trkpt lat="45.81878" lon="-1.21161">
        <ele>13.199999809265</ele>
        <time>2021-11-09T12:00:06.000Z</time>
      </trkpt>
      <trkpt lat="45.81882" lon="-1.21157">
        <ele>13</ele>
        <time>2021-11-09T12:00:07.000Z</time>
      </trkpt>
      <trkpt lat="45.81892" lon="-1.21146">
        <ele>12.800000190735</ele>
        <time>2021-11-09T12:00:09.000Z</time>
      </trkpt>
      <trkpt lat="45.81902" lon="-1.21134">
        <ele>12.199999809265</ele>
        <time>2021-11-09T12:00:11.000Z</time>
      </trkpt>
      <trkpt lat="45.81906" lon="-1.21129">
        <ele>12.199999809265</ele>
        <time>2021-11-09T12:00:12.000Z</time>
      </trkpt>
      <trkpt lat="45.81918" lon="-1.21115">
        <ele>12.199999809265</ele>
        <time>2021-11-09T12:00:15.000Z</time>
      </trkpt>
      <trkpt lat="45.81924" lon="-1.21109">
        <ele>12.199999809265</ele>
        <time>2021-11-09T12:00:18.000Z</time>
      </trkpt>
      <trkpt lat="45.81924" lon="-1.21109">
        <ele>12.39999961853</ele>
        <time>2021-11-09T12:00:21.000Z</time>
      </trkpt>
      <trkpt lat="45.81928" lon="-1.21103">
        <ele>11.800000190735</ele>
        <time>2021-11-09T12:13:42.000Z</time>
      </trkpt>
      <trkpt lat="45.81936" lon="-1.21092">
        <ele>11.199999809265</ele>
        <time>2021-11-09T12:13:45.000Z</time>
      </trkpt>
      <trkpt lat="45.81941" lon="-1.21086">
        <ele>11</ele>
        <time>2021-11-09T12:13:46.000Z</time>
      </trkpt>
      <trkpt lat="45.81964" lon="-1.2105">
        <ele>10.800000190735</ele>
        <time>2021-11-09T12:13:52.000Z</time>
      </trkpt>
      <trkpt lat="45.81993" lon="-1.21018">
        <ele>12</ele>
        <time>2021-11-09T12:13:58.000Z</time>
      </trkpt>
      <trkpt lat="45.81998" lon="-1.21012">
        <ele>12.199999809265</ele>
        <time>2021-11-09T12:13:59.000Z</time>
      </trkpt>
      <trkpt lat="45.82017" lon="-1.20992">
        <ele>13.60000038147</ele>
        <time>2021-11-09T12:14:03.000Z</time>
      </trkpt>
      <trkpt lat="45.82028" lon="-1.20981">
        <ele>14.39999961853</ele>
        <time>2021-11-09T12:14:05.000Z</time>
      </trkpt>
      <trkpt lat="45.82033" lon="-1.20976">
        <ele>15.60000038147</ele>
        <time>2021-11-09T12:14:06.000Z</time>
      </trkpt>
      <trkpt lat="45.82041" lon="-1.20967">
        <ele>17</ele>
        <time>2021-11-09T12:14:08.000Z</time>
      </trkpt>
      <trkpt lat="45.82052" lon="-1.20956">
        <ele>18.39999961853</ele>
        <time>2021-11-09T12:14:10.000Z</time>
      </trkpt>
      <trkpt lat="45.8206" lon="-1.20947">
        <ele>19.60000038147</ele>
        <time>2021-11-09T12:14:12.000Z</time>
      </trkpt>
      <trkpt lat="45.8207" lon="-1.20935">
        <ele>21</ele>
        <time>2021-11-09T12:14:14.000Z</time>
      </trkpt>
      <trkpt lat="45.82079" lon="-1.20926">
        <ele>22.200000762939</ele>
        <time>2021-11-09T12:14:16.000Z</time>
      </trkpt>
      <trkpt lat="45.82089" lon="-1.20915">
        <ele>23.39999961853</ele>
        <time>2021-11-09T12:14:18.000Z</time>
      </trkpt>
      <trkpt lat="45.82098" lon="-1.20906">
        <ele>24.39999961853</ele>
        <time>2021-11-09T12:14:20.000Z</time>
      </trkpt>
      <trkpt lat="45.82107" lon="-1.20896">
        <ele>26.39999961853</ele>
        <time>2021-11-09T12:14:22.000Z</time>
      </trkpt>
      <trkpt lat="45.82117" lon="-1.20885">
        <ele>27.60000038147</ele>
        <time>2021-11-09T12:14:24.000Z</time>
      </trkpt>
      <trkpt lat="45.82126" lon="-1.20876">
        <ele>28.60000038147</ele>
        <time>2021-11-09T12:14:26.000Z</time>
      </trkpt>
      <trkpt lat="45.8213" lon="-1.20871">
        <ele>29</ele>
        <time>2021-11-09T12:14:27.000Z</time>
      </trkpt>
      <trkpt lat="45.82141" lon="-1.2086">
        <ele>30.200000762939</ele>
        <time>2021-11-09T12:14:29.000Z</time>
      </trkpt>
      <trkpt lat="45.82144" lon="-1.20856">
        <ele>30.60000038147</ele>
        <time>2021-11-09T12:14:30.000Z</time>
      </trkpt>
      <trkpt lat="45.82149" lon="-1.20851">
        <ele>31.39999961853</ele>
        <time>2021-11-09T12:14:31.000Z</time>
      </trkpt>
      <trkpt lat="45.82164" lon="-1.20835">
        <ele>32.599998474121</ele>
        <time>2021-11-09T12:14:34.000Z</time>
      </trkpt>
      <trkpt lat="45.82173" lon="-1.20826">
        <ele>33.200000762939</ele>
        <time>2021-11-09T12:14:36.000Z</time>
      </trkpt>
      <trkpt lat="45.82183" lon="-1.20815">
        <ele>33.799999237061</ele>
        <time>2021-11-09T12:14:38.000Z</time>
      </trkpt>
      <trkpt lat="45.82202" lon="-1.20796">
        <ele>35</ele>
        <time>2021-11-09T12:14:42.000Z</time>
      </trkpt>
      <trkpt lat="45.8222" lon="-1.20776">
        <ele>36.400001525879</ele>
        <time>2021-11-09T12:14:46.000Z</time>
      </trkpt>
      <trkpt lat="45.82224" lon="-1.20771">
        <ele>36.599998474121</ele>
        <time>2021-11-09T12:14:47.000Z</time>
      </trkpt>
      <trkpt lat="45.82233" lon="-1.20762">
        <ele>37.599998474121</ele>
        <time>2021-11-09T12:14:49.000Z</time>
      </trkpt>
      <trkpt lat="45.82261" lon="-1.20733">
        <ele>38.799999237061</ele>
        <time>2021-11-09T12:14:55.000Z</time>
      </trkpt>
      <trkpt lat="45.82271" lon="-1.20723">
        <ele>39.200000762939</ele>
        <time>2021-11-09T12:14:57.000Z</time>
      </trkpt>
      <trkpt lat="45.82299" lon="-1.20693">
        <ele>40</ele>
        <time>2021-11-09T12:15:03.000Z</time>
      </trkpt>
      <trkpt lat="45.82308" lon="-1.20683">
        <ele>40.400001525879</ele>
        <time>2021-11-09T12:15:05.000Z</time>
      </trkpt>
      <trkpt lat="45.82313" lon="-1.20678">
        <ele>40.599998474121</ele>
        <time>2021-11-09T12:15:06.000Z</time>
      </trkpt>
      <trkpt lat="45.82356" lon="-1.20633">
        <ele>40.799999237061</ele>
        <time>2021-11-09T12:15:15.000Z</time>
      </trkpt>
      <trkpt lat="45.82392" lon="-1.20595">
        <ele>40.599998474121</ele>
        <time>2021-11-09T12:15:23.000Z</time>
      </trkpt>
      <trkpt lat="45.82403" lon="-1.20583">
        <ele>40.799999237061</ele>
        <time>2021-11-09T12:15:25.000Z</time>
      </trkpt>
      <trkpt lat="45.82446" lon="-1.20538">
        <ele>40.599998474121</ele>
        <time>2021-11-09T12:15:34.000Z</time>
      </trkpt>
      <trkpt lat="45.82474" lon="-1.20509">
        <ele>40.400001525879</ele>
        <time>2021-11-09T12:15:40.000Z</time>
      </trkpt>
      <trkpt lat="45.82487" lon="-1.20494">
        <ele>40.200000762939</ele>
        <time>2021-11-09T12:15:43.000Z</time>
      </trkpt>
      <trkpt lat="45.82508" lon="-1.20465">
        <ele>39.799999237061</ele>
        <time>2021-11-09T12:15:48.000Z</time>
      </trkpt>
      <trkpt lat="45.82516" lon="-1.20453">
        <ele>39.599998474121</ele>
        <time>2021-11-09T12:15:50.000Z</time>
      </trkpt>
      <trkpt lat="45.82549" lon="-1.20403">
        <ele>39</ele>
        <time>2021-11-09T12:15:58.000Z</time>
      </trkpt>
      <trkpt lat="45.82553" lon="-1.20396">
        <ele>39</ele>
        <time>2021-11-09T12:15:59.000Z</time>
      </trkpt>
      <trkpt lat="45.82583" lon="-1.20352">
        <ele>38.400001525879</ele>
        <time>2021-11-09T12:16:06.000Z</time>
      </trkpt>
      <trkpt lat="45.82604" lon="-1.2032">
        <ele>38.200000762939</ele>
        <time>2021-11-09T12:16:11.000Z</time>
      </trkpt>
      <trkpt lat="45.8263" lon="-1.20282">
        <ele>37.599998474121</ele>
        <time>2021-11-09T12:16:17.000Z</time>
      </trkpt>
      <trkpt lat="45.82634" lon="-1.20276">
        <ele>37.200000762939</ele>
        <time>2021-11-09T12:16:18.000Z</time>
      </trkpt>
      <trkpt lat="45.82646" lon="-1.20257">
        <ele>37</ele>
        <time>2021-11-09T12:16:21.000Z</time>
      </trkpt>
      <trkpt lat="45.82667" lon="-1.20225">
        <ele>36.200000762939</ele>
        <time>2021-11-09T12:16:26.000Z</time>
      </trkpt>
      <trkpt lat="45.82672" lon="-1.20219">
        <ele>36.200000762939</ele>
        <time>2021-11-09T12:16:27.000Z</time>
      </trkpt>
      <trkpt lat="45.82697" lon="-1.2018">
        <ele>35.599998474121</ele>
        <time>2021-11-09T12:16:33.000Z</time>
      </trkpt>
      <trkpt lat="45.82702" lon="-1.20173">
        <ele>35.400001525879</ele>
        <time>2021-11-09T12:16:34.000Z</time>
      </trkpt>
      <trkpt lat="45.82715" lon="-1.20153">
        <ele>35</ele>
        <time>2021-11-09T12:16:37.000Z</time>
      </trkpt>
      <trkpt lat="45.82721" lon="-1.20137">
        <ele>34.599998474121</ele>
        <time>2021-11-09T12:16:39.000Z</time>
      </trkpt>
      <trkpt lat="45.82728" lon="-1.20102">
        <ele>34.200000762939</ele>
        <time>2021-11-09T12:16:43.000Z</time>
      </trkpt>
      <trkpt lat="45.82733" lon="-1.20075">
        <ele>34</ele>
        <time>2021-11-09T12:16:46.000Z</time>
      </trkpt>
      <trkpt lat="45.82737" lon="-1.20058">
        <ele>33.599998474121</ele>
        <time>2021-11-09T12:16:48.000Z</time>
      </trkpt>
      <trkpt lat="45.82738" lon="-1.20049">
        <ele>33.400001525879</ele>
        <time>2021-11-09T12:16:49.000Z</time>
      </trkpt>
      <trkpt lat="45.82745" lon="-1.20014">
        <ele>32.200000762939</ele>
        <time>2021-11-09T12:16:53.000Z</time>
      </trkpt>
      <trkpt lat="45.82752" lon="-1.19979">
        <ele>31</ele>
        <time>2021-11-09T12:16:57.000Z</time>
      </trkpt>
      <trkpt lat="45.82755" lon="-1.19963">
        <ele>30.60000038147</ele>
        <time>2021-11-09T12:16:59.000Z</time>
      </trkpt>
      <trkpt lat="45.82758" lon="-1.19947">
        <ele>30.200000762939</ele>
        <time>2021-11-09T12:17:01.000Z</time>
      </trkpt>
      <trkpt lat="45.82763" lon="-1.19934">
        <ele>29.60000038147</ele>
        <time>2021-11-09T12:17:03.000Z</time>
      </trkpt>
      <trkpt lat="45.82766" lon="-1.19929">
        <ele>29.60000038147</ele>
        <time>2021-11-09T12:17:04.000Z</time>
      </trkpt>
      <trkpt lat="45.82768" lon="-1.19926">
        <ele>29.200000762939</ele>
        <time>2021-11-09T12:17:05.000Z</time>
      </trkpt>
      <trkpt lat="45.82768" lon="-1.19924">
        <ele>29</ele>
        <time>2021-11-09T12:17:06.000Z</time>
      </trkpt>
      <trkpt lat="45.82767" lon="-1.19921">
        <ele>28.200000762939</ele>
        <time>2021-11-09T12:17:09.000Z</time>
      </trkpt>
      <trkpt lat="45.82768" lon="-1.19921">
        <ele>28</ele>
        <time>2021-11-09T12:17:10.000Z</time>
      </trkpt>
      <trkpt lat="45.82768" lon="-1.1992">
        <ele>27.60000038147</ele>
        <time>2021-11-09T12:17:12.000Z</time>
      </trkpt>
      <trkpt lat="45.82769" lon="-1.19918">
        <ele>27.39999961853</ele>
        <time>2021-11-09T12:17:13.000Z</time>
      </trkpt>
      <trkpt lat="45.82771" lon="-1.19912">
        <ele>26.799999237061</ele>
        <time>2021-11-09T12:17:15.000Z</time>
      </trkpt>
      <trkpt lat="45.82772" lon="-1.19908">
        <ele>26.200000762939</ele>
        <time>2021-11-09T12:17:16.000Z</time>
      </trkpt>
      <trkpt lat="45.82777" lon="-1.19898">
        <ele>25.60000038147</ele>
        <time>2021-11-09T12:17:18.000Z</time>
      </trkpt>
      <trkpt lat="45.82785" lon="-1.19879">
        <ele>25</ele>
        <time>2021-11-09T12:17:21.000Z</time>
      </trkpt>
      <trkpt lat="45.82795" lon="-1.19858">
        <ele>24.39999961853</ele>
        <time>2021-11-09T12:17:24.000Z</time>
      </trkpt>
      <trkpt lat="45.82802" lon="-1.19843">
        <ele>24</ele>
        <time>2021-11-09T12:17:26.000Z</time>
      </trkpt>
      <trkpt lat="45.82805" lon="-1.19835">
        <ele>23.60000038147</ele>
        <time>2021-11-09T12:17:27.000Z</time>
      </trkpt>
      <trkpt lat="45.82808" lon="-1.19827">
        <ele>23.39999961853</ele>
        <time>2021-11-09T12:17:28.000Z</time>
      </trkpt>
      <trkpt lat="45.82817" lon="-1.19793">
        <ele>22.799999237061</ele>
        <time>2021-11-09T12:17:32.000Z</time>
      </trkpt>
      <trkpt lat="45.82819" lon="-1.19786">
        <ele>22.39999961853</ele>
        <time>2021-11-09T12:17:33.000Z</time>
      </trkpt>
      <trkpt lat="45.82824" lon="-1.19767">
        <ele>21.799999237061</ele>
        <time>2021-11-09T12:17:35.000Z</time>
      </trkpt>
      <trkpt lat="45.82826" lon="-1.19758">
        <ele>21.39999961853</ele>
        <time>2021-11-09T12:17:36.000Z</time>
      </trkpt>
      <trkpt lat="45.82833" lon="-1.19732">
        <ele>20.799999237061</ele>
        <time>2021-11-09T12:17:39.000Z</time>
      </trkpt>
      <trkpt lat="45.82836" lon="-1.19724">
        <ele>20.799999237061</ele>
        <time>2021-11-09T12:17:40.000Z</time>
      </trkpt>
      <trkpt lat="45.82842" lon="-1.197">
        <ele>20.39999961853</ele>
        <time>2021-11-09T12:17:43.000Z</time>
      </trkpt>
      <trkpt lat="45.82844" lon="-1.19691">
        <ele>20.200000762939</ele>
        <time>2021-11-09T12:17:44.000Z</time>
      </trkpt>
      <trkpt lat="45.82853" lon="-1.19656">
        <ele>19</ele>
        <time>2021-11-09T12:17:48.000Z</time>
      </trkpt>
      <trkpt lat="45.82859" lon="-1.1964">
        <ele>18.60000038147</ele>
        <time>2021-11-09T12:17:50.000Z</time>
      </trkpt>
      <trkpt lat="45.82862" lon="-1.19632">
        <ele>18.39999961853</ele>
        <time>2021-11-09T12:17:51.000Z</time>
      </trkpt>
      <trkpt lat="45.82869" lon="-1.19618">
        <ele>17.799999237061</ele>
        <time>2021-11-09T12:17:53.000Z</time>
      </trkpt>
      <trkpt lat="45.82878" lon="-1.19608">
        <ele>17.39999961853</ele>
        <time>2021-11-09T12:17:55.000Z</time>
      </trkpt>
      <trkpt lat="45.82883" lon="-1.19606">
        <ele>17</ele>
        <time>2021-11-09T12:17:57.000Z</time>
      </trkpt>
      <trkpt lat="45.82884" lon="-1.19607">
        <ele>17</ele>
        <time>2021-11-09T12:17:58.000Z</time>
      </trkpt>
      <trkpt lat="45.82884" lon="-1.19607">
        <ele>16.799999237061</ele>
        <time>2021-11-09T12:17:59.000Z</time>
      </trkpt>
      <trkpt lat="45.82886" lon="-1.19605">
        <ele>16.799999237061</ele>
        <time>2021-11-09T12:18:01.000Z</time>
      </trkpt>
      <trkpt lat="45.82897" lon="-1.19603">
        <ele>16.60000038147</ele>
        <time>2021-11-09T12:18:06.000Z</time>
      </trkpt>
      <trkpt lat="45.8291" lon="-1.19603">
        <ele>16.60000038147</ele>
        <time>2021-11-09T12:18:09.000Z</time>
      </trkpt>
      <trkpt lat="45.82914" lon="-1.19604">
        <ele>16.60000038147</ele>
        <time>2021-11-09T12:18:10.000Z</time>
      </trkpt>
      <trkpt lat="45.82934" lon="-1.19611">
        <ele>17</ele>
        <time>2021-11-09T12:18:14.000Z</time>
      </trkpt>
      <trkpt lat="45.82939" lon="-1.19613">
        <ele>17.200000762939</ele>
        <time>2021-11-09T12:18:15.000Z</time>
      </trkpt>
      <trkpt lat="45.82953" lon="-1.19618">
        <ele>18</ele>
        <time>2021-11-09T12:18:19.000Z</time>
      </trkpt>
      <trkpt lat="45.82979" lon="-1.19625">
        <ele>18.60000038147</ele>
        <time>2021-11-09T12:18:25.000Z</time>
      </trkpt>
      <trkpt lat="45.82983" lon="-1.19627">
        <ele>19</ele>
        <time>2021-11-09T12:18:26.000Z</time>
      </trkpt>
      <trkpt lat="45.82993" lon="-1.19626">
        <ele>20</ele>
        <time>2021-11-09T12:18:30.000Z</time>
      </trkpt>
      <trkpt lat="45.82993" lon="-1.19626">
        <ele>20.200000762939</ele>
        <time>2021-11-09T12:18:31.000Z</time>
      </trkpt>
      <trkpt lat="45.82993" lon="-1.19626">
        <ele>20.799999237061</ele>
        <time>2021-11-09T12:18:34.000Z</time>
      </trkpt>
      <trkpt lat="45.82998" lon="-1.19628">
        <ele>16.200000762939</ele>
        <time>2021-11-09T12:22:24.000Z</time>
      </trkpt>
      <trkpt lat="45.83016" lon="-1.19634">
        <ele>16</ele>
        <time>2021-11-09T12:22:28.000Z</time>
      </trkpt>
      <trkpt lat="45.83049" lon="-1.19649">
        <ele>15.800000190735</ele>
        <time>2021-11-09T12:22:34.000Z</time>
      </trkpt>
      <trkpt lat="45.83092" lon="-1.19669">
        <ele>16.60000038147</ele>
        <time>2021-11-09T12:22:42.000Z</time>
      </trkpt>
      <trkpt lat="45.83125" lon="-1.19685">
        <ele>17.39999961853</ele>
        <time>2021-11-09T12:22:48.000Z</time>
      </trkpt>
      <trkpt lat="45.83143" lon="-1.19695">
        <ele>17.799999237061</ele>
        <time>2021-11-09T12:22:51.000Z</time>
      </trkpt>
      <trkpt lat="45.83166" lon="-1.19706">
        <ele>18.799999237061</ele>
        <time>2021-11-09T12:22:55.000Z</time>
      </trkpt>
      <trkpt lat="45.83177" lon="-1.19714">
        <ele>19.200000762939</ele>
        <time>2021-11-09T12:22:57.000Z</time>
      </trkpt>
      <trkpt lat="45.83193" lon="-1.19727">
        <ele>20.200000762939</ele>
        <time>2021-11-09T12:23:00.000Z</time>
      </trkpt>
      <trkpt lat="45.83215" lon="-1.19746">
        <ele>21.200000762939</ele>
        <time>2021-11-09T12:23:04.000Z</time>
      </trkpt>
      <trkpt lat="45.83258" lon="-1.19785">
        <ele>22.200000762939</ele>
        <time>2021-11-09T12:23:12.000Z</time>
      </trkpt>
      <trkpt lat="45.8328" lon="-1.19806">
        <ele>22.60000038147</ele>
        <time>2021-11-09T12:23:16.000Z</time>
      </trkpt>
      <trkpt lat="45.83302" lon="-1.19826">
        <ele>23.799999237061</ele>
        <time>2021-11-09T12:23:20.000Z</time>
      </trkpt>
      <trkpt lat="45.83326" lon="-1.19852">
        <ele>24.60000038147</ele>
        <time>2021-11-09T12:23:25.000Z</time>
      </trkpt>
      <trkpt lat="45.83332" lon="-1.19858">
        <ele>24.799999237061</ele>
        <time>2021-11-09T12:23:26.000Z</time>
      </trkpt>
      <trkpt lat="45.83357" lon="-1.19876">
        <ele>25.200000762939</ele>
        <time>2021-11-09T12:23:30.000Z</time>
      </trkpt>
      <trkpt lat="45.83406" lon="-1.19916">
        <ele>26</ele>
        <time>2021-11-09T12:23:38.000Z</time>
      </trkpt>
      <trkpt lat="45.83441" lon="-1.19943">
        <ele>26.39999961853</ele>
        <time>2021-11-09T12:23:44.000Z</time>
      </trkpt>
      <trkpt lat="45.83447" lon="-1.19947">
        <ele>26.39999961853</ele>
        <time>2021-11-09T12:23:45.000Z</time>
      </trkpt>
      <trkpt lat="45.83489" lon="-1.1998">
        <ele>27</ele>
        <time>2021-11-09T12:23:52.000Z</time>
      </trkpt>
      <trkpt lat="45.83494" lon="-1.19984">
        <ele>27</ele>
        <time>2021-11-09T12:23:53.000Z</time>
      </trkpt>
      <trkpt lat="45.83544" lon="-1.20021">
        <ele>27</ele>
        <time>2021-11-09T12:24:01.000Z</time>
      </trkpt>
      <trkpt lat="45.83593" lon="-1.20056">
        <ele>27.200000762939</ele>
        <time>2021-11-09T12:24:09.000Z</time>
      </trkpt>
      <trkpt lat="45.83617" lon="-1.20073">
        <ele>27.39999961853</ele>
        <time>2021-11-09T12:24:13.000Z</time>
      </trkpt>
      <trkpt lat="45.83634" lon="-1.20085">
        <ele>27.60000038147</ele>
        <time>2021-11-09T12:24:16.000Z</time>
      </trkpt>
      <trkpt lat="45.83678" lon="-1.20115">
        <ele>28.200000762939</ele>
        <time>2021-11-09T12:24:23.000Z</time>
      </trkpt>
      <trkpt lat="45.83727" lon="-1.20149">
        <ele>28.39999961853</ele>
        <time>2021-11-09T12:24:31.000Z</time>
      </trkpt>
      <trkpt lat="45.83733" lon="-1.20154">
        <ele>28.39999961853</ele>
        <time>2021-11-09T12:24:32.000Z</time>
      </trkpt>
      <trkpt lat="45.83783" lon="-1.20187">
        <ele>28.60000038147</ele>
        <time>2021-11-09T12:24:40.000Z</time>
      </trkpt>
      <trkpt lat="45.83789" lon="-1.2019">
        <ele>28.39999961853</ele>
        <time>2021-11-09T12:24:41.000Z</time>
      </trkpt>
      <trkpt lat="45.83845" lon="-1.20223">
        <ele>28.60000038147</ele>
        <time>2021-11-09T12:24:50.000Z</time>
      </trkpt>
      <trkpt lat="45.83852" lon="-1.20225">
        <ele>28.60000038147</ele>
        <time>2021-11-09T12:24:51.000Z</time>
      </trkpt>
      <trkpt lat="45.83858" lon="-1.20227">
        <ele>28.60000038147</ele>
        <time>2021-11-09T12:24:52.000Z</time>
      </trkpt>
      <trkpt lat="45.83878" lon="-1.20225">
        <ele>28.60000038147</ele>
        <time>2021-11-09T12:24:55.000Z</time>
      </trkpt>
      <trkpt lat="45.83889" lon="-1.20222">
        <ele>28.60000038147</ele>
        <time>2021-11-09T12:24:57.000Z</time>
      </trkpt>
      <trkpt lat="45.83923" lon="-1.2021">
        <ele>28.39999961853</ele>
        <time>2021-11-09T12:25:02.000Z</time>
      </trkpt>
      <trkpt lat="45.83936" lon="-1.20209">
        <ele>28</ele>
        <time>2021-11-09T12:25:04.000Z</time>
      </trkpt>
      <trkpt lat="45.83956" lon="-1.20211">
        <ele>27.60000038147</ele>
        <time>2021-11-09T12:25:07.000Z</time>
      </trkpt>
      <trkpt lat="45.83996" lon="-1.20219">
        <ele>26.60000038147</ele>
        <time>2021-11-09T12:25:13.000Z</time>
      </trkpt>
      <trkpt lat="45.84021" lon="-1.20225">
        <ele>26.200000762939</ele>
        <time>2021-11-09T12:25:17.000Z</time>
      </trkpt>
      <trkpt lat="45.84054" lon="-1.20234">
        <ele>25.60000038147</ele>
        <time>2021-11-09T12:25:22.000Z</time>
      </trkpt>
      <trkpt lat="45.84066" lon="-1.20238">
        <ele>25.200000762939</ele>
        <time>2021-11-09T12:25:24.000Z</time>
      </trkpt>
      <trkpt lat="45.84105" lon="-1.2025">
        <ele>24.39999961853</ele>
        <time>2021-11-09T12:25:30.000Z</time>
      </trkpt>
      <trkpt lat="45.84118" lon="-1.20255">
        <ele>24</ele>
        <time>2021-11-09T12:25:32.000Z</time>
      </trkpt>
      <trkpt lat="45.84124" lon="-1.20259">
        <ele>23.799999237061</ele>
        <time>2021-11-09T12:25:33.000Z</time>
      </trkpt>
      <trkpt lat="45.84129" lon="-1.20264">
        <ele>23.60000038147</ele>
        <time>2021-11-09T12:25:34.000Z</time>
      </trkpt>
      <trkpt lat="45.84145" lon="-1.2028">
        <ele>23.200000762939</ele>
        <time>2021-11-09T12:25:37.000Z</time>
      </trkpt>
      <trkpt lat="45.8415" lon="-1.20287">
        <ele>23</ele>
        <time>2021-11-09T12:25:38.000Z</time>
      </trkpt>
      <trkpt lat="45.84185" lon="-1.20333">
        <ele>22.200000762939</ele>
        <time>2021-11-09T12:25:45.000Z</time>
      </trkpt>
      <trkpt lat="45.84191" lon="-1.20338">
        <ele>21.799999237061</ele>
        <time>2021-11-09T12:25:46.000Z</time>
      </trkpt>
      <trkpt lat="45.84197" lon="-1.20341">
        <ele>21.60000038147</ele>
        <time>2021-11-09T12:25:47.000Z</time>
      </trkpt>
      <trkpt lat="45.8421" lon="-1.20342">
        <ele>21.60000038147</ele>
        <time>2021-11-09T12:25:49.000Z</time>
      </trkpt>
      <trkpt lat="45.84256" lon="-1.20344">
        <ele>21.60000038147</ele>
        <time>2021-11-09T12:25:56.000Z</time>
      </trkpt>
      <trkpt lat="45.84314" lon="-1.20343">
        <ele>22</ele>
        <time>2021-11-09T12:26:05.000Z</time>
      </trkpt>
      <trkpt lat="45.84321" lon="-1.20343">
        <ele>22</ele>
        <time>2021-11-09T12:26:06.000Z</time>
      </trkpt>
      <trkpt lat="45.84377" lon="-1.20343">
        <ele>22</ele>
        <time>2021-11-09T12:26:15.000Z</time>
      </trkpt>
      <trkpt lat="45.84395" lon="-1.20344">
        <ele>22.60000038147</ele>
        <time>2021-11-09T12:26:18.000Z</time>
      </trkpt>
      <trkpt lat="45.84438" lon="-1.20345">
        <ele>23</ele>
        <time>2021-11-09T12:26:25.000Z</time>
      </trkpt>
      <trkpt lat="45.84494" lon="-1.20346">
        <ele>23</ele>
        <time>2021-11-09T12:26:34.000Z</time>
      </trkpt>
      <trkpt lat="45.84544" lon="-1.20347">
        <ele>23.60000038147</ele>
        <time>2021-11-09T12:26:42.000Z</time>
      </trkpt>
      <trkpt lat="45.8455" lon="-1.20348">
        <ele>23.60000038147</ele>
        <time>2021-11-09T12:26:43.000Z</time>
      </trkpt>
      <trkpt lat="45.84588" lon="-1.20349">
        <ele>23.60000038147</ele>
        <time>2021-11-09T12:26:49.000Z</time>
      </trkpt>
      <trkpt lat="45.84594" lon="-1.20352">
        <ele>23.60000038147</ele>
        <time>2021-11-09T12:26:50.000Z</time>
      </trkpt>
      <trkpt lat="45.846" lon="-1.20356">
        <ele>23.39999961853</ele>
        <time>2021-11-09T12:26:51.000Z</time>
      </trkpt>
      <trkpt lat="45.84608" lon="-1.2037">
        <ele>23.39999961853</ele>
        <time>2021-11-09T12:26:53.000Z</time>
      </trkpt>
      <trkpt lat="45.84622" lon="-1.20411">
        <ele>23.60000038147</ele>
        <time>2021-11-09T12:26:58.000Z</time>
      </trkpt>
      <trkpt lat="45.84625" lon="-1.2042">
        <ele>23.200000762939</ele>
        <time>2021-11-09T12:26:59.000Z</time>
      </trkpt>
      <trkpt lat="45.84635" lon="-1.20457">
        <ele>22.799999237061</ele>
        <time>2021-11-09T12:27:03.000Z</time>
      </trkpt>
      <trkpt lat="45.84636" lon="-1.20467">
        <ele>22.799999237061</ele>
        <time>2021-11-09T12:27:04.000Z</time>
      </trkpt>
      <trkpt lat="45.84635" lon="-1.20479">
        <ele>22.60000038147</ele>
        <time>2021-11-09T12:27:05.000Z</time>
      </trkpt>
      <trkpt lat="45.8463" lon="-1.20506">
        <ele>21.60000038147</ele>
        <time>2021-11-09T12:27:08.000Z</time>
      </trkpt>
      <trkpt lat="45.84625" lon="-1.20523">
        <ele>21.200000762939</ele>
        <time>2021-11-09T12:27:10.000Z</time>
      </trkpt>
      <trkpt lat="45.8462" lon="-1.20542">
        <ele>20.60000038147</ele>
        <time>2021-11-09T12:27:12.000Z</time>
      </trkpt>
      <trkpt lat="45.84607" lon="-1.20587">
        <ele>19.39999961853</ele>
        <time>2021-11-09T12:27:17.000Z</time>
      </trkpt>
      <trkpt lat="45.84592" lon="-1.20638">
        <ele>18.39999961853</ele>
        <time>2021-11-09T12:27:23.000Z</time>
      </trkpt>
      <trkpt lat="45.84593" lon="-1.20649">
        <ele>18.39999961853</ele>
        <time>2021-11-09T12:27:24.000Z</time>
      </trkpt>
      <trkpt lat="45.84597" lon="-1.20657">
        <ele>18.200000762939</ele>
        <time>2021-11-09T12:27:25.000Z</time>
      </trkpt>
      <trkpt lat="45.84604" lon="-1.20672">
        <ele>18.39999961853</ele>
        <time>2021-11-09T12:27:27.000Z</time>
      </trkpt>
      <trkpt lat="45.84606" lon="-1.20691">
        <ele>18.200000762939</ele>
        <time>2021-11-09T12:27:29.000Z</time>
      </trkpt>
      <trkpt lat="45.84606" lon="-1.20701">
        <ele>18</ele>
        <time>2021-11-09T12:27:30.000Z</time>
      </trkpt>
      <trkpt lat="45.84605" lon="-1.20729">
        <ele>17.799999237061</ele>
        <time>2021-11-09T12:27:33.000Z</time>
      </trkpt>
      <trkpt lat="45.846" lon="-1.20745">
        <ele>17.200000762939</ele>
        <time>2021-11-09T12:27:35.000Z</time>
      </trkpt>
      <trkpt lat="45.84588" lon="-1.20751">
        <ele>17</ele>
        <time>2021-11-09T12:27:37.000Z</time>
      </trkpt>
      <trkpt lat="45.8458" lon="-1.20754">
        <ele>17</ele>
        <time>2021-11-09T12:27:38.000Z</time>
      </trkpt>
      <trkpt lat="45.84566" lon="-1.20759">
        <ele>17</ele>
        <time>2021-11-09T12:27:40.000Z</time>
      </trkpt>
      <trkpt lat="45.84555" lon="-1.20768">
        <ele>17.200000762939</ele>
        <time>2021-11-09T12:27:42.000Z</time>
      </trkpt>
      <trkpt lat="45.84512" lon="-1.2082">
        <ele>16.799999237061</ele>
        <time>2021-11-09T12:27:50.000Z</time>
      </trkpt>
      <trkpt lat="45.84506" lon="-1.20826">
        <ele>16.799999237061</ele>
        <time>2021-11-09T12:27:51.000Z</time>
      </trkpt>
      <trkpt lat="45.8448" lon="-1.20855">
        <ele>16.60000038147</ele>
        <time>2021-11-09T12:27:56.000Z</time>
      </trkpt>
      <trkpt lat="45.84475" lon="-1.2086">
        <ele>16.60000038147</ele>
        <time>2021-11-09T12:27:57.000Z</time>
      </trkpt>
      <trkpt lat="45.84472" lon="-1.20867">
        <ele>16.60000038147</ele>
        <time>2021-11-09T12:27:58.000Z</time>
      </trkpt>
      <trkpt lat="45.84473" lon="-1.20881">
        <ele>16.60000038147</ele>
        <time>2021-11-09T12:28:00.000Z</time>
      </trkpt>
      <trkpt lat="45.84484" lon="-1.209">
        <ele>16.799999237061</ele>
        <time>2021-11-09T12:28:03.000Z</time>
      </trkpt>
      <trkpt lat="45.84487" lon="-1.20905">
        <ele>16.799999237061</ele>
        <time>2021-11-09T12:28:04.000Z</time>
      </trkpt>
      <trkpt lat="45.84491" lon="-1.20907">
        <ele>16.799999237061</ele>
        <time>2021-11-09T12:28:05.000Z</time>
      </trkpt>
      <trkpt lat="45.845" lon="-1.20904">
        <ele>17</ele>
        <time>2021-11-09T12:28:07.000Z</time>
      </trkpt>
      <trkpt lat="45.84511" lon="-1.20899">
        <ele>17</ele>
        <time>2021-11-09T12:28:09.000Z</time>
      </trkpt>
      <trkpt lat="45.84521" lon="-1.20903">
        <ele>17</ele>
        <time>2021-11-09T12:28:11.000Z</time>
      </trkpt>
      <trkpt lat="45.84539" lon="-1.20931">
        <ele>17</ele>
        <time>2021-11-09T12:28:15.000Z</time>
      </trkpt>
      <trkpt lat="45.84554" lon="-1.20947">
        <ele>17</ele>
        <time>2021-11-09T12:28:18.000Z</time>
      </trkpt>
      <trkpt lat="45.84559" lon="-1.20954">
        <ele>17</ele>
        <time>2021-11-09T12:28:19.000Z</time>
      </trkpt>
      <trkpt lat="45.84561" lon="-1.20961">
        <ele>17</ele>
        <time>2021-11-09T12:28:20.000Z</time>
      </trkpt>
      <trkpt lat="45.84561" lon="-1.20979">
        <ele>17</ele>
        <time>2021-11-09T12:28:22.000Z</time>
      </trkpt>
      <trkpt lat="45.84555" lon="-1.20993">
        <ele>17</ele>
        <time>2021-11-09T12:28:24.000Z</time>
      </trkpt>
      <trkpt lat="45.84551" lon="-1.20997">
        <ele>17</ele>
        <time>2021-11-09T12:28:25.000Z</time>
      </trkpt>
      <trkpt lat="45.84547" lon="-1.20999">
        <ele>17.200000762939</ele>
        <time>2021-11-09T12:28:26.000Z</time>
      </trkpt>
      <trkpt lat="45.84538" lon="-1.20999">
        <ele>17.39999961853</ele>
        <time>2021-11-09T12:28:28.000Z</time>
      </trkpt>
      <trkpt lat="45.84533" lon="-1.20999">
        <ele>17.60000038147</ele>
        <time>2021-11-09T12:28:29.000Z</time>
      </trkpt>
      <trkpt lat="45.84524" lon="-1.20998">
        <ele>18.200000762939</ele>
        <time>2021-11-09T12:28:31.000Z</time>
      </trkpt>
      <trkpt lat="45.84515" lon="-1.20999">
        <ele>18.200000762939</ele>
        <time>2021-11-09T12:28:33.000Z</time>
      </trkpt>
      <trkpt lat="45.84512" lon="-1.21001">
        <ele>18.39999961853</ele>
        <time>2021-11-09T12:28:34.000Z</time>
      </trkpt>
      <trkpt lat="45.84508" lon="-1.21004">
        <ele>18.799999237061</ele>
        <time>2021-11-09T12:28:35.000Z</time>
      </trkpt>
      <trkpt lat="45.84506" lon="-1.21012">
        <ele>19.200000762939</ele>
        <time>2021-11-09T12:28:37.000Z</time>
      </trkpt>
      <trkpt lat="45.84505" lon="-1.21022">
        <ele>19.799999237061</ele>
        <time>2021-11-09T12:28:39.000Z</time>
      </trkpt>
      <trkpt lat="45.84506" lon="-1.21026">
        <ele>20</ele>
        <time>2021-11-09T12:28:40.000Z</time>
      </trkpt>
      <trkpt lat="45.84507" lon="-1.21031">
        <ele>20.200000762939</ele>
        <time>2021-11-09T12:28:41.000Z</time>
      </trkpt>
      <trkpt lat="45.84511" lon="-1.21047">
        <ele>21</ele>
        <time>2021-11-09T12:28:44.000Z</time>
      </trkpt>
      <trkpt lat="45.84512" lon="-1.21063">
        <ele>21.60000038147</ele>
        <time>2021-11-09T12:28:47.000Z</time>
      </trkpt>
      <trkpt lat="45.84509" lon="-1.21066">
        <ele>22.200000762939</ele>
        <time>2021-11-09T12:28:48.000Z</time>
      </trkpt>
      <trkpt lat="45.84503" lon="-1.21071">
        <ele>23.200000762939</ele>
        <time>2021-11-09T12:28:50.000Z</time>
      </trkpt>
      <trkpt lat="45.84503" lon="-1.21072">
        <ele>23.60000038147</ele>
        <time>2021-11-09T12:28:51.000Z</time>
      </trkpt>
      <trkpt lat="45.84502" lon="-1.21072">
        <ele>23.799999237061</ele>
        <time>2021-11-09T12:28:52.000Z</time>
      </trkpt>
      <trkpt lat="45.84499" lon="-1.21073">
        <ele>24.200000762939</ele>
        <time>2021-11-09T12:28:53.000Z</time>
      </trkpt>
      <trkpt lat="45.84495" lon="-1.21074">
        <ele>24.60000038147</ele>
        <time>2021-11-09T12:28:55.000Z</time>
      </trkpt>
      <trkpt lat="45.84492" lon="-1.21075">
        <ele>24.799999237061</ele>
        <time>2021-11-09T12:28:56.000Z</time>
      </trkpt>
      <trkpt lat="45.84482" lon="-1.21079">
        <ele>25.200000762939</ele>
        <time>2021-11-09T12:28:59.000Z</time>
      </trkpt>
      <trkpt lat="45.84473" lon="-1.21082">
        <ele>26</ele>
        <time>2021-11-09T12:29:01.000Z</time>
      </trkpt>
      <trkpt lat="45.84466" lon="-1.21083">
        <ele>26.39999961853</ele>
        <time>2021-11-09T12:29:03.000Z</time>
      </trkpt>
      <trkpt lat="45.84459" lon="-1.21084">
        <ele>27</ele>
        <time>2021-11-09T12:29:06.000Z</time>
      </trkpt>
      <trkpt lat="45.84454" lon="-1.21085">
        <ele>27.39999961853</ele>
        <time>2021-11-09T12:29:07.000Z</time>
      </trkpt>
      <trkpt lat="45.84447" lon="-1.21086">
        <ele>28.60000038147</ele>
        <time>2021-11-09T12:29:10.000Z</time>
      </trkpt>
      <trkpt lat="45.84442" lon="-1.21088">
        <ele>29.200000762939</ele>
        <time>2021-11-09T12:29:12.000Z</time>
      </trkpt>
      <trkpt lat="45.84438" lon="-1.21089">
        <ele>29.799999237061</ele>
        <time>2021-11-09T12:29:14.000Z</time>
      </trkpt>
      <trkpt lat="45.84432" lon="-1.21091">
        <ele>31.200000762939</ele>
        <time>2021-11-09T12:29:17.000Z</time>
      </trkpt>
      <trkpt lat="45.8443" lon="-1.21091">
        <ele>31.39999961853</ele>
        <time>2021-11-09T12:29:18.000Z</time>
      </trkpt>
      <trkpt lat="45.84423" lon="-1.21092">
        <ele>32</ele>
        <time>2021-11-09T12:29:21.000Z</time>
      </trkpt>
      <trkpt lat="45.84419" lon="-1.21093">
        <ele>32.400001525879</ele>
        <time>2021-11-09T12:29:22.000Z</time>
      </trkpt>
      <trkpt lat="45.84411" lon="-1.21094">
        <ele>32.799999237061</ele>
        <time>2021-11-09T12:29:24.000Z</time>
      </trkpt>
      <trkpt lat="45.84406" lon="-1.21097">
        <ele>33.799999237061</ele>
        <time>2021-11-09T12:29:26.000Z</time>
      </trkpt>
      <trkpt lat="45.84395" lon="-1.211">
        <ele>35</ele>
        <time>2021-11-09T12:29:29.000Z</time>
      </trkpt>
      <trkpt lat="45.84388" lon="-1.21106">
        <ele>36</ele>
        <time>2021-11-09T12:29:32.000Z</time>
      </trkpt>
      <trkpt lat="45.84387" lon="-1.21109">
        <ele>36.200000762939</ele>
        <time>2021-11-09T12:29:33.000Z</time>
      </trkpt>
      <trkpt lat="45.84386" lon="-1.21118">
        <ele>37</ele>
        <time>2021-11-09T12:29:35.000Z</time>
      </trkpt>
      <trkpt lat="45.84384" lon="-1.21127">
        <ele>37.599998474121</ele>
        <time>2021-11-09T12:29:37.000Z</time>
      </trkpt>
      <trkpt lat="45.84382" lon="-1.21131">
        <ele>37.799999237061</ele>
        <time>2021-11-09T12:29:38.000Z</time>
      </trkpt>
      <trkpt lat="45.8438" lon="-1.2114">
        <ele>38.799999237061</ele>
        <time>2021-11-09T12:29:40.000Z</time>
      </trkpt>
      <trkpt lat="45.84378" lon="-1.21153">
        <ele>40.400001525879</ele>
        <time>2021-11-09T12:29:43.000Z</time>
      </trkpt>
      <trkpt lat="45.84377" lon="-1.21159">
        <ele>41</ele>
        <time>2021-11-09T12:29:44.000Z</time>
      </trkpt>
      <trkpt lat="45.84374" lon="-1.21171">
        <ele>41.599998474121</ele>
        <time>2021-11-09T12:29:46.000Z</time>
      </trkpt>
      <trkpt lat="45.84366" lon="-1.21193">
        <ele>42.200000762939</ele>
        <time>2021-11-09T12:29:49.000Z</time>
      </trkpt>
      <trkpt lat="45.84361" lon="-1.21206">
        <ele>42.799999237061</ele>
        <time>2021-11-09T12:29:51.000Z</time>
      </trkpt>
      <trkpt lat="45.84352" lon="-1.21218">
        <ele>43.200000762939</ele>
        <time>2021-11-09T12:29:53.000Z</time>
      </trkpt>
      <trkpt lat="45.84347" lon="-1.21222">
        <ele>43.400001525879</ele>
        <time>2021-11-09T12:29:54.000Z</time>
      </trkpt>
      <trkpt lat="45.84337" lon="-1.21233">
        <ele>44</ele>
        <time>2021-11-09T12:29:57.000Z</time>
      </trkpt>
      <trkpt lat="45.84333" lon="-1.21235">
        <ele>44.200000762939</ele>
        <time>2021-11-09T12:29:58.000Z</time>
      </trkpt>
      <trkpt lat="45.8433" lon="-1.21237">
        <ele>44.400001525879</ele>
        <time>2021-11-09T12:29:59.000Z</time>
      </trkpt>
      <trkpt lat="45.84321" lon="-1.21242">
        <ele>45.200000762939</ele>
        <time>2021-11-09T12:30:02.000Z</time>
      </trkpt>
      <trkpt lat="45.84318" lon="-1.21245">
        <ele>45.400001525879</ele>
        <time>2021-11-09T12:30:03.000Z</time>
      </trkpt>
      <trkpt lat="45.84308" lon="-1.21247">
        <ele>46.400001525879</ele>
        <time>2021-11-09T12:30:07.000Z</time>
      </trkpt>
      <trkpt lat="45.8429" lon="-1.21243">
        <ele>47.599998474121</ele>
        <time>2021-11-09T12:30:13.000Z</time>
      </trkpt>
      <trkpt lat="45.8427" lon="-1.21241">
        <ele>48.599998474121</ele>
        <time>2021-11-09T12:30:19.000Z</time>
      </trkpt>
      <trkpt lat="45.84265" lon="-1.21241">
        <ele>48.599998474121</ele>
        <time>2021-11-09T12:30:20.000Z</time>
      </trkpt>
      <trkpt lat="45.84245" lon="-1.21241">
        <ele>48.799999237061</ele>
        <time>2021-11-09T12:30:25.000Z</time>
      </trkpt>
      <trkpt lat="45.84228" lon="-1.21256">
        <ele>49.400001525879</ele>
        <time>2021-11-09T12:30:29.000Z</time>
      </trkpt>
      <trkpt lat="45.84223" lon="-1.21261">
        <ele>49.599998474121</ele>
        <time>2021-11-09T12:30:30.000Z</time>
      </trkpt>
      <trkpt lat="45.84219" lon="-1.21266">
        <ele>49.599998474121</ele>
        <time>2021-11-09T12:30:31.000Z</time>
      </trkpt>
      <trkpt lat="45.84216" lon="-1.21271">
        <ele>49.799999237061</ele>
        <time>2021-11-09T12:30:32.000Z</time>
      </trkpt>
      <trkpt lat="45.84207" lon="-1.21278">
        <ele>50</ele>
        <time>2021-11-09T12:30:34.000Z</time>
      </trkpt>
      <trkpt lat="45.84202" lon="-1.21281">
        <ele>50</ele>
        <time>2021-11-09T12:30:35.000Z</time>
      </trkpt>
      <trkpt lat="45.84185" lon="-1.21283">
        <ele>50</ele>
        <time>2021-11-09T12:30:38.000Z</time>
      </trkpt>
      <trkpt lat="45.84173" lon="-1.21286">
        <ele>50</ele>
        <time>2021-11-09T12:30:40.000Z</time>
      </trkpt>
      <trkpt lat="45.84164" lon="-1.2129">
        <ele>50</ele>
        <time>2021-11-09T12:30:42.000Z</time>
      </trkpt>
      <trkpt lat="45.84157" lon="-1.2129">
        <ele>50</ele>
        <time>2021-11-09T12:30:43.000Z</time>
      </trkpt>
      <trkpt lat="45.84132" lon="-1.2129">
        <ele>50.200000762939</ele>
        <time>2021-11-09T12:30:47.000Z</time>
      </trkpt>
      <trkpt lat="45.84126" lon="-1.21288">
        <ele>50</ele>
        <time>2021-11-09T12:30:48.000Z</time>
      </trkpt>
      <trkpt lat="45.8412" lon="-1.21287">
        <ele>50</ele>
        <time>2021-11-09T12:30:49.000Z</time>
      </trkpt>
      <trkpt lat="45.84108" lon="-1.21281">
        <ele>49.799999237061</ele>
        <time>2021-11-09T12:30:51.000Z</time>
      </trkpt>
      <trkpt lat="45.84102" lon="-1.21278">
        <ele>49.599998474121</ele>
        <time>2021-11-09T12:30:52.000Z</time>
      </trkpt>
      <trkpt lat="45.84077" lon="-1.21262">
        <ele>49.200000762939</ele>
        <time>2021-11-09T12:30:56.000Z</time>
      </trkpt>
      <trkpt lat="45.8407" lon="-1.21259">
        <ele>49.200000762939</ele>
        <time>2021-11-09T12:30:57.000Z</time>
      </trkpt>
      <trkpt lat="45.84058" lon="-1.21258">
        <ele>49.200000762939</ele>
        <time>2021-11-09T12:30:59.000Z</time>
      </trkpt>
      <trkpt lat="45.84047" lon="-1.2126">
        <ele>49</ele>
        <time>2021-11-09T12:31:01.000Z</time>
      </trkpt>
      <trkpt lat="45.84035" lon="-1.21262">
        <ele>49</ele>
        <time>2021-11-09T12:31:03.000Z</time>
      </trkpt>
      <trkpt lat="45.84024" lon="-1.21261">
        <ele>48.799999237061</ele>
        <time>2021-11-09T12:31:05.000Z</time>
      </trkpt>
      <trkpt lat="45.84019" lon="-1.21259">
        <ele>48.400001525879</ele>
        <time>2021-11-09T12:31:06.000Z</time>
      </trkpt>
      <trkpt lat="45.84016" lon="-1.21255">
        <ele>48.200000762939</ele>
        <time>2021-11-09T12:31:07.000Z</time>
      </trkpt>
      <trkpt lat="45.84007" lon="-1.21249">
        <ele>48.799999237061</ele>
        <time>2021-11-09T12:31:09.000Z</time>
      </trkpt>
      <trkpt lat="45.83995" lon="-1.21248">
        <ele>48.400001525879</ele>
        <time>2021-11-09T12:31:12.000Z</time>
      </trkpt>
      <trkpt lat="45.8399" lon="-1.21245">
        <ele>48.400001525879</ele>
        <time>2021-11-09T12:31:13.000Z</time>
      </trkpt>
      <trkpt lat="45.83985" lon="-1.21241">
        <ele>48.200000762939</ele>
        <time>2021-11-09T12:31:14.000Z</time>
      </trkpt>
      <trkpt lat="45.8398" lon="-1.21238">
        <ele>48.200000762939</ele>
        <time>2021-11-09T12:31:15.000Z</time>
      </trkpt>
      <trkpt lat="45.83974" lon="-1.21233">
        <ele>48</ele>
        <time>2021-11-09T12:31:16.000Z</time>
      </trkpt>
      <trkpt lat="45.83967" lon="-1.21229">
        <ele>47.799999237061</ele>
        <time>2021-11-09T12:31:17.000Z</time>
      </trkpt>
      <trkpt lat="45.83952" lon="-1.21225">
        <ele>47.599998474121</ele>
        <time>2021-11-09T12:31:19.000Z</time>
      </trkpt>
      <trkpt lat="45.83938" lon="-1.21224">
        <ele>47.200000762939</ele>
        <time>2021-11-09T12:31:21.000Z</time>
      </trkpt>
      <trkpt lat="45.83925" lon="-1.21216">
        <ele>46.799999237061</ele>
        <time>2021-11-09T12:31:23.000Z</time>
      </trkpt>
      <trkpt lat="45.83917" lon="-1.21198">
        <ele>45.799999237061</ele>
        <time>2021-11-09T12:31:25.000Z</time>
      </trkpt>
      <trkpt lat="45.83906" lon="-1.21155">
        <ele>44.599998474121</ele>
        <time>2021-11-09T12:31:29.000Z</time>
      </trkpt>
      <trkpt lat="45.839" lon="-1.2113">
        <ele>44.400001525879</ele>
        <time>2021-11-09T12:31:31.000Z</time>
      </trkpt>
      <trkpt lat="45.83897" lon="-1.21118">
        <ele>44.200000762939</ele>
        <time>2021-11-09T12:31:32.000Z</time>
      </trkpt>
      <trkpt lat="45.83886" lon="-1.21088">
        <ele>43.599998474121</ele>
        <time>2021-11-09T12:31:35.000Z</time>
      </trkpt>
      <trkpt lat="45.83879" lon="-1.21077">
        <ele>42.799999237061</ele>
        <time>2021-11-09T12:31:37.000Z</time>
      </trkpt>
      <trkpt lat="45.83875" lon="-1.21076">
        <ele>42.599998474121</ele>
        <time>2021-11-09T12:31:38.000Z</time>
      </trkpt>
      <trkpt lat="45.83871" lon="-1.21078">
        <ele>42.400001525879</ele>
        <time>2021-11-09T12:31:39.000Z</time>
      </trkpt>
      <trkpt lat="45.83861" lon="-1.21087">
        <ele>42.200000762939</ele>
        <time>2021-11-09T12:31:41.000Z</time>
      </trkpt>
      <trkpt lat="45.83851" lon="-1.21096">
        <ele>41</ele>
        <time>2021-11-09T12:31:43.000Z</time>
      </trkpt>
      <trkpt lat="45.83839" lon="-1.21104">
        <ele>40.400001525879</ele>
        <time>2021-11-09T12:31:45.000Z</time>
      </trkpt>
      <trkpt lat="45.83828" lon="-1.21111">
        <ele>39.799999237061</ele>
        <time>2021-11-09T12:31:47.000Z</time>
      </trkpt>
      <trkpt lat="45.83808" lon="-1.21121">
        <ele>39.599998474121</ele>
        <time>2021-11-09T12:31:50.000Z</time>
      </trkpt>
      <trkpt lat="45.83794" lon="-1.21127">
        <ele>38.599998474121</ele>
        <time>2021-11-09T12:31:52.000Z</time>
      </trkpt>
      <trkpt lat="45.83771" lon="-1.21136">
        <ele>37.799999237061</ele>
        <time>2021-11-09T12:31:55.000Z</time>
      </trkpt>
      <trkpt lat="45.83763" lon="-1.21139">
        <ele>36.799999237061</ele>
        <time>2021-11-09T12:31:56.000Z</time>
      </trkpt>
      <trkpt lat="45.83756" lon="-1.21141">
        <ele>36.599998474121</ele>
        <time>2021-11-09T12:31:57.000Z</time>
      </trkpt>
      <trkpt lat="45.83735" lon="-1.21147">
        <ele>35.799999237061</ele>
        <time>2021-11-09T12:32:00.000Z</time>
      </trkpt>
      <trkpt lat="45.8373" lon="-1.21149">
        <ele>35.599998474121</ele>
        <time>2021-11-09T12:32:01.000Z</time>
      </trkpt>
      <trkpt lat="45.83701" lon="-1.21158">
        <ele>34.200000762939</ele>
        <time>2021-11-09T12:32:05.000Z</time>
      </trkpt>
      <trkpt lat="45.83693" lon="-1.21158">
        <ele>34</ele>
        <time>2021-11-09T12:32:06.000Z</time>
      </trkpt>
      <trkpt lat="45.83665" lon="-1.2116">
        <ele>33</ele>
        <time>2021-11-09T12:32:10.000Z</time>
      </trkpt>
      <trkpt lat="45.83658" lon="-1.21161">
        <ele>32.799999237061</ele>
        <time>2021-11-09T12:32:11.000Z</time>
      </trkpt>
      <trkpt lat="45.83647" lon="-1.21162">
        <ele>32.400001525879</ele>
        <time>2021-11-09T12:32:13.000Z</time>
      </trkpt>
      <trkpt lat="45.83643" lon="-1.21166">
        <ele>31.799999237061</ele>
        <time>2021-11-09T12:32:14.000Z</time>
      </trkpt>
      <trkpt lat="45.8364" lon="-1.21171">
        <ele>31.799999237061</ele>
        <time>2021-11-09T12:32:15.000Z</time>
      </trkpt>
      <trkpt lat="45.83639" lon="-1.21175">
        <ele>31.60000038147</ele>
        <time>2021-11-09T12:32:16.000Z</time>
      </trkpt>
      <trkpt lat="45.83639" lon="-1.21203">
        <ele>31.39999961853</ele>
        <time>2021-11-09T12:32:22.000Z</time>
      </trkpt>
      <trkpt lat="45.83639" lon="-1.21212">
        <ele>31.39999961853</ele>
        <time>2021-11-09T12:32:24.000Z</time>
      </trkpt>
      <trkpt lat="45.83636" lon="-1.21222">
        <ele>31.200000762939</ele>
        <time>2021-11-09T12:32:26.000Z</time>
      </trkpt>
      <trkpt lat="45.83634" lon="-1.21237">
        <ele>31.200000762939</ele>
        <time>2021-11-09T12:32:28.000Z</time>
      </trkpt>
      <trkpt lat="45.83632" lon="-1.21254">
        <ele>31.200000762939</ele>
        <time>2021-11-09T12:32:30.000Z</time>
      </trkpt>
      <trkpt lat="45.83625" lon="-1.21297">
        <ele>31.200000762939</ele>
        <time>2021-11-09T12:32:35.000Z</time>
      </trkpt>
      <trkpt lat="45.83623" lon="-1.21306">
        <ele>31.200000762939</ele>
        <time>2021-11-09T12:32:36.000Z</time>
      </trkpt>
      <trkpt lat="45.83619" lon="-1.21334">
        <ele>31.200000762939</ele>
        <time>2021-11-09T12:32:39.000Z</time>
      </trkpt>
      <trkpt lat="45.83615" lon="-1.21366">
        <ele>31.200000762939</ele>
        <time>2021-11-09T12:32:42.000Z</time>
      </trkpt>
      <trkpt lat="45.83615" lon="-1.21378">
        <ele>31.200000762939</ele>
        <time>2021-11-09T12:32:43.000Z</time>
      </trkpt>
      <trkpt lat="45.83611" lon="-1.21399">
        <ele>31</ele>
        <time>2021-11-09T12:32:45.000Z</time>
      </trkpt>
      <trkpt lat="45.83606" lon="-1.21446">
        <ele>30.39999961853</ele>
        <time>2021-11-09T12:32:50.000Z</time>
      </trkpt>
      <trkpt lat="45.83603" lon="-1.21479">
        <ele>30.39999961853</ele>
        <time>2021-11-09T12:32:54.000Z</time>
      </trkpt>
      <trkpt lat="45.83603" lon="-1.21486">
        <ele>30.39999961853</ele>
        <time>2021-11-09T12:32:55.000Z</time>
      </trkpt>
      <trkpt lat="45.83601" lon="-1.21502">
        <ele>30.39999961853</ele>
        <time>2021-11-09T12:32:57.000Z</time>
      </trkpt>
      <trkpt lat="45.83594" lon="-1.21527">
        <ele>30.39999961853</ele>
        <time>2021-11-09T12:33:00.000Z</time>
      </trkpt>
      <trkpt lat="45.83593" lon="-1.21536">
        <ele>30.60000038147</ele>
        <time>2021-11-09T12:33:01.000Z</time>
      </trkpt>
      <trkpt lat="45.83584" lon="-1.21575">
        <ele>30.60000038147</ele>
        <time>2021-11-09T12:33:06.000Z</time>
      </trkpt>
      <trkpt lat="45.83571" lon="-1.21614">
        <ele>30.39999961853</ele>
        <time>2021-11-09T12:33:11.000Z</time>
      </trkpt>
      <trkpt lat="45.83567" lon="-1.21632">
        <ele>30.200000762939</ele>
        <time>2021-11-09T12:33:13.000Z</time>
      </trkpt>
      <trkpt lat="45.83561" lon="-1.21653">
        <ele>30.200000762939</ele>
        <time>2021-11-09T12:33:15.000Z</time>
      </trkpt>
      <trkpt lat="45.83557" lon="-1.21671">
        <ele>30.200000762939</ele>
        <time>2021-11-09T12:33:17.000Z</time>
      </trkpt>
      <trkpt lat="45.8355" lon="-1.21687">
        <ele>30.200000762939</ele>
        <time>2021-11-09T12:33:19.000Z</time>
      </trkpt>
      <trkpt lat="45.83546" lon="-1.21695">
        <ele>30.200000762939</ele>
        <time>2021-11-09T12:33:20.000Z</time>
      </trkpt>
      <trkpt lat="45.83532" lon="-1.21729">
        <ele>30.200000762939</ele>
        <time>2021-11-09T12:33:24.000Z</time>
      </trkpt>
      <trkpt lat="45.83525" lon="-1.21745">
        <ele>30</ele>
        <time>2021-11-09T12:33:26.000Z</time>
      </trkpt>
      <trkpt lat="45.8352" lon="-1.21765">
        <ele>29.799999237061</ele>
        <time>2021-11-09T12:33:29.000Z</time>
      </trkpt>
      <trkpt lat="45.83502" lon="-1.21792">
        <ele>29.799999237061</ele>
        <time>2021-11-09T12:33:33.000Z</time>
      </trkpt>
      <trkpt lat="45.83477" lon="-1.21821">
        <ele>29.60000038147</ele>
        <time>2021-11-09T12:33:38.000Z</time>
      </trkpt>
      <trkpt lat="45.83466" lon="-1.21831">
        <ele>29.39999961853</ele>
        <time>2021-11-09T12:33:40.000Z</time>
      </trkpt>
      <trkpt lat="45.83453" lon="-1.21849">
        <ele>29.200000762939</ele>
        <time>2021-11-09T12:33:43.000Z</time>
      </trkpt>
      <trkpt lat="45.83448" lon="-1.21854">
        <ele>29.200000762939</ele>
        <time>2021-11-09T12:33:44.000Z</time>
      </trkpt>
      <trkpt lat="45.83438" lon="-1.21862">
        <ele>29</ele>
        <time>2021-11-09T12:33:47.000Z</time>
      </trkpt>
      <trkpt lat="45.83428" lon="-1.21872">
        <ele>29</ele>
        <time>2021-11-09T12:33:50.000Z</time>
      </trkpt>
      <trkpt lat="45.83423" lon="-1.21882">
        <ele>29.39999961853</ele>
        <time>2021-11-09T12:33:52.000Z</time>
      </trkpt>
      <trkpt lat="45.83416" lon="-1.21897">
        <ele>29.60000038147</ele>
        <time>2021-11-09T12:33:54.000Z</time>
      </trkpt>
      <trkpt lat="45.83412" lon="-1.21911">
        <ele>29.60000038147</ele>
        <time>2021-11-09T12:33:56.000Z</time>
      </trkpt>
      <trkpt lat="45.83404" lon="-1.21933">
        <ele>29.60000038147</ele>
        <time>2021-11-09T12:33:59.000Z</time>
      </trkpt>
      <trkpt lat="45.83398" lon="-1.21949">
        <ele>29.60000038147</ele>
        <time>2021-11-09T12:34:01.000Z</time>
      </trkpt>
      <trkpt lat="45.83393" lon="-1.21961">
        <ele>30</ele>
        <time>2021-11-09T12:34:03.000Z</time>
      </trkpt>
      <trkpt lat="45.83391" lon="-1.21966">
        <ele>30</ele>
        <time>2021-11-09T12:34:04.000Z</time>
      </trkpt>
      <trkpt lat="45.83379" lon="-1.21995">
        <ele>30.200000762939</ele>
        <time>2021-11-09T12:34:08.000Z</time>
      </trkpt>
      <trkpt lat="45.83377" lon="-1.22001">
        <ele>30.200000762939</ele>
        <time>2021-11-09T12:34:09.000Z</time>
      </trkpt>
      <trkpt lat="45.83372" lon="-1.22016">
        <ele>30</ele>
        <time>2021-11-09T12:34:11.000Z</time>
      </trkpt>
      <trkpt lat="45.8337" lon="-1.22023">
        <ele>30</ele>
        <time>2021-11-09T12:34:12.000Z</time>
      </trkpt>
      <trkpt lat="45.83346" lon="-1.22065">
        <ele>29.799999237061</ele>
        <time>2021-11-09T12:34:17.000Z</time>
      </trkpt>
      <trkpt lat="45.83322" lon="-1.22098">
        <ele>29.799999237061</ele>
        <time>2021-11-09T12:34:22.000Z</time>
      </trkpt>
      <trkpt lat="45.83311" lon="-1.22106">
        <ele>29.60000038147</ele>
        <time>2021-11-09T12:34:24.000Z</time>
      </trkpt>
      <trkpt lat="45.83298" lon="-1.22111">
        <ele>29.39999961853</ele>
        <time>2021-11-09T12:34:26.000Z</time>
      </trkpt>
      <trkpt lat="45.83284" lon="-1.22115">
        <ele>29</ele>
        <time>2021-11-09T12:34:28.000Z</time>
      </trkpt>
      <trkpt lat="45.83268" lon="-1.22126">
        <ele>28.200000762939</ele>
        <time>2021-11-09T12:34:31.000Z</time>
      </trkpt>
      <trkpt lat="45.83257" lon="-1.22132">
        <ele>27.799999237061</ele>
        <time>2021-11-09T12:34:33.000Z</time>
      </trkpt>
      <trkpt lat="45.83248" lon="-1.22138">
        <ele>26.799999237061</ele>
        <time>2021-11-09T12:34:35.000Z</time>
      </trkpt>
      <trkpt lat="45.83243" lon="-1.22144">
        <ele>26.60000038147</ele>
        <time>2021-11-09T12:34:36.000Z</time>
      </trkpt>
      <trkpt lat="45.83241" lon="-1.22152">
        <ele>26.39999961853</ele>
        <time>2021-11-09T12:34:37.000Z</time>
      </trkpt>
      <trkpt lat="45.8324" lon="-1.22165">
        <ele>26.200000762939</ele>
        <time>2021-11-09T12:34:39.000Z</time>
      </trkpt>
      <trkpt lat="45.83238" lon="-1.22191">
        <ele>25.799999237061</ele>
        <time>2021-11-09T12:34:42.000Z</time>
      </trkpt>
      <trkpt lat="45.83238" lon="-1.222">
        <ele>25.60000038147</ele>
        <time>2021-11-09T12:34:43.000Z</time>
      </trkpt>
      <trkpt lat="45.83236" lon="-1.22216">
        <ele>25.39999961853</ele>
        <time>2021-11-09T12:34:45.000Z</time>
      </trkpt>
      <trkpt lat="45.83229" lon="-1.2227">
        <ele>25.200000762939</ele>
        <time>2021-11-09T12:34:52.000Z</time>
      </trkpt>
      <trkpt lat="45.83223" lon="-1.22309">
        <ele>26.200000762939</ele>
        <time>2021-11-09T12:34:59.000Z</time>
      </trkpt>
      <trkpt lat="45.83219" lon="-1.22345">
        <ele>26.60000038147</ele>
        <time>2021-11-09T12:35:05.000Z</time>
      </trkpt>
      <trkpt lat="45.83212" lon="-1.22396">
        <ele>26.60000038147</ele>
        <time>2021-11-09T12:35:11.000Z</time>
      </trkpt>
      <trkpt lat="45.83205" lon="-1.22455">
        <ele>25.799999237061</ele>
        <time>2021-11-09T12:35:17.000Z</time>
      </trkpt>
      <trkpt lat="45.83198" lon="-1.22502">
        <ele>24.799999237061</ele>
        <time>2021-11-09T12:35:22.000Z</time>
      </trkpt>
      <trkpt lat="45.83195" lon="-1.22523">
        <ele>24.200000762939</ele>
        <time>2021-11-09T12:35:24.000Z</time>
      </trkpt>
      <trkpt lat="45.83194" lon="-1.22533">
        <ele>23.39999961853</ele>
        <time>2021-11-09T12:35:25.000Z</time>
      </trkpt>
      <trkpt lat="45.83191" lon="-1.22559">
        <ele>22.39999961853</ele>
        <time>2021-11-09T12:35:28.000Z</time>
      </trkpt>
      <trkpt lat="45.8319" lon="-1.22569">
        <ele>22.200000762939</ele>
        <time>2021-11-09T12:35:29.000Z</time>
      </trkpt>
      <trkpt lat="45.83185" lon="-1.22602">
        <ele>22</ele>
        <time>2021-11-09T12:35:33.000Z</time>
      </trkpt>
      <trkpt lat="45.8318" lon="-1.22613">
        <ele>21.799999237061</ele>
        <time>2021-11-09T12:35:35.000Z</time>
      </trkpt>
      <trkpt lat="45.83159" lon="-1.22618">
        <ele>21.60000038147</ele>
        <time>2021-11-09T12:35:40.000Z</time>
      </trkpt>
      <trkpt lat="45.83144" lon="-1.22622">
        <ele>21.39999961853</ele>
        <time>2021-11-09T12:35:43.000Z</time>
      </trkpt>
      <trkpt lat="45.83128" lon="-1.22625">
        <ele>20.200000762939</ele>
        <time>2021-11-09T12:35:46.000Z</time>
      </trkpt>
      <trkpt lat="45.83121" lon="-1.22626">
        <ele>19.60000038147</ele>
        <time>2021-11-09T12:35:47.000Z</time>
      </trkpt>
      <trkpt lat="45.83109" lon="-1.22628">
        <ele>19.200000762939</ele>
        <time>2021-11-09T12:35:49.000Z</time>
      </trkpt>
      <trkpt lat="45.83079" lon="-1.22633">
        <ele>18.799999237061</ele>
        <time>2021-11-09T12:35:54.000Z</time>
      </trkpt>
      <trkpt lat="45.8305" lon="-1.22641">
        <ele>18.60000038147</ele>
        <time>2021-11-09T12:35:59.000Z</time>
      </trkpt>
      <trkpt lat="45.8302" lon="-1.22645">
        <ele>18</ele>
        <time>2021-11-09T12:36:04.000Z</time>
      </trkpt>
      <trkpt lat="45.83014" lon="-1.22643">
        <ele>18</ele>
        <time>2021-11-09T12:36:05.000Z</time>
      </trkpt>
      <trkpt lat="45.83008" lon="-1.22641">
        <ele>18</ele>
        <time>2021-11-09T12:36:06.000Z</time>
      </trkpt>
      <trkpt lat="45.82991" lon="-1.22631">
        <ele>17.60000038147</ele>
        <time>2021-11-09T12:36:10.000Z</time>
      </trkpt>
      <trkpt lat="45.82985" lon="-1.22628">
        <ele>17.39999961853</ele>
        <time>2021-11-09T12:36:11.000Z</time>
      </trkpt>
      <trkpt lat="45.82971" lon="-1.22625">
        <ele>17.60000038147</ele>
        <time>2021-11-09T12:36:14.000Z</time>
      </trkpt>
      <trkpt lat="45.82967" lon="-1.22623">
        <ele>17.799999237061</ele>
        <time>2021-11-09T12:36:15.000Z</time>
      </trkpt>
      <trkpt lat="45.82954" lon="-1.22611">
        <ele>17.60000038147</ele>
        <time>2021-11-09T12:36:18.000Z</time>
      </trkpt>
      <trkpt lat="45.82928" lon="-1.22596">
        <ele>17.60000038147</ele>
        <time>2021-11-09T12:36:23.000Z</time>
      </trkpt>
      <trkpt lat="45.82892" lon="-1.22575">
        <ele>17.60000038147</ele>
        <time>2021-11-09T12:36:30.000Z</time>
      </trkpt>
      <trkpt lat="45.82859" lon="-1.22554">
        <ele>17.799999237061</ele>
        <time>2021-11-09T12:36:36.000Z</time>
      </trkpt>
      <trkpt lat="45.82855" lon="-1.22549">
        <ele>17.799999237061</ele>
        <time>2021-11-09T12:36:37.000Z</time>
      </trkpt>
      <trkpt lat="45.82851" lon="-1.22542">
        <ele>18</ele>
        <time>2021-11-09T12:36:38.000Z</time>
      </trkpt>
      <trkpt lat="45.82841" lon="-1.2252">
        <ele>18.200000762939</ele>
        <time>2021-11-09T12:36:41.000Z</time>
      </trkpt>
      <trkpt lat="45.82839" lon="-1.22511">
        <ele>18.200000762939</ele>
        <time>2021-11-09T12:36:42.000Z</time>
      </trkpt>
      <trkpt lat="45.82833" lon="-1.22486">
        <ele>18.200000762939</ele>
        <time>2021-11-09T12:36:45.000Z</time>
      </trkpt>
      <trkpt lat="45.82831" lon="-1.22478">
        <ele>18.200000762939</ele>
        <time>2021-11-09T12:36:46.000Z</time>
      </trkpt>
      <trkpt lat="45.82827" lon="-1.22473">
        <ele>18.200000762939</ele>
        <time>2021-11-09T12:36:47.000Z</time>
      </trkpt>
      <trkpt lat="45.8282" lon="-1.22469">
        <ele>18.200000762939</ele>
        <time>2021-11-09T12:36:49.000Z</time>
      </trkpt>
      <trkpt lat="45.82807" lon="-1.2248">
        <ele>18.39999961853</ele>
        <time>2021-11-09T12:36:52.000Z</time>
      </trkpt>
      <trkpt lat="45.82802" lon="-1.22486">
        <ele>18.39999961853</ele>
        <time>2021-11-09T12:36:53.000Z</time>
      </trkpt>
      <trkpt lat="45.82779" lon="-1.22512">
        <ele>18.39999961853</ele>
        <time>2021-11-09T12:36:57.000Z</time>
      </trkpt>
      <trkpt lat="45.82773" lon="-1.22519">
        <ele>18.39999961853</ele>
        <time>2021-11-09T12:36:58.000Z</time>
      </trkpt>
      <trkpt lat="45.82738" lon="-1.22555">
        <ele>18.60000038147</ele>
        <time>2021-11-09T12:37:04.000Z</time>
      </trkpt>
      <trkpt lat="45.82732" lon="-1.22558">
        <ele>18.60000038147</ele>
        <time>2021-11-09T12:37:05.000Z</time>
      </trkpt>
      <trkpt lat="45.82726" lon="-1.22558">
        <ele>18.60000038147</ele>
        <time>2021-11-09T12:37:06.000Z</time>
      </trkpt>
      <trkpt lat="45.82714" lon="-1.22557">
        <ele>18.799999237061</ele>
        <time>2021-11-09T12:37:08.000Z</time>
      </trkpt>
      <trkpt lat="45.82708" lon="-1.22557">
        <ele>18.799999237061</ele>
        <time>2021-11-09T12:37:09.000Z</time>
      </trkpt>
      <trkpt lat="45.8269" lon="-1.22561">
        <ele>18.799999237061</ele>
        <time>2021-11-09T12:37:12.000Z</time>
      </trkpt>
      <trkpt lat="45.82678" lon="-1.22555">
        <ele>18.60000038147</ele>
        <time>2021-11-09T12:37:14.000Z</time>
      </trkpt>
      <trkpt lat="45.82674" lon="-1.22551">
        <ele>18.60000038147</ele>
        <time>2021-11-09T12:37:15.000Z</time>
      </trkpt>
      <trkpt lat="45.8267" lon="-1.22545">
        <ele>18.39999961853</ele>
        <time>2021-11-09T12:37:16.000Z</time>
      </trkpt>
      <trkpt lat="45.82654" lon="-1.2252">
        <ele>18.39999961853</ele>
        <time>2021-11-09T12:37:20.000Z</time>
      </trkpt>
      <trkpt lat="45.8265" lon="-1.22514">
        <ele>18.39999961853</ele>
        <time>2021-11-09T12:37:21.000Z</time>
      </trkpt>
      <trkpt lat="45.82635" lon="-1.2249">
        <ele>18.60000038147</ele>
        <time>2021-11-09T12:37:25.000Z</time>
      </trkpt>
      <trkpt lat="45.82625" lon="-1.22472">
        <ele>19</ele>
        <time>2021-11-09T12:37:28.000Z</time>
      </trkpt>
      <trkpt lat="45.82621" lon="-1.22466">
        <ele>19.200000762939</ele>
        <time>2021-11-09T12:37:29.000Z</time>
      </trkpt>
      <trkpt lat="45.82615" lon="-1.22455">
        <ele>19.39999961853</ele>
        <time>2021-11-09T12:37:31.000Z</time>
      </trkpt>
      <trkpt lat="45.82602" lon="-1.22432">
        <ele>20.39999961853</ele>
        <time>2021-11-09T12:37:35.000Z</time>
      </trkpt>
      <trkpt lat="45.82599" lon="-1.22427">
        <ele>20.39999961853</ele>
        <time>2021-11-09T12:37:36.000Z</time>
      </trkpt>
      <trkpt lat="45.82595" lon="-1.22421">
        <ele>20.39999961853</ele>
        <time>2021-11-09T12:37:37.000Z</time>
      </trkpt>
      <trkpt lat="45.82587" lon="-1.22408">
        <ele>21</ele>
        <time>2021-11-09T12:37:39.000Z</time>
      </trkpt>
      <trkpt lat="45.82583" lon="-1.22401">
        <ele>21</ele>
        <time>2021-11-09T12:37:40.000Z</time>
      </trkpt>
      <trkpt lat="45.82563" lon="-1.2237">
        <ele>21.200000762939</ele>
        <time>2021-11-09T12:37:45.000Z</time>
      </trkpt>
      <trkpt lat="45.82559" lon="-1.22364">
        <ele>21.39999961853</ele>
        <time>2021-11-09T12:37:46.000Z</time>
      </trkpt>
      <trkpt lat="45.82555" lon="-1.22358">
        <ele>21.39999961853</ele>
        <time>2021-11-09T12:37:47.000Z</time>
      </trkpt>
      <trkpt lat="45.82539" lon="-1.22329">
        <ele>21.799999237061</ele>
        <time>2021-11-09T12:37:52.000Z</time>
      </trkpt>
      <trkpt lat="45.82522" lon="-1.22299">
        <ele>22.60000038147</ele>
        <time>2021-11-09T12:37:57.000Z</time>
      </trkpt>
      <trkpt lat="45.82515" lon="-1.22287">
        <ele>22.799999237061</ele>
        <time>2021-11-09T12:37:59.000Z</time>
      </trkpt>
      <trkpt lat="45.82501" lon="-1.22262">
        <ele>22.799999237061</ele>
        <time>2021-11-09T12:38:03.000Z</time>
      </trkpt>
      <trkpt lat="45.8249" lon="-1.22243">
        <ele>22.799999237061</ele>
        <time>2021-11-09T12:38:06.000Z</time>
      </trkpt>
      <trkpt lat="45.82487" lon="-1.22236">
        <ele>22.799999237061</ele>
        <time>2021-11-09T12:38:07.000Z</time>
      </trkpt>
      <trkpt lat="45.82472" lon="-1.22211">
        <ele>22.200000762939</ele>
        <time>2021-11-09T12:38:11.000Z</time>
      </trkpt>
      <trkpt lat="45.82456" lon="-1.22187">
        <ele>21.200000762939</ele>
        <time>2021-11-09T12:38:15.000Z</time>
      </trkpt>
      <trkpt lat="45.82449" lon="-1.22174">
        <ele>20.799999237061</ele>
        <time>2021-11-09T12:38:18.000Z</time>
      </trkpt>
      <trkpt lat="45.82413" lon="-1.22119">
        <ele>22.200000762939</ele>
        <time>2021-11-09T12:38:26.000Z</time>
      </trkpt>
      <trkpt lat="45.8241" lon="-1.22114">
        <ele>22.200000762939</ele>
        <time>2021-11-09T12:38:27.000Z</time>
      </trkpt>
      <trkpt lat="45.82407" lon="-1.22108">
        <ele>22.39999961853</ele>
        <time>2021-11-09T12:38:28.000Z</time>
      </trkpt>
      <trkpt lat="45.824" lon="-1.22096">
        <ele>22.60000038147</ele>
        <time>2021-11-09T12:38:30.000Z</time>
      </trkpt>
      <trkpt lat="45.82392" lon="-1.22088">
        <ele>22.799999237061</ele>
        <time>2021-11-09T12:38:32.000Z</time>
      </trkpt>
      <trkpt lat="45.82384" lon="-1.22084">
        <ele>23</ele>
        <time>2021-11-09T12:38:34.000Z</time>
      </trkpt>
      <trkpt lat="45.82379" lon="-1.22082">
        <ele>23</ele>
        <time>2021-11-09T12:38:35.000Z</time>
      </trkpt>
      <trkpt lat="45.82366" lon="-1.22077">
        <ele>22.799999237061</ele>
        <time>2021-11-09T12:38:38.000Z</time>
      </trkpt>
      <trkpt lat="45.82365" lon="-1.22069">
        <ele>22.799999237061</ele>
        <time>2021-11-09T12:38:40.000Z</time>
      </trkpt>
      <trkpt lat="45.82365" lon="-1.22057">
        <ele>22.60000038147</ele>
        <time>2021-11-09T12:38:42.000Z</time>
      </trkpt>
      <trkpt lat="45.82361" lon="-1.22047">
        <ele>22.60000038147</ele>
        <time>2021-11-09T12:38:44.000Z</time>
      </trkpt>
      <trkpt lat="45.82355" lon="-1.22037">
        <ele>22.200000762939</ele>
        <time>2021-11-09T12:38:46.000Z</time>
      </trkpt>
      <trkpt lat="45.8234" lon="-1.22016">
        <ele>22.200000762939</ele>
        <time>2021-11-09T12:38:51.000Z</time>
      </trkpt>
      <trkpt lat="45.82335" lon="-1.2201">
        <ele>22.200000762939</ele>
        <time>2021-11-09T12:38:52.000Z</time>
      </trkpt>
      <trkpt lat="45.82326" lon="-1.21991">
        <ele>22.60000038147</ele>
        <time>2021-11-09T12:38:55.000Z</time>
      </trkpt>
      <trkpt lat="45.82318" lon="-1.2198">
        <ele>22.60000038147</ele>
        <time>2021-11-09T12:38:57.000Z</time>
      </trkpt>
      <trkpt lat="45.82314" lon="-1.21965">
        <ele>22.60000038147</ele>
        <time>2021-11-09T12:39:00.000Z</time>
      </trkpt>
      <trkpt lat="45.82307" lon="-1.21952">
        <ele>21.799999237061</ele>
        <time>2021-11-09T12:39:03.000Z</time>
      </trkpt>
      <trkpt lat="45.82303" lon="-1.21948">
        <ele>21.799999237061</ele>
        <time>2021-11-09T12:39:04.000Z</time>
      </trkpt>
      <trkpt lat="45.82293" lon="-1.21936">
        <ele>21.60000038147</ele>
        <time>2021-11-09T12:39:06.000Z</time>
      </trkpt>
      <trkpt lat="45.82289" lon="-1.21928">
        <ele>21.60000038147</ele>
        <time>2021-11-09T12:39:07.000Z</time>
      </trkpt>
      <trkpt lat="45.82273" lon="-1.21906">
        <ele>22</ele>
        <time>2021-11-09T12:39:11.000Z</time>
      </trkpt>
      <trkpt lat="45.82255" lon="-1.21871">
        <ele>22.60000038147</ele>
        <time>2021-11-09T12:39:16.000Z</time>
      </trkpt>
      <trkpt lat="45.82248" lon="-1.21858">
        <ele>22.60000038147</ele>
        <time>2021-11-09T12:39:18.000Z</time>
      </trkpt>
      <trkpt lat="45.82239" lon="-1.21848">
        <ele>22.60000038147</ele>
        <time>2021-11-09T12:39:20.000Z</time>
      </trkpt>
      <trkpt lat="45.82235" lon="-1.21844">
        <ele>22.39999961853</ele>
        <time>2021-11-09T12:39:21.000Z</time>
      </trkpt>
      <trkpt lat="45.82216" lon="-1.21827">
        <ele>22.200000762939</ele>
        <time>2021-11-09T12:39:25.000Z</time>
      </trkpt>
      <trkpt lat="45.82204" lon="-1.21812">
        <ele>22.200000762939</ele>
        <time>2021-11-09T12:39:28.000Z</time>
      </trkpt>
      <trkpt lat="45.82193" lon="-1.21793">
        <ele>22.200000762939</ele>
        <time>2021-11-09T12:39:31.000Z</time>
      </trkpt>
      <trkpt lat="45.82186" lon="-1.21782">
        <ele>22.200000762939</ele>
        <time>2021-11-09T12:39:33.000Z</time>
      </trkpt>
      <trkpt lat="45.82183" lon="-1.21779">
        <ele>22.200000762939</ele>
        <time>2021-11-09T12:39:34.000Z</time>
      </trkpt>
      <trkpt lat="45.82168" lon="-1.2177">
        <ele>23.200000762939</ele>
        <time>2021-11-09T12:39:38.000Z</time>
      </trkpt>
      <trkpt lat="45.82156" lon="-1.21762">
        <ele>23.200000762939</ele>
        <time>2021-11-09T12:39:41.000Z</time>
      </trkpt>
      <trkpt lat="45.82151" lon="-1.2176">
        <ele>23.200000762939</ele>
        <time>2021-11-09T12:39:42.000Z</time>
      </trkpt>
      <trkpt lat="45.82125" lon="-1.21741">
        <ele>23.39999961853</ele>
        <time>2021-11-09T12:39:48.000Z</time>
      </trkpt>
      <trkpt lat="45.82119" lon="-1.21738">
        <ele>23.200000762939</ele>
        <time>2021-11-09T12:39:49.000Z</time>
      </trkpt>
      <trkpt lat="45.82107" lon="-1.21732">
        <ele>23.200000762939</ele>
        <time>2021-11-09T12:39:51.000Z</time>
      </trkpt>
      <trkpt lat="45.82103" lon="-1.21728">
        <ele>23.200000762939</ele>
        <time>2021-11-09T12:39:52.000Z</time>
      </trkpt>
      <trkpt lat="45.82093" lon="-1.21715">
        <ele>23.200000762939</ele>
        <time>2021-11-09T12:39:55.000Z</time>
      </trkpt>
      <trkpt lat="45.82084" lon="-1.21711">
        <ele>23.200000762939</ele>
        <time>2021-11-09T12:39:57.000Z</time>
      </trkpt>
      <trkpt lat="45.82069" lon="-1.21705">
        <ele>22.799999237061</ele>
        <time>2021-11-09T12:40:00.000Z</time>
      </trkpt>
      <trkpt lat="45.82063" lon="-1.21704">
        <ele>22.799999237061</ele>
        <time>2021-11-09T12:40:01.000Z</time>
      </trkpt>
      <trkpt lat="45.82057" lon="-1.21704">
        <ele>22.799999237061</ele>
        <time>2021-11-09T12:40:02.000Z</time>
      </trkpt>
      <trkpt lat="45.82032" lon="-1.21704">
        <ele>22.60000038147</ele>
        <time>2021-11-09T12:40:06.000Z</time>
      </trkpt>
      <trkpt lat="45.82014" lon="-1.21702">
        <ele>22.200000762939</ele>
        <time>2021-11-09T12:40:09.000Z</time>
      </trkpt>
      <trkpt lat="45.82008" lon="-1.21704">
        <ele>22.39999961853</ele>
        <time>2021-11-09T12:40:10.000Z</time>
      </trkpt>
      <trkpt lat="45.82003" lon="-1.21707">
        <ele>22.60000038147</ele>
        <time>2021-11-09T12:40:11.000Z</time>
      </trkpt>
      <trkpt lat="45.81991" lon="-1.21717">
        <ele>22.39999961853</ele>
        <time>2021-11-09T12:40:14.000Z</time>
      </trkpt>
      <trkpt lat="45.81981" lon="-1.21726">
        <ele>21.799999237061</ele>
        <time>2021-11-09T12:40:18.000Z</time>
      </trkpt>
      <trkpt lat="45.81971" lon="-1.2173">
        <ele>21.60000038147</ele>
        <time>2021-11-09T12:40:24.000Z</time>
      </trkpt>
      <trkpt lat="45.81958" lon="-1.21729">
        <ele>21.799999237061</ele>
        <time>2021-11-09T12:40:29.000Z</time>
      </trkpt>
      <trkpt lat="45.81943" lon="-1.21722">
        <ele>21.799999237061</ele>
        <time>2021-11-09T12:40:34.000Z</time>
      </trkpt>
      <trkpt lat="45.81923" lon="-1.21706">
        <ele>22</ele>
        <time>2021-11-09T12:40:38.000Z</time>
      </trkpt>
      <trkpt lat="45.81911" lon="-1.21693">
        <ele>22</ele>
        <time>2021-11-09T12:40:41.000Z</time>
      </trkpt>
      <trkpt lat="45.81901" lon="-1.21689">
        <ele>22</ele>
        <time>2021-11-09T12:40:43.000Z</time>
      </trkpt>
      <trkpt lat="45.81881" lon="-1.21697">
        <ele>22</ele>
        <time>2021-11-09T12:40:47.000Z</time>
      </trkpt>
      <trkpt lat="45.81857" lon="-1.2171">
        <ele>22.39999961853</ele>
        <time>2021-11-09T12:40:51.000Z</time>
      </trkpt>
      <trkpt lat="45.81851" lon="-1.21715">
        <ele>22.200000762939</ele>
        <time>2021-11-09T12:40:52.000Z</time>
      </trkpt>
      <trkpt lat="45.81836" lon="-1.21738">
        <ele>22</ele>
        <time>2021-11-09T12:40:56.000Z</time>
      </trkpt>
      <trkpt lat="45.81834" lon="-1.21744">
        <ele>22</ele>
        <time>2021-11-09T12:40:57.000Z</time>
      </trkpt>
      <trkpt lat="45.81831" lon="-1.21747">
        <ele>21.799999237061</ele>
        <time>2021-11-09T12:40:58.000Z</time>
      </trkpt>
      <trkpt lat="45.8182" lon="-1.21756">
        <ele>21.799999237061</ele>
        <time>2021-11-09T12:41:00.000Z</time>
      </trkpt>
      <trkpt lat="45.81813" lon="-1.21761">
        <ele>21.799999237061</ele>
        <time>2021-11-09T12:41:01.000Z</time>
      </trkpt>
      <trkpt lat="45.81787" lon="-1.21803">
        <ele>21.60000038147</ele>
        <time>2021-11-09T12:41:07.000Z</time>
      </trkpt>
      <trkpt lat="45.81777" lon="-1.21825">
        <ele>21.39999961853</ele>
        <time>2021-11-09T12:41:10.000Z</time>
      </trkpt>
      <trkpt lat="45.81775" lon="-1.21833">
        <ele>21</ele>
        <time>2021-11-09T12:41:11.000Z</time>
      </trkpt>
      <trkpt lat="45.81773" lon="-1.21841">
        <ele>20.799999237061</ele>
        <time>2021-11-09T12:41:12.000Z</time>
      </trkpt>
      <trkpt lat="45.81771" lon="-1.21849">
        <ele>20.799999237061</ele>
        <time>2021-11-09T12:41:13.000Z</time>
      </trkpt>
      <trkpt lat="45.81763" lon="-1.21861">
        <ele>20.60000038147</ele>
        <time>2021-11-09T12:41:15.000Z</time>
      </trkpt>
      <trkpt lat="45.81749" lon="-1.21876">
        <ele>20.200000762939</ele>
        <time>2021-11-09T12:41:18.000Z</time>
      </trkpt>
      <trkpt lat="45.81739" lon="-1.21885">
        <ele>20.200000762939</ele>
        <time>2021-11-09T12:41:20.000Z</time>
      </trkpt>
      <trkpt lat="45.81727" lon="-1.21897">
        <ele>20.60000038147</ele>
        <time>2021-11-09T12:41:23.000Z</time>
      </trkpt>
      <trkpt lat="45.81727" lon="-1.21897">
        <ele>20.60000038147</ele>
        <time>2021-11-09T12:41:24.000Z</time>
      </trkpt>
      <trkpt lat="45.81717" lon="-1.21906">
        <ele>20.39999961853</ele>
        <time>2021-11-09T12:41:25.000Z</time>
      </trkpt>
      <trkpt lat="45.81707" lon="-1.21913">
        <ele>20.200000762939</ele>
        <time>2021-11-09T12:41:27.000Z</time>
      </trkpt>
      <trkpt lat="45.81697" lon="-1.21924">
        <ele>20.200000762939</ele>
        <time>2021-11-09T12:41:30.000Z</time>
      </trkpt>
      <trkpt lat="45.81694" lon="-1.21929">
        <ele>19.799999237061</ele>
        <time>2021-11-09T12:41:31.000Z</time>
      </trkpt>
      <trkpt lat="45.81688" lon="-1.21942">
        <ele>19.60000038147</ele>
        <time>2021-11-09T12:41:33.000Z</time>
      </trkpt>
      <trkpt lat="45.81685" lon="-1.21947">
        <ele>19.39999961853</ele>
        <time>2021-11-09T12:41:34.000Z</time>
      </trkpt>
      <trkpt lat="45.81678" lon="-1.21958">
        <ele>19.200000762939</ele>
        <time>2021-11-09T12:41:36.000Z</time>
      </trkpt>
      <trkpt lat="45.81674" lon="-1.21965">
        <ele>19.200000762939</ele>
        <time>2021-11-09T12:41:37.000Z</time>
      </trkpt>
      <trkpt lat="45.81669" lon="-1.21971">
        <ele>19.200000762939</ele>
        <time>2021-11-09T12:41:38.000Z</time>
      </trkpt>
      <trkpt lat="45.8166" lon="-1.21978">
        <ele>19.200000762939</ele>
        <time>2021-11-09T12:41:40.000Z</time>
      </trkpt>
      <trkpt lat="45.81647" lon="-1.21978">
        <ele>19</ele>
        <time>2021-11-09T12:41:43.000Z</time>
      </trkpt>
      <trkpt lat="45.81636" lon="-1.21996">
        <ele>18.799999237061</ele>
        <time>2021-11-09T12:41:47.000Z</time>
      </trkpt>
      <trkpt lat="45.81628" lon="-1.22007">
        <ele>18.799999237061</ele>
        <time>2021-11-09T12:41:49.000Z</time>
      </trkpt>
      <trkpt lat="45.81626" lon="-1.22015">
        <ele>18.799999237061</ele>
        <time>2021-11-09T12:41:50.000Z</time>
      </trkpt>
      <trkpt lat="45.81625" lon="-1.22033">
        <ele>18.799999237061</ele>
        <time>2021-11-09T12:41:52.000Z</time>
      </trkpt>
      <trkpt lat="45.8162" lon="-1.22058">
        <ele>18.200000762939</ele>
        <time>2021-11-09T12:41:55.000Z</time>
      </trkpt>
      <trkpt lat="45.81611" lon="-1.22112">
        <ele>18.39999961853</ele>
        <time>2021-11-09T12:42:01.000Z</time>
      </trkpt>
      <trkpt lat="45.81603" lon="-1.22171">
        <ele>18.60000038147</ele>
        <time>2021-11-09T12:42:07.000Z</time>
      </trkpt>
      <trkpt lat="45.81596" lon="-1.22223">
        <ele>18.799999237061</ele>
        <time>2021-11-09T12:42:13.000Z</time>
      </trkpt>
      <trkpt lat="45.8159" lon="-1.22271">
        <ele>18.799999237061</ele>
        <time>2021-11-09T12:42:18.000Z</time>
      </trkpt>
      <trkpt lat="45.8158" lon="-1.22349">
        <ele>19.200000762939</ele>
        <time>2021-11-09T12:42:26.000Z</time>
      </trkpt>
      <trkpt lat="45.81576" lon="-1.22378">
        <ele>19</ele>
        <time>2021-11-09T12:42:29.000Z</time>
      </trkpt>
      <trkpt lat="45.81578" lon="-1.22397">
        <ele>18.799999237061</ele>
        <time>2021-11-09T12:42:31.000Z</time>
      </trkpt>
      <trkpt lat="45.81581" lon="-1.22404">
        <ele>18.799999237061</ele>
        <time>2021-11-09T12:42:32.000Z</time>
      </trkpt>
      <trkpt lat="45.81585" lon="-1.22409">
        <ele>18.799999237061</ele>
        <time>2021-11-09T12:42:33.000Z</time>
      </trkpt>
      <trkpt lat="45.81598" lon="-1.22415">
        <ele>18.60000038147</ele>
        <time>2021-11-09T12:42:35.000Z</time>
      </trkpt>
      <trkpt lat="45.81629" lon="-1.22425">
        <ele>18.60000038147</ele>
        <time>2021-11-09T12:42:40.000Z</time>
      </trkpt>
      <trkpt lat="45.81677" lon="-1.22436">
        <ele>18.60000038147</ele>
        <time>2021-11-09T12:42:47.000Z</time>
      </trkpt>
      <trkpt lat="45.81727" lon="-1.2245">
        <ele>18.60000038147</ele>
        <time>2021-11-09T12:42:54.000Z</time>
      </trkpt>
      <trkpt lat="45.81733" lon="-1.22451">
        <ele>18.60000038147</ele>
        <time>2021-11-09T12:42:55.000Z</time>
      </trkpt>
      <trkpt lat="45.81752" lon="-1.22459">
        <ele>18.39999961853</ele>
        <time>2021-11-09T12:42:58.000Z</time>
      </trkpt>
      <trkpt lat="45.81759" lon="-1.22461">
        <ele>18.39999961853</ele>
        <time>2021-11-09T12:42:59.000Z</time>
      </trkpt>
      <trkpt lat="45.81813" lon="-1.22478">
        <ele>18.200000762939</ele>
        <time>2021-11-09T12:43:07.000Z</time>
      </trkpt>
      <trkpt lat="45.81856" lon="-1.22486">
        <ele>18.200000762939</ele>
        <time>2021-11-09T12:43:13.000Z</time>
      </trkpt>
      <trkpt lat="45.8187" lon="-1.2249">
        <ele>18.200000762939</ele>
        <time>2021-11-09T12:43:15.000Z</time>
      </trkpt>
      <trkpt lat="45.81884" lon="-1.22494">
        <ele>18.200000762939</ele>
        <time>2021-11-09T12:43:17.000Z</time>
      </trkpt>
      <trkpt lat="45.81897" lon="-1.22498">
        <ele>18.200000762939</ele>
        <time>2021-11-09T12:43:20.000Z</time>
      </trkpt>
      <trkpt lat="45.8191" lon="-1.22501">
        <ele>18</ele>
        <time>2021-11-09T12:43:23.000Z</time>
      </trkpt>
      <trkpt lat="45.81942" lon="-1.22511">
        <ele>18</ele>
        <time>2021-11-09T12:43:27.000Z</time>
      </trkpt>
      <trkpt lat="45.81956" lon="-1.22515">
        <ele>18.200000762939</ele>
        <time>2021-11-09T12:43:29.000Z</time>
      </trkpt>
      <trkpt lat="45.81992" lon="-1.22522">
        <ele>18.799999237061</ele>
        <time>2021-11-09T12:43:34.000Z</time>
      </trkpt>
      <trkpt lat="45.82049" lon="-1.2254">
        <ele>19</ele>
        <time>2021-11-09T12:43:43.000Z</time>
      </trkpt>
      <trkpt lat="45.8209" lon="-1.2255">
        <ele>19</ele>
        <time>2021-11-09T12:43:49.000Z</time>
      </trkpt>
      <trkpt lat="45.82145" lon="-1.22565">
        <ele>18.60000038147</ele>
        <time>2021-11-09T12:43:57.000Z</time>
      </trkpt>
      <trkpt lat="45.82151" lon="-1.22567">
        <ele>18.60000038147</ele>
        <time>2021-11-09T12:43:58.000Z</time>
      </trkpt>
      <trkpt lat="45.82195" lon="-1.22579">
        <ele>18.200000762939</ele>
        <time>2021-11-09T12:44:05.000Z</time>
      </trkpt>
      <trkpt lat="45.82212" lon="-1.22582">
        <ele>18.39999961853</ele>
        <time>2021-11-09T12:44:09.000Z</time>
      </trkpt>
      <trkpt lat="45.82229" lon="-1.22587">
        <ele>18.39999961853</ele>
        <time>2021-11-09T12:44:14.000Z</time>
      </trkpt>
      <trkpt lat="45.82263" lon="-1.22595">
        <ele>19.60000038147</ele>
        <time>2021-11-09T12:44:20.000Z</time>
      </trkpt>
      <trkpt lat="45.82285" lon="-1.226">
        <ele>20</ele>
        <time>2021-11-09T12:44:24.000Z</time>
      </trkpt>
      <trkpt lat="45.82296" lon="-1.22604">
        <ele>20</ele>
        <time>2021-11-09T12:44:26.000Z</time>
      </trkpt>
      <trkpt lat="45.82336" lon="-1.22616">
        <ele>20.200000762939</ele>
        <time>2021-11-09T12:44:34.000Z</time>
      </trkpt>
      <trkpt lat="45.82369" lon="-1.22625">
        <ele>20.200000762939</ele>
        <time>2021-11-09T12:44:39.000Z</time>
      </trkpt>
      <trkpt lat="45.82403" lon="-1.22634">
        <ele>20.60000038147</ele>
        <time>2021-11-09T12:44:45.000Z</time>
      </trkpt>
      <trkpt lat="45.82438" lon="-1.22641">
        <ele>20.799999237061</ele>
        <time>2021-11-09T12:44:51.000Z</time>
      </trkpt>
      <trkpt lat="45.82443" lon="-1.22642">
        <ele>20.799999237061</ele>
        <time>2021-11-09T12:44:52.000Z</time>
      </trkpt>
      <trkpt lat="45.82448" lon="-1.22644">
        <ele>21</ele>
        <time>2021-11-09T12:44:53.000Z</time>
      </trkpt>
      <trkpt lat="45.82458" lon="-1.22647">
        <ele>21</ele>
        <time>2021-11-09T12:44:55.000Z</time>
      </trkpt>
      <trkpt lat="45.82467" lon="-1.22649">
        <ele>21.200000762939</ele>
        <time>2021-11-09T12:44:57.000Z</time>
      </trkpt>
      <trkpt lat="45.8249" lon="-1.22656">
        <ele>22</ele>
        <time>2021-11-09T12:45:03.000Z</time>
      </trkpt>
      <trkpt lat="45.82501" lon="-1.22658">
        <ele>22.200000762939</ele>
        <time>2021-11-09T12:45:04.000Z</time>
      </trkpt>
      <trkpt lat="45.82524" lon="-1.22664">
        <ele>22.60000038147</ele>
        <time>2021-11-09T12:45:08.000Z</time>
      </trkpt>
      <trkpt lat="45.82541" lon="-1.22668">
        <ele>23.200000762939</ele>
        <time>2021-11-09T12:45:11.000Z</time>
      </trkpt>
      <trkpt lat="45.82556" lon="-1.22671">
        <ele>23.799999237061</ele>
        <time>2021-11-09T12:45:14.000Z</time>
      </trkpt>
      <trkpt lat="45.82572" lon="-1.22677">
        <ele>24.39999961853</ele>
        <time>2021-11-09T12:45:17.000Z</time>
      </trkpt>
      <trkpt lat="45.82587" lon="-1.22682">
        <ele>24.799999237061</ele>
        <time>2021-11-09T12:45:20.000Z</time>
      </trkpt>
      <trkpt lat="45.82593" lon="-1.22684">
        <ele>24.799999237061</ele>
        <time>2021-11-09T12:45:21.000Z</time>
      </trkpt>
      <trkpt lat="45.82633" lon="-1.22695">
        <ele>25.39999961853</ele>
        <time>2021-11-09T12:45:27.000Z</time>
      </trkpt>
      <trkpt lat="45.82645" lon="-1.22698">
        <ele>25.39999961853</ele>
        <time>2021-11-09T12:45:29.000Z</time>
      </trkpt>
      <trkpt lat="45.82672" lon="-1.22706">
        <ele>26.39999961853</ele>
        <time>2021-11-09T12:45:34.000Z</time>
      </trkpt>
      <trkpt lat="45.82678" lon="-1.22708">
        <ele>26.60000038147</ele>
        <time>2021-11-09T12:45:35.000Z</time>
      </trkpt>
      <trkpt lat="45.82711" lon="-1.22717">
        <ele>27.39999961853</ele>
        <time>2021-11-09T12:45:40.000Z</time>
      </trkpt>
      <trkpt lat="45.82751" lon="-1.22727">
        <ele>28.39999961853</ele>
        <time>2021-11-09T12:45:46.000Z</time>
      </trkpt>
      <trkpt lat="45.82758" lon="-1.22729">
        <ele>28.39999961853</ele>
        <time>2021-11-09T12:45:47.000Z</time>
      </trkpt>
      <trkpt lat="45.82795" lon="-1.22737">
        <ele>28.60000038147</ele>
        <time>2021-11-09T12:45:51.000Z</time>
      </trkpt>
      <trkpt lat="45.8285" lon="-1.22752">
        <ele>28</ele>
        <time>2021-11-09T12:45:57.000Z</time>
      </trkpt>
      <trkpt lat="45.82868" lon="-1.22757">
        <ele>27.39999961853</ele>
        <time>2021-11-09T12:45:59.000Z</time>
      </trkpt>
      <trkpt lat="45.82877" lon="-1.22759">
        <ele>27.200000762939</ele>
        <time>2021-11-09T12:46:00.000Z</time>
      </trkpt>
      <trkpt lat="45.82919" lon="-1.22772">
        <ele>26.60000038147</ele>
        <time>2021-11-09T12:46:05.000Z</time>
      </trkpt>
      <trkpt lat="45.8294" lon="-1.22775">
        <ele>26.200000762939</ele>
        <time>2021-11-09T12:46:08.000Z</time>
      </trkpt>
      <trkpt lat="45.82953" lon="-1.22777">
        <ele>26.200000762939</ele>
        <time>2021-11-09T12:46:10.000Z</time>
      </trkpt>
      <trkpt lat="45.82973" lon="-1.22787">
        <ele>25.799999237061</ele>
        <time>2021-11-09T12:46:13.000Z</time>
      </trkpt>
      <trkpt lat="45.82992" lon="-1.22793">
        <ele>25.60000038147</ele>
        <time>2021-11-09T12:46:16.000Z</time>
      </trkpt>
      <trkpt lat="45.82997" lon="-1.22794">
        <ele>25.200000762939</ele>
        <time>2021-11-09T12:46:17.000Z</time>
      </trkpt>
      <trkpt lat="45.83009" lon="-1.22795">
        <ele>25.200000762939</ele>
        <time>2021-11-09T12:46:19.000Z</time>
      </trkpt>
      <trkpt lat="45.8302" lon="-1.22798">
        <ele>25.200000762939</ele>
        <time>2021-11-09T12:46:21.000Z</time>
      </trkpt>
      <trkpt lat="45.8306" lon="-1.22807">
        <ele>25.39999961853</ele>
        <time>2021-11-09T12:46:27.000Z</time>
      </trkpt>
      <trkpt lat="45.831" lon="-1.22819">
        <ele>25.200000762939</ele>
        <time>2021-11-09T12:46:33.000Z</time>
      </trkpt>
      <trkpt lat="45.83123" lon="-1.22828">
        <ele>25.200000762939</ele>
        <time>2021-11-09T12:46:36.000Z</time>
      </trkpt>
      <trkpt lat="45.83131" lon="-1.2283">
        <ele>25.39999961853</ele>
        <time>2021-11-09T12:46:37.000Z</time>
      </trkpt>
      <trkpt lat="45.83181" lon="-1.22842">
        <ele>25.200000762939</ele>
        <time>2021-11-09T12:46:44.000Z</time>
      </trkpt>
      <trkpt lat="45.83212" lon="-1.22849">
        <ele>25.39999961853</ele>
        <time>2021-11-09T12:46:49.000Z</time>
      </trkpt>
      <trkpt lat="45.83243" lon="-1.2286">
        <ele>25.200000762939</ele>
        <time>2021-11-09T12:46:55.000Z</time>
      </trkpt>
      <trkpt lat="45.8328" lon="-1.22869">
        <ele>24.799999237061</ele>
        <time>2021-11-09T12:47:00.000Z</time>
      </trkpt>
      <trkpt lat="45.83339" lon="-1.22886">
        <ele>24.39999961853</ele>
        <time>2021-11-09T12:47:08.000Z</time>
      </trkpt>
      <trkpt lat="45.83347" lon="-1.22888">
        <ele>24.39999961853</ele>
        <time>2021-11-09T12:47:09.000Z</time>
      </trkpt>
      <trkpt lat="45.83376" lon="-1.22894">
        <ele>24.200000762939</ele>
        <time>2021-11-09T12:47:13.000Z</time>
      </trkpt>
      <trkpt lat="45.83389" lon="-1.22896">
        <ele>24.200000762939</ele>
        <time>2021-11-09T12:47:15.000Z</time>
      </trkpt>
      <trkpt lat="45.83408" lon="-1.22898">
        <ele>24.200000762939</ele>
        <time>2021-11-09T12:47:18.000Z</time>
      </trkpt>
      <trkpt lat="45.83419" lon="-1.22901">
        <ele>24.200000762939</ele>
        <time>2021-11-09T12:47:20.000Z</time>
      </trkpt>
      <trkpt lat="45.83433" lon="-1.22905">
        <ele>24</ele>
        <time>2021-11-09T12:47:23.000Z</time>
      </trkpt>
      <trkpt lat="45.83433" lon="-1.22905">
        <ele>24</ele>
        <time>2021-11-09T12:47:24.000Z</time>
      </trkpt>
      <trkpt lat="45.83462" lon="-1.22914">
        <ele>24.200000762939</ele>
        <time>2021-11-09T12:47:29.000Z</time>
      </trkpt>
      <trkpt lat="45.83496" lon="-1.22923">
        <ele>24.39999961853</ele>
        <time>2021-11-09T12:47:35.000Z</time>
      </trkpt>
      <trkpt lat="45.8353" lon="-1.22931">
        <ele>24.60000038147</ele>
        <time>2021-11-09T12:47:40.000Z</time>
      </trkpt>
      <trkpt lat="45.83564" lon="-1.22938">
        <ele>24.60000038147</ele>
        <time>2021-11-09T12:47:45.000Z</time>
      </trkpt>
      <trkpt lat="45.83612" lon="-1.22951">
        <ele>24.39999961853</ele>
        <time>2021-11-09T12:47:50.000Z</time>
      </trkpt>
      <trkpt lat="45.83634" lon="-1.22957">
        <ele>24</ele>
        <time>2021-11-09T12:47:53.000Z</time>
      </trkpt>
      <trkpt lat="45.83641" lon="-1.2296">
        <ele>24</ele>
        <time>2021-11-09T12:47:54.000Z</time>
      </trkpt>
      <trkpt lat="45.83678" lon="-1.22973">
        <ele>23</ele>
        <time>2021-11-09T12:47:59.000Z</time>
      </trkpt>
      <trkpt lat="45.83707" lon="-1.22982">
        <ele>22.799999237061</ele>
        <time>2021-11-09T12:48:03.000Z</time>
      </trkpt>
      <trkpt lat="45.83745" lon="-1.2299">
        <ele>22.60000038147</ele>
        <time>2021-11-09T12:48:08.000Z</time>
      </trkpt>
      <trkpt lat="45.83759" lon="-1.22996">
        <ele>22.39999961853</ele>
        <time>2021-11-09T12:48:10.000Z</time>
      </trkpt>
      <trkpt lat="45.83766" lon="-1.22998">
        <ele>22</ele>
        <time>2021-11-09T12:48:11.000Z</time>
      </trkpt>
      <trkpt lat="45.83773" lon="-1.22999">
        <ele>22</ele>
        <time>2021-11-09T12:48:12.000Z</time>
      </trkpt>
      <trkpt lat="45.83807" lon="-1.23006">
        <ele>21.799999237061</ele>
        <time>2021-11-09T12:48:17.000Z</time>
      </trkpt>
      <trkpt lat="45.83836" lon="-1.23015">
        <ele>21.799999237061</ele>
        <time>2021-11-09T12:48:21.000Z</time>
      </trkpt>
      <trkpt lat="45.83864" lon="-1.23021">
        <ele>21.799999237061</ele>
        <time>2021-11-09T12:48:25.000Z</time>
      </trkpt>
      <trkpt lat="45.8388" lon="-1.23025">
        <ele>21.799999237061</ele>
        <time>2021-11-09T12:48:29.000Z</time>
      </trkpt>
      <trkpt lat="45.83908" lon="-1.23033">
        <ele>22</ele>
        <time>2021-11-09T12:48:34.000Z</time>
      </trkpt>
      <trkpt lat="45.83945" lon="-1.23042">
        <ele>22</ele>
        <time>2021-11-09T12:48:38.000Z</time>
      </trkpt>
      <trkpt lat="45.83953" lon="-1.23044">
        <ele>22</ele>
        <time>2021-11-09T12:48:39.000Z</time>
      </trkpt>
      <trkpt lat="45.8399" lon="-1.23053">
        <ele>22</ele>
        <time>2021-11-09T12:48:44.000Z</time>
      </trkpt>
      <trkpt lat="45.84035" lon="-1.23063">
        <ele>22.39999961853</ele>
        <time>2021-11-09T12:48:50.000Z</time>
      </trkpt>
      <trkpt lat="45.84054" lon="-1.23068">
        <ele>22.39999961853</ele>
        <time>2021-11-09T12:48:53.000Z</time>
      </trkpt>
      <trkpt lat="45.84059" lon="-1.2307">
        <ele>22.39999961853</ele>
        <time>2021-11-09T12:48:54.000Z</time>
      </trkpt>
      <trkpt lat="45.84085" lon="-1.23076">
        <ele>22.200000762939</ele>
        <time>2021-11-09T12:48:58.000Z</time>
      </trkpt>
      <trkpt lat="45.841" lon="-1.2308">
        <ele>22</ele>
        <time>2021-11-09T12:49:00.000Z</time>
      </trkpt>
      <trkpt lat="45.84141" lon="-1.2309">
        <ele>21.200000762939</ele>
        <time>2021-11-09T12:49:06.000Z</time>
      </trkpt>
      <trkpt lat="45.84181" lon="-1.23098">
        <ele>21.200000762939</ele>
        <time>2021-11-09T12:49:12.000Z</time>
      </trkpt>
      <trkpt lat="45.84235" lon="-1.23109">
        <ele>21</ele>
        <time>2021-11-09T12:49:20.000Z</time>
      </trkpt>
      <trkpt lat="45.84241" lon="-1.2311">
        <ele>21</ele>
        <time>2021-11-09T12:49:21.000Z</time>
      </trkpt>
      <trkpt lat="45.84262" lon="-1.23113">
        <ele>21</ele>
        <time>2021-11-09T12:49:25.000Z</time>
      </trkpt>
      <trkpt lat="45.84282" lon="-1.2312">
        <ele>20.799999237061</ele>
        <time>2021-11-09T12:49:29.000Z</time>
      </trkpt>
      <trkpt lat="45.84291" lon="-1.23124">
        <ele>20.799999237061</ele>
        <time>2021-11-09T12:49:31.000Z</time>
      </trkpt>
      <trkpt lat="45.84296" lon="-1.23124">
        <ele>20.799999237061</ele>
        <time>2021-11-09T12:49:32.000Z</time>
      </trkpt>
      <trkpt lat="45.84323" lon="-1.23128">
        <ele>20.799999237061</ele>
        <time>2021-11-09T12:49:37.000Z</time>
      </trkpt>
      <trkpt lat="45.84365" lon="-1.23141">
        <ele>21.200000762939</ele>
        <time>2021-11-09T12:49:44.000Z</time>
      </trkpt>
      <trkpt lat="45.84418" lon="-1.23154">
        <ele>21.200000762939</ele>
        <time>2021-11-09T12:49:52.000Z</time>
      </trkpt>
      <trkpt lat="45.84473" lon="-1.23167">
        <ele>21.39999961853</ele>
        <time>2021-11-09T12:50:00.000Z</time>
      </trkpt>
      <trkpt lat="45.84494" lon="-1.23172">
        <ele>21.39999961853</ele>
        <time>2021-11-09T12:50:04.000Z</time>
      </trkpt>
      <trkpt lat="45.8453" lon="-1.23182">
        <ele>22</ele>
        <time>2021-11-09T12:50:08.000Z</time>
      </trkpt>
      <trkpt lat="45.84545" lon="-1.23184">
        <ele>22.200000762939</ele>
        <time>2021-11-09T12:50:10.000Z</time>
      </trkpt>
      <trkpt lat="45.84593" lon="-1.23196">
        <ele>22.60000038147</ele>
        <time>2021-11-09T12:50:18.000Z</time>
      </trkpt>
      <trkpt lat="45.84645" lon="-1.2321">
        <ele>22.60000038147</ele>
        <time>2021-11-09T12:50:26.000Z</time>
      </trkpt>
      <trkpt lat="45.84666" lon="-1.23215">
        <ele>22.60000038147</ele>
        <time>2021-11-09T12:50:29.000Z</time>
      </trkpt>
      <trkpt lat="45.8468" lon="-1.23216">
        <ele>22.39999961853</ele>
        <time>2021-11-09T12:50:31.000Z</time>
      </trkpt>
      <trkpt lat="45.84723" lon="-1.23226">
        <ele>22.60000038147</ele>
        <time>2021-11-09T12:50:38.000Z</time>
      </trkpt>
      <trkpt lat="45.84765" lon="-1.23238">
        <ele>22.799999237061</ele>
        <time>2021-11-09T12:50:45.000Z</time>
      </trkpt>
      <trkpt lat="45.84779" lon="-1.23242">
        <ele>22.39999961853</ele>
        <time>2021-11-09T12:50:47.000Z</time>
      </trkpt>
      <trkpt lat="45.84808" lon="-1.23249">
        <ele>22</ele>
        <time>2021-11-09T12:50:51.000Z</time>
      </trkpt>
      <trkpt lat="45.84856" lon="-1.23259">
        <ele>21.799999237061</ele>
        <time>2021-11-09T12:50:58.000Z</time>
      </trkpt>
      <trkpt lat="45.84895" lon="-1.2327">
        <ele>22</ele>
        <time>2021-11-09T12:51:04.000Z</time>
      </trkpt>
      <trkpt lat="45.84939" lon="-1.23281">
        <ele>22.799999237061</ele>
        <time>2021-11-09T12:51:11.000Z</time>
      </trkpt>
      <trkpt lat="45.84968" lon="-1.23287">
        <ele>23</ele>
        <time>2021-11-09T12:51:16.000Z</time>
      </trkpt>
      <trkpt lat="45.84978" lon="-1.2329">
        <ele>23.200000762939</ele>
        <time>2021-11-09T12:51:18.000Z</time>
      </trkpt>
      <trkpt lat="45.85008" lon="-1.23297">
        <ele>24</ele>
        <time>2021-11-09T12:51:24.000Z</time>
      </trkpt>
      <trkpt lat="45.85045" lon="-1.23306">
        <ele>24.200000762939</ele>
        <time>2021-11-09T12:51:31.000Z</time>
      </trkpt>
      <trkpt lat="45.85084" lon="-1.23316">
        <ele>24</ele>
        <time>2021-11-09T12:51:37.000Z</time>
      </trkpt>
      <trkpt lat="45.85116" lon="-1.23325">
        <ele>24</ele>
        <time>2021-11-09T12:51:43.000Z</time>
      </trkpt>
      <trkpt lat="45.85134" lon="-1.23329">
        <ele>24.39999961853</ele>
        <time>2021-11-09T12:51:46.000Z</time>
      </trkpt>
      <trkpt lat="45.85154" lon="-1.23333">
        <ele>24.799999237061</ele>
        <time>2021-11-09T12:51:49.000Z</time>
      </trkpt>
      <trkpt lat="45.85195" lon="-1.23344">
        <ele>25.200000762939</ele>
        <time>2021-11-09T12:51:56.000Z</time>
      </trkpt>
      <trkpt lat="45.85214" lon="-1.23348">
        <ele>25.39999961853</ele>
        <time>2021-11-09T12:51:59.000Z</time>
      </trkpt>
      <trkpt lat="45.85236" lon="-1.23354">
        <ele>25.39999961853</ele>
        <time>2021-11-09T12:52:02.000Z</time>
      </trkpt>
      <trkpt lat="45.85266" lon="-1.23361">
        <ele>25.39999961853</ele>
        <time>2021-11-09T12:52:07.000Z</time>
      </trkpt>
      <trkpt lat="45.85278" lon="-1.23367">
        <ele>25.60000038147</ele>
        <time>2021-11-09T12:52:09.000Z</time>
      </trkpt>
      <trkpt lat="45.85288" lon="-1.23378">
        <ele>25.60000038147</ele>
        <time>2021-11-09T12:52:11.000Z</time>
      </trkpt>
      <trkpt lat="45.85295" lon="-1.23392">
        <ele>26</ele>
        <time>2021-11-09T12:52:13.000Z</time>
      </trkpt>
      <trkpt lat="45.85304" lon="-1.23417">
        <ele>26.39999961853</ele>
        <time>2021-11-09T12:52:16.000Z</time>
      </trkpt>
      <trkpt lat="45.85324" lon="-1.2347">
        <ele>27</ele>
        <time>2021-11-09T12:52:22.000Z</time>
      </trkpt>
      <trkpt lat="45.85347" lon="-1.23529">
        <ele>27.200000762939</ele>
        <time>2021-11-09T12:52:29.000Z</time>
      </trkpt>
      <trkpt lat="45.85353" lon="-1.23544">
        <ele>27.39999961853</ele>
        <time>2021-11-09T12:52:31.000Z</time>
      </trkpt>
      <trkpt lat="45.85365" lon="-1.23564">
        <ele>27.60000038147</ele>
        <time>2021-11-09T12:52:34.000Z</time>
      </trkpt>
      <trkpt lat="45.85377" lon="-1.23573">
        <ele>27.60000038147</ele>
        <time>2021-11-09T12:52:36.000Z</time>
      </trkpt>
      <trkpt lat="45.85384" lon="-1.23577">
        <ele>27.799999237061</ele>
        <time>2021-11-09T12:52:37.000Z</time>
      </trkpt>
      <trkpt lat="45.8539" lon="-1.2358">
        <ele>27.60000038147</ele>
        <time>2021-11-09T12:52:38.000Z</time>
      </trkpt>
      <trkpt lat="45.85401" lon="-1.23589">
        <ele>27.60000038147</ele>
        <time>2021-11-09T12:52:40.000Z</time>
      </trkpt>
      <trkpt lat="45.85406" lon="-1.23594">
        <ele>27.60000038147</ele>
        <time>2021-11-09T12:52:41.000Z</time>
      </trkpt>
      <trkpt lat="45.85438" lon="-1.2363">
        <ele>27.60000038147</ele>
        <time>2021-11-09T12:52:48.000Z</time>
      </trkpt>
      <trkpt lat="45.85442" lon="-1.23635">
        <ele>27.60000038147</ele>
        <time>2021-11-09T12:52:49.000Z</time>
      </trkpt>
      <trkpt lat="45.85455" lon="-1.23648">
        <ele>28.200000762939</ele>
        <time>2021-11-09T12:52:52.000Z</time>
      </trkpt>
      <trkpt lat="45.85471" lon="-1.23662">
        <ele>28.39999961853</ele>
        <time>2021-11-09T12:52:55.000Z</time>
      </trkpt>
      <trkpt lat="45.85471" lon="-1.23662">
        <ele>28.39999961853</ele>
        <time>2021-11-09T12:52:56.000Z</time>
      </trkpt>
      <trkpt lat="45.85483" lon="-1.23674">
        <ele>28.39999961853</ele>
        <time>2021-11-09T12:52:57.000Z</time>
      </trkpt>
      <trkpt lat="45.855" lon="-1.23697">
        <ele>28.60000038147</ele>
        <time>2021-11-09T12:53:00.000Z</time>
      </trkpt>
      <trkpt lat="45.85537" lon="-1.2374">
        <ele>29</ele>
        <time>2021-11-09T12:53:06.000Z</time>
      </trkpt>
      <trkpt lat="45.85581" lon="-1.23789">
        <ele>29</ele>
        <time>2021-11-09T12:53:13.000Z</time>
      </trkpt>
      <trkpt lat="45.85597" lon="-1.23808">
        <ele>29</ele>
        <time>2021-11-09T12:53:16.000Z</time>
      </trkpt>
      <trkpt lat="45.85618" lon="-1.23831">
        <ele>29.200000762939</ele>
        <time>2021-11-09T12:53:21.000Z</time>
      </trkpt>
      <trkpt lat="45.85627" lon="-1.2384">
        <ele>29.39999961853</ele>
        <time>2021-11-09T12:53:23.000Z</time>
      </trkpt>
      <trkpt lat="45.8563" lon="-1.23844">
        <ele>29.39999961853</ele>
        <time>2021-11-09T12:53:24.000Z</time>
      </trkpt>
      <trkpt lat="45.8564" lon="-1.23854">
        <ele>29.60000038147</ele>
        <time>2021-11-09T12:53:26.000Z</time>
      </trkpt>
      <trkpt lat="45.85654" lon="-1.23871">
        <ele>29.60000038147</ele>
        <time>2021-11-09T12:53:29.000Z</time>
      </trkpt>
      <trkpt lat="45.85667" lon="-1.23884">
        <ele>29.60000038147</ele>
        <time>2021-11-09T12:53:31.000Z</time>
      </trkpt>
      <trkpt lat="45.85702" lon="-1.23924">
        <ele>29.60000038147</ele>
        <time>2021-11-09T12:53:38.000Z</time>
      </trkpt>
      <trkpt lat="45.85729" lon="-1.23959">
        <ele>30.200000762939</ele>
        <time>2021-11-09T12:53:43.000Z</time>
      </trkpt>
      <trkpt lat="45.85752" lon="-1.23986">
        <ele>30</ele>
        <time>2021-11-09T12:53:47.000Z</time>
      </trkpt>
      <trkpt lat="45.85757" lon="-1.23993">
        <ele>29.799999237061</ele>
        <time>2021-11-09T12:53:48.000Z</time>
      </trkpt>
      <trkpt lat="45.85777" lon="-1.24015">
        <ele>30</ele>
        <time>2021-11-09T12:53:52.000Z</time>
      </trkpt>
      <trkpt lat="45.8581" lon="-1.24053">
        <ele>30</ele>
        <time>2021-11-09T12:53:58.000Z</time>
      </trkpt>
      <trkpt lat="45.8584" lon="-1.24087">
        <ele>30</ele>
        <time>2021-11-09T12:54:04.000Z</time>
      </trkpt>
      <trkpt lat="45.85877" lon="-1.24129">
        <ele>29.39999961853</ele>
        <time>2021-11-09T12:54:11.000Z</time>
      </trkpt>
      <trkpt lat="45.8589" lon="-1.24141">
        <ele>29.39999961853</ele>
        <time>2021-11-09T12:54:14.000Z</time>
      </trkpt>
      <trkpt lat="45.85893" lon="-1.24146">
        <ele>29.200000762939</ele>
        <time>2021-11-09T12:54:15.000Z</time>
      </trkpt>
      <trkpt lat="45.85897" lon="-1.24151">
        <ele>29.200000762939</ele>
        <time>2021-11-09T12:54:16.000Z</time>
      </trkpt>
      <trkpt lat="45.85907" lon="-1.24162">
        <ele>29</ele>
        <time>2021-11-09T12:54:19.000Z</time>
      </trkpt>
      <trkpt lat="45.85931" lon="-1.24191">
        <ele>29</ele>
        <time>2021-11-09T12:54:25.000Z</time>
      </trkpt>
      <trkpt lat="45.85957" lon="-1.24219">
        <ele>29</ele>
        <time>2021-11-09T12:54:30.000Z</time>
      </trkpt>
      <trkpt lat="45.85973" lon="-1.24237">
        <ele>28.60000038147</ele>
        <time>2021-11-09T12:54:33.000Z</time>
      </trkpt>
      <trkpt lat="45.85983" lon="-1.2425">
        <ele>27.799999237061</ele>
        <time>2021-11-09T12:54:35.000Z</time>
      </trkpt>
      <trkpt lat="45.86007" lon="-1.2428">
        <ele>27.60000038147</ele>
        <time>2021-11-09T12:54:40.000Z</time>
      </trkpt>
      <trkpt lat="45.86017" lon="-1.2429">
        <ele>27.39999961853</ele>
        <time>2021-11-09T12:54:42.000Z</time>
      </trkpt>
      <trkpt lat="45.86049" lon="-1.24325">
        <ele>27.60000038147</ele>
        <time>2021-11-09T12:54:48.000Z</time>
      </trkpt>
      <trkpt lat="45.86085" lon="-1.24366">
        <ele>27.60000038147</ele>
        <time>2021-11-09T12:54:55.000Z</time>
      </trkpt>
      <trkpt lat="45.86125" lon="-1.2441">
        <ele>26.39999961853</ele>
        <time>2021-11-09T12:55:03.000Z</time>
      </trkpt>
      <trkpt lat="45.86168" lon="-1.24457">
        <ele>25.39999961853</ele>
        <time>2021-11-09T12:55:11.000Z</time>
      </trkpt>
      <trkpt lat="45.86178" lon="-1.24467">
        <ele>25.200000762939</ele>
        <time>2021-11-09T12:55:13.000Z</time>
      </trkpt>
      <trkpt lat="45.86199" lon="-1.24486">
        <ele>25</ele>
        <time>2021-11-09T12:55:17.000Z</time>
      </trkpt>
      <trkpt lat="45.86213" lon="-1.24495">
        <ele>25</ele>
        <time>2021-11-09T12:55:19.000Z</time>
      </trkpt>
      <trkpt lat="45.8625" lon="-1.24518">
        <ele>24.60000038147</ele>
        <time>2021-11-09T12:55:25.000Z</time>
      </trkpt>
      <trkpt lat="45.86275" lon="-1.24534">
        <ele>24.60000038147</ele>
        <time>2021-11-09T12:55:30.000Z</time>
      </trkpt>
      <trkpt lat="45.86305" lon="-1.24553">
        <ele>24.60000038147</ele>
        <time>2021-11-09T12:55:34.000Z</time>
      </trkpt>
      <trkpt lat="45.86335" lon="-1.24572">
        <ele>24.39999961853</ele>
        <time>2021-11-09T12:55:39.000Z</time>
      </trkpt>
      <trkpt lat="45.86362" lon="-1.24587">
        <ele>24.39999961853</ele>
        <time>2021-11-09T12:55:44.000Z</time>
      </trkpt>
      <trkpt lat="45.86386" lon="-1.24603">
        <ele>25.39999961853</ele>
        <time>2021-11-09T12:55:48.000Z</time>
      </trkpt>
      <trkpt lat="45.86393" lon="-1.24608">
        <ele>25.60000038147</ele>
        <time>2021-11-09T12:55:49.000Z</time>
      </trkpt>
      <trkpt lat="45.86428" lon="-1.2463">
        <ele>25.200000762939</ele>
        <time>2021-11-09T12:55:54.000Z</time>
      </trkpt>
      <trkpt lat="45.86453" lon="-1.24647">
        <ele>24.60000038147</ele>
        <time>2021-11-09T12:55:59.000Z</time>
      </trkpt>
      <trkpt lat="45.86475" lon="-1.24658">
        <ele>24.799999237061</ele>
        <time>2021-11-09T12:56:03.000Z</time>
      </trkpt>
      <trkpt lat="45.86509" lon="-1.24679">
        <ele>25.60000038147</ele>
        <time>2021-11-09T12:56:08.000Z</time>
      </trkpt>
      <trkpt lat="45.86546" lon="-1.247">
        <ele>25.799999237061</ele>
        <time>2021-11-09T12:56:14.000Z</time>
      </trkpt>
      <trkpt lat="45.86579" lon="-1.24722">
        <ele>25.799999237061</ele>
        <time>2021-11-09T12:56:20.000Z</time>
      </trkpt>
      <trkpt lat="45.86584" lon="-1.24722">
        <ele>25.799999237061</ele>
        <time>2021-11-09T12:56:21.000Z</time>
      </trkpt>
      <trkpt lat="45.86587" lon="-1.2472">
        <ele>25.799999237061</ele>
        <time>2021-11-09T12:56:22.000Z</time>
      </trkpt>
      <trkpt lat="45.8659" lon="-1.24711">
        <ele>25.60000038147</ele>
        <time>2021-11-09T12:56:24.000Z</time>
      </trkpt>
      <trkpt lat="45.86585" lon="-1.24677">
        <ele>25.799999237061</ele>
        <time>2021-11-09T12:56:31.000Z</time>
      </trkpt>
      <trkpt lat="45.86581" lon="-1.24653">
        <ele>26.200000762939</ele>
        <time>2021-11-09T12:56:36.000Z</time>
      </trkpt>
      <trkpt lat="45.86583" lon="-1.24648">
        <ele>26.39999961853</ele>
        <time>2021-11-09T12:56:37.000Z</time>
      </trkpt>
      <trkpt lat="45.86584" lon="-1.24643">
        <ele>26.60000038147</ele>
        <time>2021-11-09T12:56:38.000Z</time>
      </trkpt>
      <trkpt lat="45.86591" lon="-1.24618">
        <ele>27.200000762939</ele>
        <time>2021-11-09T12:56:43.000Z</time>
      </trkpt>
      <trkpt lat="45.86591" lon="-1.24597">
        <ele>27.39999961853</ele>
        <time>2021-11-09T12:56:47.000Z</time>
      </trkpt>
      <trkpt lat="45.86594" lon="-1.24581">
        <ele>27.39999961853</ele>
        <time>2021-11-09T12:56:50.000Z</time>
      </trkpt>
      <trkpt lat="45.86599" lon="-1.24574">
        <ele>27.39999961853</ele>
        <time>2021-11-09T12:56:52.000Z</time>
      </trkpt>
      <trkpt lat="45.86621" lon="-1.24565">
        <ele>27.39999961853</ele>
        <time>2021-11-09T12:56:57.000Z</time>
      </trkpt>
      <trkpt lat="45.86626" lon="-1.24563">
        <ele>27.60000038147</ele>
        <time>2021-11-09T12:56:58.000Z</time>
      </trkpt>
      <trkpt lat="45.86645" lon="-1.24548">
        <ele>28.200000762939</ele>
        <time>2021-11-09T12:57:02.000Z</time>
      </trkpt>
      <trkpt lat="45.86654" lon="-1.24539">
        <ele>28.200000762939</ele>
        <time>2021-11-09T12:57:04.000Z</time>
      </trkpt>
      <trkpt lat="45.86666" lon="-1.24532">
        <ele>28.39999961853</ele>
        <time>2021-11-09T12:57:06.000Z</time>
      </trkpt>
      <trkpt lat="45.86671" lon="-1.24528">
        <ele>28.60000038147</ele>
        <time>2021-11-09T12:57:07.000Z</time>
      </trkpt>
      <trkpt lat="45.86685" lon="-1.24521">
        <ele>28.799999237061</ele>
        <time>2021-11-09T12:57:09.000Z</time>
      </trkpt>
      <trkpt lat="45.867" lon="-1.24519">
        <ele>29</ele>
        <time>2021-11-09T12:57:11.000Z</time>
      </trkpt>
      <trkpt lat="45.86706" lon="-1.24517">
        <ele>29.200000762939</ele>
        <time>2021-11-09T12:57:12.000Z</time>
      </trkpt>
      <trkpt lat="45.86715" lon="-1.24518">
        <ele>29.200000762939</ele>
        <time>2021-11-09T12:57:14.000Z</time>
      </trkpt>
      <trkpt lat="45.86719" lon="-1.24518">
        <ele>29.200000762939</ele>
        <time>2021-11-09T12:57:15.000Z</time>
      </trkpt>
      <trkpt lat="45.86734" lon="-1.24525">
        <ele>29.60000038147</ele>
        <time>2021-11-09T12:57:19.000Z</time>
      </trkpt>
      <trkpt lat="45.86742" lon="-1.24527">
        <ele>29.799999237061</ele>
        <time>2021-11-09T12:57:21.000Z</time>
      </trkpt>
      <trkpt lat="45.8675" lon="-1.24531">
        <ele>30</ele>
        <time>2021-11-09T12:57:23.000Z</time>
      </trkpt>
      <trkpt lat="45.8676" lon="-1.24533">
        <ele>30</ele>
        <time>2021-11-09T12:57:25.000Z</time>
      </trkpt>
      <trkpt lat="45.86769" lon="-1.24539">
        <ele>29.799999237061</ele>
        <time>2021-11-09T12:57:27.000Z</time>
      </trkpt>
      <trkpt lat="45.8678" lon="-1.24547">
        <ele>29.799999237061</ele>
        <time>2021-11-09T12:57:29.000Z</time>
      </trkpt>
      <trkpt lat="45.86794" lon="-1.2456">
        <ele>29.200000762939</ele>
        <time>2021-11-09T12:57:32.000Z</time>
      </trkpt>
      <trkpt lat="45.86798" lon="-1.24563">
        <ele>29</ele>
        <time>2021-11-09T12:57:33.000Z</time>
      </trkpt>
      <trkpt lat="45.86803" lon="-1.24564">
        <ele>29</ele>
        <time>2021-11-09T12:57:34.000Z</time>
      </trkpt>
      <trkpt lat="45.86811" lon="-1.24567">
        <ele>28.799999237061</ele>
        <time>2021-11-09T12:57:36.000Z</time>
      </trkpt>
      <trkpt lat="45.86816" lon="-1.2457">
        <ele>28.60000038147</ele>
        <time>2021-11-09T12:57:37.000Z</time>
      </trkpt>
      <trkpt lat="45.86823" lon="-1.2458">
        <ele>28.39999961853</ele>
        <time>2021-11-09T12:57:39.000Z</time>
      </trkpt>
      <trkpt lat="45.86834" lon="-1.24588">
        <ele>28.39999961853</ele>
        <time>2021-11-09T12:57:41.000Z</time>
      </trkpt>
      <trkpt lat="45.86844" lon="-1.24592">
        <ele>28.39999961853</ele>
        <time>2021-11-09T12:57:43.000Z</time>
      </trkpt>
      <trkpt lat="45.8686" lon="-1.24603">
        <ele>28</ele>
        <time>2021-11-09T12:57:47.000Z</time>
      </trkpt>
      <trkpt lat="45.86883" lon="-1.24613">
        <ele>27.60000038147</ele>
        <time>2021-11-09T12:57:51.000Z</time>
      </trkpt>
      <trkpt lat="45.86892" lon="-1.24624">
        <ele>27.39999961853</ele>
        <time>2021-11-09T12:57:53.000Z</time>
      </trkpt>
      <trkpt lat="45.86904" lon="-1.24651">
        <ele>26.799999237061</ele>
        <time>2021-11-09T12:57:57.000Z</time>
      </trkpt>
      <trkpt lat="45.86906" lon="-1.24658">
        <ele>26.799999237061</ele>
        <time>2021-11-09T12:57:58.000Z</time>
      </trkpt>
      <trkpt lat="45.86909" lon="-1.24673">
        <ele>26.60000038147</ele>
        <time>2021-11-09T12:58:00.000Z</time>
      </trkpt>
      <trkpt lat="45.86909" lon="-1.24681">
        <ele>26.60000038147</ele>
        <time>2021-11-09T12:58:01.000Z</time>
      </trkpt>
      <trkpt lat="45.8691" lon="-1.24687">
        <ele>26.60000038147</ele>
        <time>2021-11-09T12:58:02.000Z</time>
      </trkpt>
      <trkpt lat="45.86911" lon="-1.247">
        <ele>26.60000038147</ele>
        <time>2021-11-09T12:58:04.000Z</time>
      </trkpt>
      <trkpt lat="45.86912" lon="-1.24715">
        <ele>26.60000038147</ele>
        <time>2021-11-09T12:58:06.000Z</time>
      </trkpt>
      <trkpt lat="45.86917" lon="-1.2473">
        <ele>26.60000038147</ele>
        <time>2021-11-09T12:58:08.000Z</time>
      </trkpt>
      <trkpt lat="45.86925" lon="-1.24743">
        <ele>26.39999961853</ele>
        <time>2021-11-09T12:58:10.000Z</time>
      </trkpt>
      <trkpt lat="45.86927" lon="-1.2475">
        <ele>26.200000762939</ele>
        <time>2021-11-09T12:58:11.000Z</time>
      </trkpt>
      <trkpt lat="45.86928" lon="-1.24757">
        <ele>26.200000762939</ele>
        <time>2021-11-09T12:58:12.000Z</time>
      </trkpt>
      <trkpt lat="45.86929" lon="-1.24777">
        <ele>26.200000762939</ele>
        <time>2021-11-09T12:58:15.000Z</time>
      </trkpt>
      <trkpt lat="45.86935" lon="-1.24791">
        <ele>25.799999237061</ele>
        <time>2021-11-09T12:58:17.000Z</time>
      </trkpt>
      <trkpt lat="45.8694" lon="-1.24795">
        <ele>25.60000038147</ele>
        <time>2021-11-09T12:58:18.000Z</time>
      </trkpt>
      <trkpt lat="45.86946" lon="-1.24799">
        <ele>25.60000038147</ele>
        <time>2021-11-09T12:58:19.000Z</time>
      </trkpt>
      <trkpt lat="45.86952" lon="-1.24801">
        <ele>25.60000038147</ele>
        <time>2021-11-09T12:58:20.000Z</time>
      </trkpt>
      <trkpt lat="45.86963" lon="-1.24805">
        <ele>25.39999961853</ele>
        <time>2021-11-09T12:58:22.000Z</time>
      </trkpt>
      <trkpt lat="45.86985" lon="-1.24814">
        <ele>25.39999961853</ele>
        <time>2021-11-09T12:58:26.000Z</time>
      </trkpt>
      <trkpt lat="45.86996" lon="-1.24812">
        <ele>25.200000762939</ele>
        <time>2021-11-09T12:58:28.000Z</time>
      </trkpt>
      <trkpt lat="45.87002" lon="-1.24811">
        <ele>25.200000762939</ele>
        <time>2021-11-09T12:58:29.000Z</time>
      </trkpt>
      <trkpt lat="45.87013" lon="-1.24815">
        <ele>25</ele>
        <time>2021-11-09T12:58:31.000Z</time>
      </trkpt>
      <trkpt lat="45.87023" lon="-1.24825">
        <ele>25</ele>
        <time>2021-11-09T12:58:33.000Z</time>
      </trkpt>
      <trkpt lat="45.87028" lon="-1.24829">
        <ele>25</ele>
        <time>2021-11-09T12:58:34.000Z</time>
      </trkpt>
      <trkpt lat="45.87034" lon="-1.24832">
        <ele>25</ele>
        <time>2021-11-09T12:58:35.000Z</time>
      </trkpt>
      <trkpt lat="45.87043" lon="-1.24834">
        <ele>25.39999961853</ele>
        <time>2021-11-09T12:58:37.000Z</time>
      </trkpt>
      <trkpt lat="45.87047" lon="-1.24832">
        <ele>25.39999961853</ele>
        <time>2021-11-09T12:58:38.000Z</time>
      </trkpt>
      <trkpt lat="45.87052" lon="-1.2483">
        <ele>25.39999961853</ele>
        <time>2021-11-09T12:58:39.000Z</time>
      </trkpt>
      <trkpt lat="45.87061" lon="-1.24823">
        <ele>25.39999961853</ele>
        <time>2021-11-09T12:58:41.000Z</time>
      </trkpt>
      <trkpt lat="45.87066" lon="-1.24821">
        <ele>25.39999961853</ele>
        <time>2021-11-09T12:58:42.000Z</time>
      </trkpt>
      <trkpt lat="45.87088" lon="-1.24815">
        <ele>26</ele>
        <time>2021-11-09T12:58:46.000Z</time>
      </trkpt>
      <trkpt lat="45.87093" lon="-1.24817">
        <ele>26</ele>
        <time>2021-11-09T12:58:47.000Z</time>
      </trkpt>
      <trkpt lat="45.87096" lon="-1.24826">
        <ele>25.39999961853</ele>
        <time>2021-11-09T12:58:49.000Z</time>
      </trkpt>
      <trkpt lat="45.87094" lon="-1.24857">
        <ele>25.39999961853</ele>
        <time>2021-11-09T12:58:53.000Z</time>
      </trkpt>
      <trkpt lat="45.87094" lon="-1.24865">
        <ele>25.39999961853</ele>
        <time>2021-11-09T12:58:54.000Z</time>
      </trkpt>
      <trkpt lat="45.87094" lon="-1.24882">
        <ele>25.39999961853</ele>
        <time>2021-11-09T12:58:56.000Z</time>
      </trkpt>
      <trkpt lat="45.87095" lon="-1.24891">
        <ele>25.39999961853</ele>
        <time>2021-11-09T12:58:57.000Z</time>
      </trkpt>
      <trkpt lat="45.87097" lon="-1.24907">
        <ele>25.39999961853</ele>
        <time>2021-11-09T12:58:59.000Z</time>
      </trkpt>
      <trkpt lat="45.87098" lon="-1.24933">
        <ele>25.60000038147</ele>
        <time>2021-11-09T12:59:02.000Z</time>
      </trkpt>
      <trkpt lat="45.87099" lon="-1.24943">
        <ele>25.60000038147</ele>
        <time>2021-11-09T12:59:03.000Z</time>
      </trkpt>
      <trkpt lat="45.87102" lon="-1.24971">
        <ele>25.60000038147</ele>
        <time>2021-11-09T12:59:06.000Z</time>
      </trkpt>
      <trkpt lat="45.87102" lon="-1.24971">
        <ele>25.60000038147</ele>
        <time>2021-11-09T12:59:07.000Z</time>
      </trkpt>
      <trkpt lat="45.87112" lon="-1.25015">
        <ele>26</ele>
        <time>2021-11-09T12:59:11.000Z</time>
      </trkpt>
      <trkpt lat="45.87115" lon="-1.25033">
        <ele>26</ele>
        <time>2021-11-09T12:59:13.000Z</time>
      </trkpt>
      <trkpt lat="45.87122" lon="-1.25047">
        <ele>26</ele>
        <time>2021-11-09T12:59:15.000Z</time>
      </trkpt>
      <trkpt lat="45.87127" lon="-1.25052">
        <ele>26</ele>
        <time>2021-11-09T12:59:16.000Z</time>
      </trkpt>
      <trkpt lat="45.87174" lon="-1.25082">
        <ele>26.200000762939</ele>
        <time>2021-11-09T12:59:24.000Z</time>
      </trkpt>
      <trkpt lat="45.87208" lon="-1.25104">
        <ele>26.200000762939</ele>
        <time>2021-11-09T12:59:29.000Z</time>
      </trkpt>
      <trkpt lat="45.87247" lon="-1.25127">
        <ele>26.200000762939</ele>
        <time>2021-11-09T12:59:35.000Z</time>
      </trkpt>
      <trkpt lat="45.87277" lon="-1.25145">
        <ele>26</ele>
        <time>2021-11-09T12:59:40.000Z</time>
      </trkpt>
      <trkpt lat="45.87289" lon="-1.25153">
        <ele>26.60000038147</ele>
        <time>2021-11-09T12:59:42.000Z</time>
      </trkpt>
      <trkpt lat="45.873" lon="-1.25162">
        <ele>26.799999237061</ele>
        <time>2021-11-09T12:59:44.000Z</time>
      </trkpt>
      <trkpt lat="45.87306" lon="-1.25165">
        <ele>26.799999237061</ele>
        <time>2021-11-09T12:59:45.000Z</time>
      </trkpt>
      <trkpt lat="45.87333" lon="-1.25181">
        <ele>27</ele>
        <time>2021-11-09T12:59:50.000Z</time>
      </trkpt>
      <trkpt lat="45.87357" lon="-1.25197">
        <ele>26.60000038147</ele>
        <time>2021-11-09T12:59:54.000Z</time>
      </trkpt>
      <trkpt lat="45.87363" lon="-1.25201">
        <ele>26.799999237061</ele>
        <time>2021-11-09T12:59:55.000Z</time>
      </trkpt>
      <trkpt lat="45.87415" lon="-1.25231">
        <ele>26</ele>
        <time>2021-11-09T13:00:03.000Z</time>
      </trkpt>
      <trkpt lat="45.87466" lon="-1.25263">
        <ele>26.39999961853</ele>
        <time>2021-11-09T13:00:11.000Z</time>
      </trkpt>
      <trkpt lat="45.87485" lon="-1.25274">
        <ele>26.200000762939</ele>
        <time>2021-11-09T13:00:14.000Z</time>
      </trkpt>
      <trkpt lat="45.87506" lon="-1.25286">
        <ele>25.799999237061</ele>
        <time>2021-11-09T13:00:18.000Z</time>
      </trkpt>
      <trkpt lat="45.87511" lon="-1.25289">
        <ele>25.799999237061</ele>
        <time>2021-11-09T13:00:19.000Z</time>
      </trkpt>
      <trkpt lat="45.87539" lon="-1.25307">
        <ele>24.60000038147</ele>
        <time>2021-11-09T13:00:24.000Z</time>
      </trkpt>
      <trkpt lat="45.87545" lon="-1.25311">
        <ele>24.60000038147</ele>
        <time>2021-11-09T13:00:26.000Z</time>
      </trkpt>
      <trkpt lat="45.87577" lon="-1.2533">
        <ele>25</ele>
        <time>2021-11-09T13:00:30.000Z</time>
      </trkpt>
      <trkpt lat="45.87609" lon="-1.25352">
        <ele>25.39999961853</ele>
        <time>2021-11-09T13:00:36.000Z</time>
      </trkpt>
      <trkpt lat="45.87645" lon="-1.25374">
        <ele>25.799999237061</ele>
        <time>2021-11-09T13:00:42.000Z</time>
      </trkpt>
      <trkpt lat="45.87651" lon="-1.25378">
        <ele>26</ele>
        <time>2021-11-09T13:00:43.000Z</time>
      </trkpt>
      <trkpt lat="45.87699" lon="-1.25406">
        <ele>26.60000038147</ele>
        <time>2021-11-09T13:00:51.000Z</time>
      </trkpt>
      <trkpt lat="45.8773" lon="-1.25424">
        <ele>26.799999237061</ele>
        <time>2021-11-09T13:00:57.000Z</time>
      </trkpt>
      <trkpt lat="45.87767" lon="-1.2545">
        <ele>27</ele>
        <time>2021-11-09T13:01:04.000Z</time>
      </trkpt>
      <trkpt lat="45.87779" lon="-1.25454">
        <ele>27.200000762939</ele>
        <time>2021-11-09T13:01:06.000Z</time>
      </trkpt>
      <trkpt lat="45.87791" lon="-1.25449">
        <ele>27.39999961853</ele>
        <time>2021-11-09T13:01:08.000Z</time>
      </trkpt>
      <trkpt lat="45.87791" lon="-1.25449">
        <ele>27.60000038147</ele>
        <time>2021-11-09T13:01:09.000Z</time>
      </trkpt>
      <trkpt lat="45.87798" lon="-1.25435">
        <ele>27.60000038147</ele>
        <time>2021-11-09T13:01:10.000Z</time>
      </trkpt>
      <trkpt lat="45.87802" lon="-1.25426">
        <ele>27.60000038147</ele>
        <time>2021-11-09T13:01:12.000Z</time>
      </trkpt>
      <trkpt lat="45.87808" lon="-1.2541">
        <ele>27.39999961853</ele>
        <time>2021-11-09T13:01:13.000Z</time>
      </trkpt>
      <trkpt lat="45.87809" lon="-1.25394">
        <ele>27.39999961853</ele>
        <time>2021-11-09T13:01:15.000Z</time>
      </trkpt>
      <trkpt lat="45.87801" lon="-1.25377">
        <ele>27.39999961853</ele>
        <time>2021-11-09T13:01:17.000Z</time>
      </trkpt>
      <trkpt lat="45.87796" lon="-1.25369">
        <ele>27.39999961853</ele>
        <time>2021-11-09T13:01:18.000Z</time>
      </trkpt>
      <trkpt lat="45.87758" lon="-1.2531">
        <ele>27</ele>
        <time>2021-11-09T13:01:26.000Z</time>
      </trkpt>
      <trkpt lat="45.8773" lon="-1.25262">
        <ele>26.799999237061</ele>
        <time>2021-11-09T13:01:32.000Z</time>
      </trkpt>
      <trkpt lat="45.87696" lon="-1.25208">
        <ele>27.200000762939</ele>
        <time>2021-11-09T13:01:39.000Z</time>
      </trkpt>
      <trkpt lat="45.87685" lon="-1.25205">
        <ele>27.200000762939</ele>
        <time>2021-11-09T13:01:41.000Z</time>
      </trkpt>
      <trkpt lat="45.87669" lon="-1.25207">
        <ele>27</ele>
        <time>2021-11-09T13:01:43.000Z</time>
      </trkpt>
      <trkpt lat="45.87669" lon="-1.25207">
        <ele>27</ele>
        <time>2021-11-09T13:01:44.000Z</time>
      </trkpt>
      <trkpt lat="45.87663" lon="-1.25201">
        <ele>26.799999237061</ele>
        <time>2021-11-09T13:01:45.000Z</time>
      </trkpt>
      <trkpt lat="45.87652" lon="-1.25174">
        <ele>26.60000038147</ele>
        <time>2021-11-09T13:01:47.000Z</time>
      </trkpt>
      <trkpt lat="45.87649" lon="-1.25165">
        <ele>26.60000038147</ele>
        <time>2021-11-09T13:01:48.000Z</time>
      </trkpt>
      <trkpt lat="45.87644" lon="-1.25157">
        <ele>26.60000038147</ele>
        <time>2021-11-09T13:01:50.000Z</time>
      </trkpt>
      <trkpt lat="45.87632" lon="-1.25144">
        <ele>26.39999961853</ele>
        <time>2021-11-09T13:01:51.000Z</time>
      </trkpt>
      <trkpt lat="45.87629" lon="-1.25139">
        <ele>26.39999961853</ele>
        <time>2021-11-09T13:01:52.000Z</time>
      </trkpt>
      <trkpt lat="45.87626" lon="-1.25133">
        <ele>26.200000762939</ele>
        <time>2021-11-09T13:01:54.000Z</time>
      </trkpt>
      <trkpt lat="45.87624" lon="-1.25126">
        <ele>26</ele>
        <time>2021-11-09T13:01:55.000Z</time>
      </trkpt>
      <trkpt lat="45.8762" lon="-1.25112">
        <ele>25.799999237061</ele>
        <time>2021-11-09T13:01:56.000Z</time>
      </trkpt>
      <trkpt lat="45.87618" lon="-1.25101">
        <ele>25.60000038147</ele>
        <time>2021-11-09T13:01:57.000Z</time>
      </trkpt>
      <trkpt lat="45.87615" lon="-1.25092">
        <ele>25.60000038147</ele>
        <time>2021-11-09T13:01:58.000Z</time>
      </trkpt>
      <trkpt lat="45.87599" lon="-1.25049">
        <ele>25.39999961853</ele>
        <time>2021-11-09T13:02:03.000Z</time>
      </trkpt>
      <trkpt lat="45.87596" lon="-1.2504">
        <ele>25.200000762939</ele>
        <time>2021-11-09T13:02:04.000Z</time>
      </trkpt>
      <trkpt lat="45.87592" lon="-1.25033">
        <ele>25.200000762939</ele>
        <time>2021-11-09T13:02:05.000Z</time>
      </trkpt>
      <trkpt lat="45.87578" lon="-1.25019">
        <ele>25</ele>
        <time>2021-11-09T13:02:07.000Z</time>
      </trkpt>
      <trkpt lat="45.87571" lon="-1.25015">
        <ele>24.799999237061</ele>
        <time>2021-11-09T13:02:09.000Z</time>
      </trkpt>
      <trkpt lat="45.87551" lon="-1.25008">
        <ele>24.60000038147</ele>
        <time>2021-11-09T13:02:11.000Z</time>
      </trkpt>
      <trkpt lat="45.87536" lon="-1.25004">
        <ele>24.60000038147</ele>
        <time>2021-11-09T13:02:13.000Z</time>
      </trkpt>
      <trkpt lat="45.87494" lon="-1.24987">
        <ele>24.39999961853</ele>
        <time>2021-11-09T13:02:19.000Z</time>
      </trkpt>
      <trkpt lat="45.87459" lon="-1.24969">
        <ele>24.39999961853</ele>
        <time>2021-11-09T13:02:24.000Z</time>
      </trkpt>
      <trkpt lat="45.87452" lon="-1.24964">
        <ele>24.200000762939</ele>
        <time>2021-11-09T13:02:25.000Z</time>
      </trkpt>
      <trkpt lat="45.87446" lon="-1.24958">
        <ele>24.39999961853</ele>
        <time>2021-11-09T13:02:26.000Z</time>
      </trkpt>
      <trkpt lat="45.87425" lon="-1.24935">
        <ele>24.200000762939</ele>
        <time>2021-11-09T13:02:30.000Z</time>
      </trkpt>
      <trkpt lat="45.87419" lon="-1.2493">
        <ele>24.200000762939</ele>
        <time>2021-11-09T13:02:31.000Z</time>
      </trkpt>
      <trkpt lat="45.87406" lon="-1.24922">
        <ele>24</ele>
        <time>2021-11-09T13:02:33.000Z</time>
      </trkpt>
      <trkpt lat="45.87406" lon="-1.24922">
        <ele>24</ele>
        <time>2021-11-09T13:02:34.000Z</time>
      </trkpt>
      <trkpt lat="45.87395" lon="-1.24917">
        <ele>24</ele>
        <time>2021-11-09T13:02:35.000Z</time>
      </trkpt>
      <trkpt lat="45.87385" lon="-1.24907">
        <ele>23.799999237061</ele>
        <time>2021-11-09T13:02:37.000Z</time>
      </trkpt>
      <trkpt lat="45.87386" lon="-1.24901">
        <ele>23.799999237061</ele>
        <time>2021-11-09T13:02:39.000Z</time>
      </trkpt>
      <trkpt lat="45.87388" lon="-1.24889">
        <ele>23.799999237061</ele>
        <time>2021-11-09T13:02:40.000Z</time>
      </trkpt>
      <trkpt lat="45.87394" lon="-1.24861">
        <ele>23.60000038147</ele>
        <time>2021-11-09T13:02:44.000Z</time>
      </trkpt>
      <trkpt lat="45.874" lon="-1.24845">
        <ele>23.60000038147</ele>
        <time>2021-11-09T13:02:46.000Z</time>
      </trkpt>
      <trkpt lat="45.87411" lon="-1.24815">
        <ele>23.799999237061</ele>
        <time>2021-11-09T13:02:50.000Z</time>
      </trkpt>
      <trkpt lat="45.87418" lon="-1.24801">
        <ele>23.799999237061</ele>
        <time>2021-11-09T13:02:52.000Z</time>
      </trkpt>
      <trkpt lat="45.8743" lon="-1.2478">
        <ele>24</ele>
        <time>2021-11-09T13:02:55.000Z</time>
      </trkpt>
      <trkpt lat="45.87432" lon="-1.24774">
        <ele>24</ele>
        <time>2021-11-09T13:02:56.000Z</time>
      </trkpt>
      <trkpt lat="45.87436" lon="-1.24763">
        <ele>24.200000762939</ele>
        <time>2021-11-09T13:02:58.000Z</time>
      </trkpt>
      <trkpt lat="45.87441" lon="-1.24749">
        <ele>24.200000762939</ele>
        <time>2021-11-09T13:03:02.000Z</time>
      </trkpt>
      <trkpt lat="45.87447" lon="-1.24732">
        <ele>24.200000762939</ele>
        <time>2021-11-09T13:03:05.000Z</time>
      </trkpt>
      <trkpt lat="45.87448" lon="-1.24716">
        <ele>24.200000762939</ele>
        <time>2021-11-09T13:03:07.000Z</time>
      </trkpt>
      <trkpt lat="45.87453" lon="-1.24664">
        <ele>24</ele>
        <time>2021-11-09T13:03:12.000Z</time>
      </trkpt>
      <trkpt lat="45.87451" lon="-1.24631">
        <ele>23.200000762939</ele>
        <time>2021-11-09T13:03:15.000Z</time>
      </trkpt>
      <trkpt lat="45.87448" lon="-1.24609">
        <ele>22.799999237061</ele>
        <time>2021-11-09T13:03:17.000Z</time>
      </trkpt>
      <trkpt lat="45.87446" lon="-1.24598">
        <ele>22.799999237061</ele>
        <time>2021-11-09T13:03:18.000Z</time>
      </trkpt>
      <trkpt lat="45.87444" lon="-1.24587">
        <ele>22.60000038147</ele>
        <time>2021-11-09T13:03:19.000Z</time>
      </trkpt>
      <trkpt lat="45.87441" lon="-1.24566">
        <ele>22.39999961853</ele>
        <time>2021-11-09T13:03:21.000Z</time>
      </trkpt>
      <trkpt lat="45.8744" lon="-1.24556">
        <ele>22.200000762939</ele>
        <time>2021-11-09T13:03:22.000Z</time>
      </trkpt>
      <trkpt lat="45.87441" lon="-1.24515">
        <ele>21.39999961853</ele>
        <time>2021-11-09T13:03:26.000Z</time>
      </trkpt>
      <trkpt lat="45.87443" lon="-1.24497">
        <ele>21.39999961853</ele>
        <time>2021-11-09T13:03:28.000Z</time>
      </trkpt>
      <trkpt lat="45.87445" lon="-1.24489">
        <ele>20.799999237061</ele>
        <time>2021-11-09T13:03:29.000Z</time>
      </trkpt>
      <trkpt lat="45.87447" lon="-1.24481">
        <ele>20.39999961853</ele>
        <time>2021-11-09T13:03:30.000Z</time>
      </trkpt>
      <trkpt lat="45.87451" lon="-1.24474">
        <ele>20</ele>
        <time>2021-11-09T13:03:31.000Z</time>
      </trkpt>
      <trkpt lat="45.8746" lon="-1.24462">
        <ele>19.39999961853</ele>
        <time>2021-11-09T13:03:33.000Z</time>
      </trkpt>
      <trkpt lat="45.87471" lon="-1.24452">
        <ele>19</ele>
        <time>2021-11-09T13:03:35.000Z</time>
      </trkpt>
      <trkpt lat="45.87494" lon="-1.24433">
        <ele>17.799999237061</ele>
        <time>2021-11-09T13:03:39.000Z</time>
      </trkpt>
      <trkpt lat="45.87511" lon="-1.24418">
        <ele>17.39999961853</ele>
        <time>2021-11-09T13:03:42.000Z</time>
      </trkpt>
      <trkpt lat="45.87517" lon="-1.24415">
        <ele>17.200000762939</ele>
        <time>2021-11-09T13:03:43.000Z</time>
      </trkpt>
      <trkpt lat="45.8753" lon="-1.24411">
        <ele>17</ele>
        <time>2021-11-09T13:03:45.000Z</time>
      </trkpt>
      <trkpt lat="45.87537" lon="-1.2441">
        <ele>17</ele>
        <time>2021-11-09T13:03:46.000Z</time>
      </trkpt>
      <trkpt lat="45.87551" lon="-1.2441">
        <ele>16.799999237061</ele>
        <time>2021-11-09T13:03:48.000Z</time>
      </trkpt>
      <trkpt lat="45.87567" lon="-1.2441">
        <ele>16.39999961853</ele>
        <time>2021-11-09T13:03:51.000Z</time>
      </trkpt>
      <trkpt lat="45.8757" lon="-1.24408">
        <ele>16.39999961853</ele>
        <time>2021-11-09T13:03:52.000Z</time>
      </trkpt>
      <trkpt lat="45.87572" lon="-1.24394">
        <ele>16.200000762939</ele>
        <time>2021-11-09T13:03:55.000Z</time>
      </trkpt>
      <trkpt lat="45.87582" lon="-1.24369">
        <ele>16</ele>
        <time>2021-11-09T13:03:59.000Z</time>
      </trkpt>
      <trkpt lat="45.8759" lon="-1.24358">
        <ele>16</ele>
        <time>2021-11-09T13:04:01.000Z</time>
      </trkpt>
      <trkpt lat="45.87595" lon="-1.24356">
        <ele>16</ele>
        <time>2021-11-09T13:04:02.000Z</time>
      </trkpt>
      <trkpt lat="45.876" lon="-1.24353">
        <ele>15.800000190735</ele>
        <time>2021-11-09T13:04:03.000Z</time>
      </trkpt>
      <trkpt lat="45.87609" lon="-1.24346">
        <ele>15.800000190735</ele>
        <time>2021-11-09T13:04:05.000Z</time>
      </trkpt>
      <trkpt lat="45.87612" lon="-1.2434">
        <ele>15.800000190735</ele>
        <time>2021-11-09T13:04:06.000Z</time>
      </trkpt>
      <trkpt lat="45.87612" lon="-1.24335">
        <ele>15.800000190735</ele>
        <time>2021-11-09T13:04:07.000Z</time>
      </trkpt>
      <trkpt lat="45.8761" lon="-1.24329">
        <ele>15.60000038147</ele>
        <time>2021-11-09T13:04:08.000Z</time>
      </trkpt>
      <trkpt lat="45.87607" lon="-1.24325">
        <ele>15.60000038147</ele>
        <time>2021-11-09T13:04:09.000Z</time>
      </trkpt>
      <trkpt lat="45.87601" lon="-1.24312">
        <ele>15.60000038147</ele>
        <time>2021-11-09T13:04:11.000Z</time>
      </trkpt>
      <trkpt lat="45.87599" lon="-1.24304">
        <ele>15.60000038147</ele>
        <time>2021-11-09T13:04:12.000Z</time>
      </trkpt>
      <trkpt lat="45.87597" lon="-1.24295">
        <ele>15.199999809265</ele>
        <time>2021-11-09T13:04:13.000Z</time>
      </trkpt>
      <trkpt lat="45.87595" lon="-1.24277">
        <ele>15</ele>
        <time>2021-11-09T13:04:15.000Z</time>
      </trkpt>
      <trkpt lat="45.87595" lon="-1.24268">
        <ele>15</ele>
        <time>2021-11-09T13:04:16.000Z</time>
      </trkpt>
      <trkpt lat="45.87594" lon="-1.24231">
        <ele>14.800000190735</ele>
        <time>2021-11-09T13:04:20.000Z</time>
      </trkpt>
      <trkpt lat="45.87593" lon="-1.24213">
        <ele>14.60000038147</ele>
        <time>2021-11-09T13:04:22.000Z</time>
      </trkpt>
      <trkpt lat="45.87592" lon="-1.24204">
        <ele>14.60000038147</ele>
        <time>2021-11-09T13:04:23.000Z</time>
      </trkpt>
      <trkpt lat="45.87585" lon="-1.2419">
        <ele>14.800000190735</ele>
        <time>2021-11-09T13:04:25.000Z</time>
      </trkpt>
      <trkpt lat="45.87574" lon="-1.24187">
        <ele>14.800000190735</ele>
        <time>2021-11-09T13:04:27.000Z</time>
      </trkpt>
      <trkpt lat="45.87568" lon="-1.24188">
        <ele>14.800000190735</ele>
        <time>2021-11-09T13:04:28.000Z</time>
      </trkpt>
      <trkpt lat="45.87543" lon="-1.24189">
        <ele>14.60000038147</ele>
        <time>2021-11-09T13:04:32.000Z</time>
      </trkpt>
      <trkpt lat="45.87537" lon="-1.24187">
        <ele>14.39999961853</ele>
        <time>2021-11-09T13:04:33.000Z</time>
      </trkpt>
      <trkpt lat="45.87532" lon="-1.24181">
        <ele>14.39999961853</ele>
        <time>2021-11-09T13:04:34.000Z</time>
      </trkpt>
      <trkpt lat="45.87527" lon="-1.24166">
        <ele>14.199999809265</ele>
        <time>2021-11-09T13:04:36.000Z</time>
      </trkpt>
      <trkpt lat="45.87526" lon="-1.24149">
        <ele>13.60000038147</ele>
        <time>2021-11-09T13:04:38.000Z</time>
      </trkpt>
      <trkpt lat="45.87524" lon="-1.24131">
        <ele>13.60000038147</ele>
        <time>2021-11-09T13:04:40.000Z</time>
      </trkpt>
      <trkpt lat="45.87522" lon="-1.24123">
        <ele>13.39999961853</ele>
        <time>2021-11-09T13:04:41.000Z</time>
      </trkpt>
      <trkpt lat="45.87518" lon="-1.24117">
        <ele>13.199999809265</ele>
        <time>2021-11-09T13:04:42.000Z</time>
      </trkpt>
      <trkpt lat="45.87509" lon="-1.24108">
        <ele>13.199999809265</ele>
        <time>2021-11-09T13:04:44.000Z</time>
      </trkpt>
      <trkpt lat="45.87504" lon="-1.24095">
        <ele>12.60000038147</ele>
        <time>2021-11-09T13:04:46.000Z</time>
      </trkpt>
      <trkpt lat="45.87502" lon="-1.24087">
        <ele>12.60000038147</ele>
        <time>2021-11-09T13:04:47.000Z</time>
      </trkpt>
      <trkpt lat="45.87502" lon="-1.24087">
        <ele>12.39999961853</ele>
        <time>2021-11-09T13:04:48.000Z</time>
      </trkpt>
      <trkpt lat="45.87493" lon="-1.24022">
        <ele>11.800000190735</ele>
        <time>2021-11-09T13:04:55.000Z</time>
      </trkpt>
      <trkpt lat="45.8749" lon="-1.2399">
        <ele>11.39999961853</ele>
        <time>2021-11-09T13:04:59.000Z</time>
      </trkpt>
      <trkpt lat="45.87486" lon="-1.2394">
        <ele>11.60000038147</ele>
        <time>2021-11-09T13:05:05.000Z</time>
      </trkpt>
      <trkpt lat="45.87485" lon="-1.23931">
        <ele>11.60000038147</ele>
        <time>2021-11-09T13:05:06.000Z</time>
      </trkpt>
      <trkpt lat="45.87484" lon="-1.23915">
        <ele>11.60000038147</ele>
        <time>2021-11-09T13:05:08.000Z</time>
      </trkpt>
      <trkpt lat="45.87477" lon="-1.23901">
        <ele>11.60000038147</ele>
        <time>2021-11-09T13:05:10.000Z</time>
      </trkpt>
      <trkpt lat="45.87471" lon="-1.23887">
        <ele>11.60000038147</ele>
        <time>2021-11-09T13:05:12.000Z</time>
      </trkpt>
      <trkpt lat="45.8747" lon="-1.23879">
        <ele>11.60000038147</ele>
        <time>2021-11-09T13:05:13.000Z</time>
      </trkpt>
      <trkpt lat="45.87469" lon="-1.23824">
        <ele>11.39999961853</ele>
        <time>2021-11-09T13:05:20.000Z</time>
      </trkpt>
      <trkpt lat="45.87469" lon="-1.238">
        <ele>11.60000038147</ele>
        <time>2021-11-09T13:05:23.000Z</time>
      </trkpt>
      <trkpt lat="45.87472" lon="-1.23784">
        <ele>11.60000038147</ele>
        <time>2021-11-09T13:05:25.000Z</time>
      </trkpt>
      <trkpt lat="45.87474" lon="-1.23777">
        <ele>11.39999961853</ele>
        <time>2021-11-09T13:05:26.000Z</time>
      </trkpt>
      <trkpt lat="45.87483" lon="-1.23758">
        <ele>11.800000190735</ele>
        <time>2021-11-09T13:05:29.000Z</time>
      </trkpt>
      <trkpt lat="45.87486" lon="-1.23746">
        <ele>12</ele>
        <time>2021-11-09T13:05:31.000Z</time>
      </trkpt>
      <trkpt lat="45.87486" lon="-1.2374">
        <ele>12</ele>
        <time>2021-11-09T13:05:32.000Z</time>
      </trkpt>
      <trkpt lat="45.87477" lon="-1.23721">
        <ele>12</ele>
        <time>2021-11-09T13:05:36.000Z</time>
      </trkpt>
      <trkpt lat="45.87472" lon="-1.2371">
        <ele>12</ele>
        <time>2021-11-09T13:05:38.000Z</time>
      </trkpt>
      <trkpt lat="45.87462" lon="-1.23686">
        <ele>11.800000190735</ele>
        <time>2021-11-09T13:05:42.000Z</time>
      </trkpt>
      <trkpt lat="45.87446" lon="-1.23642">
        <ele>12</ele>
        <time>2021-11-09T13:05:49.000Z</time>
      </trkpt>
      <trkpt lat="45.87433" lon="-1.23593">
        <ele>12</ele>
        <time>2021-11-09T13:05:56.000Z</time>
      </trkpt>
      <trkpt lat="45.87427" lon="-1.23565">
        <ele>11.800000190735</ele>
        <time>2021-11-09T13:06:00.000Z</time>
      </trkpt>
      <trkpt lat="45.87425" lon="-1.23543">
        <ele>11.800000190735</ele>
        <time>2021-11-09T13:06:03.000Z</time>
      </trkpt>
      <trkpt lat="45.87426" lon="-1.23529">
        <ele>11.800000190735</ele>
        <time>2021-11-09T13:06:05.000Z</time>
      </trkpt>
      <trkpt lat="45.87428" lon="-1.23515">
        <ele>11.800000190735</ele>
        <time>2021-11-09T13:06:07.000Z</time>
      </trkpt>
      <trkpt lat="45.87427" lon="-1.23508">
        <ele>12</ele>
        <time>2021-11-09T13:06:08.000Z</time>
      </trkpt>
      <trkpt lat="45.87421" lon="-1.23489">
        <ele>12.39999961853</ele>
        <time>2021-11-09T13:06:11.000Z</time>
      </trkpt>
      <trkpt lat="45.87418" lon="-1.23476">
        <ele>12.39999961853</ele>
        <time>2021-11-09T13:06:13.000Z</time>
      </trkpt>
      <trkpt lat="45.87417" lon="-1.23469">
        <ele>12.199999809265</ele>
        <time>2021-11-09T13:06:14.000Z</time>
      </trkpt>
      <trkpt lat="45.87416" lon="-1.23462">
        <ele>12</ele>
        <time>2021-11-09T13:06:15.000Z</time>
      </trkpt>
      <trkpt lat="45.8741" lon="-1.23452">
        <ele>11.800000190735</ele>
        <time>2021-11-09T13:06:17.000Z</time>
      </trkpt>
      <trkpt lat="45.87402" lon="-1.23448">
        <ele>11.800000190735</ele>
        <time>2021-11-09T13:06:19.000Z</time>
      </trkpt>
      <trkpt lat="45.87398" lon="-1.23449">
        <ele>11.60000038147</ele>
        <time>2021-11-09T13:06:20.000Z</time>
      </trkpt>
      <trkpt lat="45.87389" lon="-1.2345">
        <ele>11.199999809265</ele>
        <time>2021-11-09T13:06:22.000Z</time>
      </trkpt>
      <trkpt lat="45.8735" lon="-1.23456">
        <ele>11</ele>
        <time>2021-11-09T13:06:30.000Z</time>
      </trkpt>
      <trkpt lat="45.87335" lon="-1.23453">
        <ele>11.39999961853</ele>
        <time>2021-11-09T13:06:33.000Z</time>
      </trkpt>
      <trkpt lat="45.8733" lon="-1.23455">
        <ele>11.199999809265</ele>
        <time>2021-11-09T13:06:34.000Z</time>
      </trkpt>
      <trkpt lat="45.87326" lon="-1.23459">
        <ele>11.199999809265</ele>
        <time>2021-11-09T13:06:35.000Z</time>
      </trkpt>
      <trkpt lat="45.8732" lon="-1.23471">
        <ele>11.199999809265</ele>
        <time>2021-11-09T13:06:37.000Z</time>
      </trkpt>
      <trkpt lat="45.87307" lon="-1.23511">
        <ele>11</ele>
        <time>2021-11-09T13:06:43.000Z</time>
      </trkpt>
      <trkpt lat="45.87306" lon="-1.23519">
        <ele>11.199999809265</ele>
        <time>2021-11-09T13:06:44.000Z</time>
      </trkpt>
      <trkpt lat="45.87305" lon="-1.23542">
        <ele>11.800000190735</ele>
        <time>2021-11-09T13:06:47.000Z</time>
      </trkpt>
      <trkpt lat="45.87304" lon="-1.23549">
        <ele>12</ele>
        <time>2021-11-09T13:06:48.000Z</time>
      </trkpt>
      <trkpt lat="45.87301" lon="-1.23556">
        <ele>12</ele>
        <time>2021-11-09T13:06:49.000Z</time>
      </trkpt>
      <trkpt lat="45.87291" lon="-1.23563">
        <ele>12</ele>
        <time>2021-11-09T13:06:51.000Z</time>
      </trkpt>
      <trkpt lat="45.87281" lon="-1.23565">
        <ele>12</ele>
        <time>2021-11-09T13:06:53.000Z</time>
      </trkpt>
      <trkpt lat="45.87258" lon="-1.23572">
        <ele>12.199999809265</ele>
        <time>2021-11-09T13:06:57.000Z</time>
      </trkpt>
      <trkpt lat="45.87248" lon="-1.23581">
        <ele>12</ele>
        <time>2021-11-09T13:06:59.000Z</time>
      </trkpt>
      <trkpt lat="45.87218" lon="-1.2361">
        <ele>12</ele>
        <time>2021-11-09T13:07:05.000Z</time>
      </trkpt>
      <trkpt lat="45.872" lon="-1.2364">
        <ele>12.199999809265</ele>
        <time>2021-11-09T13:07:10.000Z</time>
      </trkpt>
      <trkpt lat="45.87192" lon="-1.23649">
        <ele>12.199999809265</ele>
        <time>2021-11-09T13:07:12.000Z</time>
      </trkpt>
      <trkpt lat="45.87188" lon="-1.2365">
        <ele>12.199999809265</ele>
        <time>2021-11-09T13:07:13.000Z</time>
      </trkpt>
      <trkpt lat="45.87184" lon="-1.23641">
        <ele>12.199999809265</ele>
        <time>2021-11-09T13:07:15.000Z</time>
      </trkpt>
      <trkpt lat="45.87185" lon="-1.23635">
        <ele>12.39999961853</ele>
        <time>2021-11-09T13:07:16.000Z</time>
      </trkpt>
      <trkpt lat="45.87189" lon="-1.2363">
        <ele>12.39999961853</ele>
        <time>2021-11-09T13:07:17.000Z</time>
      </trkpt>
      <trkpt lat="45.87196" lon="-1.2362">
        <ele>12.199999809265</ele>
        <time>2021-11-09T13:07:19.000Z</time>
      </trkpt>
      <trkpt lat="45.87208" lon="-1.23604">
        <ele>12.199999809265</ele>
        <time>2021-11-09T13:07:22.000Z</time>
      </trkpt>
      <trkpt lat="45.87221" lon="-1.23588">
        <ele>12</ele>
        <time>2021-11-09T13:07:25.000Z</time>
      </trkpt>
      <trkpt lat="45.87227" lon="-1.23574">
        <ele>12</ele>
        <time>2021-11-09T13:07:27.000Z</time>
      </trkpt>
      <trkpt lat="45.87232" lon="-1.2356">
        <ele>12</ele>
        <time>2021-11-09T13:07:29.000Z</time>
      </trkpt>
      <trkpt lat="45.87239" lon="-1.23546">
        <ele>12.60000038147</ele>
        <time>2021-11-09T13:07:32.000Z</time>
      </trkpt>
      <trkpt lat="45.87247" lon="-1.23533">
        <ele>12.800000190735</ele>
        <time>2021-11-09T13:07:33.000Z</time>
      </trkpt>
      <trkpt lat="45.87254" lon="-1.23519">
        <ele>13</ele>
        <time>2021-11-09T13:07:35.000Z</time>
      </trkpt>
      <trkpt lat="45.87256" lon="-1.23511">
        <ele>13</ele>
        <time>2021-11-09T13:07:36.000Z</time>
      </trkpt>
      <trkpt lat="45.87256" lon="-1.23505">
        <ele>13.199999809265</ele>
        <time>2021-11-09T13:07:37.000Z</time>
      </trkpt>
      <trkpt lat="45.87254" lon="-1.23479">
        <ele>13.60000038147</ele>
        <time>2021-11-09T13:07:40.000Z</time>
      </trkpt>
      <trkpt lat="45.87251" lon="-1.23453">
        <ele>14</ele>
        <time>2021-11-09T13:07:43.000Z</time>
      </trkpt>
      <trkpt lat="45.87249" lon="-1.23445">
        <ele>14</ele>
        <time>2021-11-09T13:07:44.000Z</time>
      </trkpt>
      <trkpt lat="45.87246" lon="-1.23435">
        <ele>14.39999961853</ele>
        <time>2021-11-09T13:07:45.000Z</time>
      </trkpt>
      <trkpt lat="45.87242" lon="-1.2342">
        <ele>14.60000038147</ele>
        <time>2021-11-09T13:07:47.000Z</time>
      </trkpt>
      <trkpt lat="45.87237" lon="-1.23403">
        <ele>14.60000038147</ele>
        <time>2021-11-09T13:07:49.000Z</time>
      </trkpt>
      <trkpt lat="45.87231" lon="-1.2335">
        <ele>15</ele>
        <time>2021-11-09T13:07:55.000Z</time>
      </trkpt>
      <trkpt lat="45.87228" lon="-1.23335">
        <ele>15</ele>
        <time>2021-11-09T13:07:57.000Z</time>
      </trkpt>
      <trkpt lat="45.87221" lon="-1.23318">
        <ele>15</ele>
        <time>2021-11-09T13:07:59.000Z</time>
      </trkpt>
      <trkpt lat="45.8719" lon="-1.23259">
        <ele>14.60000038147</ele>
        <time>2021-11-09T13:08:07.000Z</time>
      </trkpt>
      <trkpt lat="45.87177" lon="-1.23223">
        <ele>14.800000190735</ele>
        <time>2021-11-09T13:08:12.000Z</time>
      </trkpt>
      <trkpt lat="45.87166" lon="-1.2319">
        <ele>14.39999961853</ele>
        <time>2021-11-09T13:08:16.000Z</time>
      </trkpt>
      <trkpt lat="45.87154" lon="-1.23149">
        <ele>14</ele>
        <time>2021-11-09T13:08:21.000Z</time>
      </trkpt>
      <trkpt lat="45.87151" lon="-1.23141">
        <ele>13.800000190735</ele>
        <time>2021-11-09T13:08:22.000Z</time>
      </trkpt>
      <trkpt lat="45.8714" lon="-1.23109">
        <ele>13.800000190735</ele>
        <time>2021-11-09T13:08:26.000Z</time>
      </trkpt>
      <trkpt lat="45.87136" lon="-1.23093">
        <ele>14.199999809265</ele>
        <time>2021-11-09T13:08:28.000Z</time>
      </trkpt>
      <trkpt lat="45.87134" lon="-1.23085">
        <ele>14.199999809265</ele>
        <time>2021-11-09T13:08:29.000Z</time>
      </trkpt>
      <trkpt lat="45.87128" lon="-1.23071">
        <ele>14.199999809265</ele>
        <time>2021-11-09T13:08:31.000Z</time>
      </trkpt>
      <trkpt lat="45.87125" lon="-1.23064">
        <ele>14.199999809265</ele>
        <time>2021-11-09T13:08:32.000Z</time>
      </trkpt>
      <trkpt lat="45.87124" lon="-1.23056">
        <ele>14.199999809265</ele>
        <time>2021-11-09T13:08:33.000Z</time>
      </trkpt>
      <trkpt lat="45.8712" lon="-1.23041">
        <ele>14.199999809265</ele>
        <time>2021-11-09T13:08:35.000Z</time>
      </trkpt>
      <trkpt lat="45.87118" lon="-1.23033">
        <ele>14.199999809265</ele>
        <time>2021-11-09T13:08:36.000Z</time>
      </trkpt>
      <trkpt lat="45.87116" lon="-1.23025">
        <ele>14.199999809265</ele>
        <time>2021-11-09T13:08:37.000Z</time>
      </trkpt>
      <trkpt lat="45.87112" lon="-1.23002">
        <ele>14.199999809265</ele>
        <time>2021-11-09T13:08:40.000Z</time>
      </trkpt>
      <trkpt lat="45.8711" lon="-1.22994">
        <ele>14.199999809265</ele>
        <time>2021-11-09T13:08:41.000Z</time>
      </trkpt>
      <trkpt lat="45.87099" lon="-1.22963">
        <ele>14.60000038147</ele>
        <time>2021-11-09T13:08:45.000Z</time>
      </trkpt>
      <trkpt lat="45.87095" lon="-1.22947">
        <ele>14.800000190735</ele>
        <time>2021-11-09T13:08:47.000Z</time>
      </trkpt>
      <trkpt lat="45.87091" lon="-1.22923">
        <ele>15.199999809265</ele>
        <time>2021-11-09T13:08:50.000Z</time>
      </trkpt>
      <trkpt lat="45.87084" lon="-1.22883">
        <ele>15.39999961853</ele>
        <time>2021-11-09T13:08:55.000Z</time>
      </trkpt>
      <trkpt lat="45.87083" lon="-1.22875">
        <ele>15.199999809265</ele>
        <time>2021-11-09T13:08:56.000Z</time>
      </trkpt>
      <trkpt lat="45.87079" lon="-1.22861">
        <ele>15.199999809265</ele>
        <time>2021-11-09T13:08:58.000Z</time>
      </trkpt>
      <trkpt lat="45.87077" lon="-1.22848">
        <ele>15.199999809265</ele>
        <time>2021-11-09T13:09:00.000Z</time>
      </trkpt>
      <trkpt lat="45.87076" lon="-1.22842">
        <ele>15.199999809265</ele>
        <time>2021-11-09T13:09:01.000Z</time>
      </trkpt>
      <trkpt lat="45.87071" lon="-1.22827">
        <ele>15.199999809265</ele>
        <time>2021-11-09T13:09:04.000Z</time>
      </trkpt>
      <trkpt lat="45.87067" lon="-1.22811">
        <ele>15.199999809265</ele>
        <time>2021-11-09T13:09:07.000Z</time>
      </trkpt>
      <trkpt lat="45.87064" lon="-1.22807">
        <ele>15.199999809265</ele>
        <time>2021-11-09T13:09:08.000Z</time>
      </trkpt>
      <trkpt lat="45.87045" lon="-1.22786">
        <ele>15.199999809265</ele>
        <time>2021-11-09T13:09:12.000Z</time>
      </trkpt>
      <trkpt lat="45.8704" lon="-1.22778">
        <ele>15.199999809265</ele>
        <time>2021-11-09T13:09:13.000Z</time>
      </trkpt>
      <trkpt lat="45.87018" lon="-1.22745">
        <ele>15.60000038147</ele>
        <time>2021-11-09T13:09:18.000Z</time>
      </trkpt>
      <trkpt lat="45.86992" lon="-1.22704">
        <ele>16.200000762939</ele>
        <time>2021-11-09T13:09:24.000Z</time>
      </trkpt>
      <trkpt lat="45.86988" lon="-1.22697">
        <ele>16.39999961853</ele>
        <time>2021-11-09T13:09:25.000Z</time>
      </trkpt>
      <trkpt lat="45.86971" lon="-1.22649">
        <ele>16.60000038147</ele>
        <time>2021-11-09T13:09:31.000Z</time>
      </trkpt>
      <trkpt lat="45.8695" lon="-1.22587">
        <ele>17</ele>
        <time>2021-11-09T13:09:39.000Z</time>
      </trkpt>
      <trkpt lat="45.86944" lon="-1.22574">
        <ele>17.39999961853</ele>
        <time>2021-11-09T13:09:41.000Z</time>
      </trkpt>
      <trkpt lat="45.86929" lon="-1.22547">
        <ele>17.60000038147</ele>
        <time>2021-11-09T13:09:45.000Z</time>
      </trkpt>
      <trkpt lat="45.86914" lon="-1.22509">
        <ele>18.39999961853</ele>
        <time>2021-11-09T13:09:50.000Z</time>
      </trkpt>
      <trkpt lat="45.86911" lon="-1.22502">
        <ele>18.799999237061</ele>
        <time>2021-11-09T13:09:51.000Z</time>
      </trkpt>
      <trkpt lat="45.86892" lon="-1.22449">
        <ele>19.60000038147</ele>
        <time>2021-11-09T13:09:58.000Z</time>
      </trkpt>
      <trkpt lat="45.86889" lon="-1.22442">
        <ele>20</ele>
        <time>2021-11-09T13:09:59.000Z</time>
      </trkpt>
      <trkpt lat="45.86876" lon="-1.22414">
        <ele>21.200000762939</ele>
        <time>2021-11-09T13:10:03.000Z</time>
      </trkpt>
      <trkpt lat="45.86873" lon="-1.22407">
        <ele>21.39999961853</ele>
        <time>2021-11-09T13:10:04.000Z</time>
      </trkpt>
      <trkpt lat="45.8687" lon="-1.22399">
        <ele>21.39999961853</ele>
        <time>2021-11-09T13:10:05.000Z</time>
      </trkpt>
      <trkpt lat="45.86868" lon="-1.22391">
        <ele>21.39999961853</ele>
        <time>2021-11-09T13:10:06.000Z</time>
      </trkpt>
      <trkpt lat="45.86868" lon="-1.22374">
        <ele>21.60000038147</ele>
        <time>2021-11-09T13:10:08.000Z</time>
      </trkpt>
      <trkpt lat="45.86873" lon="-1.22359">
        <ele>21.60000038147</ele>
        <time>2021-11-09T13:10:10.000Z</time>
      </trkpt>
      <trkpt lat="45.8688" lon="-1.22348">
        <ele>21.60000038147</ele>
        <time>2021-11-09T13:10:12.000Z</time>
      </trkpt>
      <trkpt lat="45.86889" lon="-1.22336">
        <ele>21.60000038147</ele>
        <time>2021-11-09T13:10:14.000Z</time>
      </trkpt>
      <trkpt lat="45.86894" lon="-1.22322">
        <ele>21.60000038147</ele>
        <time>2021-11-09T13:10:16.000Z</time>
      </trkpt>
      <trkpt lat="45.86897" lon="-1.22282">
        <ele>21</ele>
        <time>2021-11-09T13:10:21.000Z</time>
      </trkpt>
      <trkpt lat="45.86908" lon="-1.22228">
        <ele>20.200000762939</ele>
        <time>2021-11-09T13:10:28.000Z</time>
      </trkpt>
      <trkpt lat="45.8691" lon="-1.2222">
        <ele>20</ele>
        <time>2021-11-09T13:10:29.000Z</time>
      </trkpt>
      <trkpt lat="45.86923" lon="-1.22165">
        <ele>20.200000762939</ele>
        <time>2021-11-09T13:10:36.000Z</time>
      </trkpt>
      <trkpt lat="45.86928" lon="-1.2214">
        <ele>20.200000762939</ele>
        <time>2021-11-09T13:10:39.000Z</time>
      </trkpt>
      <trkpt lat="45.86928" lon="-1.22131">
        <ele>20.200000762939</ele>
        <time>2021-11-09T13:10:40.000Z</time>
      </trkpt>
      <trkpt lat="45.8692" lon="-1.22106">
        <ele>20</ele>
        <time>2021-11-09T13:10:43.000Z</time>
      </trkpt>
      <trkpt lat="45.86913" lon="-1.22092">
        <ele>20</ele>
        <time>2021-11-09T13:10:45.000Z</time>
      </trkpt>
      <trkpt lat="45.86883" lon="-1.22034">
        <ele>19.799999237061</ele>
        <time>2021-11-09T13:10:53.000Z</time>
      </trkpt>
      <trkpt lat="45.86881" lon="-1.22028">
        <ele>20</ele>
        <time>2021-11-09T13:10:54.000Z</time>
      </trkpt>
      <trkpt lat="45.8688" lon="-1.22018">
        <ele>20</ele>
        <time>2021-11-09T13:10:55.000Z</time>
      </trkpt>
      <trkpt lat="45.86881" lon="-1.22003">
        <ele>19.799999237061</ele>
        <time>2021-11-09T13:10:57.000Z</time>
      </trkpt>
      <trkpt lat="45.86886" lon="-1.21992">
        <ele>19.799999237061</ele>
        <time>2021-11-09T13:10:59.000Z</time>
      </trkpt>
      <trkpt lat="45.8689" lon="-1.21989">
        <ele>19.799999237061</ele>
        <time>2021-11-09T13:11:00.000Z</time>
      </trkpt>
      <trkpt lat="45.86916" lon="-1.21975">
        <ele>19.39999961853</ele>
        <time>2021-11-09T13:11:05.000Z</time>
      </trkpt>
      <trkpt lat="45.8696" lon="-1.21941">
        <ele>20.39999961853</ele>
        <time>2021-11-09T13:11:13.000Z</time>
      </trkpt>
      <trkpt lat="45.86982" lon="-1.21923">
        <ele>21.60000038147</ele>
        <time>2021-11-09T13:11:17.000Z</time>
      </trkpt>
      <trkpt lat="45.86998" lon="-1.2191">
        <ele>22.200000762939</ele>
        <time>2021-11-09T13:11:20.000Z</time>
      </trkpt>
      <trkpt lat="45.8701" lon="-1.21902">
        <ele>22.60000038147</ele>
        <time>2021-11-09T13:11:22.000Z</time>
      </trkpt>
      <trkpt lat="45.87037" lon="-1.21881">
        <ele>23.60000038147</ele>
        <time>2021-11-09T13:11:27.000Z</time>
      </trkpt>
      <trkpt lat="45.87042" lon="-1.21876">
        <ele>23.799999237061</ele>
        <time>2021-11-09T13:11:28.000Z</time>
      </trkpt>
      <trkpt lat="45.8707" lon="-1.21844">
        <ele>25</ele>
        <time>2021-11-09T13:11:34.000Z</time>
      </trkpt>
      <trkpt lat="45.87079" lon="-1.2183">
        <ele>25</ele>
        <time>2021-11-09T13:11:36.000Z</time>
      </trkpt>
      <trkpt lat="45.87085" lon="-1.21816">
        <ele>25.60000038147</ele>
        <time>2021-11-09T13:11:38.000Z</time>
      </trkpt>
      <trkpt lat="45.87089" lon="-1.21808">
        <ele>25.799999237061</ele>
        <time>2021-11-09T13:11:39.000Z</time>
      </trkpt>
      <trkpt lat="45.87104" lon="-1.21781">
        <ele>25.799999237061</ele>
        <time>2021-11-09T13:11:43.000Z</time>
      </trkpt>
      <trkpt lat="45.87109" lon="-1.21764">
        <ele>26</ele>
        <time>2021-11-09T13:11:45.000Z</time>
      </trkpt>
      <trkpt lat="45.87111" lon="-1.21747">
        <ele>26</ele>
        <time>2021-11-09T13:11:47.000Z</time>
      </trkpt>
      <trkpt lat="45.87109" lon="-1.21729">
        <ele>26.200000762939</ele>
        <time>2021-11-09T13:11:49.000Z</time>
      </trkpt>
      <trkpt lat="45.87095" lon="-1.21676">
        <ele>26.200000762939</ele>
        <time>2021-11-09T13:11:55.000Z</time>
      </trkpt>
      <trkpt lat="45.87073" lon="-1.21619">
        <ele>25.799999237061</ele>
        <time>2021-11-09T13:12:02.000Z</time>
      </trkpt>
      <trkpt lat="45.87045" lon="-1.21544">
        <ele>25.39999961853</ele>
        <time>2021-11-09T13:12:11.000Z</time>
      </trkpt>
      <trkpt lat="45.87028" lon="-1.21502">
        <ele>25.200000762939</ele>
        <time>2021-11-09T13:12:16.000Z</time>
      </trkpt>
      <trkpt lat="45.87019" lon="-1.21476">
        <ele>24.60000038147</ele>
        <time>2021-11-09T13:12:19.000Z</time>
      </trkpt>
      <trkpt lat="45.87009" lon="-1.2145">
        <ele>24</ele>
        <time>2021-11-09T13:12:22.000Z</time>
      </trkpt>
      <trkpt lat="45.86999" lon="-1.21425">
        <ele>23.60000038147</ele>
        <time>2021-11-09T13:12:25.000Z</time>
      </trkpt>
      <trkpt lat="45.86996" lon="-1.21417">
        <ele>23.60000038147</ele>
        <time>2021-11-09T13:12:26.000Z</time>
      </trkpt>
      <trkpt lat="45.86976" lon="-1.21362">
        <ele>23</ele>
        <time>2021-11-09T13:12:33.000Z</time>
      </trkpt>
      <trkpt lat="45.86973" lon="-1.21354">
        <ele>22.799999237061</ele>
        <time>2021-11-09T13:12:34.000Z</time>
      </trkpt>
      <trkpt lat="45.86944" lon="-1.21281">
        <ele>22.799999237061</ele>
        <time>2021-11-09T13:12:43.000Z</time>
      </trkpt>
      <trkpt lat="45.86934" lon="-1.21258">
        <ele>22.60000038147</ele>
        <time>2021-11-09T13:12:46.000Z</time>
      </trkpt>
      <trkpt lat="45.86929" lon="-1.21245">
        <ele>22.60000038147</ele>
        <time>2021-11-09T13:12:48.000Z</time>
      </trkpt>
      <trkpt lat="45.8693" lon="-1.21239">
        <ele>22.60000038147</ele>
        <time>2021-11-09T13:12:49.000Z</time>
      </trkpt>
      <trkpt lat="45.86937" lon="-1.2123">
        <ele>22.60000038147</ele>
        <time>2021-11-09T13:12:51.000Z</time>
      </trkpt>
      <trkpt lat="45.86941" lon="-1.21226">
        <ele>22.60000038147</ele>
        <time>2021-11-09T13:12:52.000Z</time>
      </trkpt>
      <trkpt lat="45.86956" lon="-1.2121">
        <ele>22.60000038147</ele>
        <time>2021-11-09T13:12:56.000Z</time>
      </trkpt>
      <trkpt lat="45.86934" lon="-1.21156">
        <ele>3.4</ele>
      </trkpt>
      <trkpt lat="45.86934" lon="-1.21156">
        <ele>3.4</ele>
      </trkpt>
      <trkpt lat="45.86929" lon="-1.2112">
        <ele>3.6</ele>
      </trkpt>
      <trkpt lat="45.86929" lon="-1.2112">
        <ele>3.6</ele>
      </trkpt>
    </trkseg>
  </trk>
</gpx>